<?xml version='1.0' encoding='UTF-8'?><gpx version="1.1" creator="JPX - https://github.com/jenetics/jpx" xmlns="http://www.topografix.com/GPX/1/1"><trk><trkseg><trkpt lat="44.924241635058934" lon="11.988303847622115"><ele>-4.333333333333333</ele><time>2026-04-11T09:32:36.129Z</time></trkpt><trkpt lat="44.92420404222321" lon="11.988428905617434"><ele>-4.666666666666666</ele><time>2026-04-11T09:32:37.133Z</time></trkpt><trkpt lat="44.92426669694942" lon="11.988486573111254"><ele>-5.0</ele><time>2026-04-11T09:32:41.013Z</time></trkpt><trkpt lat="44.92435445547562" lon="11.988476263370353"><ele>-5.333333333333333</ele><time>2026-04-11T09:32:43.995Z</time></trkpt><trkpt lat="44.92441870276343" lon="11.988481208693225"><ele>-5.666666666666667</ele><time>2026-04-11T09:32:45.995Z</time></trkpt><trkpt lat="44.92446497086894" lon="11.988564357172686"><ele>-6.0</ele><time>2026-04-11T09:32:47.996Z</time></trkpt><trkpt lat="44.924473037005" lon="11.988686096193627"><ele>-6.0</ele><time>2026-04-11T09:32:49.996Z</time></trkpt><trkpt lat="44.92446614229348" lon="11.988814183143038"><ele>-6.0</ele><time>2026-04-11T09:32:51.997Z</time></trkpt><trkpt lat="44.9244624952923" lon="11.988942943844474"><ele>-6.0</ele><time>2026-04-11T09:32:53.997Z</time></trkpt><trkpt lat="44.924440689399916" lon="11.98906929915854"><ele>-6.0</ele><time>2026-04-11T09:32:55.998Z</time></trkpt><trkpt lat="44.92444258328437" lon="11.989183511876162"><ele>-6.0</ele><time>2026-04-11T09:32:57.998Z</time></trkpt><trkpt lat="44.92444116662806" lon="11.989304605226584"><ele>-6.0</ele><time>2026-04-11T09:32:59.998Z</time></trkpt><trkpt lat="44.92445130737617" lon="11.989429752225293"><ele>-6.0</ele><time>2026-04-11T09:33:01.998Z</time></trkpt><trkpt lat="44.924450383698726" lon="11.98955408440219"><ele>-6.0</ele><time>2026-04-11T09:33:03.999Z</time></trkpt><trkpt lat="44.92445464464803" lon="11.989672537211337"><ele>-6.0</ele><time>2026-04-11T09:33:05.999Z</time></trkpt><trkpt lat="44.9244524026429" lon="11.98979133232911"><ele>-6.0</ele><time>2026-04-11T09:33:07.999Z</time></trkpt><trkpt lat="44.924436257954675" lon="11.989879868349847"><ele>-6.0</ele><time>2026-04-11T09:33:08.999Z</time></trkpt><trkpt lat="44.924439328661826" lon="11.990000244296315"><ele>-6.0</ele><time>2026-04-11T09:33:10.999Z</time></trkpt><trkpt lat="44.92444432781533" lon="11.990108872602637"><ele>-6.0</ele><time>2026-04-11T09:33:12.999Z</time></trkpt><trkpt lat="44.92444207704645" lon="11.99021863858028"><ele>-6.0</ele><time>2026-04-11T09:33:14.999Z</time></trkpt><trkpt lat="44.924445887010975" lon="11.990332127570946"><ele>-6.0</ele><time>2026-04-11T09:33:16.999Z</time></trkpt><trkpt lat="44.92445270597252" lon="11.990440006827184"><ele>-6.0</ele><time>2026-04-11T09:33:18.999Z</time></trkpt><trkpt lat="44.924449894852486" lon="11.990549794728436"><ele>-6.0</ele><time>2026-04-11T09:33:20.999Z</time></trkpt><trkpt lat="44.92445345252356" lon="11.9906610685909"><ele>-6.0</ele><time>2026-04-11T09:33:22.999Z</time></trkpt><trkpt lat="44.92445223544836" lon="11.990770317117278"><ele>-6.166666666666667</ele><time>2026-04-11T09:33:24.999Z</time></trkpt><trkpt lat="44.92445797212098" lon="11.990878759734954"><ele>-6.333333333333334</ele><time>2026-04-11T09:33:26.999Z</time></trkpt><trkpt lat="44.92446523252698" lon="11.990984277921035"><ele>-6.5</ele><time>2026-04-11T09:33:29Z</time></trkpt><trkpt lat="44.92445307356099" lon="11.991092825437999"><ele>-6.666666666666667</ele><time>2026-04-11T09:33:31Z</time></trkpt><trkpt lat="44.92439686675035" lon="11.991172824091802"><ele>-6.833333333333334</ele><time>2026-04-11T09:33:33Z</time></trkpt><trkpt lat="44.92431586783398" lon="11.991190490864176"><ele>-7.0</ele><time>2026-04-11T09:33:35Z</time></trkpt><trkpt lat="44.92424042203543" lon="11.99118597281664"><ele>-7.000000000000001</ele><time>2026-04-11T09:33:37Z</time></trkpt><trkpt lat="44.92416521969086" lon="11.991190134831504"><ele>-7.0</ele><time>2026-04-11T09:33:39Z</time></trkpt><trkpt lat="44.92408923718655" lon="11.991193932006698"><ele>-7.0</ele><time>2026-04-11T09:33:41Z</time></trkpt><trkpt lat="44.92400895355459" lon="11.991179209090268"><ele>-7.0</ele><time>2026-04-11T09:33:43Z</time></trkpt><trkpt lat="44.923931245126546" lon="11.991189333365801"><ele>-7.000000000000001</ele><time>2026-04-11T09:33:45Z</time></trkpt><trkpt lat="44.92385097844711" lon="11.991182805567346"><ele>-7.0</ele><time>2026-04-11T09:33:47Z</time></trkpt><trkpt lat="44.923769087144045" lon="11.991176561261836"><ele>-7.000000000000001</ele><time>2026-04-11T09:33:49Z</time></trkpt><trkpt lat="44.923686671141205" lon="11.99117474293635"><ele>-7.0</ele><time>2026-04-11T09:33:51Z</time></trkpt><trkpt lat="44.92360615489792" lon="11.991178247933856"><ele>-7.0</ele><time>2026-04-11T09:33:52.999Z</time></trkpt><trkpt lat="44.923527593842444" lon="11.991188908673468"><ele>-7.0</ele><time>2026-04-11T09:33:54.999Z</time></trkpt><trkpt lat="44.923448857037634" lon="11.99118373214074"><ele>-7.000000000000001</ele><time>2026-04-11T09:33:56.999Z</time></trkpt><trkpt lat="44.92336765620822" lon="11.991195168637173"><ele>-7.0</ele><time>2026-04-11T09:33:58.999Z</time></trkpt><trkpt lat="44.9232850281924" lon="11.991195351111072"><ele>-7.000000000000001</ele><time>2026-04-11T09:34:00.999Z</time></trkpt><trkpt lat="44.923199580726035" lon="11.991197381676393"><ele>-7.0</ele><time>2026-04-11T09:34:02.999Z</time></trkpt><trkpt lat="44.92312148983728" lon="11.991197890778782"><ele>-7.0</ele><time>2026-04-11T09:34:04.999Z</time></trkpt><trkpt lat="44.92304144884834" lon="11.991196950333451"><ele>-7.0</ele><time>2026-04-11T09:34:06.999Z</time></trkpt><trkpt lat="44.92295972926658" lon="11.991195919580427"><ele>-7.000000000000001</ele><time>2026-04-11T09:34:08.999Z</time></trkpt><trkpt lat="44.92287615112325" lon="11.991195054142509"><ele>-7.0</ele><time>2026-04-11T09:34:10.999Z</time></trkpt><trkpt lat="44.922793779845705" lon="11.991192532503213"><ele>-7.000000000000001</ele><time>2026-04-11T09:34:12.999Z</time></trkpt><trkpt lat="44.922712660674854" lon="11.991195092834374"><ele>-7.0</ele><time>2026-04-11T09:34:14.999Z</time></trkpt><trkpt lat="44.922630987097754" lon="11.991190912256078"><ele>-7.0</ele><time>2026-04-11T09:34:16.999Z</time></trkpt><trkpt lat="44.92254570660578" lon="11.991192641284526"><ele>-7.0</ele><time>2026-04-11T09:34:18.999Z</time></trkpt><trkpt lat="44.92246184021585" lon="11.991199567776677"><ele>-7.000000000000001</ele><time>2026-04-11T09:34:20.999Z</time></trkpt><trkpt lat="44.92237992825571" lon="11.991198464129107"><ele>-7.0</ele><time>2026-04-11T09:34:22.999Z</time></trkpt><trkpt lat="44.9222966198314" lon="11.99119896851047"><ele>-6.833333333333334</ele><time>2026-04-11T09:34:24.999Z</time></trkpt><trkpt lat="44.92221289973711" lon="11.991195942421562"><ele>-6.666666666666667</ele><time>2026-04-11T09:34:26.999Z</time></trkpt><trkpt lat="44.92212745539865" lon="11.991209058469625"><ele>-6.5</ele><time>2026-04-11T09:34:28.999Z</time></trkpt><trkpt lat="44.92204212852108" lon="11.99121485202676"><ele>-6.333333333333334</ele><time>2026-04-11T09:34:30.999Z</time></trkpt><trkpt lat="44.92195961656112" lon="11.991210467403867"><ele>-6.166666666666667</ele><time>2026-04-11T09:34:32.999Z</time></trkpt><trkpt lat="44.92187584569241" lon="11.991214162264184"><ele>-6.0</ele><time>2026-04-11T09:34:34.999Z</time></trkpt><trkpt lat="44.92179415362966" lon="11.991218699414242"><ele>-6.0</ele><time>2026-04-11T09:34:36.999Z</time></trkpt><trkpt lat="44.921712607419664" lon="11.991217618191278"><ele>-6.0</ele><time>2026-04-11T09:34:38.999Z</time></trkpt><trkpt lat="44.92162948261263" lon="11.991222349942586"><ele>-6.0</ele><time>2026-04-11T09:34:40.999Z</time></trkpt><trkpt lat="44.92154646815033" lon="11.991223593570101"><ele>-6.0</ele><time>2026-04-11T09:34:42.999Z</time></trkpt><trkpt lat="44.92146184717555" lon="11.991218511078037"><ele>-6.0</ele><time>2026-04-11T09:34:44.999Z</time></trkpt><trkpt lat="44.921378555909435" lon="11.991215670900036"><ele>-6.0</ele><time>2026-04-11T09:34:47Z</time></trkpt><trkpt lat="44.92129235574355" lon="11.991217225063572"><ele>-6.0</ele><time>2026-04-11T09:34:49Z</time></trkpt><trkpt lat="44.92121086799158" lon="11.991215645069397"><ele>-6.0</ele><time>2026-04-11T09:34:51Z</time></trkpt><trkpt lat="44.921137819294906" lon="11.991203700911948"><ele>-6.0</ele><time>2026-04-11T09:34:53Z</time></trkpt><trkpt lat="44.92106853022583" lon="11.991209548091225"><ele>-6.0</ele><time>2026-04-11T09:34:55Z</time></trkpt><trkpt lat="44.92099712474184" lon="11.99121351489394"><ele>-6.0</ele><time>2026-04-11T09:34:57Z</time></trkpt><trkpt lat="44.92090207600127" lon="11.991206816349678"><ele>-6.0</ele><time>2026-04-11T09:34:59Z</time></trkpt><trkpt lat="44.920801825555024" lon="11.991208899824372"><ele>-6.0</ele><time>2026-04-11T09:35:01Z</time></trkpt><trkpt lat="44.92070295524002" lon="11.99121666269205"><ele>-6.0</ele><time>2026-04-11T09:35:03Z</time></trkpt><trkpt lat="44.92060155383323" lon="11.991207638194647"><ele>-6.0</ele><time>2026-04-11T09:35:05Z</time></trkpt><trkpt lat="44.920502525990194" lon="11.991212941868058"><ele>-6.0</ele><time>2026-04-11T09:35:07Z</time></trkpt><trkpt lat="44.920399982674525" lon="11.99121177367173"><ele>-6.0</ele><time>2026-04-11T09:35:09Z</time></trkpt><trkpt lat="44.92030462046165" lon="11.991214930382029"><ele>-6.0</ele><time>2026-04-11T09:35:11Z</time></trkpt><trkpt lat="44.92020799444992" lon="11.991220574516342"><ele>-6.0</ele><time>2026-04-11T09:35:13Z</time></trkpt><trkpt lat="44.920119027088596" lon="11.991226129158873"><ele>-6.0</ele><time>2026-04-11T09:35:15Z</time></trkpt><trkpt lat="44.9200349279128" lon="11.991220534600789"><ele>-6.0</ele><time>2026-04-11T09:35:17Z</time></trkpt><trkpt lat="44.91994458891906" lon="11.991219405115233"><ele>-6.0</ele><time>2026-04-11T09:35:19Z</time></trkpt><trkpt lat="44.91985499831011" lon="11.991224367251625"><ele>-6.166666666666667</ele><time>2026-04-11T09:35:21Z</time></trkpt><trkpt lat="44.91976874091269" lon="11.991227253153312"><ele>-6.333333333333334</ele><time>2026-04-11T09:35:23Z</time></trkpt><trkpt lat="44.91968368564936" lon="11.991225504668389"><ele>-6.5</ele><time>2026-04-11T09:35:25Z</time></trkpt><trkpt lat="44.919596095655606" lon="11.991231494787511"><ele>-6.666666666666667</ele><time>2026-04-11T09:35:27Z</time></trkpt><trkpt lat="44.919508521406" lon="11.991228926523982"><ele>-6.833333333333334</ele><time>2026-04-11T09:35:29Z</time></trkpt><trkpt lat="44.91941968651314" lon="11.991230339758722"><ele>-7.0</ele><time>2026-04-11T09:35:31Z</time></trkpt><trkpt lat="44.91933468344058" lon="11.991231205060691"><ele>-7.000000000000001</ele><time>2026-04-11T09:35:33Z</time></trkpt><trkpt lat="44.91925004659872" lon="11.99123032305122"><ele>-7.0</ele><time>2026-04-11T09:35:35Z</time></trkpt><trkpt lat="44.919165613269826" lon="11.991235877109117"><ele>-7.0</ele><time>2026-04-11T09:35:37Z</time></trkpt><trkpt lat="44.91907849560131" lon="11.99123791074944"><ele>-7.0</ele><time>2026-04-11T09:35:39Z</time></trkpt><trkpt lat="44.91899183071419" lon="11.991237667887003"><ele>-7.000000000000001</ele><time>2026-04-11T09:35:40.999Z</time></trkpt><trkpt lat="44.91890487402541" lon="11.991241735032187"><ele>-7.0</ele><time>2026-04-11T09:35:42.999Z</time></trkpt><trkpt lat="44.91882035414826" lon="11.991240772094379"><ele>-6.833333333333334</ele><time>2026-04-11T09:35:44.999Z</time></trkpt><trkpt lat="44.9187322021099" lon="11.991244666640085"><ele>-6.666666666666667</ele><time>2026-04-11T09:35:46.999Z</time></trkpt><trkpt lat="44.91864692399115" lon="11.991246337248871"><ele>-6.5</ele><time>2026-04-11T09:35:48.999Z</time></trkpt><trkpt lat="44.91856294735741" lon="11.991248635914587"><ele>-6.333333333333334</ele><time>2026-04-11T09:35:50.999Z</time></trkpt><trkpt lat="44.918478103653676" lon="11.991251392583512"><ele>-6.166666666666667</ele><time>2026-04-11T09:35:52.999Z</time></trkpt><trkpt lat="44.9183933735051" lon="11.991253073540209"><ele>-6.0</ele><time>2026-04-11T09:35:54.999Z</time></trkpt><trkpt lat="44.91831251556842" lon="11.9912500559199"><ele>-6.333333333333333</ele><time>2026-04-11T09:35:56.999Z</time></trkpt><trkpt lat="44.918234844638796" lon="11.991252449480475"><ele>-6.666666666666666</ele><time>2026-04-11T09:35:58.999Z</time></trkpt><trkpt lat="44.918160926188406" lon="11.991245942589428"><ele>-7.0</ele><time>2026-04-11T09:36:00.999Z</time></trkpt><trkpt lat="44.91808631274372" lon="11.99125218790415"><ele>-7.333333333333333</ele><time>2026-04-11T09:36:02.999Z</time></trkpt><trkpt lat="44.918004946421625" lon="11.991251658619314"><ele>-7.666666666666666</ele><time>2026-04-11T09:36:04.999Z</time></trkpt><trkpt lat="44.9179201069267" lon="11.991242159942718"><ele>-8.0</ele><time>2026-04-11T09:36:06.999Z</time></trkpt><trkpt lat="44.917838637779674" lon="11.991255098537247"><ele>-7.999999999999999</ele><time>2026-04-11T09:36:08.999Z</time></trkpt><trkpt lat="44.91775445239946" lon="11.99127030148688"><ele>-8.0</ele><time>2026-04-11T09:36:10.999Z</time></trkpt><trkpt lat="44.91767002334633" lon="11.991273913648056"><ele>-8.0</ele><time>2026-04-11T09:36:12.999Z</time></trkpt><trkpt lat="44.9175822627031" lon="11.991271918679429"><ele>-8.0</ele><time>2026-04-11T09:36:14.999Z</time></trkpt><trkpt lat="44.917499526653465" lon="11.99127249237092"><ele>-7.999999999999999</ele><time>2026-04-11T09:36:16.999Z</time></trkpt><trkpt lat="44.917416725361115" lon="11.991276571437714"><ele>-8.0</ele><time>2026-04-11T09:36:18.999Z</time></trkpt><trkpt lat="44.91733569870879" lon="11.991281794935576"><ele>-7.833333333333333</ele><time>2026-04-11T09:36:20.999Z</time></trkpt><trkpt lat="44.91725193756308" lon="11.991282616737893"><ele>-7.666666666666666</ele><time>2026-04-11T09:36:22.999Z</time></trkpt><trkpt lat="44.91716982434421" lon="11.991279335024132"><ele>-7.5</ele><time>2026-04-11T09:36:24.999Z</time></trkpt><trkpt lat="44.9170912057691" lon="11.991285470389352"><ele>-7.333333333333334</ele><time>2026-04-11T09:36:26.999Z</time></trkpt><trkpt lat="44.91701445596586" lon="11.991282783717978"><ele>-7.166666666666667</ele><time>2026-04-11T09:36:28.999Z</time></trkpt><trkpt lat="44.91693514724943" lon="11.991292048806447"><ele>-7.0</ele><time>2026-04-11T09:36:30.999Z</time></trkpt><trkpt lat="44.91685215449463" lon="11.991288253916265"><ele>-7.000000000000001</ele><time>2026-04-11T09:36:32.999Z</time></trkpt><trkpt lat="44.91676296667153" lon="11.991286401495206"><ele>-7.0</ele><time>2026-04-11T09:36:34.999Z</time></trkpt><trkpt lat="44.916679390059954" lon="11.9912966964113"><ele>-7.0</ele><time>2026-04-11T09:36:36.999Z</time></trkpt><trkpt lat="44.9165924747835" lon="11.991290598482982"><ele>-7.0</ele><time>2026-04-11T09:36:38.999Z</time></trkpt><trkpt lat="44.91650760613373" lon="11.991285411604604"><ele>-7.000000000000001</ele><time>2026-04-11T09:36:40.999Z</time></trkpt><trkpt lat="44.91642379939553" lon="11.99128818652167"><ele>-7.0</ele><time>2026-04-11T09:36:42.999Z</time></trkpt><trkpt lat="44.91633928865656" lon="11.99128423836455"><ele>-6.833333333333334</ele><time>2026-04-11T09:36:44.999Z</time></trkpt><trkpt lat="44.91625734056168" lon="11.991295150909083"><ele>-6.666666666666667</ele><time>2026-04-11T09:36:46.999Z</time></trkpt><trkpt lat="44.91617665347352" lon="11.99131259695248"><ele>-6.5</ele><time>2026-04-11T09:36:48.999Z</time></trkpt><trkpt lat="44.91609513646661" lon="11.991318090259341"><ele>-6.333333333333334</ele><time>2026-04-11T09:36:50.999Z</time></trkpt><trkpt lat="44.91601878384233" lon="11.991308260008376"><ele>-6.166666666666667</ele><time>2026-04-11T09:36:53Z</time></trkpt><trkpt lat="44.91593516373468" lon="11.991306031277556"><ele>-6.0</ele><time>2026-04-11T09:36:55Z</time></trkpt><trkpt lat="44.91585207529893" lon="11.991290978429788"><ele>-5.833333333333333</ele><time>2026-04-11T09:36:57Z</time></trkpt><trkpt lat="44.91576938545296" lon="11.991293061497457"><ele>-5.666666666666667</ele><time>2026-04-11T09:36:59Z</time></trkpt><trkpt lat="44.9156876717047" lon="11.99129986306469"><ele>-5.5</ele><time>2026-04-11T09:37:01Z</time></trkpt><trkpt lat="44.91560260414668" lon="11.991305885844307"><ele>-5.333333333333334</ele><time>2026-04-11T09:37:03Z</time></trkpt><trkpt lat="44.91552359403176" lon="11.991307120038488"><ele>-5.166666666666667</ele><time>2026-04-11T09:37:05Z</time></trkpt><trkpt lat="44.915450157964536" lon="11.991297919008778"><ele>-5.0</ele><time>2026-04-11T09:37:07Z</time></trkpt><trkpt lat="44.915375050061634" lon="11.991308043377417"><ele>-5.0</ele><time>2026-04-11T09:37:09Z</time></trkpt><trkpt lat="44.91529358253074" lon="11.99131475340497"><ele>-5.0</ele><time>2026-04-11T09:37:11Z</time></trkpt><trkpt lat="44.915207201729466" lon="11.991314433133475"><ele>-5.0</ele><time>2026-04-11T09:37:13Z</time></trkpt><trkpt lat="44.91514105592224" lon="11.991308352080706"><ele>-5.0</ele><time>2026-04-11T09:37:15Z</time></trkpt><trkpt lat="44.91506601706449" lon="11.991313215844569"><ele>-5.0</ele><time>2026-04-11T09:37:17Z</time></trkpt><trkpt lat="44.91498627650531" lon="11.991298667067364"><ele>-5.0</ele><time>2026-04-11T09:37:19Z</time></trkpt><trkpt lat="44.91490286278727" lon="11.991311017865451"><ele>-4.833333333333334</ele><time>2026-04-11T09:37:21Z</time></trkpt><trkpt lat="44.91481890007537" lon="11.991318635008088"><ele>-4.666666666666667</ele><time>2026-04-11T09:37:23Z</time></trkpt><trkpt lat="44.91473529745409" lon="11.991330600309531"><ele>-4.5</ele><time>2026-04-11T09:37:25Z</time></trkpt><trkpt lat="44.914647960315186" lon="11.99132382607832"><ele>-4.333333333333333</ele><time>2026-04-11T09:37:27Z</time></trkpt><trkpt lat="44.91456638232439" lon="11.99132623770467"><ele>-4.166666666666666</ele><time>2026-04-11T09:37:29Z</time></trkpt><trkpt lat="44.91448424184927" lon="11.991323005501059"><ele>-4.0</ele><time>2026-04-11T09:37:31Z</time></trkpt><trkpt lat="44.91440114450794" lon="11.991317600730266"><ele>-3.9999999999999996</ele><time>2026-04-11T09:37:33Z</time></trkpt><trkpt lat="44.9143241330106" lon="11.991320219229383"><ele>-4.0</ele><time>2026-04-11T09:37:35Z</time></trkpt><trkpt lat="44.91423657119538" lon="11.991330588838412"><ele>-4.0</ele><time>2026-04-11T09:37:37Z</time></trkpt><trkpt lat="44.914154811683474" lon="11.991332029792163"><ele>-4.0</ele><time>2026-04-11T09:37:39Z</time></trkpt><trkpt lat="44.914072591428486" lon="11.991328512089765"><ele>-3.9999999999999996</ele><time>2026-04-11T09:37:41Z</time></trkpt><trkpt lat="44.913988370153234" lon="11.991317424742277"><ele>-4.0</ele><time>2026-04-11T09:37:43Z</time></trkpt><trkpt lat="44.91390953749866" lon="11.991323298387462"><ele>-4.166666666666666</ele><time>2026-04-11T09:37:45Z</time></trkpt><trkpt lat="44.9138278901801" lon="11.991315535617929"><ele>-4.333333333333333</ele><time>2026-04-11T09:37:47Z</time></trkpt><trkpt lat="44.91374674526845" lon="11.99131955316664"><ele>-4.5</ele><time>2026-04-11T09:37:49Z</time></trkpt><trkpt lat="44.913665289186355" lon="11.991320714879084"><ele>-4.666666666666667</ele><time>2026-04-11T09:37:51Z</time></trkpt><trkpt lat="44.91357453902855" lon="11.991323185976876"><ele>-4.833333333333334</ele><time>2026-04-11T09:37:53Z</time></trkpt><trkpt lat="44.91349104267018" lon="11.991329515482049"><ele>-5.0</ele><time>2026-04-11T09:37:54.999Z</time></trkpt><trkpt lat="44.91340751895391" lon="11.991329550466833"><ele>-5.0</ele><time>2026-04-11T09:37:56.999Z</time></trkpt><trkpt lat="44.913324671203675" lon="11.991332347418538"><ele>-5.0</ele><time>2026-04-11T09:37:58.999Z</time></trkpt><trkpt lat="44.913249553176556" lon="11.991330741314139"><ele>-5.0</ele><time>2026-04-11T09:38:00.999Z</time></trkpt><trkpt lat="44.91317907244012" lon="11.991328151516756"><ele>-5.0</ele><time>2026-04-11T09:38:02.999Z</time></trkpt><trkpt lat="44.913098738003846" lon="11.991317150019361"><ele>-5.0</ele><time>2026-04-11T09:38:04.999Z</time></trkpt><trkpt lat="44.913008555021506" lon="11.991308470497223"><ele>-5.0</ele><time>2026-04-11T09:38:06.999Z</time></trkpt><trkpt lat="44.912924180683824" lon="11.991315789015024"><ele>-5.0</ele><time>2026-04-11T09:38:08.999Z</time></trkpt><trkpt lat="44.91284517690835" lon="11.991318409292797"><ele>-5.0</ele><time>2026-04-11T09:38:10.999Z</time></trkpt><trkpt lat="44.912763084079444" lon="11.991313354023612"><ele>-5.0</ele><time>2026-04-11T09:38:12.999Z</time></trkpt><trkpt lat="44.91267895483739" lon="11.991307487898299"><ele>-5.0</ele><time>2026-04-11T09:38:14.999Z</time></trkpt><trkpt lat="44.91259827774296" lon="11.991308846713176"><ele>-5.0</ele><time>2026-04-11T09:38:16.999Z</time></trkpt><trkpt lat="44.91251744587954" lon="11.991300130178074"><ele>-5.0</ele><time>2026-04-11T09:38:18.999Z</time></trkpt><trkpt lat="44.91243520208817" lon="11.991298628167488"><ele>-5.166666666666667</ele><time>2026-04-11T09:38:20.999Z</time></trkpt><trkpt lat="44.91235317291633" lon="11.991295357573659"><ele>-5.333333333333334</ele><time>2026-04-11T09:38:22.999Z</time></trkpt><trkpt lat="44.912272423631556" lon="11.991289633748227"><ele>-5.5</ele><time>2026-04-11T09:38:24.999Z</time></trkpt><trkpt lat="44.91219317129354" lon="11.991278210812212"><ele>-5.666666666666667</ele><time>2026-04-11T09:38:26.999Z</time></trkpt><trkpt lat="44.9121114408869" lon="11.99127805566351"><ele>-5.833333333333333</ele><time>2026-04-11T09:38:28.999Z</time></trkpt><trkpt lat="44.912027170731974" lon="11.991274104152454"><ele>-6.0</ele><time>2026-04-11T09:38:30.999Z</time></trkpt><trkpt lat="44.91194819851975" lon="11.991268847221573"><ele>-6.0</ele><time>2026-04-11T09:38:32.999Z</time></trkpt><trkpt lat="44.911866611217974" lon="11.991265811571502"><ele>-6.0</ele><time>2026-04-11T09:38:34.999Z</time></trkpt><trkpt lat="44.911784535168565" lon="11.991257780700442"><ele>-6.0</ele><time>2026-04-11T09:38:36.999Z</time></trkpt><trkpt lat="44.911704207814324" lon="11.991255002533917"><ele>-6.0</ele><time>2026-04-11T09:38:38.999Z</time></trkpt><trkpt lat="44.91161990661132" lon="11.991251466737262"><ele>-6.0</ele><time>2026-04-11T09:38:40.999Z</time></trkpt><trkpt lat="44.91153660470833" lon="11.991245044288492"><ele>-6.0</ele><time>2026-04-11T09:38:42.999Z</time></trkpt><trkpt lat="44.91145711771431" lon="11.991239871392347"><ele>-6.166666666666667</ele><time>2026-04-11T09:38:44.999Z</time></trkpt><trkpt lat="44.911377737136554" lon="11.991230148240335"><ele>-6.333333333333334</ele><time>2026-04-11T09:38:46.999Z</time></trkpt><trkpt lat="44.91129493553036" lon="11.991230738023424"><ele>-6.5</ele><time>2026-04-11T09:38:48.999Z</time></trkpt><trkpt lat="44.91121265628937" lon="11.991224677173093"><ele>-6.666666666666667</ele><time>2026-04-11T09:38:50.999Z</time></trkpt><trkpt lat="44.91113382168306" lon="11.991217823365249"><ele>-6.833333333333334</ele><time>2026-04-11T09:38:52.999Z</time></trkpt><trkpt lat="44.91104941014444" lon="11.991208721691777"><ele>-7.0</ele><time>2026-04-11T09:38:54.999Z</time></trkpt><trkpt lat="44.910968880366305" lon="11.9912060648317"><ele>-7.166666666666667</ele><time>2026-04-11T09:38:56.999Z</time></trkpt><trkpt lat="44.91088831260472" lon="11.991198126376245"><ele>-7.333333333333334</ele><time>2026-04-11T09:38:59Z</time></trkpt><trkpt lat="44.91080696059249" lon="11.991190992995545"><ele>-7.5</ele><time>2026-04-11T09:39:01Z</time></trkpt><trkpt lat="44.91072717783323" lon="11.991189004584026"><ele>-7.666666666666666</ele><time>2026-04-11T09:39:03Z</time></trkpt><trkpt lat="44.91064396279448" lon="11.991187025312797"><ele>-7.833333333333333</ele><time>2026-04-11T09:39:05Z</time></trkpt><trkpt lat="44.91056292453102" lon="11.991184633419142"><ele>-8.0</ele><time>2026-04-11T09:39:07Z</time></trkpt><trkpt lat="44.91048799445582" lon="11.991183464789488"><ele>-7.999999999999999</ele><time>2026-04-11T09:39:09Z</time></trkpt><trkpt lat="44.910419216893274" lon="11.991181707209625"><ele>-8.0</ele><time>2026-04-11T09:39:11Z</time></trkpt><trkpt lat="44.91033720144986" lon="11.991170431874504"><ele>-8.0</ele><time>2026-04-11T09:39:13Z</time></trkpt><trkpt lat="44.91026121233005" lon="11.991168352389161"><ele>-8.0</ele><time>2026-04-11T09:39:15Z</time></trkpt><trkpt lat="44.910179291756" lon="11.991161207352349"><ele>-7.999999999999999</ele><time>2026-04-11T09:39:17Z</time></trkpt><trkpt lat="44.91009525959733" lon="11.991153421264103"><ele>-8.0</ele><time>2026-04-11T09:39:19Z</time></trkpt><trkpt lat="44.910015383522826" lon="11.991129873096115"><ele>-7.666666666666666</ele><time>2026-04-11T09:39:21Z</time></trkpt><trkpt lat="44.90993429980282" lon="11.991127703406052"><ele>-7.333333333333333</ele><time>2026-04-11T09:39:23Z</time></trkpt><trkpt lat="44.90985074768121" lon="11.991116962006044"><ele>-7.0</ele><time>2026-04-11T09:39:25Z</time></trkpt><trkpt lat="44.909771037605225" lon="11.99111339866687"><ele>-6.666666666666666</ele><time>2026-04-11T09:39:27Z</time></trkpt><trkpt lat="44.90969233372416" lon="11.991107655844791"><ele>-6.333333333333333</ele><time>2026-04-11T09:39:29Z</time></trkpt><trkpt lat="44.909612130961335" lon="11.991102252208764"><ele>-6.0</ele><time>2026-04-11T09:39:31Z</time></trkpt><trkpt lat="44.90953245001006" lon="11.991096710217745"><ele>-6.0</ele><time>2026-04-11T09:39:33Z</time></trkpt><trkpt lat="44.909456468578504" lon="11.99108626019582"><ele>-6.0</ele><time>2026-04-11T09:39:35Z</time></trkpt><trkpt lat="44.90937165222853" lon="11.991081268141265"><ele>-6.0</ele><time>2026-04-11T09:39:37Z</time></trkpt><trkpt lat="44.909291568412215" lon="11.991076133948875"><ele>-6.0</ele><time>2026-04-11T09:39:39Z</time></trkpt><trkpt lat="44.90921031110694" lon="11.991064447939703"><ele>-6.0</ele><time>2026-04-11T09:39:41Z</time></trkpt><trkpt lat="44.909127240788166" lon="11.991062188151924"><ele>-6.0</ele><time>2026-04-11T09:39:43Z</time></trkpt><trkpt lat="44.90904371572727" lon="11.991063793175583"><ele>-5.666666666666667</ele><time>2026-04-11T09:39:45Z</time></trkpt><trkpt lat="44.90895407444988" lon="11.991056415974258"><ele>-5.333333333333333</ele><time>2026-04-11T09:39:47Z</time></trkpt><trkpt lat="44.9088688513374" lon="11.991041152415173"><ele>-5.0</ele><time>2026-04-11T09:39:49Z</time></trkpt><trkpt lat="44.90878671795584" lon="11.991033679209519"><ele>-4.666666666666666</ele><time>2026-04-11T09:39:51Z</time></trkpt><trkpt lat="44.908697386649635" lon="11.991032439818014"><ele>-4.333333333333333</ele><time>2026-04-11T09:39:53Z</time></trkpt><trkpt lat="44.90861190250723" lon="11.991025330728577"><ele>-4.0</ele><time>2026-04-11T09:39:55Z</time></trkpt><trkpt lat="44.908534479514884" lon="11.99100691158718"><ele>-3.9999999999999996</ele><time>2026-04-11T09:39:57Z</time></trkpt><trkpt lat="44.90845337518005" lon="11.9909988317319"><ele>-4.0</ele><time>2026-04-11T09:39:59Z</time></trkpt><trkpt lat="44.90838252987071" lon="11.991004638346883"><ele>-4.0</ele><time>2026-04-11T09:40:01Z</time></trkpt><trkpt lat="44.90830599933828" lon="11.991003156545245"><ele>-4.0</ele><time>2026-04-11T09:40:30.999Z</time></trkpt><trkpt lat="44.90824835672757" lon="11.990893441169806"><ele>-3.9999999999999996</ele><time>2026-04-11T09:40:33.999Z</time></trkpt><trkpt lat="44.90823972699804" lon="11.990779894279735"><ele>-4.0</ele><time>2026-04-11T09:40:35.999Z</time></trkpt><trkpt lat="44.908226388067" lon="11.990664914327164"><ele>-3.9999999999999996</ele><time>2026-04-11T09:40:37.999Z</time></trkpt><trkpt lat="44.908204302836886" lon="11.990551666955813"><ele>-4.0</ele><time>2026-04-11T09:40:39.999Z</time></trkpt><trkpt lat="44.90818260203712" lon="11.99043809581287"><ele>-4.0</ele><time>2026-04-11T09:40:41.999Z</time></trkpt><trkpt lat="44.90816525425039" lon="11.990324175431102"><ele>-4.0</ele><time>2026-04-11T09:40:43.999Z</time></trkpt><trkpt lat="44.90814170652436" lon="11.990211085898563"><ele>-3.9999999999999996</ele><time>2026-04-11T09:40:45.999Z</time></trkpt><trkpt lat="44.908116017311706" lon="11.990085210906173"><ele>-4.0</ele><time>2026-04-11T09:40:47.999Z</time></trkpt><trkpt lat="44.90809351363014" lon="11.989964721001675"><ele>-4.0</ele><time>2026-04-11T09:40:49.999Z</time></trkpt><trkpt lat="44.90807257486302" lon="11.989835503575696"><ele>-4.0</ele><time>2026-04-11T09:40:51.999Z</time></trkpt><trkpt lat="44.908051192098384" lon="11.989712296096123"><ele>-4.0</ele><time>2026-04-11T09:40:53.999Z</time></trkpt><trkpt lat="44.90803047742149" lon="11.989589531489909"><ele>-4.0</ele><time>2026-04-11T09:40:55.999Z</time></trkpt><trkpt lat="44.908009683904176" lon="11.98946435608685"><ele>-4.0</ele><time>2026-04-11T09:40:57.999Z</time></trkpt><trkpt lat="44.90798994717509" lon="11.98934368382495"><ele>-3.9999999999999996</ele><time>2026-04-11T09:40:59.999Z</time></trkpt><trkpt lat="44.907970545259595" lon="11.989226516031524"><ele>-4.0</ele><time>2026-04-11T09:41:01.999Z</time></trkpt><trkpt lat="44.90794777810655" lon="11.989104643667046"><ele>-4.0</ele><time>2026-04-11T09:41:03.999Z</time></trkpt><trkpt lat="44.90792945834296" lon="11.98898650615691"><ele>-4.0</ele><time>2026-04-11T09:41:06Z</time></trkpt><trkpt lat="44.907908206292504" lon="11.988865877058952"><ele>-3.9999999999999996</ele><time>2026-04-11T09:41:08Z</time></trkpt><trkpt lat="44.9078838033284" lon="11.988741047424586"><ele>-4.0</ele><time>2026-04-11T09:41:10Z</time></trkpt><trkpt lat="44.90786165232487" lon="11.988614797895492"><ele>-4.166666666666666</ele><time>2026-04-11T09:41:12Z</time></trkpt><trkpt lat="44.90784070417947" lon="11.988493489814351"><ele>-4.333333333333333</ele><time>2026-04-11T09:41:14Z</time></trkpt><trkpt lat="44.907819755579965" lon="11.98836962608204"><ele>-4.5</ele><time>2026-04-11T09:41:16Z</time></trkpt><trkpt lat="44.907800076586874" lon="11.988250326690677"><ele>-4.666666666666667</ele><time>2026-04-11T09:41:18Z</time></trkpt><trkpt lat="44.907778296568814" lon="11.988131333874586"><ele>-4.833333333333334</ele><time>2026-04-11T09:41:20Z</time></trkpt><trkpt lat="44.90775697539465" lon="11.988012311012211"><ele>-5.0</ele><time>2026-04-11T09:41:22Z</time></trkpt><trkpt lat="44.90773802302644" lon="11.987897684740622"><ele>-5.0</ele><time>2026-04-11T09:41:24Z</time></trkpt><trkpt lat="44.907717445177994" lon="11.987782781826882"><ele>-5.0</ele><time>2026-04-11T09:41:26Z</time></trkpt><trkpt lat="44.90769321073151" lon="11.987665142788243"><ele>-5.0</ele><time>2026-04-11T09:41:28Z</time></trkpt><trkpt lat="44.907674218201294" lon="11.987549337131925"><ele>-5.0</ele><time>2026-04-11T09:41:30Z</time></trkpt><trkpt lat="44.90765485512489" lon="11.987433130687378"><ele>-5.0</ele><time>2026-04-11T09:41:32Z</time></trkpt><trkpt lat="44.90763578441425" lon="11.98732220102085"><ele>-5.0</ele><time>2026-04-11T09:41:34Z</time></trkpt><trkpt lat="44.907613303712175" lon="11.987206347046072"><ele>-5.0</ele><time>2026-04-11T09:41:36Z</time></trkpt><trkpt lat="44.90759624229403" lon="11.987100325788122"><ele>-5.0</ele><time>2026-04-11T09:41:38Z</time></trkpt><trkpt lat="44.90755442197174" lon="11.98687277054712"><ele>-5.0</ele><time>2026-04-11T09:41:42Z</time></trkpt><trkpt lat="44.90753331047349" lon="11.986754930228926"><ele>-5.0</ele><time>2026-04-11T09:41:44Z</time></trkpt><trkpt lat="44.907515246414505" lon="11.986637737301942"><ele>-5.0</ele><time>2026-04-11T09:41:46Z</time></trkpt><trkpt lat="44.907493038965164" lon="11.986521899463666"><ele>-5.0</ele><time>2026-04-11T09:41:48Z</time></trkpt><trkpt lat="44.90747242229151" lon="11.98640504947284"><ele>-5.0</ele><time>2026-04-11T09:41:50Z</time></trkpt><trkpt lat="44.907452767598045" lon="11.986285798966922"><ele>-5.0</ele><time>2026-04-11T09:41:52Z</time></trkpt><trkpt lat="44.90743229975729" lon="11.986167044693255"><ele>-5.0</ele><time>2026-04-11T09:41:54Z</time></trkpt><trkpt lat="44.907409776456916" lon="11.986052072235992"><ele>-5.0</ele><time>2026-04-11T09:41:56Z</time></trkpt><trkpt lat="44.907387701391116" lon="11.985927593906162"><ele>-5.0</ele><time>2026-04-11T09:41:58Z</time></trkpt><trkpt lat="44.90736791439656" lon="11.98580023591945"><ele>-5.0</ele><time>2026-04-11T09:42:00Z</time></trkpt><trkpt lat="44.907343562881906" lon="11.985669808064518"><ele>-5.0</ele><time>2026-04-11T09:42:02Z</time></trkpt><trkpt lat="44.90732207276913" lon="11.985540753635474"><ele>-5.0</ele><time>2026-04-11T09:42:04Z</time></trkpt><trkpt lat="44.90729893668879" lon="11.985412440447782"><ele>-5.0</ele><time>2026-04-11T09:42:06Z</time></trkpt><trkpt lat="44.90727744101915" lon="11.98528615695989"><ele>-5.0</ele><time>2026-04-11T09:42:08Z</time></trkpt><trkpt lat="44.90725229816436" lon="11.985151065833087"><ele>-5.0</ele><time>2026-04-11T09:42:10Z</time></trkpt><trkpt lat="44.90723085304893" lon="11.985022427721395"><ele>-5.0</ele><time>2026-04-11T09:42:12Z</time></trkpt><trkpt lat="44.90720770333312" lon="11.984893149205341"><ele>-5.0</ele><time>2026-04-11T09:42:14Z</time></trkpt><trkpt lat="44.90718490070345" lon="11.984762576839096"><ele>-5.0</ele><time>2026-04-11T09:42:16Z</time></trkpt><trkpt lat="44.907161304004724" lon="11.984631819110403"><ele>-5.0</ele><time>2026-04-11T09:42:18Z</time></trkpt><trkpt lat="44.90713765506547" lon="11.98450038141015"><ele>-5.0</ele><time>2026-04-11T09:42:19.999Z</time></trkpt><trkpt lat="44.90711616246143" lon="11.984369677070807"><ele>-5.0</ele><time>2026-04-11T09:42:21.999Z</time></trkpt><trkpt lat="44.907094693603156" lon="11.984236097746884"><ele>-5.0</ele><time>2026-04-11T09:42:23.999Z</time></trkpt><trkpt lat="44.90706876930022" lon="11.98410429302482"><ele>-5.0</ele><time>2026-04-11T09:42:25.999Z</time></trkpt><trkpt lat="44.907049360356105" lon="11.983979782659302"><ele>-5.0</ele><time>2026-04-11T09:42:27.999Z</time></trkpt><trkpt lat="44.90702619585669" lon="11.983852986797098"><ele>-5.0</ele><time>2026-04-11T09:42:29.999Z</time></trkpt><trkpt lat="44.9070053504352" lon="11.983722907841171"><ele>-5.0</ele><time>2026-04-11T09:42:31.999Z</time></trkpt><trkpt lat="44.90698325082132" lon="11.983600253020674"><ele>-5.0</ele><time>2026-04-11T09:42:33.999Z</time></trkpt><trkpt lat="44.906963419074884" lon="11.983471606146397"><ele>-5.0</ele><time>2026-04-11T09:42:35.999Z</time></trkpt><trkpt lat="44.90693852656655" lon="11.983344578808726"><ele>-5.0</ele><time>2026-04-11T09:42:37.999Z</time></trkpt><trkpt lat="44.90691919190505" lon="11.983221071870243"><ele>-5.0</ele><time>2026-04-11T09:42:39.999Z</time></trkpt><trkpt lat="44.90689856124429" lon="11.983101557205407"><ele>-5.0</ele><time>2026-04-11T09:42:41.999Z</time></trkpt><trkpt lat="44.90687836442489" lon="11.982984659327663"><ele>-5.0</ele><time>2026-04-11T09:42:43.999Z</time></trkpt><trkpt lat="44.90685694836697" lon="11.982864555978441"><ele>-5.0</ele><time>2026-04-11T09:42:45.999Z</time></trkpt><trkpt lat="44.906838028026" lon="11.982751460833464"><ele>-5.0</ele><time>2026-04-11T09:42:47.999Z</time></trkpt><trkpt lat="44.90681653584588" lon="11.982633293234015"><ele>-5.0</ele><time>2026-04-11T09:42:49.999Z</time></trkpt><trkpt lat="44.90679677451476" lon="11.98251457715066"><ele>-5.166666666666667</ele><time>2026-04-11T09:42:51.999Z</time></trkpt><trkpt lat="44.90677359760827" lon="11.982399429807504"><ele>-5.333333333333334</ele><time>2026-04-11T09:42:53.999Z</time></trkpt><trkpt lat="44.90675216898345" lon="11.9822814156356"><ele>-5.5</ele><time>2026-04-11T09:42:55.999Z</time></trkpt><trkpt lat="44.90673183460335" lon="11.982170914868469"><ele>-5.666666666666667</ele><time>2026-04-11T09:42:57.999Z</time></trkpt><trkpt lat="44.906715223771506" lon="11.982069211529984"><ele>-5.833333333333333</ele><time>2026-04-11T09:42:59.999Z</time></trkpt><trkpt lat="44.906697076228305" lon="11.981964428434045"><ele>-6.0</ele><time>2026-04-11T09:43:01.999Z</time></trkpt><trkpt lat="44.90667736768875" lon="11.981851311194967"><ele>-6.0</ele><time>2026-04-11T09:43:03.999Z</time></trkpt><trkpt lat="44.906654346188944" lon="11.98173353518606"><ele>-6.0</ele><time>2026-04-11T09:43:05.999Z</time></trkpt><trkpt lat="44.90663611534515" lon="11.981632204771463"><ele>-6.0</ele><time>2026-04-11T09:43:07.999Z</time></trkpt><trkpt lat="44.90661581940099" lon="11.98152114443207"><ele>-6.0</ele><time>2026-04-11T09:43:09.999Z</time></trkpt><trkpt lat="44.90659474546996" lon="11.981416587588917"><ele>-6.0</ele><time>2026-04-11T09:43:12Z</time></trkpt><trkpt lat="44.90657466384989" lon="11.98130175096468"><ele>-6.0</ele><time>2026-04-11T09:43:14Z</time></trkpt><trkpt lat="44.90655400654579" lon="11.98119602495081"><ele>-5.833333333333333</ele><time>2026-04-11T09:43:16Z</time></trkpt><trkpt lat="44.90654209209565" lon="11.98109599551443"><ele>-5.666666666666667</ele><time>2026-04-11T09:43:18Z</time></trkpt><trkpt lat="44.906525625176236" lon="11.981006195726748"><ele>-5.5</ele><time>2026-04-11T09:43:20Z</time></trkpt><trkpt lat="44.90650742561611" lon="11.980908808814155"><ele>-5.333333333333334</ele><time>2026-04-11T09:43:22Z</time></trkpt><trkpt lat="44.90648461415276" lon="11.980793314823272"><ele>-5.166666666666667</ele><time>2026-04-11T09:43:24Z</time></trkpt><trkpt lat="44.90646504933187" lon="11.980680187641187"><ele>-5.0</ele><time>2026-04-11T09:43:26Z</time></trkpt><trkpt lat="44.90645086328109" lon="11.980564477619183"><ele>-5.0</ele><time>2026-04-11T09:43:28Z</time></trkpt><trkpt lat="44.90643293011651" lon="11.980451260747095"><ele>-5.0</ele><time>2026-04-11T09:43:30Z</time></trkpt><trkpt lat="44.90640994175685" lon="11.98033579062819"><ele>-5.0</ele><time>2026-04-11T09:43:32Z</time></trkpt><trkpt lat="44.9063888769842" lon="11.980214065359474"><ele>-5.0</ele><time>2026-04-11T09:43:34Z</time></trkpt><trkpt lat="44.90636835006656" lon="11.98009426137723"><ele>-5.0</ele><time>2026-04-11T09:43:36Z</time></trkpt><trkpt lat="44.906348100895116" lon="11.979973835102976"><ele>-5.0</ele><time>2026-04-11T09:43:38Z</time></trkpt><trkpt lat="44.90632676433118" lon="11.979862530226809"><ele>-5.0</ele><time>2026-04-11T09:43:40Z</time></trkpt><trkpt lat="44.90630825603524" lon="11.979750478604936"><ele>-5.0</ele><time>2026-04-11T09:43:42Z</time></trkpt><trkpt lat="44.90629058926594" lon="11.979639480343613"><ele>-5.0</ele><time>2026-04-11T09:43:44Z</time></trkpt><trkpt lat="44.90626554650014" lon="11.979528711652984"><ele>-5.0</ele><time>2026-04-11T09:43:46Z</time></trkpt><trkpt lat="44.90624845156508" lon="11.97941669242721"><ele>-5.0</ele><time>2026-04-11T09:43:48Z</time></trkpt><trkpt lat="44.90622780732109" lon="11.979308734840648"><ele>-5.0</ele><time>2026-04-11T09:43:50Z</time></trkpt><trkpt lat="44.90620706145024" lon="11.97919279944044"><ele>-5.166666666666667</ele><time>2026-04-11T09:43:52Z</time></trkpt><trkpt lat="44.90618668937507" lon="11.97907553417845"><ele>-5.333333333333334</ele><time>2026-04-11T09:43:54Z</time></trkpt><trkpt lat="44.90616487584875" lon="11.978964396236192"><ele>-5.5</ele><time>2026-04-11T09:43:56Z</time></trkpt><trkpt lat="44.90614487965891" lon="11.978845618324913"><ele>-5.666666666666667</ele><time>2026-04-11T09:43:58Z</time></trkpt><trkpt lat="44.90611840171672" lon="11.978728377423604"><ele>-5.833333333333333</ele><time>2026-04-11T09:44:00Z</time></trkpt><trkpt lat="44.90610215629493" lon="11.978613948059207"><ele>-6.0</ele><time>2026-04-11T09:44:02Z</time></trkpt><trkpt lat="44.906080882657115" lon="11.978499808266696"><ele>-6.0</ele><time>2026-04-11T09:44:04Z</time></trkpt><trkpt lat="44.9060600182963" lon="11.978387268481788"><ele>-6.0</ele><time>2026-04-11T09:44:06Z</time></trkpt><trkpt lat="44.906043243721435" lon="11.978277688545989"><ele>-6.0</ele><time>2026-04-11T09:44:08Z</time></trkpt><trkpt lat="44.90601731022086" lon="11.978162457702938"><ele>-6.0</ele><time>2026-04-11T09:44:10Z</time></trkpt><trkpt lat="44.905998386424166" lon="11.978057263927841"><ele>-6.0</ele><time>2026-04-11T09:44:12Z</time></trkpt><trkpt lat="44.90598478893881" lon="11.977941899680387"><ele>-6.0</ele><time>2026-04-11T09:44:14Z</time></trkpt><trkpt lat="44.90596052042141" lon="11.977824012933246"><ele>-6.0</ele><time>2026-04-11T09:44:16Z</time></trkpt><trkpt lat="44.90594280028001" lon="11.977702923082612"><ele>-6.0</ele><time>2026-04-11T09:44:17.999Z</time></trkpt><trkpt lat="44.90591923568254" lon="11.977579647321486"><ele>-6.0</ele><time>2026-04-11T09:44:19.999Z</time></trkpt><trkpt lat="44.90589929112425" lon="11.977453560044696"><ele>-6.0</ele><time>2026-04-11T09:44:21.999Z</time></trkpt><trkpt lat="44.905878803293554" lon="11.977330426238144"><ele>-6.0</ele><time>2026-04-11T09:44:23.999Z</time></trkpt><trkpt lat="44.90585529192802" lon="11.977206646599202"><ele>-5.666666666666667</ele><time>2026-04-11T09:44:25.999Z</time></trkpt><trkpt lat="44.905833946057164" lon="11.977093045914025"><ele>-5.333333333333333</ele><time>2026-04-11T09:44:27.999Z</time></trkpt><trkpt lat="44.90581724249308" lon="11.976998308118333"><ele>-5.0</ele><time>2026-04-11T09:44:29.999Z</time></trkpt><trkpt lat="44.90579754674275" lon="11.976884382825727"><ele>-4.666666666666666</ele><time>2026-04-11T09:44:32.999Z</time></trkpt><trkpt lat="44.9057671760716" lon="11.976800468748175"><ele>-4.333333333333333</ele><time>2026-04-11T09:45:44Z</time></trkpt><trkpt lat="44.90580713859002" lon="11.976714090066677"><ele>-4.0</ele><time>2026-04-11T09:45:47Z</time></trkpt><trkpt lat="44.905888729078626" lon="11.976725622428908"><ele>-3.9999999999999996</ele><time>2026-04-11T09:45:49Z</time></trkpt><trkpt lat="44.905950014666615" lon="11.97665503197099"><ele>-4.0</ele><time>2026-04-11T09:45:51Z</time></trkpt><trkpt lat="44.90594695349452" lon="11.976527902182582"><ele>-4.0</ele><time>2026-04-11T09:45:53Z</time></trkpt><trkpt lat="44.905911244496075" lon="11.976408560947224"><ele>-4.0</ele><time>2026-04-11T09:45:55Z</time></trkpt><trkpt lat="44.905880102482506" lon="11.97628623784348"><ele>-3.9999999999999996</ele><time>2026-04-11T09:45:57Z</time></trkpt><trkpt lat="44.90585696449245" lon="11.976155370793139"><ele>-4.0</ele><time>2026-04-11T09:45:59Z</time></trkpt><trkpt lat="44.90583134869619" lon="11.976028114195097"><ele>-4.0</ele><time>2026-04-11T09:46:01Z</time></trkpt><trkpt lat="44.90581583515682" lon="11.975896516278167"><ele>-4.0</ele><time>2026-04-11T09:46:03Z</time></trkpt><trkpt lat="44.90579388633326" lon="11.975762672920803"><ele>-4.0</ele><time>2026-04-11T09:46:05Z</time></trkpt><trkpt lat="44.905766882623304" lon="11.975630079789921"><ele>-4.0</ele><time>2026-04-11T09:46:07Z</time></trkpt><trkpt lat="44.90574731408343" lon="11.97549766988952"><ele>-4.0</ele><time>2026-04-11T09:46:09Z</time></trkpt><trkpt lat="44.90572649113293" lon="11.975362291713916"><ele>-4.4</ele><time>2026-04-11T09:46:11Z</time></trkpt><trkpt lat="44.905701922464964" lon="11.975231903655635"><ele>-4.800000000000001</ele><time>2026-04-11T09:46:13Z</time></trkpt><trkpt lat="44.90567992408698" lon="11.975103742998005"><ele>-5.199999999999999</ele><time>2026-04-11T09:46:15Z</time></trkpt><trkpt lat="44.905653444960976" lon="11.974968616077444"><ele>-5.6</ele><time>2026-04-11T09:46:16.999Z</time></trkpt><trkpt lat="44.905634506515696" lon="11.974838159798484"><ele>-6.0</ele><time>2026-04-11T09:46:18.999Z</time></trkpt><trkpt lat="44.90561063663421" lon="11.974707834603787"><ele>-6.0</ele><time>2026-04-11T09:46:20.999Z</time></trkpt><trkpt lat="44.90558775358155" lon="11.97458288695304"><ele>-6.0</ele><time>2026-04-11T09:46:22.999Z</time></trkpt><trkpt lat="44.90556241268744" lon="11.974459273030224"><ele>-6.0</ele><time>2026-04-11T09:46:24.999Z</time></trkpt><trkpt lat="44.90554323123309" lon="11.974330038943725"><ele>-6.0</ele><time>2026-04-11T09:46:26.999Z</time></trkpt><trkpt lat="44.905521221389094" lon="11.974202228121579"><ele>-6.0</ele><time>2026-04-11T09:46:28.999Z</time></trkpt><trkpt lat="44.90549708748527" lon="11.974077422747957"><ele>-6.0</ele><time>2026-04-11T09:46:30.999Z</time></trkpt><trkpt lat="44.90547518063925" lon="11.973944456851816"><ele>-6.0</ele><time>2026-04-11T09:46:32.999Z</time></trkpt><trkpt lat="44.90545099873044" lon="11.973813935452949"><ele>-6.0</ele><time>2026-04-11T09:46:34.999Z</time></trkpt><trkpt lat="44.905427268668475" lon="11.973683082174702"><ele>-6.0</ele><time>2026-04-11T09:46:36.999Z</time></trkpt><trkpt lat="44.90540443163684" lon="11.97355036861822"><ele>-6.0</ele><time>2026-04-11T09:46:38.999Z</time></trkpt><trkpt lat="44.905383240741315" lon="11.973413449265127"><ele>-6.0</ele><time>2026-04-11T09:46:40.999Z</time></trkpt><trkpt lat="44.905357129865216" lon="11.97328299852535"><ele>-6.0</ele><time>2026-04-11T09:46:42.999Z</time></trkpt><trkpt lat="44.90533473969639" lon="11.97315607808387"><ele>-6.0</ele><time>2026-04-11T09:46:44.999Z</time></trkpt><trkpt lat="44.90531177136118" lon="11.973027684542219"><ele>-6.0</ele><time>2026-04-11T09:46:46.999Z</time></trkpt><trkpt lat="44.90528851533772" lon="11.972902067546215"><ele>-6.0</ele><time>2026-04-11T09:46:48.999Z</time></trkpt><trkpt lat="44.905266278289616" lon="11.972775389314382"><ele>-6.0</ele><time>2026-04-11T09:46:50.999Z</time></trkpt><trkpt lat="44.90524294961465" lon="11.972648934275526"><ele>-6.0</ele><time>2026-04-11T09:46:52.999Z</time></trkpt><trkpt lat="44.905220421067376" lon="11.972521718985682"><ele>-6.0</ele><time>2026-04-11T09:46:54.999Z</time></trkpt><trkpt lat="44.90520141950759" lon="11.97239274139768"><ele>-6.0</ele><time>2026-04-11T09:46:56.999Z</time></trkpt><trkpt lat="44.905178767506115" lon="11.972264509773623"><ele>-6.0</ele><time>2026-04-11T09:46:58.999Z</time></trkpt><trkpt lat="44.90515766583134" lon="11.972133840492496"><ele>-6.0</ele><time>2026-04-11T09:47:00.999Z</time></trkpt><trkpt lat="44.90513343465944" lon="11.972007413225516"><ele>-6.0</ele><time>2026-04-11T09:47:02.999Z</time></trkpt><trkpt lat="44.90511015511031" lon="11.971881016742174"><ele>-6.0</ele><time>2026-04-11T09:47:04.999Z</time></trkpt><trkpt lat="44.90508444595252" lon="11.97175289691224"><ele>-6.0</ele><time>2026-04-11T09:47:06.999Z</time></trkpt><trkpt lat="44.90506413874044" lon="11.971624469944413"><ele>-6.0</ele><time>2026-04-11T09:47:08.999Z</time></trkpt><trkpt lat="44.90503958116543" lon="11.971498172114087"><ele>-6.0</ele><time>2026-04-11T09:47:10.999Z</time></trkpt><trkpt lat="44.9050068500941" lon="11.971378462769467"><ele>-6.0</ele><time>2026-04-11T09:47:12.999Z</time></trkpt><trkpt lat="44.9049925521518" lon="11.971255590309928"><ele>-6.0</ele><time>2026-04-11T09:47:14.999Z</time></trkpt><trkpt lat="44.904989375121346" lon="11.971131741085795"><ele>-6.0</ele><time>2026-04-11T09:47:16.999Z</time></trkpt><trkpt lat="44.90503378744607" lon="11.971025106566204"><ele>-6.0</ele><time>2026-04-11T09:47:18.999Z</time></trkpt><trkpt lat="44.90511599567523" lon="11.970963681614357"><ele>-6.0</ele><time>2026-04-11T09:47:20.999Z</time></trkpt><trkpt lat="44.90521394676247" lon="11.970958532475695"><ele>-5.8</ele><time>2026-04-11T09:47:22.999Z</time></trkpt><trkpt lat="44.90531132036366" lon="11.97095785922607"><ele>-5.6</ele><time>2026-04-11T09:47:24.999Z</time></trkpt><trkpt lat="44.90540862448279" lon="11.970958127221595"><ele>-5.4</ele><time>2026-04-11T09:47:26.999Z</time></trkpt><trkpt lat="44.90550401702369" lon="11.97095746335339"><ele>-5.2</ele><time>2026-04-11T09:47:28.999Z</time></trkpt><trkpt lat="44.90560428316738" lon="11.970954210004637"><ele>-5.0</ele><time>2026-04-11T09:47:30.999Z</time></trkpt><trkpt lat="44.90570046962613" lon="11.970950755323294"><ele>-5.0</ele><time>2026-04-11T09:47:32.999Z</time></trkpt><trkpt lat="44.905797322596435" lon="11.970946122845024"><ele>-5.0</ele><time>2026-04-11T09:47:34.999Z</time></trkpt><trkpt lat="44.90588944290077" lon="11.970943551636656"><ele>-5.0</ele><time>2026-04-11T09:47:36.999Z</time></trkpt><trkpt lat="44.905982448536705" lon="11.970940660046628"><ele>-5.0</ele><time>2026-04-11T09:47:38.999Z</time></trkpt><trkpt lat="44.90606845913279" lon="11.97093920935105"><ele>-5.0</ele><time>2026-04-11T09:47:40.999Z</time></trkpt><trkpt lat="44.9061589854384" lon="11.970936164506822"><ele>-5.333333333333334</ele><time>2026-04-11T09:47:42.999Z</time></trkpt><trkpt lat="44.90624702230333" lon="11.970933200600962"><ele>-5.666666666666667</ele><time>2026-04-11T09:47:44.999Z</time></trkpt><trkpt lat="44.90633370926858" lon="11.970926987015972"><ele>-6.0</ele><time>2026-04-11T09:47:46.999Z</time></trkpt><trkpt lat="44.90642053414031" lon="11.970920375943379"><ele>-6.333333333333334</ele><time>2026-04-11T09:47:48.999Z</time></trkpt><trkpt lat="44.90650823902457" lon="11.970929026342883"><ele>-6.666666666666667</ele><time>2026-04-11T09:47:50.999Z</time></trkpt><trkpt lat="44.90659609681397" lon="11.97092157683862"><ele>-7.0</ele><time>2026-04-11T09:47:52.999Z</time></trkpt><trkpt lat="44.90668563268718" lon="11.970921256060882"><ele>-6.833333333333334</ele><time>2026-04-11T09:47:54.999Z</time></trkpt><trkpt lat="44.90677380501018" lon="11.970914629940072"><ele>-6.666666666666667</ele><time>2026-04-11T09:47:56.999Z</time></trkpt><trkpt lat="44.906862640670155" lon="11.970907542348606"><ele>-6.5</ele><time>2026-04-11T09:47:58.999Z</time></trkpt><trkpt lat="44.90694893451857" lon="11.970910873062484"><ele>-6.333333333333334</ele><time>2026-04-11T09:48:00.999Z</time></trkpt><trkpt lat="44.90703487268469" lon="11.970903461152652"><ele>-6.166666666666667</ele><time>2026-04-11T09:48:02.999Z</time></trkpt><trkpt lat="44.90712163530598" lon="11.970898248821962"><ele>-6.0</ele><time>2026-04-11T09:48:04.999Z</time></trkpt><trkpt lat="44.90720837280789" lon="11.970897926649759"><ele>-6.0</ele><time>2026-04-11T09:48:06.999Z</time></trkpt><trkpt lat="44.90729706668843" lon="11.970896120036617"><ele>-6.0</ele><time>2026-04-11T09:48:08.999Z</time></trkpt><trkpt lat="44.90738464737469" lon="11.970893427609164"><ele>-6.0</ele><time>2026-04-11T09:48:10.999Z</time></trkpt><trkpt lat="44.90747255039619" lon="11.970890211262503"><ele>-6.0</ele><time>2026-04-11T09:48:12.999Z</time></trkpt><trkpt lat="44.907560550944744" lon="11.970887746150074"><ele>-6.0</ele><time>2026-04-11T09:48:14.999Z</time></trkpt><trkpt lat="44.90764938816468" lon="11.970885575590989"><ele>-6.0</ele><time>2026-04-11T09:48:16.999Z</time></trkpt><trkpt lat="44.90773942830924" lon="11.970882565524544"><ele>-6.0</ele><time>2026-04-11T09:48:18.999Z</time></trkpt><trkpt lat="44.90782941394625" lon="11.970878452684289"><ele>-6.0</ele><time>2026-04-11T09:48:20.999Z</time></trkpt><trkpt lat="44.907917060443374" lon="11.970872985784034"><ele>-6.0</ele><time>2026-04-11T09:48:22.999Z</time></trkpt><trkpt lat="44.90800391208832" lon="11.970870351216266"><ele>-6.0</ele><time>2026-04-11T09:48:24.999Z</time></trkpt><trkpt lat="44.90808807460002" lon="11.970865814461682"><ele>-6.0</ele><time>2026-04-11T09:48:26.999Z</time></trkpt><trkpt lat="44.90817239408071" lon="11.970860249027883"><ele>-6.0</ele><time>2026-04-11T09:48:28.999Z</time></trkpt><trkpt lat="44.90825590986862" lon="11.970854519795935"><ele>-6.0</ele><time>2026-04-11T09:48:30.999Z</time></trkpt><trkpt lat="44.90833829724371" lon="11.970844263970587"><ele>-6.0</ele><time>2026-04-11T09:48:32.999Z</time></trkpt><trkpt lat="44.908422503202" lon="11.970834214728837"><ele>-6.0</ele><time>2026-04-11T09:48:34.999Z</time></trkpt><trkpt lat="44.90850749020651" lon="11.970826256501683"><ele>-6.0</ele><time>2026-04-11T09:48:36.999Z</time></trkpt><trkpt lat="44.90859544220907" lon="11.970817403731893"><ele>-6.0</ele><time>2026-04-11T09:48:38.999Z</time></trkpt><trkpt lat="44.9086844187557" lon="11.970813515472356"><ele>-6.0</ele><time>2026-04-11T09:48:40.999Z</time></trkpt><trkpt lat="44.90877640658097" lon="11.970804983409217"><ele>-6.0</ele><time>2026-04-11T09:48:42.999Z</time></trkpt><trkpt lat="44.90886516290087" lon="11.9708092417976"><ele>-6.0</ele><time>2026-04-11T09:48:44.999Z</time></trkpt><trkpt lat="44.90895651157424" lon="11.970823991372537"><ele>-6.0</ele><time>2026-04-11T09:48:46.999Z</time></trkpt><trkpt lat="44.90904920001307" lon="11.970827141676919"><ele>-6.0</ele><time>2026-04-11T09:48:48.999Z</time></trkpt><trkpt lat="44.909138425275756" lon="11.970820109997678"><ele>-6.0</ele><time>2026-04-11T09:48:50.999Z</time></trkpt><trkpt lat="44.9092292817234" lon="11.970818643316186"><ele>-6.142857142857142</ele><time>2026-04-11T09:48:52.999Z</time></trkpt><trkpt lat="44.909309052423474" lon="11.970819195129913"><ele>-6.285714285714286</ele><time>2026-04-11T09:48:54.999Z</time></trkpt><trkpt lat="44.90938432890574" lon="11.970803144176964"><ele>-6.428571428571429</ele><time>2026-04-11T09:48:56.999Z</time></trkpt><trkpt lat="44.90945104744143" lon="11.970814336477927"><ele>-6.571428571428571</ele><time>2026-04-11T09:48:58.999Z</time></trkpt><trkpt lat="44.90951873410925" lon="11.970802821279918"><ele>-6.714285714285714</ele><time>2026-04-11T09:49:00.999Z</time></trkpt><trkpt lat="44.909595797293775" lon="11.9707494615939"><ele>-6.857142857142857</ele><time>2026-04-11T09:49:03.999Z</time></trkpt><trkpt lat="44.90959754776604" lon="11.97064978345847"><ele>-7.0</ele><time>2026-04-11T09:49:05.999Z</time></trkpt><trkpt lat="44.90959579460874" lon="11.970527839458999"><ele>-7.000000000000001</ele><time>2026-04-11T09:49:07.999Z</time></trkpt><trkpt lat="44.90960176043518" lon="11.97042145415314"><ele>-7.0</ele><time>2026-04-11T09:49:09.999Z</time></trkpt><trkpt lat="44.90959145353226" lon="11.9703064067392"><ele>-7.0</ele><time>2026-04-11T09:49:11.999Z</time></trkpt><trkpt lat="44.90958578245108" lon="11.97019498134635"><ele>-7.0</ele><time>2026-04-11T09:49:13.999Z</time></trkpt><trkpt lat="44.909579840567" lon="11.970088222349666"><ele>-7.000000000000001</ele><time>2026-04-11T09:49:15.999Z</time></trkpt><trkpt lat="44.90957315578882" lon="11.969982649917052"><ele>-7.0</ele><time>2026-04-11T09:49:17.999Z</time></trkpt><trkpt lat="44.90956928075655" lon="11.969882756320128"><ele>-7.000000000000001</ele><time>2026-04-11T09:49:19.999Z</time></trkpt><trkpt lat="44.90956301460859" lon="11.969785941920328"><ele>-7.0</ele><time>2026-04-11T09:49:21.999Z</time></trkpt><trkpt lat="44.909557613001816" lon="11.969688023591862"><ele>-7.0</ele><time>2026-04-11T09:49:23.999Z</time></trkpt><trkpt lat="44.909553241328496" lon="11.969581840430912"><ele>-7.0</ele><time>2026-04-11T09:49:25.999Z</time></trkpt><trkpt lat="44.909544011272146" lon="11.969465888983557"><ele>-7.000000000000001</ele><time>2026-04-11T09:49:27.999Z</time></trkpt><trkpt lat="44.90954057018522" lon="11.969343294479016"><ele>-7.0</ele><time>2026-04-11T09:49:29.999Z</time></trkpt><trkpt lat="44.9095386331899" lon="11.969224641912726"><ele>-6.666666666666667</ele><time>2026-04-11T09:49:31.999Z</time></trkpt><trkpt lat="44.909529869985086" lon="11.969106753399712"><ele>-6.333333333333334</ele><time>2026-04-11T09:49:33.999Z</time></trkpt><trkpt lat="44.90952588824084" lon="11.968982757288579"><ele>-6.0</ele><time>2026-04-11T09:49:35.999Z</time></trkpt><trkpt lat="44.90952232310682" lon="11.968857995321967"><ele>-5.666666666666667</ele><time>2026-04-11T09:49:37.999Z</time></trkpt><trkpt lat="44.909514975213135" lon="11.968738387026868"><ele>-5.333333333333334</ele><time>2026-04-11T09:49:40Z</time></trkpt><trkpt lat="44.909507992104466" lon="11.968626023770192"><ele>-5.0</ele><time>2026-04-11T09:49:42Z</time></trkpt><trkpt lat="44.9095021477618" lon="11.96851479349561"><ele>-5.0</ele><time>2026-04-11T09:49:44Z</time></trkpt><trkpt lat="44.909501614410765" lon="11.96841415172602"><ele>-5.0</ele><time>2026-04-11T09:49:46Z</time></trkpt><trkpt lat="44.90949844360765" lon="11.968300645468057"><ele>-5.0</ele><time>2026-04-11T09:49:48Z</time></trkpt><trkpt lat="44.90948875599605" lon="11.968181678001255"><ele>-5.0</ele><time>2026-04-11T09:49:50Z</time></trkpt><trkpt lat="44.90948318066282" lon="11.968061106035465"><ele>-5.0</ele><time>2026-04-11T09:49:52Z</time></trkpt><trkpt lat="44.90947651227558" lon="11.967937610980893"><ele>-5.0</ele><time>2026-04-11T09:49:54Z</time></trkpt><trkpt lat="44.909473240911076" lon="11.967811960429776"><ele>-5.0</ele><time>2026-04-11T09:49:56Z</time></trkpt><trkpt lat="44.90946270756031" lon="11.967687493200074"><ele>-5.0</ele><time>2026-04-11T09:49:58Z</time></trkpt><trkpt lat="44.909455989585275" lon="11.967561187555456"><ele>-5.0</ele><time>2026-04-11T09:50:00Z</time></trkpt><trkpt lat="44.9094522462726" lon="11.967433372102683"><ele>-5.0</ele><time>2026-04-11T09:50:02Z</time></trkpt><trkpt lat="44.90944422264664" lon="11.96730584140572"><ele>-5.0</ele><time>2026-04-11T09:50:04Z</time></trkpt><trkpt lat="44.90943443818995" lon="11.96717035887352"><ele>-5.0</ele><time>2026-04-11T09:50:06Z</time></trkpt><trkpt lat="44.90942688646906" lon="11.967033699960327"><ele>-5.0</ele><time>2026-04-11T09:50:08Z</time></trkpt><trkpt lat="44.90942440766797" lon="11.966896219870286"><ele>-5.0</ele><time>2026-04-11T09:50:10Z</time></trkpt><trkpt lat="44.90941215503441" lon="11.966764278609519"><ele>-5.0</ele><time>2026-04-11T09:50:12Z</time></trkpt><trkpt lat="44.909404348651165" lon="11.9666364651562"><ele>-5.0</ele><time>2026-04-11T09:50:14Z</time></trkpt><trkpt lat="44.90940423495958" lon="11.966506384749465"><ele>-5.166666666666667</ele><time>2026-04-11T09:50:16Z</time></trkpt><trkpt lat="44.90939909532327" lon="11.966379523084235"><ele>-5.333333333333334</ele><time>2026-04-11T09:50:18Z</time></trkpt><trkpt lat="44.9093903602905" lon="11.96625576005949"><ele>-5.5</ele><time>2026-04-11T09:50:20Z</time></trkpt><trkpt lat="44.90939047275314" lon="11.966131283629807"><ele>-5.666666666666667</ele><time>2026-04-11T09:50:22Z</time></trkpt><trkpt lat="44.90938503690135" lon="11.966011380863531"><ele>-5.833333333333333</ele><time>2026-04-11T09:50:24Z</time></trkpt><trkpt lat="44.909381451709166" lon="11.965882727797338"><ele>-6.0</ele><time>2026-04-11T09:50:26Z</time></trkpt><trkpt lat="44.90937022975974" lon="11.96575885504322"><ele>-6.166666666666667</ele><time>2026-04-11T09:50:28Z</time></trkpt><trkpt lat="44.90936895674547" lon="11.965635831815183"><ele>-6.333333333333334</ele><time>2026-04-11T09:50:30Z</time></trkpt><trkpt lat="44.90936590827674" lon="11.965510908187593"><ele>-6.5</ele><time>2026-04-11T09:50:32Z</time></trkpt><trkpt lat="44.90935656358018" lon="11.96538860375077"><ele>-6.666666666666667</ele><time>2026-04-11T09:50:34Z</time></trkpt><trkpt lat="44.909343147286094" lon="11.965266744186675"><ele>-6.833333333333334</ele><time>2026-04-11T09:50:36Z</time></trkpt><trkpt lat="44.90934596334089" lon="11.96514943168549"><ele>-7.0</ele><time>2026-04-11T09:50:38Z</time></trkpt><trkpt lat="44.909340227510874" lon="11.965030373305586"><ele>-6.833333333333334</ele><time>2026-04-11T09:50:40Z</time></trkpt><trkpt lat="44.909334845066105" lon="11.964912474451255"><ele>-6.666666666666667</ele><time>2026-04-11T09:50:42Z</time></trkpt><trkpt lat="44.90932889850734" lon="11.96479194778533"><ele>-6.5</ele><time>2026-04-11T09:50:44Z</time></trkpt><trkpt lat="44.90932163895305" lon="11.964676217095297"><ele>-6.333333333333334</ele><time>2026-04-11T09:50:46Z</time></trkpt><trkpt lat="44.90931745736309" lon="11.964563375025715"><ele>-6.166666666666667</ele><time>2026-04-11T09:50:48Z</time></trkpt><trkpt lat="44.909317383478424" lon="11.964459818164386"><ele>-6.0</ele><time>2026-04-11T09:50:50Z</time></trkpt><trkpt lat="44.909308933908505" lon="11.964351896177009"><ele>-6.0</ele><time>2026-04-11T09:50:52Z</time></trkpt><trkpt lat="44.90930568330618" lon="11.964235180668306"><ele>-6.0</ele><time>2026-04-11T09:50:54Z</time></trkpt><trkpt lat="44.909298841493474" lon="11.964115046905189"><ele>-6.0</ele><time>2026-04-11T09:50:56Z</time></trkpt><trkpt lat="44.90929266388531" lon="11.963996862507727"><ele>-6.0</ele><time>2026-04-11T09:50:58Z</time></trkpt><trkpt lat="44.909286130897165" lon="11.963879999047428"><ele>-6.0</ele><time>2026-04-11T09:51:00Z</time></trkpt><trkpt lat="44.909277506255556" lon="11.96376626822524"><ele>-6.0</ele><time>2026-04-11T09:51:02Z</time></trkpt><trkpt lat="44.90927330453826" lon="11.96364905217399"><ele>-5.833333333333333</ele><time>2026-04-11T09:51:04Z</time></trkpt><trkpt lat="44.90926526116842" lon="11.963528535678547"><ele>-5.666666666666667</ele><time>2026-04-11T09:51:06Z</time></trkpt><trkpt lat="44.909258303581844" lon="11.963402349187263"><ele>-5.5</ele><time>2026-04-11T09:51:08Z</time></trkpt><trkpt lat="44.90925229837076" lon="11.96327719239349"><ele>-5.333333333333334</ele><time>2026-04-11T09:51:10Z</time></trkpt><trkpt lat="44.90925006660506" lon="11.963151522781098"><ele>-5.166666666666667</ele><time>2026-04-11T09:51:12Z</time></trkpt><trkpt lat="44.90924120411376" lon="11.963024767719437"><ele>-5.0</ele><time>2026-04-11T09:51:14Z</time></trkpt><trkpt lat="44.90923710876598" lon="11.962899548446309"><ele>-4.8</ele><time>2026-04-11T09:51:16Z</time></trkpt><trkpt lat="44.90923114404303" lon="11.962769719501708"><ele>-4.6</ele><time>2026-04-11T09:51:18Z</time></trkpt><trkpt lat="44.90922667721567" lon="11.962642834253705"><ele>-4.4</ele><time>2026-04-11T09:51:20Z</time></trkpt><trkpt lat="44.909218641810895" lon="11.962512228569542"><ele>-4.2</ele><time>2026-04-11T09:51:22Z</time></trkpt><trkpt lat="44.909215874698894" lon="11.962386626256913"><ele>-4.0</ele><time>2026-04-11T09:51:24Z</time></trkpt><trkpt lat="44.90920785570534" lon="11.962261496177641"><ele>-4.0</ele><time>2026-04-11T09:51:26Z</time></trkpt><trkpt lat="44.909200456299594" lon="11.962128074174986"><ele>-4.0</ele><time>2026-04-11T09:51:28Z</time></trkpt><trkpt lat="44.90919035755511" lon="11.961994470418535"><ele>-4.0</ele><time>2026-04-11T09:51:30Z</time></trkpt><trkpt lat="44.90918542210633" lon="11.961865027225523"><ele>-4.0</ele><time>2026-04-11T09:51:32Z</time></trkpt><trkpt lat="44.9091758319569" lon="11.961727060885137"><ele>-4.0</ele><time>2026-04-11T09:51:34Z</time></trkpt><trkpt lat="44.90917167703501" lon="11.961599185054885"><ele>-4.2</ele><time>2026-04-11T09:51:36Z</time></trkpt><trkpt lat="44.90916256574539" lon="11.961466434648816"><ele>-4.4</ele><time>2026-04-11T09:51:38Z</time></trkpt><trkpt lat="44.909150419715615" lon="11.961334838898562"><ele>-4.6</ele><time>2026-04-11T09:51:40Z</time></trkpt><trkpt lat="44.90915252111209" lon="11.961203602180909"><ele>-4.8</ele><time>2026-04-11T09:51:42Z</time></trkpt><trkpt lat="44.909145476584456" lon="11.961083820796174"><ele>-5.0</ele><time>2026-04-11T09:51:44Z</time></trkpt><trkpt lat="44.90913970176487" lon="11.960963132056577"><ele>-5.0</ele><time>2026-04-11T09:51:46Z</time></trkpt><trkpt lat="44.90913576275254" lon="11.960842862554681"><ele>-5.0</ele><time>2026-04-11T09:51:48Z</time></trkpt><trkpt lat="44.90913510952769" lon="11.96072221045302"><ele>-5.0</ele><time>2026-04-11T09:51:50Z</time></trkpt><trkpt lat="44.909127006964944" lon="11.960587874299174"><ele>-5.0</ele><time>2026-04-11T09:51:52Z</time></trkpt><trkpt lat="44.909119632513914" lon="11.960456013783267"><ele>-5.0</ele><time>2026-04-11T09:51:54Z</time></trkpt><trkpt lat="44.90911234304297" lon="11.960328617026281"><ele>-5.0</ele><time>2026-04-11T09:51:56Z</time></trkpt><trkpt lat="44.90910717289751" lon="11.960202342715563"><ele>-5.0</ele><time>2026-04-11T09:51:58Z</time></trkpt><trkpt lat="44.909096466006886" lon="11.960074353374315"><ele>-5.0</ele><time>2026-04-11T09:52:00Z</time></trkpt><trkpt lat="44.909090937154986" lon="11.959944458084053"><ele>-5.0</ele><time>2026-04-11T09:52:02Z</time></trkpt><trkpt lat="44.90908445996355" lon="11.959809187775559"><ele>-5.0</ele><time>2026-04-11T09:52:04Z</time></trkpt><trkpt lat="44.909079408738194" lon="11.959679909240577"><ele>-4.8</ele><time>2026-04-11T09:52:06Z</time></trkpt><trkpt lat="44.90907107218788" lon="11.959553845265745"><ele>-4.6</ele><time>2026-04-11T09:52:08Z</time></trkpt><trkpt lat="44.90906409671368" lon="11.959424069291936"><ele>-4.4</ele><time>2026-04-11T09:52:10Z</time></trkpt><trkpt lat="44.90906026737071" lon="11.95929645050968"><ele>-4.2</ele><time>2026-04-11T09:52:12Z</time></trkpt><trkpt lat="44.90905020380467" lon="11.95916624639908"><ele>-4.0</ele><time>2026-04-11T09:52:14Z</time></trkpt><trkpt lat="44.909044303300334" lon="11.959038943035662"><ele>-3.9999999999999996</ele><time>2026-04-11T09:52:16Z</time></trkpt><trkpt lat="44.9090363824845" lon="11.958916847343865"><ele>-4.0</ele><time>2026-04-11T09:52:18Z</time></trkpt><trkpt lat="44.90902954006166" lon="11.958790437334628"><ele>-4.0</ele><time>2026-04-11T09:52:20Z</time></trkpt><trkpt lat="44.909020856365736" lon="11.958669481839541"><ele>-4.0</ele><time>2026-04-11T09:52:22Z</time></trkpt><trkpt lat="44.9090190622548" lon="11.95855095622731"><ele>-3.9999999999999996</ele><time>2026-04-11T09:52:24Z</time></trkpt><trkpt lat="44.90901406581291" lon="11.958426693787855"><ele>-4.0</ele><time>2026-04-11T09:52:26Z</time></trkpt><trkpt lat="44.90900764146063" lon="11.958299497144495"><ele>-4.166666666666666</ele><time>2026-04-11T09:52:28Z</time></trkpt><trkpt lat="44.90900062901327" lon="11.958178928669492"><ele>-4.333333333333333</ele><time>2026-04-11T09:52:30Z</time></trkpt><trkpt lat="44.908994218619156" lon="11.958065116186736"><ele>-4.5</ele><time>2026-04-11T09:52:32Z</time></trkpt><trkpt lat="44.908988760066805" lon="11.95793547393312"><ele>-4.666666666666667</ele><time>2026-04-11T09:52:34Z</time></trkpt><trkpt lat="44.908978498276944" lon="11.957807061479453"><ele>-4.833333333333334</ele><time>2026-04-11T09:52:36Z</time></trkpt><trkpt lat="44.90897238883626" lon="11.957682593148629"><ele>-5.0</ele><time>2026-04-11T09:52:38Z</time></trkpt><trkpt lat="44.90896912523811" lon="11.95756143473286"><ele>-4.833333333333334</ele><time>2026-04-11T09:52:40Z</time></trkpt><trkpt lat="44.90896814174391" lon="11.957443992400247"><ele>-4.666666666666667</ele><time>2026-04-11T09:52:42Z</time></trkpt><trkpt lat="44.908963885974494" lon="11.957332195782037"><ele>-4.5</ele><time>2026-04-11T09:52:44Z</time></trkpt><trkpt lat="44.90895863577188" lon="11.957216297268648"><ele>-4.333333333333333</ele><time>2026-04-11T09:52:46Z</time></trkpt><trkpt lat="44.90895155619386" lon="11.957099606606048"><ele>-4.166666666666666</ele><time>2026-04-11T09:52:48Z</time></trkpt><trkpt lat="44.90895017125764" lon="11.95697638321377"><ele>-4.0</ele><time>2026-04-11T09:52:50Z</time></trkpt><trkpt lat="44.908940540958895" lon="11.956851828277646"><ele>-3.9999999999999996</ele><time>2026-04-11T09:52:52Z</time></trkpt><trkpt lat="44.908932902604825" lon="11.95672583698879"><ele>-4.0</ele><time>2026-04-11T09:52:54Z</time></trkpt><trkpt lat="44.90892537700329" lon="11.95660015705638"><ele>-4.0</ele><time>2026-04-11T09:52:56Z</time></trkpt><trkpt lat="44.90891796377717" lon="11.956472643494399"><ele>-4.0</ele><time>2026-04-11T09:52:58Z</time></trkpt><trkpt lat="44.908914913467996" lon="11.956347757492242"><ele>-3.9999999999999996</ele><time>2026-04-11T09:53:00Z</time></trkpt><trkpt lat="44.90890793130208" lon="11.956225179478048"><ele>-4.0</ele><time>2026-04-11T09:53:02Z</time></trkpt><trkpt lat="44.90890005354282" lon="11.956104083292518"><ele>-4.0</ele><time>2026-04-11T09:53:04Z</time></trkpt><trkpt lat="44.90889271311379" lon="11.955974811767557"><ele>-4.0</ele><time>2026-04-11T09:53:06Z</time></trkpt><trkpt lat="44.908888120191115" lon="11.955847339787699"><ele>-4.0</ele><time>2026-04-11T09:53:08Z</time></trkpt><trkpt lat="44.90888104711852" lon="11.955719964379757"><ele>-4.0</ele><time>2026-04-11T09:53:10Z</time></trkpt><trkpt lat="44.90887675609966" lon="11.955591565925527"><ele>-4.0</ele><time>2026-04-11T09:53:12Z</time></trkpt><trkpt lat="44.90886681951988" lon="11.955464467223575"><ele>-4.0</ele><time>2026-04-11T09:53:14Z</time></trkpt><trkpt lat="44.90885513615033" lon="11.95533465637572"><ele>-4.0</ele><time>2026-04-11T09:53:16Z</time></trkpt><trkpt lat="44.90884801448322" lon="11.955205698752009"><ele>-4.0</ele><time>2026-04-11T09:53:18Z</time></trkpt><trkpt lat="44.90884142816617" lon="11.955074855827222"><ele>-4.0</ele><time>2026-04-11T09:53:20Z</time></trkpt><trkpt lat="44.90883587868023" lon="11.95495216003878"><ele>-4.0</ele><time>2026-04-11T09:53:22Z</time></trkpt><trkpt lat="44.90882791903217" lon="11.954827558200748"><ele>-3.9999999999999996</ele><time>2026-04-11T09:53:24Z</time></trkpt><trkpt lat="44.9088123892613" lon="11.954713543038299"><ele>-4.0</ele><time>2026-04-11T09:53:26Z</time></trkpt><trkpt lat="44.90880801060616" lon="11.954594761126605"><ele>-4.0</ele><time>2026-04-11T09:53:28Z</time></trkpt><trkpt lat="44.908801547901" lon="11.9544771445187"><ele>-4.0</ele><time>2026-04-11T09:53:30Z</time></trkpt><trkpt lat="44.90879182581456" lon="11.95435715163813"><ele>-3.9999999999999996</ele><time>2026-04-11T09:53:32Z</time></trkpt><trkpt lat="44.90878923805116" lon="11.954236835193601"><ele>-4.0</ele><time>2026-04-11T09:53:34Z</time></trkpt><trkpt lat="44.90878991988797" lon="11.954113732453058"><ele>-3.833333333333333</ele><time>2026-04-11T09:53:36Z</time></trkpt><trkpt lat="44.90880140472382" lon="11.95399686838647"><ele>-3.6666666666666665</ele><time>2026-04-11T09:53:38Z</time></trkpt><trkpt lat="44.90878871902485" lon="11.953876874686216"><ele>-3.5</ele><time>2026-04-11T09:53:40Z</time></trkpt><trkpt lat="44.9087666413882" lon="11.953765422142888"><ele>-3.333333333333333</ele><time>2026-04-11T09:53:42Z</time></trkpt><trkpt lat="44.90876387754158" lon="11.953640320871834"><ele>-3.1666666666666665</ele><time>2026-04-11T09:53:44Z</time></trkpt><trkpt lat="44.90875662351526" lon="11.953515533617866"><ele>-3.0</ele><time>2026-04-11T09:53:46Z</time></trkpt><trkpt lat="44.908758954518106" lon="11.95339710189744"><ele>-2.8333333333333335</ele><time>2026-04-11T09:53:48Z</time></trkpt><trkpt lat="44.90875690910772" lon="11.953274402681526"><ele>-2.6666666666666665</ele><time>2026-04-11T09:53:50Z</time></trkpt><trkpt lat="44.908754280050296" lon="11.953156799269836"><ele>-2.5</ele><time>2026-04-11T09:53:52Z</time></trkpt><trkpt lat="44.90874801783036" lon="11.953037905269134"><ele>-2.333333333333333</ele><time>2026-04-11T09:53:54Z</time></trkpt><trkpt lat="44.90874235862149" lon="11.952914860886546"><ele>-2.1666666666666665</ele><time>2026-04-11T09:53:56Z</time></trkpt><trkpt lat="44.90873760979132" lon="11.952794227720828"><ele>-2.0</ele><time>2026-04-11T09:53:58Z</time></trkpt><trkpt lat="44.90872807914274" lon="11.952672788359433"><ele>-1.9999999999999998</ele><time>2026-04-11T09:54:00Z</time></trkpt><trkpt lat="44.908723726988114" lon="11.952553738600466"><ele>-2.0</ele><time>2026-04-11T09:54:02Z</time></trkpt><trkpt lat="44.90872152960905" lon="11.952431776736448"><ele>-2.0</ele><time>2026-04-11T09:54:04Z</time></trkpt><trkpt lat="44.90871902536502" lon="11.952300945952874"><ele>-2.0</ele><time>2026-04-11T09:54:06Z</time></trkpt><trkpt lat="44.908713634580444" lon="11.95218209553424"><ele>-1.9999999999999998</ele><time>2026-04-11T09:54:08Z</time></trkpt><trkpt lat="44.90871228128477" lon="11.95204892617813"><ele>-2.0</ele><time>2026-04-11T09:54:10Z</time></trkpt><trkpt lat="44.90870660101267" lon="11.951914712915665"><ele>-2.2</ele><time>2026-04-11T09:54:12Z</time></trkpt><trkpt lat="44.90870514501738" lon="11.95178463726011"><ele>-2.4000000000000004</ele><time>2026-04-11T09:54:14Z</time></trkpt><trkpt lat="44.90869488380828" lon="11.951649645911163"><ele>-2.5999999999999996</ele><time>2026-04-11T09:54:16Z</time></trkpt><trkpt lat="44.90868692747378" lon="11.95151547931854"><ele>-2.8</ele><time>2026-04-11T09:54:18Z</time></trkpt><trkpt lat="44.908682953623604" lon="11.951384306772058"><ele>-3.0</ele><time>2026-04-11T09:54:20Z</time></trkpt><trkpt lat="44.90867780037607" lon="11.95124744231969"><ele>-3.2</ele><time>2026-04-11T09:54:22Z</time></trkpt><trkpt lat="44.908671757265445" lon="11.951114813814552"><ele>-3.4</ele><time>2026-04-11T09:54:24Z</time></trkpt><trkpt lat="44.908661857335424" lon="11.950985614563091"><ele>-3.6000000000000005</ele><time>2026-04-11T09:54:26Z</time></trkpt><trkpt lat="44.90865920150654" lon="11.950855553409932"><ele>-3.8000000000000003</ele><time>2026-04-11T09:54:28Z</time></trkpt><trkpt lat="44.90865207525511" lon="11.95072174401764"><ele>-4.0</ele><time>2026-04-11T09:54:30Z</time></trkpt><trkpt lat="44.908638001419014" lon="11.950589523859465"><ele>-4.0</ele><time>2026-04-11T09:54:32Z</time></trkpt><trkpt lat="44.90863054268653" lon="11.950454109884062"><ele>-4.0</ele><time>2026-04-11T09:54:34Z</time></trkpt><trkpt lat="44.9086254067542" lon="11.950323821424984"><ele>-4.0</ele><time>2026-04-11T09:54:36Z</time></trkpt><trkpt lat="44.908612113213884" lon="11.95019878727078"><ele>-4.0</ele><time>2026-04-11T09:54:38Z</time></trkpt><trkpt lat="44.90860996110583" lon="11.950070914260284"><ele>-4.0</ele><time>2026-04-11T09:54:40Z</time></trkpt><trkpt lat="44.90860521420254" lon="11.949942418203102"><ele>-3.9999999999999996</ele><time>2026-04-11T09:54:42Z</time></trkpt><trkpt lat="44.908597132395414" lon="11.949818337525656"><ele>-4.0</ele><time>2026-04-11T09:54:44Z</time></trkpt><trkpt lat="44.908586537877866" lon="11.949697534288873"><ele>-4.0</ele><time>2026-04-11T09:54:46Z</time></trkpt><trkpt lat="44.9085847169776" lon="11.949568922832912"><ele>-4.0</ele><time>2026-04-11T09:54:48Z</time></trkpt><trkpt lat="44.90857815163929" lon="11.949447468074217"><ele>-3.9999999999999996</ele><time>2026-04-11T09:54:50Z</time></trkpt><trkpt lat="44.90856815884507" lon="11.949323831083017"><ele>-4.0</ele><time>2026-04-11T09:54:52Z</time></trkpt><trkpt lat="44.90856326328026" lon="11.949199499152904"><ele>-4.166666666666666</ele><time>2026-04-11T09:54:54Z</time></trkpt><trkpt lat="44.90855708242361" lon="11.949074689782599"><ele>-4.333333333333333</ele><time>2026-04-11T09:54:56Z</time></trkpt><trkpt lat="44.908545485281536" lon="11.948948202431968"><ele>-4.5</ele><time>2026-04-11T09:54:58Z</time></trkpt><trkpt lat="44.908535660922404" lon="11.948825184140818"><ele>-4.666666666666667</ele><time>2026-04-11T09:55:00Z</time></trkpt><trkpt lat="44.90852472121983" lon="11.94869720943679"><ele>-4.833333333333334</ele><time>2026-04-11T09:55:02Z</time></trkpt><trkpt lat="44.90851618754677" lon="11.948570035341866"><ele>-5.0</ele><time>2026-04-11T09:55:04Z</time></trkpt><trkpt lat="44.9085259145364" lon="11.948445704984515"><ele>-4.8</ele><time>2026-04-11T09:55:06Z</time></trkpt><trkpt lat="44.908522429303886" lon="11.948317783452486"><ele>-4.6</ele><time>2026-04-11T09:55:08Z</time></trkpt><trkpt lat="44.90851454393961" lon="11.948190380743904"><ele>-4.4</ele><time>2026-04-11T09:55:10Z</time></trkpt><trkpt lat="44.90850668015637" lon="11.948061974211566"><ele>-4.2</ele><time>2026-04-11T09:55:12Z</time></trkpt><trkpt lat="44.90849765094025" lon="11.947932882047398"><ele>-4.0</ele><time>2026-04-11T09:55:14Z</time></trkpt><trkpt lat="44.908493065620306" lon="11.947806272607055"><ele>-4.0</ele><time>2026-04-11T09:55:16Z</time></trkpt><trkpt lat="44.90848797352088" lon="11.947678410095437"><ele>-4.0</ele><time>2026-04-11T09:55:18Z</time></trkpt><trkpt lat="44.9084811251795" lon="11.947549987917421"><ele>-4.0</ele><time>2026-04-11T09:55:20Z</time></trkpt><trkpt lat="44.90847622997267" lon="11.947419368312586"><ele>-4.0</ele><time>2026-04-11T09:55:22Z</time></trkpt><trkpt lat="44.90847131550157" lon="11.947291661848018"><ele>-4.0</ele><time>2026-04-11T09:55:24Z</time></trkpt><trkpt lat="44.908461893417424" lon="11.947158976229508"><ele>-4.0</ele><time>2026-04-11T09:55:26Z</time></trkpt><trkpt lat="44.90845343903622" lon="11.947024418381654"><ele>-4.0</ele><time>2026-04-11T09:55:28Z</time></trkpt><trkpt lat="44.908452730519876" lon="11.946888704909236"><ele>-4.0</ele><time>2026-04-11T09:55:30Z</time></trkpt><trkpt lat="44.908444381577716" lon="11.946755319175463"><ele>-4.0</ele><time>2026-04-11T09:55:32Z</time></trkpt><trkpt lat="44.908436624880125" lon="11.946620240335532"><ele>-4.0</ele><time>2026-04-11T09:55:34Z</time></trkpt><trkpt lat="44.90843306684559" lon="11.946489801911781"><ele>-3.8000000000000003</ele><time>2026-04-11T09:55:36Z</time></trkpt><trkpt lat="44.90843526530369" lon="11.94636541859359"><ele>-3.6000000000000005</ele><time>2026-04-11T09:55:38Z</time></trkpt><trkpt lat="44.90843277661068" lon="11.946228318731123"><ele>-3.4</ele><time>2026-04-11T09:55:40Z</time></trkpt><trkpt lat="44.908415226733396" lon="11.946094499827968"><ele>-3.2</ele><time>2026-04-11T09:55:42Z</time></trkpt><trkpt lat="44.90842566182155" lon="11.945970339772789"><ele>-3.0</ele><time>2026-04-11T09:55:44Z</time></trkpt><trkpt lat="44.90841700156787" lon="11.945843562879467"><ele>-3.0</ele><time>2026-04-11T09:55:46Z</time></trkpt><trkpt lat="44.90841410345044" lon="11.945718307994051"><ele>-3.0</ele><time>2026-04-11T09:55:48Z</time></trkpt><trkpt lat="44.90840353802791" lon="11.945612546895287"><ele>-3.0</ele><time>2026-04-11T09:55:50Z</time></trkpt><trkpt lat="44.90840111207289" lon="11.945506230746773"><ele>-3.0</ele><time>2026-04-11T09:55:52Z</time></trkpt><trkpt lat="44.90838804250764" lon="11.945394252561355"><ele>-3.0</ele><time>2026-04-11T09:55:54Z</time></trkpt><trkpt lat="44.908390890616715" lon="11.945292702404734"><ele>-3.0</ele><time>2026-04-11T09:55:56Z</time></trkpt><trkpt lat="44.90838611183458" lon="11.94518104613397"><ele>-3.0</ele><time>2026-04-11T09:55:58Z</time></trkpt><trkpt lat="44.90837884788052" lon="11.945077022515196"><ele>-3.0</ele><time>2026-04-11T09:56:00Z</time></trkpt><trkpt lat="44.90837479929769" lon="11.944978647675903"><ele>-3.0</ele><time>2026-04-11T09:56:02Z</time></trkpt><trkpt lat="44.908366162137874" lon="11.944869668688538"><ele>-3.0</ele><time>2026-04-11T09:56:04Z</time></trkpt><trkpt lat="44.90836018002503" lon="11.944749284611436"><ele>-3.0</ele><time>2026-04-11T09:56:06Z</time></trkpt><trkpt lat="44.90835337897824" lon="11.944625692757173"><ele>-3.0</ele><time>2026-04-11T09:56:08Z</time></trkpt><trkpt lat="44.90834109413618" lon="11.944502851218363"><ele>-3.1666666666666665</ele><time>2026-04-11T09:56:10Z</time></trkpt><trkpt lat="44.90833386839332" lon="11.944381429028276"><ele>-3.333333333333333</ele><time>2026-04-11T09:56:12Z</time></trkpt><trkpt lat="44.90832429053149" lon="11.944268793334711"><ele>-3.5</ele><time>2026-04-11T09:56:14Z</time></trkpt><trkpt lat="44.908318088373846" lon="11.94416534787556"><ele>-3.6666666666666665</ele><time>2026-04-11T09:56:16Z</time></trkpt><trkpt lat="44.9083157725844" lon="11.944057559115901"><ele>-3.833333333333333</ele><time>2026-04-11T09:56:18Z</time></trkpt><trkpt lat="44.90830620898526" lon="11.943954482150593"><ele>-4.0</ele><time>2026-04-11T09:56:20Z</time></trkpt><trkpt lat="44.90830911833067" lon="11.943855257698837"><ele>-3.9999999999999996</ele><time>2026-04-11T09:56:22Z</time></trkpt><trkpt lat="44.90830497671101" lon="11.94374842339415"><ele>-4.0</ele><time>2026-04-11T09:56:24Z</time></trkpt><trkpt lat="44.908298326409735" lon="11.943628192400134"><ele>-4.0</ele><time>2026-04-11T09:56:26Z</time></trkpt><trkpt lat="44.90828783238681" lon="11.943519185726295"><ele>-4.0</ele><time>2026-04-11T09:56:28Z</time></trkpt><trkpt lat="44.90828066657257" lon="11.94340921136286"><ele>-3.9999999999999996</ele><time>2026-04-11T09:56:30Z</time></trkpt><trkpt lat="44.908274358276145" lon="11.943305984162787"><ele>-4.0</ele><time>2026-04-11T09:56:32Z</time></trkpt><trkpt lat="44.90826899747469" lon="11.943198913041703"><ele>-3.9999999999999996</ele><time>2026-04-11T09:56:34Z</time></trkpt><trkpt lat="44.90826661635828" lon="11.943077052845837"><ele>-4.0</ele><time>2026-04-11T09:56:36Z</time></trkpt><trkpt lat="44.908256949960254" lon="11.942955585358314"><ele>-4.0</ele><time>2026-04-11T09:56:38Z</time></trkpt><trkpt lat="44.90825236152837" lon="11.942828293063805"><ele>-4.0</ele><time>2026-04-11T09:56:40Z</time></trkpt><trkpt lat="44.90824789753275" lon="11.94269644631261"><ele>-3.9999999999999996</ele><time>2026-04-11T09:56:42Z</time></trkpt><trkpt lat="44.90823795741877" lon="11.942567247398074"><ele>-4.0</ele><time>2026-04-11T09:56:44Z</time></trkpt><trkpt lat="44.90823667524091" lon="11.942433465619876"><ele>-4.0</ele><time>2026-04-11T09:56:46Z</time></trkpt><trkpt lat="44.90823128855989" lon="11.942300300435432"><ele>-4.0</ele><time>2026-04-11T09:56:48Z</time></trkpt><trkpt lat="44.9082231589564" lon="11.942165322497546"><ele>-4.0</ele><time>2026-04-11T09:56:50Z</time></trkpt><trkpt lat="44.908217258677254" lon="11.942029381453908"><ele>-4.0</ele><time>2026-04-11T09:56:52Z</time></trkpt><trkpt lat="44.90821257500126" lon="11.941894534569835"><ele>-4.0</ele><time>2026-04-11T09:56:54Z</time></trkpt><trkpt lat="44.90820927698062" lon="11.941769125032579"><ele>-3.6666666666666665</ele><time>2026-04-11T09:56:56Z</time></trkpt><trkpt lat="44.9081942749957" lon="11.941642081365075"><ele>-3.333333333333333</ele><time>2026-04-11T09:56:58Z</time></trkpt><trkpt lat="44.908191444772825" lon="11.941519828516306"><ele>-3.0</ele><time>2026-04-11T09:57:00Z</time></trkpt><trkpt lat="44.90818319221664" lon="11.94139836390915"><ele>-2.6666666666666665</ele><time>2026-04-11T09:57:02Z</time></trkpt><trkpt lat="44.90818060701816" lon="11.941279622588336"><ele>-2.333333333333333</ele><time>2026-04-11T09:57:04Z</time></trkpt><trkpt lat="44.90818772380598" lon="11.941153386605654"><ele>-2.0</ele><time>2026-04-11T09:57:06Z</time></trkpt><trkpt lat="44.90818675232089" lon="11.941030839670992"><ele>-1.9999999999999998</ele><time>2026-04-11T09:57:08Z</time></trkpt><trkpt lat="44.90817726377912" lon="11.940900941861178"><ele>-2.0</ele><time>2026-04-11T09:57:10Z</time></trkpt><trkpt lat="44.9081731279344" lon="11.94077598693868"><ele>-2.0</ele><time>2026-04-11T09:57:12Z</time></trkpt><trkpt lat="44.90816145010501" lon="11.940659864562644"><ele>-2.0</ele><time>2026-04-11T09:57:14Z</time></trkpt><trkpt lat="44.90815766811337" lon="11.940539241359165"><ele>-1.9999999999999998</ele><time>2026-04-11T09:57:16Z</time></trkpt><trkpt lat="44.90815205429331" lon="11.940405736438438"><ele>-2.0</ele><time>2026-04-11T09:57:18Z</time></trkpt><trkpt lat="44.90814911680327" lon="11.940272348411025"><ele>-1.9999999999999998</ele><time>2026-04-11T09:57:20Z</time></trkpt><trkpt lat="44.90814456214379" lon="11.940143953886672"><ele>-2.0</ele><time>2026-04-11T09:57:22Z</time></trkpt><trkpt lat="44.90813527926157" lon="11.94001998078485"><ele>-2.0</ele><time>2026-04-11T09:57:24Z</time></trkpt><trkpt lat="44.90813268711389" lon="11.939904899087084"><ele>-2.0</ele><time>2026-04-11T09:57:26Z</time></trkpt><trkpt lat="44.908125370666916" lon="11.93978088052533"><ele>-1.9999999999999998</ele><time>2026-04-11T09:57:28Z</time></trkpt><trkpt lat="44.90811833975819" lon="11.939662380462117"><ele>-2.0</ele><time>2026-04-11T09:57:30Z</time></trkpt><trkpt lat="44.90811745446374" lon="11.939548558865676"><ele>-1.9999999999999998</ele><time>2026-04-11T09:57:32Z</time></trkpt><trkpt lat="44.908110557484875" lon="11.939426499033413"><ele>-2.0</ele><time>2026-04-11T09:57:34Z</time></trkpt><trkpt lat="44.90810552611522" lon="11.939310471787492"><ele>-2.0</ele><time>2026-04-11T09:57:36Z</time></trkpt><trkpt lat="44.908096504276465" lon="11.939201731841237"><ele>-2.0</ele><time>2026-04-11T09:57:38Z</time></trkpt><trkpt lat="44.908099629508456" lon="11.939079405057594"><ele>-1.9999999999999998</ele><time>2026-04-11T09:57:40Z</time></trkpt><trkpt lat="44.908091264863394" lon="11.938959203134925"><ele>-2.0</ele><time>2026-04-11T09:57:42Z</time></trkpt><trkpt lat="44.90808879868127" lon="11.938836252848084"><ele>-2.1666666666666665</ele><time>2026-04-11T09:57:44Z</time></trkpt><trkpt lat="44.90807344449566" lon="11.938715026014737"><ele>-2.333333333333333</ele><time>2026-04-11T09:57:46Z</time></trkpt><trkpt lat="44.90806987862063" lon="11.938599254793616"><ele>-2.5</ele><time>2026-04-11T09:57:48Z</time></trkpt><trkpt lat="44.90806524985761" lon="11.93850186983304"><ele>-2.6666666666666665</ele><time>2026-04-11T09:57:50Z</time></trkpt><trkpt lat="44.90806382153121" lon="11.938399857242844"><ele>-2.8333333333333335</ele><time>2026-04-11T09:57:52Z</time></trkpt><trkpt lat="44.90805894883757" lon="11.938280726250348"><ele>-3.0</ele><time>2026-04-11T09:57:54Z</time></trkpt><trkpt lat="44.9080505894163" lon="11.938169984010525"><ele>-3.0</ele><time>2026-04-11T09:57:56Z</time></trkpt><trkpt lat="44.9080476073072" lon="11.938061749421717"><ele>-3.0</ele><time>2026-04-11T09:57:58Z</time></trkpt><trkpt lat="44.90803936730189" lon="11.937948067171517"><ele>-3.0</ele><time>2026-04-11T09:58:00Z</time></trkpt><trkpt lat="44.90803104076774" lon="11.937826722924784"><ele>-3.0</ele><time>2026-04-11T09:58:02Z</time></trkpt><trkpt lat="44.90802461258681" lon="11.937704008123655"><ele>-3.0</ele><time>2026-04-11T09:58:04Z</time></trkpt><trkpt lat="44.90802250143636" lon="11.937585508305615"><ele>-3.0</ele><time>2026-04-11T09:58:06Z</time></trkpt><trkpt lat="44.908020316220515" lon="11.937472139710078"><ele>-3.0</ele><time>2026-04-11T09:58:08Z</time></trkpt><trkpt lat="44.90801245125925" lon="11.937367930415862"><ele>-3.0</ele><time>2026-04-11T09:58:10Z</time></trkpt><trkpt lat="44.908014097248234" lon="11.937262085149953"><ele>-3.0</ele><time>2026-04-11T09:58:12Z</time></trkpt><trkpt lat="44.90800937960551" lon="11.937158864199661"><ele>-3.0</ele><time>2026-04-11T09:58:14Z</time></trkpt><trkpt lat="44.908002275273184" lon="11.937038459051582"><ele>-3.0</ele><time>2026-04-11T09:58:16Z</time></trkpt><trkpt lat="44.90799594196728" lon="11.936917857870858"><ele>-3.0</ele><time>2026-04-11T09:58:18Z</time></trkpt><trkpt lat="44.9079895964405" lon="11.936800727941586"><ele>-3.0</ele><time>2026-04-11T09:58:20Z</time></trkpt><trkpt lat="44.907982701420124" lon="11.936684474783066"><ele>-3.0</ele><time>2026-04-11T09:58:22Z</time></trkpt><trkpt lat="44.90797660752393" lon="11.93656193792185"><ele>-3.0</ele><time>2026-04-11T09:58:24Z</time></trkpt><trkpt lat="44.90797021193007" lon="11.936434174112915"><ele>-3.0</ele><time>2026-04-11T09:58:26Z</time></trkpt><trkpt lat="44.90795831339635" lon="11.936312921171591"><ele>-3.0</ele><time>2026-04-11T09:58:28Z</time></trkpt><trkpt lat="44.907950269130865" lon="11.936195385181417"><ele>-3.0</ele><time>2026-04-11T09:58:30Z</time></trkpt><trkpt lat="44.90794766994527" lon="11.936076645976307"><ele>-3.0</ele><time>2026-04-11T09:58:32Z</time></trkpt><trkpt lat="44.907939986500985" lon="11.935962840450934"><ele>-3.0</ele><time>2026-04-11T09:58:34Z</time></trkpt><trkpt lat="44.907942615379355" lon="11.93585187331112"><ele>-3.0</ele><time>2026-04-11T09:58:36Z</time></trkpt><trkpt lat="44.907938039064774" lon="11.935742258181422"><ele>-3.0</ele><time>2026-04-11T09:58:38Z</time></trkpt><trkpt lat="44.907931094383606" lon="11.935635974543391"><ele>-3.0</ele><time>2026-04-11T09:58:40Z</time></trkpt><trkpt lat="44.907924780260764" lon="11.935537648195798"><ele>-3.0</ele><time>2026-04-11T09:58:42Z</time></trkpt><trkpt lat="44.90791869159072" lon="11.935430805161872"><ele>-3.0</ele><time>2026-04-11T09:58:44Z</time></trkpt><trkpt lat="44.907918440946034" lon="11.93531655033113"><ele>-3.0</ele><time>2026-04-11T09:58:46Z</time></trkpt><trkpt lat="44.907904370919596" lon="11.935222677655887"><ele>-3.0</ele><time>2026-04-11T09:58:48Z</time></trkpt><trkpt lat="44.90789620354064" lon="11.935103376484582"><ele>-3.0</ele><time>2026-04-11T09:58:50Z</time></trkpt><trkpt lat="44.90788968903602" lon="11.934982822612039"><ele>-3.0</ele><time>2026-04-11T09:58:52Z</time></trkpt><trkpt lat="44.90789477138241" lon="11.934866610475254"><ele>-3.0</ele><time>2026-04-11T09:58:54Z</time></trkpt><trkpt lat="44.907892307294105" lon="11.934750922105996"><ele>-3.0</ele><time>2026-04-11T09:58:56Z</time></trkpt><trkpt lat="44.907889265008535" lon="11.934636771649938"><ele>-3.0</ele><time>2026-04-11T09:58:58Z</time></trkpt><trkpt lat="44.90788438764416" lon="11.934528061038131"><ele>-3.0</ele><time>2026-04-11T09:59:00Z</time></trkpt><trkpt lat="44.907874743164335" lon="11.934425660853984"><ele>-3.0</ele><time>2026-04-11T09:59:02Z</time></trkpt><trkpt lat="44.907866861482866" lon="11.934302844962474"><ele>-3.0</ele><time>2026-04-11T09:59:04Z</time></trkpt><trkpt lat="44.907859676454905" lon="11.934187497925295"><ele>-3.0</ele><time>2026-04-11T09:59:06Z</time></trkpt><trkpt lat="44.907858665148154" lon="11.934064242224396"><ele>-3.1666666666666665</ele><time>2026-04-11T09:59:08Z</time></trkpt><trkpt lat="44.9078491270185" lon="11.933943410779218"><ele>-3.333333333333333</ele><time>2026-04-11T09:59:10Z</time></trkpt><trkpt lat="44.907847581703315" lon="11.933820482759412"><ele>-3.5</ele><time>2026-04-11T09:59:12Z</time></trkpt><trkpt lat="44.90784248826505" lon="11.933691626572955"><ele>-3.6666666666666665</ele><time>2026-04-11T09:59:14Z</time></trkpt><trkpt lat="44.90783394491185" lon="11.933564496833736"><ele>-3.833333333333333</ele><time>2026-04-11T09:59:16Z</time></trkpt><trkpt lat="44.90782383150363" lon="11.93344231693183"><ele>-4.0</ele><time>2026-04-11T09:59:18Z</time></trkpt><trkpt lat="44.90781932941284" lon="11.933315312639582"><ele>-4.166666666666666</ele><time>2026-04-11T09:59:20Z</time></trkpt><trkpt lat="44.907812918747794" lon="11.93319162641445"><ele>-4.333333333333333</ele><time>2026-04-11T09:59:22Z</time></trkpt><trkpt lat="44.90780647593466" lon="11.9330687020663"><ele>-4.5</ele><time>2026-04-11T09:59:24Z</time></trkpt><trkpt lat="44.907802183194384" lon="11.932948212061865"><ele>-4.666666666666667</ele><time>2026-04-11T09:59:26Z</time></trkpt><trkpt lat="44.90779145304655" lon="11.93283985850263"><ele>-4.833333333333334</ele><time>2026-04-11T09:59:28Z</time></trkpt><trkpt lat="44.90778390304615" lon="11.932727119404701"><ele>-5.0</ele><time>2026-04-11T09:59:30Z</time></trkpt><trkpt lat="44.907777746139004" lon="11.932607221837548"><ele>-4.833333333333334</ele><time>2026-04-11T09:59:32Z</time></trkpt><trkpt lat="44.90777259097977" lon="11.932487085804745"><ele>-4.666666666666667</ele><time>2026-04-11T09:59:34Z</time></trkpt><trkpt lat="44.90776936295257" lon="11.932366716694572"><ele>-4.5</ele><time>2026-04-11T09:59:36Z</time></trkpt><trkpt lat="44.907762549597564" lon="11.932248367818437"><ele>-4.333333333333333</ele><time>2026-04-11T09:59:38Z</time></trkpt><trkpt lat="44.90776010434236" lon="11.932136661317752"><ele>-4.166666666666666</ele><time>2026-04-11T09:59:40Z</time></trkpt><trkpt lat="44.907763234196636" lon="11.93202691734933"><ele>-4.0</ele><time>2026-04-11T09:59:42Z</time></trkpt><trkpt lat="44.907752466344036" lon="11.931923247256819"><ele>-3.9999999999999996</ele><time>2026-04-11T09:59:44Z</time></trkpt><trkpt lat="44.90774452704511" lon="11.931831162763373"><ele>-4.0</ele><time>2026-04-11T09:59:46Z</time></trkpt><trkpt lat="44.90773181684024" lon="11.931701039173392"><ele>-4.0</ele><time>2026-04-11T09:59:49Z</time></trkpt><trkpt lat="44.90771876478262" lon="11.931556110816777"><ele>-4.0</ele><time>2026-04-11T09:59:52Z</time></trkpt><trkpt lat="44.90771290853009" lon="11.931443496674364"><ele>-3.9999999999999996</ele><time>2026-04-11T09:59:54Z</time></trkpt><trkpt lat="44.90770497061705" lon="11.931346218280604"><ele>-4.0</ele><time>2026-04-11T09:59:56Z</time></trkpt><trkpt lat="44.90770652828307" lon="11.931230106220603"><ele>-3.9999999999999996</ele><time>2026-04-11T09:59:59Z</time></trkpt><trkpt lat="44.90770768288125" lon="11.931138139014982"><ele>-4.0</ele><time>2026-04-11T10:00:01Z</time></trkpt><trkpt lat="44.9077049739631" lon="11.93102474529131"><ele>-4.0</ele><time>2026-04-11T10:00:03Z</time></trkpt><trkpt lat="44.90770615615668" lon="11.930906620771683"><ele>-4.0</ele><time>2026-04-11T10:00:05Z</time></trkpt><trkpt lat="44.90769378399956" lon="11.930791766968273"><ele>-3.9999999999999996</ele><time>2026-04-11T10:00:07Z</time></trkpt><trkpt lat="44.907683514422416" lon="11.930674419884838"><ele>-4.0</ele><time>2026-04-11T10:00:09Z</time></trkpt><trkpt lat="44.90768140322579" lon="11.93055593930664"><ele>-4.166666666666666</ele><time>2026-04-11T10:00:11Z</time></trkpt><trkpt lat="44.9076776462963" lon="11.930436814699355"><ele>-4.333333333333333</ele><time>2026-04-11T10:00:13Z</time></trkpt><trkpt lat="44.90767283554127" lon="11.930315508288365"><ele>-4.5</ele><time>2026-04-11T10:00:15Z</time></trkpt><trkpt lat="44.907665309692746" lon="11.930191337789184"><ele>-4.666666666666667</ele><time>2026-04-11T10:00:17Z</time></trkpt><trkpt lat="44.90765705440136" lon="11.930069722874654"><ele>-4.833333333333334</ele><time>2026-04-11T10:00:19Z</time></trkpt><trkpt lat="44.907648864484855" lon="11.929943831170366"><ele>-5.0</ele><time>2026-04-11T10:00:21Z</time></trkpt><trkpt lat="44.90764184372563" lon="11.929821640330978"><ele>-4.666666666666667</ele><time>2026-04-11T10:00:23Z</time></trkpt><trkpt lat="44.907637326521694" lon="11.92969719936983"><ele>-4.333333333333334</ele><time>2026-04-11T10:00:25Z</time></trkpt><trkpt lat="44.90763977625599" lon="11.929572289016221"><ele>-4.0</ele><time>2026-04-11T10:00:27Z</time></trkpt><trkpt lat="44.90763647539239" lon="11.929440037143143"><ele>-3.666666666666667</ele><time>2026-04-11T10:00:29Z</time></trkpt><trkpt lat="44.90762856536952" lon="11.929320900019635"><ele>-3.3333333333333335</ele><time>2026-04-11T10:00:31Z</time></trkpt><trkpt lat="44.90762812864839" lon="11.929199805391733"><ele>-3.0</ele><time>2026-04-11T10:00:33Z</time></trkpt><trkpt lat="44.90762351696879" lon="11.929079941911477"><ele>-2.8333333333333335</ele><time>2026-04-11T10:00:35Z</time></trkpt><trkpt lat="44.907614292277984" lon="11.928953350307868"><ele>-2.6666666666666665</ele><time>2026-04-11T10:00:37Z</time></trkpt><trkpt lat="44.90760914382995" lon="11.928842751336404"><ele>-2.5</ele><time>2026-04-11T10:00:39Z</time></trkpt><trkpt lat="44.90760140784403" lon="11.928726003838161"><ele>-2.333333333333333</ele><time>2026-04-11T10:00:41Z</time></trkpt><trkpt lat="44.90759642864246" lon="11.928606172174282"><ele>-2.1666666666666665</ele><time>2026-04-11T10:00:43Z</time></trkpt><trkpt lat="44.90758826822146" lon="11.928481107439632"><ele>-2.0</ele><time>2026-04-11T10:00:45Z</time></trkpt><trkpt lat="44.90758287212046" lon="11.928356370780032"><ele>-1.9999999999999998</ele><time>2026-04-11T10:00:47Z</time></trkpt><trkpt lat="44.90757850929879" lon="11.928231515380139"><ele>-2.0</ele><time>2026-04-11T10:00:49Z</time></trkpt><trkpt lat="44.90757243101454" lon="11.928102714286489"><ele>-2.0</ele><time>2026-04-11T10:00:51Z</time></trkpt><trkpt lat="44.907565855637664" lon="11.927971221086382"><ele>-2.0</ele><time>2026-04-11T10:00:53Z</time></trkpt><trkpt lat="44.90755165831203" lon="11.927842304930465"><ele>-1.9999999999999998</ele><time>2026-04-11T10:00:55Z</time></trkpt><trkpt lat="44.90755709294447" lon="11.927725930128272"><ele>-2.0</ele><time>2026-04-11T10:00:57Z</time></trkpt><trkpt lat="44.90754469326879" lon="11.927603229119065"><ele>-1.9999999999999998</ele><time>2026-04-11T10:00:59Z</time></trkpt><trkpt lat="44.90752974258187" lon="11.927480584951862"><ele>-2.0</ele><time>2026-04-11T10:01:01Z</time></trkpt><trkpt lat="44.90752481946653" lon="11.9273563740927"><ele>-2.0</ele><time>2026-04-11T10:01:03Z</time></trkpt><trkpt lat="44.90752096027437" lon="11.9272346225595"><ele>-2.0</ele><time>2026-04-11T10:01:05Z</time></trkpt><trkpt lat="44.907516941641184" lon="11.92710969469041"><ele>-1.9999999999999998</ele><time>2026-04-11T10:01:07Z</time></trkpt><trkpt lat="44.9075117179121" lon="11.926987931555574"><ele>-2.0</ele><time>2026-04-11T10:01:09Z</time></trkpt><trkpt lat="44.907504296284465" lon="11.92686218415916"><ele>-1.9999999999999998</ele><time>2026-04-11T10:01:11Z</time></trkpt><trkpt lat="44.90749327079933" lon="11.926739916115228"><ele>-2.0</ele><time>2026-04-11T10:01:13Z</time></trkpt><trkpt lat="44.90748943876274" lon="11.926626319517753"><ele>-2.0</ele><time>2026-04-11T10:01:15Z</time></trkpt><trkpt lat="44.907480807351604" lon="11.926513324001117"><ele>-2.0</ele><time>2026-04-11T10:01:17Z</time></trkpt><trkpt lat="44.90747667606236" lon="11.926406567218692"><ele>-1.9999999999999998</ele><time>2026-04-11T10:01:19Z</time></trkpt><trkpt lat="44.90746658143059" lon="11.926288151678234"><ele>-2.0</ele><time>2026-04-11T10:01:21Z</time></trkpt><trkpt lat="44.907455984716556" lon="11.926166103096817"><ele>-1.9999999999999998</ele><time>2026-04-11T10:01:23Z</time></trkpt><trkpt lat="44.90745832185971" lon="11.926051901091789"><ele>-2.0</ele><time>2026-04-11T10:01:25Z</time></trkpt><trkpt lat="44.907463727691315" lon="11.925941945653424"><ele>-2.0</ele><time>2026-04-11T10:01:27Z</time></trkpt><trkpt lat="44.90746254660067" lon="11.925835028907812"><ele>-2.0</ele><time>2026-04-11T10:01:29Z</time></trkpt><trkpt lat="44.907451935257235" lon="11.925733634497188"><ele>-1.9999999999999998</ele><time>2026-04-11T10:01:31Z</time></trkpt><trkpt lat="44.907441605132455" lon="11.925618281328383"><ele>-2.0</ele><time>2026-04-11T10:01:33Z</time></trkpt><trkpt lat="44.907440692114356" lon="11.925504241227559"><ele>-1.9999999999999998</ele><time>2026-04-11T10:01:35Z</time></trkpt><trkpt lat="44.90743782063489" lon="11.925403857580234"><ele>-2.0</ele><time>2026-04-11T10:01:37Z</time></trkpt><trkpt lat="44.90743470833089" lon="11.925304376617735"><ele>-2.0</ele><time>2026-04-11T10:01:39Z</time></trkpt><trkpt lat="44.9074204048663" lon="11.925210517216872"><ele>-2.0</ele><time>2026-04-11T10:01:41Z</time></trkpt><trkpt lat="44.90741166783894" lon="11.92510579370251"><ele>-1.9999999999999998</ele><time>2026-04-11T10:01:43Z</time></trkpt><trkpt lat="44.907406614853414" lon="11.924987928717991"><ele>-2.0</ele><time>2026-04-11T10:01:45Z</time></trkpt><trkpt lat="44.907395953073745" lon="11.92486929429866"><ele>-1.9999999999999998</ele><time>2026-04-11T10:01:47Z</time></trkpt><trkpt lat="44.907389777375045" lon="11.924751223250876"><ele>-2.0</ele><time>2026-04-11T10:01:49Z</time></trkpt><trkpt lat="44.9073853724248" lon="11.924630271617005"><ele>-2.0</ele><time>2026-04-11T10:01:51Z</time></trkpt><trkpt lat="44.90737864118708" lon="11.92450679322949"><ele>-2.0</ele><time>2026-04-11T10:01:53Z</time></trkpt><trkpt lat="44.907369256886184" lon="11.924384979034455"><ele>-1.9999999999999998</ele><time>2026-04-11T10:01:55Z</time></trkpt><trkpt lat="44.90736927804817" lon="11.92425999676982"><ele>-2.0</ele><time>2026-04-11T10:01:57Z</time></trkpt><trkpt lat="44.9073526367892" lon="11.924133738386603"><ele>-2.0</ele><time>2026-04-11T10:01:59Z</time></trkpt><trkpt lat="44.907345212071434" lon="11.92400741308936"><ele>-2.0</ele><time>2026-04-11T10:02:01Z</time></trkpt><trkpt lat="44.907341764650766" lon="11.923879361384435"><ele>-2.0</ele><time>2026-04-11T10:02:03Z</time></trkpt><trkpt lat="44.907342918866966" lon="11.923750419746431"><ele>-2.0</ele><time>2026-04-11T10:02:05Z</time></trkpt><trkpt lat="44.90733799797134" lon="11.923619704154302"><ele>-2.0</ele><time>2026-04-11T10:02:07Z</time></trkpt><trkpt lat="44.9073270222028" lon="11.923486493595666"><ele>-2.0</ele><time>2026-04-11T10:02:09Z</time></trkpt><trkpt lat="44.907321573775725" lon="11.923353889121685"><ele>-2.0</ele><time>2026-04-11T10:02:11Z</time></trkpt><trkpt lat="44.90731493835989" lon="11.923225375969187"><ele>-2.0</ele><time>2026-04-11T10:02:13Z</time></trkpt><trkpt lat="44.90730505891013" lon="11.92309704799556"><ele>-2.0</ele><time>2026-04-11T10:02:15Z</time></trkpt><trkpt lat="44.9072936067622" lon="11.922972317556995"><ele>-2.0</ele><time>2026-04-11T10:02:17Z</time></trkpt><trkpt lat="44.90729136244446" lon="11.922841872127039"><ele>-1.9999999999999998</ele><time>2026-04-11T10:02:19Z</time></trkpt><trkpt lat="44.90727776128074" lon="11.92271783120243"><ele>-2.0</ele><time>2026-04-11T10:02:21Z</time></trkpt><trkpt lat="44.9072736823022" lon="11.922592670361821"><ele>-2.0</ele><time>2026-04-11T10:02:23Z</time></trkpt><trkpt lat="44.907265670459275" lon="11.92246758833866"><ele>-2.0</ele><time>2026-04-11T10:02:25Z</time></trkpt><trkpt lat="44.907261438874365" lon="11.922346324987462"><ele>-1.9999999999999998</ele><time>2026-04-11T10:02:27Z</time></trkpt><trkpt lat="44.90725794266035" lon="11.922226782769364"><ele>-2.0</ele><time>2026-04-11T10:02:29Z</time></trkpt><trkpt lat="44.907251289883696" lon="11.922108722695313"><ele>-1.9999999999999998</ele><time>2026-04-11T10:02:31Z</time></trkpt><trkpt lat="44.90724367487851" lon="11.921994391745347"><ele>-2.0</ele><time>2026-04-11T10:02:33Z</time></trkpt><trkpt lat="44.90723353963222" lon="11.921872498097262"><ele>-2.0</ele><time>2026-04-11T10:02:35Z</time></trkpt><trkpt lat="44.90722691552166" lon="11.921757496702673"><ele>-2.0</ele><time>2026-04-11T10:02:37Z</time></trkpt><trkpt lat="44.90722461403931" lon="11.921649196267238"><ele>-1.9999999999999998</ele><time>2026-04-11T10:02:39Z</time></trkpt><trkpt lat="44.907268378409064" lon="11.921570782886873"><ele>-2.0</ele><time>2026-04-11T10:02:41Z</time></trkpt><trkpt lat="44.90734572874602" lon="11.921580393326115"><ele>-1.8333333333333333</ele><time>2026-04-11T10:02:43Z</time></trkpt><trkpt lat="44.90742581365858" lon="11.921585254198853"><ele>-1.6666666666666665</ele><time>2026-04-11T10:02:45Z</time></trkpt><trkpt lat="44.90750321046268" lon="11.921603583752963"><ele>-1.5</ele><time>2026-04-11T10:02:47Z</time></trkpt><trkpt lat="44.907572092807065" lon="11.921562761485783"><ele>-1.3333333333333333</ele><time>2026-04-11T10:02:49Z</time></trkpt><trkpt lat="44.907622644932104" lon="11.921476786516934"><ele>-1.1666666666666665</ele><time>2026-04-11T10:02:51Z</time></trkpt><trkpt lat="44.90764595726227" lon="11.921359864067487"><ele>-1.0</ele><time>2026-04-11T10:02:53Z</time></trkpt><trkpt lat="44.90766815962149" lon="11.921241839037284"><ele>-0.9999999999999999</ele><time>2026-04-11T10:02:55Z</time></trkpt><trkpt lat="44.907690277148866" lon="11.921122162577566"><ele>-1.0</ele><time>2026-04-11T10:02:57Z</time></trkpt><trkpt lat="44.9077136356386" lon="11.921008593166997"><ele>-1.0</ele><time>2026-04-11T10:02:59Z</time></trkpt><trkpt lat="44.90773761018724" lon="11.920886150392212"><ele>-1.0</ele><time>2026-04-11T10:03:01Z</time></trkpt><trkpt lat="44.90775658930632" lon="11.92076329692545"><ele>-0.9999999999999999</ele><time>2026-04-11T10:03:03Z</time></trkpt><trkpt lat="44.907774632880674" lon="11.920637164170047"><ele>-1.0</ele><time>2026-04-11T10:03:05Z</time></trkpt><trkpt lat="44.907796096635096" lon="11.920518906195515"><ele>-1.3333333333333333</ele><time>2026-04-11T10:03:07Z</time></trkpt><trkpt lat="44.90781487637589" lon="11.920403614026283"><ele>-1.6666666666666665</ele><time>2026-04-11T10:03:09Z</time></trkpt><trkpt lat="44.907833612352526" lon="11.920284987393618"><ele>-2.0</ele><time>2026-04-11T10:03:11Z</time></trkpt><trkpt lat="44.907851926842625" lon="11.920166607259981"><ele>-2.3333333333333335</ele><time>2026-04-11T10:03:13Z</time></trkpt><trkpt lat="44.907872044182014" lon="11.920043370881018"><ele>-2.6666666666666665</ele><time>2026-04-11T10:03:15Z</time></trkpt><trkpt lat="44.90789442271461" lon="11.91991683053612"><ele>-3.0</ele><time>2026-04-11T10:03:17Z</time></trkpt><trkpt lat="44.907916374725964" lon="11.919785573155348"><ele>-3.0</ele><time>2026-04-11T10:03:19Z</time></trkpt><trkpt lat="44.907938572241285" lon="11.919651369103354"><ele>-3.0</ele><time>2026-04-11T10:03:21Z</time></trkpt><trkpt lat="44.90795730336637" lon="11.919519589616472"><ele>-3.0</ele><time>2026-04-11T10:03:23Z</time></trkpt><trkpt lat="44.907980189316646" lon="11.919383106720895"><ele>-3.0</ele><time>2026-04-11T10:03:25Z</time></trkpt><trkpt lat="44.908003564431155" lon="11.919251542166913"><ele>-3.0</ele><time>2026-04-11T10:03:27Z</time></trkpt><trkpt lat="44.908025667257824" lon="11.919120189922472"><ele>-2.8333333333333335</ele><time>2026-04-11T10:03:29Z</time></trkpt><trkpt lat="44.908043990716784" lon="11.918990763855838"><ele>-2.6666666666666665</ele><time>2026-04-11T10:03:31Z</time></trkpt><trkpt lat="44.90805789657456" lon="11.918868906525411"><ele>-2.5</ele><time>2026-04-11T10:03:33Z</time></trkpt><trkpt lat="44.90807782734236" lon="11.918751952353292"><ele>-2.333333333333333</ele><time>2026-04-11T10:03:35Z</time></trkpt><trkpt lat="44.90810117246357" lon="11.91863987003621"><ele>-2.1666666666666665</ele><time>2026-04-11T10:03:37Z</time></trkpt><trkpt lat="44.90812372177778" lon="11.918527864362279"><ele>-2.0</ele><time>2026-04-11T10:03:39Z</time></trkpt><trkpt lat="44.90814490073741" lon="11.918410213029032"><ele>-1.8333333333333333</ele><time>2026-04-11T10:03:41Z</time></trkpt><trkpt lat="44.90816589842047" lon="11.918291163451613"><ele>-1.6666666666666665</ele><time>2026-04-11T10:03:43Z</time></trkpt><trkpt lat="44.90818395341704" lon="11.918168435855707"><ele>-1.5</ele><time>2026-04-11T10:03:45Z</time></trkpt><trkpt lat="44.908201991883644" lon="11.918047952238807"><ele>-1.3333333333333333</ele><time>2026-04-11T10:03:47Z</time></trkpt><trkpt lat="44.90822455258227" lon="11.917926487938418"><ele>-1.1666666666666665</ele><time>2026-04-11T10:03:49Z</time></trkpt><trkpt lat="44.908241361945834" lon="11.917802665601242"><ele>-1.0</ele><time>2026-04-11T10:03:51Z</time></trkpt><trkpt lat="44.908266466815924" lon="11.917676970837064"><ele>-1.0</ele><time>2026-04-11T10:03:53Z</time></trkpt><trkpt lat="44.90829044098716" lon="11.917542463895682"><ele>-1.0</ele><time>2026-04-11T10:03:55Z</time></trkpt><trkpt lat="44.90831249111068" lon="11.917409832541074"><ele>-1.0</ele><time>2026-04-11T10:03:57Z</time></trkpt><trkpt lat="44.908331840332494" lon="11.91727361531069"><ele>-1.0</ele><time>2026-04-11T10:03:59Z</time></trkpt><trkpt lat="44.90836132005301" lon="11.91714139327942"><ele>-1.0</ele><time>2026-04-11T10:04:01Z</time></trkpt><trkpt lat="44.908380682027875" lon="11.917004266713695"><ele>-1.0</ele><time>2026-04-11T10:04:03Z</time></trkpt><trkpt lat="44.908406569249514" lon="11.916871591315283"><ele>-1.0</ele><time>2026-04-11T10:04:05Z</time></trkpt><trkpt lat="44.90842724592395" lon="11.916738187064567"><ele>-1.0</ele><time>2026-04-11T10:04:07Z</time></trkpt><trkpt lat="44.90844759985182" lon="11.916604185710982"><ele>-1.0</ele><time>2026-04-11T10:04:09Z</time></trkpt><trkpt lat="44.90847003686131" lon="11.916475552902606"><ele>-1.0</ele><time>2026-04-11T10:04:11Z</time></trkpt><trkpt lat="44.90849167592131" lon="11.916345840236012"><ele>-0.8</ele><time>2026-04-11T10:04:13Z</time></trkpt><trkpt lat="44.908511607315376" lon="11.916216055173956"><ele>-0.6000000000000001</ele><time>2026-04-11T10:04:15Z</time></trkpt><trkpt lat="44.908533952143614" lon="11.916085930867288"><ele>-0.4</ele><time>2026-04-11T10:04:17Z</time></trkpt><trkpt lat="44.90855513372982" lon="11.915956081300106"><ele>-0.2</ele><time>2026-04-11T10:04:19Z</time></trkpt><trkpt lat="44.90857686643585" lon="11.9158248455216"><ele>0.0</ele><time>2026-04-11T10:04:21Z</time></trkpt><trkpt lat="44.90860150497909" lon="11.915697611033359"><ele>0.0</ele><time>2026-04-11T10:04:23Z</time></trkpt><trkpt lat="44.90861644146527" lon="11.915565387694754"><ele>0.0</ele><time>2026-04-11T10:04:25Z</time></trkpt><trkpt lat="44.90864148166837" lon="11.915438825404843"><ele>0.0</ele><time>2026-04-11T10:04:27Z</time></trkpt><trkpt lat="44.90866366257921" lon="11.915311369759221"><ele>0.0</ele><time>2026-04-11T10:04:29Z</time></trkpt><trkpt lat="44.908685635251004" lon="11.915181803919822"><ele>0.0</ele><time>2026-04-11T10:04:31Z</time></trkpt><trkpt lat="44.908711735704934" lon="11.915051510300408"><ele>0.0</ele><time>2026-04-11T10:04:33Z</time></trkpt><trkpt lat="44.90874540706796" lon="11.914923141661296"><ele>0.0</ele><time>2026-04-11T10:04:35Z</time></trkpt><trkpt lat="44.908786378047814" lon="11.914805166093606"><ele>0.0</ele><time>2026-04-11T10:04:37Z</time></trkpt><trkpt lat="44.90883207511527" lon="11.914690978448665"><ele>0.0</ele><time>2026-04-11T10:04:39Z</time></trkpt><trkpt lat="44.90888159123607" lon="11.914578758290695"><ele>0.0</ele><time>2026-04-11T10:04:41Z</time></trkpt><trkpt lat="44.908936360488134" lon="11.91446843880688"><ele>0.0</ele><time>2026-04-11T10:04:43Z</time></trkpt><trkpt lat="44.90898367559101" lon="11.914353838868596"><ele>0.0</ele><time>2026-04-11T10:04:45Z</time></trkpt><trkpt lat="44.90903473367707" lon="11.914245467873286"><ele>0.0</ele><time>2026-04-11T10:04:47Z</time></trkpt><trkpt lat="44.90908508567914" lon="11.914137131024304"><ele>0.0</ele><time>2026-04-11T10:04:49Z</time></trkpt><trkpt lat="44.909132643742" lon="11.914023615717127"><ele>0.0</ele><time>2026-04-11T10:04:51Z</time></trkpt><trkpt lat="44.909186610916116" lon="11.913912478909085"><ele>0.0</ele><time>2026-04-11T10:04:53Z</time></trkpt><trkpt lat="44.909239329454635" lon="11.913797989182221"><ele>0.0</ele><time>2026-04-11T10:04:55Z</time></trkpt><trkpt lat="44.909294400852005" lon="11.913683668108076"><ele>0.0</ele><time>2026-04-11T10:04:57Z</time></trkpt><trkpt lat="44.909345496800526" lon="11.913562276219073"><ele>0.0</ele><time>2026-04-11T10:04:59Z</time></trkpt><trkpt lat="44.90940055081769" lon="11.91344981126151"><ele>0.0</ele><time>2026-04-11T10:05:01Z</time></trkpt><trkpt lat="44.909455007662636" lon="11.9133270794971"><ele>0.0</ele><time>2026-04-11T10:05:03Z</time></trkpt><trkpt lat="44.90951135958966" lon="11.913206197810583"><ele>0.0</ele><time>2026-04-11T10:05:05Z</time></trkpt><trkpt lat="44.9095623250208" lon="11.913089667687572"><ele>0.0</ele><time>2026-04-11T10:05:07Z</time></trkpt><trkpt lat="44.90962198381804" lon="11.91298324025205"><ele>0.0</ele><time>2026-04-11T10:05:09Z</time></trkpt><trkpt lat="44.909667170955686" lon="11.912868963111446"><ele>0.0</ele><time>2026-04-11T10:05:11Z</time></trkpt><trkpt lat="44.909721095169466" lon="11.91276858165362"><ele>0.0</ele><time>2026-04-11T10:05:13Z</time></trkpt><trkpt lat="44.90977307280392" lon="11.912673636619838"><ele>0.0</ele><time>2026-04-11T10:05:15Z</time></trkpt><trkpt lat="44.909812424950566" lon="11.912566909107342"><ele>0.0</ele><time>2026-04-11T10:05:17Z</time></trkpt><trkpt lat="44.90987352930012" lon="11.912502588929051"><ele>0.0</ele><time>2026-04-11T10:05:19Z</time></trkpt><trkpt lat="44.909936588812876" lon="11.912447407618666"><ele>0.0</ele><time>2026-04-11T10:05:21Z</time></trkpt><trkpt lat="44.910009720614326" lon="11.912429194242105"><ele>0.0</ele><time>2026-04-11T10:05:23Z</time></trkpt><trkpt lat="44.910081211965945" lon="11.912419282768447"><ele>0.0</ele><time>2026-04-11T10:05:25Z</time></trkpt><trkpt lat="44.910152984018254" lon="11.912407360019522"><ele>0.0</ele><time>2026-04-11T10:05:27Z</time></trkpt><trkpt lat="44.91022802162575" lon="11.91238320770337"><ele>0.0</ele><time>2026-04-11T10:05:29Z</time></trkpt><trkpt lat="44.910298564061165" lon="11.91236321574176"><ele>0.0</ele><time>2026-04-11T10:05:31Z</time></trkpt><trkpt lat="44.910370450974284" lon="11.912342829142627"><ele>0.0</ele><time>2026-04-11T10:05:33Z</time></trkpt><trkpt lat="44.910450228643455" lon="11.912315615518198"><ele>0.0</ele><time>2026-04-11T10:05:35Z</time></trkpt><trkpt lat="44.91053404146228" lon="11.912292198331338"><ele>0.0</ele><time>2026-04-11T10:05:37Z</time></trkpt><trkpt lat="44.91061681452814" lon="11.912271761304819"><ele>0.0</ele><time>2026-04-11T10:05:39Z</time></trkpt><trkpt lat="44.91070294312681" lon="11.912247143660938"><ele>0.0</ele><time>2026-04-11T10:05:41Z</time></trkpt><trkpt lat="44.910781588800525" lon="11.912217749265821"><ele>0.0</ele><time>2026-04-11T10:05:43Z</time></trkpt><trkpt lat="44.9108612952895" lon="11.912185381382852"><ele>0.0</ele><time>2026-04-11T10:05:45Z</time></trkpt><trkpt lat="44.91093277516101" lon="11.912147468356196"><ele>0.0</ele><time>2026-04-11T10:05:47Z</time></trkpt><trkpt lat="44.911002532107894" lon="11.91212235229245"><ele>0.0</ele><time>2026-04-11T10:05:49Z</time></trkpt><trkpt lat="44.911076030854" lon="11.912113757782707"><ele>0.0</ele><time>2026-04-11T10:05:51Z</time></trkpt><trkpt lat="44.91114326670532" lon="11.91210362212872"><ele>0.0</ele><time>2026-04-11T10:05:53Z</time></trkpt><trkpt lat="44.911208667750024" lon="11.912079729981441"><ele>0.0</ele><time>2026-04-11T10:05:55Z</time></trkpt><trkpt lat="44.91129891205299" lon="11.91204849583129"><ele>0.0</ele><time>2026-04-11T10:05:58Z</time></trkpt><trkpt lat="44.911370845514085" lon="11.912019732508343"><ele>0.0</ele><time>2026-04-11T10:06:00Z</time></trkpt><trkpt lat="44.911441786608655" lon="11.91200897662915"><ele>0.0</ele><time>2026-04-11T10:06:02Z</time></trkpt><trkpt lat="44.911509823777536" lon="11.911991220017551"><ele>0.0</ele><time>2026-04-11T10:06:04Z</time></trkpt><trkpt lat="44.911590335173834" lon="11.911960685066814"><ele>0.0</ele><time>2026-04-11T10:06:07Z</time></trkpt><trkpt lat="44.91167759739659" lon="11.911944932566374"><ele>0.0</ele><time>2026-04-11T10:06:10Z</time></trkpt><trkpt lat="44.91175121464259" lon="11.911929343265248"><ele>0.0</ele><time>2026-04-11T10:06:12Z</time></trkpt><trkpt lat="44.911815654976785" lon="11.911899962417099"><ele>0.0</ele><time>2026-04-11T10:06:14Z</time></trkpt><trkpt lat="44.911905956173825" lon="11.911872840192418"><ele>0.0</ele><time>2026-04-11T10:06:17Z</time></trkpt><trkpt lat="44.91199916733641" lon="11.911859449629423"><ele>0.2857142857142857</ele><time>2026-04-11T10:06:20Z</time></trkpt><trkpt lat="44.91207261018345" lon="11.911837866742065"><ele>0.5714285714285714</ele><time>2026-04-11T10:06:22Z</time></trkpt><trkpt lat="44.91213984655118" lon="11.911816011896414"><ele>0.8571428571428571</ele><time>2026-04-11T10:06:24Z</time></trkpt><trkpt lat="44.91220213517663" lon="11.91179624913254"><ele>1.1428571428571428</ele><time>2026-04-11T10:06:26Z</time></trkpt><trkpt lat="44.91227302734979" lon="11.911782650292608"><ele>1.4285714285714284</ele><time>2026-04-11T10:06:28Z</time></trkpt><trkpt lat="44.91235129182778" lon="11.91175717144361"><ele>1.7142857142857142</ele><time>2026-04-11T10:06:30Z</time></trkpt><trkpt lat="44.912416823183584" lon="11.911732420392722"><ele>2.0</ele><time>2026-04-11T10:06:32Z</time></trkpt><trkpt lat="44.912483462001696" lon="11.911740702506025"><ele>1.9999999999999998</ele><time>2026-04-11T10:06:34Z</time></trkpt><trkpt lat="44.91256830370726" lon="11.911753467455709"><ele>2.0</ele><time>2026-04-11T10:06:37Z</time></trkpt><trkpt lat="44.912613691974435" lon="11.911656465447633"><ele>2.0</ele><time>2026-04-11T10:06:40Z</time></trkpt><trkpt lat="44.91260286735279" lon="11.911544265281465"><ele>2.0</ele><time>2026-04-11T10:06:42Z</time></trkpt><trkpt lat="44.912585240500086" lon="11.911440393563497"><ele>1.9999999999999998</ele><time>2026-04-11T10:06:44Z</time></trkpt><trkpt lat="44.91256874524273" lon="11.911335115257224"><ele>2.0</ele><time>2026-04-11T10:06:46Z</time></trkpt><trkpt lat="44.912561990297306" lon="11.911230589537613"><ele>1.9999999999999998</ele><time>2026-04-11T10:06:48Z</time></trkpt><trkpt lat="44.91255412500579" lon="11.911115724297506"><ele>2.0</ele><time>2026-04-11T10:06:50Z</time></trkpt><trkpt lat="44.91254422518826" lon="11.910989135028407"><ele>2.0</ele><time>2026-04-11T10:06:52Z</time></trkpt><trkpt lat="44.91253933166037" lon="11.910866578381851"><ele>2.0</ele><time>2026-04-11T10:06:54Z</time></trkpt><trkpt lat="44.91253501260152" lon="11.910740438668894"><ele>1.9999999999999998</ele><time>2026-04-11T10:06:56Z</time></trkpt><trkpt lat="44.912532472599544" lon="11.91061308113779"><ele>2.0</ele><time>2026-04-11T10:06:58Z</time></trkpt><trkpt lat="44.912526421215055" lon="11.910485648062881"><ele>1.9999999999999998</ele><time>2026-04-11T10:07:00Z</time></trkpt><trkpt lat="44.91251941929771" lon="11.91036647303476"><ele>2.0</ele><time>2026-04-11T10:07:02Z</time></trkpt><trkpt lat="44.91251489044314" lon="11.910244842522252"><ele>2.0</ele><time>2026-04-11T10:07:04Z</time></trkpt><trkpt lat="44.91251047573627" lon="11.91012928380358"><ele>2.0</ele><time>2026-04-11T10:07:06Z</time></trkpt><trkpt lat="44.91250064806569" lon="11.91001351522429"><ele>1.9999999999999998</ele><time>2026-04-11T10:07:08Z</time></trkpt><trkpt lat="44.91249692595451" lon="11.909892581369242"><ele>2.0</ele><time>2026-04-11T10:07:10Z</time></trkpt><trkpt lat="44.91248797680873" lon="11.90977618263256"><ele>1.8333333333333333</ele><time>2026-04-11T10:07:12Z</time></trkpt><trkpt lat="44.91248291358941" lon="11.909659197445102"><ele>1.6666666666666665</ele><time>2026-04-11T10:07:14Z</time></trkpt><trkpt lat="44.91247732630397" lon="11.90954039996867"><ele>1.5</ele><time>2026-04-11T10:07:16Z</time></trkpt><trkpt lat="44.9124691276468" lon="11.90942022715453"><ele>1.3333333333333333</ele><time>2026-04-11T10:07:18Z</time></trkpt><trkpt lat="44.91246497434968" lon="11.90929798535897"><ele>1.1666666666666665</ele><time>2026-04-11T10:07:20Z</time></trkpt><trkpt lat="44.91246868715992" lon="11.909172224111083"><ele>1.0</ele><time>2026-04-11T10:07:22Z</time></trkpt><trkpt lat="44.912459549737385" lon="11.909040884423904"><ele>0.8333333333333333</ele><time>2026-04-11T10:07:24Z</time></trkpt><trkpt lat="44.912451817070846" lon="11.908913166592306"><ele>0.6666666666666666</ele><time>2026-04-11T10:07:26Z</time></trkpt><trkpt lat="44.91243960598238" lon="11.90878982901332"><ele>0.5</ele><time>2026-04-11T10:07:28Z</time></trkpt><trkpt lat="44.91243182819314" lon="11.90866617234142"><ele>0.3333333333333333</ele><time>2026-04-11T10:07:30Z</time></trkpt><trkpt lat="44.9124304336663" lon="11.908555713943656"><ele>0.16666666666666666</ele><time>2026-04-11T10:07:32Z</time></trkpt><trkpt lat="44.912427113228375" lon="11.908445029218376"><ele>0.0</ele><time>2026-04-11T10:07:34Z</time></trkpt><trkpt lat="44.912418862060946" lon="11.908334274503893"><ele>0.3333333333333333</ele><time>2026-04-11T10:07:36Z</time></trkpt><trkpt lat="44.91241481874113" lon="11.908232639907355"><ele>0.6666666666666666</ele><time>2026-04-11T10:07:38Z</time></trkpt><trkpt lat="44.91240789507957" lon="11.908135068988255"><ele>1.0</ele><time>2026-04-11T10:07:40Z</time></trkpt><trkpt lat="44.91240448539193" lon="11.90803486001077"><ele>1.3333333333333333</ele><time>2026-04-11T10:07:42Z</time></trkpt><trkpt lat="44.91240029395043" lon="11.907923064890724"><ele>1.6666666666666665</ele><time>2026-04-11T10:07:44Z</time></trkpt><trkpt lat="44.912392111924845" lon="11.907809281124244"><ele>2.0</ele><time>2026-04-11T10:07:46Z</time></trkpt><trkpt lat="44.91238539810168" lon="11.907686533356848"><ele>1.6666666666666665</ele><time>2026-04-11T10:07:48Z</time></trkpt><trkpt lat="44.91238508299502" lon="11.907567589260076"><ele>1.3333333333333333</ele><time>2026-04-11T10:07:50Z</time></trkpt><trkpt lat="44.91237883454341" lon="11.90744546322988"><ele>1.0</ele><time>2026-04-11T10:07:52Z</time></trkpt><trkpt lat="44.9123742914193" lon="11.907322134471555"><ele>0.6666666666666666</ele><time>2026-04-11T10:07:54Z</time></trkpt><trkpt lat="44.912365062199335" lon="11.907191219872104"><ele>0.3333333333333333</ele><time>2026-04-11T10:07:56Z</time></trkpt><trkpt lat="44.91236033820287" lon="11.907066569930793"><ele>0.0</ele><time>2026-04-11T10:07:58Z</time></trkpt><trkpt lat="44.91235078662259" lon="11.90694278693414"><ele>0.0</ele><time>2026-04-11T10:08:00Z</time></trkpt><trkpt lat="44.91234633182698" lon="11.90681994610947"><ele>0.0</ele><time>2026-04-11T10:08:02Z</time></trkpt><trkpt lat="44.91234070351429" lon="11.906698402037152"><ele>0.0</ele><time>2026-04-11T10:08:04Z</time></trkpt><trkpt lat="44.912331413430664" lon="11.90657377874185"><ele>0.0</ele><time>2026-04-11T10:08:06Z</time></trkpt><trkpt lat="44.91231921509135" lon="11.90645694945052"><ele>0.0</ele><time>2026-04-11T10:08:08Z</time></trkpt><trkpt lat="44.91231453019972" lon="11.906328836273122"><ele>0.0</ele><time>2026-04-11T10:08:10Z</time></trkpt><trkpt lat="44.91230859141511" lon="11.906203196525537"><ele>0.0</ele><time>2026-04-11T10:08:12Z</time></trkpt><trkpt lat="44.91230475270603" lon="11.906077324137119"><ele>0.0</ele><time>2026-04-11T10:08:14Z</time></trkpt><trkpt lat="44.91230374577228" lon="11.905950349730917"><ele>0.0</ele><time>2026-04-11T10:08:16Z</time></trkpt><trkpt lat="44.91229718105857" lon="11.905820399073663"><ele>0.0</ele><time>2026-04-11T10:08:18Z</time></trkpt><trkpt lat="44.9122907155974" lon="11.905693286508175"><ele>0.0</ele><time>2026-04-11T10:08:20Z</time></trkpt><trkpt lat="44.91228841317281" lon="11.905563561547803"><ele>0.0</ele><time>2026-04-11T10:08:22Z</time></trkpt><trkpt lat="44.91227864405387" lon="11.90543369907589"><ele>0.0</ele><time>2026-04-11T10:08:24Z</time></trkpt><trkpt lat="44.91227633717266" lon="11.905303073886811"><ele>0.0</ele><time>2026-04-11T10:08:26Z</time></trkpt><trkpt lat="44.91227179680595" lon="11.905173020839262"><ele>0.0</ele><time>2026-04-11T10:08:28Z</time></trkpt><trkpt lat="44.91226404555521" lon="11.905043431985867"><ele>0.0</ele><time>2026-04-11T10:08:30Z</time></trkpt><trkpt lat="44.912260915317816" lon="11.90491873913491"><ele>0.0</ele><time>2026-04-11T10:08:32Z</time></trkpt><trkpt lat="44.912254028980364" lon="11.904792818525086"><ele>0.0</ele><time>2026-04-11T10:08:34Z</time></trkpt><trkpt lat="44.912247904271155" lon="11.904666637345638"><ele>0.0</ele><time>2026-04-11T10:08:36Z</time></trkpt><trkpt lat="44.91224055882991" lon="11.904536947787992"><ele>0.0</ele><time>2026-04-11T10:08:38Z</time></trkpt><trkpt lat="44.91223294209821" lon="11.904407715707842"><ele>0.0</ele><time>2026-04-11T10:08:40Z</time></trkpt><trkpt lat="44.91222716437053" lon="11.904287319603066"><ele>0.0</ele><time>2026-04-11T10:08:42Z</time></trkpt><trkpt lat="44.91222372920691" lon="11.904172655186624"><ele>0.0</ele><time>2026-04-11T10:08:44Z</time></trkpt><trkpt lat="44.91222025546998" lon="11.904057377625529"><ele>0.0</ele><time>2026-04-11T10:08:46Z</time></trkpt><trkpt lat="44.91221612790702" lon="11.903944074512767"><ele>0.0</ele><time>2026-04-11T10:08:48Z</time></trkpt><trkpt lat="44.912211502131306" lon="11.903816547407539"><ele>0.0</ele><time>2026-04-11T10:08:50Z</time></trkpt><trkpt lat="44.91220978154214" lon="11.903691617669915"><ele>0.0</ele><time>2026-04-11T10:08:52Z</time></trkpt><trkpt lat="44.91220296405962" lon="11.903556737715489"><ele>0.0</ele><time>2026-04-11T10:08:54Z</time></trkpt><trkpt lat="44.91219587971793" lon="11.903417834759622"><ele>0.2</ele><time>2026-04-11T10:08:56Z</time></trkpt><trkpt lat="44.91218655872132" lon="11.903280669160868"><ele>0.4</ele><time>2026-04-11T10:08:58Z</time></trkpt><trkpt lat="44.91218149843442" lon="11.90314245362844"><ele>0.6000000000000001</ele><time>2026-04-11T10:09:00Z</time></trkpt><trkpt lat="44.91217460157042" lon="11.903004721980059"><ele>0.8</ele><time>2026-04-11T10:09:02Z</time></trkpt><trkpt lat="44.91216986619062" lon="11.902866736377987"><ele>1.0</ele><time>2026-04-11T10:09:04Z</time></trkpt><trkpt lat="44.91217307531641" lon="11.902731497637319"><ele>1.0</ele><time>2026-04-11T10:09:06Z</time></trkpt><trkpt lat="44.91217615445142" lon="11.902593602861588"><ele>1.0</ele><time>2026-04-11T10:09:08Z</time></trkpt><trkpt lat="44.91218108008501" lon="11.902462593361351"><ele>1.0</ele><time>2026-04-11T10:09:10Z</time></trkpt><trkpt lat="44.912187526009156" lon="11.902329054634249"><ele>1.0</ele><time>2026-04-11T10:09:12Z</time></trkpt><trkpt lat="44.91219313494778" lon="11.90219762912985"><ele>1.0</ele><time>2026-04-11T10:09:14Z</time></trkpt><trkpt lat="44.91219980187955" lon="11.902065111856544"><ele>0.8</ele><time>2026-04-11T10:09:16Z</time></trkpt><trkpt lat="44.91220452165112" lon="11.90193225561393"><ele>0.6000000000000001</ele><time>2026-04-11T10:09:18Z</time></trkpt><trkpt lat="44.9122135494624" lon="11.901798948255246"><ele>0.4</ele><time>2026-04-11T10:09:20Z</time></trkpt><trkpt lat="44.912219147294024" lon="11.901663679111122"><ele>0.2</ele><time>2026-04-11T10:09:22Z</time></trkpt><trkpt lat="44.91222551866432" lon="11.901529065647752"><ele>0.0</ele><time>2026-04-11T10:09:24Z</time></trkpt><trkpt lat="44.91222688109953" lon="11.90139063966104"><ele>0.0</ele><time>2026-04-11T10:09:26Z</time></trkpt><trkpt lat="44.91222184757095" lon="11.901257246674055"><ele>0.0</ele><time>2026-04-11T10:09:28Z</time></trkpt><trkpt lat="44.91221770512758" lon="11.901114344849493"><ele>0.0</ele><time>2026-04-11T10:09:30Z</time></trkpt><trkpt lat="44.912206505820365" lon="11.900968461685764"><ele>0.0</ele><time>2026-04-11T10:09:32Z</time></trkpt><trkpt lat="44.91218943323834" lon="11.900827862430418"><ele>0.0</ele><time>2026-04-11T10:09:34Z</time></trkpt><trkpt lat="44.91217686844246" lon="11.90068466573661"><ele>0.0</ele><time>2026-04-11T10:09:36Z</time></trkpt><trkpt lat="44.91215809054485" lon="11.900547867429792"><ele>0.0</ele><time>2026-04-11T10:09:38Z</time></trkpt><trkpt lat="44.912143624881075" lon="11.900408782423414"><ele>0.0</ele><time>2026-04-11T10:09:40Z</time></trkpt><trkpt lat="44.91213033581619" lon="11.900273850886318"><ele>0.0</ele><time>2026-04-11T10:09:42Z</time></trkpt><trkpt lat="44.912115535337534" lon="11.900135672913095"><ele>0.0</ele><time>2026-04-11T10:09:44Z</time></trkpt><trkpt lat="44.91211006976004" lon="11.899998671116517"><ele>-0.2</ele><time>2026-04-11T10:09:46Z</time></trkpt><trkpt lat="44.91209941285747" lon="11.899859753315585"><ele>-0.4</ele><time>2026-04-11T10:09:48Z</time></trkpt><trkpt lat="44.912093621394746" lon="11.899721782920434"><ele>-0.6000000000000001</ele><time>2026-04-11T10:09:50Z</time></trkpt><trkpt lat="44.91208445485272" lon="11.899583610516927"><ele>-0.8</ele><time>2026-04-11T10:09:52Z</time></trkpt><trkpt lat="44.91207250148266" lon="11.899446652477176"><ele>-1.0</ele><time>2026-04-11T10:09:54Z</time></trkpt><trkpt lat="44.9120576955476" lon="11.899312958421309"><ele>-1.2000000000000002</ele><time>2026-04-11T10:09:56Z</time></trkpt><trkpt lat="44.9120378901068" lon="11.899178533828053"><ele>-1.4000000000000001</ele><time>2026-04-11T10:09:58Z</time></trkpt><trkpt lat="44.912008802772306" lon="11.899044945997446"><ele>-1.6</ele><time>2026-04-11T10:10:00Z</time></trkpt><trkpt lat="44.911963745294905" lon="11.898926132211296"><ele>-1.8</ele><time>2026-04-11T10:10:02Z</time></trkpt><trkpt lat="44.91191055759768" lon="11.898811668985"><ele>-2.0</ele><time>2026-04-11T10:10:04Z</time></trkpt><trkpt lat="44.911853850448665" lon="11.89870301535999"><ele>-2.0</ele><time>2026-04-11T10:10:06Z</time></trkpt><trkpt lat="44.911791650142625" lon="11.89859708593861"><ele>-2.0</ele><time>2026-04-11T10:10:08Z</time></trkpt><trkpt lat="44.91172676721613" lon="11.89849172218361"><ele>-2.0</ele><time>2026-04-11T10:10:10Z</time></trkpt><trkpt lat="44.91165964387715" lon="11.898384776008658"><ele>-2.0</ele><time>2026-04-11T10:10:12Z</time></trkpt><trkpt lat="44.911592400964494" lon="11.898277927503823"><ele>-2.0</ele><time>2026-04-11T10:10:14Z</time></trkpt><trkpt lat="44.9115247629434" lon="11.898169424267023"><ele>-2.0</ele><time>2026-04-11T10:10:16Z</time></trkpt><trkpt lat="44.911458059729256" lon="11.898063935577934"><ele>-2.0</ele><time>2026-04-11T10:10:18Z</time></trkpt><trkpt lat="44.911390490715995" lon="11.897955152804865"><ele>-2.0</ele><time>2026-04-11T10:10:20Z</time></trkpt><trkpt lat="44.911325221141944" lon="11.897843683609743"><ele>-2.0</ele><time>2026-04-11T10:10:22Z</time></trkpt><trkpt lat="44.911257113900724" lon="11.897736092553902"><ele>-2.0</ele><time>2026-04-11T10:10:24Z</time></trkpt><trkpt lat="44.911187843271854" lon="11.897626548393106"><ele>-1.8</ele><time>2026-04-11T10:10:26Z</time></trkpt><trkpt lat="44.91112252532288" lon="11.897518083195816"><ele>-1.6</ele><time>2026-04-11T10:10:28Z</time></trkpt><trkpt lat="44.91105512571055" lon="11.897409117427815"><ele>-1.4000000000000001</ele><time>2026-04-11T10:10:30Z</time></trkpt><trkpt lat="44.91098845891736" lon="11.897305644676116"><ele>-1.2000000000000002</ele><time>2026-04-11T10:10:32Z</time></trkpt><trkpt lat="44.910924921199936" lon="11.897203653932683"><ele>-1.0</ele><time>2026-04-11T10:10:34Z</time></trkpt><trkpt lat="44.91085896300824" lon="11.897101962565054"><ele>-0.8</ele><time>2026-04-11T10:10:36Z</time></trkpt><trkpt lat="44.910793443041094" lon="11.897001020025026"><ele>-0.6000000000000001</ele><time>2026-04-11T10:10:38Z</time></trkpt><trkpt lat="44.91073098171912" lon="11.896897289417463"><ele>-0.4</ele><time>2026-04-11T10:10:40Z</time></trkpt><trkpt lat="44.91066512608724" lon="11.89679099968373"><ele>-0.2</ele><time>2026-04-11T10:10:42Z</time></trkpt><trkpt lat="44.910600555988786" lon="11.89667730397377"><ele>0.0</ele><time>2026-04-11T10:10:44Z</time></trkpt><trkpt lat="44.910537040852205" lon="11.896557539995394"><ele>0.0</ele><time>2026-04-11T10:10:46Z</time></trkpt><trkpt lat="44.910481670925506" lon="11.896434211562378"><ele>0.0</ele><time>2026-04-11T10:10:48Z</time></trkpt><trkpt lat="44.91043578822862" lon="11.896300994336576"><ele>0.0</ele><time>2026-04-11T10:10:50Z</time></trkpt><trkpt lat="44.91039860254162" lon="11.89616064724866"><ele>0.0</ele><time>2026-04-11T10:10:52Z</time></trkpt><trkpt lat="44.9103606991601" lon="11.896019322845893"><ele>0.0</ele><time>2026-04-11T10:10:54Z</time></trkpt><trkpt lat="44.910335298541106" lon="11.895876312862866"><ele>0.0</ele><time>2026-04-11T10:10:56Z</time></trkpt><trkpt lat="44.910311033286824" lon="11.895726939889572"><ele>0.0</ele><time>2026-04-11T10:10:58Z</time></trkpt><trkpt lat="44.91028547870894" lon="11.895583293102703"><ele>0.0</ele><time>2026-04-11T10:11:00Z</time></trkpt><trkpt lat="44.91025921116795" lon="11.89544105941273"><ele>0.0</ele><time>2026-04-11T10:11:02Z</time></trkpt><trkpt lat="44.91023883231922" lon="11.895302375254976"><ele>0.0</ele><time>2026-04-11T10:11:04Z</time></trkpt><trkpt lat="44.910215371484334" lon="11.895157930133864"><ele>-0.2</ele><time>2026-04-11T10:11:06Z</time></trkpt><trkpt lat="44.91019410777826" lon="11.895015826699769"><ele>-0.4</ele><time>2026-04-11T10:11:08Z</time></trkpt><trkpt lat="44.91016988179494" lon="11.894877730145089"><ele>-0.6000000000000001</ele><time>2026-04-11T10:11:10Z</time></trkpt><trkpt lat="44.91014463181843" lon="11.89474007443923"><ele>-0.8</ele><time>2026-04-11T10:11:12Z</time></trkpt><trkpt lat="44.91011016345756" lon="11.894599743314169"><ele>-1.0</ele><time>2026-04-11T10:11:14Z</time></trkpt><trkpt lat="44.910099203436744" lon="11.894463380886549"><ele>-1.0</ele><time>2026-04-11T10:11:16Z</time></trkpt><trkpt lat="44.91007129773013" lon="11.894325234248123"><ele>-1.0</ele><time>2026-04-11T10:11:18Z</time></trkpt><trkpt lat="44.910045617707155" lon="11.894186575978917"><ele>-1.0</ele><time>2026-04-11T10:11:20Z</time></trkpt><trkpt lat="44.91002108510135" lon="11.89404511748607"><ele>-1.0</ele><time>2026-04-11T10:11:22Z</time></trkpt><trkpt lat="44.909998026713026" lon="11.89390581101324"><ele>-1.0</ele><time>2026-04-11T10:11:24Z</time></trkpt><trkpt lat="44.90997984671101" lon="11.893766457841936"><ele>-1.0</ele><time>2026-04-11T10:11:26Z</time></trkpt><trkpt lat="44.90995789453056" lon="11.893627132246552"><ele>-1.0</ele><time>2026-04-11T10:11:28Z</time></trkpt><trkpt lat="44.909936203914775" lon="11.893489520414358"><ele>-1.0</ele><time>2026-04-11T10:11:30Z</time></trkpt><trkpt lat="44.909911414657884" lon="11.893349069317761"><ele>-1.0</ele><time>2026-04-11T10:11:32Z</time></trkpt><trkpt lat="44.9098865044964" lon="11.893207996912743"><ele>-1.0</ele><time>2026-04-11T10:11:34Z</time></trkpt><trkpt lat="44.90986453233221" lon="11.893065008499152"><ele>-0.8</ele><time>2026-04-11T10:11:36Z</time></trkpt><trkpt lat="44.90984121142811" lon="11.892923480964763"><ele>-0.6000000000000001</ele><time>2026-04-11T10:11:38Z</time></trkpt><trkpt lat="44.9098185742349" lon="11.892783116451684"><ele>-0.4</ele><time>2026-04-11T10:11:40Z</time></trkpt><trkpt lat="44.90979520110516" lon="11.892646545073832"><ele>-0.2</ele><time>2026-04-11T10:11:42Z</time></trkpt><trkpt lat="44.909771399107115" lon="11.89250517276033"><ele>0.0</ele><time>2026-04-11T10:11:44Z</time></trkpt><trkpt lat="44.90974753378863" lon="11.892366759640378"><ele>-0.2</ele><time>2026-04-11T10:11:46Z</time></trkpt><trkpt lat="44.909722875446306" lon="11.892228902211615"><ele>-0.4</ele><time>2026-04-11T10:11:48Z</time></trkpt><trkpt lat="44.909695703087756" lon="11.892090627206493"><ele>-0.6000000000000001</ele><time>2026-04-11T10:11:50Z</time></trkpt><trkpt lat="44.90967644852971" lon="11.89195620615983"><ele>-0.8</ele><time>2026-04-11T10:11:52Z</time></trkpt><trkpt lat="44.90965281581459" lon="11.891830396775092"><ele>-1.0</ele><time>2026-04-11T10:11:54Z</time></trkpt><trkpt lat="44.90963302548612" lon="11.891705626321627"><ele>-0.9999999999999999</ele><time>2026-04-11T10:11:56Z</time></trkpt><trkpt lat="44.90961113186928" lon="11.891591187605735"><ele>-1.0</ele><time>2026-04-11T10:11:58Z</time></trkpt><trkpt lat="44.909596612684425" lon="11.891477086161462"><ele>-1.0</ele><time>2026-04-11T10:12:00Z</time></trkpt><trkpt lat="44.909578385632656" lon="11.891358100395166"><ele>-1.0</ele><time>2026-04-11T10:12:02Z</time></trkpt><trkpt lat="44.90955556474699" lon="11.891231116917583"><ele>-0.9999999999999999</ele><time>2026-04-11T10:12:04Z</time></trkpt><trkpt lat="44.90953306360444" lon="11.89109580260174"><ele>-1.0</ele><time>2026-04-11T10:12:06Z</time></trkpt><trkpt lat="44.90950913206802" lon="11.890962501974798"><ele>-1.0</ele><time>2026-04-11T10:12:08Z</time></trkpt><trkpt lat="44.909485684301444" lon="11.890831058512084"><ele>-1.0</ele><time>2026-04-11T10:12:10Z</time></trkpt><trkpt lat="44.909466891463545" lon="11.890691639169281"><ele>-1.0</ele><time>2026-04-11T10:12:12Z</time></trkpt><trkpt lat="44.90944336223805" lon="11.890562678361777"><ele>-1.0</ele><time>2026-04-11T10:12:14Z</time></trkpt><trkpt lat="44.90941962732674" lon="11.890428290514203"><ele>-1.0</ele><time>2026-04-11T10:12:16Z</time></trkpt><trkpt lat="44.909395895805844" lon="11.890299674464341"><ele>-1.0</ele><time>2026-04-11T10:12:18Z</time></trkpt><trkpt lat="44.90937165788023" lon="11.890164954269789"><ele>-1.0</ele><time>2026-04-11T10:12:20Z</time></trkpt><trkpt lat="44.90935059211796" lon="11.890025724028515"><ele>-1.0</ele><time>2026-04-11T10:12:22Z</time></trkpt><trkpt lat="44.9093262034378" lon="11.889889529770388"><ele>-1.0</ele><time>2026-04-11T10:12:24Z</time></trkpt><trkpt lat="44.90930311289823" lon="11.889750788643058"><ele>-1.0</ele><time>2026-04-11T10:12:26Z</time></trkpt><trkpt lat="44.909278996278196" lon="11.88961629867173"><ele>-1.0</ele><time>2026-04-11T10:12:28Z</time></trkpt><trkpt lat="44.909258040124705" lon="11.889479147076214"><ele>-1.0</ele><time>2026-04-11T10:12:30Z</time></trkpt><trkpt lat="44.9092327744532" lon="11.889343725175411"><ele>-1.0</ele><time>2026-04-11T10:12:32Z</time></trkpt><trkpt lat="44.90920886241049" lon="11.889207541394102"><ele>-1.0</ele><time>2026-04-11T10:12:34Z</time></trkpt><trkpt lat="44.909187320384916" lon="11.889068169233846"><ele>-1.0</ele><time>2026-04-11T10:12:36Z</time></trkpt><trkpt lat="44.90916470214093" lon="11.88893056274566"><ele>-1.0</ele><time>2026-04-11T10:12:38Z</time></trkpt><trkpt lat="44.9091394977741" lon="11.888791339311718"><ele>-1.0</ele><time>2026-04-11T10:12:40Z</time></trkpt><trkpt lat="44.90911541918968" lon="11.888650005161196"><ele>-1.0</ele><time>2026-04-11T10:12:42Z</time></trkpt><trkpt lat="44.90909204994408" lon="11.888511487929245"><ele>-1.0</ele><time>2026-04-11T10:12:44Z</time></trkpt><trkpt lat="44.909072663742364" lon="11.888373038871759"><ele>-1.0</ele><time>2026-04-11T10:12:46Z</time></trkpt><trkpt lat="44.90904782252029" lon="11.888231971066256"><ele>-1.0</ele><time>2026-04-11T10:12:48Z</time></trkpt><trkpt lat="44.90902551307351" lon="11.888093520952317"><ele>-1.0</ele><time>2026-04-11T10:12:50Z</time></trkpt><trkpt lat="44.90900087897906" lon="11.887956763478492"><ele>-1.0</ele><time>2026-04-11T10:12:52Z</time></trkpt><trkpt lat="44.908980335578654" lon="11.887818628457508"><ele>-1.0</ele><time>2026-04-11T10:12:54Z</time></trkpt><trkpt lat="44.90895545491952" lon="11.887680685752594"><ele>-1.0</ele><time>2026-04-11T10:12:56Z</time></trkpt><trkpt lat="44.90893259426826" lon="11.887544068076565"><ele>-0.8</ele><time>2026-04-11T10:12:58Z</time></trkpt><trkpt lat="44.90890937698303" lon="11.887408433874988"><ele>-0.6000000000000001</ele><time>2026-04-11T10:13:00Z</time></trkpt><trkpt lat="44.908886850109276" lon="11.887272354678748"><ele>-0.4</ele><time>2026-04-11T10:13:02Z</time></trkpt><trkpt lat="44.90886258590298" lon="11.887137461104686"><ele>-0.2</ele><time>2026-04-11T10:13:04Z</time></trkpt><trkpt lat="44.90884140325229" lon="11.887005032496742"><ele>0.0</ele><time>2026-04-11T10:13:06Z</time></trkpt><trkpt lat="44.908819129461044" lon="11.886867837236833"><ele>0.0</ele><time>2026-04-11T10:13:08Z</time></trkpt><trkpt lat="44.90880999560773" lon="11.886734233184688"><ele>0.0</ele><time>2026-04-11T10:13:10Z</time></trkpt><trkpt lat="44.90882027609113" lon="11.88659570629747"><ele>0.0</ele><time>2026-04-11T10:13:12Z</time></trkpt><trkpt lat="44.90884472876455" lon="11.88646505232658"><ele>0.0</ele><time>2026-04-11T10:13:14Z</time></trkpt><trkpt lat="44.90889157074057" lon="11.886341872615914"><ele>0.0</ele><time>2026-04-11T10:13:16Z</time></trkpt><trkpt lat="44.90894841778024" lon="11.88623087539187"><ele>0.0</ele><time>2026-04-11T10:13:18Z</time></trkpt><trkpt lat="44.9090099888453" lon="11.886126670024865"><ele>0.0</ele><time>2026-04-11T10:13:20Z</time></trkpt><trkpt lat="44.90907928799272" lon="11.886028979838612"><ele>0.0</ele><time>2026-04-11T10:13:22Z</time></trkpt><trkpt lat="44.90914446563394" lon="11.885921883403263"><ele>0.0</ele><time>2026-04-11T10:13:24Z</time></trkpt><trkpt lat="44.909207844970936" lon="11.885824462207939"><ele>0.0</ele><time>2026-04-11T10:13:26Z</time></trkpt><trkpt lat="44.90927254509656" lon="11.885726972765704"><ele>0.2</ele><time>2026-04-11T10:13:28Z</time></trkpt><trkpt lat="44.90933699018501" lon="11.8856245262374"><ele>0.4</ele><time>2026-04-11T10:13:30Z</time></trkpt><trkpt lat="44.909402185812276" lon="11.88552524612146"><ele>0.6000000000000001</ele><time>2026-04-11T10:13:32Z</time></trkpt><trkpt lat="44.9094705574972" lon="11.88542498878661"><ele>0.8</ele><time>2026-04-11T10:13:34Z</time></trkpt><trkpt lat="44.90953441942137" lon="11.885322631536113"><ele>1.0</ele><time>2026-04-11T10:13:36Z</time></trkpt><trkpt lat="44.90959915017442" lon="11.885220262986161"><ele>1.0</ele><time>2026-04-11T10:13:38Z</time></trkpt><trkpt lat="44.90966158952296" lon="11.88512067672049"><ele>1.0</ele><time>2026-04-11T10:13:40Z</time></trkpt><trkpt lat="44.90972736496893" lon="11.885017931609697"><ele>1.0</ele><time>2026-04-11T10:13:42Z</time></trkpt><trkpt lat="44.90979133711534" lon="11.884916556990808"><ele>1.0</ele><time>2026-04-11T10:13:44Z</time></trkpt><trkpt lat="44.90985603885962" lon="11.884814480751206"><ele>1.0</ele><time>2026-04-11T10:13:46Z</time></trkpt><trkpt lat="44.90992259077576" lon="11.88471528556907"><ele>1.0</ele><time>2026-04-11T10:13:48Z</time></trkpt><trkpt lat="44.9099902788768" lon="11.884611513666922"><ele>1.0</ele><time>2026-04-11T10:13:50Z</time></trkpt><trkpt lat="44.910057216646" lon="11.884513068122981"><ele>1.0</ele><time>2026-04-11T10:13:52Z</time></trkpt><trkpt lat="44.9101290168406" lon="11.88441735053979"><ele>1.0</ele><time>2026-04-11T10:13:54Z</time></trkpt><trkpt lat="44.91020442209111" lon="11.884324953796828"><ele>1.0</ele><time>2026-04-11T10:13:56Z</time></trkpt><trkpt lat="44.910281133533594" lon="11.884234855642537"><ele>0.4</ele><time>2026-04-11T10:13:58Z</time></trkpt><trkpt lat="44.91035790456541" lon="11.884147317078268"><ele>-0.19999999999999996</ele><time>2026-04-11T10:14:00Z</time></trkpt><trkpt lat="44.910433653605274" lon="11.884062155899294"><ele>-0.8000000000000002</ele><time>2026-04-11T10:14:02Z</time></trkpt><trkpt lat="44.91051645898959" lon="11.883978209937068"><ele>-1.4000000000000001</ele><time>2026-04-11T10:14:04Z</time></trkpt><trkpt lat="44.910595231798986" lon="11.883887674735773"><ele>-2.0</ele><time>2026-04-11T10:14:06Z</time></trkpt><trkpt lat="44.91067394879397" lon="11.883803356726624"><ele>-2.0</ele><time>2026-04-11T10:14:08Z</time></trkpt><trkpt lat="44.910750999290464" lon="11.883715018363153"><ele>-2.0</ele><time>2026-04-11T10:14:10Z</time></trkpt><trkpt lat="44.91083070976641" lon="11.883624854247612"><ele>-2.0</ele><time>2026-04-11T10:14:12Z</time></trkpt><trkpt lat="44.91091178054911" lon="11.883538071827859"><ele>-2.0</ele><time>2026-04-11T10:14:14Z</time></trkpt><trkpt lat="44.91099017910706" lon="11.883446571268895"><ele>-2.0</ele><time>2026-04-11T10:14:16Z</time></trkpt><trkpt lat="44.91106814536454" lon="11.883359764835282"><ele>-1.8</ele><time>2026-04-11T10:14:18Z</time></trkpt><trkpt lat="44.911143759331296" lon="11.883272047409115"><ele>-1.6</ele><time>2026-04-11T10:14:20Z</time></trkpt><trkpt lat="44.91122035854497" lon="11.883184815534237"><ele>-1.4000000000000001</ele><time>2026-04-11T10:14:22Z</time></trkpt><trkpt lat="44.91129198334968" lon="11.883090383002765"><ele>-1.2000000000000002</ele><time>2026-04-11T10:14:24Z</time></trkpt><trkpt lat="44.911357791460006" lon="11.882990560475145"><ele>-1.0</ele><time>2026-04-11T10:14:26Z</time></trkpt><trkpt lat="44.91141778058274" lon="11.882877623119787"><ele>-1.0</ele><time>2026-04-11T10:14:28Z</time></trkpt><trkpt lat="44.91147277387274" lon="11.882760462216966"><ele>-1.0</ele><time>2026-04-11T10:14:30Z</time></trkpt><trkpt lat="44.911521378791186" lon="11.882642979557216"><ele>-1.0</ele><time>2026-04-11T10:14:32Z</time></trkpt><trkpt lat="44.91157025228181" lon="11.882518066395319"><ele>-1.0</ele><time>2026-04-11T10:14:34Z</time></trkpt><trkpt lat="44.91162350763184" lon="11.882396126518742"><ele>-1.0</ele><time>2026-04-11T10:14:36Z</time></trkpt><trkpt lat="44.91166982245512" lon="11.882269986746023"><ele>-1.0</ele><time>2026-04-11T10:14:38Z</time></trkpt><trkpt lat="44.91171892314669" lon="11.882147506797118"><ele>-1.0</ele><time>2026-04-11T10:14:40Z</time></trkpt><trkpt lat="44.911770275061535" lon="11.882024300392196"><ele>-1.0</ele><time>2026-04-11T10:14:42Z</time></trkpt><trkpt lat="44.911819255155145" lon="11.881899057748806"><ele>-1.0</ele><time>2026-04-11T10:14:44Z</time></trkpt><trkpt lat="44.91187403906889" lon="11.881781633049705"><ele>-1.0</ele><time>2026-04-11T10:14:46Z</time></trkpt><trkpt lat="44.91192185730539" lon="11.881654769884472"><ele>-1.0</ele><time>2026-04-11T10:14:48Z</time></trkpt><trkpt lat="44.911971186652146" lon="11.8815277934232"><ele>-1.0</ele><time>2026-04-11T10:14:50Z</time></trkpt><trkpt lat="44.912016446794865" lon="11.881399057733649"><ele>-1.0</ele><time>2026-04-11T10:14:52Z</time></trkpt><trkpt lat="44.91206369392661" lon="11.881269007667415"><ele>-1.0</ele><time>2026-04-11T10:14:54Z</time></trkpt><trkpt lat="44.91209471207792" lon="11.881135203140612"><ele>-1.0</ele><time>2026-04-11T10:14:56Z</time></trkpt><trkpt lat="44.91213985276665" lon="11.881000528843728"><ele>-1.0</ele><time>2026-04-11T10:14:58Z</time></trkpt><trkpt lat="44.91217974839543" lon="11.880866299797397"><ele>-1.0</ele><time>2026-04-11T10:15:00Z</time></trkpt><trkpt lat="44.91221386356275" lon="11.88072891255394"><ele>-1.0</ele><time>2026-04-11T10:15:02Z</time></trkpt><trkpt lat="44.91225607857132" lon="11.880595190258983"><ele>-1.0</ele><time>2026-04-11T10:15:04Z</time></trkpt><trkpt lat="44.91229008394583" lon="11.880460496729707"><ele>-1.0</ele><time>2026-04-11T10:15:06Z</time></trkpt><trkpt lat="44.91232799778791" lon="11.880323141845254"><ele>-1.0</ele><time>2026-04-11T10:15:08Z</time></trkpt><trkpt lat="44.91236489039983" lon="11.880187902415342"><ele>-1.0</ele><time>2026-04-11T10:15:10Z</time></trkpt><trkpt lat="44.91239616162547" lon="11.880052772352158"><ele>-1.0</ele><time>2026-04-11T10:15:12Z</time></trkpt><trkpt lat="44.912429671595504" lon="11.879909880027384"><ele>-1.0</ele><time>2026-04-11T10:15:14Z</time></trkpt><trkpt lat="44.912454518821335" lon="11.879772357305809"><ele>-1.0</ele><time>2026-04-11T10:15:16Z</time></trkpt><trkpt lat="44.91247448807185" lon="11.879631889032613"><ele>-1.0</ele><time>2026-04-11T10:15:18Z</time></trkpt><trkpt lat="44.91248972633281" lon="11.879486530320847"><ele>-1.0</ele><time>2026-04-11T10:15:20Z</time></trkpt><trkpt lat="44.91249353702867" lon="11.87934233573695"><ele>-1.0</ele><time>2026-04-11T10:15:22Z</time></trkpt><trkpt lat="44.91248832425072" lon="11.879200035268276"><ele>-1.0</ele><time>2026-04-11T10:15:24Z</time></trkpt><trkpt lat="44.91246804746722" lon="11.879060425652815"><ele>-1.0</ele><time>2026-04-11T10:15:26Z</time></trkpt><trkpt lat="44.91244260061094" lon="11.87891803509356"><ele>-1.0</ele><time>2026-04-11T10:15:28Z</time></trkpt><trkpt lat="44.91240356463319" lon="11.878791692984352"><ele>-1.0</ele><time>2026-04-11T10:15:30Z</time></trkpt><trkpt lat="44.912360838738984" lon="11.878664718260799"><ele>-1.0</ele><time>2026-04-11T10:15:32Z</time></trkpt><trkpt lat="44.91231048307433" lon="11.878543742898076"><ele>-1.0</ele><time>2026-04-11T10:15:34Z</time></trkpt><trkpt lat="44.912265862804965" lon="11.878422162188315"><ele>-1.0</ele><time>2026-04-11T10:15:36Z</time></trkpt><trkpt lat="44.912224148239304" lon="11.878295556358477"><ele>-0.8333333333333333</ele><time>2026-04-11T10:15:38Z</time></trkpt><trkpt lat="44.91219285865988" lon="11.878163236019523"><ele>-0.6666666666666666</ele><time>2026-04-11T10:15:40Z</time></trkpt><trkpt lat="44.9121799378652" lon="11.878038079706728"><ele>-0.5</ele><time>2026-04-11T10:15:42Z</time></trkpt><trkpt lat="44.91217878652639" lon="11.877910279860636"><ele>-0.3333333333333333</ele><time>2026-04-11T10:15:44Z</time></trkpt><trkpt lat="44.91218076533744" lon="11.877797769148986"><ele>-0.16666666666666666</ele><time>2026-04-11T10:15:46Z</time></trkpt><trkpt lat="44.91218253105929" lon="11.877694170352806"><ele>0.0</ele><time>2026-04-11T10:15:48Z</time></trkpt><trkpt lat="44.912184298510304" lon="11.877594220000546"><ele>0.0</ele><time>2026-04-11T10:15:50Z</time></trkpt><trkpt lat="44.912184136333856" lon="11.877486477013722"><ele>0.0</ele><time>2026-04-11T10:15:52Z</time></trkpt><trkpt lat="44.91218286326381" lon="11.87735334240113"><ele>0.0</ele><time>2026-04-11T10:15:54Z</time></trkpt><trkpt lat="44.91217817348401" lon="11.877236895119239"><ele>0.0</ele><time>2026-04-11T10:15:56Z</time></trkpt><trkpt lat="44.912175594047305" lon="11.877119262528144"><ele>0.0</ele><time>2026-04-11T10:15:58Z</time></trkpt><trkpt lat="44.91217028016367" lon="11.876990297286852"><ele>0.0</ele><time>2026-04-11T10:16:00Z</time></trkpt><trkpt lat="44.91216593430458" lon="11.876857297769487"><ele>0.2</ele><time>2026-04-11T10:16:02Z</time></trkpt><trkpt lat="44.91215467806911" lon="11.876727910690708"><ele>0.4</ele><time>2026-04-11T10:16:04Z</time></trkpt><trkpt lat="44.912144709303895" lon="11.876605144776045"><ele>0.6000000000000001</ele><time>2026-04-11T10:16:06Z</time></trkpt><trkpt lat="44.91212972957517" lon="11.876474483931103"><ele>0.8</ele><time>2026-04-11T10:16:08Z</time></trkpt><trkpt lat="44.912114533487205" lon="11.876339920349595"><ele>1.0</ele><time>2026-04-11T10:16:10Z</time></trkpt><trkpt lat="44.91209462885608" lon="11.876198998606116"><ele>1.0</ele><time>2026-04-11T10:16:12Z</time></trkpt><trkpt lat="44.91207763997703" lon="11.876059494719096"><ele>1.0</ele><time>2026-04-11T10:16:14Z</time></trkpt><trkpt lat="44.91206528210176" lon="11.875921150722666"><ele>1.0</ele><time>2026-04-11T10:16:16Z</time></trkpt><trkpt lat="44.91206405771454" lon="11.87578300810852"><ele>1.0</ele><time>2026-04-11T10:16:18Z</time></trkpt><trkpt lat="44.912083890469255" lon="11.875654870120886"><ele>1.0</ele><time>2026-04-11T10:16:20Z</time></trkpt><trkpt lat="44.912122649447056" lon="11.87553896886047"><ele>0.8</ele><time>2026-04-11T10:16:22Z</time></trkpt><trkpt lat="44.91216745260566" lon="11.875416755118385"><ele>0.6000000000000001</ele><time>2026-04-11T10:16:24Z</time></trkpt><trkpt lat="44.91221679786545" lon="11.875299297163593"><ele>0.4</ele><time>2026-04-11T10:16:26Z</time></trkpt><trkpt lat="44.912268590508376" lon="11.875185300873394"><ele>0.2</ele><time>2026-04-11T10:16:28Z</time></trkpt><trkpt lat="44.912327113112646" lon="11.875069660817056"><ele>0.0</ele><time>2026-04-11T10:16:30Z</time></trkpt><trkpt lat="44.91238704145567" lon="11.874963467870828"><ele>0.0</ele><time>2026-04-11T10:16:32Z</time></trkpt><trkpt lat="44.91245205164665" lon="11.87485482395866"><ele>0.0</ele><time>2026-04-11T10:16:34Z</time></trkpt><trkpt lat="44.912519788800786" lon="11.874750549989603"><ele>0.0</ele><time>2026-04-11T10:16:36Z</time></trkpt><trkpt lat="44.91259109416763" lon="11.874651949538881"><ele>0.0</ele><time>2026-04-11T10:16:38Z</time></trkpt><trkpt lat="44.91266121322298" lon="11.874562985009224"><ele>0.0</ele><time>2026-04-11T10:16:40Z</time></trkpt><trkpt lat="44.91273727911719" lon="11.874472693143721"><ele>0.0</ele><time>2026-04-11T10:16:42Z</time></trkpt><trkpt lat="44.912811042140035" lon="11.874386882279824"><ele>0.0</ele><time>2026-04-11T10:16:44Z</time></trkpt><trkpt lat="44.912885196113336" lon="11.874301091297777"><ele>0.0</ele><time>2026-04-11T10:16:46Z</time></trkpt><trkpt lat="44.912959508802246" lon="11.874216537026552"><ele>0.0</ele><time>2026-04-11T10:16:48Z</time></trkpt><trkpt lat="44.91303546463574" lon="11.874131892127227"><ele>0.0</ele><time>2026-04-11T10:16:50Z</time></trkpt><trkpt lat="44.91311192475302" lon="11.874045016984608"><ele>0.0</ele><time>2026-04-11T10:16:52Z</time></trkpt><trkpt lat="44.91318674235324" lon="11.873954789308373"><ele>0.0</ele><time>2026-04-11T10:16:54Z</time></trkpt><trkpt lat="44.91326289198503" lon="11.873866888807218"><ele>0.0</ele><time>2026-04-11T10:16:56Z</time></trkpt><trkpt lat="44.91333837577082" lon="11.873780567303065"><ele>0.0</ele><time>2026-04-11T10:16:58Z</time></trkpt><trkpt lat="44.913412977084576" lon="11.873685985896316"><ele>0.0</ele><time>2026-04-11T10:17:00Z</time></trkpt><trkpt lat="44.91348675063536" lon="11.873596028633337"><ele>0.2</ele><time>2026-04-11T10:17:02Z</time></trkpt><trkpt lat="44.91356152862933" lon="11.873500707125839"><ele>0.4</ele><time>2026-04-11T10:17:04Z</time></trkpt><trkpt lat="44.91362946117669" lon="11.873406572649355"><ele>0.6000000000000001</ele><time>2026-04-11T10:17:06Z</time></trkpt><trkpt lat="44.91369281055957" lon="11.873305796916261"><ele>0.8</ele><time>2026-04-11T10:17:08Z</time></trkpt><trkpt lat="44.913746881096486" lon="11.873197197520028"><ele>1.0</ele><time>2026-04-11T10:17:10Z</time></trkpt><trkpt lat="44.91380406438053" lon="11.873085310252817"><ele>1.4</ele><time>2026-04-11T10:17:12Z</time></trkpt><trkpt lat="44.91386084229684" lon="11.87297148629592"><ele>1.8</ele><time>2026-04-11T10:17:14Z</time></trkpt><trkpt lat="44.913912962881724" lon="11.872858259516615"><ele>2.1999999999999997</ele><time>2026-04-11T10:17:16Z</time></trkpt><trkpt lat="44.91395832582656" lon="11.872739427354304"><ele>2.6</ele><time>2026-04-11T10:17:18Z</time></trkpt><trkpt lat="44.91401667875709" lon="11.8726206157577"><ele>3.0</ele><time>2026-04-11T10:17:20Z</time></trkpt><trkpt lat="44.91406883114761" lon="11.87249991779968"><ele>3.0</ele><time>2026-04-11T10:17:22Z</time></trkpt><trkpt lat="44.91411806697353" lon="11.872383837873793"><ele>3.0</ele><time>2026-04-11T10:17:24Z</time></trkpt><trkpt lat="44.91416034184892" lon="11.87227106018299"><ele>3.0</ele><time>2026-04-11T10:17:26Z</time></trkpt><trkpt lat="44.91420812922597" lon="11.872167784845995"><ele>3.0</ele><time>2026-04-11T10:17:28Z</time></trkpt><trkpt lat="44.91424953929434" lon="11.87205772390951"><ele>3.0</ele><time>2026-04-11T10:17:30Z</time></trkpt><trkpt lat="44.91429309973623" lon="11.8719579713872"><ele>3.0</ele><time>2026-04-11T10:17:32Z</time></trkpt><trkpt lat="44.91434160771319" lon="11.871868491259224"><ele>3.0</ele><time>2026-04-11T10:17:34Z</time></trkpt><trkpt lat="44.9143956062581" lon="11.871786597221613"><ele>3.0</ele><time>2026-04-11T10:17:36Z</time></trkpt><trkpt lat="44.91446083563585" lon="11.871687266179556"><ele>3.0</ele><time>2026-04-11T10:17:38Z</time></trkpt><trkpt lat="44.914530526699835" lon="11.871598589910711"><ele>3.0</ele><time>2026-04-11T10:17:40Z</time></trkpt><trkpt lat="44.91459741550831" lon="11.871502346431534"><ele>3.0</ele><time>2026-04-11T10:17:42Z</time></trkpt><trkpt lat="44.91466492453313" lon="11.87142016228654"><ele>3.0</ele><time>2026-04-11T10:17:44Z</time></trkpt><trkpt lat="44.914730394355296" lon="11.871343511125527"><ele>3.0</ele><time>2026-04-11T10:17:46Z</time></trkpt><trkpt lat="44.91480207547829" lon="11.871269905428003"><ele>3.0</ele><time>2026-04-11T10:17:48Z</time></trkpt><trkpt lat="44.91488582678661" lon="11.871189579646925"><ele>3.0</ele><time>2026-04-11T10:17:50Z</time></trkpt><trkpt lat="44.91497053642458" lon="11.871124570077003"><ele>3.0</ele><time>2026-04-11T10:17:52Z</time></trkpt><trkpt lat="44.91505512447294" lon="11.871059230642201"><ele>2.6666666666666665</ele><time>2026-04-11T10:17:54Z</time></trkpt><trkpt lat="44.91514384740892" lon="11.87100611890019"><ele>2.3333333333333335</ele><time>2026-04-11T10:17:56Z</time></trkpt><trkpt lat="44.91522227389193" lon="11.870941650263449"><ele>2.0</ele><time>2026-04-11T10:17:58Z</time></trkpt><trkpt lat="44.91530216130036" lon="11.870902699270326"><ele>1.6666666666666665</ele><time>2026-04-11T10:18:00Z</time></trkpt><trkpt lat="44.91537620924161" lon="11.870860884591057"><ele>1.3333333333333333</ele><time>2026-04-11T10:18:02Z</time></trkpt><trkpt lat="44.91545871446435" lon="11.870803768720831"><ele>1.0</ele><time>2026-04-11T10:18:04Z</time></trkpt><trkpt lat="44.915538521600496" lon="11.870751322905818"><ele>1.0</ele><time>2026-04-11T10:18:06Z</time></trkpt><trkpt lat="44.91561568009337" lon="11.870705582274491"><ele>0.9999999999999999</ele><time>2026-04-11T10:18:08Z</time></trkpt><trkpt lat="44.91568576549677" lon="11.870658982185988"><ele>1.0</ele><time>2026-04-11T10:18:10Z</time></trkpt><trkpt lat="44.91574834268449" lon="11.870616682610837"><ele>1.0</ele><time>2026-04-11T10:18:12Z</time></trkpt><trkpt lat="44.91580717374278" lon="11.870567222408893"><ele>0.9999999999999999</ele><time>2026-04-11T10:18:14Z</time></trkpt><trkpt lat="44.9158656016515" lon="11.87051746312397"><ele>1.0</ele><time>2026-04-11T10:18:16Z</time></trkpt><trkpt lat="44.91592704519167" lon="11.87044750251993"><ele>1.0</ele><time>2026-04-11T10:18:18Z</time></trkpt><trkpt lat="44.915990986557205" lon="11.870367165920438"><ele>1.1666666666666665</ele><time>2026-04-11T10:18:20Z</time></trkpt><trkpt lat="44.9160458681994" lon="11.87029070249328"><ele>1.3333333333333333</ele><time>2026-04-11T10:18:22Z</time></trkpt><trkpt lat="44.91608945625902" lon="11.870206144183694"><ele>1.5</ele><time>2026-04-11T10:18:24Z</time></trkpt><trkpt lat="44.91614001339765" lon="11.870131232315725"><ele>1.6666666666666665</ele><time>2026-04-11T10:18:26Z</time></trkpt><trkpt lat="44.916182991006366" lon="11.87004119030949"><ele>1.8333333333333333</ele><time>2026-04-11T10:18:28Z</time></trkpt><trkpt lat="44.91623877397638" lon="11.8699564446155"><ele>2.0</ele><time>2026-04-11T10:18:30Z</time></trkpt><trkpt lat="44.916299449577835" lon="11.869853456008975"><ele>1.6666666666666665</ele><time>2026-04-11T10:18:32Z</time></trkpt><trkpt lat="44.916350107093905" lon="11.86976865252623"><ele>1.3333333333333333</ele><time>2026-04-11T10:18:34Z</time></trkpt><trkpt lat="44.91639421463112" lon="11.869682464303153"><ele>1.0</ele><time>2026-04-11T10:18:36Z</time></trkpt><trkpt lat="44.91644456911607" lon="11.86960745416999"><ele>0.6666666666666666</ele><time>2026-04-11T10:18:38Z</time></trkpt><trkpt lat="44.91648435924447" lon="11.869524055261902"><ele>0.3333333333333333</ele><time>2026-04-11T10:18:40Z</time></trkpt><trkpt lat="44.91653550606956" lon="11.869440108560656"><ele>0.0</ele><time>2026-04-11T10:18:42Z</time></trkpt><trkpt lat="44.91659901868687" lon="11.869339871400786"><ele>0.16666666666666666</ele><time>2026-04-11T10:18:44Z</time></trkpt><trkpt lat="44.916660838015154" lon="11.869231745589806"><ele>0.3333333333333333</ele><time>2026-04-11T10:18:46Z</time></trkpt><trkpt lat="44.91671670926981" lon="11.869129380502518"><ele>0.5</ele><time>2026-04-11T10:18:48Z</time></trkpt><trkpt lat="44.91677134931813" lon="11.86903133667808"><ele>0.6666666666666666</ele><time>2026-04-11T10:18:50Z</time></trkpt><trkpt lat="44.91682288690493" lon="11.868936257618817"><ele>0.8333333333333333</ele><time>2026-04-11T10:18:52Z</time></trkpt><trkpt lat="44.91687777729639" lon="11.868847113749611"><ele>1.0</ele><time>2026-04-11T10:18:55Z</time></trkpt><trkpt lat="44.91691059023661" lon="11.868764358272264"><ele>0.9999999999999999</ele><time>2026-04-11T10:18:58Z</time></trkpt><trkpt lat="44.91689864864611" lon="11.868675696728353"><ele>1.0</ele><time>2026-04-11T10:19:01Z</time></trkpt><trkpt lat="44.91692836040716" lon="11.868582150916009"><ele>1.0</ele><time>2026-04-11T10:19:04Z</time></trkpt><trkpt lat="44.916894965038765" lon="11.868454667066104"><ele>1.0</ele><time>2026-04-11T10:19:07Z</time></trkpt><trkpt lat="44.91681781431433" lon="11.868384653376186"><ele>0.9999999999999999</ele><time>2026-04-11T10:19:10Z</time></trkpt><trkpt lat="44.91674937535374" lon="11.868310820512566"><ele>1.0</ele><time>2026-04-11T10:19:12Z</time></trkpt><trkpt lat="44.916687128639595" lon="11.868245553565124"><ele>1.1666666666666665</ele><time>2026-04-11T10:19:14Z</time></trkpt><trkpt lat="44.91662937253792" lon="11.868182608740335"><ele>1.3333333333333333</ele><time>2026-04-11T10:19:16Z</time></trkpt><trkpt lat="44.91657237699656" lon="11.868113939610396"><ele>1.5</ele><time>2026-04-11T10:19:18Z</time></trkpt><trkpt lat="44.91649585824268" lon="11.868031356429112"><ele>1.6666666666666665</ele><time>2026-04-11T10:19:20Z</time></trkpt><trkpt lat="44.91643663494564" lon="11.867962016254847"><ele>1.8333333333333333</ele><time>2026-04-11T10:19:22Z</time></trkpt><trkpt lat="44.91637336701209" lon="11.867890547537593"><ele>2.0</ele><time>2026-04-11T10:19:24Z</time></trkpt><trkpt lat="44.91631392758923" lon="11.867822183761715"><ele>1.9999999999999998</ele><time>2026-04-11T10:19:26Z</time></trkpt><trkpt lat="44.916253365384904" lon="11.867749571542683"><ele>2.0</ele><time>2026-04-11T10:19:28Z</time></trkpt><trkpt lat="44.91618788827265" lon="11.86768438729763"><ele>2.0</ele><time>2026-04-11T10:19:30Z</time></trkpt><trkpt lat="44.91613068220229" lon="11.867621506916311"><ele>2.0</ele><time>2026-04-11T10:19:32Z</time></trkpt><trkpt lat="44.916066841747984" lon="11.867553084510844"><ele>1.9999999999999998</ele><time>2026-04-11T10:19:34Z</time></trkpt><trkpt lat="44.91600508192561" lon="11.86747566495767"><ele>2.0</ele><time>2026-04-11T10:19:36Z</time></trkpt><trkpt lat="44.91593910063" lon="11.867402167812289"><ele>1.9999999999999998</ele><time>2026-04-11T10:19:38Z</time></trkpt><trkpt lat="44.915871499620216" lon="11.867339345691693"><ele>2.0</ele><time>2026-04-11T10:19:41Z</time></trkpt><trkpt lat="44.915814705320926" lon="11.867261180022531"><ele>2.0</ele><time>2026-04-11T10:19:43Z</time></trkpt><trkpt lat="44.915753550238804" lon="11.867187543929917"><ele>2.0</ele><time>2026-04-11T10:19:45Z</time></trkpt><trkpt lat="44.915698855525704" lon="11.867124842884449"><ele>1.9999999999999998</ele><time>2026-04-11T10:19:47Z</time></trkpt><trkpt lat="44.91563767671348" lon="11.867051435088747"><ele>2.0</ele><time>2026-04-11T10:19:49Z</time></trkpt><trkpt lat="44.91556840632736" lon="11.866967540154764"><ele>1.9999999999999998</ele><time>2026-04-11T10:19:51Z</time></trkpt><trkpt lat="44.91550724213877" lon="11.866889237720198"><ele>2.0</ele><time>2026-04-11T10:19:53Z</time></trkpt><trkpt lat="44.91543906762864" lon="11.866812882646128"><ele>2.0</ele><time>2026-04-11T10:19:55Z</time></trkpt><trkpt lat="44.91537629080868" lon="11.86672001198258"><ele>2.0</ele><time>2026-04-11T10:19:57Z</time></trkpt><trkpt lat="44.91532187017392" lon="11.86662933244282"><ele>1.9999999999999998</ele><time>2026-04-11T10:19:59Z</time></trkpt><trkpt lat="44.91528504859752" lon="11.866532247582562"><ele>2.0</ele><time>2026-04-11T10:20:01Z</time></trkpt><trkpt lat="44.91524880245796" lon="11.866438401407702"><ele>2.0</ele><time>2026-04-11T10:20:03Z</time></trkpt><trkpt lat="44.91522258809995" lon="11.866314696779778"><ele>2.0</ele><time>2026-04-11T10:20:05Z</time></trkpt><trkpt lat="44.915202029525375" lon="11.866181609170209"><ele>2.0</ele><time>2026-04-11T10:20:07Z</time></trkpt><trkpt lat="44.91519604413518" lon="11.866041197235864"><ele>2.0</ele><time>2026-04-11T10:20:09Z</time></trkpt><trkpt lat="44.91518302766847" lon="11.865899402844493"><ele>2.0</ele><time>2026-04-11T10:20:11Z</time></trkpt><trkpt lat="44.91518406179867" lon="11.865761051830852"><ele>2.2</ele><time>2026-04-11T10:20:13Z</time></trkpt><trkpt lat="44.91518968190677" lon="11.865633293236126"><ele>2.4000000000000004</ele><time>2026-04-11T10:20:15Z</time></trkpt><trkpt lat="44.91519698900715" lon="11.865508258244583"><ele>2.5999999999999996</ele><time>2026-04-11T10:20:17Z</time></trkpt><trkpt lat="44.915211231201006" lon="11.865385831586456"><ele>2.8</ele><time>2026-04-11T10:20:19Z</time></trkpt><trkpt lat="44.91522106403695" lon="11.86526135759013"><ele>3.0</ele><time>2026-04-11T10:20:21Z</time></trkpt><trkpt lat="44.91522847424627" lon="11.865125680069262"><ele>2.8</ele><time>2026-04-11T10:20:23Z</time></trkpt><trkpt lat="44.91523652329724" lon="11.864989866965264"><ele>2.5999999999999996</ele><time>2026-04-11T10:20:25Z</time></trkpt><trkpt lat="44.91524437790066" lon="11.864855245833288"><ele>2.4000000000000004</ele><time>2026-04-11T10:20:27Z</time></trkpt><trkpt lat="44.91525325379604" lon="11.864724483132752"><ele>2.2</ele><time>2026-04-11T10:20:29Z</time></trkpt><trkpt lat="44.91526071890325" lon="11.864603897237277"><ele>2.0</ele><time>2026-04-11T10:20:31Z</time></trkpt><trkpt lat="44.915272451243624" lon="11.864481492899271"><ele>1.9999999999999998</ele><time>2026-04-11T10:20:33Z</time></trkpt><trkpt lat="44.91528557994504" lon="11.864372589036803"><ele>2.0</ele><time>2026-04-11T10:20:35Z</time></trkpt><trkpt lat="44.91528477111504" lon="11.864271260247897"><ele>2.0</ele><time>2026-04-11T10:20:37Z</time></trkpt><trkpt lat="44.915288482353596" lon="11.864176233292296"><ele>2.0</ele><time>2026-04-11T10:20:39Z</time></trkpt><trkpt lat="44.91530698745924" lon="11.864068226283836"><ele>1.9999999999999998</ele><time>2026-04-11T10:20:41Z</time></trkpt><trkpt lat="44.915325026252994" lon="11.863951407059284"><ele>2.0</ele><time>2026-04-11T10:20:43Z</time></trkpt><trkpt lat="44.91532795663796" lon="11.863839214653474"><ele>1.8333333333333333</ele><time>2026-04-11T10:20:45Z</time></trkpt><trkpt lat="44.91534220183924" lon="11.863733845253638"><ele>1.6666666666666665</ele><time>2026-04-11T10:20:47Z</time></trkpt><trkpt lat="44.91535374991714" lon="11.863633459483168"><ele>1.5</ele><time>2026-04-11T10:20:49Z</time></trkpt><trkpt lat="44.915356645612555" lon="11.863533298108516"><ele>1.3333333333333333</ele><time>2026-04-11T10:20:51Z</time></trkpt><trkpt lat="44.91536041437205" lon="11.863407348028513"><ele>1.1666666666666665</ele><time>2026-04-11T10:20:53Z</time></trkpt><trkpt lat="44.91535308496637" lon="11.863292312366504"><ele>1.0</ele><time>2026-04-11T10:20:55Z</time></trkpt><trkpt lat="44.9153574997301" lon="11.863182844192373"><ele>0.7142857142857142</ele><time>2026-04-11T10:20:57Z</time></trkpt><trkpt lat="44.91534545071854" lon="11.863083349747203"><ele>0.4285714285714285</ele><time>2026-04-11T10:20:59Z</time></trkpt><trkpt lat="44.91531812754903" lon="11.862984755257674"><ele>0.14285714285714285</ele><time>2026-04-11T10:21:01Z</time></trkpt><trkpt lat="44.915289279603655" lon="11.862891041926828"><ele>-0.14285714285714285</ele><time>2026-04-11T10:21:03Z</time></trkpt><trkpt lat="44.91526517754228" lon="11.86278915485267"><ele>-0.4285714285714285</ele><time>2026-04-11T10:21:05Z</time></trkpt><trkpt lat="44.915255127078" lon="11.862693732180343"><ele>-0.7142857142857142</ele><time>2026-04-11T10:21:07Z</time></trkpt><trkpt lat="44.91522038755507" lon="11.862612473752444"><ele>-1.0</ele><time>2026-04-11T10:21:09Z</time></trkpt><trkpt lat="44.915182793829665" lon="11.862497789726262"><ele>-0.9999999999999999</ele><time>2026-04-11T10:21:11Z</time></trkpt><trkpt lat="44.91513874090028" lon="11.862376476128862"><ele>-1.0</ele><time>2026-04-11T10:21:13Z</time></trkpt><trkpt lat="44.91509308628795" lon="11.862275869930786"><ele>-1.0</ele><time>2026-04-11T10:21:15Z</time></trkpt><trkpt lat="44.91504973015903" lon="11.862171819690735"><ele>-1.0</ele><time>2026-04-11T10:21:17Z</time></trkpt><trkpt lat="44.91501775781766" lon="11.86206827604749"><ele>-0.9999999999999999</ele><time>2026-04-11T10:21:19Z</time></trkpt><trkpt lat="44.914965968877496" lon="11.861981198218057"><ele>-1.0</ele><time>2026-04-11T10:21:21Z</time></trkpt><trkpt lat="44.914903043998095" lon="11.86189792168243"><ele>-0.6666666666666666</ele><time>2026-04-11T10:21:23Z</time></trkpt><trkpt lat="44.914847489628144" lon="11.86180083933829"><ele>-0.3333333333333333</ele><time>2026-04-11T10:21:25Z</time></trkpt><trkpt lat="44.914783241925804" lon="11.861718961218376"><ele>0.0</ele><time>2026-04-11T10:21:27Z</time></trkpt><trkpt lat="44.91474429346193" lon="11.861611136722711"><ele>0.3333333333333333</ele><time>2026-04-11T10:21:29Z</time></trkpt><trkpt lat="44.91469967165295" lon="11.861524088852084"><ele>0.6666666666666666</ele><time>2026-04-11T10:21:31Z</time></trkpt><trkpt lat="44.91464809948115" lon="11.861454234187496"><ele>1.0</ele><time>2026-04-11T10:21:33Z</time></trkpt><trkpt lat="44.91460277457909" lon="11.861384931734646"><ele>0.9999999999999999</ele><time>2026-04-11T10:21:35Z</time></trkpt><trkpt lat="44.914546265217965" lon="11.861332156315697"><ele>1.0</ele><time>2026-04-11T10:21:37Z</time></trkpt><trkpt lat="44.914504914280734" lon="11.86125183203495"><ele>1.0</ele><time>2026-04-11T10:21:39Z</time></trkpt><trkpt lat="44.9144865656862" lon="11.861114755253178"><ele>1.0</ele><time>2026-04-11T10:21:42Z</time></trkpt><trkpt lat="44.91441106314009" lon="11.861025980732872"><ele>0.9999999999999999</ele><time>2026-04-11T10:21:44Z</time></trkpt><trkpt lat="44.91434726936859" lon="11.86094159842851"><ele>1.0</ele><time>2026-04-11T10:21:46Z</time></trkpt><trkpt lat="44.91428263944119" lon="11.860849068276737"><ele>1.2000000000000002</ele><time>2026-04-11T10:21:48Z</time></trkpt><trkpt lat="44.91421214894342" lon="11.86075290237549"><ele>1.4000000000000001</ele><time>2026-04-11T10:21:50Z</time></trkpt><trkpt lat="44.914145958546825" lon="11.860657884680641"><ele>1.6</ele><time>2026-04-11T10:21:52Z</time></trkpt><trkpt lat="44.914080407467694" lon="11.860563332924897"><ele>1.8</ele><time>2026-04-11T10:21:54Z</time></trkpt><trkpt lat="44.91401137791846" lon="11.860467858219689"><ele>2.0</ele><time>2026-04-11T10:21:56Z</time></trkpt><trkpt lat="44.91394092292034" lon="11.860365193802243"><ele>2.0</ele><time>2026-04-11T10:21:58Z</time></trkpt><trkpt lat="44.91387593591979" lon="11.860273501886924"><ele>2.0</ele><time>2026-04-11T10:22:00Z</time></trkpt><trkpt lat="44.91380885789469" lon="11.860177737952856"><ele>2.0</ele><time>2026-04-11T10:22:02Z</time></trkpt><trkpt lat="44.91373742150724" lon="11.860081805767944"><ele>2.0</ele><time>2026-04-11T10:22:04Z</time></trkpt><trkpt lat="44.913672642815854" lon="11.85998736535527"><ele>2.0</ele><time>2026-04-11T10:22:06Z</time></trkpt><trkpt lat="44.91360194452831" lon="11.859888071926067"><ele>2.0</ele><time>2026-04-11T10:22:08Z</time></trkpt><trkpt lat="44.913532106859634" lon="11.859789995494353"><ele>2.0</ele><time>2026-04-11T10:22:10Z</time></trkpt><trkpt lat="44.913460639897615" lon="11.859692119355767"><ele>2.0</ele><time>2026-04-11T10:22:12Z</time></trkpt><trkpt lat="44.9133912503871" lon="11.859595059555476"><ele>2.0</ele><time>2026-04-11T10:22:14Z</time></trkpt><trkpt lat="44.91332245369905" lon="11.859498989224901"><ele>2.0</ele><time>2026-04-11T10:22:16Z</time></trkpt><trkpt lat="44.913252283547955" lon="11.859400517651775"><ele>2.0</ele><time>2026-04-11T10:22:18Z</time></trkpt><trkpt lat="44.913178927841635" lon="11.859304224877606"><ele>2.0</ele><time>2026-04-11T10:22:20Z</time></trkpt><trkpt lat="44.9131093831399" lon="11.859204909589932"><ele>2.0</ele><time>2026-04-11T10:22:22Z</time></trkpt><trkpt lat="44.913038652029066" lon="11.859108028659907"><ele>2.0</ele><time>2026-04-11T10:22:24Z</time></trkpt><trkpt lat="44.91296984761793" lon="11.859005941425979"><ele>2.0</ele><time>2026-04-11T10:22:26Z</time></trkpt><trkpt lat="44.91289941250558" lon="11.85891349064964"><ele>2.0</ele><time>2026-04-11T10:22:28Z</time></trkpt><trkpt lat="44.91283406695917" lon="11.85881502328028"><ele>2.0</ele><time>2026-04-11T10:22:30Z</time></trkpt><trkpt lat="44.91276339846018" lon="11.85871610490325"><ele>2.0</ele><time>2026-04-11T10:22:32Z</time></trkpt><trkpt lat="44.9126913525914" lon="11.858621636744665"><ele>2.0</ele><time>2026-04-11T10:22:34Z</time></trkpt><trkpt lat="44.912621298878776" lon="11.85852310414756"><ele>2.0</ele><time>2026-04-11T10:22:36Z</time></trkpt><trkpt lat="44.91255692294182" lon="11.858422527677602"><ele>2.0</ele><time>2026-04-11T10:22:38Z</time></trkpt><trkpt lat="44.91248553673006" lon="11.858323555764304"><ele>2.0</ele><time>2026-04-11T10:22:40Z</time></trkpt><trkpt lat="44.9124182331937" lon="11.858221442431786"><ele>2.0</ele><time>2026-04-11T10:22:42Z</time></trkpt><trkpt lat="44.91235262350662" lon="11.858116290789603"><ele>2.0</ele><time>2026-04-11T10:22:44Z</time></trkpt><trkpt lat="44.91228721957744" lon="11.858009720034662"><ele>2.0</ele><time>2026-04-11T10:22:46Z</time></trkpt><trkpt lat="44.912225084956994" lon="11.857905796367959"><ele>2.0</ele><time>2026-04-11T10:22:48Z</time></trkpt><trkpt lat="44.91216277375383" lon="11.85779960962768"><ele>2.0</ele><time>2026-04-11T10:22:50Z</time></trkpt><trkpt lat="44.91210188278885" lon="11.85768895749463"><ele>2.0</ele><time>2026-04-11T10:22:52Z</time></trkpt><trkpt lat="44.91203905071768" lon="11.857579437018776"><ele>2.0</ele><time>2026-04-11T10:22:54Z</time></trkpt><trkpt lat="44.91197522610703" lon="11.857475339921757"><ele>2.0</ele><time>2026-04-11T10:22:56Z</time></trkpt><trkpt lat="44.911917073616316" lon="11.857366060588275"><ele>2.0</ele><time>2026-04-11T10:22:58Z</time></trkpt><trkpt lat="44.91185592636425" lon="11.857258016154605"><ele>2.0</ele><time>2026-04-11T10:23:00Z</time></trkpt><trkpt lat="44.91179746196756" lon="11.857140824825924"><ele>2.0</ele><time>2026-04-11T10:23:02Z</time></trkpt><trkpt lat="44.911734004626105" lon="11.857030165327323"><ele>2.0</ele><time>2026-04-11T10:23:04Z</time></trkpt><trkpt lat="44.91167910681995" lon="11.85692042492464"><ele>2.0</ele><time>2026-04-11T10:23:06Z</time></trkpt><trkpt lat="44.91162320181576" lon="11.85680527424394"><ele>2.0</ele><time>2026-04-11T10:23:08Z</time></trkpt><trkpt lat="44.91157202719914" lon="11.856688470373392"><ele>2.0</ele><time>2026-04-11T10:23:10Z</time></trkpt><trkpt lat="44.91152319075434" lon="11.856564645944902"><ele>2.0</ele><time>2026-04-11T10:23:12Z</time></trkpt><trkpt lat="44.91148030853534" lon="11.856441422773708"><ele>2.0</ele><time>2026-04-11T10:23:14Z</time></trkpt><trkpt lat="44.91143547279123" lon="11.856319129871665"><ele>2.0</ele><time>2026-04-11T10:23:16Z</time></trkpt><trkpt lat="44.91139710539466" lon="11.856191258666176"><ele>2.0</ele><time>2026-04-11T10:23:18Z</time></trkpt><trkpt lat="44.91136225957471" lon="11.856061135877823"><ele>2.0</ele><time>2026-04-11T10:23:20Z</time></trkpt><trkpt lat="44.911325617300754" lon="11.855933685876836"><ele>2.0</ele><time>2026-04-11T10:23:22Z</time></trkpt><trkpt lat="44.91129698090944" lon="11.855801179286791"><ele>2.0</ele><time>2026-04-11T10:23:24Z</time></trkpt><trkpt lat="44.91126047865969" lon="11.855670598649617"><ele>2.0</ele><time>2026-04-11T10:23:26Z</time></trkpt><trkpt lat="44.91122680809341" lon="11.855536485112289"><ele>2.2</ele><time>2026-04-11T10:23:28Z</time></trkpt><trkpt lat="44.91119295271149" lon="11.855404483157235"><ele>2.4000000000000004</ele><time>2026-04-11T10:23:30Z</time></trkpt><trkpt lat="44.91115587720378" lon="11.855277163382953"><ele>2.5999999999999996</ele><time>2026-04-11T10:23:32Z</time></trkpt><trkpt lat="44.911114091528034" lon="11.855148188002373"><ele>2.8</ele><time>2026-04-11T10:23:34Z</time></trkpt><trkpt lat="44.9110621902978" lon="11.855027846587028"><ele>3.0</ele><time>2026-04-11T10:23:36Z</time></trkpt><trkpt lat="44.91100850155829" lon="11.854914557095418"><ele>2.6</ele><time>2026-04-11T10:23:38Z</time></trkpt><trkpt lat="44.91094938864128" lon="11.854803874416739"><ele>2.1999999999999997</ele><time>2026-04-11T10:23:40Z</time></trkpt><trkpt lat="44.910885937156756" lon="11.854694516936197"><ele>1.8</ele><time>2026-04-11T10:23:42Z</time></trkpt><trkpt lat="44.91081703756763" lon="11.854597663736417"><ele>1.4</ele><time>2026-04-11T10:23:44Z</time></trkpt><trkpt lat="44.910744799658886" lon="11.854503654562706"><ele>1.0</ele><time>2026-04-11T10:23:46Z</time></trkpt><trkpt lat="44.910672597816614" lon="11.854416910396036"><ele>1.0</ele><time>2026-04-11T10:23:48Z</time></trkpt><trkpt lat="44.910596470547496" lon="11.854327070581144"><ele>1.0</ele><time>2026-04-11T10:23:50Z</time></trkpt><trkpt lat="44.910521606801254" lon="11.854238240576416"><ele>1.0</ele><time>2026-04-11T10:23:52Z</time></trkpt><trkpt lat="44.910446873872154" lon="11.854150124179947"><ele>1.0</ele><time>2026-04-11T10:23:54Z</time></trkpt><trkpt lat="44.9103733936922" lon="11.85405746350771"><ele>1.0</ele><time>2026-04-11T10:23:56Z</time></trkpt><trkpt lat="44.91029713151023" lon="11.853967979533119"><ele>1.0</ele><time>2026-04-11T10:23:58Z</time></trkpt><trkpt lat="44.910221599363894" lon="11.853877729315828"><ele>1.0</ele><time>2026-04-11T10:24:00Z</time></trkpt><trkpt lat="44.91014884088406" lon="11.853784743157643"><ele>1.0</ele><time>2026-04-11T10:24:02Z</time></trkpt><trkpt lat="44.910074870057755" lon="11.853694941867944"><ele>1.0</ele><time>2026-04-11T10:24:04Z</time></trkpt><trkpt lat="44.90999519628441" lon="11.853605757760418"><ele>1.0</ele><time>2026-04-11T10:24:06Z</time></trkpt><trkpt lat="44.909921978594" lon="11.853516552343775"><ele>1.2000000000000002</ele><time>2026-04-11T10:24:08Z</time></trkpt><trkpt lat="44.909847195098656" lon="11.853426538403342"><ele>1.4000000000000001</ele><time>2026-04-11T10:24:10Z</time></trkpt><trkpt lat="44.90977347910442" lon="11.853337327854534"><ele>1.6</ele><time>2026-04-11T10:24:12Z</time></trkpt><trkpt lat="44.90970259922856" lon="11.853244821988794"><ele>1.8</ele><time>2026-04-11T10:24:14Z</time></trkpt><trkpt lat="44.90962853184738" lon="11.853150907737575"><ele>2.0</ele><time>2026-04-11T10:24:16Z</time></trkpt><trkpt lat="44.90956493905377" lon="11.853046781635216"><ele>2.0</ele><time>2026-04-11T10:24:18Z</time></trkpt><trkpt lat="44.90950011339435" lon="11.85294424377556"><ele>2.0</ele><time>2026-04-11T10:24:20Z</time></trkpt><trkpt lat="44.909442549523156" lon="11.852832346274583"><ele>2.0</ele><time>2026-04-11T10:24:22Z</time></trkpt><trkpt lat="44.90939398410936" lon="11.85271018803671"><ele>2.0</ele><time>2026-04-11T10:24:24Z</time></trkpt><trkpt lat="44.909349431438265" lon="11.852589408663722"><ele>2.0</ele><time>2026-04-11T10:24:26Z</time></trkpt><trkpt lat="44.90931450403425" lon="11.852462418948381"><ele>2.0</ele><time>2026-04-11T10:24:28Z</time></trkpt><trkpt lat="44.90927908277565" lon="11.852334341874219"><ele>2.0</ele><time>2026-04-11T10:24:30Z</time></trkpt><trkpt lat="44.90924700996545" lon="11.8521999485764"><ele>2.0</ele><time>2026-04-11T10:24:32Z</time></trkpt><trkpt lat="44.90921907019824" lon="11.852072312723523"><ele>2.0</ele><time>2026-04-11T10:24:34Z</time></trkpt><trkpt lat="44.90919094259806" lon="11.851942603423769"><ele>2.0</ele><time>2026-04-11T10:24:36Z</time></trkpt><trkpt lat="44.90916614728687" lon="11.851809113705967"><ele>2.2</ele><time>2026-04-11T10:24:38Z</time></trkpt><trkpt lat="44.909140237281996" lon="11.851674420814955"><ele>2.4000000000000004</ele><time>2026-04-11T10:24:40Z</time></trkpt><trkpt lat="44.909115804920305" lon="11.851538371598753"><ele>2.5999999999999996</ele><time>2026-04-11T10:24:42Z</time></trkpt><trkpt lat="44.909094504619695" lon="11.851403127442962"><ele>2.8</ele><time>2026-04-11T10:24:44Z</time></trkpt><trkpt lat="44.90907410918462" lon="11.851267290470842"><ele>3.0</ele><time>2026-04-11T10:24:46Z</time></trkpt><trkpt lat="44.90905463299998" lon="11.851130532657542"><ele>3.0</ele><time>2026-04-11T10:24:48Z</time></trkpt><trkpt lat="44.90903698946557" lon="11.851000775306265"><ele>3.0</ele><time>2026-04-11T10:24:50Z</time></trkpt><trkpt lat="44.909019321565864" lon="11.85086170320173"><ele>3.0</ele><time>2026-04-11T10:24:52Z</time></trkpt><trkpt lat="44.90900348525722" lon="11.850725246866354"><ele>3.0</ele><time>2026-04-11T10:24:54Z</time></trkpt><trkpt lat="44.908988808777494" lon="11.850589776580575"><ele>3.0</ele><time>2026-04-11T10:24:56Z</time></trkpt><trkpt lat="44.90897838101288" lon="11.850454167651653"><ele>2.8</ele><time>2026-04-11T10:24:58Z</time></trkpt><trkpt lat="44.908963228603355" lon="11.850315945286065"><ele>2.5999999999999996</ele><time>2026-04-11T10:25:00Z</time></trkpt><trkpt lat="44.90894785335805" lon="11.850173845200409"><ele>2.4000000000000004</ele><time>2026-04-11T10:25:02Z</time></trkpt><trkpt lat="44.908932482847426" lon="11.85003473644536"><ele>2.2</ele><time>2026-04-11T10:25:04Z</time></trkpt><trkpt lat="44.90891642021514" lon="11.849893860567182"><ele>2.0</ele><time>2026-04-11T10:25:06Z</time></trkpt><trkpt lat="44.90889977291303" lon="11.84976212893364"><ele>2.0</ele><time>2026-04-11T10:25:08Z</time></trkpt><trkpt lat="44.90887900839606" lon="11.849631807572468"><ele>2.0</ele><time>2026-04-11T10:25:10Z</time></trkpt><trkpt lat="44.90886523841613" lon="11.849503014743238"><ele>2.0</ele><time>2026-04-11T10:25:12Z</time></trkpt><trkpt lat="44.90884403762443" lon="11.849380460756985"><ele>2.0</ele><time>2026-04-11T10:25:14Z</time></trkpt><trkpt lat="44.90882678714431" lon="11.849255067263666"><ele>2.0</ele><time>2026-04-11T10:25:16Z</time></trkpt><trkpt lat="44.9088048757283" lon="11.849130573060533"><ele>2.0</ele><time>2026-04-11T10:25:18Z</time></trkpt><trkpt lat="44.90878664767072" lon="11.848999323857857"><ele>2.0</ele><time>2026-04-11T10:25:20Z</time></trkpt><trkpt lat="44.9087677924274" lon="11.848864599116594"><ele>2.0</ele><time>2026-04-11T10:25:22Z</time></trkpt><trkpt lat="44.908748474911384" lon="11.848732650069065"><ele>2.0</ele><time>2026-04-11T10:25:24Z</time></trkpt><trkpt lat="44.90872900961463" lon="11.848602363129336"><ele>2.0</ele><time>2026-04-11T10:25:26Z</time></trkpt><trkpt lat="44.908706347916386" lon="11.84846447337853"><ele>1.8</ele><time>2026-04-11T10:25:28Z</time></trkpt><trkpt lat="44.90867963936237" lon="11.848335341644745"><ele>1.6</ele><time>2026-04-11T10:25:30Z</time></trkpt><trkpt lat="44.9086517934529" lon="11.848201998731803"><ele>1.4000000000000001</ele><time>2026-04-11T10:25:32Z</time></trkpt><trkpt lat="44.908619089465255" lon="11.848072201573643"><ele>1.2000000000000002</ele><time>2026-04-11T10:25:34Z</time></trkpt><trkpt lat="44.90858085658303" lon="11.847944746387892"><ele>1.0</ele><time>2026-04-11T10:25:36Z</time></trkpt><trkpt lat="44.90853968516705" lon="11.847822856842738"><ele>1.0</ele><time>2026-04-11T10:25:38Z</time></trkpt><trkpt lat="44.908494403232055" lon="11.847697880020421"><ele>1.0</ele><time>2026-04-11T10:25:40Z</time></trkpt><trkpt lat="44.90845561900837" lon="11.84757168941634"><ele>1.0</ele><time>2026-04-11T10:25:42Z</time></trkpt><trkpt lat="44.90841221804334" lon="11.847445467177103"><ele>1.0</ele><time>2026-04-11T10:25:44Z</time></trkpt><trkpt lat="44.9083624507296" lon="11.847324999695395"><ele>1.0</ele><time>2026-04-11T10:25:46Z</time></trkpt><trkpt lat="44.90831758240691" lon="11.84720190875576"><ele>1.4</ele><time>2026-04-11T10:25:48Z</time></trkpt><trkpt lat="44.90827356979079" lon="11.847078718195695"><ele>1.8</ele><time>2026-04-11T10:25:50Z</time></trkpt><trkpt lat="44.90822782050758" lon="11.846956557768456"><ele>2.1999999999999997</ele><time>2026-04-11T10:25:52Z</time></trkpt><trkpt lat="44.90818364132685" lon="11.846829330901413"><ele>2.6</ele><time>2026-04-11T10:25:54Z</time></trkpt><trkpt lat="44.908139582954895" lon="11.846705862411044"><ele>3.0</ele><time>2026-04-11T10:25:56Z</time></trkpt><trkpt lat="44.90809051717552" lon="11.846584147130724"><ele>3.0</ele><time>2026-04-11T10:25:58Z</time></trkpt><trkpt lat="44.90804731336021" lon="11.846456819970216"><ele>3.0</ele><time>2026-04-11T10:26:00Z</time></trkpt><trkpt lat="44.908003163572985" lon="11.84632868966461"><ele>3.0</ele><time>2026-04-11T10:26:02Z</time></trkpt><trkpt lat="44.90796006006111" lon="11.846198064981865"><ele>3.0</ele><time>2026-04-11T10:26:04Z</time></trkpt><trkpt lat="44.90791958099567" lon="11.846061772895448"><ele>3.0</ele><time>2026-04-11T10:26:06Z</time></trkpt><trkpt lat="44.90789453630152" lon="11.84592467701604"><ele>2.8</ele><time>2026-04-11T10:26:08Z</time></trkpt><trkpt lat="44.90786888382954" lon="11.845778767565292"><ele>2.5999999999999996</ele><time>2026-04-11T10:26:10Z</time></trkpt><trkpt lat="44.9078377565061" lon="11.845647574883271"><ele>2.4000000000000004</ele><time>2026-04-11T10:26:12Z</time></trkpt><trkpt lat="44.907816901058865" lon="11.845520235635554"><ele>2.2</ele><time>2026-04-11T10:26:14Z</time></trkpt><trkpt lat="44.907801040003505" lon="11.845390994846923"><ele>2.0</ele><time>2026-04-11T10:26:16Z</time></trkpt><trkpt lat="44.907783151482256" lon="11.845269308080065"><ele>1.9999999999999998</ele><time>2026-04-11T10:26:18Z</time></trkpt><trkpt lat="44.907765978747264" lon="11.845152603942372"><ele>2.0</ele><time>2026-04-11T10:26:20Z</time></trkpt><trkpt lat="44.90775669923336" lon="11.845032055541946"><ele>2.0</ele><time>2026-04-11T10:26:22Z</time></trkpt><trkpt lat="44.907750758799004" lon="11.844897255544364"><ele>2.0</ele><time>2026-04-11T10:26:24Z</time></trkpt><trkpt lat="44.90774213547107" lon="11.844768897284254"><ele>1.9999999999999998</ele><time>2026-04-11T10:26:26Z</time></trkpt><trkpt lat="44.90774441371223" lon="11.844647203627114"><ele>2.0</ele><time>2026-04-11T10:26:28Z</time></trkpt><trkpt lat="44.90774481817735" lon="11.844528125224823"><ele>1.857142857142857</ele><time>2026-04-11T10:26:30Z</time></trkpt><trkpt lat="44.90774795366837" lon="11.844418445924006"><ele>1.714285714285714</ele><time>2026-04-11T10:26:32Z</time></trkpt><trkpt lat="44.90774170544825" lon="11.844311130261955"><ele>1.5714285714285714</ele><time>2026-04-11T10:26:34Z</time></trkpt><trkpt lat="44.907741462376805" lon="11.844212486326134"><ele>1.4285714285714284</ele><time>2026-04-11T10:26:36Z</time></trkpt><trkpt lat="44.90774406857066" lon="11.84411819253354"><ele>1.2857142857142856</ele><time>2026-04-11T10:26:38Z</time></trkpt><trkpt lat="44.90773832187988" lon="11.844022437826228"><ele>1.1428571428571428</ele><time>2026-04-11T10:26:40Z</time></trkpt><trkpt lat="44.90773356336763" lon="11.843931410970585"><ele>1.0</ele><time>2026-04-11T10:26:42Z</time></trkpt><trkpt lat="44.90772054761878" lon="11.843843573115961"><ele>0.9999999999999999</ele><time>2026-04-11T10:26:44Z</time></trkpt><trkpt lat="44.907701954525145" lon="11.843722666804107"><ele>1.0</ele><time>2026-04-11T10:26:47Z</time></trkpt><trkpt lat="44.90767271301194" lon="11.843597474041573"><ele>1.0</ele><time>2026-04-11T10:26:50Z</time></trkpt><trkpt lat="44.90764097314462" lon="11.843509574481972"><ele>1.0</ele><time>2026-04-11T10:26:52Z</time></trkpt><trkpt lat="44.90760988611062" lon="11.843395655574502"><ele>0.9999999999999999</ele><time>2026-04-11T10:26:54Z</time></trkpt><trkpt lat="44.90756191952707" lon="11.843297855750732"><ele>1.0</ele><time>2026-04-11T10:26:56Z</time></trkpt><trkpt lat="44.90753303401624" lon="11.843199051379141"><ele>1.4</ele><time>2026-04-11T10:26:58Z</time></trkpt><trkpt lat="44.907511400048854" lon="11.843086837779714"><ele>1.8</ele><time>2026-04-11T10:27:00Z</time></trkpt><trkpt lat="44.90748049412874" lon="11.842948869712739"><ele>2.1999999999999997</ele><time>2026-04-11T10:27:02Z</time></trkpt><trkpt lat="44.90745234443152" lon="11.842826855848879"><ele>2.6</ele><time>2026-04-11T10:27:04Z</time></trkpt><trkpt lat="44.90742452486063" lon="11.842692808016997"><ele>3.0</ele><time>2026-04-11T10:27:06Z</time></trkpt><trkpt lat="44.907390143000605" lon="11.842572994067526"><ele>3.0</ele><time>2026-04-11T10:27:08Z</time></trkpt><trkpt lat="44.90735448481202" lon="11.842459271046847"><ele>3.0</ele><time>2026-04-11T10:27:10Z</time></trkpt><trkpt lat="44.9073169057371" lon="11.842317193263698"><ele>3.0</ele><time>2026-04-11T10:27:12Z</time></trkpt><trkpt lat="44.90727317222457" lon="11.842200943002835"><ele>3.0</ele><time>2026-04-11T10:27:14Z</time></trkpt><trkpt lat="44.90722574857644" lon="11.84208294748195"><ele>3.0</ele><time>2026-04-11T10:27:16Z</time></trkpt><trkpt lat="44.90718364953523" lon="11.841979019749711"><ele>3.0</ele><time>2026-04-11T10:27:18Z</time></trkpt><trkpt lat="44.9071441923757" lon="11.841860912424593"><ele>3.0</ele><time>2026-04-11T10:27:20Z</time></trkpt><trkpt lat="44.9071034297596" lon="11.841741738799875"><ele>3.0</ele><time>2026-04-11T10:27:22Z</time></trkpt><trkpt lat="44.90706403388315" lon="11.84161961105021"><ele>3.0</ele><time>2026-04-11T10:27:24Z</time></trkpt><trkpt lat="44.90701921526003" lon="11.84150932744436"><ele>3.0</ele><time>2026-04-11T10:27:26Z</time></trkpt><trkpt lat="44.90697817882399" lon="11.84139796055571"><ele>3.0</ele><time>2026-04-11T10:27:28Z</time></trkpt><trkpt lat="44.90693602061793" lon="11.84128754809514"><ele>3.0</ele><time>2026-04-11T10:27:30Z</time></trkpt><trkpt lat="44.90688027550654" lon="11.841168955577666"><ele>3.0</ele><time>2026-04-11T10:27:32Z</time></trkpt><trkpt lat="44.90682385772817" lon="11.841061610445289"><ele>3.0</ele><time>2026-04-11T10:27:34Z</time></trkpt><trkpt lat="44.906768052631314" lon="11.84094894397257"><ele>3.0</ele><time>2026-04-11T10:27:36Z</time></trkpt><trkpt lat="44.9067029084886" lon="11.840851080202146"><ele>2.8</ele><time>2026-04-11T10:27:38Z</time></trkpt><trkpt lat="44.90662993811643" lon="11.840760133623991"><ele>2.5999999999999996</ele><time>2026-04-11T10:27:40Z</time></trkpt><trkpt lat="44.906556109239844" lon="11.84067787688467"><ele>2.4000000000000004</ele><time>2026-04-11T10:27:42Z</time></trkpt><trkpt lat="44.90647899556578" lon="11.840596670039144"><ele>2.2</ele><time>2026-04-11T10:27:44Z</time></trkpt><trkpt lat="44.90639871901892" lon="11.840508919519614"><ele>2.0</ele><time>2026-04-11T10:27:46Z</time></trkpt><trkpt lat="44.90631904200901" lon="11.840429556135442"><ele>2.0</ele><time>2026-04-11T10:27:48Z</time></trkpt><trkpt lat="44.90623709613852" lon="11.840349479144304"><ele>2.0</ele><time>2026-04-11T10:27:50Z</time></trkpt><trkpt lat="44.906161567898764" lon="11.84027414736029"><ele>2.0</ele><time>2026-04-11T10:27:52Z</time></trkpt><trkpt lat="44.90607555718477" lon="11.84020380568521"><ele>2.0</ele><time>2026-04-11T10:27:54Z</time></trkpt><trkpt lat="44.90599538215524" lon="11.840131837842856"><ele>2.0</ele><time>2026-04-11T10:27:56Z</time></trkpt><trkpt lat="44.90591320829256" lon="11.840061382534127"><ele>2.0</ele><time>2026-04-11T10:27:58Z</time></trkpt><trkpt lat="44.90582594945558" lon="11.839999793950579"><ele>2.0</ele><time>2026-04-11T10:28:00Z</time></trkpt><trkpt lat="44.905741476859674" lon="11.839939574438484"><ele>2.0</ele><time>2026-04-11T10:28:02Z</time></trkpt><trkpt lat="44.90565366042807" lon="11.839877635675823"><ele>2.0</ele><time>2026-04-11T10:28:04Z</time></trkpt><trkpt lat="44.90556417001595" lon="11.839822985804004"><ele>2.0</ele><time>2026-04-11T10:28:06Z</time></trkpt><trkpt lat="44.90547115105874" lon="11.839780561438053"><ele>2.0</ele><time>2026-04-11T10:28:08Z</time></trkpt><trkpt lat="44.905376494530095" lon="11.839740382768731"><ele>2.0</ele><time>2026-04-11T10:28:10Z</time></trkpt><trkpt lat="44.90527831487501" lon="11.839712951828599"><ele>2.0</ele><time>2026-04-11T10:28:12Z</time></trkpt><trkpt lat="44.90518247878805" lon="11.839683683750012"><ele>2.0</ele><time>2026-04-11T10:28:14Z</time></trkpt><trkpt lat="44.90508436142926" lon="11.839651627982011"><ele>2.0</ele><time>2026-04-11T10:28:16Z</time></trkpt><trkpt lat="44.904987325899725" lon="11.83962783671803"><ele>1.6</ele><time>2026-04-11T10:28:18Z</time></trkpt><trkpt lat="44.90489276198711" lon="11.839595169119416"><ele>1.2000000000000002</ele><time>2026-04-11T10:28:20Z</time></trkpt><trkpt lat="44.90479835668906" lon="11.839559357117546"><ele>0.8</ele><time>2026-04-11T10:28:22Z</time></trkpt><trkpt lat="44.90470357686232" lon="11.839517846133205"><ele>0.4</ele><time>2026-04-11T10:28:24Z</time></trkpt><trkpt lat="44.90461047546546" lon="11.8394708881653"><ele>0.0</ele><time>2026-04-11T10:28:26Z</time></trkpt><trkpt lat="44.904521552920194" lon="11.839421023235381"><ele>0.0</ele><time>2026-04-11T10:28:28Z</time></trkpt><trkpt lat="44.90444306706997" lon="11.839362848487996"><ele>0.0</ele><time>2026-04-11T10:28:30Z</time></trkpt><trkpt lat="44.90434460585173" lon="11.839316083476524"><ele>0.0</ele><time>2026-04-11T10:28:32Z</time></trkpt><trkpt lat="44.90425745774049" lon="11.839254425898075"><ele>0.0</ele><time>2026-04-11T10:28:34Z</time></trkpt><trkpt lat="44.90417194652977" lon="11.83918955012636"><ele>0.0</ele><time>2026-04-11T10:28:36Z</time></trkpt><trkpt lat="44.90408920733494" lon="11.839122098035528"><ele>0.4</ele><time>2026-04-11T10:28:38Z</time></trkpt><trkpt lat="44.90400770394609" lon="11.83904805468099"><ele>0.8</ele><time>2026-04-11T10:28:40Z</time></trkpt><trkpt lat="44.90392983333615" lon="11.838971925740987"><ele>1.2000000000000002</ele><time>2026-04-11T10:28:42Z</time></trkpt><trkpt lat="44.903853651939194" lon="11.838893041007376"><ele>1.6</ele><time>2026-04-11T10:28:44Z</time></trkpt><trkpt lat="44.90377667176367" lon="11.838812396961883"><ele>2.0</ele><time>2026-04-11T10:28:46Z</time></trkpt><trkpt lat="44.90369955074503" lon="11.838733637443317"><ele>2.0</ele><time>2026-04-11T10:28:48Z</time></trkpt><trkpt lat="44.90362215375979" lon="11.838656790422515"><ele>2.0</ele><time>2026-04-11T10:28:50Z</time></trkpt><trkpt lat="44.90354627221365" lon="11.838570982082317"><ele>2.0</ele><time>2026-04-11T10:28:52Z</time></trkpt><trkpt lat="44.90347067530423" lon="11.838492446207365"><ele>2.0</ele><time>2026-04-11T10:28:54Z</time></trkpt><trkpt lat="44.90339179025287" lon="11.83841216570163"><ele>2.0</ele><time>2026-04-11T10:28:56Z</time></trkpt><trkpt lat="44.90331296482779" lon="11.838331070788476"><ele>2.2</ele><time>2026-04-11T10:28:58Z</time></trkpt><trkpt lat="44.903236216644146" lon="11.838248241808904"><ele>2.4000000000000004</ele><time>2026-04-11T10:29:00Z</time></trkpt><trkpt lat="44.90315501957438" lon="11.838167462444853"><ele>2.5999999999999996</ele><time>2026-04-11T10:29:02Z</time></trkpt><trkpt lat="44.90307332622081" lon="11.838086260578361"><ele>2.8</ele><time>2026-04-11T10:29:04Z</time></trkpt><trkpt lat="44.90299592633905" lon="11.83800031929273"><ele>3.0</ele><time>2026-04-11T10:29:06Z</time></trkpt><trkpt lat="44.90291537047486" lon="11.837919853075052"><ele>3.0</ele><time>2026-04-11T10:29:08Z</time></trkpt><trkpt lat="44.90283637210185" lon="11.83784372044244"><ele>3.0</ele><time>2026-04-11T10:29:10Z</time></trkpt><trkpt lat="44.90275265915397" lon="11.83777288583791"><ele>3.0</ele><time>2026-04-11T10:29:12Z</time></trkpt><trkpt lat="44.90267458858164" lon="11.837695513798279"><ele>3.0</ele><time>2026-04-11T10:29:14Z</time></trkpt><trkpt lat="44.90259066303627" lon="11.837629856810521"><ele>3.0</ele><time>2026-04-11T10:29:16Z</time></trkpt><trkpt lat="44.90250525058948" lon="11.837563774059742"><ele>3.2</ele><time>2026-04-11T10:29:18Z</time></trkpt><trkpt lat="44.90242258665837" lon="11.837499222291129"><ele>3.4</ele><time>2026-04-11T10:29:20Z</time></trkpt><trkpt lat="44.90233704359617" lon="11.837432051541223"><ele>3.6000000000000005</ele><time>2026-04-11T10:29:22Z</time></trkpt><trkpt lat="44.902253193199904" lon="11.83736763366543"><ele>3.8000000000000003</ele><time>2026-04-11T10:29:24Z</time></trkpt><trkpt lat="44.90216784381173" lon="11.837307666836955"><ele>4.0</ele><time>2026-04-11T10:29:26Z</time></trkpt><trkpt lat="44.902091364978325" lon="11.837238088308817"><ele>4.0</ele><time>2026-04-11T10:29:28Z</time></trkpt><trkpt lat="44.902005462234456" lon="11.83718738263894"><ele>4.0</ele><time>2026-04-11T10:29:30Z</time></trkpt><trkpt lat="44.90191789875961" lon="11.83712970021773"><ele>4.0</ele><time>2026-04-11T10:29:32Z</time></trkpt><trkpt lat="44.90183185163939" lon="11.837079977225523"><ele>4.0</ele><time>2026-04-11T10:29:34Z</time></trkpt><trkpt lat="44.90174660029652" lon="11.837018628416473"><ele>4.0</ele><time>2026-04-11T10:29:36Z</time></trkpt><trkpt lat="44.90165690106414" lon="11.836973029477466"><ele>3.8000000000000003</ele><time>2026-04-11T10:29:38Z</time></trkpt><trkpt lat="44.90156623457024" lon="11.836927039693748"><ele>3.6000000000000005</ele><time>2026-04-11T10:29:40Z</time></trkpt><trkpt lat="44.901472185186655" lon="11.83688351020568"><ele>3.4</ele><time>2026-04-11T10:29:42Z</time></trkpt><trkpt lat="44.901376198559525" lon="11.83684764785065"><ele>3.2</ele><time>2026-04-11T10:29:44Z</time></trkpt><trkpt lat="44.90128346519601" lon="11.83680785958049"><ele>3.0</ele><time>2026-04-11T10:29:46Z</time></trkpt><trkpt lat="44.901192207122335" lon="11.836768506221025"><ele>3.0</ele><time>2026-04-11T10:29:48Z</time></trkpt><trkpt lat="44.90109988323302" lon="11.83672244325102"><ele>3.0</ele><time>2026-04-11T10:29:50Z</time></trkpt><trkpt lat="44.90100657053724" lon="11.83668320645144"><ele>3.0</ele><time>2026-04-11T10:29:52Z</time></trkpt><trkpt lat="44.90091828234652" lon="11.836634455579098"><ele>3.0</ele><time>2026-04-11T10:29:54Z</time></trkpt><trkpt lat="44.90082439688688" lon="11.836593580011685"><ele>3.0</ele><time>2026-04-11T10:29:56Z</time></trkpt><trkpt lat="44.90073425022683" lon="11.836540912801581"><ele>2.8</ele><time>2026-04-11T10:29:58Z</time></trkpt><trkpt lat="44.90064629255127" lon="11.836485268238903"><ele>2.5999999999999996</ele><time>2026-04-11T10:30:00Z</time></trkpt><trkpt lat="44.90054906061741" lon="11.836432768746905"><ele>2.4000000000000004</ele><time>2026-04-11T10:30:02Z</time></trkpt><trkpt lat="44.90046004358597" lon="11.836373609427161"><ele>2.2</ele><time>2026-04-11T10:30:04Z</time></trkpt><trkpt lat="44.90037137727456" lon="11.836316956962795"><ele>2.0</ele><time>2026-04-11T10:30:06Z</time></trkpt><trkpt lat="44.90028533549704" lon="11.836250656137118"><ele>2.0</ele><time>2026-04-11T10:30:08Z</time></trkpt><trkpt lat="44.90019746364756" lon="11.836196859616619"><ele>2.0</ele><time>2026-04-11T10:30:10Z</time></trkpt><trkpt lat="44.90011258648346" lon="11.836134559192978"><ele>2.0</ele><time>2026-04-11T10:30:12Z</time></trkpt><trkpt lat="44.90002377328459" lon="11.836075982953464"><ele>2.0</ele><time>2026-04-11T10:30:14Z</time></trkpt><trkpt lat="44.899941375865204" lon="11.836019357936351"><ele>2.0</ele><time>2026-04-11T10:30:16Z</time></trkpt><trkpt lat="44.899863345784006" lon="11.835968709782664"><ele>2.0</ele><time>2026-04-11T10:30:18Z</time></trkpt><trkpt lat="44.899779936766805" lon="11.835913775134264"><ele>2.0</ele><time>2026-04-11T10:30:20Z</time></trkpt><trkpt lat="44.89969615226633" lon="11.835847998410259"><ele>2.0</ele><time>2026-04-11T10:30:22Z</time></trkpt><trkpt lat="44.899610994022005" lon="11.83578578081063"><ele>2.0</ele><time>2026-04-11T10:30:24Z</time></trkpt><trkpt lat="44.89953665113114" lon="11.835713532107722"><ele>2.0</ele><time>2026-04-11T10:30:26Z</time></trkpt><trkpt lat="44.89945635435489" lon="11.835665504171791"><ele>1.9999999999999998</ele><time>2026-04-11T10:30:28Z</time></trkpt><trkpt lat="44.89938312807884" lon="11.835620531233669"><ele>2.0</ele><time>2026-04-11T10:30:30Z</time></trkpt><trkpt lat="44.89930466037927" lon="11.835589570100243"><ele>2.0</ele><time>2026-04-11T10:30:32Z</time></trkpt><trkpt lat="44.89923012688973" lon="11.835561445531638"><ele>2.0</ele><time>2026-04-11T10:30:34Z</time></trkpt><trkpt lat="44.89914985420665" lon="11.83551846641035"><ele>1.9999999999999998</ele><time>2026-04-11T10:30:36Z</time></trkpt><trkpt lat="44.89905804764015" lon="11.835493033575744"><ele>2.0</ele><time>2026-04-11T10:30:38Z</time></trkpt><trkpt lat="44.89896972886286" lon="11.835463023490886"><ele>2.1666666666666665</ele><time>2026-04-11T10:30:40Z</time></trkpt><trkpt lat="44.89888453979202" lon="11.835441775746636"><ele>2.333333333333333</ele><time>2026-04-11T10:30:42Z</time></trkpt><trkpt lat="44.89880384585963" lon="11.835417944185803"><ele>2.5</ele><time>2026-04-11T10:30:44Z</time></trkpt><trkpt lat="44.89872311734328" lon="11.83539640931763"><ele>2.6666666666666665</ele><time>2026-04-11T10:30:46Z</time></trkpt><trkpt lat="44.89864920054759" lon="11.835397261784589"><ele>2.8333333333333335</ele><time>2026-04-11T10:30:48Z</time></trkpt><trkpt lat="44.89856687628554" lon="11.835377561286675"><ele>3.0</ele><time>2026-04-11T10:30:50Z</time></trkpt><trkpt lat="44.89848769204355" lon="11.83535740341352"><ele>2.8333333333333335</ele><time>2026-04-11T10:30:52Z</time></trkpt><trkpt lat="44.898414387786076" lon="11.835347292328906"><ele>2.6666666666666665</ele><time>2026-04-11T10:30:54Z</time></trkpt><trkpt lat="44.898343079825715" lon="11.835335162795987"><ele>2.5</ele><time>2026-04-11T10:30:56Z</time></trkpt><trkpt lat="44.898278031459995" lon="11.835322756626542"><ele>2.333333333333333</ele><time>2026-04-11T10:30:58Z</time></trkpt><trkpt lat="44.89819354738004" lon="11.835294861511004"><ele>2.1666666666666665</ele><time>2026-04-11T10:31:01Z</time></trkpt><trkpt lat="44.89809400385274" lon="11.835286578123098"><ele>2.0</ele><time>2026-04-11T10:31:04Z</time></trkpt><trkpt lat="44.898014224608" lon="11.835254541054368"><ele>1.9999999999999998</ele><time>2026-04-11T10:31:06Z</time></trkpt><trkpt lat="44.897974069702265" lon="11.835164484060938"><ele>2.0</ele><time>2026-04-11T10:31:08Z</time></trkpt><trkpt lat="44.89795045957567" lon="11.835063277496644"><ele>2.0</ele><time>2026-04-11T10:31:10Z</time></trkpt><trkpt lat="44.89793875839274" lon="11.834934205735912"><ele>2.0</ele><time>2026-04-11T10:31:12Z</time></trkpt><trkpt lat="44.897917683781145" lon="11.834807237486089"><ele>1.9999999999999998</ele><time>2026-04-11T10:31:14Z</time></trkpt><trkpt lat="44.897905309634076" lon="11.834689875663146"><ele>2.0</ele><time>2026-04-11T10:31:16Z</time></trkpt><trkpt lat="44.89787996107716" lon="11.834571644735401"><ele>2.2</ele><time>2026-04-11T10:31:18Z</time></trkpt><trkpt lat="44.897859579296515" lon="11.834433153531688"><ele>2.4000000000000004</ele><time>2026-04-11T10:31:20Z</time></trkpt><trkpt lat="44.89783248753488" lon="11.834302624695725"><ele>2.5999999999999996</ele><time>2026-04-11T10:31:22Z</time></trkpt><trkpt lat="44.89780675633145" lon="11.834168108629251"><ele>2.8</ele><time>2026-04-11T10:31:24Z</time></trkpt><trkpt lat="44.89779449386669" lon="11.834036268523578"><ele>3.0</ele><time>2026-04-11T10:31:26Z</time></trkpt><trkpt lat="44.89777902162067" lon="11.833920846439812"><ele>3.1666666666666665</ele><time>2026-04-11T10:31:28Z</time></trkpt><trkpt lat="44.897755959641096" lon="11.833808567110514"><ele>3.333333333333333</ele><time>2026-04-11T10:31:30Z</time></trkpt><trkpt lat="44.8977382138594" lon="11.833685567715984"><ele>3.5</ele><time>2026-04-11T10:31:32Z</time></trkpt><trkpt lat="44.89771634977215" lon="11.833556356207408"><ele>3.6666666666666665</ele><time>2026-04-11T10:31:34Z</time></trkpt><trkpt lat="44.897694527942626" lon="11.833448128733531"><ele>3.833333333333333</ele><time>2026-04-11T10:31:36Z</time></trkpt><trkpt lat="44.89767733962289" lon="11.833335941334097"><ele>4.0</ele><time>2026-04-11T10:31:38Z</time></trkpt><trkpt lat="44.897658580213495" lon="11.833230952473533"><ele>3.9999999999999996</ele><time>2026-04-11T10:31:40Z</time></trkpt><trkpt lat="44.89764209815644" lon="11.83312562549378"><ele>4.0</ele><time>2026-04-11T10:31:42Z</time></trkpt><trkpt lat="44.89762975132445" lon="11.83302591724525"><ele>4.0</ele><time>2026-04-11T10:31:44Z</time></trkpt><trkpt lat="44.89761377798236" lon="11.832936949421136"><ele>4.0</ele><time>2026-04-11T10:31:46Z</time></trkpt><trkpt lat="44.89759209772967" lon="11.832809626787771"><ele>3.9999999999999996</ele><time>2026-04-11T10:31:49Z</time></trkpt><trkpt lat="44.897570812837586" lon="11.832684436552995"><ele>4.0</ele><time>2026-04-11T10:31:52Z</time></trkpt><trkpt lat="44.89755144743612" lon="11.832566399610995"><ele>3.833333333333333</ele><time>2026-04-11T10:31:55Z</time></trkpt><trkpt lat="44.89753754641496" lon="11.832472867783853"><ele>3.6666666666666665</ele><time>2026-04-11T10:31:57Z</time></trkpt><trkpt lat="44.897516389171976" lon="11.832387842073606"><ele>3.5</ele><time>2026-04-11T10:31:59Z</time></trkpt><trkpt lat="44.89748835493677" lon="11.832252504497532"><ele>3.333333333333333</ele><time>2026-04-11T10:32:02Z</time></trkpt><trkpt lat="44.897472854428635" lon="11.832140733439626"><ele>3.1666666666666665</ele><time>2026-04-11T10:32:04Z</time></trkpt><trkpt lat="44.89745457013237" lon="11.832035041194812"><ele>3.0</ele><time>2026-04-11T10:32:06Z</time></trkpt><trkpt lat="44.89743549292032" lon="11.831941162268265"><ele>3.0</ele><time>2026-04-11T10:32:08Z</time></trkpt><trkpt lat="44.897417193992865" lon="11.831817019164447"><ele>3.0</ele><time>2026-04-11T10:32:11Z</time></trkpt><trkpt lat="44.897397683275074" lon="11.83171545111334"><ele>3.0</ele><time>2026-04-11T10:32:13Z</time></trkpt><trkpt lat="44.8973783337031" lon="11.831600606151135"><ele>3.0</ele><time>2026-04-11T10:32:15Z</time></trkpt><trkpt lat="44.897359956864626" lon="11.831496077300752"><ele>3.0</ele><time>2026-04-11T10:32:17Z</time></trkpt><trkpt lat="44.897349000022274" lon="11.831394540079076"><ele>3.0</ele><time>2026-04-11T10:32:19Z</time></trkpt><trkpt lat="44.897331920516926" lon="11.831300476059987"><ele>3.0</ele><time>2026-04-11T10:32:21Z</time></trkpt><trkpt lat="44.89730623097306" lon="11.831192518468919"><ele>3.0</ele><time>2026-04-11T10:32:23Z</time></trkpt><trkpt lat="44.897296499409975" lon="11.831075173959704"><ele>3.0</ele><time>2026-04-11T10:32:25Z</time></trkpt><trkpt lat="44.89727821283842" lon="11.830962999656586"><ele>3.0</ele><time>2026-04-11T10:32:27Z</time></trkpt><trkpt lat="44.89725250758325" lon="11.830849901440033"><ele>3.0</ele><time>2026-04-11T10:32:29Z</time></trkpt><trkpt lat="44.89724538458059" lon="11.830744635178462"><ele>3.0</ele><time>2026-04-11T10:32:31Z</time></trkpt><trkpt lat="44.89723026752442" lon="11.830638934841591"><ele>3.1666666666666665</ele><time>2026-04-11T10:32:33Z</time></trkpt><trkpt lat="44.89721281301481" lon="11.830510973792988"><ele>3.333333333333333</ele><time>2026-04-11T10:32:35Z</time></trkpt><trkpt lat="44.89718879884019" lon="11.830394396404788"><ele>3.5</ele><time>2026-04-11T10:32:37Z</time></trkpt><trkpt lat="44.897177962291174" lon="11.83028668462535"><ele>3.6666666666666665</ele><time>2026-04-11T10:32:39Z</time></trkpt><trkpt lat="44.89715820169346" lon="11.83018287997101"><ele>3.833333333333333</ele><time>2026-04-11T10:32:41Z</time></trkpt><trkpt lat="44.89714157306112" lon="11.830090524612892"><ele>4.0</ele><time>2026-04-11T10:32:43Z</time></trkpt><trkpt lat="44.897121875014626" lon="11.829964831550026"><ele>3.9999999999999996</ele><time>2026-04-11T10:32:45Z</time></trkpt><trkpt lat="44.8971018096481" lon="11.829841161642904"><ele>4.0</ele><time>2026-04-11T10:32:47Z</time></trkpt><trkpt lat="44.897079557415275" lon="11.829731785480641"><ele>4.0</ele><time>2026-04-11T10:32:49Z</time></trkpt><trkpt lat="44.89706441477541" lon="11.829620966510465"><ele>4.0</ele><time>2026-04-11T10:32:51Z</time></trkpt><trkpt lat="44.897041212538845" lon="11.82951343997443"><ele>3.9999999999999996</ele><time>2026-04-11T10:32:53Z</time></trkpt><trkpt lat="44.89702625651119" lon="11.829422064464925"><ele>4.0</ele><time>2026-04-11T10:32:55Z</time></trkpt><trkpt lat="44.896999037271776" lon="11.829318193167596"><ele>3.833333333333333</ele><time>2026-04-11T10:32:57Z</time></trkpt><trkpt lat="44.89698541560625" lon="11.829181790669995"><ele>3.6666666666666665</ele><time>2026-04-11T10:32:59Z</time></trkpt><trkpt lat="44.89697089885817" lon="11.829063972603736"><ele>3.5</ele><time>2026-04-11T10:33:01Z</time></trkpt><trkpt lat="44.89694561419824" lon="11.828949313095931"><ele>3.333333333333333</ele><time>2026-04-11T10:33:03Z</time></trkpt><trkpt lat="44.89693207841896" lon="11.828845520053074"><ele>3.1666666666666665</ele><time>2026-04-11T10:33:05Z</time></trkpt><trkpt lat="44.896912304866426" lon="11.828740404591679"><ele>3.0</ele><time>2026-04-11T10:33:07Z</time></trkpt><trkpt lat="44.896917681817314" lon="11.828637411890544"><ele>3.0</ele><time>2026-04-11T10:33:09Z</time></trkpt><trkpt lat="44.896913584290644" lon="11.828519243424404"><ele>3.0</ele><time>2026-04-11T10:33:11Z</time></trkpt><trkpt lat="44.89688374949038" lon="11.828399928375552"><ele>3.0</ele><time>2026-04-11T10:33:13Z</time></trkpt><trkpt lat="44.896867410684095" lon="11.828282690247393"><ele>3.0</ele><time>2026-04-11T10:33:15Z</time></trkpt><trkpt lat="44.89683968914852" lon="11.82816961006208"><ele>3.0</ele><time>2026-04-11T10:33:17Z</time></trkpt><trkpt lat="44.89682579387882" lon="11.828063011039358"><ele>3.0</ele><time>2026-04-11T10:33:19Z</time></trkpt><trkpt lat="44.89679868918101" lon="11.827968005071066"><ele>3.0</ele><time>2026-04-11T10:33:21Z</time></trkpt><trkpt lat="44.89678156915921" lon="11.827858288257465"><ele>3.0</ele><time>2026-04-11T10:33:23Z</time></trkpt><trkpt lat="44.89676554729204" lon="11.827742793792002"><ele>3.0</ele><time>2026-04-11T10:33:25Z</time></trkpt><trkpt lat="44.89673859046271" lon="11.82761591619837"><ele>3.0</ele><time>2026-04-11T10:33:27Z</time></trkpt><trkpt lat="44.89672803546464" lon="11.827492971007397"><ele>3.0</ele><time>2026-04-11T10:33:29Z</time></trkpt><trkpt lat="44.89672050208382" lon="11.827387449624103"><ele>3.0</ele><time>2026-04-11T10:33:31Z</time></trkpt><trkpt lat="44.89668692431188" lon="11.827275862803178"><ele>3.0</ele><time>2026-04-11T10:33:33Z</time></trkpt><trkpt lat="44.896659724885986" lon="11.82714443183477"><ele>3.0</ele><time>2026-04-11T10:33:35Z</time></trkpt><trkpt lat="44.896639832037515" lon="11.827016685669077"><ele>3.0</ele><time>2026-04-11T10:33:37Z</time></trkpt><trkpt lat="44.896614465124124" lon="11.826885290481123"><ele>3.0</ele><time>2026-04-11T10:33:39Z</time></trkpt><trkpt lat="44.89660323233299" lon="11.826756666690747"><ele>3.0</ele><time>2026-04-11T10:33:41Z</time></trkpt><trkpt lat="44.89658111852313" lon="11.82664120601863"><ele>3.0</ele><time>2026-04-11T10:33:43Z</time></trkpt><trkpt lat="44.896565346944875" lon="11.826526466422134"><ele>3.0</ele><time>2026-04-11T10:33:45Z</time></trkpt><trkpt lat="44.8965468649916" lon="11.826422663383582"><ele>3.0</ele><time>2026-04-11T10:33:47Z</time></trkpt><trkpt lat="44.89652897240741" lon="11.826319852559308"><ele>3.0</ele><time>2026-04-11T10:33:49Z</time></trkpt><trkpt lat="44.89650864219105" lon="11.82619627125745"><ele>3.0</ele><time>2026-04-11T10:33:51Z</time></trkpt><trkpt lat="44.89649110006786" lon="11.826078712573873"><ele>3.0</ele><time>2026-04-11T10:33:53Z</time></trkpt><trkpt lat="44.896473355989194" lon="11.82598697380237"><ele>3.1666666666666665</ele><time>2026-04-11T10:33:55Z</time></trkpt><trkpt lat="44.89645520160876" lon="11.825873756451234"><ele>3.333333333333333</ele><time>2026-04-11T10:33:58Z</time></trkpt><trkpt lat="44.89645294879989" lon="11.825782749527484"><ele>3.5</ele><time>2026-04-11T10:34:01Z</time></trkpt><trkpt lat="44.896406523918955" lon="11.825694197369112"><ele>3.6666666666666665</ele><time>2026-04-11T10:34:03Z</time></trkpt><trkpt lat="44.896374290935775" lon="11.82559211564866"><ele>3.833333333333333</ele><time>2026-04-11T10:34:05Z</time></trkpt><trkpt lat="44.896357148748876" lon="11.825483689633652"><ele>4.0</ele><time>2026-04-11T10:34:07Z</time></trkpt><trkpt lat="44.89631986277156" lon="11.825375436384936"><ele>3.9999999999999996</ele><time>2026-04-11T10:34:09Z</time></trkpt><trkpt lat="44.8962542988582" lon="11.825308868371692"><ele>4.0</ele><time>2026-04-11T10:34:11Z</time></trkpt><trkpt lat="44.89621433059617" lon="11.825216909679039"><ele>4.0</ele><time>2026-04-11T10:34:13Z</time></trkpt><trkpt lat="44.896199025929214" lon="11.825121236964513"><ele>4.0</ele><time>2026-04-11T10:34:15Z</time></trkpt><trkpt lat="44.896171579186834" lon="11.824996121196666"><ele>3.9999999999999996</ele><time>2026-04-11T10:34:18Z</time></trkpt><trkpt lat="44.89615810353379" lon="11.82487633321699"><ele>4.0</ele><time>2026-04-11T10:34:20Z</time></trkpt><trkpt lat="44.89613642304169" lon="11.824754587610789"><ele>3.9999999999999996</ele><time>2026-04-11T10:34:22Z</time></trkpt><trkpt lat="44.89612907837237" lon="11.824629936024245"><ele>4.0</ele><time>2026-04-11T10:34:24Z</time></trkpt><trkpt lat="44.89610312440338" lon="11.824519742421638"><ele>4.0</ele><time>2026-04-11T10:34:26Z</time></trkpt><trkpt lat="44.896085624956314" lon="11.824410949690142"><ele>4.0</ele><time>2026-04-11T10:34:28Z</time></trkpt><trkpt lat="44.8960688376096" lon="11.824305872710648"><ele>3.9999999999999996</ele><time>2026-04-11T10:34:30Z</time></trkpt><trkpt lat="44.89605446323084" lon="11.824204946307667"><ele>4.0</ele><time>2026-04-11T10:34:32Z</time></trkpt><trkpt lat="44.896039839754984" lon="11.82410838237242"><ele>4.166666666666666</ele><time>2026-04-11T10:34:34Z</time></trkpt><trkpt lat="44.89602269441194" lon="11.824010486803099"><ele>4.333333333333333</ele><time>2026-04-11T10:34:36Z</time></trkpt><trkpt lat="44.89600136265173" lon="11.823888947771666"><ele>4.5</ele><time>2026-04-11T10:34:38Z</time></trkpt><trkpt lat="44.89597156646195" lon="11.823780162783637"><ele>4.666666666666667</ele><time>2026-04-11T10:34:40Z</time></trkpt><trkpt lat="44.89595477869009" lon="11.823671149513604"><ele>4.833333333333334</ele><time>2026-04-11T10:34:42Z</time></trkpt><trkpt lat="44.89594089096313" lon="11.823564795634645"><ele>5.0</ele><time>2026-04-11T10:34:44Z</time></trkpt><trkpt lat="44.89592826756196" lon="11.823456336494933"><ele>4.833333333333334</ele><time>2026-04-11T10:34:46Z</time></trkpt><trkpt lat="44.89591376243135" lon="11.823339840243483"><ele>4.666666666666667</ele><time>2026-04-11T10:34:48Z</time></trkpt><trkpt lat="44.895892279364425" lon="11.823234702349929"><ele>4.5</ele><time>2026-04-11T10:34:50Z</time></trkpt><trkpt lat="44.895881203449775" lon="11.823127205166156"><ele>4.333333333333333</ele><time>2026-04-11T10:34:52Z</time></trkpt><trkpt lat="44.89585932802719" lon="11.82302996780486"><ele>4.166666666666666</ele><time>2026-04-11T10:34:54Z</time></trkpt><trkpt lat="44.895845355130504" lon="11.82293137300402"><ele>4.0</ele><time>2026-04-11T10:34:56Z</time></trkpt><trkpt lat="44.89582737748766" lon="11.822837811339259"><ele>4.0</ele><time>2026-04-11T10:34:58Z</time></trkpt><trkpt lat="44.89579687259069" lon="11.822749845960669"><ele>3.9999999999999996</ele><time>2026-04-11T10:35:00Z</time></trkpt><trkpt lat="44.895735026422315" lon="11.822724921854089"><ele>4.0</ele><time>2026-04-11T10:35:02Z</time></trkpt><trkpt lat="44.89575941554624" lon="11.822595475164626"><ele>4.0</ele><time>2026-04-11T10:35:06Z</time></trkpt><trkpt lat="44.895801535724864" lon="11.822497679385451"><ele>3.9999999999999996</ele><time>2026-04-11T10:35:08Z</time></trkpt><trkpt lat="44.89578028554234" lon="11.822398377459365"><ele>4.0</ele><time>2026-04-11T10:35:10Z</time></trkpt><trkpt lat="44.89576658183242" lon="11.822308682857559"><ele>4.0</ele><time>2026-04-11T10:35:12Z</time></trkpt><trkpt lat="44.89574887593507" lon="11.822194513068453"><ele>3.833333333333333</ele><time>2026-04-11T10:35:14Z</time></trkpt><trkpt lat="44.89573086350303" lon="11.82208871780106"><ele>3.6666666666666665</ele><time>2026-04-11T10:35:16Z</time></trkpt><trkpt lat="44.89571687763497" lon="11.821994530931656"><ele>3.5</ele><time>2026-04-11T10:35:18Z</time></trkpt><trkpt lat="44.89570239941237" lon="11.821899104927136"><ele>3.333333333333333</ele><time>2026-04-11T10:35:20Z</time></trkpt><trkpt lat="44.89568827852066" lon="11.82181163097441"><ele>3.1666666666666665</ele><time>2026-04-11T10:35:22Z</time></trkpt><trkpt lat="44.89567674087625" lon="11.82168385414302"><ele>3.0</ele><time>2026-04-11T10:35:25Z</time></trkpt><trkpt lat="44.89570776222734" lon="11.821570542975898"><ele>3.0</ele><time>2026-04-11T10:35:27Z</time></trkpt><trkpt lat="44.89569527005862" lon="11.821449002585712"><ele>3.0</ele><time>2026-04-11T10:35:29Z</time></trkpt><trkpt lat="44.89567551865173" lon="11.821329907860186"><ele>3.0</ele><time>2026-04-11T10:35:31Z</time></trkpt><trkpt lat="44.89565436539955" lon="11.821202079236073"><ele>3.0</ele><time>2026-04-11T10:35:33Z</time></trkpt><trkpt lat="44.89563684497703" lon="11.821070675228194"><ele>3.0</ele><time>2026-04-11T10:35:35Z</time></trkpt><trkpt lat="44.89562532880869" lon="11.820937690236738"><ele>3.0</ele><time>2026-04-11T10:35:37Z</time></trkpt><trkpt lat="44.89560194577703" lon="11.82080434418383"><ele>3.0</ele><time>2026-04-11T10:35:39Z</time></trkpt><trkpt lat="44.895578960661446" lon="11.820675635576084"><ele>3.0</ele><time>2026-04-11T10:35:41Z</time></trkpt><trkpt lat="44.89556043605582" lon="11.820547125366998"><ele>3.0</ele><time>2026-04-11T10:35:43Z</time></trkpt><trkpt lat="44.89553790825171" lon="11.820406238934314"><ele>3.0</ele><time>2026-04-11T10:35:45Z</time></trkpt><trkpt lat="44.895503366823085" lon="11.820285388514916"><ele>3.0</ele><time>2026-04-11T10:35:47Z</time></trkpt><trkpt lat="44.895479355915576" lon="11.820153916990137"><ele>3.0</ele><time>2026-04-11T10:35:49Z</time></trkpt><trkpt lat="44.89546420227632" lon="11.820006694343585"><ele>3.0</ele><time>2026-04-11T10:35:51Z</time></trkpt><trkpt lat="44.895433183948725" lon="11.819881570815499"><ele>3.0</ele><time>2026-04-11T10:35:53Z</time></trkpt><trkpt lat="44.89541731868508" lon="11.819735554969458"><ele>3.0</ele><time>2026-04-11T10:35:55Z</time></trkpt><trkpt lat="44.89539236631794" lon="11.81960847513012"><ele>2.8</ele><time>2026-04-11T10:35:57Z</time></trkpt><trkpt lat="44.89536917264305" lon="11.819475892308072"><ele>2.5999999999999996</ele><time>2026-04-11T10:35:59Z</time></trkpt><trkpt lat="44.89534142708569" lon="11.819351918907675"><ele>2.4000000000000004</ele><time>2026-04-11T10:36:01Z</time></trkpt><trkpt lat="44.895317082903695" lon="11.819222658385014"><ele>2.2</ele><time>2026-04-11T10:36:03Z</time></trkpt><trkpt lat="44.89530009808388" lon="11.819093104718101"><ele>2.0</ele><time>2026-04-11T10:36:05Z</time></trkpt><trkpt lat="44.89526812132668" lon="11.81896862095374"><ele>2.0</ele><time>2026-04-11T10:36:07Z</time></trkpt><trkpt lat="44.8952240746085" lon="11.818854582009333"><ele>2.0</ele><time>2026-04-11T10:36:09Z</time></trkpt><trkpt lat="44.89518524503243" lon="11.818730987041059"><ele>2.0</ele><time>2026-04-11T10:36:11Z</time></trkpt><trkpt lat="44.89512950338398" lon="11.818613600065065"><ele>2.0</ele><time>2026-04-11T10:36:13Z</time></trkpt><trkpt lat="44.89507735425754" lon="11.81850741015704"><ele>2.0</ele><time>2026-04-11T10:36:15Z</time></trkpt><trkpt lat="44.89500464719027" lon="11.818409240928869"><ele>2.0</ele><time>2026-04-11T10:36:17Z</time></trkpt><trkpt lat="44.89492916745219" lon="11.818307560330684"><ele>2.0</ele><time>2026-04-11T10:36:19Z</time></trkpt><trkpt lat="44.89485386554707" lon="11.818229689590943"><ele>2.0</ele><time>2026-04-11T10:36:21Z</time></trkpt><trkpt lat="44.89477160858984" lon="11.818156921378398"><ele>2.0</ele><time>2026-04-11T10:36:23Z</time></trkpt><trkpt lat="44.8946887202627" lon="11.818093458150136"><ele>2.0</ele><time>2026-04-11T10:36:25Z</time></trkpt><trkpt lat="44.89460571282623" lon="11.818024682240585"><ele>2.0</ele><time>2026-04-11T10:36:27Z</time></trkpt><trkpt lat="44.89452691189405" lon="11.817954979483902"><ele>2.0</ele><time>2026-04-11T10:36:29Z</time></trkpt><trkpt lat="44.89444371236761" lon="11.817899816471204"><ele>2.0</ele><time>2026-04-11T10:36:31Z</time></trkpt><trkpt lat="44.89435291950893" lon="11.81783013187771"><ele>2.0</ele><time>2026-04-11T10:36:33Z</time></trkpt><trkpt lat="44.89427321503091" lon="11.817761606029142"><ele>2.0</ele><time>2026-04-11T10:36:35Z</time></trkpt><trkpt lat="44.89418836978611" lon="11.817696173449859"><ele>2.4000000000000004</ele><time>2026-04-11T10:36:37Z</time></trkpt><trkpt lat="44.89410199294455" lon="11.817627588509586"><ele>2.8000000000000003</ele><time>2026-04-11T10:36:39Z</time></trkpt><trkpt lat="44.894022130997996" lon="11.817564173217843"><ele>3.2</ele><time>2026-04-11T10:36:41Z</time></trkpt><trkpt lat="44.8939495998803" lon="11.81749587298303"><ele>3.6</ele><time>2026-04-11T10:36:43Z</time></trkpt><trkpt lat="44.89386755721861" lon="11.817451149358389"><ele>4.0</ele><time>2026-04-11T10:36:45Z</time></trkpt><trkpt lat="44.893799972189825" lon="11.817380689598256"><ele>3.9999999999999996</ele><time>2026-04-11T10:36:47Z</time></trkpt><trkpt lat="44.893727857423904" lon="11.817335100498543"><ele>4.0</ele><time>2026-04-11T10:36:49Z</time></trkpt><trkpt lat="44.893655622451725" lon="11.81727741627915"><ele>4.0</ele><time>2026-04-11T10:36:51Z</time></trkpt><trkpt lat="44.89357452294121" lon="11.817211810976687"><ele>4.0</ele><time>2026-04-11T10:36:53Z</time></trkpt><trkpt lat="44.89350109722417" lon="11.81715211526212"><ele>3.9999999999999996</ele><time>2026-04-11T10:36:55Z</time></trkpt><trkpt lat="44.893448415470225" lon="11.817053617386952"><ele>4.0</ele><time>2026-04-11T10:36:57Z</time></trkpt><trkpt lat="44.8933792984271" lon="11.8169698835131"><ele>3.9999999999999996</ele><time>2026-04-11T10:36:59Z</time></trkpt><trkpt lat="44.89331901928241" lon="11.81692066881623"><ele>4.0</ele><time>2026-04-11T10:37:01Z</time></trkpt><trkpt lat="44.89324796939807" lon="11.816866194961383"><ele>4.0</ele><time>2026-04-11T10:37:03Z</time></trkpt><trkpt lat="44.89316689937267" lon="11.816799307580819"><ele>4.0</ele><time>2026-04-11T10:37:05Z</time></trkpt><trkpt lat="44.89308277377408" lon="11.81673077026952"><ele>3.9999999999999996</ele><time>2026-04-11T10:37:07Z</time></trkpt><trkpt lat="44.892989123699536" lon="11.816689300902967"><ele>4.0</ele><time>2026-04-11T10:37:09Z</time></trkpt><trkpt lat="44.89291877866526" lon="11.816605197297392"><ele>3.9999999999999996</ele><time>2026-04-11T10:37:11Z</time></trkpt><trkpt lat="44.89283568822724" lon="11.816539343453007"><ele>4.0</ele><time>2026-04-11T10:37:13Z</time></trkpt><trkpt lat="44.892762946297545" lon="11.8164775982445"><ele>4.0</ele><time>2026-04-11T10:37:15Z</time></trkpt><trkpt lat="44.89268439295635" lon="11.81642056017719"><ele>4.0</ele><time>2026-04-11T10:37:17Z</time></trkpt><trkpt lat="44.89262170651986" lon="11.816360477580604"><ele>3.9999999999999996</ele><time>2026-04-11T10:37:19Z</time></trkpt><trkpt lat="44.892558042099196" lon="11.816319650793666"><ele>4.0</ele><time>2026-04-11T10:37:21Z</time></trkpt><trkpt lat="44.89247785505834" lon="11.816247908785623"><ele>3.9999999999999996</ele><time>2026-04-11T10:37:24Z</time></trkpt><trkpt lat="44.89242163801362" lon="11.816205431873323"><ele>4.0</ele><time>2026-04-11T10:37:26Z</time></trkpt><trkpt lat="44.89234445096023" lon="11.816151435918504"><ele>4.0</ele><time>2026-04-11T10:37:28Z</time></trkpt><trkpt lat="44.89226158986013" lon="11.816088203430592"><ele>4.0</ele><time>2026-04-11T10:37:30Z</time></trkpt><trkpt lat="44.892185331893955" lon="11.816032450566052"><ele>3.9999999999999996</ele><time>2026-04-11T10:37:32Z</time></trkpt><trkpt lat="44.89211753698547" lon="11.815971861092697"><ele>4.0</ele><time>2026-04-11T10:37:34Z</time></trkpt><trkpt lat="44.892051231291774" lon="11.815919591353897"><ele>4.0</ele><time>2026-04-11T10:37:36Z</time></trkpt><trkpt lat="44.89198143988705" lon="11.815870589752633"><ele>3.9999999999999996</ele><time>2026-04-11T10:37:38Z</time></trkpt><trkpt lat="44.89190695153309" lon="11.81582026145023"><ele>4.0</ele><time>2026-04-11T10:37:40Z</time></trkpt><trkpt lat="44.89184467343326" lon="11.81576993328425"><ele>4.0</ele><time>2026-04-11T10:37:42Z</time></trkpt><trkpt lat="44.891782011970186" lon="11.815726505109998"><ele>3.9999999999999996</ele><time>2026-04-11T10:37:44Z</time></trkpt><trkpt lat="44.891726923555844" lon="11.815679557698616"><ele>4.0</ele><time>2026-04-11T10:37:46Z</time></trkpt><trkpt lat="44.891651074690834" lon="11.81563279049811"><ele>4.0</ele><time>2026-04-11T10:37:48Z</time></trkpt><trkpt lat="44.89157113036559" lon="11.815565222829612"><ele>3.8000000000000003</ele><time>2026-04-11T10:37:50Z</time></trkpt><trkpt lat="44.89149075448699" lon="11.815495160366961"><ele>3.6000000000000005</ele><time>2026-04-11T10:37:52Z</time></trkpt><trkpt lat="44.891410050782895" lon="11.815422303162624"><ele>3.4</ele><time>2026-04-11T10:37:54Z</time></trkpt><trkpt lat="44.89132356634557" lon="11.815356828770636"><ele>3.2</ele><time>2026-04-11T10:37:56Z</time></trkpt><trkpt lat="44.89123784972151" lon="11.815288239977752"><ele>3.0</ele><time>2026-04-11T10:37:58Z</time></trkpt><trkpt lat="44.89115299880293" lon="11.81522150916489"><ele>3.0</ele><time>2026-04-11T10:38:00Z</time></trkpt><trkpt lat="44.89107224589027" lon="11.815149144604028"><ele>3.0</ele><time>2026-04-11T10:38:02Z</time></trkpt><trkpt lat="44.89098068863368" lon="11.815082400818792"><ele>3.0</ele><time>2026-04-11T10:38:04Z</time></trkpt><trkpt lat="44.89088988645163" lon="11.815020837338018"><ele>3.0</ele><time>2026-04-11T10:38:06Z</time></trkpt><trkpt lat="44.890815718858455" lon="11.814939023027712"><ele>3.0</ele><time>2026-04-11T10:38:08Z</time></trkpt><trkpt lat="44.890727736702296" lon="11.81488721524296"><ele>3.0</ele><time>2026-04-11T10:38:10Z</time></trkpt><trkpt lat="44.89064743416924" lon="11.814813312344244"><ele>3.0</ele><time>2026-04-11T10:38:12Z</time></trkpt><trkpt lat="44.89055898587154" lon="11.814743999862372"><ele>3.0</ele><time>2026-04-11T10:38:14Z</time></trkpt><trkpt lat="44.890471254478115" lon="11.81467564350357"><ele>3.0</ele><time>2026-04-11T10:38:16Z</time></trkpt><trkpt lat="44.89038512606024" lon="11.814603723201268"><ele>3.0</ele><time>2026-04-11T10:38:18Z</time></trkpt><trkpt lat="44.89030242182331" lon="11.814535709134429"><ele>3.0</ele><time>2026-04-11T10:38:20Z</time></trkpt><trkpt lat="44.89022797839512" lon="11.814456286097588"><ele>3.0</ele><time>2026-04-11T10:38:22Z</time></trkpt><trkpt lat="44.890148876614624" lon="11.814395681253014"><ele>3.0</ele><time>2026-04-11T10:38:24Z</time></trkpt><trkpt lat="44.890075506199466" lon="11.81433285155077"><ele>3.0</ele><time>2026-04-11T10:38:26Z</time></trkpt><trkpt lat="44.889994991596325" lon="11.814273814113589"><ele>3.0</ele><time>2026-04-11T10:38:28Z</time></trkpt><trkpt lat="44.88991366497106" lon="11.814200491628675"><ele>2.8</ele><time>2026-04-11T10:38:30Z</time></trkpt><trkpt lat="44.88984173102177" lon="11.814112756685317"><ele>2.5999999999999996</ele><time>2026-04-11T10:38:32Z</time></trkpt><trkpt lat="44.889782008569455" lon="11.814003984114082"><ele>2.4000000000000004</ele><time>2026-04-11T10:38:34Z</time></trkpt><trkpt lat="44.8897265609129" lon="11.813898661152233"><ele>2.2</ele><time>2026-04-11T10:38:36Z</time></trkpt><trkpt lat="44.889667764082866" lon="11.81378712078497"><ele>2.0</ele><time>2026-04-11T10:38:38Z</time></trkpt><trkpt lat="44.88962492012187" lon="11.813666654705502"><ele>1.9999999999999998</ele><time>2026-04-11T10:38:40Z</time></trkpt><trkpt lat="44.88958211969876" lon="11.8135487779533"><ele>2.0</ele><time>2026-04-11T10:38:42Z</time></trkpt><trkpt lat="44.88955165765134" lon="11.81343229601253"><ele>2.0</ele><time>2026-04-11T10:38:44Z</time></trkpt><trkpt lat="44.88950765628762" lon="11.813322250307417"><ele>2.0</ele><time>2026-04-11T10:38:46Z</time></trkpt><trkpt lat="44.88947863904824" lon="11.813212816091895"><ele>1.9999999999999998</ele><time>2026-04-11T10:38:48Z</time></trkpt><trkpt lat="44.88944867279182" lon="11.81310347377675"><ele>2.0</ele><time>2026-04-11T10:38:50Z</time></trkpt><trkpt lat="44.889417123715674" lon="11.813002126553299"><ele>2.142857142857143</ele><time>2026-04-11T10:38:52Z</time></trkpt><trkpt lat="44.88939304145669" lon="11.81290233421289"><ele>2.2857142857142856</ele><time>2026-04-11T10:38:54Z</time></trkpt><trkpt lat="44.889364216221715" lon="11.81280133687509"><ele>2.4285714285714284</ele><time>2026-04-11T10:38:56Z</time></trkpt><trkpt lat="44.88934324825473" lon="11.812704647636286"><ele>2.571428571428571</ele><time>2026-04-11T10:38:58Z</time></trkpt><trkpt lat="44.88932601726527" lon="11.812603816144128"><ele>2.7142857142857144</ele><time>2026-04-11T10:39:00Z</time></trkpt><trkpt lat="44.8893075295536" lon="11.812514128818824"><ele>2.8571428571428568</ele><time>2026-04-11T10:39:02Z</time></trkpt><trkpt lat="44.889299719406196" lon="11.812417522448706"><ele>3.0</ele><time>2026-04-11T10:39:04Z</time></trkpt><trkpt lat="44.88930926451376" lon="11.812305483585693"><ele>2.9999999999999996</ele><time>2026-04-11T10:39:06Z</time></trkpt><trkpt lat="44.889302599317304" lon="11.812216518325238"><ele>3.0</ele><time>2026-04-11T10:39:08Z</time></trkpt><trkpt lat="44.88928516384651" lon="11.81211797115745"><ele>3.0</ele><time>2026-04-11T10:39:10Z</time></trkpt><trkpt lat="44.8892931048118" lon="11.81202756436888"><ele>3.0</ele><time>2026-04-11T10:39:12Z</time></trkpt><trkpt lat="44.88933497940804" lon="11.811955017055416"><ele>3.0</ele><time>2026-04-11T10:39:14Z</time></trkpt><trkpt lat="44.88939648899535" lon="11.811880790821156"><ele>2.9999999999999996</ele><time>2026-04-11T10:39:16Z</time></trkpt><trkpt lat="44.88944414798833" lon="11.81180608768566"><ele>3.0</ele><time>2026-04-11T10:39:18Z</time></trkpt><trkpt lat="44.88945531957491" lon="11.811686933738633"><ele>3.0</ele><time>2026-04-11T10:39:21Z</time></trkpt><trkpt lat="44.88945338699197" lon="11.811581393174627"><ele>3.0</ele><time>2026-04-11T10:39:23Z</time></trkpt><trkpt lat="44.88945606916378" lon="11.811469288892773"><ele>3.0</ele><time>2026-04-11T10:39:25Z</time></trkpt><trkpt lat="44.889445658957605" lon="11.811356350732021"><ele>3.0</ele><time>2026-04-11T10:39:27Z</time></trkpt><trkpt lat="44.889411453298656" lon="11.8112520557554"><ele>3.0</ele><time>2026-04-11T10:39:29Z</time></trkpt><trkpt lat="44.889386845827445" lon="11.811165727253643"><ele>3.0</ele><time>2026-04-11T10:39:32Z</time></trkpt><trkpt lat="44.889321965740194" lon="11.811139996796545"><ele>3.0</ele><time>2026-04-11T10:39:34Z</time></trkpt><trkpt lat="44.88926542934839" lon="11.811068010270253"><ele>3.0</ele><time>2026-04-11T10:39:36Z</time></trkpt><trkpt lat="44.88921033086967" lon="11.810982046783442"><ele>3.0</ele><time>2026-04-11T10:39:38Z</time></trkpt><trkpt lat="44.88915215089838" lon="11.810904164791458"><ele>3.0</ele><time>2026-04-11T10:39:40Z</time></trkpt><trkpt lat="44.88911773637077" lon="11.810799090785205"><ele>3.0</ele><time>2026-04-11T10:39:42Z</time></trkpt><trkpt lat="44.889102158592785" lon="11.810690164123075"><ele>3.0</ele><time>2026-04-11T10:39:44Z</time></trkpt><trkpt lat="44.88908708577131" lon="11.810580145303359"><ele>3.0</ele><time>2026-04-11T10:39:46Z</time></trkpt><trkpt lat="44.889069505183144" lon="11.810474373943158"><ele>3.0</ele><time>2026-04-11T10:39:48Z</time></trkpt><trkpt lat="44.889057821004755" lon="11.81036758822953"><ele>3.0</ele><time>2026-04-11T10:39:50Z</time></trkpt><trkpt lat="44.88906094432795" lon="11.810265599223705"><ele>3.0</ele><time>2026-04-11T10:39:52Z</time></trkpt><trkpt lat="44.88904864949008" lon="11.810169308929746"><ele>3.0</ele><time>2026-04-11T10:39:54Z</time></trkpt><trkpt lat="44.88904327396801" lon="11.810049671465801"><ele>3.0</ele><time>2026-04-11T10:39:56Z</time></trkpt><trkpt lat="44.88904289519525" lon="11.809932216521906"><ele>2.8571428571428568</ele><time>2026-04-11T10:39:58Z</time></trkpt><trkpt lat="44.88904445372499" lon="11.809815626505943"><ele>2.7142857142857144</ele><time>2026-04-11T10:40:00Z</time></trkpt><trkpt lat="44.88904080731324" lon="11.809700626922075"><ele>2.571428571428571</ele><time>2026-04-11T10:40:02Z</time></trkpt><trkpt lat="44.8890451938361" lon="11.809594087508243"><ele>2.4285714285714284</ele><time>2026-04-11T10:40:04Z</time></trkpt><trkpt lat="44.88904027995426" lon="11.809495124653477"><ele>2.2857142857142856</ele><time>2026-04-11T10:40:06Z</time></trkpt><trkpt lat="44.8889937665869" lon="11.809429452278096"><ele>2.142857142857143</ele><time>2026-04-11T10:40:09Z</time></trkpt><trkpt lat="44.88892588946787" lon="11.809427533898544"><ele>2.0</ele><time>2026-04-11T10:40:20Z</time></trkpt><trkpt lat="44.88885994587563" lon="11.809433047378443"><ele>1.9999999999999998</ele><time>2026-04-11T10:40:22Z</time></trkpt><trkpt lat="44.88880228353752" lon="11.809358948265213"><ele>2.0</ele><time>2026-04-11T10:40:24Z</time></trkpt><trkpt lat="44.88878191539746" lon="11.80924758017573"><ele>2.0</ele><time>2026-04-11T10:40:26Z</time></trkpt><trkpt lat="44.88873504408025" lon="11.809137104945929"><ele>2.0</ele><time>2026-04-11T10:40:28Z</time></trkpt><trkpt lat="44.888694654669806" lon="11.80902863844004"><ele>1.9999999999999998</ele><time>2026-04-11T10:40:30Z</time></trkpt><trkpt lat="44.88864440298374" lon="11.80893678198599"><ele>2.0</ele><time>2026-04-11T10:40:32Z</time></trkpt><trkpt lat="44.88859486224719" lon="11.808835018805718"><ele>1.8</ele><time>2026-04-11T10:40:34Z</time></trkpt><trkpt lat="44.88853458719137" lon="11.80873562729877"><ele>1.6</ele><time>2026-04-11T10:40:36Z</time></trkpt><trkpt lat="44.88847479453852" lon="11.80862708798475"><ele>1.4000000000000001</ele><time>2026-04-11T10:40:38Z</time></trkpt><trkpt lat="44.88842315474326" lon="11.808520690976795"><ele>1.2000000000000002</ele><time>2026-04-11T10:40:40Z</time></trkpt><trkpt lat="44.888368864338894" lon="11.808422429039654"><ele>1.0</ele><time>2026-04-11T10:40:42Z</time></trkpt><trkpt lat="44.8883139627982" lon="11.808327563813783"><ele>1.3333333333333333</ele><time>2026-04-11T10:40:44Z</time></trkpt><trkpt lat="44.88826593013078" lon="11.808232048401397"><ele>1.6666666666666665</ele><time>2026-04-11T10:40:46Z</time></trkpt><trkpt lat="44.8882192647778" lon="11.80814594871404"><ele>2.0</ele><time>2026-04-11T10:40:48Z</time></trkpt><trkpt lat="44.88817480042218" lon="11.808055555148897"><ele>2.3333333333333335</ele><time>2026-04-11T10:40:50Z</time></trkpt><trkpt lat="44.888127604491515" lon="11.807971635920413"><ele>2.6666666666666665</ele><time>2026-04-11T10:40:52Z</time></trkpt><trkpt lat="44.88807299011891" lon="11.80787281654074"><ele>3.0</ele><time>2026-04-11T10:40:54Z</time></trkpt><trkpt lat="44.888021343710584" lon="11.807769999173026"><ele>3.0</ele><time>2026-04-11T10:40:56Z</time></trkpt><trkpt lat="44.88796681010394" lon="11.807675803381576"><ele>3.0</ele><time>2026-04-11T10:40:58Z</time></trkpt><trkpt lat="44.887921543352526" lon="11.80758094022746"><ele>3.0</ele><time>2026-04-11T10:41:00Z</time></trkpt><trkpt lat="44.88787219825062" lon="11.80748736865683"><ele>3.0</ele><time>2026-04-11T10:41:02Z</time></trkpt><trkpt lat="44.88782345867732" lon="11.807402130126878"><ele>3.0</ele><time>2026-04-11T10:41:04Z</time></trkpt><trkpt lat="44.88778902665168" lon="11.807308284711436"><ele>3.0</ele><time>2026-04-11T10:41:06Z</time></trkpt><trkpt lat="44.887745524758245" lon="11.807227155828159"><ele>2.9999999999999996</ele><time>2026-04-11T10:41:08Z</time></trkpt><trkpt lat="44.887703696061195" lon="11.807139009867266"><ele>3.0</ele><time>2026-04-11T10:41:10Z</time></trkpt><trkpt lat="44.88766114311828" lon="11.807049189981846"><ele>3.0</ele><time>2026-04-11T10:41:12Z</time></trkpt><trkpt lat="44.88762291042157" lon="11.806960412803415"><ele>3.0</ele><time>2026-04-11T10:41:14Z</time></trkpt><trkpt lat="44.88758862193494" lon="11.806871569583285"><ele>3.0</ele><time>2026-04-11T10:41:16Z</time></trkpt><trkpt lat="44.88756349989259" lon="11.806767720904903"><ele>2.9999999999999996</ele><time>2026-04-11T10:41:18Z</time></trkpt><trkpt lat="44.88751102155359" lon="11.806697237484187"><ele>3.0</ele><time>2026-04-11T10:41:20Z</time></trkpt><trkpt lat="44.887443047066014" lon="11.806674489779628"><ele>3.0</ele><time>2026-04-11T10:41:22Z</time></trkpt><trkpt lat="44.887356782372564" lon="11.806668741994848"><ele>3.0</ele><time>2026-04-11T10:41:24Z</time></trkpt><trkpt lat="44.88726915638469" lon="11.806628803640319"><ele>3.0</ele><time>2026-04-11T10:41:26Z</time></trkpt><trkpt lat="44.8871842406119" lon="11.806567409671365"><ele>3.0</ele><time>2026-04-11T10:41:28Z</time></trkpt><trkpt lat="44.88709547688365" lon="11.806529359199503"><ele>3.0</ele><time>2026-04-11T10:41:30Z</time></trkpt><trkpt lat="44.88700010176029" lon="11.806529251024392"><ele>3.0</ele><time>2026-04-11T10:41:32Z</time></trkpt><trkpt lat="44.886913548535716" lon="11.806548148892483"><ele>3.0</ele><time>2026-04-11T10:41:34Z</time></trkpt><trkpt lat="44.88683129163957" lon="11.806585331763076"><ele>3.0</ele><time>2026-04-11T10:41:36Z</time></trkpt><trkpt lat="44.88674445806734" lon="11.80660203355556"><ele>3.0</ele><time>2026-04-11T10:41:38Z</time></trkpt><trkpt lat="44.88665488691213" lon="11.8066382377317"><ele>3.0</ele><time>2026-04-11T10:41:40Z</time></trkpt><trkpt lat="44.8865621499409" lon="11.806673082903085"><ele>2.8333333333333335</ele><time>2026-04-11T10:41:42Z</time></trkpt><trkpt lat="44.886477255232805" lon="11.806701862002686"><ele>2.6666666666666665</ele><time>2026-04-11T10:41:44Z</time></trkpt><trkpt lat="44.88639822923087" lon="11.806734086969097"><ele>2.5</ele><time>2026-04-11T10:41:46Z</time></trkpt><trkpt lat="44.88632733266879" lon="11.806752113561341"><ele>2.333333333333333</ele><time>2026-04-11T10:41:48Z</time></trkpt><trkpt lat="44.8862547066931" lon="11.806783877570968"><ele>2.1666666666666665</ele><time>2026-04-11T10:41:50Z</time></trkpt><trkpt lat="44.886171977706766" lon="11.806819522450448"><ele>2.0</ele><time>2026-04-11T10:41:52Z</time></trkpt><trkpt lat="44.88609563020013" lon="11.806841232389546"><ele>1.8</ele><time>2026-04-11T10:41:54Z</time></trkpt><trkpt lat="44.886019227058775" lon="11.80681524846882"><ele>1.6</ele><time>2026-04-11T10:41:56Z</time></trkpt><trkpt lat="44.88597574117047" lon="11.806707610448886"><ele>1.4000000000000001</ele><time>2026-04-11T10:41:58Z</time></trkpt><trkpt lat="44.885959239143894" lon="11.806573148087079"><ele>1.2000000000000002</ele><time>2026-04-11T10:42:00Z</time></trkpt><trkpt lat="44.885944094633615" lon="11.806435837328312"><ele>1.0</ele><time>2026-04-11T10:42:02Z</time></trkpt><trkpt lat="44.885937023041194" lon="11.806299997890678"><ele>1.0</ele><time>2026-04-11T10:42:04Z</time></trkpt><trkpt lat="44.885940816407256" lon="11.80616802786468"><ele>1.0</ele><time>2026-04-11T10:42:06Z</time></trkpt><trkpt lat="44.885936212421896" lon="11.806030782366642"><ele>1.0</ele><time>2026-04-11T10:42:08Z</time></trkpt><trkpt lat="44.88592921468003" lon="11.805891027726172"><ele>1.0</ele><time>2026-04-11T10:42:10Z</time></trkpt><trkpt lat="44.88593623347948" lon="11.805757431968033"><ele>1.0</ele><time>2026-04-11T10:42:12Z</time></trkpt><trkpt lat="44.88593169606992" lon="11.805622737593565"><ele>0.9999999999999999</ele><time>2026-04-11T10:42:14Z</time></trkpt><trkpt lat="44.88592933287017" lon="11.805493652427982"><ele>1.0</ele><time>2026-04-11T10:42:16Z</time></trkpt><trkpt lat="44.8859250992395" lon="11.805371180672198"><ele>1.0</ele><time>2026-04-11T10:42:18Z</time></trkpt><trkpt lat="44.885920168656" lon="11.805257959938926"><ele>1.0</ele><time>2026-04-11T10:42:20Z</time></trkpt><trkpt lat="44.8859230695015" lon="11.805141822607762"><ele>0.9999999999999999</ele><time>2026-04-11T10:42:22Z</time></trkpt><trkpt lat="44.88591682434557" lon="11.805016503109862"><ele>1.0</ele><time>2026-04-11T10:42:24Z</time></trkpt><trkpt lat="44.88589756491054" lon="11.804885484728278"><ele>1.0</ele><time>2026-04-11T10:42:26Z</time></trkpt><trkpt lat="44.885872849666136" lon="11.804754640041079"><ele>1.0</ele><time>2026-04-11T10:42:28Z</time></trkpt><trkpt lat="44.88584427306057" lon="11.804628827065214"><ele>1.0</ele><time>2026-04-11T10:42:30Z</time></trkpt><trkpt lat="44.88581129995523" lon="11.80450597475269"><ele>1.0</ele><time>2026-04-11T10:42:32Z</time></trkpt><trkpt lat="44.885773698932496" lon="11.804383035958402"><ele>1.0</ele><time>2026-04-11T10:42:34Z</time></trkpt><trkpt lat="44.88572656215275" lon="11.804269400283783"><ele>1.2000000000000002</ele><time>2026-04-11T10:42:36Z</time></trkpt><trkpt lat="44.88568098333849" lon="11.804153751678097"><ele>1.4000000000000001</ele><time>2026-04-11T10:42:38Z</time></trkpt><trkpt lat="44.885626345764706" lon="11.804043317638916"><ele>1.6</ele><time>2026-04-11T10:42:40Z</time></trkpt><trkpt lat="44.88557662911643" lon="11.803934090339546"><ele>1.8</ele><time>2026-04-11T10:42:42Z</time></trkpt><trkpt lat="44.88552600473255" lon="11.803822507874958"><ele>2.0</ele><time>2026-04-11T10:42:44Z</time></trkpt><trkpt lat="44.88548067242113" lon="11.803722627179429"><ele>1.9999999999999998</ele><time>2026-04-11T10:42:46Z</time></trkpt><trkpt lat="44.88543378308305" lon="11.803637298610713"><ele>2.0</ele><time>2026-04-11T10:42:48Z</time></trkpt><trkpt lat="44.88540071668472" lon="11.803546354921167"><ele>2.0</ele><time>2026-04-11T10:50:07Z</time></trkpt><trkpt lat="44.885348407121974" lon="11.803433522379674"><ele>2.0</ele><time>2026-04-11T10:50:12Z</time></trkpt><trkpt lat="44.885312974729445" lon="11.803353098670723"><ele>1.9999999999999998</ele><time>2026-04-11T10:50:14Z</time></trkpt><trkpt lat="44.88526947562151" lon="11.8032552224277"><ele>2.0</ele><time>2026-04-11T10:50:17Z</time></trkpt><trkpt lat="44.88522957922737" lon="11.803159983680267"><ele>1.9999999999999998</ele><time>2026-04-11T10:50:19Z</time></trkpt><trkpt lat="44.885199998288975" lon="11.803079555607155"><ele>2.0</ele><time>2026-04-11T10:50:21Z</time></trkpt><trkpt lat="44.88516077760654" lon="11.802961045651966"><ele>2.0</ele><time>2026-04-11T10:50:24Z</time></trkpt><trkpt lat="44.885127137399984" lon="11.802852237329667"><ele>2.0</ele><time>2026-04-11T10:50:26Z</time></trkpt><trkpt lat="44.88510248903781" lon="11.80276393917233"><ele>1.9999999999999998</ele><time>2026-04-11T10:50:28Z</time></trkpt><trkpt lat="44.8850800273805" lon="11.802673343423304"><ele>2.0</ele><time>2026-04-11T10:50:30Z</time></trkpt><trkpt lat="44.885049299805864" lon="11.802552170499904"><ele>2.0</ele><time>2026-04-11T10:50:33Z</time></trkpt><trkpt lat="44.88501950792775" lon="11.802444206017674"><ele>1.9999999999999998</ele><time>2026-04-11T10:50:36Z</time></trkpt><trkpt lat="44.88499575374602" lon="11.80235015964179"><ele>2.0</ele><time>2026-04-11T10:50:38Z</time></trkpt><trkpt lat="44.88497520578985" lon="11.802250998459012"><ele>2.0</ele><time>2026-04-11T10:50:40Z</time></trkpt><trkpt lat="44.88495003188891" lon="11.802167827076751"><ele>1.9999999999999998</ele><time>2026-04-11T10:50:42Z</time></trkpt><trkpt lat="44.88493235820845" lon="11.802078566021883"><ele>2.0</ele><time>2026-04-11T10:50:44Z</time></trkpt><trkpt lat="44.884906981705214" lon="11.80198323900284"><ele>2.0</ele><time>2026-04-11T10:50:46Z</time></trkpt><trkpt lat="44.884872147933706" lon="11.80186829101658"><ele>1.8333333333333333</ele><time>2026-04-11T10:50:49Z</time></trkpt><trkpt lat="44.88483686649836" lon="11.801758396645651"><ele>1.6666666666666665</ele><time>2026-04-11T10:50:52Z</time></trkpt><trkpt lat="44.884796446553146" lon="11.801665943477294"><ele>1.5</ele><time>2026-04-11T10:50:54Z</time></trkpt><trkpt lat="44.88473964873646" lon="11.80156036552634"><ele>1.3333333333333333</ele><time>2026-04-11T10:50:57Z</time></trkpt><trkpt lat="44.88469135473644" lon="11.801489558992989"><ele>1.1666666666666665</ele><time>2026-04-11T10:50:59Z</time></trkpt><trkpt lat="44.884651253918655" lon="11.801417023015379"><ele>1.0</ele><time>2026-04-11T10:51:01Z</time></trkpt><trkpt lat="44.8846052337959" lon="11.801349373478656"><ele>0.9999999999999999</ele><time>2026-04-11T10:51:03Z</time></trkpt><trkpt lat="44.88455689600029" lon="11.801264087856875"><ele>1.0</ele><time>2026-04-11T10:51:05Z</time></trkpt><trkpt lat="44.88451044185294" lon="11.801184708222578"><ele>1.0</ele><time>2026-04-11T10:51:07Z</time></trkpt><trkpt lat="44.88446688468244" lon="11.801095267278306"><ele>1.0</ele><time>2026-04-11T10:51:09Z</time></trkpt><trkpt lat="44.88441172922723" lon="11.800990340152387"><ele>0.9999999999999999</ele><time>2026-04-11T10:51:11Z</time></trkpt><trkpt lat="44.88435749026862" lon="11.800887339148334"><ele>1.0</ele><time>2026-04-11T10:51:13Z</time></trkpt><trkpt lat="44.8843069130826" lon="11.800788598424656"><ele>1.1666666666666665</ele><time>2026-04-11T10:51:15Z</time></trkpt><trkpt lat="44.884261574313385" lon="11.800702244758725"><ele>1.3333333333333333</ele><time>2026-04-11T10:51:17Z</time></trkpt><trkpt lat="44.88421042119764" lon="11.800610006454193"><ele>1.5</ele><time>2026-04-11T10:51:19Z</time></trkpt><trkpt lat="44.88415497717086" lon="11.800514412575806"><ele>1.6666666666666665</ele><time>2026-04-11T10:51:21Z</time></trkpt><trkpt lat="44.88408964333464" lon="11.800427260250949"><ele>1.8333333333333333</ele><time>2026-04-11T10:51:23Z</time></trkpt><trkpt lat="44.88401697940286" lon="11.80035141112753"><ele>2.0</ele><time>2026-04-11T10:51:25Z</time></trkpt><trkpt lat="44.88394632668535" lon="11.800280793115279"><ele>1.9999999999999998</ele><time>2026-04-11T10:51:27Z</time></trkpt><trkpt lat="44.88387484471454" lon="11.800227488802049"><ele>2.0</ele><time>2026-04-11T10:51:29Z</time></trkpt><trkpt lat="44.883808733908175" lon="11.800173055931522"><ele>2.0</ele><time>2026-04-11T10:51:31Z</time></trkpt><trkpt lat="44.88373814771155" lon="11.800108587947378"><ele>2.0</ele><time>2026-04-11T10:51:33Z</time></trkpt><trkpt lat="44.88367975352668" lon="11.800011836692649"><ele>1.9999999999999998</ele><time>2026-04-11T10:51:35Z</time></trkpt><trkpt lat="44.88363322479111" lon="11.799914656257297"><ele>2.0</ele><time>2026-04-11T10:51:37Z</time></trkpt><trkpt lat="44.88359188286614" lon="11.799800107419658"><ele>1.9999999999999998</ele><time>2026-04-11T10:51:39Z</time></trkpt><trkpt lat="44.883559411412726" lon="11.799683354818827"><ele>2.0</ele><time>2026-04-11T10:51:41Z</time></trkpt><trkpt lat="44.88352666857013" lon="11.799565516784497"><ele>2.0</ele><time>2026-04-11T10:51:43Z</time></trkpt><trkpt lat="44.883491884599856" lon="11.799454362212481"><ele>2.0</ele><time>2026-04-11T10:51:45Z</time></trkpt><trkpt lat="44.88346322579319" lon="11.799335255799251"><ele>1.9999999999999998</ele><time>2026-04-11T10:51:47Z</time></trkpt><trkpt lat="44.88343416810984" lon="11.79921347138366"><ele>2.0</ele><time>2026-04-11T10:51:49Z</time></trkpt><trkpt lat="44.883413155483744" lon="11.799089200367625"><ele>2.0</ele><time>2026-04-11T10:51:51Z</time></trkpt><trkpt lat="44.88339240941655" lon="11.798959932618658"><ele>2.0</ele><time>2026-04-11T10:51:53Z</time></trkpt><trkpt lat="44.88339162631614" lon="11.798827640762097"><ele>2.0</ele><time>2026-04-11T10:51:55Z</time></trkpt><trkpt lat="44.88340280420265" lon="11.79869411330701"><ele>2.0</ele><time>2026-04-11T10:51:57Z</time></trkpt><trkpt lat="44.883420800673996" lon="11.79856734318043"><ele>2.0</ele><time>2026-04-11T10:51:59Z</time></trkpt><trkpt lat="44.88343924768484" lon="11.798434174553597"><ele>2.0</ele><time>2026-04-11T10:52:01Z</time></trkpt><trkpt lat="44.88346008737115" lon="11.798305144099663"><ele>2.0</ele><time>2026-04-11T10:52:03Z</time></trkpt><trkpt lat="44.883460800951426" lon="11.798178480073545"><ele>2.0</ele><time>2026-04-11T10:52:05Z</time></trkpt><trkpt lat="44.88345899908655" lon="11.798053115069846"><ele>2.0</ele><time>2026-04-11T10:52:07Z</time></trkpt><trkpt lat="44.88345597293596" lon="11.797924304796537"><ele>2.0</ele><time>2026-04-11T10:52:09Z</time></trkpt><trkpt lat="44.88344141262224" lon="11.797792786402207"><ele>1.8</ele><time>2026-04-11T10:52:11Z</time></trkpt><trkpt lat="44.88342494514198" lon="11.797661011368467"><ele>1.6</ele><time>2026-04-11T10:52:13Z</time></trkpt><trkpt lat="44.883402694531945" lon="11.79753299351005"><ele>1.4000000000000001</ele><time>2026-04-11T10:52:15Z</time></trkpt><trkpt lat="44.8833696966924" lon="11.797405591541434"><ele>1.2000000000000002</ele><time>2026-04-11T10:52:17Z</time></trkpt><trkpt lat="44.88334019152074" lon="11.797282078764537"><ele>1.0</ele><time>2026-04-11T10:52:19Z</time></trkpt><trkpt lat="44.883295525452034" lon="11.797159669857727"><ele>1.0</ele><time>2026-04-11T10:52:21Z</time></trkpt><trkpt lat="44.88324948086155" lon="11.797048231764443"><ele>1.0</ele><time>2026-04-11T10:52:23Z</time></trkpt><trkpt lat="44.883187619354" lon="11.796955145065636"><ele>1.0</ele><time>2026-04-11T10:52:25Z</time></trkpt><trkpt lat="44.88312203948034" lon="11.796860944088413"><ele>1.0</ele><time>2026-04-11T10:52:27Z</time></trkpt><trkpt lat="44.88305317632411" lon="11.79677372656074"><ele>1.0</ele><time>2026-04-11T10:52:29Z</time></trkpt><trkpt lat="44.882980812206654" lon="11.796684314002757"><ele>1.0</ele><time>2026-04-11T10:52:31Z</time></trkpt><trkpt lat="44.882919928266986" lon="11.796591765791947"><ele>1.0</ele><time>2026-04-11T10:52:33Z</time></trkpt><trkpt lat="44.882855594118055" lon="11.796495181848577"><ele>1.0</ele><time>2026-04-11T10:52:35Z</time></trkpt><trkpt lat="44.88278829376081" lon="11.796407499416896"><ele>1.0</ele><time>2026-04-11T10:52:37Z</time></trkpt><trkpt lat="44.88273154508824" lon="11.796308787576757"><ele>1.0</ele><time>2026-04-11T10:52:39Z</time></trkpt><trkpt lat="44.88267150559432" lon="11.796205827516106"><ele>1.0</ele><time>2026-04-11T10:52:41Z</time></trkpt><trkpt lat="44.88261486086412" lon="11.796101366184397"><ele>1.0</ele><time>2026-04-11T10:52:43Z</time></trkpt><trkpt lat="44.88256551372044" lon="11.796000515427956"><ele>1.0</ele><time>2026-04-11T10:52:45Z</time></trkpt><trkpt lat="44.882503328445125" lon="11.795890897810068"><ele>1.0</ele><time>2026-04-11T10:52:47Z</time></trkpt><trkpt lat="44.88245382938376" lon="11.795782746984825"><ele>1.0</ele><time>2026-04-11T10:52:49Z</time></trkpt><trkpt lat="44.88240479892644" lon="11.795665714456925"><ele>1.0</ele><time>2026-04-11T10:52:51Z</time></trkpt><trkpt lat="44.882357348210725" lon="11.79555704940458"><ele>1.0</ele><time>2026-04-11T10:52:53Z</time></trkpt><trkpt lat="44.88230982952555" lon="11.79544163048399"><ele>1.0</ele><time>2026-04-11T10:52:55Z</time></trkpt><trkpt lat="44.88227360729877" lon="11.795324223685098"><ele>1.0</ele><time>2026-04-11T10:52:57Z</time></trkpt><trkpt lat="44.88223331775255" lon="11.795198614730525"><ele>1.0</ele><time>2026-04-11T10:52:59Z</time></trkpt><trkpt lat="44.88220124834613" lon="11.795073948344273"><ele>1.0</ele><time>2026-04-11T10:53:01Z</time></trkpt><trkpt lat="44.88217500987936" lon="11.79494470471633"><ele>1.0</ele><time>2026-04-11T10:53:03Z</time></trkpt><trkpt lat="44.882156699042675" lon="11.794809777469789"><ele>1.0</ele><time>2026-04-11T10:53:05Z</time></trkpt><trkpt lat="44.88214254458353" lon="11.794681175942843"><ele>1.0</ele><time>2026-04-11T10:53:07Z</time></trkpt><trkpt lat="44.882134621119356" lon="11.794549469314768"><ele>1.0</ele><time>2026-04-11T10:53:09Z</time></trkpt><trkpt lat="44.882124750950034" lon="11.794417795713764"><ele>1.1666666666666665</ele><time>2026-04-11T10:53:11Z</time></trkpt><trkpt lat="44.88210984967611" lon="11.794287252358348"><ele>1.3333333333333333</ele><time>2026-04-11T10:53:13Z</time></trkpt><trkpt lat="44.8821114828056" lon="11.79416270816798"><ele>1.5</ele><time>2026-04-11T10:53:15Z</time></trkpt><trkpt lat="44.88211234460446" lon="11.794044690126444"><ele>1.6666666666666665</ele><time>2026-04-11T10:53:17Z</time></trkpt><trkpt lat="44.88210986663458" lon="11.793933446966397"><ele>1.8333333333333333</ele><time>2026-04-11T10:53:19Z</time></trkpt><trkpt lat="44.882107051210525" lon="11.79381617269623"><ele>2.0</ele><time>2026-04-11T10:53:21Z</time></trkpt><trkpt lat="44.882107382901395" lon="11.793686546574456"><ele>1.9999999999999998</ele><time>2026-04-11T10:53:23Z</time></trkpt><trkpt lat="44.88211278030929" lon="11.793568505463089"><ele>2.0</ele><time>2026-04-11T10:53:25Z</time></trkpt><trkpt lat="44.88212080311454" lon="11.793457636104247"><ele>2.0</ele><time>2026-04-11T10:53:27Z</time></trkpt><trkpt lat="44.88212181546347" lon="11.793358301111251"><ele>2.0</ele><time>2026-04-11T10:53:29Z</time></trkpt><trkpt lat="44.882123580667006" lon="11.793262283392488"><ele>1.9999999999999998</ele><time>2026-04-11T10:53:31Z</time></trkpt><trkpt lat="44.88212418084374" lon="11.79315013800053"><ele>2.0</ele><time>2026-04-11T10:53:33Z</time></trkpt><trkpt lat="44.882114049195174" lon="11.793027154491714"><ele>1.9999999999999998</ele><time>2026-04-11T10:53:35Z</time></trkpt><trkpt lat="44.88209230127615" lon="11.792906339480083"><ele>2.0</ele><time>2026-04-11T10:53:37Z</time></trkpt><trkpt lat="44.88206103045745" lon="11.792786812503289"><ele>2.0</ele><time>2026-04-11T10:53:39Z</time></trkpt><trkpt lat="44.88202402359908" lon="11.792676850459857"><ele>2.0</ele><time>2026-04-11T10:53:41Z</time></trkpt><trkpt lat="44.88197996151006" lon="11.792569043395414"><ele>1.9999999999999998</ele><time>2026-04-11T10:53:43Z</time></trkpt><trkpt lat="44.88192638218183" lon="11.792485552412618"><ele>2.0</ele><time>2026-04-11T10:53:45Z</time></trkpt><trkpt lat="44.88187658773058" lon="11.792414263785727"><ele>1.9999999999999998</ele><time>2026-04-11T10:53:47Z</time></trkpt><trkpt lat="44.88182210442678" lon="11.79234752261453"><ele>2.0</ele><time>2026-04-11T10:53:49Z</time></trkpt><trkpt lat="44.88175475755993" lon="11.792272711684284"><ele>2.0</ele><time>2026-04-11T10:53:51Z</time></trkpt><trkpt lat="44.88169308601153" lon="11.79219143056082"><ele>2.0</ele><time>2026-04-11T10:53:53Z</time></trkpt><trkpt lat="44.881634857090326" lon="11.79211927108299"><ele>1.9999999999999998</ele><time>2026-04-11T10:53:55Z</time></trkpt><trkpt lat="44.88157724653573" lon="11.792049997876163"><ele>2.0</ele><time>2026-04-11T10:53:57Z</time></trkpt><trkpt lat="44.881524274933646" lon="11.791978617145604"><ele>2.0</ele><time>2026-04-11T10:53:59Z</time></trkpt><trkpt lat="44.881472306987106" lon="11.791905610418503"><ele>1.9999999999999998</ele><time>2026-04-11T10:54:01Z</time></trkpt><trkpt lat="44.88141982696624" lon="11.791815416703322"><ele>2.0</ele><time>2026-04-11T10:54:03Z</time></trkpt><trkpt lat="44.881370737876686" lon="11.79172909763312"><ele>2.0</ele><time>2026-04-11T10:54:05Z</time></trkpt><trkpt lat="44.88133240945886" lon="11.791644246332885"><ele>1.9999999999999998</ele><time>2026-04-11T10:54:07Z</time></trkpt><trkpt lat="44.88129386003215" lon="11.791562432667579"><ele>2.0</ele><time>2026-04-11T10:54:09Z</time></trkpt><trkpt lat="44.88125901031613" lon="11.791474004074907"><ele>2.0</ele><time>2026-04-11T10:54:11Z</time></trkpt><trkpt lat="44.88122398255729" lon="11.791362729761467"><ele>1.857142857142857</ele><time>2026-04-11T10:54:13Z</time></trkpt><trkpt lat="44.88119089777024" lon="11.791261280356212"><ele>1.714285714285714</ele><time>2026-04-11T10:54:15Z</time></trkpt><trkpt lat="44.88116128515839" lon="11.791167643044728"><ele>1.5714285714285714</ele><time>2026-04-11T10:54:17Z</time></trkpt><trkpt lat="44.88112760029055" lon="11.791084534251366"><ele>1.4285714285714284</ele><time>2026-04-11T10:54:19Z</time></trkpt><trkpt lat="44.88110089173188" lon="11.790998046212337"><ele>1.2857142857142856</ele><time>2026-04-11T10:54:21Z</time></trkpt><trkpt lat="44.88107456283416" lon="11.79090623209987"><ele>1.1428571428571428</ele><time>2026-04-11T10:54:23Z</time></trkpt><trkpt lat="44.88105429571703" lon="11.790820197752497"><ele>1.0</ele><time>2026-04-11T10:54:25Z</time></trkpt><trkpt lat="44.88102248485601" lon="11.790707938264358"><ele>1.0</ele><time>2026-04-11T10:54:28Z</time></trkpt><trkpt lat="44.88100537404197" lon="11.79061822923242"><ele>0.9999999999999999</ele><time>2026-04-11T10:54:30Z</time></trkpt><trkpt lat="44.880980218474726" lon="11.790528912723696"><ele>1.0</ele><time>2026-04-11T10:54:32Z</time></trkpt><trkpt lat="44.880961515441385" lon="11.790439662958226"><ele>1.0</ele><time>2026-04-11T10:54:34Z</time></trkpt><trkpt lat="44.88094364758306" lon="11.790351927749846"><ele>0.9999999999999999</ele><time>2026-04-11T10:54:36Z</time></trkpt><trkpt lat="44.880926766204574" lon="11.790255853136525"><ele>1.0</ele><time>2026-04-11T10:54:38Z</time></trkpt><trkpt lat="44.880914836539404" lon="11.790131746368477"><ele>1.0</ele><time>2026-04-11T10:54:41Z</time></trkpt><trkpt lat="44.88088867130846" lon="11.790002513225671"><ele>1.3333333333333333</ele><time>2026-04-11T10:54:44Z</time></trkpt><trkpt lat="44.880875078597384" lon="11.789909440989165"><ele>1.6666666666666665</ele><time>2026-04-11T10:54:46Z</time></trkpt><trkpt lat="44.88086262498935" lon="11.78981624682269"><ele>2.0</ele><time>2026-04-11T10:54:48Z</time></trkpt><trkpt lat="44.88083198150589" lon="11.789695418839196"><ele>2.3333333333333335</ele><time>2026-04-11T10:54:50Z</time></trkpt><trkpt lat="44.88078731404927" lon="11.789579371296892"><ele>2.6666666666666665</ele><time>2026-04-11T10:54:52Z</time></trkpt><trkpt lat="44.88073449317569" lon="11.789483074789516"><ele>3.0</ele><time>2026-04-11T10:54:54Z</time></trkpt><trkpt lat="44.88067057229358" lon="11.78938582525653"><ele>3.0</ele><time>2026-04-11T10:54:56Z</time></trkpt><trkpt lat="44.88060449494087" lon="11.789300715746714"><ele>3.0</ele><time>2026-04-11T10:54:58Z</time></trkpt><trkpt lat="44.88053047245825" lon="11.789224046363257"><ele>3.0</ele><time>2026-04-11T10:55:00Z</time></trkpt><trkpt lat="44.88045421645102" lon="11.789137471834895"><ele>3.0</ele><time>2026-04-11T10:55:02Z</time></trkpt><trkpt lat="44.88038057333525" lon="11.789055722631556"><ele>3.0</ele><time>2026-04-11T10:55:04Z</time></trkpt><trkpt lat="44.88031529623716" lon="11.788956695805947"><ele>3.0</ele><time>2026-04-11T10:55:06Z</time></trkpt><trkpt lat="44.88026033920046" lon="11.788849243644139"><ele>3.0</ele><time>2026-04-11T10:55:08Z</time></trkpt><trkpt lat="44.880222959370876" lon="11.788729231670924"><ele>3.0</ele><time>2026-04-11T10:55:10Z</time></trkpt><trkpt lat="44.88020564976541" lon="11.78859549553844"><ele>3.0</ele><time>2026-04-11T10:55:12Z</time></trkpt><trkpt lat="44.88020844191593" lon="11.78845946686334"><ele>3.0</ele><time>2026-04-11T10:55:14Z</time></trkpt><trkpt lat="44.88022867080353" lon="11.788327156393015"><ele>2.6</ele><time>2026-04-11T10:55:16Z</time></trkpt><trkpt lat="44.880244466967426" lon="11.788195776974428"><ele>2.1999999999999997</ele><time>2026-04-11T10:55:18Z</time></trkpt><trkpt lat="44.88026088243795" lon="11.788063095364123"><ele>1.8</ele><time>2026-04-11T10:55:20Z</time></trkpt><trkpt lat="44.88028598095426" lon="11.787930672731788"><ele>1.4</ele><time>2026-04-11T10:55:22Z</time></trkpt><trkpt lat="44.88029344940078" lon="11.787794740843673"><ele>1.0</ele><time>2026-04-11T10:55:24Z</time></trkpt><trkpt lat="44.880290741541835" lon="11.787659353782145"><ele>1.0</ele><time>2026-04-11T10:55:26Z</time></trkpt><trkpt lat="44.88029665339965" lon="11.787529986724195"><ele>1.0</ele><time>2026-04-11T10:55:28Z</time></trkpt><trkpt lat="44.880293300679085" lon="11.787394852149577"><ele>1.0</ele><time>2026-04-11T10:55:30Z</time></trkpt><trkpt lat="44.880295228704995" lon="11.787261908736612"><ele>1.0</ele><time>2026-04-11T10:55:32Z</time></trkpt><trkpt lat="44.88029900674057" lon="11.78712992514239"><ele>1.0</ele><time>2026-04-11T10:55:34Z</time></trkpt><trkpt lat="44.880294640525555" lon="11.786995769556098"><ele>1.0</ele><time>2026-04-11T10:55:36Z</time></trkpt><trkpt lat="44.88029893102345" lon="11.786861454838215"><ele>1.0</ele><time>2026-04-11T10:55:38Z</time></trkpt><trkpt lat="44.880296855994516" lon="11.786731873927566"><ele>1.0</ele><time>2026-04-11T10:55:40Z</time></trkpt><trkpt lat="44.88030066676719" lon="11.786596477083997"><ele>1.0</ele><time>2026-04-11T10:55:42Z</time></trkpt><trkpt lat="44.88030060497566" lon="11.786464949791199"><ele>1.0</ele><time>2026-04-11T10:55:44Z</time></trkpt><trkpt lat="44.88030131444414" lon="11.786332214360066"><ele>1.0</ele><time>2026-04-11T10:55:46Z</time></trkpt><trkpt lat="44.88030751483514" lon="11.78619789314801"><ele>1.0</ele><time>2026-04-11T10:55:48Z</time></trkpt><trkpt lat="44.8803090113176" lon="11.786065212420294"><ele>1.0</ele><time>2026-04-11T10:55:50Z</time></trkpt><trkpt lat="44.88033081176051" lon="11.785938410945217"><ele>1.0</ele><time>2026-04-11T10:55:52Z</time></trkpt><trkpt lat="44.880352785267974" lon="11.785805613387694"><ele>1.0</ele><time>2026-04-11T10:55:54Z</time></trkpt><trkpt lat="44.88038492564851" lon="11.78568174563891"><ele>1.0</ele><time>2026-04-11T10:55:56Z</time></trkpt><trkpt lat="44.88042031964277" lon="11.7855626524196"><ele>1.0</ele><time>2026-04-11T10:55:58Z</time></trkpt><trkpt lat="44.88045248649105" lon="11.785440214704373"><ele>1.0</ele><time>2026-04-11T10:56:00Z</time></trkpt><trkpt lat="44.880498082206074" lon="11.785325443645638"><ele>1.0</ele><time>2026-04-11T10:56:02Z</time></trkpt><trkpt lat="44.88054714755788" lon="11.785210553516546"><ele>1.0</ele><time>2026-04-11T10:56:04Z</time></trkpt><trkpt lat="44.88059067663255" lon="11.785095219846793"><ele>1.2000000000000002</ele><time>2026-04-11T10:56:06Z</time></trkpt><trkpt lat="44.88063467118593" lon="11.784982899875345"><ele>1.4000000000000001</ele><time>2026-04-11T10:56:08Z</time></trkpt><trkpt lat="44.880684251871145" lon="11.784871966753197"><ele>1.6</ele><time>2026-04-11T10:56:10Z</time></trkpt><trkpt lat="44.88071868102595" lon="11.784752173823868"><ele>1.8</ele><time>2026-04-11T10:56:12Z</time></trkpt><trkpt lat="44.88074977359578" lon="11.784624862180088"><ele>2.0</ele><time>2026-04-11T10:56:14Z</time></trkpt><trkpt lat="44.88078024994185" lon="11.7844933501606"><ele>2.0</ele><time>2026-04-11T10:56:16Z</time></trkpt><trkpt lat="44.88080672284874" lon="11.784361791162372"><ele>2.0</ele><time>2026-04-11T10:56:18Z</time></trkpt><trkpt lat="44.88083692743444" lon="11.784233771537759"><ele>2.0</ele><time>2026-04-11T10:56:20Z</time></trkpt><trkpt lat="44.880861204524216" lon="11.784103000282844"><ele>2.0</ele><time>2026-04-11T10:56:22Z</time></trkpt><trkpt lat="44.880888017849045" lon="11.783979971840353"><ele>2.0</ele><time>2026-04-11T10:56:24Z</time></trkpt><trkpt lat="44.88091102051412" lon="11.783849198500002"><ele>2.0</ele><time>2026-04-11T10:56:26Z</time></trkpt><trkpt lat="44.88094256301159" lon="11.7837238572538"><ele>2.0</ele><time>2026-04-11T10:56:28Z</time></trkpt><trkpt lat="44.880964112179484" lon="11.783594379176444"><ele>2.0</ele><time>2026-04-11T10:56:30Z</time></trkpt><trkpt lat="44.88098684244571" lon="11.783465812678935"><ele>2.0</ele><time>2026-04-11T10:56:32Z</time></trkpt><trkpt lat="44.88100287129472" lon="11.783334522013416"><ele>2.0</ele><time>2026-04-11T10:56:34Z</time></trkpt><trkpt lat="44.88101909587122" lon="11.783209658087475"><ele>1.8</ele><time>2026-04-11T10:56:36Z</time></trkpt><trkpt lat="44.88102305360345" lon="11.78307618320749"><ele>1.6</ele><time>2026-04-11T10:56:38Z</time></trkpt><trkpt lat="44.8810300829254" lon="11.782946953680918"><ele>1.4000000000000001</ele><time>2026-04-11T10:56:40Z</time></trkpt><trkpt lat="44.881034413267166" lon="11.78281697235375"><ele>1.2000000000000002</ele><time>2026-04-11T10:56:42Z</time></trkpt><trkpt lat="44.881026116761014" lon="11.782686454820173"><ele>1.0</ele><time>2026-04-11T10:56:44Z</time></trkpt><trkpt lat="44.881018804620474" lon="11.782556123723536"><ele>1.0</ele><time>2026-04-11T10:56:46Z</time></trkpt><trkpt lat="44.88100138400072" lon="11.782427724433036"><ele>1.0</ele><time>2026-04-11T10:56:48Z</time></trkpt><trkpt lat="44.8809836801359" lon="11.782298773447112"><ele>1.0</ele><time>2026-04-11T10:56:50Z</time></trkpt><trkpt lat="44.88096296254628" lon="11.78217359042137"><ele>1.0</ele><time>2026-04-11T10:56:52Z</time></trkpt><trkpt lat="44.88093934079182" lon="11.782046294019821"><ele>1.0</ele><time>2026-04-11T10:56:54Z</time></trkpt><trkpt lat="44.88091042664092" lon="11.781919623581183"><ele>1.0</ele><time>2026-04-11T10:56:56Z</time></trkpt><trkpt lat="44.880885480863704" lon="11.781787540589852"><ele>1.0</ele><time>2026-04-11T10:56:58Z</time></trkpt><trkpt lat="44.88085705051963" lon="11.78166070825108"><ele>1.0</ele><time>2026-04-11T10:57:00Z</time></trkpt><trkpt lat="44.880831769791996" lon="11.781532143983409"><ele>1.0</ele><time>2026-04-11T10:57:02Z</time></trkpt><trkpt lat="44.880794975196956" lon="11.781411506948473"><ele>1.0</ele><time>2026-04-11T10:57:04Z</time></trkpt><trkpt lat="44.88074539807328" lon="11.781297832309624"><ele>1.0</ele><time>2026-04-11T10:57:06Z</time></trkpt><trkpt lat="44.88067621652884" lon="11.781206686776423"><ele>1.0</ele><time>2026-04-11T10:57:08Z</time></trkpt><trkpt lat="44.88061037506239" lon="11.781122046297234"><ele>1.0</ele><time>2026-04-11T10:57:10Z</time></trkpt><trkpt lat="44.88052987944291" lon="11.781054151503511"><ele>1.0</ele><time>2026-04-11T10:57:12Z</time></trkpt><trkpt lat="44.88044748209701" lon="11.78099413922688"><ele>1.0</ele><time>2026-04-11T10:57:14Z</time></trkpt><trkpt lat="44.88036354958719" lon="11.780937139149382"><ele>1.2000000000000002</ele><time>2026-04-11T10:57:16Z</time></trkpt><trkpt lat="44.88027859396254" lon="11.78088604319743"><ele>1.4000000000000001</ele><time>2026-04-11T10:57:18Z</time></trkpt><trkpt lat="44.88019303410463" lon="11.780833700945822"><ele>1.6</ele><time>2026-04-11T10:57:20Z</time></trkpt><trkpt lat="44.88010380786152" lon="11.780797326603253"><ele>1.8</ele><time>2026-04-11T10:57:22Z</time></trkpt><trkpt lat="44.88001713507417" lon="11.780760879631758"><ele>2.0</ele><time>2026-04-11T10:57:24Z</time></trkpt><trkpt lat="44.87993950466395" lon="11.78071871560625"><ele>1.9999999999999998</ele><time>2026-04-11T10:57:26Z</time></trkpt><trkpt lat="44.87985807721995" lon="11.780672147072309"><ele>2.0</ele><time>2026-04-11T10:57:28Z</time></trkpt><trkpt lat="44.879775241863136" lon="11.78062091993929"><ele>2.0</ele><time>2026-04-11T10:57:30Z</time></trkpt><trkpt lat="44.87969570078693" lon="11.78057677744032"><ele>2.0</ele><time>2026-04-11T10:57:32Z</time></trkpt><trkpt lat="44.87962016320743" lon="11.780538482054325"><ele>1.9999999999999998</ele><time>2026-04-11T10:57:34Z</time></trkpt><trkpt lat="44.87953472807608" lon="11.780516296132044"><ele>2.0</ele><time>2026-04-11T10:57:36Z</time></trkpt><trkpt lat="44.879446098229494" lon="11.780478825210151"><ele>1.9999999999999998</ele><time>2026-04-11T10:57:38Z</time></trkpt><trkpt lat="44.879356672619835" lon="11.780444983892616"><ele>2.0</ele><time>2026-04-11T10:57:40Z</time></trkpt><trkpt lat="44.87927277281301" lon="11.780416558265568"><ele>2.0</ele><time>2026-04-11T10:57:42Z</time></trkpt><trkpt lat="44.87919817851169" lon="11.780396490265623"><ele>2.0</ele><time>2026-04-11T10:57:44Z</time></trkpt><trkpt lat="44.879133781015675" lon="11.780378910888237"><ele>1.9999999999999998</ele><time>2026-04-11T10:57:46Z</time></trkpt><trkpt lat="44.8790701338874" lon="11.780361199086371"><ele>2.0</ele><time>2026-04-11T10:57:48Z</time></trkpt><trkpt lat="44.87898575366451" lon="11.780339153415216"><ele>1.9999999999999998</ele><time>2026-04-11T10:57:51Z</time></trkpt><trkpt lat="44.878902219329554" lon="11.780313905968006"><ele>2.0</ele><time>2026-04-11T10:57:54Z</time></trkpt><trkpt lat="44.878814419752594" lon="11.780292176887109"><ele>2.0</ele><time>2026-04-11T10:57:57Z</time></trkpt><trkpt lat="44.87874137084888" lon="11.780276908510322"><ele>2.0</ele><time>2026-04-11T10:57:59Z</time></trkpt><trkpt lat="44.878653970257176" lon="11.780263749291102"><ele>1.9999999999999998</ele><time>2026-04-11T10:58:01Z</time></trkpt><trkpt lat="44.8785681668879" lon="11.780249676460217"><ele>2.0</ele><time>2026-04-11T10:58:03Z</time></trkpt><trkpt lat="44.87848365728821" lon="11.780239210131509"><ele>2.0</ele><time>2026-04-11T10:58:05Z</time></trkpt><trkpt lat="44.87840789700904" lon="11.780237541967198"><ele>1.9999999999999998</ele><time>2026-04-11T10:58:07Z</time></trkpt><trkpt lat="44.87834176406966" lon="11.780236599480608"><ele>2.0</ele><time>2026-04-11T10:58:09Z</time></trkpt><trkpt lat="44.87827622714054" lon="11.78022632796455"><ele>2.0</ele><time>2026-04-11T10:58:11Z</time></trkpt><trkpt lat="44.87820806369574" lon="11.780213225471385"><ele>1.9999999999999998</ele><time>2026-04-11T10:58:13Z</time></trkpt><trkpt lat="44.87811757128638" lon="11.780200065966342"><ele>2.0</ele><time>2026-04-11T10:58:16Z</time></trkpt><trkpt lat="44.878040790424265" lon="11.780199189184085"><ele>2.0</ele><time>2026-04-11T10:58:18Z</time></trkpt><trkpt lat="44.877955951437634" lon="11.780175328359126"><ele>1.8333333333333333</ele><time>2026-04-11T10:58:20Z</time></trkpt><trkpt lat="44.87787233465653" lon="11.78014363793325"><ele>1.6666666666666665</ele><time>2026-04-11T10:58:22Z</time></trkpt><trkpt lat="44.87778401619792" lon="11.780109645740685"><ele>1.5</ele><time>2026-04-11T10:58:24Z</time></trkpt><trkpt lat="44.87769605644756" lon="11.780071422021832"><ele>1.3333333333333333</ele><time>2026-04-11T10:58:26Z</time></trkpt><trkpt lat="44.8776122528668" lon="11.780026556223714"><ele>1.1666666666666665</ele><time>2026-04-11T10:58:28Z</time></trkpt><trkpt lat="44.87753199355125" lon="11.78000266044439"><ele>1.0</ele><time>2026-04-11T10:58:30Z</time></trkpt><trkpt lat="44.8774639314711" lon="11.77998002281793"><ele>1.1666666666666665</ele><time>2026-04-11T10:58:32Z</time></trkpt><trkpt lat="44.87741169865826" lon="11.779915222090413"><ele>1.3333333333333333</ele><time>2026-04-11T10:58:34Z</time></trkpt><trkpt lat="44.87739769571072" lon="11.779809071335176"><ele>1.5</ele><time>2026-04-11T10:58:36Z</time></trkpt><trkpt lat="44.87737890733966" lon="11.779698188876644"><ele>1.6666666666666665</ele><time>2026-04-11T10:58:38Z</time></trkpt><trkpt lat="44.87736319099419" lon="11.779593055734596"><ele>1.8333333333333333</ele><time>2026-04-11T10:58:40Z</time></trkpt><trkpt lat="44.877354164196845" lon="11.779476363336295"><ele>2.0</ele><time>2026-04-11T10:58:42Z</time></trkpt><trkpt lat="44.87733359898488" lon="11.779347111316909"><ele>2.0</ele><time>2026-04-11T10:58:44Z</time></trkpt><trkpt lat="44.87731996757077" lon="11.779216666284674"><ele>2.0</ele><time>2026-04-11T10:58:46Z</time></trkpt><trkpt lat="44.87730164451304" lon="11.779080521326478"><ele>2.0</ele><time>2026-04-11T10:58:48Z</time></trkpt><trkpt lat="44.87727935418867" lon="11.778955857800222"><ele>2.0</ele><time>2026-04-11T10:58:50Z</time></trkpt><trkpt lat="44.8772654134667" lon="11.77882516601175"><ele>2.0</ele><time>2026-04-11T10:58:52Z</time></trkpt><trkpt lat="44.87725059935168" lon="11.778700878110826"><ele>1.9999999999999998</ele><time>2026-04-11T10:58:54Z</time></trkpt><trkpt lat="44.877208325125835" lon="11.778600450901621"><ele>2.0</ele><time>2026-04-11T10:58:56Z</time></trkpt><trkpt lat="44.87717713905861" lon="11.778497357833798"><ele>2.0</ele><time>2026-04-11T10:58:58Z</time></trkpt><trkpt lat="44.87713069672894" lon="11.77840920510261"><ele>2.0</ele><time>2026-04-11T10:59:00Z</time></trkpt><trkpt lat="44.877085749904346" lon="11.778322988182852"><ele>1.9999999999999998</ele><time>2026-04-11T10:59:02Z</time></trkpt><trkpt lat="44.87704081907157" lon="11.778254432365403"><ele>2.0</ele><time>2026-04-11T10:59:04Z</time></trkpt><trkpt lat="44.876970889185245" lon="11.778154487301986"><ele>1.8333333333333333</ele><time>2026-04-11T10:59:07Z</time></trkpt><trkpt lat="44.87690591138801" lon="11.77807528736564"><ele>1.6666666666666665</ele><time>2026-04-11T10:59:09Z</time></trkpt><trkpt lat="44.876839337627416" lon="11.777999218523517"><ele>1.5</ele><time>2026-04-11T10:59:11Z</time></trkpt><trkpt lat="44.87677575795474" lon="11.777924286137221"><ele>1.3333333333333333</ele><time>2026-04-11T10:59:13Z</time></trkpt><trkpt lat="44.876713799071815" lon="11.777849408833905"><ele>1.1666666666666665</ele><time>2026-04-11T10:59:15Z</time></trkpt><trkpt lat="44.876648799768745" lon="11.777766389009766"><ele>1.0</ele><time>2026-04-11T10:59:17Z</time></trkpt><trkpt lat="44.87658369266674" lon="11.77767782283959"><ele>1.4</ele><time>2026-04-11T10:59:19Z</time></trkpt><trkpt lat="44.87652599559912" lon="11.777579624096585"><ele>1.8</ele><time>2026-04-11T10:59:21Z</time></trkpt><trkpt lat="44.87647846258783" lon="11.777471099997904"><ele>2.1999999999999997</ele><time>2026-04-11T10:59:23Z</time></trkpt><trkpt lat="44.876439098863976" lon="11.77735188065251"><ele>2.6</ele><time>2026-04-11T10:59:25Z</time></trkpt><trkpt lat="44.87639591214611" lon="11.777240203488981"><ele>3.0</ele><time>2026-04-11T10:59:27Z</time></trkpt><trkpt lat="44.876357898386196" lon="11.777114144370866"><ele>3.0</ele><time>2026-04-11T10:59:29Z</time></trkpt><trkpt lat="44.87631433564379" lon="11.777003024035864"><ele>3.0</ele><time>2026-04-11T10:59:31Z</time></trkpt><trkpt lat="44.87627883026272" lon="11.776879696106079"><ele>3.0</ele><time>2026-04-11T10:59:33Z</time></trkpt><trkpt lat="44.87623257227741" lon="11.776760842840988"><ele>3.0</ele><time>2026-04-11T10:59:35Z</time></trkpt><trkpt lat="44.8762031488662" lon="11.776637162919764"><ele>3.0</ele><time>2026-04-11T10:59:37Z</time></trkpt><trkpt lat="44.876154020081074" lon="11.77652499237579"><ele>2.8333333333333335</ele><time>2026-04-11T10:59:39Z</time></trkpt><trkpt lat="44.87612746217008" lon="11.776399011258135"><ele>2.6666666666666665</ele><time>2026-04-11T10:59:41Z</time></trkpt><trkpt lat="44.8760970177456" lon="11.776273448658053"><ele>2.5</ele><time>2026-04-11T10:59:43Z</time></trkpt><trkpt lat="44.87606655262572" lon="11.77615950466973"><ele>2.333333333333333</ele><time>2026-04-11T10:59:45Z</time></trkpt><trkpt lat="44.876041713741515" lon="11.77605471983761"><ele>2.1666666666666665</ele><time>2026-04-11T10:59:47Z</time></trkpt><trkpt lat="44.8760267351689" lon="11.775949346283472"><ele>2.0</ele><time>2026-04-11T10:59:49Z</time></trkpt><trkpt lat="44.87599609885607" lon="11.775831017840321"><ele>1.8333333333333333</ele><time>2026-04-11T10:59:51Z</time></trkpt><trkpt lat="44.875959837704144" lon="11.775714985699672"><ele>1.6666666666666665</ele><time>2026-04-11T10:59:53Z</time></trkpt><trkpt lat="44.87593352232146" lon="11.775601041788304"><ele>1.5</ele><time>2026-04-11T10:59:55Z</time></trkpt><trkpt lat="44.875909257668134" lon="11.775499648980436"><ele>1.3333333333333333</ele><time>2026-04-11T10:59:57Z</time></trkpt><trkpt lat="44.87588288573172" lon="11.775411469622803"><ele>1.1666666666666665</ele><time>2026-04-11T11:00:00Z</time></trkpt><trkpt lat="44.87583120114004" lon="11.775300421608751"><ele>1.0</ele><time>2026-04-11T11:00:03Z</time></trkpt><trkpt lat="44.875784540858035" lon="11.775181392942246"><ele>1.6666666666666665</ele><time>2026-04-11T11:00:06Z</time></trkpt><trkpt lat="44.87575715949965" lon="11.77506351283796"><ele>2.3333333333333335</ele><time>2026-04-11T11:00:08Z</time></trkpt><trkpt lat="44.87572048087988" lon="11.774958766659704"><ele>3.0</ele><time>2026-04-11T11:00:10Z</time></trkpt><trkpt lat="44.875693263012714" lon="11.774847860796664"><ele>3.666666666666667</ele><time>2026-04-11T11:00:12Z</time></trkpt><trkpt lat="44.87567478332285" lon="11.774736687750881"><ele>4.333333333333334</ele><time>2026-04-11T11:00:14Z</time></trkpt><trkpt lat="44.87568047138467" lon="11.774631151245739"><ele>5.0</ele><time>2026-04-11T11:00:16Z</time></trkpt><trkpt lat="44.87564951110826" lon="11.774524920521614"><ele>5.0</ele><time>2026-04-11T11:00:18Z</time></trkpt><trkpt lat="44.87562960409482" lon="11.774406525777046"><ele>5.0</ele><time>2026-04-11T11:00:20Z</time></trkpt><trkpt lat="44.87561011286441" lon="11.774297561436104"><ele>5.0</ele><time>2026-04-11T11:00:22Z</time></trkpt><trkpt lat="44.875589778846724" lon="11.774193826044858"><ele>5.0</ele><time>2026-04-11T11:00:24Z</time></trkpt><trkpt lat="44.87558163758057" lon="11.77409492396314"><ele>5.0</ele><time>2026-04-11T11:00:26Z</time></trkpt><trkpt lat="44.87556831587352" lon="11.773996583473322"><ele>5.0</ele><time>2026-04-11T11:00:28Z</time></trkpt><trkpt lat="44.87555005477173" lon="11.773903233828007"><ele>4.8</ele><time>2026-04-11T11:00:30Z</time></trkpt><trkpt lat="44.87553762262962" lon="11.773759177195299"><ele>4.6</ele><time>2026-04-11T11:00:33Z</time></trkpt><trkpt lat="44.8755195678274" lon="11.773634717571866"><ele>4.4</ele><time>2026-04-11T11:00:35Z</time></trkpt><trkpt lat="44.87549730382185" lon="11.77350687695648"><ele>4.2</ele><time>2026-04-11T11:00:37Z</time></trkpt><trkpt lat="44.87548494602531" lon="11.773371048947675"><ele>4.0</ele><time>2026-04-11T11:00:39Z</time></trkpt><trkpt lat="44.875465296841156" lon="11.77323779742301"><ele>3.9999999999999996</ele><time>2026-04-11T11:00:41Z</time></trkpt><trkpt lat="44.87544804080032" lon="11.773107741981352"><ele>4.0</ele><time>2026-04-11T11:00:43Z</time></trkpt><trkpt lat="44.87542928884454" lon="11.7729854247122"><ele>4.0</ele><time>2026-04-11T11:00:45Z</time></trkpt><trkpt lat="44.875407657885894" lon="11.772873690540218"><ele>4.0</ele><time>2026-04-11T11:00:47Z</time></trkpt><trkpt lat="44.87538574459213" lon="11.77277084320132"><ele>3.9999999999999996</ele><time>2026-04-11T11:00:49Z</time></trkpt><trkpt lat="44.87534539417212" lon="11.772674123411367"><ele>4.0</ele><time>2026-04-11T11:00:51Z</time></trkpt><trkpt lat="44.8753301830307" lon="11.772578047665977"><ele>3.9999999999999996</ele><time>2026-04-11T11:00:53Z</time></trkpt><trkpt lat="44.87531908714929" lon="11.772467357257481"><ele>4.0</ele><time>2026-04-11T11:00:55Z</time></trkpt><trkpt lat="44.875291799982556" lon="11.772366219246294"><ele>4.0</ele><time>2026-04-11T11:00:58Z</time></trkpt><trkpt lat="44.87519907663627" lon="11.772389200800093"><ele>4.0</ele><time>2026-04-11T11:01:01Z</time></trkpt><trkpt lat="44.875155121492455" lon="11.77231301552571"><ele>3.9999999999999996</ele><time>2026-04-11T11:01:04Z</time></trkpt><trkpt lat="44.87513552227537" lon="11.772211424807187"><ele>4.0</ele><time>2026-04-11T11:01:06Z</time></trkpt><trkpt lat="44.8750864370737" lon="11.772141754711352"><ele>4.2</ele><time>2026-04-11T11:01:08Z</time></trkpt><trkpt lat="44.87500629434729" lon="11.772113135092003"><ele>4.4</ele><time>2026-04-11T11:01:10Z</time></trkpt><trkpt lat="44.87491688779911" lon="11.772099158718177"><ele>4.6</ele><time>2026-04-11T11:01:12Z</time></trkpt><trkpt lat="44.874827419615016" lon="11.772077509551346"><ele>4.8</ele><time>2026-04-11T11:01:14Z</time></trkpt><trkpt lat="44.87473735130373" lon="11.772060843918476"><ele>5.0</ele><time>2026-04-11T11:01:16Z</time></trkpt><trkpt lat="44.87464316718954" lon="11.772036823735265"><ele>5.0</ele><time>2026-04-11T11:01:18Z</time></trkpt><trkpt lat="44.874544761980054" lon="11.772013816996758"><ele>5.0</ele><time>2026-04-11T11:01:20Z</time></trkpt><trkpt lat="44.8744558325269" lon="11.771980383920608"><ele>5.0</ele><time>2026-04-11T11:01:22Z</time></trkpt><trkpt lat="44.87436682054554" lon="11.771966368850546"><ele>5.0</ele><time>2026-04-11T11:01:24Z</time></trkpt><trkpt lat="44.874282452381706" lon="11.771949508175629"><ele>5.0</ele><time>2026-04-11T11:01:26Z</time></trkpt><trkpt lat="44.874203031051096" lon="11.771921707426959"><ele>5.0</ele><time>2026-04-11T11:01:28Z</time></trkpt><trkpt lat="44.87412724082502" lon="11.771885859792384"><ele>4.833333333333334</ele><time>2026-04-11T11:01:30Z</time></trkpt><trkpt lat="44.874061822419435" lon="11.771844075634842"><ele>4.666666666666667</ele><time>2026-04-11T11:01:32Z</time></trkpt><trkpt lat="44.87400332262713" lon="11.771784910744746"><ele>4.5</ele><time>2026-04-11T11:01:34Z</time></trkpt><trkpt lat="44.87393687416814" lon="11.771725484009169"><ele>4.333333333333333</ele><time>2026-04-11T11:01:36Z</time></trkpt><trkpt lat="44.87384472165035" lon="11.771691285419585"><ele>4.166666666666666</ele><time>2026-04-11T11:01:38Z</time></trkpt><trkpt lat="44.87375015446216" lon="11.771670085946214"><ele>4.0</ele><time>2026-04-11T11:01:40Z</time></trkpt><trkpt lat="44.87365868025559" lon="11.77164084596113"><ele>4.0</ele><time>2026-04-11T11:01:42Z</time></trkpt><trkpt lat="44.87356723704791" lon="11.771602025743894"><ele>4.0</ele><time>2026-04-11T11:01:44Z</time></trkpt><trkpt lat="44.8734723441947" lon="11.771576861385247"><ele>4.0</ele><time>2026-04-11T11:01:46Z</time></trkpt><trkpt lat="44.8733752696448" lon="11.771547951882852"><ele>4.0</ele><time>2026-04-11T11:01:48Z</time></trkpt><trkpt lat="44.87328955599174" lon="11.771503211258006"><ele>4.0</ele><time>2026-04-11T11:01:50Z</time></trkpt><trkpt lat="44.87320004505947" lon="11.771463382789392"><ele>4.0</ele><time>2026-04-11T11:01:52Z</time></trkpt><trkpt lat="44.873110942496915" lon="11.771419274678506"><ele>4.0</ele><time>2026-04-11T11:01:54Z</time></trkpt><trkpt lat="44.87302542373" lon="11.771365342178456"><ele>4.0</ele><time>2026-04-11T11:01:56Z</time></trkpt><trkpt lat="44.87293323256542" lon="11.77131411138269"><ele>4.0</ele><time>2026-04-11T11:01:58Z</time></trkpt><trkpt lat="44.872842675963085" lon="11.77126500615466"><ele>4.0</ele><time>2026-04-11T11:02:00Z</time></trkpt><trkpt lat="44.872753846386985" lon="11.771215502569577"><ele>3.9999999999999996</ele><time>2026-04-11T11:02:02Z</time></trkpt><trkpt lat="44.872668571130205" lon="11.771176994900129"><ele>4.0</ele><time>2026-04-11T11:02:04Z</time></trkpt><trkpt lat="44.87258873734882" lon="11.771125478469305"><ele>4.0</ele><time>2026-04-11T11:02:06Z</time></trkpt><trkpt lat="44.87250913601391" lon="11.771088761365736"><ele>4.0</ele><time>2026-04-11T11:02:08Z</time></trkpt><trkpt lat="44.87243754536338" lon="11.771046002126624"><ele>3.9999999999999996</ele><time>2026-04-11T11:02:10Z</time></trkpt><trkpt lat="44.872369328203185" lon="11.771003926538237"><ele>4.0</ele><time>2026-04-11T11:02:12Z</time></trkpt><trkpt lat="44.872300366953134" lon="11.770963713344468"><ele>3.9999999999999996</ele><time>2026-04-11T11:02:14Z</time></trkpt><trkpt lat="44.87222250126218" lon="11.770912324153832"><ele>4.0</ele><time>2026-04-11T11:02:16Z</time></trkpt><trkpt lat="44.87215198441556" lon="11.770869723863013"><ele>4.0</ele><time>2026-04-11T11:02:18Z</time></trkpt><trkpt lat="44.87208976669884" lon="11.770825793029458"><ele>4.0</ele><time>2026-04-11T11:02:20Z</time></trkpt><trkpt lat="44.87200498818341" lon="11.770767286355193"><ele>3.9999999999999996</ele><time>2026-04-11T11:02:23Z</time></trkpt><trkpt lat="44.871937349551224" lon="11.77072173632888"><ele>4.0</ele><time>2026-04-11T11:02:25Z</time></trkpt><trkpt lat="44.87187068920232" lon="11.77068719836925"><ele>3.9999999999999996</ele><time>2026-04-11T11:02:27Z</time></trkpt><trkpt lat="44.87178494043325" lon="11.77063381790514"><ele>4.0</ele><time>2026-04-11T11:02:30Z</time></trkpt><trkpt lat="44.871703578692106" lon="11.770576368306184"><ele>4.0</ele><time>2026-04-11T11:02:33Z</time></trkpt><trkpt lat="44.87162399910419" lon="11.770524934382053"><ele>4.0</ele><time>2026-04-11T11:02:36Z</time></trkpt><trkpt lat="44.87155551645961" lon="11.770489361074263"><ele>3.9999999999999996</ele><time>2026-04-11T11:02:38Z</time></trkpt><trkpt lat="44.87148219305151" lon="11.770449593515265"><ele>4.0</ele><time>2026-04-11T11:02:40Z</time></trkpt><trkpt lat="44.87141210208743" lon="11.770417844490439"><ele>3.8571428571428568</ele><time>2026-04-11T11:02:42Z</time></trkpt><trkpt lat="44.87134643910878" lon="11.770379632363912"><ele>3.714285714285714</ele><time>2026-04-11T11:02:44Z</time></trkpt><trkpt lat="44.8712780189066" lon="11.770353530891422"><ele>3.571428571428571</ele><time>2026-04-11T11:02:46Z</time></trkpt><trkpt lat="44.871210237311985" lon="11.770337717046461"><ele>3.4285714285714284</ele><time>2026-04-11T11:02:48Z</time></trkpt><trkpt lat="44.87114770781409" lon="11.770312658718368"><ele>3.2857142857142856</ele><time>2026-04-11T11:02:50Z</time></trkpt><trkpt lat="44.871090638323885" lon="11.770274904797741"><ele>3.1428571428571423</ele><time>2026-04-11T11:02:52Z</time></trkpt><trkpt lat="44.87101018793632" lon="11.770229190776766"><ele>3.0</ele><time>2026-04-11T11:02:55Z</time></trkpt><trkpt lat="44.870933455401776" lon="11.77021265854623"><ele>3.0</ele><time>2026-04-11T11:02:58Z</time></trkpt><trkpt lat="44.870863387196756" lon="11.77020234450808"><ele>3.0</ele><time>2026-04-11T11:03:01Z</time></trkpt><trkpt lat="44.870772195084186" lon="11.770181017497737"><ele>3.0</ele><time>2026-04-11T11:03:04Z</time></trkpt><trkpt lat="44.87070955102949" lon="11.770169217824272"><ele>3.0</ele><time>2026-04-11T11:03:06Z</time></trkpt><trkpt lat="44.87062203815127" lon="11.770170178626868"><ele>3.0</ele><time>2026-04-11T11:03:09Z</time></trkpt><trkpt lat="44.870541112798016" lon="11.770165304084"><ele>3.0</ele><time>2026-04-11T11:03:12Z</time></trkpt><trkpt lat="44.87043899689646" lon="11.77016603611981"><ele>3.0</ele><time>2026-04-11T11:03:15Z</time></trkpt><trkpt lat="44.87036337234073" lon="11.770191599470257"><ele>3.0</ele><time>2026-04-11T11:03:17Z</time></trkpt><trkpt lat="44.87029305835382" lon="11.770192954480065"><ele>3.0</ele><time>2026-04-11T11:03:19Z</time></trkpt><trkpt lat="44.87022851458176" lon="11.770197871289472"><ele>3.0</ele><time>2026-04-11T11:03:21Z</time></trkpt><trkpt lat="44.87014322692688" lon="11.770206737135203"><ele>3.0</ele><time>2026-04-11T11:03:24Z</time></trkpt><trkpt lat="44.870055825826995" lon="11.770223886743896"><ele>3.0</ele><time>2026-04-11T11:03:27Z</time></trkpt><trkpt lat="44.86999143812091" lon="11.770245546652529"><ele>2.8333333333333335</ele><time>2026-04-11T11:03:29Z</time></trkpt><trkpt lat="44.86990466819398" lon="11.770246233297343"><ele>2.6666666666666665</ele><time>2026-04-11T11:03:32Z</time></trkpt><trkpt lat="44.869834024749245" lon="11.77025259896911"><ele>2.5</ele><time>2026-04-11T11:03:34Z</time></trkpt><trkpt lat="44.869758962948566" lon="11.770257822407709"><ele>2.333333333333333</ele><time>2026-04-11T11:03:36Z</time></trkpt><trkpt lat="44.86969222546573" lon="11.77025810566378"><ele>2.1666666666666665</ele><time>2026-04-11T11:03:38Z</time></trkpt><trkpt lat="44.869594440474515" lon="11.770247927567919"><ele>2.0</ele><time>2026-04-11T11:03:41Z</time></trkpt><trkpt lat="44.86952297689491" lon="11.77023928695419"><ele>1.9999999999999998</ele><time>2026-04-11T11:03:43Z</time></trkpt><trkpt lat="44.869459231800235" lon="11.77021976716391"><ele>2.0</ele><time>2026-04-11T11:03:45Z</time></trkpt><trkpt lat="44.86937277127028" lon="11.770190610281883"><ele>2.0</ele><time>2026-04-11T11:03:48Z</time></trkpt><trkpt lat="44.86929132969026" lon="11.770158240437741"><ele>2.0</ele><time>2026-04-11T11:03:51Z</time></trkpt><trkpt lat="44.86922097246588" lon="11.770117377112228"><ele>1.9999999999999998</ele><time>2026-04-11T11:03:53Z</time></trkpt><trkpt lat="44.86914948745326" lon="11.77007418957332"><ele>2.0</ele><time>2026-04-11T11:03:55Z</time></trkpt><trkpt lat="44.869079419908424" lon="11.77004170809024"><ele>1.9999999999999998</ele><time>2026-04-11T11:03:57Z</time></trkpt><trkpt lat="44.8690129529345" lon="11.770008672444455"><ele>2.0</ele><time>2026-04-11T11:03:59Z</time></trkpt><trkpt lat="44.86895424646389" lon="11.769969949318568"><ele>2.0</ele><time>2026-04-11T11:04:01Z</time></trkpt><trkpt lat="44.8688753481281" lon="11.769914137889804"><ele>2.0</ele><time>2026-04-11T11:04:04Z</time></trkpt><trkpt lat="44.86878562371125" lon="11.769855895679129"><ele>1.9999999999999998</ele><time>2026-04-11T11:04:07Z</time></trkpt><trkpt lat="44.86872543084574" lon="11.769819546101846"><ele>2.0</ele><time>2026-04-11T11:04:09Z</time></trkpt><trkpt lat="44.86864101277433" lon="11.76977043797082"><ele>1.9999999999999998</ele><time>2026-04-11T11:04:12Z</time></trkpt><trkpt lat="44.868566638498066" lon="11.769702275426324"><ele>2.0</ele><time>2026-04-11T11:04:15Z</time></trkpt><trkpt lat="44.86850330099652" lon="11.769657527728226"><ele>2.0</ele><time>2026-04-11T11:04:17Z</time></trkpt><trkpt lat="44.86843999570085" lon="11.769610155094561"><ele>2.0</ele><time>2026-04-11T11:04:19Z</time></trkpt><trkpt lat="44.868377794766324" lon="11.769562956177948"><ele>1.9999999999999998</ele><time>2026-04-11T11:04:21Z</time></trkpt><trkpt lat="44.8683182194387" lon="11.769521693755456"><ele>2.0</ele><time>2026-04-11T11:04:23Z</time></trkpt><trkpt lat="44.86823925465779" lon="11.769458861841134"><ele>1.9999999999999998</ele><time>2026-04-11T11:04:26Z</time></trkpt><trkpt lat="44.8681609389491" lon="11.769399220866127"><ele>2.0</ele><time>2026-04-11T11:04:29Z</time></trkpt><trkpt lat="44.86807678140466" lon="11.769321336203545"><ele>2.0</ele><time>2026-04-11T11:04:32Z</time></trkpt><trkpt lat="44.86801592108924" lon="11.769273650166879"><ele>2.0</ele><time>2026-04-11T11:04:34Z</time></trkpt><trkpt lat="44.86795845600146" lon="11.769223411913616"><ele>1.9999999999999998</ele><time>2026-04-11T11:04:36Z</time></trkpt><trkpt lat="44.867900360424116" lon="11.769181925118774"><ele>2.0</ele><time>2026-04-11T11:04:38Z</time></trkpt><trkpt lat="44.86782300149211" lon="11.769115085961202"><ele>2.0</ele><time>2026-04-11T11:04:41Z</time></trkpt><trkpt lat="44.86776128489657" lon="11.769067468773109"><ele>1.9999999999999998</ele><time>2026-04-11T11:04:43Z</time></trkpt><trkpt lat="44.867700969498934" lon="11.769021992607902"><ele>2.0</ele><time>2026-04-11T11:04:45Z</time></trkpt><trkpt lat="44.867645413668555" lon="11.768979499024201"><ele>2.0</ele><time>2026-04-11T11:04:47Z</time></trkpt><trkpt lat="44.86758268805415" lon="11.768926956907633"><ele>1.9999999999999998</ele><time>2026-04-11T11:04:49Z</time></trkpt><trkpt lat="44.86751841020103" lon="11.768876351579435"><ele>2.0</ele><time>2026-04-11T11:04:51Z</time></trkpt><trkpt lat="44.86745928932432" lon="11.768826081192719"><ele>2.0</ele><time>2026-04-11T11:04:53Z</time></trkpt><trkpt lat="44.867401872754506" lon="11.76877819278348"><ele>1.9999999999999998</ele><time>2026-04-11T11:04:55Z</time></trkpt><trkpt lat="44.86734741371556" lon="11.768730221024512"><ele>2.0</ele><time>2026-04-11T11:04:57Z</time></trkpt><trkpt lat="44.86727061732615" lon="11.768657211081472"><ele>2.0</ele><time>2026-04-11T11:05:00Z</time></trkpt><trkpt lat="44.867200530864196" lon="11.768585670720748"><ele>2.0</ele><time>2026-04-11T11:05:03Z</time></trkpt><trkpt lat="44.86713927860316" lon="11.768515145776433"><ele>1.9999999999999998</ele><time>2026-04-11T11:05:06Z</time></trkpt><trkpt lat="44.867065929274816" lon="11.76842950358733"><ele>2.0</ele><time>2026-04-11T11:05:09Z</time></trkpt><trkpt lat="44.86701731624648" lon="11.768356207118876"><ele>1.9999999999999998</ele><time>2026-04-11T11:05:11Z</time></trkpt><trkpt lat="44.86695916026174" lon="11.768297125097266"><ele>2.0</ele><time>2026-04-11T11:05:13Z</time></trkpt><trkpt lat="44.866897641746675" lon="11.768217982496497"><ele>2.0</ele><time>2026-04-11T11:05:15Z</time></trkpt><trkpt lat="44.866826749791635" lon="11.768137220380613"><ele>2.0</ele><time>2026-04-11T11:05:17Z</time></trkpt><trkpt lat="44.866755041731324" lon="11.76805664853063"><ele>1.9999999999999998</ele><time>2026-04-11T11:05:19Z</time></trkpt><trkpt lat="44.86669186824187" lon="11.767980859989082"><ele>2.0</ele><time>2026-04-11T11:05:21Z</time></trkpt><trkpt lat="44.8666255325176" lon="11.767904107432184"><ele>1.9999999999999998</ele><time>2026-04-11T11:05:23Z</time></trkpt><trkpt lat="44.866553644207194" lon="11.76782447278801"><ele>2.0</ele><time>2026-04-11T11:05:25Z</time></trkpt><trkpt lat="44.866481976300285" lon="11.767745807642982"><ele>2.0</ele><time>2026-04-11T11:05:27Z</time></trkpt><trkpt lat="44.86641477549263" lon="11.767680328275869"><ele>2.0</ele><time>2026-04-11T11:05:29Z</time></trkpt><trkpt lat="44.866348687480986" lon="11.767624765295047"><ele>1.9999999999999998</ele><time>2026-04-11T11:05:31Z</time></trkpt><trkpt lat="44.866293461384615" lon="11.76756074832224"><ele>2.0</ele><time>2026-04-11T11:05:33Z</time></trkpt><trkpt lat="44.866239736049295" lon="11.76750656118411"><ele>1.9999999999999998</ele><time>2026-04-11T11:05:35Z</time></trkpt><trkpt lat="44.866159486217995" lon="11.767426048928098"><ele>2.0</ele><time>2026-04-11T11:05:38Z</time></trkpt><trkpt lat="44.86608708201363" lon="11.767366113944046"><ele>2.0</ele><time>2026-04-11T11:05:40Z</time></trkpt><trkpt lat="44.866018619853755" lon="11.767324691934723"><ele>2.0</ele><time>2026-04-11T11:05:42Z</time></trkpt><trkpt lat="44.8659554085068" lon="11.767279944018034"><ele>1.9999999999999998</ele><time>2026-04-11T11:05:44Z</time></trkpt><trkpt lat="44.86589446021203" lon="11.767243826959696"><ele>2.0</ele><time>2026-04-11T11:05:46Z</time></trkpt><trkpt lat="44.86580184257884" lon="11.767196291874699"><ele>1.9999999999999998</ele><time>2026-04-11T11:05:49Z</time></trkpt><trkpt lat="44.86571824938663" lon="11.767172264315024"><ele>2.0</ele><time>2026-04-11T11:05:51Z</time></trkpt><trkpt lat="44.865630810118965" lon="11.767158318226988"><ele>2.0</ele><time>2026-04-11T11:05:53Z</time></trkpt><trkpt lat="44.86554980952816" lon="11.767162254344456"><ele>2.0</ele><time>2026-04-11T11:05:55Z</time></trkpt><trkpt lat="44.86547312554113" lon="11.767167624530597"><ele>1.9999999999999998</ele><time>2026-04-11T11:05:57Z</time></trkpt><trkpt lat="44.86539937866571" lon="11.76717460540657"><ele>2.0</ele><time>2026-04-11T11:05:59Z</time></trkpt><trkpt lat="44.865326327267674" lon="11.767178891844853"><ele>2.0</ele><time>2026-04-11T11:06:01Z</time></trkpt><trkpt lat="44.86524891147478" lon="11.767188721661578"><ele>1.9999999999999998</ele><time>2026-04-11T11:06:03Z</time></trkpt><trkpt lat="44.86517518484888" lon="11.767207413595218"><ele>2.0</ele><time>2026-04-11T11:06:05Z</time></trkpt><trkpt lat="44.8651048531469" lon="11.76721389933055"><ele>2.0</ele><time>2026-04-11T11:06:07Z</time></trkpt><trkpt lat="44.86503920897559" lon="11.76723120756751"><ele>1.9999999999999998</ele><time>2026-04-11T11:06:09Z</time></trkpt><trkpt lat="44.86497440943542" lon="11.767239980289842"><ele>2.0</ele><time>2026-04-11T11:06:11Z</time></trkpt><trkpt lat="44.864894634154965" lon="11.767262558188976"><ele>2.0</ele><time>2026-04-11T11:06:13Z</time></trkpt><trkpt lat="44.86480679620736" lon="11.767277147781817"><ele>1.9999999999999998</ele><time>2026-04-11T11:06:15Z</time></trkpt><trkpt lat="44.86471569801037" lon="11.767297693905311"><ele>2.0</ele><time>2026-04-11T11:06:17Z</time></trkpt><trkpt lat="44.86462537873755" lon="11.767313484199075"><ele>2.0</ele><time>2026-04-11T11:06:19Z</time></trkpt><trkpt lat="44.864539479163525" lon="11.767323279325552"><ele>2.0</ele><time>2026-04-11T11:06:21Z</time></trkpt><trkpt lat="44.86445997308935" lon="11.767341551093605"><ele>1.9999999999999998</ele><time>2026-04-11T11:06:23Z</time></trkpt><trkpt lat="44.86438451483044" lon="11.767354468979565"><ele>2.0</ele><time>2026-04-11T11:06:25Z</time></trkpt><trkpt lat="44.864311103739716" lon="11.767363799716613"><ele>1.9999999999999998</ele><time>2026-04-11T11:06:27Z</time></trkpt><trkpt lat="44.864240137048974" lon="11.767369168118531"><ele>2.0</ele><time>2026-04-11T11:06:29Z</time></trkpt><trkpt lat="44.86416779254483" lon="11.767377922030418"><ele>2.0</ele><time>2026-04-11T11:06:31Z</time></trkpt><trkpt lat="44.864091978335246" lon="11.767383930080724"><ele>2.0</ele><time>2026-04-11T11:06:33Z</time></trkpt><trkpt lat="44.864013947417924" lon="11.767379595727371"><ele>1.9999999999999998</ele><time>2026-04-11T11:06:35Z</time></trkpt><trkpt lat="44.863921763359876" lon="11.767376316472308"><ele>2.0</ele><time>2026-04-11T11:06:37Z</time></trkpt><trkpt lat="44.863829275587655" lon="11.767382381963335"><ele>2.0</ele><time>2026-04-11T11:06:39Z</time></trkpt><trkpt lat="44.86373619740121" lon="11.767381020435074"><ele>2.0</ele><time>2026-04-11T11:06:41Z</time></trkpt><trkpt lat="44.863641733362755" lon="11.767375502235852"><ele>2.0</ele><time>2026-04-11T11:06:43Z</time></trkpt><trkpt lat="44.863548664393186" lon="11.767360396743511"><ele>2.0</ele><time>2026-04-11T11:06:45Z</time></trkpt><trkpt lat="44.863455709106496" lon="11.767347469983557"><ele>2.0</ele><time>2026-04-11T11:06:47Z</time></trkpt><trkpt lat="44.86336225441459" lon="11.767321598122292"><ele>2.0</ele><time>2026-04-11T11:06:49Z</time></trkpt><trkpt lat="44.86327002776984" lon="11.767301788598708"><ele>2.0</ele><time>2026-04-11T11:06:51Z</time></trkpt><trkpt lat="44.86317911523023" lon="11.767280300064002"><ele>2.0</ele><time>2026-04-11T11:06:53Z</time></trkpt><trkpt lat="44.86308659353229" lon="11.767262887477223"><ele>2.0</ele><time>2026-04-11T11:06:55Z</time></trkpt><trkpt lat="44.86299466868727" lon="11.76724724110601"><ele>2.0</ele><time>2026-04-11T11:06:57Z</time></trkpt><trkpt lat="44.86290397869178" lon="11.767226061666252"><ele>1.9999999999999998</ele><time>2026-04-11T11:06:59Z</time></trkpt><trkpt lat="44.862813853298874" lon="11.767214250968824"><ele>2.0</ele><time>2026-04-11T11:07:01Z</time></trkpt><trkpt lat="44.86273124741993" lon="11.767187520441619"><ele>2.0</ele><time>2026-04-11T11:07:03Z</time></trkpt><trkpt lat="44.862651856422595" lon="11.767158396569208"><ele>2.0</ele><time>2026-04-11T11:07:05Z</time></trkpt><trkpt lat="44.86257603504252" lon="11.767123107797234"><ele>1.9999999999999998</ele><time>2026-04-11T11:07:07Z</time></trkpt><trkpt lat="44.86250320399676" lon="11.767077409470916"><ele>2.0</ele><time>2026-04-11T11:07:09Z</time></trkpt><trkpt lat="44.86241920374514" lon="11.767031371893133"><ele>1.9999999999999998</ele><time>2026-04-11T11:07:11Z</time></trkpt><trkpt lat="44.862336422711515" lon="11.766988994398393"><ele>2.0</ele><time>2026-04-11T11:07:13Z</time></trkpt><trkpt lat="44.86226342338028" lon="11.76693299264783"><ele>2.0</ele><time>2026-04-11T11:07:15Z</time></trkpt><trkpt lat="44.86218958802301" lon="11.766892161516378"><ele>2.0</ele><time>2026-04-11T11:07:17Z</time></trkpt><trkpt lat="44.86212783429331" lon="11.766834468167499"><ele>1.9999999999999998</ele><time>2026-04-11T11:07:19Z</time></trkpt><trkpt lat="44.862066133084014" lon="11.766785654271224"><ele>2.0</ele><time>2026-04-11T11:07:21Z</time></trkpt><trkpt lat="44.86200636110144" lon="11.766742235773942"><ele>2.0</ele><time>2026-04-11T11:07:23Z</time></trkpt><trkpt lat="44.86194129287118" lon="11.766688013931573"><ele>1.9999999999999998</ele><time>2026-04-11T11:07:25Z</time></trkpt><trkpt lat="44.861865110948834" lon="11.766635312621508"><ele>2.0</ele><time>2026-04-11T11:07:27Z</time></trkpt><trkpt lat="44.8618026159146" lon="11.766575103117264"><ele>2.0</ele><time>2026-04-11T11:07:29Z</time></trkpt><trkpt lat="44.86173925308941" lon="11.76652377628543"><ele>1.9999999999999998</ele><time>2026-04-11T11:07:31Z</time></trkpt><trkpt lat="44.86168398448403" lon="11.766462242968778"><ele>2.0</ele><time>2026-04-11T11:07:33Z</time></trkpt><trkpt lat="44.861627802349844" lon="11.766408013641051"><ele>2.0</ele><time>2026-04-11T11:07:35Z</time></trkpt><trkpt lat="44.86157588380248" lon="11.766347941693892"><ele>2.0</ele><time>2026-04-11T11:07:37Z</time></trkpt><trkpt lat="44.861524025999486" lon="11.76628501291992"><ele>1.9999999999999998</ele><time>2026-04-11T11:07:39Z</time></trkpt><trkpt lat="44.86147612541596" lon="11.766223064269589"><ele>2.0</ele><time>2026-04-11T11:07:41Z</time></trkpt><trkpt lat="44.86139909723393" lon="11.766132288929423"><ele>2.0</ele><time>2026-04-11T11:07:44Z</time></trkpt><trkpt lat="44.86134362068432" lon="11.76606005493249"><ele>1.9999999999999998</ele><time>2026-04-11T11:07:46Z</time></trkpt><trkpt lat="44.86129083082344" lon="11.765994433133578"><ele>2.0</ele><time>2026-04-11T11:07:48Z</time></trkpt><trkpt lat="44.86124693434167" lon="11.765922748453464"><ele>2.0</ele><time>2026-04-11T11:07:50Z</time></trkpt><trkpt lat="44.86119029124049" lon="11.765854155639198"><ele>1.9999999999999998</ele><time>2026-04-11T11:07:52Z</time></trkpt><trkpt lat="44.86113059058106" lon="11.765763410990026"><ele>2.0</ele><time>2026-04-11T11:07:54Z</time></trkpt><trkpt lat="44.86107416087874" lon="11.765678356806962"><ele>2.0</ele><time>2026-04-11T11:07:56Z</time></trkpt><trkpt lat="44.8610240689899" lon="11.765591546860717"><ele>2.0</ele><time>2026-04-11T11:07:58Z</time></trkpt><trkpt lat="44.860975715614714" lon="11.765507319183934"><ele>1.9999999999999998</ele><time>2026-04-11T11:08:00Z</time></trkpt><trkpt lat="44.860927460559395" lon="11.76543422351045"><ele>2.0</ele><time>2026-04-11T11:08:02Z</time></trkpt><trkpt lat="44.86088640632642" lon="11.765357902480417"><ele>2.0</ele><time>2026-04-11T11:08:04Z</time></trkpt><trkpt lat="44.86084772039026" lon="11.765283362174229"><ele>1.9999999999999998</ele><time>2026-04-11T11:08:06Z</time></trkpt><trkpt lat="44.86080613164508" lon="11.765207467143542"><ele>2.0</ele><time>2026-04-11T11:08:08Z</time></trkpt><trkpt lat="44.86075642393784" lon="11.76512570560711"><ele>2.0</ele><time>2026-04-11T11:08:10Z</time></trkpt><trkpt lat="44.8607135038969" lon="11.765046388449909"><ele>1.9999999999999998</ele><time>2026-04-11T11:08:12Z</time></trkpt><trkpt lat="44.86066931037273" lon="11.764980474241746"><ele>2.0</ele><time>2026-04-11T11:08:14Z</time></trkpt><trkpt lat="44.860618345966074" lon="11.7649030557154"><ele>2.0</ele><time>2026-04-11T11:08:16Z</time></trkpt><trkpt lat="44.86056996828829" lon="11.764822599799533"><ele>2.1666666666666665</ele><time>2026-04-11T11:08:18Z</time></trkpt><trkpt lat="44.86050523432276" lon="11.764736134407288"><ele>2.333333333333333</ele><time>2026-04-11T11:08:20Z</time></trkpt><trkpt lat="44.860442898145784" lon="11.764660946593219"><ele>2.5</ele><time>2026-04-11T11:08:22Z</time></trkpt><trkpt lat="44.86038365027517" lon="11.7645913025603"><ele>2.6666666666666665</ele><time>2026-04-11T11:08:24Z</time></trkpt><trkpt lat="44.86032027506085" lon="11.764526289517912"><ele>2.8333333333333335</ele><time>2026-04-11T11:08:26Z</time></trkpt><trkpt lat="44.86025672370375" lon="11.76445849614615"><ele>3.0</ele><time>2026-04-11T11:08:28Z</time></trkpt><trkpt lat="44.86019651843258" lon="11.76439840955264"><ele>2.8333333333333335</ele><time>2026-04-11T11:08:30Z</time></trkpt><trkpt lat="44.86013985419621" lon="11.764341602729745"><ele>2.6666666666666665</ele><time>2026-04-11T11:08:32Z</time></trkpt><trkpt lat="44.86006283457834" lon="11.764267392963962"><ele>2.5</ele><time>2026-04-11T11:08:35Z</time></trkpt><trkpt lat="44.86001055794881" lon="11.7642135043638"><ele>2.333333333333333</ele><time>2026-04-11T11:08:37Z</time></trkpt><trkpt lat="44.85994110116238" lon="11.764151987801222"><ele>2.1666666666666665</ele><time>2026-04-11T11:08:39Z</time></trkpt><trkpt lat="44.85988278766134" lon="11.764081772598763"><ele>2.0</ele><time>2026-04-11T11:08:41Z</time></trkpt><trkpt lat="44.85981726764489" lon="11.764003791916483"><ele>1.9999999999999998</ele><time>2026-04-11T11:08:43Z</time></trkpt><trkpt lat="44.859750926387726" lon="11.763929604360767"><ele>2.0</ele><time>2026-04-11T11:08:45Z</time></trkpt><trkpt lat="44.85968526613404" lon="11.7638598246468"><ele>2.0</ele><time>2026-04-11T11:08:47Z</time></trkpt><trkpt lat="44.85962845781259" lon="11.763788678533736"><ele>2.0</ele><time>2026-04-11T11:08:49Z</time></trkpt><trkpt lat="44.85956824313843" lon="11.763722629250758"><ele>1.9999999999999998</ele><time>2026-04-11T11:08:51Z</time></trkpt><trkpt lat="44.85950009378015" lon="11.763649532016496"><ele>2.0</ele><time>2026-04-11T11:08:53Z</time></trkpt><trkpt lat="44.859432233322906" lon="11.763562485343723"><ele>1.9999999999999998</ele><time>2026-04-11T11:08:55Z</time></trkpt><trkpt lat="44.85936605343664" lon="11.763475393728784"><ele>2.0</ele><time>2026-04-11T11:08:57Z</time></trkpt><trkpt lat="44.85929787138704" lon="11.763396462790256"><ele>2.0</ele><time>2026-04-11T11:08:59Z</time></trkpt><trkpt lat="44.85924269186697" lon="11.76332208940576"><ele>2.0</ele><time>2026-04-11T11:09:01Z</time></trkpt><trkpt lat="44.85918519403029" lon="11.763250578041465"><ele>1.9999999999999998</ele><time>2026-04-11T11:09:03Z</time></trkpt><trkpt lat="44.859132537895924" lon="11.763176495626004"><ele>2.0</ele><time>2026-04-11T11:09:05Z</time></trkpt><trkpt lat="44.85914964124003" lon="11.763077171259349"><ele>1.9999999999999998</ele><time>2026-04-11T11:09:07Z</time></trkpt><trkpt lat="44.85922671445678" lon="11.763008829519185"><ele>2.0</ele><time>2026-04-11T11:09:10Z</time></trkpt><trkpt lat="44.85929061482522" lon="11.762944396374946"><ele>2.0</ele><time>2026-04-11T11:09:12Z</time></trkpt><trkpt lat="44.85935704319637" lon="11.762867456522017"><ele>2.0</ele><time>2026-04-11T11:09:14Z</time></trkpt><trkpt lat="44.859413626744185" lon="11.762806132989974"><ele>1.9999999999999998</ele><time>2026-04-11T11:09:16Z</time></trkpt><trkpt lat="44.859465496677835" lon="11.762755146607173"><ele>2.0</ele><time>2026-04-11T11:09:18Z</time></trkpt><trkpt lat="44.859539835773795" lon="11.762671905776664"><ele>2.1666666666666665</ele><time>2026-04-11T11:09:21Z</time></trkpt><trkpt lat="44.859597360617755" lon="11.762600424169726"><ele>2.333333333333333</ele><time>2026-04-11T11:09:23Z</time></trkpt><trkpt lat="44.85964702505166" lon="11.76253693001831"><ele>2.5</ele><time>2026-04-11T11:09:25Z</time></trkpt><trkpt lat="44.859723492752266" lon="11.762452113120972"><ele>2.6666666666666665</ele><time>2026-04-11T11:09:28Z</time></trkpt><trkpt lat="44.85977999163549" lon="11.762380806855212"><ele>2.8333333333333335</ele><time>2026-04-11T11:09:30Z</time></trkpt><trkpt lat="44.85982453498764" lon="11.762314445128515"><ele>3.0</ele><time>2026-04-11T11:09:32Z</time></trkpt><trkpt lat="44.85988864704244" lon="11.762230594102327"><ele>2.9999999999999996</ele><time>2026-04-11T11:09:35Z</time></trkpt><trkpt lat="44.85994017286565" lon="11.762148928617982"><ele>3.0</ele><time>2026-04-11T11:09:38Z</time></trkpt><trkpt lat="44.85998056081825" lon="11.762080412286382"><ele>3.0</ele><time>2026-04-11T11:09:40Z</time></trkpt><trkpt lat="44.860024717695055" lon="11.762010907294249"><ele>3.0</ele><time>2026-04-11T11:09:42Z</time></trkpt><trkpt lat="44.860083800129665" lon="11.761926689417193"><ele>3.0</ele><time>2026-04-11T11:09:45Z</time></trkpt><trkpt lat="44.86013099625888" lon="11.761850174302776"><ele>2.9999999999999996</ele><time>2026-04-11T11:09:47Z</time></trkpt><trkpt lat="44.86017734108165" lon="11.76175438187814"><ele>3.0</ele><time>2026-04-11T11:09:49Z</time></trkpt><trkpt lat="44.86022632811231" lon="11.761667884579188"><ele>2.8333333333333335</ele><time>2026-04-11T11:09:51Z</time></trkpt><trkpt lat="44.860262233005884" lon="11.761580564525556"><ele>2.6666666666666665</ele><time>2026-04-11T11:09:53Z</time></trkpt><trkpt lat="44.860303992675554" lon="11.761509574498167"><ele>2.5</ele><time>2026-04-11T11:09:55Z</time></trkpt><trkpt lat="44.86035732700085" lon="11.761405828074203"><ele>2.333333333333333</ele><time>2026-04-11T11:09:58Z</time></trkpt><trkpt lat="44.86039632676134" lon="11.761309950443437"><ele>2.1666666666666665</ele><time>2026-04-11T11:10:00Z</time></trkpt><trkpt lat="44.860424462881674" lon="11.761204723242754"><ele>2.0</ele><time>2026-04-11T11:10:02Z</time></trkpt><trkpt lat="44.860460275264174" lon="11.761115167490914"><ele>2.142857142857143</ele><time>2026-04-11T11:10:04Z</time></trkpt><trkpt lat="44.86049174218525" lon="11.761030161505323"><ele>2.2857142857142856</ele><time>2026-04-11T11:10:06Z</time></trkpt><trkpt lat="44.86051908829198" lon="11.760947767602358"><ele>2.4285714285714284</ele><time>2026-04-11T11:10:08Z</time></trkpt><trkpt lat="44.86055429336785" lon="11.760818234618695"><ele>2.571428571428571</ele><time>2026-04-11T11:10:11Z</time></trkpt><trkpt lat="44.86057740379849" lon="11.76071284713703"><ele>2.7142857142857144</ele><time>2026-04-11T11:10:13Z</time></trkpt><trkpt lat="44.86060102860049" lon="11.76062219170592"><ele>2.8571428571428568</ele><time>2026-04-11T11:10:15Z</time></trkpt><trkpt lat="44.86061978497069" lon="11.760536128133626"><ele>3.0</ele><time>2026-04-11T11:10:17Z</time></trkpt><trkpt lat="44.86064391396669" lon="11.760453781030876"><ele>3.0</ele><time>2026-04-11T11:10:19Z</time></trkpt><trkpt lat="44.86066134541392" lon="11.760337539876769"><ele>3.0</ele><time>2026-04-11T11:10:22Z</time></trkpt><trkpt lat="44.86068559090577" lon="11.760226563278817"><ele>3.0</ele><time>2026-04-11T11:10:25Z</time></trkpt><trkpt lat="44.860696850165326" lon="11.760113288679213"><ele>3.0</ele><time>2026-04-11T11:10:27Z</time></trkpt><trkpt lat="44.86071500020922" lon="11.760010795400028"><ele>3.0</ele><time>2026-04-11T11:10:29Z</time></trkpt><trkpt lat="44.860733745775946" lon="11.759905916236834"><ele>3.0</ele><time>2026-04-11T11:10:31Z</time></trkpt><trkpt lat="44.86075313538074" lon="11.759808636309405"><ele>3.1666666666666665</ele><time>2026-04-11T11:10:33Z</time></trkpt><trkpt lat="44.860767632004105" lon="11.759694272737395"><ele>3.333333333333333</ele><time>2026-04-11T11:10:35Z</time></trkpt><trkpt lat="44.86078463858606" lon="11.759570041765542"><ele>3.5</ele><time>2026-04-11T11:10:37Z</time></trkpt><trkpt lat="44.860800566265176" lon="11.759449800904664"><ele>3.6666666666666665</ele><time>2026-04-11T11:10:39Z</time></trkpt><trkpt lat="44.86081469297824" lon="11.759328215948921"><ele>3.833333333333333</ele><time>2026-04-11T11:10:41Z</time></trkpt><trkpt lat="44.860834924011854" lon="11.759204009749203"><ele>4.0</ele><time>2026-04-11T11:10:43Z</time></trkpt><trkpt lat="44.86085080574157" lon="11.759076291780366"><ele>4.166666666666666</ele><time>2026-04-11T11:10:45Z</time></trkpt><trkpt lat="44.860871104910856" lon="11.75894976314883"><ele>4.333333333333333</ele><time>2026-04-11T11:10:47Z</time></trkpt><trkpt lat="44.86088212298577" lon="11.758823289530708"><ele>4.5</ele><time>2026-04-11T11:10:49Z</time></trkpt><trkpt lat="44.86090674632424" lon="11.758700318021711"><ele>4.666666666666667</ele><time>2026-04-11T11:10:51Z</time></trkpt><trkpt lat="44.86092141229216" lon="11.758577323948012"><ele>4.833333333333334</ele><time>2026-04-11T11:10:53Z</time></trkpt><trkpt lat="44.86093784568496" lon="11.7584634677688"><ele>5.0</ele><time>2026-04-11T11:10:55Z</time></trkpt><trkpt lat="44.86095362922337" lon="11.758349337936625"><ele>4.666666666666667</ele><time>2026-04-11T11:10:57Z</time></trkpt><trkpt lat="44.860969710342076" lon="11.758242580101918"><ele>4.333333333333334</ele><time>2026-04-11T11:10:59Z</time></trkpt><trkpt lat="44.86098242813212" lon="11.75813695332322"><ele>4.0</ele><time>2026-04-11T11:11:01Z</time></trkpt><trkpt lat="44.861002501641444" lon="11.758021988004794"><ele>3.666666666666667</ele><time>2026-04-11T11:11:03Z</time></trkpt><trkpt lat="44.86101404569031" lon="11.75790385166155"><ele>3.3333333333333335</ele><time>2026-04-11T11:11:05Z</time></trkpt><trkpt lat="44.861028600959735" lon="11.757791148022575"><ele>3.0</ele><time>2026-04-11T11:11:07Z</time></trkpt><trkpt lat="44.86104635534962" lon="11.757679756868633"><ele>3.0</ele><time>2026-04-11T11:11:09Z</time></trkpt><trkpt lat="44.86106186781765" lon="11.757562621414497"><ele>3.0</ele><time>2026-04-11T11:11:11Z</time></trkpt><trkpt lat="44.861082035315896" lon="11.757437099481027"><ele>3.0</ele><time>2026-04-11T11:11:13Z</time></trkpt><trkpt lat="44.86109885156273" lon="11.75731457851812"><ele>3.0</ele><time>2026-04-11T11:11:15Z</time></trkpt><trkpt lat="44.86111096329334" lon="11.757195954675087"><ele>3.0</ele><time>2026-04-11T11:11:17Z</time></trkpt><trkpt lat="44.861127024437685" lon="11.757084281731625"><ele>3.0</ele><time>2026-04-11T11:11:19Z</time></trkpt><trkpt lat="44.86114735680713" lon="11.756974874411952"><ele>2.8</ele><time>2026-04-11T11:11:21Z</time></trkpt><trkpt lat="44.861166153975006" lon="11.756847491914076"><ele>2.5999999999999996</ele><time>2026-04-11T11:11:23Z</time></trkpt><trkpt lat="44.86118615484712" lon="11.756713207995462"><ele>2.4000000000000004</ele><time>2026-04-11T11:11:25Z</time></trkpt><trkpt lat="44.861200348241766" lon="11.756580269317997"><ele>2.2</ele><time>2026-04-11T11:11:27Z</time></trkpt><trkpt lat="44.86121675799446" lon="11.756451269167298"><ele>2.0</ele><time>2026-04-11T11:11:29Z</time></trkpt><trkpt lat="44.861230834832334" lon="11.75632676558624"><ele>1.9999999999999998</ele><time>2026-04-11T11:11:31Z</time></trkpt><trkpt lat="44.861247439257475" lon="11.756208810901228"><ele>2.0</ele><time>2026-04-11T11:11:33Z</time></trkpt><trkpt lat="44.86125937272681" lon="11.7560977947934"><ele>2.0</ele><time>2026-04-11T11:11:35Z</time></trkpt><trkpt lat="44.86126038167527" lon="11.755990496418603"><ele>2.0</ele><time>2026-04-11T11:11:37Z</time></trkpt><trkpt lat="44.86127208733103" lon="11.75588828803069"><ele>1.9999999999999998</ele><time>2026-04-11T11:11:39Z</time></trkpt><trkpt lat="44.861273513122754" lon="11.755793641866592"><ele>2.0</ele><time>2026-04-11T11:11:41Z</time></trkpt><trkpt lat="44.86126654737248" lon="11.755692837883842"><ele>1.9999999999999998</ele><time>2026-04-11T11:11:43Z</time></trkpt><trkpt lat="44.86124769176962" lon="11.755589160751901"><ele>2.0</ele><time>2026-04-11T11:11:45Z</time></trkpt><trkpt lat="44.86123751024799" lon="11.755492974308657"><ele>2.0</ele><time>2026-04-11T11:11:47Z</time></trkpt><trkpt lat="44.861229225706474" lon="11.755385588351098"><ele>2.0</ele><time>2026-04-11T11:11:49Z</time></trkpt><trkpt lat="44.86121065913865" lon="11.755267693953646"><ele>1.9999999999999998</ele><time>2026-04-11T11:11:51Z</time></trkpt><trkpt lat="44.86119152180217" lon="11.755154582878486"><ele>2.0</ele><time>2026-04-11T11:11:53Z</time></trkpt><trkpt lat="44.861178334183364" lon="11.755048130778528"><ele>1.9999999999999998</ele><time>2026-04-11T11:11:55Z</time></trkpt><trkpt lat="44.861165884866146" lon="11.7549514544702"><ele>2.0</ele><time>2026-04-11T11:11:57Z</time></trkpt><trkpt lat="44.86115020714281" lon="11.754862699211353"><ele>2.0</ele><time>2026-04-11T11:11:59Z</time></trkpt><trkpt lat="44.86112996523746" lon="11.75472669635197"><ele>2.0</ele><time>2026-04-11T11:12:02Z</time></trkpt><trkpt lat="44.86111079796574" lon="11.75462971418117"><ele>1.9999999999999998</ele><time>2026-04-11T11:12:04Z</time></trkpt><trkpt lat="44.86108555574211" lon="11.754494619510329"><ele>2.0</ele><time>2026-04-11T11:12:07Z</time></trkpt><trkpt lat="44.861061057634174" lon="11.754395931401518"><ele>1.9999999999999998</ele><time>2026-04-11T11:12:09Z</time></trkpt><trkpt lat="44.861039856665755" lon="11.754298339382165"><ele>2.0</ele><time>2026-04-11T11:12:11Z</time></trkpt><trkpt lat="44.8610166035876" lon="11.754206765545643"><ele>2.0</ele><time>2026-04-11T11:12:13Z</time></trkpt><trkpt lat="44.86099211899292" lon="11.754117080472865"><ele>2.0</ele><time>2026-04-11T11:12:15Z</time></trkpt><trkpt lat="44.860955738968265" lon="11.75399763701886"><ele>1.9999999999999998</ele><time>2026-04-11T11:12:18Z</time></trkpt><trkpt lat="44.86092577405755" lon="11.753881064076497"><ele>2.0</ele><time>2026-04-11T11:12:21Z</time></trkpt><trkpt lat="44.860896532265976" lon="11.75378300639762"><ele>2.4285714285714284</ele><time>2026-04-11T11:12:23Z</time></trkpt><trkpt lat="44.86086967500117" lon="11.753687814285328"><ele>2.8571428571428568</ele><time>2026-04-11T11:12:25Z</time></trkpt><trkpt lat="44.86083792141398" lon="11.753599960201615"><ele>3.2857142857142856</ele><time>2026-04-11T11:12:27Z</time></trkpt><trkpt lat="44.860809460341216" lon="11.753514262744382"><ele>3.7142857142857144</ele><time>2026-04-11T11:12:29Z</time></trkpt><trkpt lat="44.86078794420223" lon="11.753428915983843"><ele>4.142857142857143</ele><time>2026-04-11T11:12:31Z</time></trkpt><trkpt lat="44.86075102036561" lon="11.753331180538535"><ele>4.571428571428571</ele><time>2026-04-11T11:12:33Z</time></trkpt><trkpt lat="44.860718076507894" lon="11.753234860988421"><ele>5.0</ele><time>2026-04-11T11:12:35Z</time></trkpt><trkpt lat="44.86068726184325" lon="11.75314557246121"><ele>5.428571428571429</ele><time>2026-04-11T11:12:37Z</time></trkpt><trkpt lat="44.860658996106494" lon="11.753060439053868"><ele>5.857142857142858</ele><time>2026-04-11T11:12:39Z</time></trkpt><trkpt lat="44.86061859675419" lon="11.752966540256377"><ele>6.285714285714286</ele><time>2026-04-11T11:12:41Z</time></trkpt><trkpt lat="44.8605815085117" lon="11.752885563349368"><ele>6.7142857142857135</ele><time>2026-04-11T11:12:43Z</time></trkpt><trkpt lat="44.860544845313285" lon="11.752804382724076"><ele>7.142857142857142</ele><time>2026-04-11T11:12:45Z</time></trkpt><trkpt lat="44.86049378512683" lon="11.752698412907852"><ele>7.571428571428571</ele><time>2026-04-11T11:12:48Z</time></trkpt><trkpt lat="44.86045889664453" lon="11.752618511692342"><ele>8.0</ele><time>2026-04-11T11:12:50Z</time></trkpt><trkpt lat="44.86041195401143" lon="11.752531516729732"><ele>8.428571428571429</ele><time>2026-04-11T11:12:52Z</time></trkpt><trkpt lat="44.86037324341173" lon="11.752449739666007"><ele>8.857142857142856</ele><time>2026-04-11T11:12:54Z</time></trkpt><trkpt lat="44.86033284560521" lon="11.752374058475736"><ele>9.285714285714285</ele><time>2026-04-11T11:12:56Z</time></trkpt><trkpt lat="44.86029109708384" lon="11.752300444845"><ele>9.714285714285714</ele><time>2026-04-11T11:12:58Z</time></trkpt><trkpt lat="44.86024136161446" lon="11.752223275589794"><ele>10.142857142857142</ele><time>2026-04-11T11:13:00Z</time></trkpt><trkpt lat="44.86018973056328" lon="11.752139300565764"><ele>10.571428571428571</ele><time>2026-04-11T11:13:02Z</time></trkpt><trkpt lat="44.86014943170171" lon="11.752063452948285"><ele>11.0</ele><time>2026-04-11T11:13:04Z</time></trkpt><trkpt lat="44.860101957418934" lon="11.751978728944163"><ele>10.5</ele><time>2026-04-11T11:13:06Z</time></trkpt><trkpt lat="44.86005752439962" lon="11.751900903069087"><ele>10.0</ele><time>2026-04-11T11:13:08Z</time></trkpt><trkpt lat="44.86001304299875" lon="11.751823553635507"><ele>9.5</ele><time>2026-04-11T11:13:10Z</time></trkpt><trkpt lat="44.85995407395329" lon="11.751736035699361"><ele>9.0</ele><time>2026-04-11T11:13:12Z</time></trkpt><trkpt lat="44.859885964635275" lon="11.751648693938108"><ele>8.5</ele><time>2026-04-11T11:13:14Z</time></trkpt><trkpt lat="44.859823737731666" lon="11.751565235302067"><ele>8.0</ele><time>2026-04-11T11:13:16Z</time></trkpt><trkpt lat="44.859762293312" lon="11.75148150087155"><ele>7.999999999999999</ele><time>2026-04-11T11:13:18Z</time></trkpt><trkpt lat="44.859700821443504" lon="11.751408603574749"><ele>8.0</ele><time>2026-04-11T11:13:20Z</time></trkpt><trkpt lat="44.85964544309761" lon="11.751326723191188"><ele>8.0</ele><time>2026-04-11T11:13:22Z</time></trkpt><trkpt lat="44.85958704602635" lon="11.751254701884285"><ele>8.0</ele><time>2026-04-11T11:13:24Z</time></trkpt><trkpt lat="44.8595299182104" lon="11.751182972165491"><ele>7.999999999999999</ele><time>2026-04-11T11:13:26Z</time></trkpt><trkpt lat="44.859473507669435" lon="11.75111178102287"><ele>8.0</ele><time>2026-04-11T11:13:28Z</time></trkpt><trkpt lat="44.8594197512052" lon="11.751042439084598"><ele>7.999999999999999</ele><time>2026-04-11T11:13:30Z</time></trkpt><trkpt lat="44.8593640422128" lon="11.750981357705605"><ele>8.0</ele><time>2026-04-11T11:13:32Z</time></trkpt><trkpt lat="44.85930296866076" lon="11.750904459438626"><ele>8.0</ele><time>2026-04-11T11:13:34Z</time></trkpt><trkpt lat="44.859240484901896" lon="11.750832200820248"><ele>8.0</ele><time>2026-04-11T11:13:36Z</time></trkpt><trkpt lat="44.85918071437298" lon="11.750762208796086"><ele>7.999999999999999</ele><time>2026-04-11T11:13:38Z</time></trkpt><trkpt lat="44.85912415550019" lon="11.750682170588448"><ele>8.0</ele><time>2026-04-11T11:13:40Z</time></trkpt><trkpt lat="44.85905468155837" lon="11.750598537966477"><ele>7.800000000000001</ele><time>2026-04-11T11:13:42Z</time></trkpt><trkpt lat="44.85897891090895" lon="11.750518549738288"><ele>7.6000000000000005</ele><time>2026-04-11T11:13:44Z</time></trkpt><trkpt lat="44.85890725438367" lon="11.750430271687394"><ele>7.3999999999999995</ele><time>2026-04-11T11:13:46Z</time></trkpt><trkpt lat="44.85883264572652" lon="11.750347389881535"><ele>7.199999999999999</ele><time>2026-04-11T11:13:48Z</time></trkpt><trkpt lat="44.858758865222605" lon="11.750259166447094"><ele>7.0</ele><time>2026-04-11T11:13:50Z</time></trkpt><trkpt lat="44.85868564119494" lon="11.750178061611553"><ele>6.3999999999999995</ele><time>2026-04-11T11:13:52Z</time></trkpt><trkpt lat="44.85861229131587" lon="11.75009580412292"><ele>5.799999999999999</ele><time>2026-04-11T11:13:54Z</time></trkpt><trkpt lat="44.858531252132714" lon="11.750020600045135"><ele>5.2</ele><time>2026-04-11T11:13:56Z</time></trkpt><trkpt lat="44.858453224866146" lon="11.749947095069782"><ele>4.6</ele><time>2026-04-11T11:13:58Z</time></trkpt><trkpt lat="44.858370242532814" lon="11.74988349047037"><ele>4.0</ele><time>2026-04-11T11:14:00Z</time></trkpt><trkpt lat="44.85828442171683" lon="11.749829603021313"><ele>3.9999999999999996</ele><time>2026-04-11T11:14:02Z</time></trkpt><trkpt lat="44.858199194689476" lon="11.74977327731469"><ele>4.0</ele><time>2026-04-11T11:14:04Z</time></trkpt><trkpt lat="44.85811783660555" lon="11.749722808082762"><ele>4.0</ele><time>2026-04-11T11:14:06Z</time></trkpt><trkpt lat="44.85804156704412" lon="11.749678763864539"><ele>4.0</ele><time>2026-04-11T11:14:08Z</time></trkpt><trkpt lat="44.85796589669539" lon="11.749633655996169"><ele>3.9999999999999996</ele><time>2026-04-11T11:14:10Z</time></trkpt><trkpt lat="44.85789679160192" lon="11.749600567427542"><ele>4.0</ele><time>2026-04-11T11:14:12Z</time></trkpt><trkpt lat="44.85783101713219" lon="11.749566686072196"><ele>4.0</ele><time>2026-04-11T11:14:14Z</time></trkpt><trkpt lat="44.85775858089937" lon="11.749532646022372"><ele>3.9999999999999996</ele><time>2026-04-11T11:14:16Z</time></trkpt><trkpt lat="44.85769429941318" lon="11.749496630980211"><ele>4.0</ele><time>2026-04-11T11:14:18Z</time></trkpt><trkpt lat="44.857634987931334" lon="11.749466050889652"><ele>4.0</ele><time>2026-04-11T11:14:20Z</time></trkpt><trkpt lat="44.85754681692123" lon="11.749426041543044"><ele>3.9999999999999996</ele><time>2026-04-11T11:14:23Z</time></trkpt><trkpt lat="44.85747715629514" lon="11.749393038026565"><ele>4.0</ele><time>2026-04-11T11:14:25Z</time></trkpt><trkpt lat="44.85741505478273" lon="11.74936541824292"><ele>4.0</ele><time>2026-04-11T11:14:27Z</time></trkpt><trkpt lat="44.857347950735395" lon="11.749331805517329"><ele>3.714285714285714</ele><time>2026-04-11T11:14:29Z</time></trkpt><trkpt lat="44.85727214579873" lon="11.749306112570178"><ele>3.428571428571428</ele><time>2026-04-11T11:14:31Z</time></trkpt><trkpt lat="44.857197888411925" lon="11.749283603027056"><ele>3.142857142857143</ele><time>2026-04-11T11:14:33Z</time></trkpt><trkpt lat="44.857124704118995" lon="11.74926854542032"><ele>2.8571428571428568</ele><time>2026-04-11T11:14:35Z</time></trkpt><trkpt lat="44.857058330198406" lon="11.74924270714366"><ele>2.571428571428571</ele><time>2026-04-11T11:14:37Z</time></trkpt><trkpt lat="44.856994777926815" lon="11.749215154842975"><ele>2.2857142857142856</ele><time>2026-04-11T11:14:39Z</time></trkpt><trkpt lat="44.85691887629273" lon="11.749188347612005"><ele>2.0</ele><time>2026-04-11T11:14:41Z</time></trkpt><trkpt lat="44.85684857540002" lon="11.749164164493472"><ele>2.2857142857142856</ele><time>2026-04-11T11:14:43Z</time></trkpt><trkpt lat="44.85678095644415" lon="11.74914436917291"><ele>2.571428571428571</ele><time>2026-04-11T11:14:45Z</time></trkpt><trkpt lat="44.85671710385252" lon="11.749133429151504"><ele>2.8571428571428568</ele><time>2026-04-11T11:14:47Z</time></trkpt><trkpt lat="44.85665513646229" lon="11.749112755585243"><ele>3.142857142857143</ele><time>2026-04-11T11:14:49Z</time></trkpt><trkpt lat="44.85659210285668" lon="11.74908784095019"><ele>3.428571428571428</ele><time>2026-04-11T11:14:51Z</time></trkpt><trkpt lat="44.856506527757894" lon="11.74906039552004"><ele>3.714285714285714</ele><time>2026-04-11T11:14:53Z</time></trkpt><trkpt lat="44.85643128633206" lon="11.749052902586351"><ele>4.0</ele><time>2026-04-11T11:14:55Z</time></trkpt><trkpt lat="44.85636155421255" lon="11.749024359642853"><ele>4.0</ele><time>2026-04-11T11:14:57Z</time></trkpt><trkpt lat="44.856281937368735" lon="11.749005532395577"><ele>3.9999999999999996</ele><time>2026-04-11T11:14:59Z</time></trkpt><trkpt lat="44.856201132888636" lon="11.748993800551752"><ele>4.0</ele><time>2026-04-11T11:15:01Z</time></trkpt><trkpt lat="44.85612720967278" lon="11.748982689774792"><ele>4.0</ele><time>2026-04-11T11:15:03Z</time></trkpt><trkpt lat="44.85605503637218" lon="11.748993716932928"><ele>3.9999999999999996</ele><time>2026-04-11T11:15:05Z</time></trkpt><trkpt lat="44.855986587146525" lon="11.749000732065431"><ele>4.0</ele><time>2026-04-11T11:15:07Z</time></trkpt><trkpt lat="44.855921728135726" lon="11.748998944507651"><ele>4.0</ele><time>2026-04-11T11:15:09Z</time></trkpt><trkpt lat="44.85583799901889" lon="11.749008408305787"><ele>4.5</ele><time>2026-04-11T11:15:11Z</time></trkpt><trkpt lat="44.85575615239584" lon="11.74901964403215"><ele>5.0</ele><time>2026-04-11T11:15:13Z</time></trkpt><trkpt lat="44.85567757757314" lon="11.749031815963388"><ele>5.5</ele><time>2026-04-11T11:15:15Z</time></trkpt><trkpt lat="44.85560920347847" lon="11.749045779391807"><ele>6.0</ele><time>2026-04-11T11:15:17Z</time></trkpt><trkpt lat="44.85554271473755" lon="11.749042148175633"><ele>6.500000000000001</ele><time>2026-04-11T11:15:19Z</time></trkpt><trkpt lat="44.85544471090812" lon="11.74905879573587"><ele>7.0</ele><time>2026-04-11T11:15:22Z</time></trkpt><trkpt lat="44.85535549969842" lon="11.749058569945916"><ele>7.0</ele><time>2026-04-11T11:15:24Z</time></trkpt><trkpt lat="44.8552646177602" lon="11.7490595984707"><ele>6.999999999999999</ele><time>2026-04-11T11:15:26Z</time></trkpt><trkpt lat="44.855170204640224" lon="11.749030267702732"><ele>6.999999999999999</ele><time>2026-04-11T11:15:28Z</time></trkpt><trkpt lat="44.85508394485151" lon="11.748977866457658"><ele>7.0</ele><time>2026-04-11T11:15:30Z</time></trkpt><trkpt lat="44.855003187963625" lon="11.748902364537141"><ele>7.0</ele><time>2026-04-11T11:15:32Z</time></trkpt><trkpt lat="44.854925014533805" lon="11.748827506617067"><ele>6.666666666666667</ele><time>2026-04-11T11:15:34Z</time></trkpt><trkpt lat="44.85485709743967" lon="11.748746630484442"><ele>6.333333333333334</ele><time>2026-04-11T11:15:36Z</time></trkpt><trkpt lat="44.85479110908875" lon="11.748673482305893"><ele>6.0</ele><time>2026-04-11T11:15:38Z</time></trkpt><trkpt lat="44.85472614819005" lon="11.748605040411633"><ele>5.666666666666667</ele><time>2026-04-11T11:15:40Z</time></trkpt><trkpt lat="44.8546692875448" lon="11.748535692647424"><ele>5.333333333333334</ele><time>2026-04-11T11:15:42Z</time></trkpt><trkpt lat="44.854612953510944" lon="11.748471064480995"><ele>5.0</ele><time>2026-04-11T11:15:44Z</time></trkpt><trkpt lat="44.85455898172426" lon="11.74840709612286"><ele>4.666666666666667</ele><time>2026-04-11T11:15:46Z</time></trkpt><trkpt lat="44.854510107784044" lon="11.748342306064913"><ele>4.333333333333334</ele><time>2026-04-11T11:15:48Z</time></trkpt><trkpt lat="44.854434975229935" lon="11.748252237706788"><ele>4.0</ele><time>2026-04-11T11:15:51Z</time></trkpt><trkpt lat="44.854374569953336" lon="11.748189853884123"><ele>3.666666666666667</ele><time>2026-04-11T11:15:53Z</time></trkpt><trkpt lat="44.85432251468901" lon="11.748121909248392"><ele>3.3333333333333335</ele><time>2026-04-11T11:15:55Z</time></trkpt><trkpt lat="44.854251870587966" lon="11.748047285989248"><ele>3.0</ele><time>2026-04-11T11:15:57Z</time></trkpt><trkpt lat="44.854185025057376" lon="11.747968807845128"><ele>3.0</ele><time>2026-04-11T11:15:59Z</time></trkpt><trkpt lat="44.854119214827" lon="11.747896010297959"><ele>3.0</ele><time>2026-04-11T11:16:01Z</time></trkpt><trkpt lat="44.85405431683022" lon="11.747829387073471"><ele>3.0</ele><time>2026-04-11T11:16:03Z</time></trkpt><trkpt lat="44.85399417610014" lon="11.747759910643527"><ele>3.0</ele><time>2026-04-11T11:16:05Z</time></trkpt><trkpt lat="44.853930022022126" lon="11.747682653641647"><ele>3.0</ele><time>2026-04-11T11:16:07Z</time></trkpt><trkpt lat="44.85385452448496" lon="11.74760740970875"><ele>3.0</ele><time>2026-04-11T11:16:09Z</time></trkpt><trkpt lat="44.85378198044553" lon="11.747530710468515"><ele>3.0</ele><time>2026-04-11T11:16:11Z</time></trkpt><trkpt lat="44.85371066542936" lon="11.7474566924089"><ele>3.0</ele><time>2026-04-11T11:16:13Z</time></trkpt><trkpt lat="44.85364619404642" lon="11.747379351542357"><ele>3.0</ele><time>2026-04-11T11:16:15Z</time></trkpt><trkpt lat="44.85357164357947" lon="11.74730653538717"><ele>3.0</ele><time>2026-04-11T11:16:17Z</time></trkpt><trkpt lat="44.85350103856998" lon="11.747232121279154"><ele>3.0</ele><time>2026-04-11T11:16:19Z</time></trkpt><trkpt lat="44.85343089136095" lon="11.747164610350008"><ele>3.0</ele><time>2026-04-11T11:16:21Z</time></trkpt><trkpt lat="44.853366661309664" lon="11.747098778902615"><ele>3.0</ele><time>2026-04-11T11:16:23Z</time></trkpt><trkpt lat="44.853302607469" lon="11.747042432191682"><ele>3.0</ele><time>2026-04-11T11:16:25Z</time></trkpt><trkpt lat="44.85323932681802" lon="11.746970767018881"><ele>3.0</ele><time>2026-04-11T11:16:27Z</time></trkpt><trkpt lat="44.85316272407812" lon="11.746900375747137"><ele>3.0</ele><time>2026-04-11T11:16:29Z</time></trkpt><trkpt lat="44.85308605437847" lon="11.746825008117431"><ele>3.0</ele><time>2026-04-11T11:16:31Z</time></trkpt><trkpt lat="44.85300917907208" lon="11.746750465163231"><ele>3.0</ele><time>2026-04-11T11:16:33Z</time></trkpt><trkpt lat="44.852932152060674" lon="11.746674700199433"><ele>3.1666666666666665</ele><time>2026-04-11T11:16:35Z</time></trkpt><trkpt lat="44.85285401852496" lon="11.746600775307803"><ele>3.333333333333333</ele><time>2026-04-11T11:16:37Z</time></trkpt><trkpt lat="44.85277485321039" lon="11.746528166486849"><ele>3.5</ele><time>2026-04-11T11:16:39Z</time></trkpt><trkpt lat="44.85270064281823" lon="11.746457902419024"><ele>3.6666666666666665</ele><time>2026-04-11T11:16:41Z</time></trkpt><trkpt lat="44.85262807481184" lon="11.74638913891313"><ele>3.833333333333333</ele><time>2026-04-11T11:16:43Z</time></trkpt><trkpt lat="44.85255830958032" lon="11.746323206565947"><ele>4.0</ele><time>2026-04-11T11:16:45Z</time></trkpt><trkpt lat="44.85248997839142" lon="11.746264448447418"><ele>3.9999999999999996</ele><time>2026-04-11T11:16:47Z</time></trkpt><trkpt lat="44.85242833147641" lon="11.746207423404178"><ele>4.0</ele><time>2026-04-11T11:16:49Z</time></trkpt><trkpt lat="44.85237175913647" lon="11.746145063076781"><ele>4.0</ele><time>2026-04-11T11:16:51Z</time></trkpt><trkpt lat="44.852299276867804" lon="11.746074517964544"><ele>4.0</ele><time>2026-04-11T11:16:53Z</time></trkpt><trkpt lat="44.852223583783655" lon="11.74601025424603"><ele>3.9999999999999996</ele><time>2026-04-11T11:16:55Z</time></trkpt><trkpt lat="44.85215412644592" lon="11.74594172748264"><ele>4.0</ele><time>2026-04-11T11:16:57Z</time></trkpt><trkpt lat="44.85208528430985" lon="11.745877985664366"><ele>3.9999999999999996</ele><time>2026-04-11T11:16:59Z</time></trkpt><trkpt lat="44.85202332889135" lon="11.745810839064939"><ele>4.0</ele><time>2026-04-11T11:17:01Z</time></trkpt><trkpt lat="44.85195226051909" lon="11.745745070082288"><ele>4.0</ele><time>2026-04-11T11:17:03Z</time></trkpt><trkpt lat="44.85187060364776" lon="11.745678377215782"><ele>4.0</ele><time>2026-04-11T11:17:05Z</time></trkpt><trkpt lat="44.851800565849324" lon="11.745606652737376"><ele>3.9999999999999996</ele><time>2026-04-11T11:17:07Z</time></trkpt><trkpt lat="44.851729671145755" lon="11.745539901497347"><ele>4.0</ele><time>2026-04-11T11:17:09Z</time></trkpt><trkpt lat="44.85166098258414" lon="11.745478098121097"><ele>3.833333333333333</ele><time>2026-04-11T11:17:11Z</time></trkpt><trkpt lat="44.85159593859305" lon="11.745413554662226"><ele>3.6666666666666665</ele><time>2026-04-11T11:17:13Z</time></trkpt><trkpt lat="44.851532855075504" lon="11.745355156559723"><ele>3.5</ele><time>2026-04-11T11:17:15Z</time></trkpt><trkpt lat="44.85146115309367" lon="11.74528940970109"><ele>3.333333333333333</ele><time>2026-04-11T11:17:17Z</time></trkpt><trkpt lat="44.85138605106684" lon="11.745216949561586"><ele>3.1666666666666665</ele><time>2026-04-11T11:17:19Z</time></trkpt><trkpt lat="44.85131212644499" lon="11.745166810506083"><ele>3.0</ele><time>2026-04-11T11:17:21Z</time></trkpt><trkpt lat="44.851243904068824" lon="11.745115134552908"><ele>3.0</ele><time>2026-04-11T11:17:23Z</time></trkpt><trkpt lat="44.85117697181698" lon="11.7450743252911"><ele>3.0</ele><time>2026-04-11T11:17:25Z</time></trkpt><trkpt lat="44.851097985466325" lon="11.745052714799371"><ele>3.0</ele><time>2026-04-11T11:17:27Z</time></trkpt><trkpt lat="44.851028868402494" lon="11.745031183925574"><ele>3.0</ele><time>2026-04-11T11:17:29Z</time></trkpt><trkpt lat="44.85096108330251" lon="11.745012050856968"><ele>3.0</ele><time>2026-04-11T11:17:31Z</time></trkpt><trkpt lat="44.85087961345833" lon="11.744990732036047"><ele>3.0</ele><time>2026-04-11T11:17:33Z</time></trkpt><trkpt lat="44.850802984458454" lon="11.744977365519796"><ele>3.3333333333333335</ele><time>2026-04-11T11:17:35Z</time></trkpt><trkpt lat="44.85073496340322" lon="11.744949923374184"><ele>3.666666666666667</ele><time>2026-04-11T11:17:37Z</time></trkpt><trkpt lat="44.85065609183156" lon="11.744911454576943"><ele>4.0</ele><time>2026-04-11T11:17:39Z</time></trkpt><trkpt lat="44.85057247772617" lon="11.744866409518636"><ele>4.333333333333334</ele><time>2026-04-11T11:17:41Z</time></trkpt><trkpt lat="44.850488256675135" lon="11.744819997292694"><ele>4.666666666666667</ele><time>2026-04-11T11:17:43Z</time></trkpt><trkpt lat="44.85040590873635" lon="11.744769096827826"><ele>5.0</ele><time>2026-04-11T11:17:45Z</time></trkpt><trkpt lat="44.85032762649864" lon="11.744715068360769"><ele>5.0</ele><time>2026-04-11T11:17:47Z</time></trkpt><trkpt lat="44.85025304484009" lon="11.744644814679095"><ele>5.0</ele><time>2026-04-11T11:17:49Z</time></trkpt><trkpt lat="44.850176712757396" lon="11.74459772283485"><ele>5.0</ele><time>2026-04-11T11:17:51Z</time></trkpt><trkpt lat="44.850120899599744" lon="11.744530476631628"><ele>5.0</ele><time>2026-04-11T11:17:53Z</time></trkpt><trkpt lat="44.8500569477003" lon="11.744487280356317"><ele>5.0</ele><time>2026-04-11T11:17:55Z</time></trkpt><trkpt lat="44.850001669239894" lon="11.744444407317845"><ele>5.0</ele><time>2026-04-11T11:17:57Z</time></trkpt><trkpt lat="44.849922658472636" lon="11.744373759059018"><ele>4.714285714285714</ele><time>2026-04-11T11:18:00Z</time></trkpt><trkpt lat="44.84985075397991" lon="11.74431559214687"><ele>4.428571428571429</ele><time>2026-04-11T11:18:02Z</time></trkpt><trkpt lat="44.84978953662692" lon="11.74424796715835"><ele>4.142857142857142</ele><time>2026-04-11T11:18:04Z</time></trkpt><trkpt lat="44.849728460511095" lon="11.744191444847075"><ele>3.8571428571428568</ele><time>2026-04-11T11:18:06Z</time></trkpt><trkpt lat="44.84966868651206" lon="11.744137889307156"><ele>3.571428571428571</ele><time>2026-04-11T11:18:08Z</time></trkpt><trkpt lat="44.84961756898315" lon="11.744079582865151"><ele>3.2857142857142856</ele><time>2026-04-11T11:18:10Z</time></trkpt><trkpt lat="44.84956684342183" lon="11.74401613932217"><ele>3.0</ele><time>2026-04-11T11:18:12Z</time></trkpt><trkpt lat="44.84950040549737" lon="11.743943620750247"><ele>3.0</ele><time>2026-04-11T11:18:14Z</time></trkpt><trkpt lat="44.84944341310183" lon="11.743864737550865"><ele>3.0</ele><time>2026-04-11T11:18:16Z</time></trkpt><trkpt lat="44.84939031092815" lon="11.74378722715612"><ele>3.0</ele><time>2026-04-11T11:18:18Z</time></trkpt><trkpt lat="44.84934127246215" lon="11.743707350407321"><ele>3.0</ele><time>2026-04-11T11:18:20Z</time></trkpt><trkpt lat="44.84929226499012" lon="11.743600700073717"><ele>3.0</ele><time>2026-04-11T11:18:22Z</time></trkpt><trkpt lat="44.84924431191767" lon="11.743509548891236"><ele>3.0</ele><time>2026-04-11T11:18:24Z</time></trkpt><trkpt lat="44.84920230517756" lon="11.743414257280953"><ele>2.9999999999999996</ele><time>2026-04-11T11:18:26Z</time></trkpt><trkpt lat="44.849164625311744" lon="11.743325543471979"><ele>3.0</ele><time>2026-04-11T11:18:28Z</time></trkpt><trkpt lat="44.849128593721346" lon="11.743240157055741"><ele>3.0</ele><time>2026-04-11T11:18:30Z</time></trkpt><trkpt lat="44.849090908726176" lon="11.7431459932032"><ele>3.0</ele><time>2026-04-11T11:18:32Z</time></trkpt><trkpt lat="44.849053973457906" lon="11.743051446741543"><ele>3.0</ele><time>2026-04-11T11:18:34Z</time></trkpt><trkpt lat="44.849025066872734" lon="11.742961205997917"><ele>2.9999999999999996</ele><time>2026-04-11T11:18:36Z</time></trkpt><trkpt lat="44.849000767167816" lon="11.742866305703368"><ele>3.0</ele><time>2026-04-11T11:18:38Z</time></trkpt><trkpt lat="44.848977753681304" lon="11.742773240851642"><ele>3.0</ele><time>2026-04-11T11:18:40Z</time></trkpt><trkpt lat="44.84895371647527" lon="11.74268672103568"><ele>3.0</ele><time>2026-04-11T11:18:42Z</time></trkpt><trkpt lat="44.84892548554894" lon="11.742580915504107"><ele>3.0</ele><time>2026-04-11T11:18:44Z</time></trkpt><trkpt lat="44.84890368178247" lon="11.742467249564518"><ele>3.0</ele><time>2026-04-11T11:18:46Z</time></trkpt><trkpt lat="44.84888615129375" lon="11.742354504482442"><ele>3.0</ele><time>2026-04-11T11:18:48Z</time></trkpt><trkpt lat="44.84886683272006" lon="11.742238541278269"><ele>3.0</ele><time>2026-04-11T11:18:50Z</time></trkpt><trkpt lat="44.84884370552098" lon="11.742115579818153"><ele>3.0</ele><time>2026-04-11T11:18:52Z</time></trkpt><trkpt lat="44.848819699272646" lon="11.742002392076298"><ele>3.0</ele><time>2026-04-11T11:18:54Z</time></trkpt><trkpt lat="44.84879770618545" lon="11.741888661588403"><ele>3.0</ele><time>2026-04-11T11:18:56Z</time></trkpt><trkpt lat="44.848783673793434" lon="11.741779640825555"><ele>3.0</ele><time>2026-04-11T11:18:58Z</time></trkpt><trkpt lat="44.84877179945321" lon="11.741668070077218"><ele>3.0</ele><time>2026-04-11T11:19:00Z</time></trkpt><trkpt lat="44.84875609733538" lon="11.741540960100027"><ele>3.0</ele><time>2026-04-11T11:19:02Z</time></trkpt><trkpt lat="44.848741775156" lon="11.74141777357101"><ele>3.0</ele><time>2026-04-11T11:19:04Z</time></trkpt><trkpt lat="44.84873208556553" lon="11.741298988392746"><ele>3.0</ele><time>2026-04-11T11:19:06Z</time></trkpt><trkpt lat="44.84872089798048" lon="11.741182194927505"><ele>3.0</ele><time>2026-04-11T11:19:08Z</time></trkpt><trkpt lat="44.848715957499266" lon="11.741071349687482"><ele>3.0</ele><time>2026-04-11T11:19:10Z</time></trkpt><trkpt lat="44.84870324715861" lon="11.740957795761013"><ele>3.0</ele><time>2026-04-11T11:19:12Z</time></trkpt><trkpt lat="44.84869715454589" lon="11.740841495638698"><ele>3.0</ele><time>2026-04-11T11:19:14Z</time></trkpt><trkpt lat="44.84869030476974" lon="11.740729537362895"><ele>3.0</ele><time>2026-04-11T11:19:16Z</time></trkpt><trkpt lat="44.84868457328292" lon="11.740619321353012"><ele>3.0</ele><time>2026-04-11T11:19:18Z</time></trkpt><trkpt lat="44.848675090917304" lon="11.740509011524589"><ele>3.0</ele><time>2026-04-11T11:19:20Z</time></trkpt><trkpt lat="44.848670859216455" lon="11.74040136718205"><ele>3.0</ele><time>2026-04-11T11:19:22Z</time></trkpt><trkpt lat="44.84866092447739" lon="11.740287334389043"><ele>3.0</ele><time>2026-04-11T11:19:24Z</time></trkpt><trkpt lat="44.848655651687864" lon="11.740177402895197"><ele>3.0</ele><time>2026-04-11T11:19:26Z</time></trkpt><trkpt lat="44.84865883166688" lon="11.740074582274845"><ele>3.1666666666666665</ele><time>2026-04-11T11:19:28Z</time></trkpt><trkpt lat="44.84864600525079" lon="11.739966871444967"><ele>3.333333333333333</ele><time>2026-04-11T11:19:30Z</time></trkpt><trkpt lat="44.848631282324895" lon="11.739839743678276"><ele>3.5</ele><time>2026-04-11T11:19:32Z</time></trkpt><trkpt lat="44.8486125231535" lon="11.739722412002742"><ele>3.6666666666666665</ele><time>2026-04-11T11:19:34Z</time></trkpt><trkpt lat="44.848577284702465" lon="11.73961827818038"><ele>3.833333333333333</ele><time>2026-04-11T11:19:36Z</time></trkpt><trkpt lat="44.84855880444074" lon="11.73951123382845"><ele>4.0</ele><time>2026-04-11T11:19:38Z</time></trkpt><trkpt lat="44.84853025936213" lon="11.739409986724379"><ele>3.833333333333333</ele><time>2026-04-11T11:19:40Z</time></trkpt><trkpt lat="44.84850526112001" lon="11.73931562908237"><ele>3.6666666666666665</ele><time>2026-04-11T11:19:42Z</time></trkpt><trkpt lat="44.84846834897472" lon="11.739219712722967"><ele>3.5</ele><time>2026-04-11T11:19:44Z</time></trkpt><trkpt lat="44.8484291865576" lon="11.739123954919691"><ele>3.333333333333333</ele><time>2026-04-11T11:19:46Z</time></trkpt><trkpt lat="44.848399396462405" lon="11.739031685454878"><ele>3.1666666666666665</ele><time>2026-04-11T11:19:48Z</time></trkpt><trkpt lat="44.848364133329696" lon="11.738924973430226"><ele>3.0</ele><time>2026-04-11T11:19:50Z</time></trkpt><trkpt lat="44.84832249251457" lon="11.738810188004678"><ele>3.1666666666666665</ele><time>2026-04-11T11:19:52Z</time></trkpt><trkpt lat="44.84829041277879" lon="11.738711055177022"><ele>3.333333333333333</ele><time>2026-04-11T11:19:54Z</time></trkpt><trkpt lat="44.848260090834245" lon="11.738606494934439"><ele>3.5</ele><time>2026-04-11T11:19:56Z</time></trkpt><trkpt lat="44.84823403092289" lon="11.73850352431682"><ele>3.6666666666666665</ele><time>2026-04-11T11:19:58Z</time></trkpt><trkpt lat="44.848221503954534" lon="11.738408497497026"><ele>3.833333333333333</ele><time>2026-04-11T11:20:00Z</time></trkpt><trkpt lat="44.84821952564984" lon="11.738301149789026"><ele>4.0</ele><time>2026-04-11T11:20:02Z</time></trkpt><trkpt lat="44.84822448438001" lon="11.738188863102485"><ele>3.9999999999999996</ele><time>2026-04-11T11:20:04Z</time></trkpt><trkpt lat="44.84823462456642" lon="11.738082575536064"><ele>4.0</ele><time>2026-04-11T11:20:06Z</time></trkpt><trkpt lat="44.848255397111785" lon="11.737985465389691"><ele>4.0</ele><time>2026-04-11T11:20:08Z</time></trkpt><trkpt lat="44.84827620256098" lon="11.737884529504328"><ele>4.0</ele><time>2026-04-11T11:20:10Z</time></trkpt><trkpt lat="44.84829689654143" lon="11.737768915641913"><ele>3.9999999999999996</ele><time>2026-04-11T11:20:12Z</time></trkpt><trkpt lat="44.84831891889753" lon="11.737645334055793"><ele>4.0</ele><time>2026-04-11T11:20:14Z</time></trkpt><trkpt lat="44.84834106369208" lon="11.737535311176876"><ele>4.142857142857142</ele><time>2026-04-11T11:20:16Z</time></trkpt><trkpt lat="44.848363108065925" lon="11.737432802107952"><ele>4.285714285714286</ele><time>2026-04-11T11:20:18Z</time></trkpt><trkpt lat="44.84838388135446" lon="11.737335188782913"><ele>4.428571428571429</ele><time>2026-04-11T11:20:20Z</time></trkpt><trkpt lat="44.848407313159015" lon="11.737239179977633"><ele>4.571428571428571</ele><time>2026-04-11T11:20:22Z</time></trkpt><trkpt lat="44.848423398487256" lon="11.737137224895424"><ele>4.714285714285714</ele><time>2026-04-11T11:20:24Z</time></trkpt><trkpt lat="44.84844342033507" lon="11.737036076013554"><ele>4.857142857142857</ele><time>2026-04-11T11:20:26Z</time></trkpt><trkpt lat="44.8484624316369" lon="11.736943263292057"><ele>5.0</ele><time>2026-04-11T11:20:28Z</time></trkpt><trkpt lat="44.848484840340454" lon="11.736838964768094"><ele>4.666666666666667</ele><time>2026-04-11T11:20:30Z</time></trkpt><trkpt lat="44.84850733742143" lon="11.736719636454092"><ele>4.333333333333334</ele><time>2026-04-11T11:20:32Z</time></trkpt><trkpt lat="44.84853206137343" lon="11.736611213756413"><ele>4.0</ele><time>2026-04-11T11:20:34Z</time></trkpt><trkpt lat="44.84854911396968" lon="11.736504024927783"><ele>3.666666666666667</ele><time>2026-04-11T11:20:36Z</time></trkpt><trkpt lat="44.84857309335637" lon="11.736404847836985"><ele>3.3333333333333335</ele><time>2026-04-11T11:20:38Z</time></trkpt><trkpt lat="44.84860209709085" lon="11.736302278001297"><ele>3.0</ele><time>2026-04-11T11:20:40Z</time></trkpt><trkpt lat="44.84862654584932" lon="11.736178847494521"><ele>3.0</ele><time>2026-04-11T11:20:42Z</time></trkpt><trkpt lat="44.84864926977708" lon="11.73606381942621"><ele>3.0</ele><time>2026-04-11T11:20:44Z</time></trkpt><trkpt lat="44.84867614719249" lon="11.735954656135961"><ele>3.0</ele><time>2026-04-11T11:20:46Z</time></trkpt><trkpt lat="44.84869859385232" lon="11.735837299644603"><ele>3.0</ele><time>2026-04-11T11:20:48Z</time></trkpt><trkpt lat="44.84872996217114" lon="11.735733792443373"><ele>3.0</ele><time>2026-04-11T11:20:50Z</time></trkpt><trkpt lat="44.84876052461758" lon="11.735616434771126"><ele>3.0</ele><time>2026-04-11T11:20:52Z</time></trkpt><trkpt lat="44.8487888974205" lon="11.735505417583855"><ele>2.9999999999999996</ele><time>2026-04-11T11:20:54Z</time></trkpt><trkpt lat="44.848817395977186" lon="11.735399460308152"><ele>3.0</ele><time>2026-04-11T11:20:56Z</time></trkpt><trkpt lat="44.84884480565565" lon="11.735298912080694"><ele>3.0</ele><time>2026-04-11T11:20:58Z</time></trkpt><trkpt lat="44.84886821100726" lon="11.735198853890177"><ele>3.0</ele><time>2026-04-11T11:21:00Z</time></trkpt><trkpt lat="44.84889964003572" lon="11.73510814495447"><ele>3.0</ele><time>2026-04-11T11:21:02Z</time></trkpt><trkpt lat="44.84892210359918" lon="11.735020299857538"><ele>2.9999999999999996</ele><time>2026-04-11T11:21:04Z</time></trkpt><trkpt lat="44.84895042383827" lon="11.734936134679897"><ele>3.0</ele><time>2026-04-11T11:21:06Z</time></trkpt><trkpt lat="44.84898119762685" lon="11.734828732233368"><ele>3.1666666666666665</ele><time>2026-04-11T11:21:08Z</time></trkpt><trkpt lat="44.84901111527412" lon="11.734704164851081"><ele>3.333333333333333</ele><time>2026-04-11T11:21:10Z</time></trkpt><trkpt lat="44.849042003311745" lon="11.734590990791691"><ele>3.5</ele><time>2026-04-11T11:21:12Z</time></trkpt><trkpt lat="44.849065645459895" lon="11.734487279833825"><ele>3.6666666666666665</ele><time>2026-04-11T11:21:14Z</time></trkpt><trkpt lat="44.84909949078046" lon="11.734392156613993"><ele>3.833333333333333</ele><time>2026-04-11T11:21:16Z</time></trkpt><trkpt lat="44.84912970550533" lon="11.734279116889608"><ele>4.0</ele><time>2026-04-11T11:21:18Z</time></trkpt><trkpt lat="44.849161585621125" lon="11.734175714768032"><ele>4.166666666666666</ele><time>2026-04-11T11:21:20Z</time></trkpt><trkpt lat="44.84919223247158" lon="11.734076600434612"><ele>4.333333333333333</ele><time>2026-04-11T11:21:22Z</time></trkpt><trkpt lat="44.84922072165935" lon="11.733983409329069"><ele>4.5</ele><time>2026-04-11T11:21:24Z</time></trkpt><trkpt lat="44.84925142584619" lon="11.733892982987207"><ele>4.666666666666667</ele><time>2026-04-11T11:21:26Z</time></trkpt><trkpt lat="44.84928212902957" lon="11.733786835800283"><ele>4.833333333333334</ele><time>2026-04-11T11:21:28Z</time></trkpt><trkpt lat="44.84931787506376" lon="11.73367567932672"><ele>5.0</ele><time>2026-04-11T11:21:30Z</time></trkpt><trkpt lat="44.84935065215379" lon="11.733573657515853"><ele>4.666666666666667</ele><time>2026-04-11T11:21:32Z</time></trkpt><trkpt lat="44.84938413631222" lon="11.733480249888338"><ele>4.333333333333334</ele><time>2026-04-11T11:21:34Z</time></trkpt><trkpt lat="44.84940559396123" lon="11.733383343930077"><ele>4.0</ele><time>2026-04-11T11:21:36Z</time></trkpt><trkpt lat="44.84943566979915" lon="11.733300993262546"><ele>3.666666666666667</ele><time>2026-04-11T11:21:38Z</time></trkpt><trkpt lat="44.84945748015601" lon="11.733213903798488"><ele>3.3333333333333335</ele><time>2026-04-11T11:21:40Z</time></trkpt><trkpt lat="44.84948581369657" lon="11.733097927250785"><ele>3.0</ele><time>2026-04-11T11:21:43Z</time></trkpt><trkpt lat="44.84951311042796" lon="11.732968947820503"><ele>3.0</ele><time>2026-04-11T11:21:46Z</time></trkpt><trkpt lat="44.84954063820866" lon="11.732852426845657"><ele>3.0</ele><time>2026-04-11T11:21:48Z</time></trkpt><trkpt lat="44.849567257609344" lon="11.732727552437591"><ele>3.0</ele><time>2026-04-11T11:21:50Z</time></trkpt><trkpt lat="44.84958610349955" lon="11.73260695287613"><ele>3.0</ele><time>2026-04-11T11:21:52Z</time></trkpt><trkpt lat="44.849605267322985" lon="11.732489410290064"><ele>3.0</ele><time>2026-04-11T11:21:54Z</time></trkpt><trkpt lat="44.84963412740644" lon="11.732377013784323"><ele>3.0</ele><time>2026-04-11T11:21:56Z</time></trkpt><trkpt lat="44.84965359968957" lon="11.732268139130653"><ele>3.0</ele><time>2026-04-11T11:21:58Z</time></trkpt><trkpt lat="44.84967038037304" lon="11.732150290860298"><ele>3.0</ele><time>2026-04-11T11:22:00Z</time></trkpt><trkpt lat="44.84969380908481" lon="11.732026646457836"><ele>3.0</ele><time>2026-04-11T11:22:02Z</time></trkpt><trkpt lat="44.84971039288531" lon="11.73190809288454"><ele>3.0</ele><time>2026-04-11T11:22:04Z</time></trkpt><trkpt lat="44.849728903947664" lon="11.731792253389793"><ele>3.0</ele><time>2026-04-11T11:22:06Z</time></trkpt><trkpt lat="44.849743817193435" lon="11.731682142197535"><ele>3.0</ele><time>2026-04-11T11:22:08Z</time></trkpt><trkpt lat="44.8497582635041" lon="11.731574331191158"><ele>3.0</ele><time>2026-04-11T11:22:10Z</time></trkpt><trkpt lat="44.84978187914246" lon="11.731472819992526"><ele>3.0</ele><time>2026-04-11T11:22:12Z</time></trkpt><trkpt lat="44.849797072500344" lon="11.731355771289024"><ele>3.0</ele><time>2026-04-11T11:22:14Z</time></trkpt><trkpt lat="44.84981979451139" lon="11.731227591495294"><ele>3.0</ele><time>2026-04-11T11:22:16Z</time></trkpt><trkpt lat="44.84983185095211" lon="11.731094628061129"><ele>3.0</ele><time>2026-04-11T11:22:18Z</time></trkpt><trkpt lat="44.84985322902768" lon="11.730964953999509"><ele>3.0</ele><time>2026-04-11T11:22:20Z</time></trkpt><trkpt lat="44.84987752180603" lon="11.730844671922643"><ele>3.1666666666666665</ele><time>2026-04-11T11:22:22Z</time></trkpt><trkpt lat="44.84989484417949" lon="11.730724934653903"><ele>3.333333333333333</ele><time>2026-04-11T11:22:24Z</time></trkpt><trkpt lat="44.84991264091734" lon="11.730607130555114"><ele>3.5</ele><time>2026-04-11T11:22:26Z</time></trkpt><trkpt lat="44.84992987625665" lon="11.730491329046096"><ele>3.6666666666666665</ele><time>2026-04-11T11:22:28Z</time></trkpt><trkpt lat="44.84995033642802" lon="11.730370633463304"><ele>3.833333333333333</ele><time>2026-04-11T11:22:30Z</time></trkpt><trkpt lat="44.84997604312828" lon="11.73024082483517"><ele>4.0</ele><time>2026-04-11T11:22:32Z</time></trkpt><trkpt lat="44.84999541847405" lon="11.730112552712836"><ele>4.0</ele><time>2026-04-11T11:22:34Z</time></trkpt><trkpt lat="44.850012114058075" lon="11.729982782346623"><ele>4.0</ele><time>2026-04-11T11:22:36Z</time></trkpt><trkpt lat="44.850027230713586" lon="11.72985585512667"><ele>4.0</ele><time>2026-04-11T11:22:38Z</time></trkpt><trkpt lat="44.85004606892598" lon="11.72972828735284"><ele>4.0</ele><time>2026-04-11T11:22:40Z</time></trkpt><trkpt lat="44.85006490618657" lon="11.729597674124786"><ele>4.0</ele><time>2026-04-11T11:22:42Z</time></trkpt><trkpt lat="44.85008162079912" lon="11.729468106030481"><ele>3.9999999999999996</ele><time>2026-04-11T11:22:44Z</time></trkpt><trkpt lat="44.85010189755165" lon="11.729346486022944"><ele>4.0</ele><time>2026-04-11T11:22:46Z</time></trkpt><trkpt lat="44.850116788316804" lon="11.72922932267353"><ele>4.0</ele><time>2026-04-11T11:22:48Z</time></trkpt><trkpt lat="44.850132842378486" lon="11.729118765891382"><ele>4.0</ele><time>2026-04-11T11:22:50Z</time></trkpt><trkpt lat="44.85015034518534" lon="11.72900760963482"><ele>3.9999999999999996</ele><time>2026-04-11T11:22:52Z</time></trkpt><trkpt lat="44.85016751822796" lon="11.728890718744838"><ele>4.0</ele><time>2026-04-11T11:22:54Z</time></trkpt><trkpt lat="44.850186595483756" lon="11.728777809730108"><ele>3.833333333333333</ele><time>2026-04-11T11:22:56Z</time></trkpt><trkpt lat="44.85020317224238" lon="11.72867037974936"><ele>3.6666666666666665</ele><time>2026-04-11T11:22:58Z</time></trkpt><trkpt lat="44.850220869902216" lon="11.728567085643247"><ele>3.5</ele><time>2026-04-11T11:23:00Z</time></trkpt><trkpt lat="44.85023311849927" lon="11.728471521766394"><ele>3.333333333333333</ele><time>2026-04-11T11:23:02Z</time></trkpt><trkpt lat="44.85025560375047" lon="11.728361450526233"><ele>3.1666666666666665</ele><time>2026-04-11T11:23:04Z</time></trkpt><trkpt lat="44.85027185035141" lon="11.72824044051704"><ele>3.0</ele><time>2026-04-11T11:23:06Z</time></trkpt><trkpt lat="44.85029187296792" lon="11.728130516448966"><ele>3.0</ele><time>2026-04-11T11:23:08Z</time></trkpt><trkpt lat="44.85030957639905" lon="11.728021993527797"><ele>3.0</ele><time>2026-04-11T11:23:10Z</time></trkpt><trkpt lat="44.85032099066171" lon="11.72791505045296"><ele>3.0</ele><time>2026-04-11T11:23:12Z</time></trkpt><trkpt lat="44.850335220663176" lon="11.72780799911773"><ele>3.0</ele><time>2026-04-11T11:23:14Z</time></trkpt><trkpt lat="44.850344382851404" lon="11.727688135725188"><ele>3.0</ele><time>2026-04-11T11:23:16Z</time></trkpt><trkpt lat="44.850353352275256" lon="11.727568513979662"><ele>3.0</ele><time>2026-04-11T11:23:18Z</time></trkpt><trkpt lat="44.85036215717928" lon="11.72745581691608"><ele>3.0</ele><time>2026-04-11T11:23:20Z</time></trkpt><trkpt lat="44.850370207585684" lon="11.72734903744826"><ele>3.0</ele><time>2026-04-11T11:23:22Z</time></trkpt><trkpt lat="44.85037709278182" lon="11.727242883090982"><ele>3.0</ele><time>2026-04-11T11:23:24Z</time></trkpt><trkpt lat="44.8503843843896" lon="11.727138324716814"><ele>3.0</ele><time>2026-04-11T11:23:26Z</time></trkpt><trkpt lat="44.85038545067261" lon="11.727023307339252"><ele>3.0</ele><time>2026-04-11T11:23:28Z</time></trkpt><trkpt lat="44.850388268817895" lon="11.726900740004659"><ele>3.0</ele><time>2026-04-11T11:23:30Z</time></trkpt><trkpt lat="44.85039028587513" lon="11.726786913300643"><ele>3.0</ele><time>2026-04-11T11:23:32Z</time></trkpt><trkpt lat="44.85039277753222" lon="11.72667260497708"><ele>3.0</ele><time>2026-04-11T11:23:34Z</time></trkpt><trkpt lat="44.85039031329912" lon="11.726540326721969"><ele>3.0</ele><time>2026-04-11T11:23:36Z</time></trkpt><trkpt lat="44.85039314808907" lon="11.726418866131676"><ele>3.0</ele><time>2026-04-11T11:23:38Z</time></trkpt><trkpt lat="44.85039627603359" lon="11.726304758531901"><ele>3.0</ele><time>2026-04-11T11:23:40Z</time></trkpt><trkpt lat="44.85039731247464" lon="11.726194949939725"><ele>3.0</ele><time>2026-04-11T11:23:42Z</time></trkpt><trkpt lat="44.85040462119917" lon="11.72608463601028"><ele>2.8333333333333335</ele><time>2026-04-11T11:23:44Z</time></trkpt><trkpt lat="44.85039857282884" lon="11.725960431019075"><ele>2.6666666666666665</ele><time>2026-04-11T11:23:46Z</time></trkpt><trkpt lat="44.85039247445985" lon="11.725846215769026"><ele>2.5</ele><time>2026-04-11T11:23:48Z</time></trkpt><trkpt lat="44.85038697855253" lon="11.725737768420055"><ele>2.333333333333333</ele><time>2026-04-11T11:23:50Z</time></trkpt><trkpt lat="44.850383310669855" lon="11.725636566529452"><ele>2.1666666666666665</ele><time>2026-04-11T11:23:52Z</time></trkpt><trkpt lat="44.85036883457073" lon="11.725537745015268"><ele>2.0</ele><time>2026-04-11T11:23:54Z</time></trkpt><trkpt lat="44.85036464962522" lon="11.725413802225065"><ele>1.9999999999999998</ele><time>2026-04-11T11:23:56Z</time></trkpt><trkpt lat="44.85035189787611" lon="11.725291128213767"><ele>2.0</ele><time>2026-04-11T11:23:58Z</time></trkpt><trkpt lat="44.85033480798726" lon="11.725174036405733"><ele>2.0</ele><time>2026-04-11T11:24:00Z</time></trkpt><trkpt lat="44.85032500879512" lon="11.725062188219036"><ele>2.0</ele><time>2026-04-11T11:24:02Z</time></trkpt><trkpt lat="44.85030798845624" lon="11.724955552641932"><ele>1.9999999999999998</ele><time>2026-04-11T11:24:04Z</time></trkpt><trkpt lat="44.850295254533826" lon="11.724851916389994"><ele>2.0</ele><time>2026-04-11T11:24:06Z</time></trkpt><trkpt lat="44.8502793627828" lon="11.724756937886177"><ele>2.0</ele><time>2026-04-11T11:24:08Z</time></trkpt><trkpt lat="44.8502686863998" lon="11.724651503077633"><ele>1.9999999999999998</ele><time>2026-04-11T11:24:10Z</time></trkpt><trkpt lat="44.85025196368279" lon="11.724547738501897"><ele>2.0</ele><time>2026-04-11T11:24:12Z</time></trkpt><trkpt lat="44.85023354149032" lon="11.72445317690428"><ele>2.0</ele><time>2026-04-11T11:24:14Z</time></trkpt><trkpt lat="44.850216202047775" lon="11.724367038864308"><ele>1.9999999999999998</ele><time>2026-04-11T11:24:16Z</time></trkpt><trkpt lat="44.850190676279645" lon="11.724262369829242"><ele>2.0</ele><time>2026-04-11T11:24:18Z</time></trkpt><trkpt lat="44.850160450897576" lon="11.72415730106413"><ele>2.0</ele><time>2026-04-11T11:24:20Z</time></trkpt><trkpt lat="44.85013873104732" lon="11.72404462807755"><ele>2.4285714285714284</ele><time>2026-04-11T11:24:22Z</time></trkpt><trkpt lat="44.85011002590664" lon="11.723947428561708"><ele>2.8571428571428568</ele><time>2026-04-11T11:24:24Z</time></trkpt><trkpt lat="44.85008370486875" lon="11.7238572377219"><ele>3.2857142857142856</ele><time>2026-04-11T11:24:26Z</time></trkpt><trkpt lat="44.850056187560085" lon="11.723769728566616"><ele>3.7142857142857144</ele><time>2026-04-11T11:24:28Z</time></trkpt><trkpt lat="44.85002882783075" lon="11.72368211499906"><ele>4.142857142857143</ele><time>2026-04-11T11:24:30Z</time></trkpt><trkpt lat="44.849994752818304" lon="11.723584772559738"><ele>4.571428571428571</ele><time>2026-04-11T11:24:32Z</time></trkpt><trkpt lat="44.84996184813224" lon="11.723501339664338"><ele>5.0</ele><time>2026-04-11T11:24:34Z</time></trkpt><trkpt lat="44.8499311843332" lon="11.723422731219557"><ele>5.333333333333334</ele><time>2026-04-11T11:24:36Z</time></trkpt><trkpt lat="44.84989568245231" lon="11.723346488915691"><ele>5.666666666666667</ele><time>2026-04-11T11:24:38Z</time></trkpt><trkpt lat="44.849853750072874" lon="11.723233765898987"><ele>6.0</ele><time>2026-04-11T11:24:41Z</time></trkpt><trkpt lat="44.84982358133577" lon="11.723147832642718"><ele>6.333333333333334</ele><time>2026-04-11T11:24:43Z</time></trkpt><trkpt lat="44.849787834453444" lon="11.723054841418287"><ele>6.666666666666667</ele><time>2026-04-11T11:24:45Z</time></trkpt><trkpt lat="44.84975419468972" lon="11.72296826460474"><ele>7.0</ele><time>2026-04-11T11:24:47Z</time></trkpt><trkpt lat="44.849708727406174" lon="11.722863574029878"><ele>7.0</ele><time>2026-04-11T11:24:49Z</time></trkpt><trkpt lat="44.84966613707695" lon="11.722752653390895"><ele>6.999999999999999</ele><time>2026-04-11T11:24:51Z</time></trkpt><trkpt lat="44.849616377746116" lon="11.72264012011524"><ele>6.999999999999999</ele><time>2026-04-11T11:24:53Z</time></trkpt><trkpt lat="44.84957333062912" lon="11.722518468159839"><ele>7.0</ele><time>2026-04-11T11:24:55Z</time></trkpt><trkpt lat="44.84952024626708" lon="11.7223966668608"><ele>7.0</ele><time>2026-04-11T11:24:57Z</time></trkpt><trkpt lat="44.84946367163548" lon="11.72228420388063"><ele>6.833333333333334</ele><time>2026-04-11T11:24:59Z</time></trkpt><trkpt lat="44.84941000641764" lon="11.722161945404023"><ele>6.666666666666667</ele><time>2026-04-11T11:25:01Z</time></trkpt><trkpt lat="44.84935533502007" lon="11.72205646379139"><ele>6.5</ele><time>2026-04-11T11:25:03Z</time></trkpt><trkpt lat="44.849306306828794" lon="11.721953583934358"><ele>6.333333333333334</ele><time>2026-04-11T11:25:05Z</time></trkpt><trkpt lat="44.849268627914476" lon="11.721859604156244"><ele>6.166666666666667</ele><time>2026-04-11T11:25:07Z</time></trkpt><trkpt lat="44.8492274627887" lon="11.721762657786142"><ele>6.0</ele><time>2026-04-11T11:25:09Z</time></trkpt><trkpt lat="44.84918896323091" lon="11.721672189914782"><ele>6.333333333333333</ele><time>2026-04-11T11:25:11Z</time></trkpt><trkpt lat="44.8491492928149" lon="11.72158341416464"><ele>6.666666666666666</ele><time>2026-04-11T11:25:13Z</time></trkpt><trkpt lat="44.84910821008853" lon="11.721485136236318"><ele>7.0</ele><time>2026-04-11T11:25:15Z</time></trkpt><trkpt lat="44.84906001463022" lon="11.721392015967583"><ele>7.333333333333333</ele><time>2026-04-11T11:25:17Z</time></trkpt><trkpt lat="44.84902478396296" lon="11.72129323799928"><ele>7.666666666666666</ele><time>2026-04-11T11:25:19Z</time></trkpt><trkpt lat="44.848991439344786" lon="11.721189006933097"><ele>8.0</ele><time>2026-04-11T11:25:21Z</time></trkpt><trkpt lat="44.8489879582851" lon="11.72107210399586"><ele>7.6000000000000005</ele><time>2026-04-11T11:25:23Z</time></trkpt><trkpt lat="44.84905339618374" lon="11.720971904950218"><ele>7.200000000000001</ele><time>2026-04-11T11:25:25Z</time></trkpt><trkpt lat="44.849141080701905" lon="11.720882697773511"><ele>6.8</ele><time>2026-04-11T11:25:27Z</time></trkpt><trkpt lat="44.84923574476913" lon="11.720794377449247"><ele>6.4</ele><time>2026-04-11T11:25:29Z</time></trkpt><trkpt lat="44.84933703359404" lon="11.720698005638313"><ele>6.0</ele><time>2026-04-11T11:25:31Z</time></trkpt><trkpt lat="44.84943703069481" lon="11.720599389608205"><ele>6.0</ele><time>2026-04-11T11:25:33Z</time></trkpt><trkpt lat="44.84953924794208" lon="11.720498414761652"><ele>6.0</ele><time>2026-04-11T11:25:35Z</time></trkpt><trkpt lat="44.84964227050592" lon="11.720400785376983"><ele>6.0</ele><time>2026-04-11T11:25:37Z</time></trkpt><trkpt lat="44.84974360088085" lon="11.720310159022363"><ele>6.0</ele><time>2026-04-11T11:25:39Z</time></trkpt><trkpt lat="44.849853573479976" lon="11.720245923672255"><ele>6.0</ele><time>2026-04-11T11:25:41Z</time></trkpt><trkpt lat="44.849949686548996" lon="11.72015215149347"><ele>6.0</ele><time>2026-04-11T11:25:43Z</time></trkpt><trkpt lat="44.85004344777729" lon="11.72006282960886"><ele>6.0</ele><time>2026-04-11T11:25:45Z</time></trkpt><trkpt lat="44.850119978318766" lon="11.719962238794349"><ele>6.0</ele><time>2026-04-11T11:25:47Z</time></trkpt><trkpt lat="44.85022208859765" lon="11.719924493035702"><ele>6.0</ele><time>2026-04-11T11:25:49Z</time></trkpt><trkpt lat="44.85030926091698" lon="11.71987372884962"><ele>6.0</ele><time>2026-04-11T11:25:51Z</time></trkpt><trkpt lat="44.85039387034169" lon="11.719815352299692"><ele>6.0</ele><time>2026-04-11T11:25:53Z</time></trkpt><trkpt lat="44.85047836673105" lon="11.719773285623344"><ele>6.0</ele><time>2026-04-11T11:25:55Z</time></trkpt><trkpt lat="44.85056716959655" lon="11.719731161227939"><ele>6.0</ele><time>2026-04-11T11:25:57Z</time></trkpt><trkpt lat="44.85065576558306" lon="11.719690319585801"><ele>6.0</ele><time>2026-04-11T11:25:59Z</time></trkpt><trkpt lat="44.85074263143143" lon="11.719652580074507"><ele>6.0</ele><time>2026-04-11T11:26:01Z</time></trkpt><trkpt lat="44.8508274668923" lon="11.719633883803832"><ele>6.0</ele><time>2026-04-11T11:26:03Z</time></trkpt><trkpt lat="44.85090437454889" lon="11.719600142982728"><ele>6.0</ele><time>2026-04-11T11:26:05Z</time></trkpt><trkpt lat="44.85096884758593" lon="11.719549864940893"><ele>6.0</ele><time>2026-04-11T11:26:07Z</time></trkpt><trkpt lat="44.85105397485743" lon="11.719534922288492"><ele>6.0</ele><time>2026-04-11T11:26:09Z</time></trkpt><trkpt lat="44.851137655826804" lon="11.71948598965641"><ele>6.0</ele><time>2026-04-11T11:26:11Z</time></trkpt><trkpt lat="44.851217240582756" lon="11.719444169763706"><ele>5.833333333333333</ele><time>2026-04-11T11:26:13Z</time></trkpt><trkpt lat="44.85129612040519" lon="11.719406238267762"><ele>5.666666666666667</ele><time>2026-04-11T11:26:15Z</time></trkpt><trkpt lat="44.85137393296476" lon="11.719395935238348"><ele>5.5</ele><time>2026-04-11T11:26:17Z</time></trkpt><trkpt lat="44.85144065550552" lon="11.719337622605378"><ele>5.333333333333334</ele><time>2026-04-11T11:26:19Z</time></trkpt><trkpt lat="44.851520131643696" lon="11.719291607142726"><ele>5.166666666666667</ele><time>2026-04-11T11:26:21Z</time></trkpt><trkpt lat="44.851600917832066" lon="11.719259838919626"><ele>5.0</ele><time>2026-04-11T11:26:23Z</time></trkpt><trkpt lat="44.85167971558223" lon="11.719242348692342"><ele>5.166666666666667</ele><time>2026-04-11T11:26:25Z</time></trkpt><trkpt lat="44.85174803997976" lon="11.71920842991234"><ele>5.333333333333334</ele><time>2026-04-11T11:26:27Z</time></trkpt><trkpt lat="44.851827383836074" lon="11.719163656485392"><ele>5.5</ele><time>2026-04-11T11:26:29Z</time></trkpt><trkpt lat="44.8519118185381" lon="11.719117896122835"><ele>5.666666666666667</ele><time>2026-04-11T11:26:31Z</time></trkpt><trkpt lat="44.851993999940525" lon="11.71906788973124"><ele>5.833333333333333</ele><time>2026-04-11T11:26:33Z</time></trkpt><trkpt lat="44.852069895252015" lon="11.71901914709375"><ele>6.0</ele><time>2026-04-11T11:26:35Z</time></trkpt><trkpt lat="44.85213373527921" lon="11.718950254723037"><ele>6.0</ele><time>2026-04-11T11:26:37Z</time></trkpt><trkpt lat="44.8522140293207" lon="11.71890401104661"><ele>6.0</ele><time>2026-04-11T11:26:39Z</time></trkpt><trkpt lat="44.85228904962085" lon="11.718861363734513"><ele>6.0</ele><time>2026-04-11T11:26:41Z</time></trkpt><trkpt lat="44.85235950351604" lon="11.718813422665198"><ele>6.0</ele><time>2026-04-11T11:26:43Z</time></trkpt><trkpt lat="44.85242432890688" lon="11.71876722277249"><ele>6.0</ele><time>2026-04-11T11:26:45Z</time></trkpt><trkpt lat="44.85249004984824" lon="11.718748059364202"><ele>6.0</ele><time>2026-04-11T11:26:47Z</time></trkpt><trkpt lat="44.85254640555467" lon="11.718699893622192"><ele>5.8</ele><time>2026-04-11T11:26:52Z</time></trkpt><trkpt lat="44.85250965035279" lon="11.718467567973688"><ele>5.6</ele><time>2026-04-11T11:26:53Z</time></trkpt><trkpt lat="44.85246400108252" lon="11.718344818510298"><ele>5.4</ele><time>2026-04-11T11:26:56Z</time></trkpt><trkpt lat="44.85242715241333" lon="11.718243953280735"><ele>5.2</ele><time>2026-04-11T11:26:58Z</time></trkpt><trkpt lat="44.85240175892397" lon="11.718135204080967"><ele>5.0</ele><time>2026-04-11T11:27:00Z</time></trkpt><trkpt lat="44.85237980924192" lon="11.718014361744062"><ele>5.0</ele><time>2026-04-11T11:27:02Z</time></trkpt><trkpt lat="44.852361771516826" lon="11.717890455989016"><ele>5.0</ele><time>2026-04-11T11:27:04Z</time></trkpt><trkpt lat="44.85234687241406" lon="11.71777345117542"><ele>5.0</ele><time>2026-04-11T11:27:06Z</time></trkpt><trkpt lat="44.85233975266396" lon="11.717653294244288"><ele>5.0</ele><time>2026-04-11T11:27:08Z</time></trkpt><trkpt lat="44.85232969836785" lon="11.71753935008655"><ele>5.0</ele><time>2026-04-11T11:27:10Z</time></trkpt><trkpt lat="44.85232238531324" lon="11.71742752761852"><ele>5.0</ele><time>2026-04-11T11:27:12Z</time></trkpt><trkpt lat="44.85228900917082" lon="11.71733798778347"><ele>5.166666666666667</ele><time>2026-04-11T11:27:14Z</time></trkpt><trkpt lat="44.85224656455703" lon="11.71722503961085"><ele>5.333333333333334</ele><time>2026-04-11T11:27:16Z</time></trkpt><trkpt lat="44.852213017549126" lon="11.717113794879854"><ele>5.5</ele><time>2026-04-11T11:27:18Z</time></trkpt><trkpt lat="44.85217650224295" lon="11.717008995681969"><ele>5.666666666666667</ele><time>2026-04-11T11:27:20Z</time></trkpt><trkpt lat="44.85213379079996" lon="11.716897640516917"><ele>5.833333333333333</ele><time>2026-04-11T11:27:22Z</time></trkpt><trkpt lat="44.85209480459638" lon="11.716780377609082"><ele>6.0</ele><time>2026-04-11T11:27:24Z</time></trkpt><trkpt lat="44.85205480847802" lon="11.716660983715737"><ele>6.0</ele><time>2026-04-11T11:27:26Z</time></trkpt><trkpt lat="44.852010862609305" lon="11.71655013089058"><ele>6.0</ele><time>2026-04-11T11:27:28Z</time></trkpt><trkpt lat="44.851975401745214" lon="11.716438308723925"><ele>6.0</ele><time>2026-04-11T11:27:30Z</time></trkpt><trkpt lat="44.85193648220663" lon="11.716319525847979"><ele>6.0</ele><time>2026-04-11T11:27:32Z</time></trkpt><trkpt lat="44.85190285295988" lon="11.71620697841503"><ele>6.0</ele><time>2026-04-11T11:27:34Z</time></trkpt><trkpt lat="44.85187265815108" lon="11.716101381095752"><ele>6.0</ele><time>2026-04-11T11:27:36Z</time></trkpt><trkpt lat="44.85185102041659" lon="11.715998565368954"><ele>5.7142857142857135</ele><time>2026-04-11T11:27:38Z</time></trkpt><trkpt lat="44.851832462261974" lon="11.715906018137199"><ele>5.428571428571429</ele><time>2026-04-11T11:27:40Z</time></trkpt><trkpt lat="44.85181896446467" lon="11.7157867242311"><ele>5.142857142857142</ele><time>2026-04-11T11:27:42Z</time></trkpt><trkpt lat="44.85180273637312" lon="11.715681715767783"><ele>4.857142857142857</ele><time>2026-04-11T11:27:44Z</time></trkpt><trkpt lat="44.851789206453994" lon="11.71558114070097"><ele>4.571428571428571</ele><time>2026-04-11T11:27:46Z</time></trkpt><trkpt lat="44.85177930016138" lon="11.715488722116769"><ele>4.285714285714286</ele><time>2026-04-11T11:27:48Z</time></trkpt><trkpt lat="44.85177028029922" lon="11.715395357747347"><ele>4.0</ele><time>2026-04-11T11:27:50Z</time></trkpt><trkpt lat="44.85175802451376" lon="11.715293431460578"><ele>3.4999999999999996</ele><time>2026-04-11T11:27:52Z</time></trkpt><trkpt lat="44.85174540424688" lon="11.71517397856735"><ele>3.0</ele><time>2026-04-11T11:27:54Z</time></trkpt><trkpt lat="44.85172088240168" lon="11.715069178220388"><ele>2.5</ele><time>2026-04-11T11:27:56Z</time></trkpt><trkpt lat="44.85170018946172" lon="11.714964871818735"><ele>2.0</ele><time>2026-04-11T11:27:58Z</time></trkpt><trkpt lat="44.85167026424584" lon="11.714852428196822"><ele>1.5</ele><time>2026-04-11T11:28:00Z</time></trkpt><trkpt lat="44.85165362656955" lon="11.714723858537491"><ele>1.0</ele><time>2026-04-11T11:28:02Z</time></trkpt><trkpt lat="44.85163418152516" lon="11.714596376127185"><ele>0.9999999999999999</ele><time>2026-04-11T11:28:04Z</time></trkpt><trkpt lat="44.851654054215814" lon="11.714478701834606"><ele>1.0</ele><time>2026-04-11T11:28:06Z</time></trkpt><trkpt lat="44.851698998253056" lon="11.714382544137761"><ele>1.0</ele><time>2026-04-11T11:28:08Z</time></trkpt><trkpt lat="44.85174946081806" lon="11.714278788167546"><ele>1.0</ele><time>2026-04-11T11:28:10Z</time></trkpt><trkpt lat="44.85176420471516" lon="11.714147711821749"><ele>0.9999999999999999</ele><time>2026-04-11T11:28:12Z</time></trkpt><trkpt lat="44.85172583562884" lon="11.714026872329793"><ele>1.0</ele><time>2026-04-11T11:28:14Z</time></trkpt><trkpt lat="44.85164853332636" lon="11.713943634892027"><ele>1.2000000000000002</ele><time>2026-04-11T11:28:16Z</time></trkpt><trkpt lat="44.85156324784172" lon="11.713896158861328"><ele>1.4000000000000001</ele><time>2026-04-11T11:28:18Z</time></trkpt><trkpt lat="44.85150615524084" lon="11.713776136221341"><ele>1.6</ele><time>2026-04-11T11:28:20Z</time></trkpt><trkpt lat="44.85145919467451" lon="11.713664222638448"><ele>1.8</ele><time>2026-04-11T11:28:22Z</time></trkpt><trkpt lat="44.851444576902935" lon="11.713546900905776"><ele>2.0</ele><time>2026-04-11T11:28:24Z</time></trkpt><trkpt lat="44.85141993800534" lon="11.713439478936824"><ele>2.0</ele><time>2026-04-11T11:28:26Z</time></trkpt><trkpt lat="44.851392884182516" lon="11.713318782599531"><ele>2.0</ele><time>2026-04-11T11:28:28Z</time></trkpt><trkpt lat="44.851362868716706" lon="11.713192280695923"><ele>2.0</ele><time>2026-04-11T11:28:30Z</time></trkpt><trkpt lat="44.85133655835025" lon="11.713063419472945"><ele>2.0</ele><time>2026-04-11T11:28:32Z</time></trkpt><trkpt lat="44.851309501948165" lon="11.712938219795037"><ele>2.0</ele><time>2026-04-11T11:28:34Z</time></trkpt><trkpt lat="44.85128372477008" lon="11.71281482692526"><ele>2.2</ele><time>2026-04-11T11:28:36Z</time></trkpt><trkpt lat="44.851257719835274" lon="11.712684675952772"><ele>2.4000000000000004</ele><time>2026-04-11T11:28:38Z</time></trkpt><trkpt lat="44.851233782014134" lon="11.712551439563653"><ele>2.5999999999999996</ele><time>2026-04-11T11:28:40Z</time></trkpt><trkpt lat="44.85122169768257" lon="11.712411929616236"><ele>2.8</ele><time>2026-04-11T11:28:42Z</time></trkpt><trkpt lat="44.85121851576346" lon="11.712275220965132"><ele>3.0</ele><time>2026-04-11T11:28:44Z</time></trkpt><trkpt lat="44.85122100115374" lon="11.712146642667419"><ele>3.0</ele><time>2026-04-11T11:28:46Z</time></trkpt><trkpt lat="44.85122391721866" lon="11.712005607082808"><ele>3.0</ele><time>2026-04-11T11:28:48Z</time></trkpt><trkpt lat="44.85122714063566" lon="11.711870048213253"><ele>3.0</ele><time>2026-04-11T11:28:50Z</time></trkpt><trkpt lat="44.851227234065" lon="11.711733541665874"><ele>3.0</ele><time>2026-04-11T11:28:52Z</time></trkpt><trkpt lat="44.85122668714538" lon="11.711594090407116"><ele>3.0</ele><time>2026-04-11T11:28:54Z</time></trkpt><trkpt lat="44.851226863986035" lon="11.71145868878221"><ele>3.2</ele><time>2026-04-11T11:28:56Z</time></trkpt><trkpt lat="44.85122389281409" lon="11.711320316685715"><ele>3.4</ele><time>2026-04-11T11:28:58Z</time></trkpt><trkpt lat="44.851218183382414" lon="11.711178851612077"><ele>3.6000000000000005</ele><time>2026-04-11T11:29:00Z</time></trkpt><trkpt lat="44.85120934496358" lon="11.711040708792858"><ele>3.8000000000000003</ele><time>2026-04-11T11:29:02Z</time></trkpt><trkpt lat="44.85121401760223" lon="11.710900572141778"><ele>4.0</ele><time>2026-04-11T11:29:04Z</time></trkpt><trkpt lat="44.85118230940899" lon="11.710771316232542"><ele>3.6</ele><time>2026-04-11T11:29:06Z</time></trkpt><trkpt lat="44.85117105821395" lon="11.710648220999094"><ele>3.2</ele><time>2026-04-11T11:29:08Z</time></trkpt><trkpt lat="44.85116704623794" lon="11.71052817431278"><ele>2.8000000000000003</ele><time>2026-04-11T11:29:10Z</time></trkpt><trkpt lat="44.85116167966677" lon="11.710398714834048"><ele>2.4000000000000004</ele><time>2026-04-11T11:29:12Z</time></trkpt><trkpt lat="44.85115456333513" lon="11.710266010007492"><ele>2.0</ele><time>2026-04-11T11:29:14Z</time></trkpt><trkpt lat="44.85114020528042" lon="11.710130993148056"><ele>1.8</ele><time>2026-04-11T11:29:16Z</time></trkpt><trkpt lat="44.8511293128871" lon="11.70999567911824"><ele>1.6</ele><time>2026-04-11T11:29:18Z</time></trkpt><trkpt lat="44.851118379684465" lon="11.709860714523348"><ele>1.4000000000000001</ele><time>2026-04-11T11:29:20Z</time></trkpt><trkpt lat="44.851117662616986" lon="11.70972628267752"><ele>1.2000000000000002</ele><time>2026-04-11T11:29:22Z</time></trkpt><trkpt lat="44.8511091180066" lon="11.709590987452628"><ele>1.0</ele><time>2026-04-11T11:29:24Z</time></trkpt><trkpt lat="44.85109849658648" lon="11.709460061208224"><ele>1.2000000000000002</ele><time>2026-04-11T11:29:26Z</time></trkpt><trkpt lat="44.851091763690334" lon="11.709327401503781"><ele>1.4000000000000001</ele><time>2026-04-11T11:29:28Z</time></trkpt><trkpt lat="44.85108378443973" lon="11.70919038968481"><ele>1.6</ele><time>2026-04-11T11:29:30Z</time></trkpt><trkpt lat="44.85107351387851" lon="11.70905570683912"><ele>1.8</ele><time>2026-04-11T11:29:32Z</time></trkpt><trkpt lat="44.85106362966725" lon="11.708918586311512"><ele>2.0</ele><time>2026-04-11T11:29:34Z</time></trkpt><trkpt lat="44.851053488667645" lon="11.70878066966442"><ele>2.0</ele><time>2026-04-11T11:29:36Z</time></trkpt><trkpt lat="44.85104591269862" lon="11.70864342643264"><ele>2.0</ele><time>2026-04-11T11:29:38Z</time></trkpt><trkpt lat="44.85103348170476" lon="11.708505033584334"><ele>2.0</ele><time>2026-04-11T11:29:40Z</time></trkpt><trkpt lat="44.851020659855195" lon="11.70837318772137"><ele>2.0</ele><time>2026-04-11T11:29:42Z</time></trkpt><trkpt lat="44.85100397863986" lon="11.708236337072742"><ele>2.0</ele><time>2026-04-11T11:29:44Z</time></trkpt><trkpt lat="44.850984563543186" lon="11.708103748891933"><ele>2.0</ele><time>2026-04-11T11:29:46Z</time></trkpt><trkpt lat="44.850965137405936" lon="11.70796957474046"><ele>2.0</ele><time>2026-04-11T11:29:48Z</time></trkpt><trkpt lat="44.850945683198624" lon="11.707831637471571"><ele>2.0</ele><time>2026-04-11T11:29:50Z</time></trkpt><trkpt lat="44.850922877523764" lon="11.707698471344681"><ele>2.0</ele><time>2026-04-11T11:29:52Z</time></trkpt><trkpt lat="44.85089787290082" lon="11.707566071484749"><ele>2.0</ele><time>2026-04-11T11:29:54Z</time></trkpt><trkpt lat="44.85087122688627" lon="11.707432685464166"><ele>2.0</ele><time>2026-04-11T11:29:56Z</time></trkpt><trkpt lat="44.85085107391705" lon="11.707299648638514"><ele>2.0</ele><time>2026-04-11T11:29:58Z</time></trkpt><trkpt lat="44.850830391084976" lon="11.707167264634064"><ele>2.0</ele><time>2026-04-11T11:30:00Z</time></trkpt><trkpt lat="44.850803036510186" lon="11.707039220626895"><ele>2.0</ele><time>2026-04-11T11:30:02Z</time></trkpt><trkpt lat="44.850780209665814" lon="11.70691066476057"><ele>2.0</ele><time>2026-04-11T11:30:04Z</time></trkpt><trkpt lat="44.85075528392566" lon="11.706784694013399"><ele>2.0</ele><time>2026-04-11T11:30:06Z</time></trkpt><trkpt lat="44.85072859964566" lon="11.706657242534927"><ele>2.0</ele><time>2026-04-11T11:30:08Z</time></trkpt><trkpt lat="44.85070200073863" lon="11.706530255765426"><ele>2.0</ele><time>2026-04-11T11:30:10Z</time></trkpt><trkpt lat="44.85067502094377" lon="11.706405239571179"><ele>2.0</ele><time>2026-04-11T11:30:12Z</time></trkpt><trkpt lat="44.85064598545598" lon="11.706282169610942"><ele>2.0</ele><time>2026-04-11T11:30:14Z</time></trkpt><trkpt lat="44.850617946020854" lon="11.706153881198615"><ele>2.2</ele><time>2026-04-11T11:30:16Z</time></trkpt><trkpt lat="44.850587626138726" lon="11.70602439160442"><ele>2.4000000000000004</ele><time>2026-04-11T11:30:18Z</time></trkpt><trkpt lat="44.85055838988626" lon="11.705893298069782"><ele>2.5999999999999996</ele><time>2026-04-11T11:30:20Z</time></trkpt><trkpt lat="44.85052736921448" lon="11.705764624637842"><ele>2.8</ele><time>2026-04-11T11:30:22Z</time></trkpt><trkpt lat="44.85049373722917" lon="11.705637080194437"><ele>3.0</ele><time>2026-04-11T11:30:24Z</time></trkpt><trkpt lat="44.85045766027059" lon="11.705515763936367"><ele>3.0</ele><time>2026-04-11T11:30:26Z</time></trkpt><trkpt lat="44.85042268901494" lon="11.70538888167829"><ele>3.0</ele><time>2026-04-11T11:30:28Z</time></trkpt><trkpt lat="44.85038493337547" lon="11.705265415957314"><ele>3.0</ele><time>2026-04-11T11:30:30Z</time></trkpt><trkpt lat="44.85034992257308" lon="11.705141594637537"><ele>3.0</ele><time>2026-04-11T11:30:32Z</time></trkpt><trkpt lat="44.850313928051364" lon="11.705020177316237"><ele>3.0</ele><time>2026-04-11T11:30:34Z</time></trkpt><trkpt lat="44.850276256071844" lon="11.704894372614921"><ele>2.8</ele><time>2026-04-11T11:30:36Z</time></trkpt><trkpt lat="44.85023728367617" lon="11.704769176690679"><ele>2.5999999999999996</ele><time>2026-04-11T11:30:38Z</time></trkpt><trkpt lat="44.850200113951296" lon="11.70464538294689"><ele>2.4000000000000004</ele><time>2026-04-11T11:30:40Z</time></trkpt><trkpt lat="44.85016257047779" lon="11.704520185392225"><ele>2.2</ele><time>2026-04-11T11:30:42Z</time></trkpt><trkpt lat="44.85012494783982" lon="11.704396064079896"><ele>2.0</ele><time>2026-04-11T11:30:44Z</time></trkpt><trkpt lat="44.850090936111464" lon="11.70427116361473"><ele>1.8</ele><time>2026-04-11T11:30:46Z</time></trkpt><trkpt lat="44.85005534038981" lon="11.70414566224004"><ele>1.6</ele><time>2026-04-11T11:30:48Z</time></trkpt><trkpt lat="44.85002142993763" lon="11.704021635948028"><ele>1.4000000000000001</ele><time>2026-04-11T11:30:50Z</time></trkpt><trkpt lat="44.8499856753786" lon="11.70389769331614"><ele>1.2000000000000002</ele><time>2026-04-11T11:30:52Z</time></trkpt><trkpt lat="44.849951239319076" lon="11.703771039423469"><ele>1.0</ele><time>2026-04-11T11:30:54Z</time></trkpt><trkpt lat="44.84991466767737" lon="11.703650091681862"><ele>0.8</ele><time>2026-04-11T11:30:56Z</time></trkpt><trkpt lat="44.84988501411768" lon="11.70352572924962"><ele>0.6000000000000001</ele><time>2026-04-11T11:30:58Z</time></trkpt><trkpt lat="44.849850492368205" lon="11.703407913622376"><ele>0.4</ele><time>2026-04-11T11:31:00Z</time></trkpt><trkpt lat="44.849818989164056" lon="11.703282433584853"><ele>0.2</ele><time>2026-04-11T11:31:02Z</time></trkpt><trkpt lat="44.84978577055738" lon="11.703157883666103"><ele>0.0</ele><time>2026-04-11T11:31:04Z</time></trkpt><trkpt lat="44.84975416779802" lon="11.703037338014461"><ele>0.0</ele><time>2026-04-11T11:31:06Z</time></trkpt><trkpt lat="44.849718105320974" lon="11.702913019649918"><ele>0.0</ele><time>2026-04-11T11:31:08Z</time></trkpt><trkpt lat="44.8496860740138" lon="11.70278553581756"><ele>0.0</ele><time>2026-04-11T11:31:10Z</time></trkpt><trkpt lat="44.849652656038266" lon="11.702656004263602"><ele>0.0</ele><time>2026-04-11T11:31:12Z</time></trkpt><trkpt lat="44.84962137711275" lon="11.70253161708161"><ele>0.0</ele><time>2026-04-11T11:31:14Z</time></trkpt><trkpt lat="44.84958921347052" lon="11.70240379353937"><ele>0.5</ele><time>2026-04-11T11:31:16Z</time></trkpt><trkpt lat="44.84955675385806" lon="11.70227871613759"><ele>1.0</ele><time>2026-04-11T11:31:18Z</time></trkpt><trkpt lat="44.849523970307594" lon="11.702160360705863"><ele>1.5</ele><time>2026-04-11T11:31:20Z</time></trkpt><trkpt lat="44.84949304098736" lon="11.7020518430632"><ele>2.0</ele><time>2026-04-11T11:31:22Z</time></trkpt><trkpt lat="44.84945794651588" lon="11.70195123154938"><ele>2.5</ele><time>2026-04-11T11:31:24Z</time></trkpt><trkpt lat="44.84943320155174" lon="11.701854242424774"><ele>3.0</ele><time>2026-04-11T11:31:26Z</time></trkpt><trkpt lat="44.849407835439585" lon="11.701758325532566"><ele>2.9999999999999996</ele><time>2026-04-11T11:31:28Z</time></trkpt><trkpt lat="44.84938680822106" lon="11.70166119962265"><ele>3.0</ele><time>2026-04-11T11:31:30Z</time></trkpt><trkpt lat="44.849357702398166" lon="11.70156306145272"><ele>3.0</ele><time>2026-04-11T11:31:32Z</time></trkpt><trkpt lat="44.84932157674742" lon="11.70146630961273"><ele>3.0</ele><time>2026-04-11T11:31:34Z</time></trkpt><trkpt lat="44.84929569946034" lon="11.701373060253689"><ele>3.0</ele><time>2026-04-11T11:31:36Z</time></trkpt><trkpt lat="44.84927765122217" lon="11.701279575288194"><ele>2.9999999999999996</ele><time>2026-04-11T11:31:38Z</time></trkpt><trkpt lat="44.849267155259994" lon="11.701182842629429"><ele>3.0</ele><time>2026-04-11T11:31:40Z</time></trkpt><trkpt lat="44.849238074543536" lon="11.701069652768181"><ele>3.2</ele><time>2026-04-11T11:31:42Z</time></trkpt><trkpt lat="44.84920242712231" lon="11.70094428737671"><ele>3.4</ele><time>2026-04-11T11:31:44Z</time></trkpt><trkpt lat="44.84916796977728" lon="11.700816321779136"><ele>3.6000000000000005</ele><time>2026-04-11T11:31:46Z</time></trkpt><trkpt lat="44.84913034988014" lon="11.700689754759534"><ele>3.8000000000000003</ele><time>2026-04-11T11:31:48Z</time></trkpt><trkpt lat="44.849094821631596" lon="11.700560631628369"><ele>4.0</ele><time>2026-04-11T11:31:50Z</time></trkpt><trkpt lat="44.84906258586689" lon="11.700435262289602"><ele>3.9999999999999996</ele><time>2026-04-11T11:31:52Z</time></trkpt><trkpt lat="44.849025093035934" lon="11.700311357132174"><ele>4.0</ele><time>2026-04-11T11:31:54Z</time></trkpt><trkpt lat="44.84899131008389" lon="11.700190864728548"><ele>4.0</ele><time>2026-04-11T11:31:56Z</time></trkpt><trkpt lat="44.84896105154704" lon="11.700078058758194"><ele>4.0</ele><time>2026-04-11T11:31:58Z</time></trkpt><trkpt lat="44.84892881057084" lon="11.699969387388396"><ele>3.9999999999999996</ele><time>2026-04-11T11:32:00Z</time></trkpt><trkpt lat="44.84889213268521" lon="11.699863420488098"><ele>4.0</ele><time>2026-04-11T11:32:02Z</time></trkpt><trkpt lat="44.848918470011846" lon="11.699753784656119"><ele>3.833333333333333</ele><time>2026-04-11T11:32:05Z</time></trkpt><trkpt lat="44.84898692958322" lon="11.699749380485466"><ele>3.6666666666666665</ele><time>2026-04-11T11:32:07Z</time></trkpt><trkpt lat="44.849029217687935" lon="11.699639360772704"><ele>3.5</ele><time>2026-04-11T11:32:10Z</time></trkpt><trkpt lat="44.848967555941186" lon="11.699774247656416"><ele>3.333333333333333</ele><time>2026-04-11T11:37:55.999Z</time></trkpt><trkpt lat="44.84890059580347" lon="11.699792764575308"><ele>3.1666666666666665</ele><time>2026-04-11T11:37:58.999Z</time></trkpt><trkpt lat="44.848858198288625" lon="11.699724349712875"><ele>3.0</ele><time>2026-04-11T11:38:00.999Z</time></trkpt><trkpt lat="44.84883497507205" lon="11.699610576389968"><ele>3.0</ele><time>2026-04-11T11:38:02.999Z</time></trkpt><trkpt lat="44.84881253835363" lon="11.699517897913783"><ele>3.0</ele><time>2026-04-11T11:38:04.999Z</time></trkpt><trkpt lat="44.84878530644359" lon="11.699425986711942"><ele>3.0</ele><time>2026-04-11T11:38:06.999Z</time></trkpt><trkpt lat="44.84875658626377" lon="11.699315605268291"><ele>3.0</ele><time>2026-04-11T11:38:08.999Z</time></trkpt><trkpt lat="44.848721041066426" lon="11.699198472786229"><ele>3.0</ele><time>2026-04-11T11:38:10.999Z</time></trkpt><trkpt lat="44.84869106153036" lon="11.699078914303833"><ele>3.0</ele><time>2026-04-11T11:38:12.999Z</time></trkpt><trkpt lat="44.84865930426438" lon="11.698955355440736"><ele>3.0</ele><time>2026-04-11T11:38:14.999Z</time></trkpt><trkpt lat="44.848624606998776" lon="11.698834910697677"><ele>3.0</ele><time>2026-04-11T11:38:16.999Z</time></trkpt><trkpt lat="44.84859021446123" lon="11.69871434988062"><ele>3.0</ele><time>2026-04-11T11:38:18.999Z</time></trkpt><trkpt lat="44.84855816103993" lon="11.698595572815835"><ele>3.0</ele><time>2026-04-11T11:38:20.999Z</time></trkpt><trkpt lat="44.848525568013834" lon="11.698472665544946"><ele>3.0</ele><time>2026-04-11T11:38:22.999Z</time></trkpt><trkpt lat="44.84849046644308" lon="11.698351006398388"><ele>3.0</ele><time>2026-04-11T11:38:24.999Z</time></trkpt><trkpt lat="44.848456498931604" lon="11.698230760002813"><ele>3.0</ele><time>2026-04-11T11:38:26.999Z</time></trkpt><trkpt lat="44.848424746097834" lon="11.698103567485061"><ele>3.0</ele><time>2026-04-11T11:38:28.999Z</time></trkpt><trkpt lat="44.84839015937448" lon="11.697981979421558"><ele>3.0</ele><time>2026-04-11T11:38:30.999Z</time></trkpt><trkpt lat="44.84835704714038" lon="11.697857557622905"><ele>3.0</ele><time>2026-04-11T11:38:32.999Z</time></trkpt><trkpt lat="44.84832041426575" lon="11.697734457585145"><ele>2.8</ele><time>2026-04-11T11:38:34.999Z</time></trkpt><trkpt lat="44.84828891305035" lon="11.697611143332397"><ele>2.5999999999999996</ele><time>2026-04-11T11:38:36.999Z</time></trkpt><trkpt lat="44.84825361767708" lon="11.697487375006416"><ele>2.4000000000000004</ele><time>2026-04-11T11:38:38.999Z</time></trkpt><trkpt lat="44.8482207405282" lon="11.697366715721904"><ele>2.2</ele><time>2026-04-11T11:38:40.999Z</time></trkpt><trkpt lat="44.84818568642966" lon="11.697242558535622"><ele>2.0</ele><time>2026-04-11T11:38:42.999Z</time></trkpt><trkpt lat="44.84814890179897" lon="11.69712033390401"><ele>2.0</ele><time>2026-04-11T11:38:44.999Z</time></trkpt><trkpt lat="44.84811435717288" lon="11.696998776441692"><ele>2.0</ele><time>2026-04-11T11:38:46.999Z</time></trkpt><trkpt lat="44.84807941494097" lon="11.69687427037553"><ele>2.0</ele><time>2026-04-11T11:38:48.999Z</time></trkpt><trkpt lat="44.84804607317" lon="11.696762081192794"><ele>2.0</ele><time>2026-04-11T11:38:50.999Z</time></trkpt><trkpt lat="44.84800973029848" lon="11.696637287939216"><ele>2.0</ele><time>2026-04-11T11:38:52.999Z</time></trkpt><trkpt lat="44.84797322855673" lon="11.696518267436826"><ele>2.0</ele><time>2026-04-11T11:38:54.999Z</time></trkpt><trkpt lat="44.847936307998495" lon="11.696399698769286"><ele>2.0</ele><time>2026-04-11T11:38:56.999Z</time></trkpt><trkpt lat="44.84789223289403" lon="11.69628218379166"><ele>2.0</ele><time>2026-04-11T11:38:58.999Z</time></trkpt><trkpt lat="44.84784901784143" lon="11.696165929428457"><ele>2.0</ele><time>2026-04-11T11:39:00.999Z</time></trkpt><trkpt lat="44.847802401602415" lon="11.69604736113853"><ele>2.0</ele><time>2026-04-11T11:39:02.999Z</time></trkpt><trkpt lat="44.84775211029258" lon="11.695931966241549"><ele>2.0</ele><time>2026-04-11T11:39:04.999Z</time></trkpt><trkpt lat="44.847705281300726" lon="11.695817881225222"><ele>2.0</ele><time>2026-04-11T11:39:06.999Z</time></trkpt><trkpt lat="44.84765293368641" lon="11.695705513783452"><ele>2.0</ele><time>2026-04-11T11:39:08.999Z</time></trkpt><trkpt lat="44.84760200968093" lon="11.695595844254582"><ele>2.0</ele><time>2026-04-11T11:39:10.999Z</time></trkpt><trkpt lat="44.84755464524561" lon="11.6954847439859"><ele>2.0</ele><time>2026-04-11T11:39:13Z</time></trkpt><trkpt lat="44.84750651272341" lon="11.69537162882198"><ele>2.0</ele><time>2026-04-11T11:39:15Z</time></trkpt><trkpt lat="44.847456620138985" lon="11.695259511967349"><ele>2.0</ele><time>2026-04-11T11:39:17Z</time></trkpt><trkpt lat="44.847404638248875" lon="11.695149082818805"><ele>2.0</ele><time>2026-04-11T11:39:19Z</time></trkpt><trkpt lat="44.84735568800949" lon="11.695037251020327"><ele>2.0</ele><time>2026-04-11T11:39:21Z</time></trkpt><trkpt lat="44.8473061334531" lon="11.694924637264934"><ele>2.0</ele><time>2026-04-11T11:39:23Z</time></trkpt><trkpt lat="44.84725454057742" lon="11.694814973619058"><ele>2.0</ele><time>2026-04-11T11:39:25Z</time></trkpt><trkpt lat="44.847204597094304" lon="11.694704361864076"><ele>2.0</ele><time>2026-04-11T11:39:27Z</time></trkpt><trkpt lat="44.84715384176244" lon="11.694595139410616"><ele>2.0</ele><time>2026-04-11T11:39:29Z</time></trkpt><trkpt lat="44.84710963854143" lon="11.694484173819117"><ele>2.0</ele><time>2026-04-11T11:39:31Z</time></trkpt><trkpt lat="44.84705746876782" lon="11.694372771545257"><ele>2.0</ele><time>2026-04-11T11:39:33Z</time></trkpt><trkpt lat="44.84701233165581" lon="11.694260201913648"><ele>2.0</ele><time>2026-04-11T11:39:35Z</time></trkpt><trkpt lat="44.846963011129695" lon="11.694146707942984"><ele>2.0</ele><time>2026-04-11T11:39:37Z</time></trkpt><trkpt lat="44.84691523675087" lon="11.69403327648726"><ele>2.0</ele><time>2026-04-11T11:39:39Z</time></trkpt><trkpt lat="44.84687059308727" lon="11.693919524764082"><ele>2.0</ele><time>2026-04-11T11:39:41Z</time></trkpt><trkpt lat="44.84682454048126" lon="11.693805846892692"><ele>2.0</ele><time>2026-04-11T11:39:43Z</time></trkpt><trkpt lat="44.84677839797069" lon="11.693691828271291"><ele>2.0</ele><time>2026-04-11T11:39:45Z</time></trkpt><trkpt lat="44.84673048691421" lon="11.693581465325119"><ele>2.0</ele><time>2026-04-11T11:39:47Z</time></trkpt><trkpt lat="44.84668530547755" lon="11.69346645416503"><ele>2.0</ele><time>2026-04-11T11:39:49Z</time></trkpt><trkpt lat="44.846638335706345" lon="11.693355246055754"><ele>2.0</ele><time>2026-04-11T11:39:51Z</time></trkpt><trkpt lat="44.846590541617886" lon="11.693243618649728"><ele>2.0</ele><time>2026-04-11T11:39:53Z</time></trkpt><trkpt lat="44.84654277060668" lon="11.693132876658272"><ele>2.0</ele><time>2026-04-11T11:39:55Z</time></trkpt><trkpt lat="44.84650156067" lon="11.693019538935282"><ele>2.0</ele><time>2026-04-11T11:39:57Z</time></trkpt><trkpt lat="44.846453559118" lon="11.692903189595052"><ele>2.0</ele><time>2026-04-11T11:39:59Z</time></trkpt><trkpt lat="44.84640525109885" lon="11.692790661812406"><ele>2.0</ele><time>2026-04-11T11:40:01Z</time></trkpt><trkpt lat="44.84635989054497" lon="11.692677153375271"><ele>2.0</ele><time>2026-04-11T11:40:03Z</time></trkpt><trkpt lat="44.846315958058184" lon="11.692564371587043"><ele>2.0</ele><time>2026-04-11T11:40:05Z</time></trkpt><trkpt lat="44.84627230961689" lon="11.692447296632254"><ele>2.0</ele><time>2026-04-11T11:40:07Z</time></trkpt><trkpt lat="44.84622903467845" lon="11.692331596056237"><ele>2.0</ele><time>2026-04-11T11:40:09Z</time></trkpt><trkpt lat="44.84618397211027" lon="11.692212428092304"><ele>2.0</ele><time>2026-04-11T11:40:11Z</time></trkpt><trkpt lat="44.84614400729103" lon="11.692092880560365"><ele>2.0</ele><time>2026-04-11T11:40:13Z</time></trkpt><trkpt lat="44.846103039381106" lon="11.691969864526675"><ele>2.0</ele><time>2026-04-11T11:40:15Z</time></trkpt><trkpt lat="44.84606542260743" lon="11.6918500457359"><ele>2.0</ele><time>2026-04-11T11:40:17Z</time></trkpt><trkpt lat="44.84602418392603" lon="11.691726684701022"><ele>2.0</ele><time>2026-04-11T11:40:19Z</time></trkpt><trkpt lat="44.845988624391595" lon="11.691606114597942"><ele>2.0</ele><time>2026-04-11T11:40:21Z</time></trkpt><trkpt lat="44.845950202252475" lon="11.691479310082006"><ele>2.0</ele><time>2026-04-11T11:40:23Z</time></trkpt><trkpt lat="44.84591126019129" lon="11.691354273032804"><ele>2.0</ele><time>2026-04-11T11:40:25Z</time></trkpt><trkpt lat="44.84587298907813" lon="11.691229766493267"><ele>2.0</ele><time>2026-04-11T11:40:27Z</time></trkpt><trkpt lat="44.845834493838055" lon="11.691105440098745"><ele>2.0</ele><time>2026-04-11T11:40:29Z</time></trkpt><trkpt lat="44.84579276103006" lon="11.69097742819933"><ele>2.0</ele><time>2026-04-11T11:40:31Z</time></trkpt><trkpt lat="44.8457578118436" lon="11.690849471179787"><ele>2.0</ele><time>2026-04-11T11:40:33Z</time></trkpt><trkpt lat="44.84571784771537" lon="11.690724473231228"><ele>2.0</ele><time>2026-04-11T11:40:35Z</time></trkpt><trkpt lat="44.845681971260746" lon="11.690601233472647"><ele>2.0</ele><time>2026-04-11T11:40:37Z</time></trkpt><trkpt lat="44.845643490234" lon="11.690477714475147"><ele>2.0</ele><time>2026-04-11T11:40:39Z</time></trkpt><trkpt lat="44.84560555818777" lon="11.690359153093723"><ele>2.0</ele><time>2026-04-11T11:40:41Z</time></trkpt><trkpt lat="44.845573380486755" lon="11.690239830561207"><ele>2.0</ele><time>2026-04-11T11:40:43Z</time></trkpt><trkpt lat="44.84554399639272" lon="11.690132979300516"><ele>2.0</ele><time>2026-04-11T11:40:45Z</time></trkpt><trkpt lat="44.845519469095876" lon="11.69001973959478"><ele>2.0</ele><time>2026-04-11T11:40:47Z</time></trkpt><trkpt lat="44.84548662386578" lon="11.689897667441238"><ele>2.0</ele><time>2026-04-11T11:40:49Z</time></trkpt><trkpt lat="44.845449992840166" lon="11.689774465600088"><ele>2.0</ele><time>2026-04-11T11:40:51Z</time></trkpt><trkpt lat="44.84540793775299" lon="11.689651195776488"><ele>2.0</ele><time>2026-04-11T11:40:53Z</time></trkpt><trkpt lat="44.84536170231269" lon="11.689532597535683"><ele>2.0</ele><time>2026-04-11T11:40:55Z</time></trkpt><trkpt lat="44.8453173405175" lon="11.689418601226457"><ele>2.0</ele><time>2026-04-11T11:40:57Z</time></trkpt><trkpt lat="44.84527924386724" lon="11.689299052371261"><ele>2.0</ele><time>2026-04-11T11:40:59Z</time></trkpt><trkpt lat="44.84523603150384" lon="11.689179125298278"><ele>2.0</ele><time>2026-04-11T11:41:01Z</time></trkpt><trkpt lat="44.84519343389768" lon="11.689064570555564"><ele>2.0</ele><time>2026-04-11T11:41:03Z</time></trkpt><trkpt lat="44.845142344134906" lon="11.688953521928068"><ele>1.8</ele><time>2026-04-11T11:41:05Z</time></trkpt><trkpt lat="44.845081493488635" lon="11.688849960132757"><ele>1.6</ele><time>2026-04-11T11:41:07Z</time></trkpt><trkpt lat="44.84501834193121" lon="11.688751674466221"><ele>1.4000000000000001</ele><time>2026-04-11T11:41:09Z</time></trkpt><trkpt lat="44.84494615134735" lon="11.688663821583038"><ele>1.2000000000000002</ele><time>2026-04-11T11:41:11Z</time></trkpt><trkpt lat="44.844873894162355" lon="11.68857506809673"><ele>1.0</ele><time>2026-04-11T11:41:13Z</time></trkpt><trkpt lat="44.84479920759922" lon="11.688491505943949"><ele>1.0</ele><time>2026-04-11T11:41:15Z</time></trkpt><trkpt lat="44.84472876738898" lon="11.688408286282764"><ele>1.0</ele><time>2026-04-11T11:41:17Z</time></trkpt><trkpt lat="44.84465771723258" lon="11.688319667408832"><ele>1.0</ele><time>2026-04-11T11:41:19Z</time></trkpt><trkpt lat="44.84459220827253" lon="11.688229352273416"><ele>1.0</ele><time>2026-04-11T11:41:21Z</time></trkpt><trkpt lat="44.84452496961594" lon="11.688134172241204"><ele>1.0</ele><time>2026-04-11T11:41:23Z</time></trkpt><trkpt lat="44.84445982139433" lon="11.688040740954836"><ele>1.0</ele><time>2026-04-11T11:41:25Z</time></trkpt><trkpt lat="44.84440181254554" lon="11.687936106911058"><ele>1.0</ele><time>2026-04-11T11:41:27Z</time></trkpt><trkpt lat="44.84434188232169" lon="11.687835450314337"><ele>1.0</ele><time>2026-04-11T11:41:29Z</time></trkpt><trkpt lat="44.844282660225915" lon="11.687728546042054"><ele>1.0</ele><time>2026-04-11T11:41:31Z</time></trkpt><trkpt lat="44.84422584920241" lon="11.687623630080834"><ele>1.0</ele><time>2026-04-11T11:41:33Z</time></trkpt><trkpt lat="44.844163848771224" lon="11.687519797774328"><ele>1.0</ele><time>2026-04-11T11:41:35Z</time></trkpt><trkpt lat="44.84410779615175" lon="11.687415353967552"><ele>1.0</ele><time>2026-04-11T11:41:37Z</time></trkpt><trkpt lat="44.84404616561562" lon="11.687312768937444"><ele>1.0</ele><time>2026-04-11T11:41:39Z</time></trkpt><trkpt lat="44.8439965201986" lon="11.68718972149729"><ele>1.0</ele><time>2026-04-11T11:41:41Z</time></trkpt><trkpt lat="44.84395292446505" lon="11.687070070651313"><ele>1.0</ele><time>2026-04-11T11:41:43Z</time></trkpt><trkpt lat="44.84390972096869" lon="11.686947207274578"><ele>1.2000000000000002</ele><time>2026-04-11T11:41:45Z</time></trkpt><trkpt lat="44.84387326223107" lon="11.686814507315365"><ele>1.4000000000000001</ele><time>2026-04-11T11:41:47Z</time></trkpt><trkpt lat="44.84383727350454" lon="11.686688675610293"><ele>1.6</ele><time>2026-04-11T11:41:49Z</time></trkpt><trkpt lat="44.84380033287183" lon="11.686561820434958"><ele>1.8</ele><time>2026-04-11T11:41:51Z</time></trkpt><trkpt lat="44.84376319385233" lon="11.686435249243555"><ele>2.0</ele><time>2026-04-11T11:41:53Z</time></trkpt><trkpt lat="44.843726516593144" lon="11.686309390521561"><ele>2.0</ele><time>2026-04-11T11:41:55Z</time></trkpt><trkpt lat="44.843691338524536" lon="11.686184051153665"><ele>2.0</ele><time>2026-04-11T11:41:57Z</time></trkpt><trkpt lat="44.843656825149466" lon="11.686063200749281"><ele>2.0</ele><time>2026-04-11T11:41:59Z</time></trkpt><trkpt lat="44.843618680419766" lon="11.68593994669201"><ele>2.0</ele><time>2026-04-11T11:42:01Z</time></trkpt><trkpt lat="44.84357975541525" lon="11.685818343618614"><ele>2.0</ele><time>2026-04-11T11:42:03Z</time></trkpt><trkpt lat="44.84354163355165" lon="11.685702027526206"><ele>1.8333333333333333</ele><time>2026-04-11T11:42:05Z</time></trkpt><trkpt lat="44.843499444046415" lon="11.68557603452628"><ele>1.6666666666666665</ele><time>2026-04-11T11:42:07Z</time></trkpt><trkpt lat="44.84346059945243" lon="11.685465945006422"><ele>1.5</ele><time>2026-04-11T11:42:09Z</time></trkpt><trkpt lat="44.8434201133483" lon="11.685358095339328"><ele>1.3333333333333333</ele><time>2026-04-11T11:42:11Z</time></trkpt><trkpt lat="44.84338157981161" lon="11.685257707235587"><ele>1.1666666666666665</ele><time>2026-04-11T11:42:13Z</time></trkpt><trkpt lat="44.84334980808385" lon="11.685154986205138"><ele>1.0</ele><time>2026-04-11T11:42:15Z</time></trkpt><trkpt lat="44.84331766271486" lon="11.68506629772582"><ele>1.3333333333333333</ele><time>2026-04-11T11:42:17Z</time></trkpt><trkpt lat="44.843283687842025" lon="11.684973059580194"><ele>1.6666666666666665</ele><time>2026-04-11T11:42:19Z</time></trkpt><trkpt lat="44.84324521654798" lon="11.684872378579946"><ele>2.0</ele><time>2026-04-11T11:42:21Z</time></trkpt><trkpt lat="44.843208881949685" lon="11.684772191042052"><ele>2.3333333333333335</ele><time>2026-04-11T11:42:23Z</time></trkpt><trkpt lat="44.84317059899513" lon="11.684674893664855"><ele>2.6666666666666665</ele><time>2026-04-11T11:42:25Z</time></trkpt><trkpt lat="44.84313830594328" lon="11.684581881263679"><ele>3.0</ele><time>2026-04-11T11:42:27Z</time></trkpt><trkpt lat="44.84310165690998" lon="11.684484187519761"><ele>2.8</ele><time>2026-04-11T11:42:29Z</time></trkpt><trkpt lat="44.84306147604756" lon="11.684374987953289"><ele>2.5999999999999996</ele><time>2026-04-11T11:42:31Z</time></trkpt><trkpt lat="44.843020478678945" lon="11.684257580765756"><ele>2.4000000000000004</ele><time>2026-04-11T11:42:33Z</time></trkpt><trkpt lat="44.84298060390079" lon="11.68414217891891"><ele>2.2</ele><time>2026-04-11T11:42:35Z</time></trkpt><trkpt lat="44.84294236628175" lon="11.684023603550463"><ele>2.0</ele><time>2026-04-11T11:42:37Z</time></trkpt><trkpt lat="44.84290455038138" lon="11.683909021791418"><ele>2.0</ele><time>2026-04-11T11:42:39Z</time></trkpt><trkpt lat="44.84287361448714" lon="11.683804937731756"><ele>1.9999999999999998</ele><time>2026-04-11T11:42:41Z</time></trkpt><trkpt lat="44.84283944044509" lon="11.683712573478402"><ele>2.0</ele><time>2026-04-11T11:42:43Z</time></trkpt><trkpt lat="44.8428184431511" lon="11.683623313122103"><ele>2.0</ele><time>2026-04-11T11:42:45Z</time></trkpt><trkpt lat="44.84281704438821" lon="11.683522907406621"><ele>1.9999999999999998</ele><time>2026-04-11T11:42:47Z</time></trkpt><trkpt lat="44.84278949441427" lon="11.6834204115335"><ele>2.0</ele><time>2026-04-11T11:42:49Z</time></trkpt><trkpt lat="44.84276324433699" lon="11.68332275180866"><ele>2.0</ele><time>2026-04-11T11:42:51Z</time></trkpt><trkpt lat="44.842738415500264" lon="11.68323037968512"><ele>2.1666666666666665</ele><time>2026-04-11T11:42:53Z</time></trkpt><trkpt lat="44.84271534083453" lon="11.683144533300256"><ele>2.333333333333333</ele><time>2026-04-11T11:42:55Z</time></trkpt><trkpt lat="44.84269234961218" lon="11.683059640858763"><ele>2.5</ele><time>2026-04-11T11:42:57Z</time></trkpt><trkpt lat="44.84266167175293" lon="11.682946336391563"><ele>2.6666666666666665</ele><time>2026-04-11T11:43:00Z</time></trkpt><trkpt lat="44.84263649888744" lon="11.682853322759579"><ele>2.8333333333333335</ele><time>2026-04-11T11:43:02Z</time></trkpt><trkpt lat="44.84260358150656" lon="11.682736571267073"><ele>3.0</ele><time>2026-04-11T11:43:04Z</time></trkpt><trkpt lat="44.842570175597665" lon="11.682618551776244"><ele>3.1666666666666665</ele><time>2026-04-11T11:43:06Z</time></trkpt><trkpt lat="44.84253688174906" lon="11.682503513368669"><ele>3.333333333333333</ele><time>2026-04-11T11:43:08Z</time></trkpt><trkpt lat="44.842505436724615" lon="11.682394862636514"><ele>3.5</ele><time>2026-04-11T11:43:10Z</time></trkpt><trkpt lat="44.842476003836424" lon="11.682293164308017"><ele>3.6666666666666665</ele><time>2026-04-11T11:43:12Z</time></trkpt><trkpt lat="44.84244865573807" lon="11.68220005876395"><ele>3.833333333333333</ele><time>2026-04-11T11:43:14Z</time></trkpt><trkpt lat="44.84241743170907" lon="11.682093917414793"><ele>4.0</ele><time>2026-04-11T11:43:16Z</time></trkpt><trkpt lat="44.842385177043596" lon="11.681984272568746"><ele>3.833333333333333</ele><time>2026-04-11T11:43:18Z</time></trkpt><trkpt lat="44.842353950802405" lon="11.681878123706715"><ele>3.6666666666666665</ele><time>2026-04-11T11:43:20Z</time></trkpt><trkpt lat="44.84232724598398" lon="11.681782026967763"><ele>3.5</ele><time>2026-04-11T11:43:22Z</time></trkpt><trkpt lat="44.84228649952822" lon="11.681692527889995"><ele>3.333333333333333</ele><time>2026-04-11T11:43:24Z</time></trkpt><trkpt lat="44.84225650282171" lon="11.681577618580116"><ele>3.1666666666666665</ele><time>2026-04-11T11:43:26Z</time></trkpt><trkpt lat="44.84222474799391" lon="11.681453849347745"><ele>3.0</ele><time>2026-04-11T11:43:28Z</time></trkpt><trkpt lat="44.842191052248566" lon="11.681330222097069"><ele>3.0</ele><time>2026-04-11T11:43:30Z</time></trkpt><trkpt lat="44.842158177170084" lon="11.681209768003615"><ele>3.0</ele><time>2026-04-11T11:43:32Z</time></trkpt><trkpt lat="44.84213188778653" lon="11.681087217826478"><ele>3.0</ele><time>2026-04-11T11:43:34Z</time></trkpt><trkpt lat="44.84209599427733" lon="11.680967189250785"><ele>3.0</ele><time>2026-04-11T11:43:36Z</time></trkpt><trkpt lat="44.84207138344337" lon="11.680842703430182"><ele>3.0</ele><time>2026-04-11T11:43:38Z</time></trkpt><trkpt lat="44.84203662960075" lon="11.68072889550238"><ele>3.0</ele><time>2026-04-11T11:43:40Z</time></trkpt><trkpt lat="44.84200226595759" lon="11.680617127962451"><ele>3.0</ele><time>2026-04-11T11:43:42Z</time></trkpt><trkpt lat="44.84196957676197" lon="11.68051080654112"><ele>3.0</ele><time>2026-04-11T11:43:44Z</time></trkpt><trkpt lat="44.84193828292298" lon="11.680409023544588"><ele>3.0</ele><time>2026-04-11T11:43:46Z</time></trkpt><trkpt lat="44.84189289977378" lon="11.680317306705339"><ele>3.0</ele><time>2026-04-11T11:43:48Z</time></trkpt><trkpt lat="44.84187492173031" lon="11.68020531186902"><ele>3.0</ele><time>2026-04-11T11:43:50Z</time></trkpt><trkpt lat="44.84184164092763" lon="11.680098319431757"><ele>3.0</ele><time>2026-04-11T11:43:52Z</time></trkpt><trkpt lat="44.841806905020704" lon="11.679986649074962"><ele>3.0</ele><time>2026-04-11T11:43:54Z</time></trkpt><trkpt lat="44.84176978256561" lon="11.679867306409928"><ele>3.0</ele><time>2026-04-11T11:43:56Z</time></trkpt><trkpt lat="44.84173231012348" lon="11.679746838540096"><ele>3.0</ele><time>2026-04-11T11:43:58Z</time></trkpt><trkpt lat="44.84169708340548" lon="11.67963359031929"><ele>3.0</ele><time>2026-04-11T11:44:00Z</time></trkpt><trkpt lat="44.84166540508625" lon="11.679531749621962"><ele>3.0</ele><time>2026-04-11T11:44:02Z</time></trkpt><trkpt lat="44.84163498737363" lon="11.679433961593901"><ele>3.0</ele><time>2026-04-11T11:44:04Z</time></trkpt><trkpt lat="44.84160643575369" lon="11.67934328907353"><ele>3.0</ele><time>2026-04-11T11:44:06Z</time></trkpt><trkpt lat="44.84157815846545" lon="11.679253857436047"><ele>3.0</ele><time>2026-04-11T11:44:08Z</time></trkpt><trkpt lat="44.841551131511565" lon="11.679168380187557"><ele>3.0</ele><time>2026-04-11T11:44:10Z</time></trkpt><trkpt lat="44.841521104808216" lon="11.679073415746693"><ele>3.0</ele><time>2026-04-11T11:44:12Z</time></trkpt><trkpt lat="44.841484306612394" lon="11.67895703530716"><ele>3.0</ele><time>2026-04-11T11:44:14Z</time></trkpt><trkpt lat="44.84144840684217" lon="11.678843496302045"><ele>3.0</ele><time>2026-04-11T11:44:16Z</time></trkpt><trkpt lat="44.84141243692142" lon="11.678729735418269"><ele>3.0</ele><time>2026-04-11T11:44:18Z</time></trkpt><trkpt lat="44.84137718646605" lon="11.67861824997964"><ele>3.0</ele><time>2026-04-11T11:44:20Z</time></trkpt><trkpt lat="44.84134183569371" lon="11.678508087154825"><ele>3.0</ele><time>2026-04-11T11:44:22Z</time></trkpt><trkpt lat="44.84130609493401" lon="11.678395635150972"><ele>3.0</ele><time>2026-04-11T11:44:24Z</time></trkpt><trkpt lat="44.84126845283042" lon="11.678275482638782"><ele>3.0</ele><time>2026-04-11T11:44:26Z</time></trkpt><trkpt lat="44.841232411688665" lon="11.678160440360024"><ele>3.0</ele><time>2026-04-11T11:44:28Z</time></trkpt><trkpt lat="44.84119879629648" lon="11.678053141016871"><ele>3.0</ele><time>2026-04-11T11:44:30Z</time></trkpt><trkpt lat="44.84116647673269" lon="11.67794981109568"><ele>3.0</ele><time>2026-04-11T11:44:32Z</time></trkpt><trkpt lat="44.841132550071094" lon="11.677841260523014"><ele>3.0</ele><time>2026-04-11T11:44:34Z</time></trkpt><trkpt lat="44.84109631492511" lon="11.67772528753509"><ele>3.0</ele><time>2026-04-11T11:44:36Z</time></trkpt><trkpt lat="44.84106166068849" lon="11.677622069185048"><ele>3.0</ele><time>2026-04-11T11:44:38Z</time></trkpt><trkpt lat="44.841026699164686" lon="11.677521334807478"><ele>3.0</ele><time>2026-04-11T11:44:40Z</time></trkpt><trkpt lat="44.8409841413754" lon="11.677428601668742"><ele>3.0</ele><time>2026-04-11T11:44:42Z</time></trkpt><trkpt lat="44.840944854448054" lon="11.677326775117631"><ele>3.0</ele><time>2026-04-11T11:44:44Z</time></trkpt><trkpt lat="44.8409066953717" lon="11.67722206226228"><ele>3.0</ele><time>2026-04-11T11:44:46Z</time></trkpt><trkpt lat="44.84086669411901" lon="11.677120157905957"><ele>3.0</ele><time>2026-04-11T11:44:48Z</time></trkpt><trkpt lat="44.84083387318805" lon="11.677021424792075"><ele>3.0</ele><time>2026-04-11T11:44:50Z</time></trkpt><trkpt lat="44.840800855681955" lon="11.676920147397887"><ele>3.0</ele><time>2026-04-11T11:44:52Z</time></trkpt><trkpt lat="44.840759265431046" lon="11.676812538196472"><ele>3.0</ele><time>2026-04-11T11:44:54Z</time></trkpt><trkpt lat="44.84071658584222" lon="11.676697327994432"><ele>3.0</ele><time>2026-04-11T11:44:56Z</time></trkpt><trkpt lat="44.84067887765671" lon="11.676588228014069"><ele>3.0</ele><time>2026-04-11T11:44:58Z</time></trkpt><trkpt lat="44.84063727527681" lon="11.676479333756555"><ele>3.0</ele><time>2026-04-11T11:45:00Z</time></trkpt><trkpt lat="44.84059542127465" lon="11.676368514253003"><ele>3.0</ele><time>2026-04-11T11:45:02Z</time></trkpt><trkpt lat="44.84055401852823" lon="11.676258530769028"><ele>3.0</ele><time>2026-04-11T11:45:04Z</time></trkpt><trkpt lat="44.840514800172926" lon="11.676157202288977"><ele>3.0</ele><time>2026-04-11T11:45:06Z</time></trkpt><trkpt lat="44.840482149436504" lon="11.676057887306438"><ele>3.0</ele><time>2026-04-11T11:45:08Z</time></trkpt><trkpt lat="44.84044647791153" lon="11.675964181002156"><ele>3.0</ele><time>2026-04-11T11:45:10Z</time></trkpt><trkpt lat="44.84041509153119" lon="11.675876046100006"><ele>3.0</ele><time>2026-04-11T11:45:12Z</time></trkpt><trkpt lat="44.840384193169356" lon="11.675794224290096"><ele>3.0</ele><time>2026-04-11T11:45:14Z</time></trkpt><trkpt lat="44.84034393369063" lon="11.675689165764103"><ele>2.8</ele><time>2026-04-11T11:45:16Z</time></trkpt><trkpt lat="44.84030936592189" lon="11.675572609567123"><ele>2.5999999999999996</ele><time>2026-04-11T11:45:18Z</time></trkpt><trkpt lat="44.84027167606281" lon="11.675452905438064"><ele>2.4000000000000004</ele><time>2026-04-11T11:45:20Z</time></trkpt><trkpt lat="44.840225016003785" lon="11.675340298721927"><ele>2.2</ele><time>2026-04-11T11:45:22Z</time></trkpt><trkpt lat="44.84018235787259" lon="11.675224306737833"><ele>2.0</ele><time>2026-04-11T11:45:24Z</time></trkpt><trkpt lat="44.84014443512993" lon="11.675099062144486"><ele>2.2</ele><time>2026-04-11T11:45:26Z</time></trkpt><trkpt lat="44.84010295735589" lon="11.67497813216526"><ele>2.4000000000000004</ele><time>2026-04-11T11:45:28Z</time></trkpt><trkpt lat="44.84006403409889" lon="11.674855603663298"><ele>2.5999999999999996</ele><time>2026-04-11T11:45:30Z</time></trkpt><trkpt lat="44.84002698800609" lon="11.674730127948054"><ele>2.8</ele><time>2026-04-11T11:45:32Z</time></trkpt><trkpt lat="44.839985112396754" lon="11.674608332788484"><ele>3.0</ele><time>2026-04-11T11:45:34Z</time></trkpt><trkpt lat="44.839951970124815" lon="11.67448667844527"><ele>2.8</ele><time>2026-04-11T11:45:36Z</time></trkpt><trkpt lat="44.83991354078115" lon="11.67436652883254"><ele>2.5999999999999996</ele><time>2026-04-11T11:45:38Z</time></trkpt><trkpt lat="44.839883391616986" lon="11.674248814367035"><ele>2.4000000000000004</ele><time>2026-04-11T11:45:40Z</time></trkpt><trkpt lat="44.83985110899452" lon="11.674129730160187"><ele>2.2</ele><time>2026-04-11T11:45:42Z</time></trkpt><trkpt lat="44.83981304449818" lon="11.67401076049317"><ele>2.0</ele><time>2026-04-11T11:45:44Z</time></trkpt><trkpt lat="44.839778773746374" lon="11.673891414138117"><ele>2.0</ele><time>2026-04-11T11:45:46Z</time></trkpt><trkpt lat="44.839744937756066" lon="11.673768977264007"><ele>2.0</ele><time>2026-04-11T11:45:48Z</time></trkpt><trkpt lat="44.83970745775347" lon="11.673646477109804"><ele>2.0</ele><time>2026-04-11T11:45:50Z</time></trkpt><trkpt lat="44.83966957383212" lon="11.67352438588328"><ele>2.0</ele><time>2026-04-11T11:45:52Z</time></trkpt><trkpt lat="44.839634599444835" lon="11.673401989708871"><ele>2.0</ele><time>2026-04-11T11:45:54Z</time></trkpt><trkpt lat="44.839596764842526" lon="11.6732770806671"><ele>2.0</ele><time>2026-04-11T11:45:56Z</time></trkpt><trkpt lat="44.83955814507215" lon="11.673155441242324"><ele>2.0</ele><time>2026-04-11T11:45:58Z</time></trkpt><trkpt lat="44.83951811638701" lon="11.673029090925642"><ele>2.0</ele><time>2026-04-11T11:46:00Z</time></trkpt><trkpt lat="44.83949096581015" lon="11.672898337609123"><ele>2.0</ele><time>2026-04-11T11:46:02Z</time></trkpt><trkpt lat="44.83943811106244" lon="11.672786962570859"><ele>2.0</ele><time>2026-04-11T11:46:04Z</time></trkpt><trkpt lat="44.83941562696124" lon="11.672661821812053"><ele>1.9999999999999998</ele><time>2026-04-11T11:46:06Z</time></trkpt><trkpt lat="44.839379510101615" lon="11.672549734317235"><ele>2.0</ele><time>2026-04-11T11:46:08Z</time></trkpt><trkpt lat="44.839342016802526" lon="11.672433375066769"><ele>2.0</ele><time>2026-04-11T11:46:10Z</time></trkpt><trkpt lat="44.83930465084831" lon="11.672317411009923"><ele>2.0</ele><time>2026-04-11T11:46:12Z</time></trkpt><trkpt lat="44.839268813569475" lon="11.672205300126873"><ele>1.9999999999999998</ele><time>2026-04-11T11:46:14Z</time></trkpt><trkpt lat="44.83923485939445" lon="11.6720985657756"><ele>2.0</ele><time>2026-04-11T11:46:16Z</time></trkpt><trkpt lat="44.839191410364165" lon="11.672002392403025"><ele>2.1666666666666665</ele><time>2026-04-11T11:46:18Z</time></trkpt><trkpt lat="44.83916296389069" lon="11.67190080062925"><ele>2.333333333333333</ele><time>2026-04-11T11:46:20Z</time></trkpt><trkpt lat="44.83913318858285" lon="11.671805282755654"><ele>2.5</ele><time>2026-04-11T11:46:22Z</time></trkpt><trkpt lat="44.83910560169168" lon="11.671706916361893"><ele>2.6666666666666665</ele><time>2026-04-11T11:46:24Z</time></trkpt><trkpt lat="44.83908749159933" lon="11.67157629335771"><ele>2.8333333333333335</ele><time>2026-04-11T11:46:26Z</time></trkpt><trkpt lat="44.839047032764036" lon="11.671459064612124"><ele>3.0</ele><time>2026-04-11T11:46:28Z</time></trkpt><trkpt lat="44.83901894178659" lon="11.67133302558912"><ele>3.0</ele><time>2026-04-11T11:46:30Z</time></trkpt><trkpt lat="44.838990438232514" lon="11.671209013111342"><ele>3.0</ele><time>2026-04-11T11:46:32Z</time></trkpt><trkpt lat="44.83896992890777" lon="11.671083014903875"><ele>3.0</ele><time>2026-04-11T11:46:34Z</time></trkpt><trkpt lat="44.838943210639854" lon="11.670951592652512"><ele>3.0</ele><time>2026-04-11T11:46:36Z</time></trkpt><trkpt lat="44.838910944834055" lon="11.670825678074781"><ele>3.0</ele><time>2026-04-11T11:46:38Z</time></trkpt><trkpt lat="44.838880817026364" lon="11.670696442726129"><ele>2.6</ele><time>2026-04-11T11:46:40Z</time></trkpt><trkpt lat="44.83884438179528" lon="11.670570398409554"><ele>2.1999999999999997</ele><time>2026-04-11T11:46:42Z</time></trkpt><trkpt lat="44.838811144163756" lon="11.670448012502014"><ele>1.8</ele><time>2026-04-11T11:46:44Z</time></trkpt><trkpt lat="44.83878247769743" lon="11.670321919333256"><ele>1.4</ele><time>2026-04-11T11:46:46Z</time></trkpt><trkpt lat="44.83875010321244" lon="11.67020105335506"><ele>1.0</ele><time>2026-04-11T11:46:48Z</time></trkpt><trkpt lat="44.83871608578187" lon="11.670080004525614"><ele>1.0</ele><time>2026-04-11T11:46:50Z</time></trkpt><trkpt lat="44.83868225696125" lon="11.669959030491679"><ele>1.0</ele><time>2026-04-11T11:46:52Z</time></trkpt><trkpt lat="44.83865500663889" lon="11.669834329129316"><ele>1.0</ele><time>2026-04-11T11:46:54Z</time></trkpt><trkpt lat="44.838613714826394" lon="11.66971847440931"><ele>1.0</ele><time>2026-04-11T11:46:56Z</time></trkpt><trkpt lat="44.838584166528555" lon="11.669595705224674"><ele>1.0</ele><time>2026-04-11T11:46:58Z</time></trkpt><trkpt lat="44.83854926749226" lon="11.669474128176141"><ele>1.2000000000000002</ele><time>2026-04-11T11:47:00Z</time></trkpt><trkpt lat="44.83851514890347" lon="11.669348523512618"><ele>1.4000000000000001</ele><time>2026-04-11T11:47:02Z</time></trkpt><trkpt lat="44.83847465376859" lon="11.669230794422063"><ele>1.6</ele><time>2026-04-11T11:47:04Z</time></trkpt><trkpt lat="44.83844485483643" lon="11.66910819361339"><ele>1.8</ele><time>2026-04-11T11:47:06Z</time></trkpt><trkpt lat="44.83841083290423" lon="11.668978173184502"><ele>2.0</ele><time>2026-04-11T11:47:08Z</time></trkpt><trkpt lat="44.83837206780781" lon="11.668851522961347"><ele>2.0</ele><time>2026-04-11T11:47:10Z</time></trkpt><trkpt lat="44.83834062934594" lon="11.668736876805347"><ele>2.0</ele><time>2026-04-11T11:47:12Z</time></trkpt><trkpt lat="44.83831069323645" lon="11.668623909089638"><ele>2.0</ele><time>2026-04-11T11:47:14Z</time></trkpt><trkpt lat="44.8382769912657" lon="11.668507880970973"><ele>2.0</ele><time>2026-04-11T11:47:16Z</time></trkpt><trkpt lat="44.83823822461229" lon="11.668385968227653"><ele>2.0</ele><time>2026-04-11T11:47:18Z</time></trkpt><trkpt lat="44.83820491015001" lon="11.668260359441527"><ele>2.1666666666666665</ele><time>2026-04-11T11:47:20Z</time></trkpt><trkpt lat="44.83816007797459" lon="11.668147361762335"><ele>2.333333333333333</ele><time>2026-04-11T11:47:22Z</time></trkpt><trkpt lat="44.83814670067819" lon="11.668032421843938"><ele>2.5</ele><time>2026-04-11T11:47:24Z</time></trkpt><trkpt lat="44.838105766577996" lon="11.667930707709262"><ele>2.6666666666666665</ele><time>2026-04-11T11:47:26Z</time></trkpt><trkpt lat="44.8380915253217" lon="11.667825502570928"><ele>2.8333333333333335</ele><time>2026-04-11T11:47:28Z</time></trkpt><trkpt lat="44.83804752606737" lon="11.66772481670189"><ele>3.0</ele><time>2026-04-11T11:47:30Z</time></trkpt><trkpt lat="44.83802355791314" lon="11.667601565190102"><ele>3.1666666666666665</ele><time>2026-04-11T11:47:32Z</time></trkpt><trkpt lat="44.83800585148345" lon="11.667481429248575"><ele>3.333333333333333</ele><time>2026-04-11T11:47:34Z</time></trkpt><trkpt lat="44.83798664775351" lon="11.667367666183758"><ele>3.5</ele><time>2026-04-11T11:47:36Z</time></trkpt><trkpt lat="44.837987474631156" lon="11.66725622758082"><ele>3.6666666666666665</ele><time>2026-04-11T11:47:38Z</time></trkpt><trkpt lat="44.837968836919806" lon="11.667156889037946"><ele>3.833333333333333</ele><time>2026-04-11T11:47:40Z</time></trkpt><trkpt lat="44.837956350105415" lon="11.667046301566806"><ele>4.0</ele><time>2026-04-11T11:47:42Z</time></trkpt><trkpt lat="44.83795040187664" lon="11.66692116970276"><ele>4.2</ele><time>2026-04-11T11:47:44Z</time></trkpt><trkpt lat="44.837950421948186" lon="11.66679549594358"><ele>4.4</ele><time>2026-04-11T11:47:46Z</time></trkpt><trkpt lat="44.83796038003145" lon="11.666669653396433"><ele>4.6</ele><time>2026-04-11T11:47:48Z</time></trkpt><trkpt lat="44.837963229786205" lon="11.666534096860916"><ele>4.8</ele><time>2026-04-11T11:47:50Z</time></trkpt><trkpt lat="44.837965391737676" lon="11.666405422680931"><ele>5.0</ele><time>2026-04-11T11:47:52Z</time></trkpt><trkpt lat="44.83798303461325" lon="11.666282376877044"><ele>5.0</ele><time>2026-04-11T11:47:54Z</time></trkpt><trkpt lat="44.837990539891585" lon="11.666159303433691"><ele>5.0</ele><time>2026-04-11T11:47:56Z</time></trkpt><trkpt lat="44.837998200296866" lon="11.66602964736602"><ele>5.0</ele><time>2026-04-11T11:47:58Z</time></trkpt><trkpt lat="44.838012400278906" lon="11.665902127446532"><ele>5.0</ele><time>2026-04-11T11:48:00Z</time></trkpt><trkpt lat="44.83802141905533" lon="11.665766616081402"><ele>5.0</ele><time>2026-04-11T11:48:02Z</time></trkpt><trkpt lat="44.83802940064913" lon="11.665632280197949"><ele>4.8</ele><time>2026-04-11T11:48:04Z</time></trkpt><trkpt lat="44.83804351425421" lon="11.665499367507863"><ele>4.6</ele><time>2026-04-11T11:48:06Z</time></trkpt><trkpt lat="44.83805878060737" lon="11.665365649331738"><ele>4.4</ele><time>2026-04-11T11:48:08Z</time></trkpt><trkpt lat="44.83807380835589" lon="11.665231974760104"><ele>4.2</ele><time>2026-04-11T11:48:10Z</time></trkpt><trkpt lat="44.83808307456802" lon="11.665093984560084"><ele>4.0</ele><time>2026-04-11T11:48:12Z</time></trkpt><trkpt lat="44.8380959623532" lon="11.664968352455844"><ele>4.0</ele><time>2026-04-11T11:48:14Z</time></trkpt><trkpt lat="44.83810681273013" lon="11.664827664677691"><ele>4.0</ele><time>2026-04-11T11:48:16Z</time></trkpt><trkpt lat="44.83811909662926" lon="11.664693324980561"><ele>4.0</ele><time>2026-04-11T11:48:18Z</time></trkpt><trkpt lat="44.83813075898002" lon="11.664557832350194"><ele>4.0</ele><time>2026-04-11T11:48:20Z</time></trkpt><trkpt lat="44.83814790687878" lon="11.66442602275044"><ele>4.0</ele><time>2026-04-11T11:48:22Z</time></trkpt><trkpt lat="44.83816233068121" lon="11.66429007160415"><ele>4.2</ele><time>2026-04-11T11:48:24Z</time></trkpt><trkpt lat="44.83817825477468" lon="11.664156178848726"><ele>4.4</ele><time>2026-04-11T11:48:26Z</time></trkpt><trkpt lat="44.83819227540197" lon="11.664019556104552"><ele>4.6</ele><time>2026-04-11T11:48:28Z</time></trkpt><trkpt lat="44.838208437764244" lon="11.663887608711176"><ele>4.8</ele><time>2026-04-11T11:48:30Z</time></trkpt><trkpt lat="44.83821787868645" lon="11.663756492121161"><ele>5.0</ele><time>2026-04-11T11:48:32Z</time></trkpt><trkpt lat="44.838234600761076" lon="11.663629306331794"><ele>5.0</ele><time>2026-04-11T11:48:34Z</time></trkpt><trkpt lat="44.838253981274775" lon="11.663499100738562"><ele>5.0</ele><time>2026-04-11T11:48:36Z</time></trkpt><trkpt lat="44.838264475303816" lon="11.66337286640776"><ele>5.0</ele><time>2026-04-11T11:48:38Z</time></trkpt><trkpt lat="44.83826198192768" lon="11.663247839563297"><ele>5.0</ele><time>2026-04-11T11:48:40Z</time></trkpt><trkpt lat="44.83827677811758" lon="11.66313933546125"><ele>5.0</ele><time>2026-04-11T11:48:42Z</time></trkpt><trkpt lat="44.838280772626135" lon="11.663032220128994"><ele>5.0</ele><time>2026-04-11T11:48:44Z</time></trkpt><trkpt lat="44.83829362853537" lon="11.662930284887747"><ele>5.0</ele><time>2026-04-11T11:48:46Z</time></trkpt><trkpt lat="44.83831150712749" lon="11.662813656679251"><ele>5.0</ele><time>2026-04-11T11:48:48Z</time></trkpt><trkpt lat="44.838319344276194" lon="11.662686894775861"><ele>5.0</ele><time>2026-04-11T11:48:50Z</time></trkpt><trkpt lat="44.83833511296731" lon="11.662569064349864"><ele>5.0</ele><time>2026-04-11T11:48:52Z</time></trkpt><trkpt lat="44.83834541794372" lon="11.66245750976432"><ele>5.0</ele><time>2026-04-11T11:48:54Z</time></trkpt><trkpt lat="44.83836007262534" lon="11.662349303932515"><ele>5.0</ele><time>2026-04-11T11:48:56Z</time></trkpt><trkpt lat="44.83836858336217" lon="11.662246887901219"><ele>5.166666666666667</ele><time>2026-04-11T11:48:58Z</time></trkpt><trkpt lat="44.83836124793042" lon="11.662156730455512"><ele>5.333333333333334</ele><time>2026-04-11T11:49:00Z</time></trkpt><trkpt lat="44.838347863428986" lon="11.662042057609566"><ele>5.5</ele><time>2026-04-11T11:49:03Z</time></trkpt><trkpt lat="44.838318207180556" lon="11.661938756002655"><ele>5.666666666666667</ele><time>2026-04-11T11:49:06Z</time></trkpt><trkpt lat="44.83823755944238" lon="11.661897498514508"><ele>5.833333333333333</ele><time>2026-04-11T11:49:08Z</time></trkpt><trkpt lat="44.83815577790142" lon="11.661891355545578"><ele>6.0</ele><time>2026-04-11T11:49:10Z</time></trkpt><trkpt lat="44.838106437646005" lon="11.661802313989286"><ele>6.166666666666667</ele><time>2026-04-11T11:49:12Z</time></trkpt><trkpt lat="44.838080796484" lon="11.661684362789117"><ele>6.333333333333334</ele><time>2026-04-11T11:49:14Z</time></trkpt><trkpt lat="44.838037123595" lon="11.66158207545551"><ele>6.5</ele><time>2026-04-11T11:49:16Z</time></trkpt><trkpt lat="44.838005689241484" lon="11.66147826370236"><ele>6.666666666666667</ele><time>2026-04-11T11:49:18Z</time></trkpt><trkpt lat="44.837971096903345" lon="11.661381190180968"><ele>6.833333333333334</ele><time>2026-04-11T11:49:20Z</time></trkpt><trkpt lat="44.837935191197076" lon="11.66128741384833"><ele>7.0</ele><time>2026-04-11T11:49:22Z</time></trkpt><trkpt lat="44.83789369185381" lon="11.661194930598857"><ele>6.833333333333334</ele><time>2026-04-11T11:49:24Z</time></trkpt><trkpt lat="44.83784552169749" lon="11.66108663685977"><ele>6.666666666666667</ele><time>2026-04-11T11:49:26Z</time></trkpt><trkpt lat="44.83781163208436" lon="11.660981669870365"><ele>6.5</ele><time>2026-04-11T11:49:28Z</time></trkpt><trkpt lat="44.83777924783198" lon="11.660860540974868"><ele>6.333333333333334</ele><time>2026-04-11T11:49:30Z</time></trkpt><trkpt lat="44.83774034228041" lon="11.660747929041559"><ele>6.166666666666667</ele><time>2026-04-11T11:49:32Z</time></trkpt><trkpt lat="44.83769851895089" lon="11.660631943725404"><ele>6.0</ele><time>2026-04-11T11:49:34Z</time></trkpt><trkpt lat="44.83764999195028" lon="11.660516214918273"><ele>6.0</ele><time>2026-04-11T11:49:36Z</time></trkpt><trkpt lat="44.83760604332007" lon="11.660409227518699"><ele>6.0</ele><time>2026-04-11T11:49:38Z</time></trkpt><trkpt lat="44.83756660965716" lon="11.660292610644799"><ele>6.0</ele><time>2026-04-11T11:49:40Z</time></trkpt><trkpt lat="44.83753878976661" lon="11.660175383254616"><ele>6.0</ele><time>2026-04-11T11:49:42Z</time></trkpt><trkpt lat="44.83749538363758" lon="11.660067908296904"><ele>6.0</ele><time>2026-04-11T11:49:44Z</time></trkpt><trkpt lat="44.837461033161915" lon="11.659953940792393"><ele>6.0</ele><time>2026-04-11T11:49:46Z</time></trkpt><trkpt lat="44.83743041550476" lon="11.659842923600893"><ele>6.0</ele><time>2026-04-11T11:49:48Z</time></trkpt><trkpt lat="44.83739123576403" lon="11.659740158313102"><ele>6.0</ele><time>2026-04-11T11:49:50Z</time></trkpt><trkpt lat="44.83734747512219" lon="11.659641663637608"><ele>6.0</ele><time>2026-04-11T11:49:52Z</time></trkpt><trkpt lat="44.837314280567064" lon="11.659534984952222"><ele>6.0</ele><time>2026-04-11T11:49:54Z</time></trkpt><trkpt lat="44.83726197461012" lon="11.659418743830884"><ele>6.0</ele><time>2026-04-11T11:49:56Z</time></trkpt><trkpt lat="44.83721584285336" lon="11.659319089602116"><ele>6.0</ele><time>2026-04-11T11:49:58Z</time></trkpt><trkpt lat="44.83717644154501" lon="11.659215235854253"><ele>6.0</ele><time>2026-04-11T11:50:00Z</time></trkpt><trkpt lat="44.837134692494324" lon="11.659113629047916"><ele>6.0</ele><time>2026-04-11T11:50:02Z</time></trkpt><trkpt lat="44.83709840871732" lon="11.659015112450108"><ele>6.0</ele><time>2026-04-11T11:50:04Z</time></trkpt><trkpt lat="44.83704784161986" lon="11.65890888230773"><ele>6.0</ele><time>2026-04-11T11:50:06Z</time></trkpt><trkpt lat="44.836996969358275" lon="11.658812181731022"><ele>6.0</ele><time>2026-04-11T11:50:08Z</time></trkpt><trkpt lat="44.83696983951459" lon="11.658708932085174"><ele>6.0</ele><time>2026-04-11T11:50:10Z</time></trkpt><trkpt lat="44.83693284539266" lon="11.658608215093896"><ele>5.857142857142857</ele><time>2026-04-11T11:50:12Z</time></trkpt><trkpt lat="44.83689404500048" lon="11.658519468077081"><ele>5.714285714285714</ele><time>2026-04-11T11:50:14Z</time></trkpt><trkpt lat="44.83684530876343" lon="11.658451602265545"><ele>5.571428571428571</ele><time>2026-04-11T11:50:16Z</time></trkpt><trkpt lat="44.83679992960728" lon="11.65838475878743"><ele>5.428571428571429</ele><time>2026-04-11T11:50:18Z</time></trkpt><trkpt lat="44.83676246364877" lon="11.658289366791056"><ele>5.285714285714286</ele><time>2026-04-11T11:50:20Z</time></trkpt><trkpt lat="44.83672481721177" lon="11.658180692374806"><ele>5.142857142857142</ele><time>2026-04-11T11:50:22Z</time></trkpt><trkpt lat="44.8366898362168" lon="11.65808435485591"><ele>5.0</ele><time>2026-04-11T11:50:24Z</time></trkpt><trkpt lat="44.83664360239043" lon="11.65799346113586"><ele>4.833333333333334</ele><time>2026-04-11T11:50:26Z</time></trkpt><trkpt lat="44.83661591553659" lon="11.657895044212843"><ele>4.666666666666667</ele><time>2026-04-11T11:50:28Z</time></trkpt><trkpt lat="44.83658194770454" lon="11.657800194598751"><ele>4.5</ele><time>2026-04-11T11:50:30Z</time></trkpt><trkpt lat="44.8365278212064" lon="11.657688996857635"><ele>4.333333333333333</ele><time>2026-04-11T11:50:32Z</time></trkpt><trkpt lat="44.836484907585856" lon="11.657570999489556"><ele>4.166666666666666</ele><time>2026-04-11T11:50:34Z</time></trkpt><trkpt lat="44.836436275011486" lon="11.657457020206852"><ele>4.0</ele><time>2026-04-11T11:50:36Z</time></trkpt><trkpt lat="44.836394220594535" lon="11.657342386479565"><ele>3.833333333333333</ele><time>2026-04-11T11:50:38Z</time></trkpt><trkpt lat="44.83635125065291" lon="11.657230618097383"><ele>3.6666666666666665</ele><time>2026-04-11T11:50:40Z</time></trkpt><trkpt lat="44.836310574156336" lon="11.657122102373558"><ele>3.5</ele><time>2026-04-11T11:50:42Z</time></trkpt><trkpt lat="44.8362727226904" lon="11.657022722084921"><ele>3.333333333333333</ele><time>2026-04-11T11:50:44Z</time></trkpt><trkpt lat="44.836244030297465" lon="11.656899298449776"><ele>3.1666666666666665</ele><time>2026-04-11T11:50:46Z</time></trkpt><trkpt lat="44.83619790886405" lon="11.656785550486493"><ele>3.0</ele><time>2026-04-11T11:50:48Z</time></trkpt><trkpt lat="44.83615303394349" lon="11.656663740739996"><ele>2.8</ele><time>2026-04-11T11:50:50Z</time></trkpt><trkpt lat="44.836105691610136" lon="11.656548357113156"><ele>2.5999999999999996</ele><time>2026-04-11T11:50:52Z</time></trkpt><trkpt lat="44.836069264646945" lon="11.656425916942204"><ele>2.4000000000000004</ele><time>2026-04-11T11:50:54Z</time></trkpt><trkpt lat="44.836013642084225" lon="11.656311973206272"><ele>2.2</ele><time>2026-04-11T11:50:56Z</time></trkpt><trkpt lat="44.83597426945879" lon="11.656189407669354"><ele>2.0</ele><time>2026-04-11T11:50:58Z</time></trkpt><trkpt lat="44.83592857295926" lon="11.65606910947418"><ele>1.8</ele><time>2026-04-11T11:51:00Z</time></trkpt><trkpt lat="44.835879452192366" lon="11.655955502011343"><ele>1.6</ele><time>2026-04-11T11:51:02Z</time></trkpt><trkpt lat="44.835838658756565" lon="11.655834512148411"><ele>1.4000000000000001</ele><time>2026-04-11T11:51:04Z</time></trkpt><trkpt lat="44.83578961393295" lon="11.655724528099228"><ele>1.2000000000000002</ele><time>2026-04-11T11:51:06Z</time></trkpt><trkpt lat="44.83575175574185" lon="11.655614550850895"><ele>1.0</ele><time>2026-04-11T11:51:08Z</time></trkpt><trkpt lat="44.835718860012136" lon="11.655508161039949"><ele>0.9999999999999999</ele><time>2026-04-11T11:51:10Z</time></trkpt><trkpt lat="44.835667146856935" lon="11.655407960087846"><ele>1.0</ele><time>2026-04-11T11:51:12Z</time></trkpt><trkpt lat="44.8356223122804" lon="11.655303490184657"><ele>1.0</ele><time>2026-04-11T11:51:14Z</time></trkpt><trkpt lat="44.835588944560904" lon="11.655206564840913"><ele>1.0</ele><time>2026-04-11T11:51:16Z</time></trkpt><trkpt lat="44.83555411438027" lon="11.655111512368677"><ele>0.9999999999999999</ele><time>2026-04-11T11:51:18Z</time></trkpt><trkpt lat="44.83552273996736" lon="11.655024057609259"><ele>1.0</ele><time>2026-04-11T11:51:20Z</time></trkpt><trkpt lat="44.83549153049717" lon="11.654936850113133"><ele>1.1666666666666665</ele><time>2026-04-11T11:51:22Z</time></trkpt><trkpt lat="44.83544568927364" lon="11.65485529927933"><ele>1.3333333333333333</ele><time>2026-04-11T11:51:24Z</time></trkpt><trkpt lat="44.835399691637356" lon="11.654751692492814"><ele>1.5</ele><time>2026-04-11T11:51:26Z</time></trkpt><trkpt lat="44.83535051934122" lon="11.654654113142959"><ele>1.6666666666666665</ele><time>2026-04-11T11:51:28Z</time></trkpt><trkpt lat="44.83531147058217" lon="11.654558586656755"><ele>1.8333333333333333</ele><time>2026-04-11T11:51:30Z</time></trkpt><trkpt lat="44.83528153789327" lon="11.654458968499737"><ele>2.0</ele><time>2026-04-11T11:51:32Z</time></trkpt><trkpt lat="44.835236129680354" lon="11.654374403246697"><ele>2.0</ele><time>2026-04-11T11:51:34Z</time></trkpt><trkpt lat="44.835184833493834" lon="11.654276470896374"><ele>2.0</ele><time>2026-04-11T11:51:36Z</time></trkpt><trkpt lat="44.83513589695333" lon="11.654170906953329"><ele>2.0</ele><time>2026-04-11T11:51:38Z</time></trkpt><trkpt lat="44.835085167566326" lon="11.654065331356371"><ele>2.0</ele><time>2026-04-11T11:51:40Z</time></trkpt><trkpt lat="44.83502628040691" lon="11.653956555418103"><ele>2.0</ele><time>2026-04-11T11:51:42Z</time></trkpt><trkpt lat="44.83496956651327" lon="11.653849331761318"><ele>1.8</ele><time>2026-04-11T11:51:44Z</time></trkpt><trkpt lat="44.83491368679842" lon="11.653741943494428"><ele>1.6</ele><time>2026-04-11T11:51:46Z</time></trkpt><trkpt lat="44.834851600704305" lon="11.653637632884873"><ele>1.4000000000000001</ele><time>2026-04-11T11:51:48Z</time></trkpt><trkpt lat="44.83479927855354" lon="11.653531844356674"><ele>1.2000000000000002</ele><time>2026-04-11T11:51:50Z</time></trkpt><trkpt lat="44.83473884698292" lon="11.653432667423452"><ele>1.0</ele><time>2026-04-11T11:51:52Z</time></trkpt><trkpt lat="44.834679950245786" lon="11.65332674286421"><ele>1.8</ele><time>2026-04-11T11:51:54Z</time></trkpt><trkpt lat="44.834622728470144" lon="11.653224347667672"><ele>2.6</ele><time>2026-04-11T11:51:56Z</time></trkpt><trkpt lat="44.8345645408362" lon="11.653118346669023"><ele>3.4</ele><time>2026-04-11T11:51:58Z</time></trkpt><trkpt lat="44.83450307657689" lon="11.653016814320045"><ele>4.2</ele><time>2026-04-11T11:52:00Z</time></trkpt><trkpt lat="44.834440659020686" lon="11.652914812857471"><ele>5.0</ele><time>2026-04-11T11:52:02Z</time></trkpt><trkpt lat="44.834375224709895" lon="11.65281504021507"><ele>5.2</ele><time>2026-04-11T11:52:04Z</time></trkpt><trkpt lat="44.83431945422187" lon="11.652709786801354"><ele>5.4</ele><time>2026-04-11T11:52:06Z</time></trkpt><trkpt lat="44.83426052814779" lon="11.652602515546553"><ele>5.6</ele><time>2026-04-11T11:52:08Z</time></trkpt><trkpt lat="44.83420179867271" lon="11.652500107630283"><ele>5.8</ele><time>2026-04-11T11:52:10Z</time></trkpt><trkpt lat="44.83414730774724" lon="11.652395116566302"><ele>6.0</ele><time>2026-04-11T11:52:12Z</time></trkpt><trkpt lat="44.834090900270766" lon="11.652290867578655"><ele>5.6</ele><time>2026-04-11T11:52:14Z</time></trkpt><trkpt lat="44.834035828823325" lon="11.652186297727367"><ele>5.199999999999999</ele><time>2026-04-11T11:52:16Z</time></trkpt><trkpt lat="44.833978288992256" lon="11.65208728297195"><ele>4.800000000000001</ele><time>2026-04-11T11:52:18Z</time></trkpt><trkpt lat="44.833921735407586" lon="11.651982183987508"><ele>4.4</ele><time>2026-04-11T11:52:20Z</time></trkpt><trkpt lat="44.83385701200751" lon="11.651889738346362"><ele>4.0</ele><time>2026-04-11T11:52:22Z</time></trkpt><trkpt lat="44.83379834098895" lon="11.65179627999782"><ele>3.833333333333333</ele><time>2026-04-11T11:52:24Z</time></trkpt><trkpt lat="44.83375221445559" lon="11.651696778109976"><ele>3.6666666666666665</ele><time>2026-04-11T11:52:26Z</time></trkpt><trkpt lat="44.83369843910558" lon="11.651609370381552"><ele>3.5</ele><time>2026-04-11T11:52:28Z</time></trkpt><trkpt lat="44.83364344217531" lon="11.651528872677615"><ele>3.333333333333333</ele><time>2026-04-11T11:52:30Z</time></trkpt><trkpt lat="44.8335960472315" lon="11.651428308242389"><ele>3.1666666666666665</ele><time>2026-04-11T11:52:32Z</time></trkpt><trkpt lat="44.833543193222006" lon="11.651328067507777"><ele>3.0</ele><time>2026-04-11T11:52:34Z</time></trkpt><trkpt lat="44.83348903982364" lon="11.65123821976088"><ele>2.9999999999999996</ele><time>2026-04-11T11:52:36Z</time></trkpt><trkpt lat="44.83343775396281" lon="11.651152173309757"><ele>3.0</ele><time>2026-04-11T11:52:38Z</time></trkpt><trkpt lat="44.833392591584506" lon="11.651064792328208"><ele>3.0</ele><time>2026-04-11T11:52:40Z</time></trkpt><trkpt lat="44.83333551260514" lon="11.650995165453136"><ele>3.0</ele><time>2026-04-11T11:52:42Z</time></trkpt><trkpt lat="44.83329563045481" lon="11.650915111896953"><ele>3.0</ele><time>2026-04-11T11:52:44Z</time></trkpt><trkpt lat="44.83325811063088" lon="11.650831780433455"><ele>2.9999999999999996</ele><time>2026-04-11T11:52:46Z</time></trkpt><trkpt lat="44.833216496906694" lon="11.650759461016252"><ele>3.0</ele><time>2026-04-11T11:52:48Z</time></trkpt><trkpt lat="44.83318616586894" lon="11.650666519177003"><ele>3.0</ele><time>2026-04-11T11:52:51Z</time></trkpt><trkpt lat="44.833116817038935" lon="11.650610211691484"><ele>3.0</ele><time>2026-04-11T11:57:36.998Z</time></trkpt><trkpt lat="44.83306884099849" lon="11.650530867104576"><ele>3.0</ele><time>2026-04-11T11:57:38.998Z</time></trkpt><trkpt lat="44.83302108549491" lon="11.650432846397585"><ele>3.0</ele><time>2026-04-11T11:57:41.998Z</time></trkpt><trkpt lat="44.83296708546216" lon="11.650333428629152"><ele>3.0</ele><time>2026-04-11T11:57:44.999Z</time></trkpt><trkpt lat="44.83292546256011" lon="11.650262799793325"><ele>3.0</ele><time>2026-04-11T11:57:46.999Z</time></trkpt><trkpt lat="44.83287133760675" lon="11.650173707164898"><ele>3.1666666666666665</ele><time>2026-04-11T11:57:48.999Z</time></trkpt><trkpt lat="44.8328261383464" lon="11.650081864997695"><ele>3.333333333333333</ele><time>2026-04-11T11:57:50.999Z</time></trkpt><trkpt lat="44.832777955450325" lon="11.650001504680901"><ele>3.5</ele><time>2026-04-11T11:57:52.999Z</time></trkpt><trkpt lat="44.832737804352625" lon="11.649915112171659"><ele>3.6666666666666665</ele><time>2026-04-11T11:57:54.999Z</time></trkpt><trkpt lat="44.83268927696894" lon="11.649841354654221"><ele>3.833333333333333</ele><time>2026-04-11T11:57:56.999Z</time></trkpt><trkpt lat="44.83264168264332" lon="11.649742414778146"><ele>4.0</ele><time>2026-04-11T11:57:58.999Z</time></trkpt><trkpt lat="44.832592704284444" lon="11.64963849448472"><ele>4.166666666666666</ele><time>2026-04-11T11:58:00.999Z</time></trkpt><trkpt lat="44.832545442890684" lon="11.649531495300309"><ele>4.333333333333333</ele><time>2026-04-11T11:58:02.999Z</time></trkpt><trkpt lat="44.83248422196069" lon="11.64945122948334"><ele>4.5</ele><time>2026-04-11T11:58:04.999Z</time></trkpt><trkpt lat="44.83243785419827" lon="11.649357719372258"><ele>4.666666666666667</ele><time>2026-04-11T11:58:06.999Z</time></trkpt><trkpt lat="44.83239723492296" lon="11.64926257050898"><ele>4.833333333333334</ele><time>2026-04-11T11:58:08.999Z</time></trkpt><trkpt lat="44.83234775858351" lon="11.649173139202869"><ele>5.0</ele><time>2026-04-11T11:58:11Z</time></trkpt><trkpt lat="44.83229610958186" lon="11.649073689934744"><ele>5.0</ele><time>2026-04-11T11:58:13Z</time></trkpt><trkpt lat="44.832247852226445" lon="11.648977028332123"><ele>5.0</ele><time>2026-04-11T11:58:15Z</time></trkpt><trkpt lat="44.832206003638746" lon="11.64888221264753"><ele>5.0</ele><time>2026-04-11T11:58:17Z</time></trkpt><trkpt lat="44.83216548910278" lon="11.648789057602148"><ele>5.0</ele><time>2026-04-11T11:58:19Z</time></trkpt><trkpt lat="44.83212442837795" lon="11.648697690046692"><ele>5.0</ele><time>2026-04-11T11:58:21Z</time></trkpt><trkpt lat="44.83208386261925" lon="11.648602418333702"><ele>5.0</ele><time>2026-04-11T11:58:23Z</time></trkpt><trkpt lat="44.83203683984356" lon="11.648492921333856"><ele>4.833333333333334</ele><time>2026-04-11T11:58:25Z</time></trkpt><trkpt lat="44.831993883409964" lon="11.6483797323894"><ele>4.666666666666667</ele><time>2026-04-11T11:58:27Z</time></trkpt><trkpt lat="44.83194599839059" lon="11.648265960186647"><ele>4.5</ele><time>2026-04-11T11:58:29Z</time></trkpt><trkpt lat="44.83190725737741" lon="11.64816043301311"><ele>4.333333333333333</ele><time>2026-04-11T11:58:31Z</time></trkpt><trkpt lat="44.831853897335726" lon="11.648064880565505"><ele>4.166666666666666</ele><time>2026-04-11T11:58:33Z</time></trkpt><trkpt lat="44.831811998560035" lon="11.647965363370625"><ele>4.0</ele><time>2026-04-11T11:58:35Z</time></trkpt><trkpt lat="44.83176433014576" lon="11.647874227901275"><ele>4.142857142857142</ele><time>2026-04-11T11:58:37Z</time></trkpt><trkpt lat="44.831720844463675" lon="11.647785115317248"><ele>4.285714285714286</ele><time>2026-04-11T11:58:39Z</time></trkpt><trkpt lat="44.83167692705289" lon="11.647699547076122"><ele>4.428571428571429</ele><time>2026-04-11T11:58:41Z</time></trkpt><trkpt lat="44.831638811768066" lon="11.647617053538672"><ele>4.571428571428571</ele><time>2026-04-11T11:58:43Z</time></trkpt><trkpt lat="44.831599363156045" lon="11.647535149502279"><ele>4.714285714285714</ele><time>2026-04-11T11:58:45Z</time></trkpt><trkpt lat="44.83156243481695" lon="11.647459388112372"><ele>4.857142857142857</ele><time>2026-04-11T11:58:47Z</time></trkpt><trkpt lat="44.83150801734356" lon="11.64735732845761"><ele>5.0</ele><time>2026-04-11T11:58:50Z</time></trkpt><trkpt lat="44.83157449202209" lon="11.64715690504631"><ele>5.0</ele><time>2026-04-11T11:58:51Z</time></trkpt><trkpt lat="44.83153872557134" lon="11.64707593634381"><ele>5.0</ele><time>2026-04-11T11:58:59Z</time></trkpt><trkpt lat="44.83150989923896" lon="11.646973783026196"><ele>5.0</ele><time>2026-04-11T11:59:01Z</time></trkpt><trkpt lat="44.83142330834465" lon="11.646956860039408"><ele>5.0</ele><time>2026-04-11T11:59:03Z</time></trkpt><trkpt lat="44.83135801884074" lon="11.64690460065397"><ele>5.0</ele><time>2026-04-11T11:59:05Z</time></trkpt><trkpt lat="44.83129031276746" lon="11.646850404912719"><ele>5.0</ele><time>2026-04-11T11:59:07Z</time></trkpt><trkpt lat="44.83121903526217" lon="11.646820412052055"><ele>4.8</ele><time>2026-04-11T11:59:08Z</time></trkpt><trkpt lat="44.83114370640455" lon="11.646698861918093"><ele>4.6</ele><time>2026-04-11T11:59:10Z</time></trkpt><trkpt lat="44.8312462715992" lon="11.64654657074063"><ele>4.4</ele><time>2026-04-11T11:59:11Z</time></trkpt><trkpt lat="44.8311844435011" lon="11.646481048157064"><ele>4.2</ele><time>2026-04-11T11:59:13Z</time></trkpt><trkpt lat="44.831156265109215" lon="11.646396451051016"><ele>4.0</ele><time>2026-04-11T11:59:15Z</time></trkpt><trkpt lat="44.83117884611538" lon="11.646309906533094"><ele>3.9999999999999996</ele><time>2026-04-11T11:59:18Z</time></trkpt><trkpt lat="44.831150156847954" lon="11.646198497618167"><ele>4.0</ele><time>2026-04-11T11:59:27.001Z</time></trkpt><trkpt lat="44.83108793843305" lon="11.646168347771177"><ele>4.0</ele><time>2026-04-11T11:59:29.001Z</time></trkpt><trkpt lat="44.83101883929151" lon="11.64618449136177"><ele>4.0</ele><time>2026-04-11T11:59:31.001Z</time></trkpt><trkpt lat="44.83096395401893" lon="11.646100230558327"><ele>3.9999999999999996</ele><time>2026-04-11T11:59:33.001Z</time></trkpt><trkpt lat="44.83091375744866" lon="11.64601198970384"><ele>4.0</ele><time>2026-04-11T11:59:35.001Z</time></trkpt><trkpt lat="44.830871957223216" lon="11.645929336032598"><ele>3.9999999999999996</ele><time>2026-04-11T11:59:37.001Z</time></trkpt><trkpt lat="44.830836114022084" lon="11.645844596768686"><ele>4.0</ele><time>2026-04-11T11:59:39.001Z</time></trkpt><trkpt lat="44.830795631010346" lon="11.64576524882096"><ele>4.0</ele><time>2026-04-11T11:59:42Z</time></trkpt><trkpt lat="44.8308443458526" lon="11.64586733728872"><ele>4.0</ele><time>2026-04-11T11:59:50Z</time></trkpt><trkpt lat="44.83089655738092" lon="11.645963532555887"><ele>3.9999999999999996</ele><time>2026-04-11T11:59:52Z</time></trkpt><trkpt lat="44.83094336250255" lon="11.646055364780235"><ele>4.0</ele><time>2026-04-11T11:59:54Z</time></trkpt><trkpt lat="44.83099586277794" lon="11.646129308616743"><ele>3.9999999999999996</ele><time>2026-04-11T11:59:56Z</time></trkpt><trkpt lat="44.83104321241437" lon="11.646190492876068"><ele>4.0</ele><time>2026-04-11T11:59:58Z</time></trkpt><trkpt lat="44.83112798212543" lon="11.646142663735276"><ele>4.0</ele><time>2026-04-11T12:00:02Z</time></trkpt><trkpt lat="44.831178419473076" lon="11.646083741466427"><ele>4.0</ele><time>2026-04-11T12:00:04Z</time></trkpt><trkpt lat="44.83122837717082" lon="11.64601884235669"><ele>3.9999999999999996</ele><time>2026-04-11T12:00:06Z</time></trkpt><trkpt lat="44.831295341118846" lon="11.645943520287965"><ele>4.0</ele><time>2026-04-11T12:00:08Z</time></trkpt><trkpt lat="44.83136457173632" lon="11.645871225957379"><ele>4.0</ele><time>2026-04-11T12:00:10Z</time></trkpt><trkpt lat="44.831441177587415" lon="11.645798476719172"><ele>4.0</ele><time>2026-04-11T12:00:12Z</time></trkpt><trkpt lat="44.83151716385817" lon="11.645714232071187"><ele>4.0</ele><time>2026-04-11T12:00:14Z</time></trkpt><trkpt lat="44.831586900468295" lon="11.645631754091898"><ele>4.0</ele><time>2026-04-11T12:00:16Z</time></trkpt><trkpt lat="44.831656137729155" lon="11.645550045469092"><ele>4.0</ele><time>2026-04-11T12:00:18Z</time></trkpt><trkpt lat="44.83172663911579" lon="11.645482651802126"><ele>3.9999999999999996</ele><time>2026-04-11T12:00:20Z</time></trkpt><trkpt lat="44.83180679679889" lon="11.645449396533436"><ele>4.0</ele><time>2026-04-11T12:00:22Z</time></trkpt><trkpt lat="44.83187993899284" lon="11.645414453156112"><ele>4.0</ele><time>2026-04-11T12:00:24Z</time></trkpt><trkpt lat="44.83195558398664" lon="11.645395413936738"><ele>4.0</ele><time>2026-04-11T12:00:26Z</time></trkpt><trkpt lat="44.83202737215807" lon="11.645369690817867"><ele>3.9999999999999996</ele><time>2026-04-11T12:00:28Z</time></trkpt><trkpt lat="44.832099097463406" lon="11.645352479365458"><ele>4.0</ele><time>2026-04-11T12:00:30Z</time></trkpt><trkpt lat="44.83216952779605" lon="11.645309077740325"><ele>3.833333333333333</ele><time>2026-04-11T12:00:32Z</time></trkpt><trkpt lat="44.832211059215744" lon="11.645213214354401"><ele>3.6666666666666665</ele><time>2026-04-11T12:00:34.001Z</time></trkpt><trkpt lat="44.83223116773581" lon="11.645105380359675"><ele>3.5</ele><time>2026-04-11T12:00:36.001Z</time></trkpt><trkpt lat="44.83225604849097" lon="11.645007431443238"><ele>3.333333333333333</ele><time>2026-04-11T12:00:38.001Z</time></trkpt><trkpt lat="44.83228605561307" lon="11.644893067843027"><ele>3.1666666666666665</ele><time>2026-04-11T12:00:40.001Z</time></trkpt><trkpt lat="44.832319316317054" lon="11.644768762458572"><ele>3.0</ele><time>2026-04-11T12:00:42.001Z</time></trkpt><trkpt lat="44.83235451007453" lon="11.644648059691287"><ele>3.0</ele><time>2026-04-11T12:00:44.001Z</time></trkpt><trkpt lat="44.83238648213985" lon="11.644526912461668"><ele>3.0</ele><time>2026-04-11T12:00:46.001Z</time></trkpt><trkpt lat="44.83242151409091" lon="11.644400658701937"><ele>3.0</ele><time>2026-04-11T12:00:48.001Z</time></trkpt><trkpt lat="44.83244882934519" lon="11.64427096722577"><ele>3.0</ele><time>2026-04-11T12:00:50.001Z</time></trkpt><trkpt lat="44.83247922138602" lon="11.644149941190559"><ele>3.0</ele><time>2026-04-11T12:00:52.001Z</time></trkpt><trkpt lat="44.83250918662696" lon="11.644032797051423"><ele>3.0</ele><time>2026-04-11T12:00:54.001Z</time></trkpt><trkpt lat="44.832538867603084" lon="11.643917875964615"><ele>3.0</ele><time>2026-04-11T12:00:56.001Z</time></trkpt><trkpt lat="44.832571434985645" lon="11.643801649306326"><ele>3.0</ele><time>2026-04-11T12:00:58.001Z</time></trkpt><trkpt lat="44.83259266815066" lon="11.64368580902056"><ele>3.0</ele><time>2026-04-11T12:01:00.001Z</time></trkpt><trkpt lat="44.83261775187589" lon="11.643576649612598"><ele>3.0</ele><time>2026-04-11T12:01:02.001Z</time></trkpt><trkpt lat="44.832632245888284" lon="11.643464767072949"><ele>3.0</ele><time>2026-04-11T12:01:04.001Z</time></trkpt><trkpt lat="44.83263440681623" lon="11.643339929418676"><ele>3.0</ele><time>2026-04-11T12:01:06.001Z</time></trkpt><trkpt lat="44.8326293198907" lon="11.643210231903955"><ele>3.0</ele><time>2026-04-11T12:01:08.001Z</time></trkpt><trkpt lat="44.83261275458745" lon="11.643084010717931"><ele>3.0</ele><time>2026-04-11T12:01:10.001Z</time></trkpt><trkpt lat="44.83259050853107" lon="11.64296125965641"><ele>3.0</ele><time>2026-04-11T12:01:12.001Z</time></trkpt><trkpt lat="44.83257522224406" lon="11.64284594295505"><ele>3.0</ele><time>2026-04-11T12:01:14.001Z</time></trkpt><trkpt lat="44.83256681273393" lon="11.642731384912988"><ele>3.0</ele><time>2026-04-11T12:01:16.001Z</time></trkpt><trkpt lat="44.83256601195158" lon="11.642606247459376"><ele>2.8</ele><time>2026-04-11T12:01:18.001Z</time></trkpt><trkpt lat="44.83257269479778" lon="11.64247871506887"><ele>2.5999999999999996</ele><time>2026-04-11T12:01:20.001Z</time></trkpt><trkpt lat="44.83258825370578" lon="11.642352246943151"><ele>2.4000000000000004</ele><time>2026-04-11T12:01:22.001Z</time></trkpt><trkpt lat="44.83261638949619" lon="11.642235140594812"><ele>2.2</ele><time>2026-04-11T12:01:24.001Z</time></trkpt><trkpt lat="44.832647108323265" lon="11.642116716482931"><ele>2.0</ele><time>2026-04-11T12:01:26.001Z</time></trkpt><trkpt lat="44.83269087456576" lon="11.642003771615286"><ele>2.8</ele><time>2026-04-11T12:01:28.001Z</time></trkpt><trkpt lat="44.83273988690158" lon="11.641893650104375"><ele>3.6</ele><time>2026-04-11T12:01:30.001Z</time></trkpt><trkpt lat="44.832796957361985" lon="11.641788465140115"><ele>4.3999999999999995</ele><time>2026-04-11T12:01:32.001Z</time></trkpt><trkpt lat="44.832863342344396" lon="11.641694392398264"><ele>5.2</ele><time>2026-04-11T12:01:34.001Z</time></trkpt><trkpt lat="44.83293475209698" lon="11.641609411939802"><ele>6.0</ele><time>2026-04-11T12:01:36.001Z</time></trkpt><trkpt lat="44.83300838531217" lon="11.641529843940175"><ele>6.0</ele><time>2026-04-11T12:01:38.001Z</time></trkpt><trkpt lat="44.83307439511297" lon="11.64143583701329"><ele>6.0</ele><time>2026-04-11T12:01:40.001Z</time></trkpt><trkpt lat="44.833132156451974" lon="11.641337945422597"><ele>6.0</ele><time>2026-04-11T12:01:42.001Z</time></trkpt><trkpt lat="44.83318242412108" lon="11.641241304149688"><ele>6.0</ele><time>2026-04-11T12:01:44.001Z</time></trkpt><trkpt lat="44.83321986321124" lon="11.64113531729714"><ele>6.0</ele><time>2026-04-11T12:01:46.001Z</time></trkpt><trkpt lat="44.833246544815765" lon="11.64103297508959"><ele>6.0</ele><time>2026-04-11T12:01:48.001Z</time></trkpt><trkpt lat="44.833276448011176" lon="11.640934370443443"><ele>6.0</ele><time>2026-04-11T12:01:50.001Z</time></trkpt><trkpt lat="44.8333220793856" lon="11.640867530039507"><ele>6.0</ele><time>2026-04-11T12:01:54.001Z</time></trkpt><trkpt lat="44.83338313430106" lon="11.640895235312398"><ele>6.0</ele><time>2026-04-11T12:01:57.001Z</time></trkpt><trkpt lat="44.833460329685806" lon="11.640927190180294"><ele>6.0</ele><time>2026-04-11T12:02:00Z</time></trkpt><trkpt lat="44.83354539276003" lon="11.64095191770003"><ele>6.0</ele><time>2026-04-11T12:02:03Z</time></trkpt><trkpt lat="44.83363591864353" lon="11.64099658745257"><ele>6.0</ele><time>2026-04-11T12:02:06Z</time></trkpt><trkpt lat="44.833700960260614" lon="11.641022208053133"><ele>5.999999999999999</ele><time>2026-04-11T12:02:08Z</time></trkpt><trkpt lat="44.83376566545658" lon="11.641062539921249"><ele>6.0</ele><time>2026-04-11T12:02:10Z</time></trkpt><trkpt lat="44.83383410618255" lon="11.641104276977588"><ele>6.0</ele><time>2026-04-11T12:02:12Z</time></trkpt><trkpt lat="44.83389889301361" lon="11.641118309139621"><ele>6.0</ele><time>2026-04-11T12:02:14Z</time></trkpt><trkpt lat="44.83394204406482" lon="11.64105292116381"><ele>6.0</ele><time>2026-04-11T12:02:17.001Z</time></trkpt><trkpt lat="44.83393334462005" lon="11.640954103346003"><ele>5.999999999999999</ele><time>2026-04-11T12:02:20.001Z</time></trkpt><trkpt lat="44.83385519274058" lon="11.640885408980305"><ele>6.0</ele><time>2026-04-11T12:02:22.001Z</time></trkpt><trkpt lat="44.83379105584931" lon="11.64084105608154"><ele>6.0</ele><time>2026-04-11T12:02:24.001Z</time></trkpt><trkpt lat="44.83372504600098" lon="11.640809371800074"><ele>6.0</ele><time>2026-04-11T12:02:26.001Z</time></trkpt><trkpt lat="44.833661673905326" lon="11.640780418017297"><ele>6.0</ele><time>2026-04-11T12:02:28.001Z</time></trkpt><trkpt lat="44.83357823322901" lon="11.640740362281514"><ele>6.0</ele><time>2026-04-11T12:02:31.001Z</time></trkpt><trkpt lat="44.83351287882642" lon="11.640675280201428"><ele>6.0</ele><time>2026-04-11T12:02:34.001Z</time></trkpt><trkpt lat="44.83348522542534" lon="11.640567824893544"><ele>6.0</ele><time>2026-04-11T12:02:36.001Z</time></trkpt><trkpt lat="44.83351450238949" lon="11.6404544585383"><ele>6.0</ele><time>2026-04-11T12:02:38.001Z</time></trkpt><trkpt lat="44.83354598922006" lon="11.64035518040295"><ele>6.0</ele><time>2026-04-11T12:02:40.001Z</time></trkpt><trkpt lat="44.83357406623613" lon="11.640253453068679"><ele>6.0</ele><time>2026-04-11T12:02:42.001Z</time></trkpt><trkpt lat="44.83360729894786" lon="11.640149355138407"><ele>6.0</ele><time>2026-04-11T12:02:44.001Z</time></trkpt><trkpt lat="44.833641289143" lon="11.640028235171906"><ele>6.0</ele><time>2026-04-11T12:02:46.001Z</time></trkpt><trkpt lat="44.833672048135654" lon="11.639904348016184"><ele>6.0</ele><time>2026-04-11T12:02:48.001Z</time></trkpt><trkpt lat="44.83370091620497" lon="11.639780716073224"><ele>5.6</ele><time>2026-04-11T12:02:50.001Z</time></trkpt><trkpt lat="44.83374037914949" lon="11.639661184126126"><ele>5.199999999999999</ele><time>2026-04-11T12:02:52.001Z</time></trkpt><trkpt lat="44.83377544961541" lon="11.639541307469967"><ele>4.800000000000001</ele><time>2026-04-11T12:02:54.001Z</time></trkpt><trkpt lat="44.83380953874839" lon="11.639420160258725"><ele>4.4</ele><time>2026-04-11T12:02:56.001Z</time></trkpt><trkpt lat="44.83384628804246" lon="11.639302210704686"><ele>4.0</ele><time>2026-04-11T12:02:58.001Z</time></trkpt><trkpt lat="44.833879192033855" lon="11.63918700424143"><ele>3.9999999999999996</ele><time>2026-04-11T12:03:00.001Z</time></trkpt><trkpt lat="44.8339141713705" lon="11.639070925421743"><ele>4.0</ele><time>2026-04-11T12:03:02.001Z</time></trkpt><trkpt lat="44.833948751992715" lon="11.638956037023677"><ele>4.0</ele><time>2026-04-11T12:03:04.001Z</time></trkpt><trkpt lat="44.83398349269906" lon="11.638843085996651"><ele>4.0</ele><time>2026-04-11T12:03:06.001Z</time></trkpt><trkpt lat="44.834019233955864" lon="11.638732950947116"><ele>3.9999999999999996</ele><time>2026-04-11T12:03:08.001Z</time></trkpt><trkpt lat="44.83405735110593" lon="11.638620258758925"><ele>4.0</ele><time>2026-04-11T12:03:10.001Z</time></trkpt><trkpt lat="44.83409599386091" lon="11.638507008660842"><ele>3.9999999999999996</ele><time>2026-04-11T12:03:12.001Z</time></trkpt><trkpt lat="44.83413798773381" lon="11.63838880174337"><ele>4.0</ele><time>2026-04-11T12:03:14.001Z</time></trkpt><trkpt lat="44.834171213442694" lon="11.638267517703506"><ele>4.0</ele><time>2026-04-11T12:03:16.001Z</time></trkpt><trkpt lat="44.83420199106708" lon="11.638164691843002"><ele>4.0</ele><time>2026-04-11T12:03:18.001Z</time></trkpt><trkpt lat="44.834243309726254" lon="11.638067971532115"><ele>3.9999999999999996</ele><time>2026-04-11T12:03:27.001Z</time></trkpt><trkpt lat="44.834323931141405" lon="11.638008997370937"><ele>4.0</ele><time>2026-04-11T12:03:30.001Z</time></trkpt><trkpt lat="44.834403076965046" lon="11.63797281808911"><ele>3.9999999999999996</ele><time>2026-04-11T12:03:32.001Z</time></trkpt><trkpt lat="44.83447613676746" lon="11.637895107792867"><ele>4.0</ele><time>2026-04-11T12:03:34.001Z</time></trkpt><trkpt lat="44.834522478843525" lon="11.637782171875859"><ele>4.0</ele><time>2026-04-11T12:03:36.001Z</time></trkpt><trkpt lat="44.83452127208477" lon="11.637653935575354"><ele>4.0</ele><time>2026-04-11T12:03:38.001Z</time></trkpt><trkpt lat="44.83448161642533" lon="11.637545664623202"><ele>3.9999999999999996</ele><time>2026-04-11T12:03:40.001Z</time></trkpt><trkpt lat="44.8344145671195" lon="11.63748015990292"><ele>4.0</ele><time>2026-04-11T12:03:42.001Z</time></trkpt><trkpt lat="44.8343422335615" lon="11.637441990644573"><ele>3.9999999999999996</ele><time>2026-04-11T12:03:44.001Z</time></trkpt><trkpt lat="44.834257710186954" lon="11.63744144115081"><ele>4.0</ele><time>2026-04-11T12:03:46.001Z</time></trkpt><trkpt lat="44.83418440271412" lon="11.637438316346666"><ele>4.0</ele><time>2026-04-11T12:03:48.001Z</time></trkpt><trkpt lat="44.83412502688753" lon="11.637378053063575"><ele>4.0</ele><time>2026-04-11T12:03:50.001Z</time></trkpt><trkpt lat="44.83411541078953" lon="11.637265125598919"><ele>3.9999999999999996</ele><time>2026-04-11T12:03:53.001Z</time></trkpt><trkpt lat="44.83412135412815" lon="11.637149761414205"><ele>4.0</ele><time>2026-04-11T12:03:56.001Z</time></trkpt><trkpt lat="44.834126256349165" lon="11.637036971217313"><ele>3.6666666666666665</ele><time>2026-04-11T12:03:58.001Z</time></trkpt><trkpt lat="44.83412887628871" lon="11.636917414314356"><ele>3.333333333333333</ele><time>2026-04-11T12:04:00.001Z</time></trkpt><trkpt lat="44.834136363101" lon="11.636807111429713"><ele>3.0</ele><time>2026-04-11T12:04:02.001Z</time></trkpt><trkpt lat="44.834144722734955" lon="11.636705654817911"><ele>2.6666666666666665</ele><time>2026-04-11T12:04:04.001Z</time></trkpt><trkpt lat="44.834156424927265" lon="11.636590587048591"><ele>2.333333333333333</ele><time>2026-04-11T12:04:06Z</time></trkpt><trkpt lat="44.83418251577866" lon="11.636470813840662"><ele>2.0</ele><time>2026-04-11T12:04:09Z</time></trkpt><trkpt lat="44.83422980349099" lon="11.636399086915109"><ele>1.9999999999999998</ele><time>2026-04-11T12:04:11Z</time></trkpt><trkpt lat="44.83428514215841" lon="11.636313007537607"><ele>2.0</ele><time>2026-04-11T12:04:13Z</time></trkpt><trkpt lat="44.83435484677495" lon="11.636262786826235"><ele>2.0</ele><time>2026-04-11T12:04:15Z</time></trkpt><trkpt lat="44.83441921583625" lon="11.636218888210019"><ele>2.0</ele><time>2026-04-11T12:04:17Z</time></trkpt><trkpt lat="44.834486551911105" lon="11.636174799394546"><ele>1.9999999999999998</ele><time>2026-04-11T12:04:19Z</time></trkpt><trkpt lat="44.834557704390456" lon="11.636115698513143"><ele>2.0</ele><time>2026-04-11T12:04:21Z</time></trkpt><trkpt lat="44.83461496794165" lon="11.636060544433711"><ele>1.8333333333333333</ele><time>2026-04-11T12:04:23Z</time></trkpt><trkpt lat="44.834675206071296" lon="11.636023744346785"><ele>1.6666666666666665</ele><time>2026-04-11T12:04:25Z</time></trkpt><trkpt lat="44.83474532325706" lon="11.635970191495636"><ele>1.5</ele><time>2026-04-11T12:04:27Z</time></trkpt><trkpt lat="44.83481732599797" lon="11.635916713950026"><ele>1.3333333333333333</ele><time>2026-04-11T12:04:29Z</time></trkpt><trkpt lat="44.834894308362365" lon="11.635856945535325"><ele>1.1666666666666665</ele><time>2026-04-11T12:04:31Z</time></trkpt><trkpt lat="44.834969676083816" lon="11.635791891075899"><ele>1.0</ele><time>2026-04-11T12:04:33Z</time></trkpt><trkpt lat="44.835043708246914" lon="11.635737033696646"><ele>0.9999999999999999</ele><time>2026-04-11T12:04:35.001Z</time></trkpt><trkpt lat="44.83510735169497" lon="11.63567964332548"><ele>1.0</ele><time>2026-04-11T12:04:37.001Z</time></trkpt><trkpt lat="44.83516574118862" lon="11.635628944734563"><ele>1.0</ele><time>2026-04-11T12:04:39.001Z</time></trkpt><trkpt lat="44.83524083305995" lon="11.635581395792274"><ele>1.0</ele><time>2026-04-11T12:04:41.001Z</time></trkpt><trkpt lat="44.8353063406666" lon="11.635531349448309"><ele>0.9999999999999999</ele><time>2026-04-11T12:04:43.001Z</time></trkpt><trkpt lat="44.83536565446552" lon="11.635474465296742"><ele>1.0</ele><time>2026-04-11T12:04:45.001Z</time></trkpt><trkpt lat="44.835435916454685" lon="11.635415853668786"><ele>1.8333333333333333</ele><time>2026-04-11T12:04:47.001Z</time></trkpt><trkpt lat="44.835504762311636" lon="11.635363432533701"><ele>2.6666666666666665</ele><time>2026-04-11T12:04:49.001Z</time></trkpt><trkpt lat="44.83556139310868" lon="11.63531529412719"><ele>3.5</ele><time>2026-04-11T12:04:51.001Z</time></trkpt><trkpt lat="44.835625108749504" lon="11.635291386448536"><ele>4.333333333333333</ele><time>2026-04-11T12:04:53.001Z</time></trkpt><trkpt lat="44.83571013582183" lon="11.635215815376652"><ele>5.166666666666667</ele><time>2026-04-11T12:04:56.001Z</time></trkpt><trkpt lat="44.83578902376517" lon="11.635210778503934"><ele>6.0</ele><time>2026-04-11T12:04:58.001Z</time></trkpt><trkpt lat="44.835859617984624" lon="11.63521321355092"><ele>6.142857142857142</ele><time>2026-04-11T12:05:00.001Z</time></trkpt><trkpt lat="44.83593770412355" lon="11.635210933595403"><ele>6.285714285714286</ele><time>2026-04-11T12:05:02.001Z</time></trkpt><trkpt lat="44.836013376991524" lon="11.635198227633799"><ele>6.428571428571429</ele><time>2026-04-11T12:05:04.001Z</time></trkpt><trkpt lat="44.83607650703934" lon="11.635198188701722"><ele>6.571428571428571</ele><time>2026-04-11T12:05:06.001Z</time></trkpt><trkpt lat="44.836169062046736" lon="11.635188729861254"><ele>6.714285714285714</ele><time>2026-04-11T12:05:09.001Z</time></trkpt><trkpt lat="44.83623330978998" lon="11.635185695866058"><ele>6.857142857142857</ele><time>2026-04-11T12:05:11.001Z</time></trkpt><trkpt lat="44.836303690634104" lon="11.635179805101945"><ele>7.0</ele><time>2026-04-11T12:05:14.001Z</time></trkpt><trkpt lat="44.83640174182995" lon="11.635176576992986"><ele>7.0</ele><time>2026-04-11T12:05:16.001Z</time></trkpt><trkpt lat="44.836512369695086" lon="11.63516958428285"><ele>6.999999999999999</ele><time>2026-04-11T12:05:18.001Z</time></trkpt><trkpt lat="44.83662630695315" lon="11.635161661446558"><ele>6.999999999999999</ele><time>2026-04-11T12:05:20.001Z</time></trkpt><trkpt lat="44.8367224109783" lon="11.635149248402296"><ele>7.0</ele><time>2026-04-11T12:05:22.001Z</time></trkpt><trkpt lat="44.83681985682289" lon="11.63514483481974"><ele>7.0</ele><time>2026-04-11T12:05:24.001Z</time></trkpt><trkpt lat="44.8369127683291" lon="11.63513456486858"><ele>6.833333333333334</ele><time>2026-04-11T12:05:26.001Z</time></trkpt><trkpt lat="44.83700190024905" lon="11.635122878136345"><ele>6.666666666666667</ele><time>2026-04-11T12:05:28.001Z</time></trkpt><trkpt lat="44.83708454418941" lon="11.635127560745898"><ele>6.5</ele><time>2026-04-11T12:05:30.001Z</time></trkpt><trkpt lat="44.83715965702634" lon="11.635102929595886"><ele>6.333333333333334</ele><time>2026-04-11T12:05:32.001Z</time></trkpt><trkpt lat="44.8372336128228" lon="11.635101862218356"><ele>6.166666666666667</ele><time>2026-04-11T12:05:34.001Z</time></trkpt><trkpt lat="44.83730395893313" lon="11.635098374790102"><ele>6.0</ele><time>2026-04-11T12:05:36.001Z</time></trkpt><trkpt lat="44.8373739132936" lon="11.635091261360277"><ele>6.0</ele><time>2026-04-11T12:05:38.001Z</time></trkpt><trkpt lat="44.83744604972691" lon="11.635114160182463"><ele>6.0</ele><time>2026-04-11T12:05:40.001Z</time></trkpt><trkpt lat="44.83751135028654" lon="11.635151619913206"><ele>6.0</ele><time>2026-04-11T12:05:42.001Z</time></trkpt><trkpt lat="44.83759610422055" lon="11.635158578731266"><ele>6.0</ele><time>2026-04-11T12:05:44.001Z</time></trkpt><trkpt lat="44.83767969077768" lon="11.63514264035861"><ele>6.0</ele><time>2026-04-11T12:05:46.001Z</time></trkpt><trkpt lat="44.83774751699313" lon="11.635096035159089"><ele>6.0</ele><time>2026-04-11T12:05:48.001Z</time></trkpt><trkpt lat="44.83782236058778" lon="11.635076398853672"><ele>5.666666666666667</ele><time>2026-04-11T12:05:50.001Z</time></trkpt><trkpt lat="44.83790925204486" lon="11.635079872157732"><ele>5.333333333333333</ele><time>2026-04-11T12:05:52.001Z</time></trkpt><trkpt lat="44.837998224690224" lon="11.635069135017334"><ele>5.0</ele><time>2026-04-11T12:05:54.001Z</time></trkpt><trkpt lat="44.838085204315114" lon="11.635068276464658"><ele>4.666666666666666</ele><time>2026-04-11T12:05:56.001Z</time></trkpt><trkpt lat="44.838177982313155" lon="11.635063507278952"><ele>4.333333333333333</ele><time>2026-04-11T12:05:58.001Z</time></trkpt><trkpt lat="44.838264556205694" lon="11.63506013333526"><ele>4.0</ele><time>2026-04-11T12:06:00Z</time></trkpt><trkpt lat="44.83835363732438" lon="11.635050035710828"><ele>4.0</ele><time>2026-04-11T12:06:02Z</time></trkpt><trkpt lat="44.83844676728061" lon="11.63504425131937"><ele>4.0</ele><time>2026-04-11T12:06:04Z</time></trkpt><trkpt lat="44.83853716036198" lon="11.635040643649223"><ele>4.0</ele><time>2026-04-11T12:06:06Z</time></trkpt><trkpt lat="44.838626635014386" lon="11.635033748413267"><ele>4.0</ele><time>2026-04-11T12:06:08Z</time></trkpt><trkpt lat="44.838719043723756" lon="11.635026693346163"><ele>4.0</ele><time>2026-04-11T12:06:10Z</time></trkpt><trkpt lat="44.838810372318314" lon="11.635028732642184"><ele>4.5</ele><time>2026-04-11T12:06:12Z</time></trkpt><trkpt lat="44.83890238893279" lon="11.635021871597626"><ele>5.0</ele><time>2026-04-11T12:06:14Z</time></trkpt><trkpt lat="44.8389861327443" lon="11.635021050243912"><ele>5.5</ele><time>2026-04-11T12:06:16Z</time></trkpt><trkpt lat="44.83906692145488" lon="11.634985063532229"><ele>6.0</ele><time>2026-04-11T12:06:18Z</time></trkpt><trkpt lat="44.83913380066589" lon="11.634908527598805"><ele>6.500000000000001</ele><time>2026-04-11T12:06:20Z</time></trkpt><trkpt lat="44.83920403305509" lon="11.63485790638273"><ele>7.0</ele><time>2026-04-11T12:06:22Z</time></trkpt><trkpt lat="44.8392824489136" lon="11.634864066482633"><ele>6.857142857142857</ele><time>2026-04-11T12:06:24Z</time></trkpt><trkpt lat="44.8393527928715" lon="11.634860702406788"><ele>6.714285714285714</ele><time>2026-04-11T12:06:26Z</time></trkpt><trkpt lat="44.83942942056909" lon="11.634855508264078"><ele>6.571428571428571</ele><time>2026-04-11T12:06:28Z</time></trkpt><trkpt lat="44.83950323576385" lon="11.634848411273797"><ele>6.428571428571429</ele><time>2026-04-11T12:06:30Z</time></trkpt><trkpt lat="44.839575527640875" lon="11.634850103601432"><ele>6.285714285714286</ele><time>2026-04-11T12:06:32Z</time></trkpt><trkpt lat="44.83964292407161" lon="11.634845910175144"><ele>6.142857142857142</ele><time>2026-04-11T12:06:34Z</time></trkpt><trkpt lat="44.83972195558981" lon="11.634848560015088"><ele>6.0</ele><time>2026-04-11T12:06:36Z</time></trkpt><trkpt lat="44.83981768284281" lon="11.634835124917343"><ele>6.0</ele><time>2026-04-11T12:06:38Z</time></trkpt><trkpt lat="44.83990842981547" lon="11.634844046402538"><ele>6.0</ele><time>2026-04-11T12:06:40Z</time></trkpt><trkpt lat="44.83999128230967" lon="11.634831639007306"><ele>6.0</ele><time>2026-04-11T12:06:42Z</time></trkpt><trkpt lat="44.840068395990315" lon="11.634824965653058"><ele>6.0</ele><time>2026-04-11T12:06:44Z</time></trkpt><trkpt lat="44.84014754180316" lon="11.634823793595755"><ele>6.0</ele><time>2026-04-11T12:06:46Z</time></trkpt><trkpt lat="44.840212287020606" lon="11.63481608928573"><ele>6.0</ele><time>2026-04-11T12:06:48Z</time></trkpt><trkpt lat="44.84028228629878" lon="11.6348151271897"><ele>6.142857142857142</ele><time>2026-04-11T12:06:50Z</time></trkpt><trkpt lat="44.84035116764065" lon="11.63479459746874"><ele>6.285714285714286</ele><time>2026-04-11T12:06:52Z</time></trkpt><trkpt lat="44.84043208584825" lon="11.634772573820102"><ele>6.428571428571429</ele><time>2026-04-11T12:06:54Z</time></trkpt><trkpt lat="44.84050354025812" lon="11.634758809325781"><ele>6.571428571428571</ele><time>2026-04-11T12:06:56Z</time></trkpt><trkpt lat="44.84056859174552" lon="11.63476295482676"><ele>6.714285714285714</ele><time>2026-04-11T12:06:58Z</time></trkpt><trkpt lat="44.84063884646356" lon="11.63478171090756"><ele>6.857142857142857</ele><time>2026-04-11T12:07:01.001Z</time></trkpt><trkpt lat="44.84070095351906" lon="11.634735735112056"><ele>7.0</ele><time>2026-04-11T12:07:06.001Z</time></trkpt><trkpt lat="44.8407062370876" lon="11.63462542091884"><ele>7.000000000000001</ele><time>2026-04-11T12:07:09.001Z</time></trkpt><trkpt lat="44.84071799698078" lon="11.634520833898511"><ele>7.0</ele><time>2026-04-11T12:07:13.001Z</time></trkpt><trkpt lat="44.84068311842844" lon="11.634429659876572"><ele>7.0</ele><time>2026-04-11T12:07:18.001Z</time></trkpt><trkpt lat="44.84066966385884" lon="11.634330912003367"><ele>7.0</ele><time>2026-04-11T12:07:30.001Z</time></trkpt><trkpt lat="44.84067978599822" lon="11.634210608059266"><ele>7.000000000000001</ele><time>2026-04-11T12:07:33.001Z</time></trkpt><trkpt lat="44.84070674978115" lon="11.634080126780805"><ele>7.0</ele><time>2026-04-11T12:07:36.001Z</time></trkpt><trkpt lat="44.84074397025561" lon="11.634006249021683"><ele>7.166666666666667</ele><time>2026-04-11T12:07:38.001Z</time></trkpt><trkpt lat="44.840791514183486" lon="11.633940233869696"><ele>7.333333333333334</ele><time>2026-04-11T12:07:41.001Z</time></trkpt><trkpt lat="44.840857253921484" lon="11.633959785885297"><ele>7.5</ele><time>2026-04-11T12:07:44.001Z</time></trkpt><trkpt lat="44.84091301882174" lon="11.63401763198587"><ele>7.666666666666666</ele><time>2026-04-11T12:07:46.001Z</time></trkpt><trkpt lat="44.84100026823268" lon="11.634037087300118"><ele>7.833333333333333</ele><time>2026-04-11T12:07:48.001Z</time></trkpt><trkpt lat="44.841080842831616" lon="11.63402187646989"><ele>8.0</ele><time>2026-04-11T12:07:50.001Z</time></trkpt><trkpt lat="44.841167838752476" lon="11.634023295140487"><ele>7.999999999999999</ele><time>2026-04-11T12:07:52.001Z</time></trkpt><trkpt lat="44.84124931016663" lon="11.633990987697603"><ele>8.0</ele><time>2026-04-11T12:07:54.001Z</time></trkpt><trkpt lat="44.84132257464597" lon="11.633963467213354"><ele>8.0</ele><time>2026-04-11T12:07:56.001Z</time></trkpt><trkpt lat="44.841385378489406" lon="11.6339267906859"><ele>8.0</ele><time>2026-04-11T12:07:58.001Z</time></trkpt><trkpt lat="44.8414493661597" lon="11.633916518461803"><ele>7.999999999999999</ele><time>2026-04-11T12:08:00.001Z</time></trkpt><trkpt lat="44.841528578889175" lon="11.633895259465367"><ele>8.0</ele><time>2026-04-11T12:08:02.001Z</time></trkpt><trkpt lat="44.84160295668771" lon="11.633870944166627"><ele>8.0</ele><time>2026-04-11T12:08:04.001Z</time></trkpt><trkpt lat="44.84167468291198" lon="11.633847185044658"><ele>7.999999999999999</ele><time>2026-04-11T12:08:06Z</time></trkpt><trkpt lat="44.84173949822173" lon="11.633832489409905"><ele>8.0</ele><time>2026-04-11T12:08:08Z</time></trkpt><trkpt lat="44.84182546662712" lon="11.633800283295965"><ele>8.0</ele><time>2026-04-11T12:08:10Z</time></trkpt><trkpt lat="44.841900479378694" lon="11.633778927853914"><ele>7.999999999999999</ele><time>2026-04-11T12:08:12Z</time></trkpt><trkpt lat="44.84196336952265" lon="11.633742192716655"><ele>8.0</ele><time>2026-04-11T12:08:14Z</time></trkpt><trkpt lat="44.842027081085945" lon="11.633726763269364"><ele>8.0</ele><time>2026-04-11T12:08:16Z</time></trkpt><trkpt lat="44.84210364256832" lon="11.63367042243434"><ele>7.999999999999999</ele><time>2026-04-11T12:08:19Z</time></trkpt><trkpt lat="44.84218475026132" lon="11.633682410373082"><ele>8.0</ele><time>2026-04-11T12:08:22Z</time></trkpt><trkpt lat="44.84226942288896" lon="11.633656711061098"><ele>8.0</ele><time>2026-04-11T12:08:24Z</time></trkpt><trkpt lat="44.842332909333855" lon="11.633618476332103"><ele>8.0</ele><time>2026-04-11T12:08:26Z</time></trkpt><trkpt lat="44.842414151906" lon="11.633604249207565"><ele>7.999999999999999</ele><time>2026-04-11T12:08:28Z</time></trkpt><trkpt lat="44.84247796924238" lon="11.633596007420834"><ele>8.0</ele><time>2026-04-11T12:08:30Z</time></trkpt><trkpt lat="44.84255500501833" lon="11.633585013631563"><ele>8.200000000000001</ele><time>2026-04-11T12:08:32Z</time></trkpt><trkpt lat="44.84264167108405" lon="11.633564038799747"><ele>8.4</ele><time>2026-04-11T12:08:34Z</time></trkpt><trkpt lat="44.84273327297815" lon="11.633536565929635"><ele>8.600000000000001</ele><time>2026-04-11T12:08:36Z</time></trkpt><trkpt lat="44.84282904993991" lon="11.633518548784082"><ele>8.8</ele><time>2026-04-11T12:08:38Z</time></trkpt><trkpt lat="44.84292100925999" lon="11.633491648648764"><ele>9.0</ele><time>2026-04-11T12:08:40Z</time></trkpt><trkpt lat="44.843015648949354" lon="11.633469534306776"><ele>9.0</ele><time>2026-04-11T12:08:42Z</time></trkpt><trkpt lat="44.84310348325619" lon="11.633445318419662"><ele>9.0</ele><time>2026-04-11T12:08:44Z</time></trkpt><trkpt lat="44.84319312596074" lon="11.6334226955944"><ele>9.0</ele><time>2026-04-11T12:08:46Z</time></trkpt><trkpt lat="44.84328264216683" lon="11.633396979824447"><ele>9.0</ele><time>2026-04-11T12:08:48Z</time></trkpt><trkpt lat="44.8433558066036" lon="11.63337379587712"><ele>9.0</ele><time>2026-04-11T12:08:50Z</time></trkpt><trkpt lat="44.84342863779266" lon="11.633316976486416"><ele>9.0</ele><time>2026-04-11T12:08:52Z</time></trkpt><trkpt lat="44.84351886903695" lon="11.633295146214678"><ele>8.833333333333334</ele><time>2026-04-11T12:08:54Z</time></trkpt><trkpt lat="44.843609876363665" lon="11.633282430360609"><ele>8.666666666666666</ele><time>2026-04-11T12:08:56Z</time></trkpt><trkpt lat="44.84368743913556" lon="11.633269040638446"><ele>8.5</ele><time>2026-04-11T12:08:58Z</time></trkpt><trkpt lat="44.84376592616529" lon="11.633246702358203"><ele>8.333333333333332</ele><time>2026-04-11T12:09:00Z</time></trkpt><trkpt lat="44.84384458870507" lon="11.633219013310109"><ele>8.166666666666666</ele><time>2026-04-11T12:09:02Z</time></trkpt><trkpt lat="44.843931198876" lon="11.633194580241147"><ele>8.0</ele><time>2026-04-11T12:09:04Z</time></trkpt><trkpt lat="44.844006334787316" lon="11.633176478665437"><ele>7.999999999999999</ele><time>2026-04-11T12:09:06Z</time></trkpt><trkpt lat="44.84409421707363" lon="11.633149076090548"><ele>8.0</ele><time>2026-04-11T12:09:08.001Z</time></trkpt><trkpt lat="44.8441821696753" lon="11.63312737360891"><ele>8.0</ele><time>2026-04-11T12:09:10.001Z</time></trkpt><trkpt lat="44.844261057703434" lon="11.63309104178444"><ele>8.0</ele><time>2026-04-11T12:09:12.001Z</time></trkpt><trkpt lat="44.844351841746594" lon="11.63307718858677"><ele>7.999999999999999</ele><time>2026-04-11T12:09:14.001Z</time></trkpt><trkpt lat="44.84443244071413" lon="11.633040909078769"><ele>8.0</ele><time>2026-04-11T12:09:16.001Z</time></trkpt><trkpt lat="44.844517517468624" lon="11.633019026207998"><ele>8.0</ele><time>2026-04-11T12:09:18.001Z</time></trkpt><trkpt lat="44.84460501008057" lon="11.63299912402054"><ele>8.0</ele><time>2026-04-11T12:09:20.001Z</time></trkpt><trkpt lat="44.84469928109655" lon="11.632979746822235"><ele>8.0</ele><time>2026-04-11T12:09:22.001Z</time></trkpt><trkpt lat="44.844790425079815" lon="11.632948198142138"><ele>8.0</ele><time>2026-04-11T12:09:24.001Z</time></trkpt><trkpt lat="44.8448872562092" lon="11.632913958048034"><ele>8.0</ele><time>2026-04-11T12:09:26.001Z</time></trkpt><trkpt lat="44.84498098881037" lon="11.632888582772965"><ele>7.999999999999999</ele><time>2026-04-11T12:09:28.001Z</time></trkpt><trkpt lat="44.845081878289" lon="11.632863050859681"><ele>8.0</ele><time>2026-04-11T12:09:30.001Z</time></trkpt><trkpt lat="44.84517583806551" lon="11.632833975318293"><ele>8.0</ele><time>2026-04-11T12:09:32.001Z</time></trkpt><trkpt lat="44.845263922000534" lon="11.632810977243636"><ele>8.0</ele><time>2026-04-11T12:09:34.001Z</time></trkpt><trkpt lat="44.84534384029081" lon="11.632804591181564"><ele>7.999999999999999</ele><time>2026-04-11T12:09:36.001Z</time></trkpt><trkpt lat="44.8454125750834" lon="11.632747464749208"><ele>8.0</ele><time>2026-04-11T12:09:38.001Z</time></trkpt><trkpt lat="44.84548251241839" lon="11.632708727823536"><ele>7.999999999999999</ele><time>2026-04-11T12:09:40.001Z</time></trkpt><trkpt lat="44.8455561093087" lon="11.632691903350842"><ele>8.0</ele><time>2026-04-11T12:09:42.001Z</time></trkpt><trkpt lat="44.845639998445016" lon="11.63268578888162"><ele>8.0</ele><time>2026-04-11T12:09:45.001Z</time></trkpt><trkpt lat="44.84570931213745" lon="11.632652990937526"><ele>8.0</ele><time>2026-04-11T12:09:47.001Z</time></trkpt><trkpt lat="44.84578626605891" lon="11.632651153063682"><ele>7.999999999999999</ele><time>2026-04-11T12:09:49.001Z</time></trkpt><trkpt lat="44.845880503526054" lon="11.632644817839873"><ele>8.0</ele><time>2026-04-11T12:09:52.001Z</time></trkpt><trkpt lat="44.845942609205736" lon="11.632614645250579"><ele>8.166666666666666</ele><time>2026-04-11T12:09:54.001Z</time></trkpt><trkpt lat="44.84603074862588" lon="11.632589969900303"><ele>8.333333333333332</ele><time>2026-04-11T12:09:56.001Z</time></trkpt><trkpt lat="44.84612671043159" lon="11.632560218308326"><ele>8.5</ele><time>2026-04-11T12:09:58.001Z</time></trkpt><trkpt lat="44.846204422324774" lon="11.632543294591583"><ele>8.666666666666666</ele><time>2026-04-11T12:10:00.001Z</time></trkpt><trkpt lat="44.84627186506707" lon="11.632525069270887"><ele>8.833333333333334</ele><time>2026-04-11T12:10:02.001Z</time></trkpt><trkpt lat="44.84633507913167" lon="11.63248746909123"><ele>9.0</ele><time>2026-04-11T12:10:04.001Z</time></trkpt><trkpt lat="44.84642580167358" lon="11.632473642913741"><ele>9.0</ele><time>2026-04-11T12:10:06.001Z</time></trkpt><trkpt lat="44.84650694310086" lon="11.632463253609682"><ele>9.0</ele><time>2026-04-11T12:10:08.001Z</time></trkpt><trkpt lat="44.846578866196275" lon="11.632437596540365"><ele>9.0</ele><time>2026-04-11T12:10:10.001Z</time></trkpt><trkpt lat="44.84664703561114" lon="11.632413972556888"><ele>9.0</ele><time>2026-04-11T12:10:12Z</time></trkpt><trkpt lat="44.846723279994634" lon="11.63239261062756"><ele>9.0</ele><time>2026-04-11T12:10:14Z</time></trkpt><trkpt lat="44.84681300226902" lon="11.632371575756096"><ele>9.0</ele><time>2026-04-11T12:10:16Z</time></trkpt><trkpt lat="44.846903524261556" lon="11.632344933650392"><ele>8.666666666666666</ele><time>2026-04-11T12:10:18Z</time></trkpt><trkpt lat="44.84699414928065" lon="11.632321215696862"><ele>8.333333333333334</ele><time>2026-04-11T12:10:20Z</time></trkpt><trkpt lat="44.8470828519695" lon="11.632299698276407"><ele>8.0</ele><time>2026-04-11T12:10:22Z</time></trkpt><trkpt lat="44.84716627128314" lon="11.632292624099945"><ele>7.666666666666667</ele><time>2026-04-11T12:10:24Z</time></trkpt><trkpt lat="44.847250164359345" lon="11.632285990554545"><ele>7.333333333333334</ele><time>2026-04-11T12:10:26Z</time></trkpt><trkpt lat="44.84733530839025" lon="11.6322742872651"><ele>7.0</ele><time>2026-04-11T12:10:28Z</time></trkpt><trkpt lat="44.847410838453015" lon="11.63226299656652"><ele>7.000000000000001</ele><time>2026-04-11T12:10:30Z</time></trkpt><trkpt lat="44.84748782397525" lon="11.632249525491499"><ele>7.0</ele><time>2026-04-11T12:10:32Z</time></trkpt><trkpt lat="44.84756951077996" lon="11.632233919906204"><ele>7.0</ele><time>2026-04-11T12:10:34Z</time></trkpt><trkpt lat="44.847646910054316" lon="11.632225958310036"><ele>7.0</ele><time>2026-04-11T12:10:36Z</time></trkpt><trkpt lat="44.84771908441517" lon="11.632214835879726"><ele>7.000000000000001</ele><time>2026-04-11T12:10:38Z</time></trkpt><trkpt lat="44.84780050946108" lon="11.632197043954369"><ele>7.0</ele><time>2026-04-11T12:10:40Z</time></trkpt><trkpt lat="44.84787222888847" lon="11.632195067032708"><ele>7.142857142857142</ele><time>2026-04-11T12:10:42Z</time></trkpt><trkpt lat="44.84794637587465" lon="11.632204892025532"><ele>7.285714285714286</ele><time>2026-04-11T12:10:44Z</time></trkpt><trkpt lat="44.84801504275909" lon="11.632243588033047"><ele>7.428571428571429</ele><time>2026-04-11T12:10:47Z</time></trkpt><trkpt lat="44.848081493894604" lon="11.632249670734499"><ele>7.571428571428571</ele><time>2026-04-11T12:10:49Z</time></trkpt><trkpt lat="44.8481546333681" lon="11.632222435468892"><ele>7.7142857142857135</ele><time>2026-04-11T12:10:52Z</time></trkpt><trkpt lat="44.848238716954846" lon="11.63221907314922"><ele>7.857142857142857</ele><time>2026-04-11T12:10:55Z</time></trkpt><trkpt lat="44.848304127426665" lon="11.632226551861185"><ele>8.0</ele><time>2026-04-11T12:10:57Z</time></trkpt><trkpt lat="44.84838996004954" lon="11.632211559511815"><ele>7.285714285714286</ele><time>2026-04-11T12:11:00Z</time></trkpt><trkpt lat="44.84846037358739" lon="11.632202172205954"><ele>6.57142857142857</ele><time>2026-04-11T12:11:02Z</time></trkpt><trkpt lat="44.848526062380344" lon="11.632144643685917"><ele>5.857142857142857</ele><time>2026-04-11T12:11:04Z</time></trkpt><trkpt lat="44.84857059689505" lon="11.632075241759216"><ele>5.142857142857142</ele><time>2026-04-11T12:11:06Z</time></trkpt><trkpt lat="44.848600861369064" lon="11.631979430127378"><ele>4.428571428571429</ele><time>2026-04-11T12:11:08Z</time></trkpt><trkpt lat="44.848634819187836" lon="11.631892043763425"><ele>3.714285714285714</ele><time>2026-04-11T12:11:10Z</time></trkpt><trkpt lat="44.848633591538665" lon="11.631797495257066"><ele>3.0</ele><time>2026-04-11T12:11:12Z</time></trkpt><trkpt lat="44.848643983111195" lon="11.631698505062449"><ele>3.0</ele><time>2026-04-11T12:11:14Z</time></trkpt><trkpt lat="44.84863311878124" lon="11.631573761715718"><ele>3.0</ele><time>2026-04-11T12:11:16.001Z</time></trkpt><trkpt lat="44.84863266878407" lon="11.631461146477813"><ele>3.0</ele><time>2026-04-11T12:11:18.001Z</time></trkpt><trkpt lat="44.84863966945667" lon="11.631347652892046"><ele>3.0</ele><time>2026-04-11T12:11:20.001Z</time></trkpt><trkpt lat="44.84864434749966" lon="11.631241292120079"><ele>3.0</ele><time>2026-04-11T12:11:22.001Z</time></trkpt><trkpt lat="44.848649317551995" lon="11.631138501357965"><ele>3.0</ele><time>2026-04-11T12:11:24.001Z</time></trkpt><trkpt lat="44.848660546597" lon="11.631042928933992"><ele>3.4285714285714284</ele><time>2026-04-11T12:11:26.001Z</time></trkpt><trkpt lat="44.84865851277647" lon="11.630944741374151"><ele>3.8571428571428568</ele><time>2026-04-11T12:11:28.001Z</time></trkpt><trkpt lat="44.84866940688994" lon="11.630822553764778"><ele>4.285714285714286</ele><time>2026-04-11T12:11:30.001Z</time></trkpt><trkpt lat="44.84868190936755" lon="11.630719365671062"><ele>4.7142857142857135</ele><time>2026-04-11T12:11:32.001Z</time></trkpt><trkpt lat="44.848689494991454" lon="11.63062853441472"><ele>5.142857142857142</ele><time>2026-04-11T12:11:34.001Z</time></trkpt><trkpt lat="44.84869612478876" lon="11.63053522861976"><ele>5.571428571428571</ele><time>2026-04-11T12:11:36.001Z</time></trkpt><trkpt lat="44.84870419321649" lon="11.630432878111064"><ele>6.0</ele><time>2026-04-11T12:11:38.001Z</time></trkpt><trkpt lat="44.84872180958307" lon="11.630325630269557"><ele>6.0</ele><time>2026-04-11T12:11:40.001Z</time></trkpt><trkpt lat="44.848720915355635" lon="11.630204897460446"><ele>6.0</ele><time>2026-04-11T12:11:42.001Z</time></trkpt><trkpt lat="44.848729867101376" lon="11.630088578312726"><ele>6.0</ele><time>2026-04-11T12:11:44.001Z</time></trkpt><trkpt lat="44.84872852978717" lon="11.629990999737723"><ele>6.0</ele><time>2026-04-11T12:11:46.001Z</time></trkpt><trkpt lat="44.848733780405624" lon="11.629857066755797"><ele>6.0</ele><time>2026-04-11T12:11:49.001Z</time></trkpt><trkpt lat="44.848748294614005" lon="11.629740755693097"><ele>6.0</ele><time>2026-04-11T12:11:51.001Z</time></trkpt><trkpt lat="44.84876201643254" lon="11.629614198309136"><ele>6.0</ele><time>2026-04-11T12:11:53.001Z</time></trkpt><trkpt lat="44.84877898934532" lon="11.62948737897722"><ele>6.0</ele><time>2026-04-11T12:11:55.001Z</time></trkpt><trkpt lat="44.848786841227096" lon="11.629365819626775"><ele>6.0</ele><time>2026-04-11T12:11:57.001Z</time></trkpt><trkpt lat="44.84879693661141" lon="11.629241414255299"><ele>6.0</ele><time>2026-04-11T12:11:59.001Z</time></trkpt><trkpt lat="44.84880714057845" lon="11.629110289349718"><ele>6.0</ele><time>2026-04-11T12:12:01.001Z</time></trkpt><trkpt lat="44.848815547036544" lon="11.62899611122649"><ele>6.0</ele><time>2026-04-11T12:12:03.001Z</time></trkpt><trkpt lat="44.848827593612434" lon="11.628884575294359"><ele>6.5</ele><time>2026-04-11T12:12:05.001Z</time></trkpt><trkpt lat="44.84884331632304" lon="11.628782682510375"><ele>7.0</ele><time>2026-04-11T12:12:07.001Z</time></trkpt><trkpt lat="44.84884438680565" lon="11.628684818468262"><ele>7.5</ele><time>2026-04-11T12:12:09.001Z</time></trkpt><trkpt lat="44.84885199619839" lon="11.628554025391981"><ele>8.0</ele><time>2026-04-11T12:12:11.001Z</time></trkpt><trkpt lat="44.848859446613616" lon="11.628435723336407"><ele>8.5</ele><time>2026-04-11T12:12:13.001Z</time></trkpt><trkpt lat="44.84886669694617" lon="11.62832506936689"><ele>9.0</ele><time>2026-04-11T12:12:15.001Z</time></trkpt><trkpt lat="44.848884517574795" lon="11.628219436541983"><ele>9.0</ele><time>2026-04-11T12:12:17.001Z</time></trkpt><trkpt lat="44.848898322511076" lon="11.628105608207038"><ele>9.0</ele><time>2026-04-11T12:12:19.001Z</time></trkpt><trkpt lat="44.84890708833417" lon="11.627991203370847"><ele>9.0</ele><time>2026-04-11T12:12:21.001Z</time></trkpt><trkpt lat="44.84891233538249" lon="11.627894188718473"><ele>9.0</ele><time>2026-04-11T12:12:23.001Z</time></trkpt><trkpt lat="44.848924780887266" lon="11.627786005018725"><ele>9.0</ele><time>2026-04-11T12:12:25.001Z</time></trkpt><trkpt lat="44.84891830418321" lon="11.627662451056722"><ele>9.0</ele><time>2026-04-11T12:12:27Z</time></trkpt><trkpt lat="44.84893039426157" lon="11.627542175902345"><ele>9.0</ele><time>2026-04-11T12:12:29Z</time></trkpt><trkpt lat="44.84892865960331" lon="11.627417647055937"><ele>9.0</ele><time>2026-04-11T12:12:31Z</time></trkpt><trkpt lat="44.84895122335762" lon="11.627301983684053"><ele>9.0</ele><time>2026-04-11T12:12:33Z</time></trkpt><trkpt lat="44.848963612562315" lon="11.627159344012952"><ele>9.0</ele><time>2026-04-11T12:12:35Z</time></trkpt><trkpt lat="44.84897643669481" lon="11.627030734119547"><ele>9.0</ele><time>2026-04-11T12:12:37Z</time></trkpt><trkpt lat="44.84899039406924" lon="11.62689259223308"><ele>9.0</ele><time>2026-04-11T12:12:39Z</time></trkpt><trkpt lat="44.849002373324986" lon="11.62677530646414"><ele>9.0</ele><time>2026-04-11T12:12:41Z</time></trkpt><trkpt lat="44.849016473913736" lon="11.626651943300171"><ele>9.0</ele><time>2026-04-11T12:12:43Z</time></trkpt><trkpt lat="44.84902083126227" lon="11.626544236989476"><ele>9.0</ele><time>2026-04-11T12:12:45Z</time></trkpt><trkpt lat="44.84899926120819" lon="11.626456375025654"><ele>9.0</ele><time>2026-04-11T12:12:48Z</time></trkpt><trkpt lat="44.8489851376003" lon="11.626548019587169"><ele>9.0</ele><time>2026-04-11T12:12:51Z</time></trkpt><trkpt lat="44.84901491493923" lon="11.626641180038206"><ele>9.000000000000002</ele><time>2026-04-11T12:12:53Z</time></trkpt><trkpt lat="44.84908630597365" lon="11.626645051127637"><ele>9.0</ele><time>2026-04-11T12:12:58Z</time></trkpt><trkpt lat="44.84916436190189" lon="11.626673861902276"><ele>9.0</ele><time>2026-04-11T12:13:01Z</time></trkpt><trkpt lat="44.84923107990225" lon="11.626691927928604"><ele>9.0</ele><time>2026-04-11T12:13:05Z</time></trkpt><trkpt lat="44.84916736703652" lon="11.626672600931144"><ele>9.0</ele><time>2026-04-11T12:18:22Z</time></trkpt><trkpt lat="44.84909965660842" lon="11.626665741802718"><ele>9.000000000000002</ele><time>2026-04-11T12:18:31.001Z</time></trkpt><trkpt lat="44.84903511846732" lon="11.626676366411617"><ele>9.0</ele><time>2026-04-11T12:18:41.999Z</time></trkpt><trkpt lat="44.84901214733776" lon="11.626585252622064"><ele>9.0</ele><time>2026-04-11T12:18:54.999Z</time></trkpt><trkpt lat="44.84901151063568" lon="11.626492110316818"><ele>9.0</ele><time>2026-04-11T12:19:10Z</time></trkpt><trkpt lat="44.849014469100766" lon="11.626382534897422"><ele>9.0</ele><time>2026-04-11T12:19:13Z</time></trkpt><trkpt lat="44.84902908929937" lon="11.626293765709994"><ele>9.0</ele><time>2026-04-11T12:19:15Z</time></trkpt><trkpt lat="44.84904911338631" lon="11.626184194857498"><ele>9.0</ele><time>2026-04-11T12:19:17Z</time></trkpt><trkpt lat="44.849066967394606" lon="11.626074055746699"><ele>9.0</ele><time>2026-04-11T12:19:19Z</time></trkpt><trkpt lat="44.84907277058582" lon="11.6259549792809"><ele>9.0</ele><time>2026-04-11T12:19:21Z</time></trkpt><trkpt lat="44.84908106356873" lon="11.62584508189491"><ele>9.0</ele><time>2026-04-11T12:19:23Z</time></trkpt><trkpt lat="44.84909299794485" lon="11.625735749495792"><ele>9.0</ele><time>2026-04-11T12:19:25Z</time></trkpt><trkpt lat="44.849099041547184" lon="11.62561062327978"><ele>9.0</ele><time>2026-04-11T12:19:27Z</time></trkpt><trkpt lat="44.849102970936435" lon="11.625466849340055"><ele>9.0</ele><time>2026-04-11T12:19:29Z</time></trkpt><trkpt lat="44.84911932536142" lon="11.625321082549416"><ele>9.0</ele><time>2026-04-11T12:19:31Z</time></trkpt><trkpt lat="44.849133585788124" lon="11.625172817070725"><ele>9.0</ele><time>2026-04-11T12:19:33Z</time></trkpt><trkpt lat="44.849145234839355" lon="11.625026368840953"><ele>9.0</ele><time>2026-04-11T12:19:35Z</time></trkpt><trkpt lat="44.849145445492766" lon="11.624856346974774"><ele>9.0</ele><time>2026-04-11T12:19:37Z</time></trkpt><trkpt lat="44.84915957102942" lon="11.624680476686121"><ele>9.0</ele><time>2026-04-11T12:19:39Z</time></trkpt><trkpt lat="44.849021969270765" lon="11.62458096677348"><ele>9.0</ele><time>2026-04-11T12:19:40Z</time></trkpt><trkpt lat="44.84903374684298" lon="11.624407231386316"><ele>9.0</ele><time>2026-04-11T12:19:42Z</time></trkpt><trkpt lat="44.849098206416286" lon="11.624227426853098"><ele>9.0</ele><time>2026-04-11T12:19:44Z</time></trkpt><trkpt lat="44.849118319731346" lon="11.624096690344983"><ele>9.0</ele><time>2026-04-11T12:19:46Z</time></trkpt><trkpt lat="44.84912056185279" lon="11.623957496088083"><ele>9.0</ele><time>2026-04-11T12:19:49Z</time></trkpt><trkpt lat="44.849128473756934" lon="11.623848256276585"><ele>9.0</ele><time>2026-04-11T12:19:51Z</time></trkpt><trkpt lat="44.84913604219515" lon="11.623750888551124"><ele>9.0</ele><time>2026-04-11T12:19:53Z</time></trkpt><trkpt lat="44.84914682345472" lon="11.623614562364313"><ele>9.0</ele><time>2026-04-11T12:19:56Z</time></trkpt><trkpt lat="44.84915477620934" lon="11.623511598071916"><ele>9.0</ele><time>2026-04-11T12:19:58Z</time></trkpt><trkpt lat="44.84916475129744" lon="11.623373873059824"><ele>9.0</ele><time>2026-04-11T12:20:01Z</time></trkpt><trkpt lat="44.84917308867118" lon="11.623258759789431"><ele>9.0</ele><time>2026-04-11T12:20:03Z</time></trkpt><trkpt lat="44.84918140409257" lon="11.623143949651285"><ele>9.0</ele><time>2026-04-11T12:20:05Z</time></trkpt><trkpt lat="44.84918869868006" lon="11.623043234054458"><ele>9.0</ele><time>2026-04-11T12:20:07Z</time></trkpt><trkpt lat="44.849196263948095" lon="11.622938781205157"><ele>9.0</ele><time>2026-04-11T12:20:09Z</time></trkpt><trkpt lat="44.849204687185605" lon="11.62282248243186"><ele>9.0</ele><time>2026-04-11T12:20:11Z</time></trkpt><trkpt lat="44.84921236493697" lon="11.622716476523834"><ele>9.166666666666666</ele><time>2026-04-11T12:20:13Z</time></trkpt><trkpt lat="44.849219753251255" lon="11.622612091308719"><ele>9.333333333333334</ele><time>2026-04-11T12:20:15Z</time></trkpt><trkpt lat="44.8492276194953" lon="11.622501412682317"><ele>9.5</ele><time>2026-04-11T12:20:17.001Z</time></trkpt><trkpt lat="44.849236422187204" lon="11.622377558283292"><ele>9.666666666666668</ele><time>2026-04-11T12:20:19.001Z</time></trkpt><trkpt lat="44.8492453630538" lon="11.622251759623333"><ele>9.833333333333334</ele><time>2026-04-11T12:20:21.001Z</time></trkpt><trkpt lat="44.849253753341976" lon="11.622133707688523"><ele>10.0</ele><time>2026-04-11T12:20:23.001Z</time></trkpt><trkpt lat="44.8492609247897" lon="11.622032804928217"><ele>10.0</ele><time>2026-04-11T12:20:25.001Z</time></trkpt><trkpt lat="44.849268076526215" lon="11.62193217947818"><ele>10.0</ele><time>2026-04-11T12:20:27.001Z</time></trkpt><trkpt lat="44.84927620013014" lon="11.621817879800593"><ele>10.0</ele><time>2026-04-11T12:20:29.001Z</time></trkpt><trkpt lat="44.84928551687024" lon="11.621686792576913"><ele>10.0</ele><time>2026-04-11T12:20:31.001Z</time></trkpt><trkpt lat="44.849293941496434" lon="11.621568257466652"><ele>10.0</ele><time>2026-04-11T12:20:33.001Z</time></trkpt><trkpt lat="44.849301378240256" lon="11.621463621951671"><ele>10.0</ele><time>2026-04-11T12:20:35.001Z</time></trkpt><trkpt lat="44.84930881406086" lon="11.621358999411047"><ele>9.333333333333334</ele><time>2026-04-11T12:20:37.001Z</time></trkpt><trkpt lat="44.849317288352744" lon="11.621242157292036"><ele>8.666666666666668</ele><time>2026-04-11T12:20:39.001Z</time></trkpt><trkpt lat="44.849326266205125" lon="11.62111906091814"><ele>8.0</ele><time>2026-04-11T12:20:41Z</time></trkpt><trkpt lat="44.84933523854706" lon="11.620989978760818"><ele>7.333333333333334</ele><time>2026-04-11T12:20:43Z</time></trkpt><trkpt lat="44.84934343803658" lon="11.620870031952922"><ele>6.666666666666667</ele><time>2026-04-11T12:20:45Z</time></trkpt><trkpt lat="44.849351264501365" lon="11.620752956715906"><ele>6.0</ele><time>2026-04-11T12:20:47Z</time></trkpt><trkpt lat="44.84935927046355" lon="11.620622965169108"><ele>6.0</ele><time>2026-04-11T12:20:49Z</time></trkpt><trkpt lat="44.84936604111733" lon="11.620497041715593"><ele>6.0</ele><time>2026-04-11T12:20:51Z</time></trkpt><trkpt lat="44.849372702524484" lon="11.62038149381794"><ele>6.0</ele><time>2026-04-11T12:20:53Z</time></trkpt><trkpt lat="44.84937950752235" lon="11.620263455272237"><ele>6.0</ele><time>2026-04-11T12:20:55Z</time></trkpt><trkpt lat="44.84938588363167" lon="11.620151533912017"><ele>6.0</ele><time>2026-04-11T12:20:57Z</time></trkpt><trkpt lat="44.84939190114041" lon="11.620046121117468"><ele>6.0</ele><time>2026-04-11T12:20:59Z</time></trkpt><trkpt lat="44.84940025005506" lon="11.61995001145956"><ele>6.0</ele><time>2026-04-11T12:21:01Z</time></trkpt><trkpt lat="44.849414810813386" lon="11.619823028240686"><ele>6.0</ele><time>2026-04-11T12:21:03Z</time></trkpt><trkpt lat="44.849427258212145" lon="11.619718305501207"><ele>6.0</ele><time>2026-04-11T12:21:05Z</time></trkpt><trkpt lat="44.84943530727021" lon="11.6196064861842"><ele>6.0</ele><time>2026-04-11T12:21:07Z</time></trkpt><trkpt lat="44.849444900865684" lon="11.619476725584448"><ele>6.0</ele><time>2026-04-11T12:21:09Z</time></trkpt><trkpt lat="44.849454328234515" lon="11.619349213340437"><ele>6.0</ele><time>2026-04-11T12:21:11Z</time></trkpt><trkpt lat="44.849463818373636" lon="11.619220852057213"><ele>6.333333333333333</ele><time>2026-04-11T12:21:13Z</time></trkpt><trkpt lat="44.84947294004477" lon="11.619097474660226"><ele>6.666666666666666</ele><time>2026-04-11T12:21:15Z</time></trkpt><trkpt lat="44.8494820835853" lon="11.618976034703417"><ele>7.0</ele><time>2026-04-11T12:21:17Z</time></trkpt><trkpt lat="44.84949067277655" lon="11.618862021888985"><ele>7.333333333333333</ele><time>2026-04-11T12:21:19Z</time></trkpt><trkpt lat="44.84949895422517" lon="11.618752093991693"><ele>7.666666666666666</ele><time>2026-04-11T12:21:21Z</time></trkpt><trkpt lat="44.84950778840139" lon="11.618634829260992"><ele>8.0</ele><time>2026-04-11T12:21:23Z</time></trkpt><trkpt lat="44.849517282119166" lon="11.6185088097062"><ele>8.333333333333332</ele><time>2026-04-11T12:21:25Z</time></trkpt><trkpt lat="44.849526210364665" lon="11.618390296281454"><ele>8.666666666666666</ele><time>2026-04-11T12:21:27Z</time></trkpt><trkpt lat="44.84953598692842" lon="11.618260522293324"><ele>9.0</ele><time>2026-04-11T12:21:29Z</time></trkpt><trkpt lat="44.84954536596807" lon="11.61813602500577"><ele>9.333333333333334</ele><time>2026-04-11T12:21:31Z</time></trkpt><trkpt lat="44.84955441571872" lon="11.618015898742536"><ele>9.666666666666668</ele><time>2026-04-11T12:21:33Z</time></trkpt><trkpt lat="44.849563840812095" lon="11.617890790121674"><ele>10.0</ele><time>2026-04-11T12:21:35Z</time></trkpt><trkpt lat="44.84957284601511" lon="11.617766002246514"><ele>10.0</ele><time>2026-04-11T12:21:37Z</time></trkpt><trkpt lat="44.849582391377595" lon="11.617635478696501"><ele>10.0</ele><time>2026-04-11T12:21:39Z</time></trkpt><trkpt lat="44.84959142301804" lon="11.617511979790793"><ele>10.0</ele><time>2026-04-11T12:21:41.001Z</time></trkpt><trkpt lat="44.849600837164026" lon="11.61738325055732"><ele>10.0</ele><time>2026-04-11T12:21:43.001Z</time></trkpt><trkpt lat="44.84960998956199" lon="11.617258100415196"><ele>10.0</ele><time>2026-04-11T12:21:45.001Z</time></trkpt><trkpt lat="44.84961883255664" lon="11.617137181095272"><ele>10.0</ele><time>2026-04-11T12:21:47.001Z</time></trkpt><trkpt lat="44.84962661968061" lon="11.617030699802518"><ele>10.0</ele><time>2026-04-11T12:21:49.001Z</time></trkpt><trkpt lat="44.84963437985674" lon="11.616924586916376"><ele>10.0</ele><time>2026-04-11T12:21:51.001Z</time></trkpt><trkpt lat="44.84964221284901" lon="11.616817478286356"><ele>10.0</ele><time>2026-04-11T12:21:53.001Z</time></trkpt><trkpt lat="44.84964905146215" lon="11.616717416907164"><ele>10.0</ele><time>2026-04-11T12:21:55.001Z</time></trkpt><trkpt lat="44.849655568177965" lon="11.616624843810856"><ele>10.0</ele><time>2026-04-11T12:21:57.001Z</time></trkpt><trkpt lat="44.849661055689985" lon="11.616532233985817"><ele>10.0</ele><time>2026-04-11T12:21:59.001Z</time></trkpt><trkpt lat="44.84966169465728" lon="11.616440463222057"><ele>10.0</ele><time>2026-04-11T12:22:01.001Z</time></trkpt><trkpt lat="44.84965062357479" lon="11.616330019968075"><ele>10.0</ele><time>2026-04-11T12:22:04.001Z</time></trkpt><trkpt lat="44.8496018095165" lon="11.616231090271034"><ele>10.0</ele><time>2026-04-11T12:22:09.001Z</time></trkpt><trkpt lat="44.84948983164579" lon="11.616088398486191"><ele>10.0</ele><time>2026-04-11T12:22:20.001Z</time></trkpt><trkpt lat="44.84943520105123" lon="11.61604163289894"><ele>10.0</ele><time>2026-04-11T12:22:27.001Z</time></trkpt><trkpt lat="44.84938348085367" lon="11.615985591444064"><ele>10.0</ele><time>2026-04-11T12:22:29.001Z</time></trkpt><trkpt lat="44.8493180221453" lon="11.615958271412191"><ele>10.0</ele><time>2026-04-11T12:22:31.001Z</time></trkpt><trkpt lat="44.84925800362321" lon="11.615865681606746"><ele>9.833333333333334</ele><time>2026-04-11T12:22:34.001Z</time></trkpt><trkpt lat="44.84916125778014" lon="11.616005102029785"><ele>9.666666666666668</ele><time>2026-04-11T12:22:36.001Z</time></trkpt><trkpt lat="44.84917019620705" lon="11.616095557520294"><ele>9.5</ele><time>2026-04-11T12:22:40.001Z</time></trkpt><trkpt lat="44.84916751898535" lon="11.616207013203027"><ele>9.333333333333334</ele><time>2026-04-11T12:22:42.001Z</time></trkpt><trkpt lat="44.84910342660567" lon="11.616296179955585"><ele>9.166666666666666</ele><time>2026-04-11T12:22:45.001Z</time></trkpt><trkpt lat="44.849103338675334" lon="11.616385016271735"><ele>9.0</ele><time>2026-04-11T12:22:47.001Z</time></trkpt><trkpt lat="44.849098798127024" lon="11.616505124595102"><ele>9.0</ele><time>2026-04-11T12:22:49.001Z</time></trkpt><trkpt lat="44.8491205342475" lon="11.616590891823062"><ele>9.0</ele><time>2026-04-11T12:22:51.001Z</time></trkpt><trkpt lat="44.849181754866414" lon="11.6166280074167"><ele>9.0</ele><time>2026-04-11T12:22:53.001Z</time></trkpt><trkpt lat="44.84919423413047" lon="11.616853282499362"><ele>9.0</ele><time>2026-04-11T12:22:54.001Z</time></trkpt><trkpt lat="44.84925688968144" lon="11.616862839623701"><ele>9.0</ele><time>2026-04-11T12:22:56.001Z</time></trkpt><trkpt lat="44.84932634895525" lon="11.616872729569785"><ele>9.0</ele><time>2026-04-11T12:22:58.001Z</time></trkpt><trkpt lat="44.84938608929089" lon="11.616722325422625"><ele>9.166666666666666</ele><time>2026-04-11T12:23:43.001Z</time></trkpt><trkpt lat="44.84934376490062" lon="11.616654719689405"><ele>9.333333333333334</ele><time>2026-04-11T13:09:45Z</time></trkpt><trkpt lat="44.84939901387176" lon="11.616697681727299"><ele>9.5</ele><time>2026-04-11T13:22:39Z</time></trkpt><trkpt lat="44.849387667470445" lon="11.616792748689516"><ele>9.666666666666668</ele><time>2026-04-11T13:25:48Z</time></trkpt><trkpt lat="44.84952250841975" lon="11.616837354508094"><ele>9.833333333333334</ele><time>2026-04-11T13:26:07Z</time></trkpt><trkpt lat="44.84953118217089" lon="11.616738471449997"><ele>10.0</ele><time>2026-04-11T13:26:10Z</time></trkpt><trkpt lat="44.84953287884404" lon="11.616628798026865"><ele>10.0</ele><time>2026-04-11T13:26:14Z</time></trkpt><trkpt lat="44.849533569503066" lon="11.616510782572394"><ele>10.0</ele><time>2026-04-11T13:26:18Z</time></trkpt><trkpt lat="44.84952729018015" lon="11.616401364252631"><ele>10.0</ele><time>2026-04-11T13:26:21Z</time></trkpt><trkpt lat="44.84949569451503" lon="11.616323857175459"><ele>10.0</ele><time>2026-04-11T13:26:24Z</time></trkpt><trkpt lat="44.849456229269656" lon="11.616251462005316"><ele>10.0</ele><time>2026-04-11T13:26:27Z</time></trkpt><trkpt lat="44.84938124422074" lon="11.616198367423255"><ele>10.0</ele><time>2026-04-11T13:26:31Z</time></trkpt><trkpt lat="44.84933091043156" lon="11.616132744123377"><ele>10.0</ele><time>2026-04-11T13:26:34Z</time></trkpt><trkpt lat="44.84926893144245" lon="11.616053796652675"><ele>9.714285714285714</ele><time>2026-04-11T13:26:38Z</time></trkpt><trkpt lat="44.84920755456651" lon="11.615992620843176"><ele>9.428571428571429</ele><time>2026-04-11T13:26:41Z</time></trkpt><trkpt lat="44.84925877015659" lon="11.615921307796919"><ele>9.142857142857142</ele><time>2026-04-11T13:26:45Z</time></trkpt><trkpt lat="44.84932301753014" lon="11.615955723148264"><ele>8.857142857142858</ele><time>2026-04-11T13:26:48Z</time></trkpt><trkpt lat="44.849387969714286" lon="11.615949835976828"><ele>8.571428571428571</ele><time>2026-04-11T13:26:57Z</time></trkpt><trkpt lat="44.84945078963679" lon="11.615985996455358"><ele>8.285714285714285</ele><time>2026-04-11T13:27:06Z</time></trkpt><trkpt lat="44.84951444555124" lon="11.615993659075375"><ele>8.0</ele><time>2026-04-11T13:27:16Z</time></trkpt><trkpt lat="44.84950899046004" lon="11.615904606697399"><ele>7.999999999999999</ele><time>2026-04-11T13:27:38Z</time></trkpt><trkpt lat="44.849461487993885" lon="11.615823825795106"><ele>8.0</ele><time>2026-04-11T13:27:41Z</time></trkpt><trkpt lat="44.84942069109002" lon="11.61575082674261"><ele>8.0</ele><time>2026-04-11T13:27:43Z</time></trkpt><trkpt lat="44.84936469122025" lon="11.615694657419176"><ele>8.0</ele><time>2026-04-11T13:27:45Z</time></trkpt><trkpt lat="44.849301814146415" lon="11.61560987993949"><ele>7.999999999999999</ele><time>2026-04-11T13:27:48Z</time></trkpt><trkpt lat="44.849231835432334" lon="11.615553003573769"><ele>8.0</ele><time>2026-04-11T13:27:51Z</time></trkpt><trkpt lat="44.849162139560015" lon="11.615464762635845"><ele>7.999999999999999</ele><time>2026-04-11T13:27:54Z</time></trkpt><trkpt lat="44.84910272307759" lon="11.61538358974225"><ele>8.0</ele><time>2026-04-11T13:27:56Z</time></trkpt><trkpt lat="44.8490461488633" lon="11.61531791729202"><ele>8.0</ele><time>2026-04-11T13:27:58Z</time></trkpt><trkpt lat="44.84899446685003" lon="11.615251351176369"><ele>8.0</ele><time>2026-04-11T13:28:00Z</time></trkpt><trkpt lat="44.84893328671196" lon="11.615175774328614"><ele>7.999999999999999</ele><time>2026-04-11T13:28:02Z</time></trkpt><trkpt lat="44.848864850140075" lon="11.615109971783328"><ele>8.0</ele><time>2026-04-11T13:28:04Z</time></trkpt><trkpt lat="44.84880970876515" lon="11.615038073685632"><ele>8.166666666666666</ele><time>2026-04-11T13:28:06Z</time></trkpt><trkpt lat="44.848757453325966" lon="11.614966375994406"><ele>8.333333333333332</ele><time>2026-04-11T13:28:08Z</time></trkpt><trkpt lat="44.84868957815002" lon="11.614889638893196"><ele>8.5</ele><time>2026-04-11T13:28:10Z</time></trkpt><trkpt lat="44.848625640031315" lon="11.614803546376507"><ele>8.666666666666666</ele><time>2026-04-11T13:28:12Z</time></trkpt><trkpt lat="44.84856844447101" lon="11.614739644752694"><ele>8.833333333333334</ele><time>2026-04-11T13:28:14Z</time></trkpt><trkpt lat="44.8485153179524" lon="11.614687577231194"><ele>9.0</ele><time>2026-04-11T13:28:16Z</time></trkpt><trkpt lat="44.84844868350077" lon="11.614623032577175"><ele>9.0</ele><time>2026-04-11T13:28:19Z</time></trkpt><trkpt lat="44.84840115678503" lon="11.614525616190647"><ele>9.0</ele><time>2026-04-11T13:28:23Z</time></trkpt><trkpt lat="44.84836139659822" lon="11.6144438937502"><ele>9.0</ele><time>2026-04-11T13:28:25Z</time></trkpt><trkpt lat="44.848298993265686" lon="11.614366056181789"><ele>9.0</ele><time>2026-04-11T13:28:28Z</time></trkpt><trkpt lat="44.84827818870541" lon="11.614274385034383"><ele>9.0</ele><time>2026-04-11T13:28:31Z</time></trkpt><trkpt lat="44.84822493645211" lon="11.614192697775145"><ele>9.0</ele><time>2026-04-11T13:28:35Z</time></trkpt><trkpt lat="44.84816885735281" lon="11.61412098250439"><ele>8.6</ele><time>2026-04-11T13:28:39Z</time></trkpt><trkpt lat="44.848088189542075" lon="11.614128673452917"><ele>8.2</ele><time>2026-04-11T13:28:43Z</time></trkpt><trkpt lat="44.848015107795746" lon="11.614083850063851"><ele>7.799999999999999</ele><time>2026-04-11T13:28:46Z</time></trkpt><trkpt lat="44.84795629832615" lon="11.613999873426668"><ele>7.3999999999999995</ele><time>2026-04-11T13:28:49Z</time></trkpt><trkpt lat="44.84783540218311" lon="11.61388248483633"><ele>7.0</ele><time>2026-04-11T13:29:26Z</time></trkpt><trkpt lat="44.847780596292324" lon="11.6138011207784"><ele>7.000000000000001</ele><time>2026-04-11T13:29:28Z</time></trkpt><trkpt lat="44.847707777744745" lon="11.613713605946757"><ele>7.0</ele><time>2026-04-11T13:29:31Z</time></trkpt><trkpt lat="44.847643368049326" lon="11.613633997636194"><ele>7.0</ele><time>2026-04-11T13:29:34Z</time></trkpt><trkpt lat="44.8475878367103" lon="11.613555064368141"><ele>7.0</ele><time>2026-04-11T13:29:36.999Z</time></trkpt><trkpt lat="44.84752004184756" lon="11.613477982725573"><ele>7.000000000000001</ele><time>2026-04-11T13:29:38.999Z</time></trkpt><trkpt lat="44.847462432088044" lon="11.613397142205956"><ele>7.0</ele><time>2026-04-11T13:29:40.999Z</time></trkpt><trkpt lat="44.84739940587674" lon="11.61332594088134"><ele>7.500000000000001</ele><time>2026-04-11T13:29:42.999Z</time></trkpt><trkpt lat="44.8473508177807" lon="11.613264199539044"><ele>8.0</ele><time>2026-04-11T13:29:44.999Z</time></trkpt><trkpt lat="44.84730202836225" lon="11.613204562423283"><ele>8.5</ele><time>2026-04-11T13:29:46.999Z</time></trkpt><trkpt lat="44.84723396218203" lon="11.613130130603986"><ele>9.0</ele><time>2026-04-11T13:29:49.999Z</time></trkpt><trkpt lat="44.84716694765125" lon="11.613052933651566"><ele>9.5</ele><time>2026-04-11T13:29:52.999Z</time></trkpt><trkpt lat="44.84710866751865" lon="11.61296607479797"><ele>10.0</ele><time>2026-04-11T13:29:54.999Z</time></trkpt><trkpt lat="44.847036017511705" lon="11.612879582845757"><ele>9.666666666666668</ele><time>2026-04-11T13:29:56.999Z</time></trkpt><trkpt lat="44.84697029215479" lon="11.612808803076197"><ele>9.333333333333334</ele><time>2026-04-11T13:29:58.999Z</time></trkpt><trkpt lat="44.84691666645619" lon="11.612727562087674"><ele>9.0</ele><time>2026-04-11T13:30:00.999Z</time></trkpt><trkpt lat="44.8468621016275" lon="11.612660119983847"><ele>8.666666666666666</ele><time>2026-04-11T13:30:02.999Z</time></trkpt><trkpt lat="44.84679544741233" lon="11.612591760751805"><ele>8.333333333333332</ele><time>2026-04-11T13:30:05Z</time></trkpt><trkpt lat="44.84673895095693" lon="11.612525578940913"><ele>8.0</ele><time>2026-04-11T13:30:07Z</time></trkpt><trkpt lat="44.846698664102156" lon="11.612444475375263"><ele>8.0</ele><time>2026-04-11T13:30:09Z</time></trkpt><trkpt lat="44.846646223694194" lon="11.61239010345366"><ele>7.999999999999999</ele><time>2026-04-11T13:30:11Z</time></trkpt><trkpt lat="44.8466005164156" lon="11.612326759130447"><ele>8.0</ele><time>2026-04-11T13:30:13Z</time></trkpt><trkpt lat="44.84653804078961" lon="11.612250610680118"><ele>8.0</ele><time>2026-04-11T13:30:15Z</time></trkpt><trkpt lat="44.846473376439256" lon="11.612176985001177"><ele>7.999999999999999</ele><time>2026-04-11T13:30:17Z</time></trkpt><trkpt lat="44.84640927762711" lon="11.612118030570578"><ele>8.0</ele><time>2026-04-11T13:30:20Z</time></trkpt><trkpt lat="44.84636089011145" lon="11.612037423332094"><ele>8.0</ele><time>2026-04-11T13:30:23Z</time></trkpt><trkpt lat="44.84631170306055" lon="11.611947643547092"><ele>7.833333333333333</ele><time>2026-04-11T13:30:25Z</time></trkpt><trkpt lat="44.84623940954572" lon="11.611880227708735"><ele>7.666666666666666</ele><time>2026-04-11T13:30:27Z</time></trkpt><trkpt lat="44.84618387880867" lon="11.611803366055925"><ele>7.5</ele><time>2026-04-11T13:30:29Z</time></trkpt><trkpt lat="44.84611776820948" lon="11.611729162937756"><ele>7.333333333333334</ele><time>2026-04-11T13:30:31Z</time></trkpt><trkpt lat="44.84605456091511" lon="11.611647164757382"><ele>7.166666666666667</ele><time>2026-04-11T13:30:33Z</time></trkpt><trkpt lat="44.84598516402893" lon="11.611561310956239"><ele>7.0</ele><time>2026-04-11T13:30:35Z</time></trkpt><trkpt lat="44.845919161727096" lon="11.61147202385733"><ele>7.000000000000001</ele><time>2026-04-11T13:30:37Z</time></trkpt><trkpt lat="44.84585631801097" lon="11.611398265269896"><ele>7.0</ele><time>2026-04-11T13:30:39Z</time></trkpt><trkpt lat="44.845794255945535" lon="11.611319737535492"><ele>7.0</ele><time>2026-04-11T13:30:41Z</time></trkpt><trkpt lat="44.8457249038439" lon="11.611238699958314"><ele>7.0</ele><time>2026-04-11T13:30:43Z</time></trkpt><trkpt lat="44.845666312840905" lon="11.611169813351275"><ele>7.000000000000001</ele><time>2026-04-11T13:30:45Z</time></trkpt><trkpt lat="44.84561900193723" lon="11.611110345232673"><ele>7.0</ele><time>2026-04-11T13:30:47Z</time></trkpt><trkpt lat="44.845570086804734" lon="11.611044064679303"><ele>7.166666666666667</ele><time>2026-04-11T13:30:49Z</time></trkpt><trkpt lat="44.84551780766354" lon="11.610987982767654"><ele>7.333333333333334</ele><time>2026-04-11T13:30:51Z</time></trkpt><trkpt lat="44.845446955599265" lon="11.6109144833064"><ele>7.5</ele><time>2026-04-11T13:30:53Z</time></trkpt><trkpt lat="44.845390012189014" lon="11.61082057100623"><ele>7.666666666666666</ele><time>2026-04-11T13:30:55Z</time></trkpt><trkpt lat="44.84532480021682" lon="11.610743683818908"><ele>7.833333333333333</ele><time>2026-04-11T13:30:57Z</time></trkpt><trkpt lat="44.84526641075851" lon="11.610674472155148"><ele>8.0</ele><time>2026-04-11T13:30:59Z</time></trkpt><trkpt lat="44.84520051382933" lon="11.610595485071768"><ele>7.999999999999999</ele><time>2026-04-11T13:31:01Z</time></trkpt><trkpt lat="44.845131592811725" lon="11.610513886537182"><ele>8.0</ele><time>2026-04-11T13:31:03Z</time></trkpt><trkpt lat="44.84506015017387" lon="11.610427375523702"><ele>8.0</ele><time>2026-04-11T13:31:05Z</time></trkpt><trkpt lat="44.84498287050284" lon="11.610360127930932"><ele>8.0</ele><time>2026-04-11T13:31:07Z</time></trkpt><trkpt lat="44.844932483088606" lon="11.61025797191636"><ele>7.999999999999999</ele><time>2026-04-11T13:31:09Z</time></trkpt><trkpt lat="44.84487012308743" lon="11.610185946170064"><ele>8.0</ele><time>2026-04-11T13:31:11Z</time></trkpt><trkpt lat="44.84479361974553" lon="11.610103369520512"><ele>8.166666666666666</ele><time>2026-04-11T13:31:14Z</time></trkpt><trkpt lat="44.84473091871507" lon="11.610010403354144"><ele>8.333333333333332</ele><time>2026-04-11T13:31:17Z</time></trkpt><trkpt lat="44.844670805554486" lon="11.609949344068212"><ele>8.5</ele><time>2026-04-11T13:31:19Z</time></trkpt><trkpt lat="44.844612947761" lon="11.609881027148083"><ele>8.666666666666666</ele><time>2026-04-11T13:31:21Z</time></trkpt><trkpt lat="44.84456538105852" lon="11.609802881253126"><ele>8.833333333333334</ele><time>2026-04-11T13:31:23Z</time></trkpt><trkpt lat="44.84450191935973" lon="11.60975725123678"><ele>9.0</ele><time>2026-04-11T13:31:25Z</time></trkpt><trkpt lat="44.84443983197341" lon="11.6097089647935"><ele>9.0</ele><time>2026-04-11T13:31:27Z</time></trkpt><trkpt lat="44.84436273908266" lon="11.609652136673"><ele>9.0</ele><time>2026-04-11T13:31:31Z</time></trkpt><trkpt lat="44.844287788775674" lon="11.609657346368119"><ele>9.0</ele><time>2026-04-11T13:31:35Z</time></trkpt><trkpt lat="44.844330459141126" lon="11.609758297034876"><ele>9.0</ele><time>2026-04-11T13:31:39Z</time></trkpt><trkpt lat="44.84440271724656" lon="11.609826826232666"><ele>9.0</ele><time>2026-04-11T13:31:41Z</time></trkpt><trkpt lat="44.84446386377918" lon="11.609913419583814"><ele>9.0</ele><time>2026-04-11T13:31:43Z</time></trkpt><trkpt lat="44.84452976099978" lon="11.60999972344787"><ele>9.0</ele><time>2026-04-11T13:31:45Z</time></trkpt><trkpt lat="44.844610133693756" lon="11.610073712385812"><ele>9.0</ele><time>2026-04-11T13:31:47Z</time></trkpt><trkpt lat="44.84467641594839" lon="11.610160215813758"><ele>9.0</ele><time>2026-04-11T13:31:49Z</time></trkpt><trkpt lat="44.84473174210795" lon="11.610256761862972"><ele>9.0</ele><time>2026-04-11T13:31:50.999Z</time></trkpt><trkpt lat="44.844797626517526" lon="11.610331561726344"><ele>9.0</ele><time>2026-04-11T13:31:52.999Z</time></trkpt><trkpt lat="44.84486110944062" lon="11.610403695788547"><ele>9.0</ele><time>2026-04-11T13:31:54.999Z</time></trkpt><trkpt lat="44.844914005292075" lon="11.610483582044141"><ele>8.833333333333334</ele><time>2026-04-11T13:31:56.999Z</time></trkpt><trkpt lat="44.844973355188436" lon="11.61054761224565"><ele>8.666666666666666</ele><time>2026-04-11T13:31:58.999Z</time></trkpt><trkpt lat="44.8450297006449" lon="11.610628681881684"><ele>8.5</ele><time>2026-04-11T13:32:01.999Z</time></trkpt><trkpt lat="44.84510625021128" lon="11.610704026617393"><ele>8.333333333333332</ele><time>2026-04-11T13:32:05Z</time></trkpt><trkpt lat="44.845170817746016" lon="11.610777553129935"><ele>8.166666666666666</ele><time>2026-04-11T13:32:07Z</time></trkpt><trkpt lat="44.84522565266239" lon="11.610844736738096"><ele>8.0</ele><time>2026-04-11T13:32:09Z</time></trkpt><trkpt lat="44.845276252822686" lon="11.610915500163978"><ele>7.999999999999999</ele><time>2026-04-11T13:32:11Z</time></trkpt><trkpt lat="44.84534044588528" lon="11.610975318808006"><ele>8.0</ele><time>2026-04-11T13:32:13Z</time></trkpt><trkpt lat="44.84540474215333" lon="11.611058273080435"><ele>8.0</ele><time>2026-04-11T13:32:15Z</time></trkpt><trkpt lat="44.84545999460248" lon="11.611153637536379"><ele>8.0</ele><time>2026-04-11T13:32:17Z</time></trkpt><trkpt lat="44.84552520623683" lon="11.611223711951535"><ele>7.999999999999999</ele><time>2026-04-11T13:32:19Z</time></trkpt><trkpt lat="44.84558434269587" lon="11.611313204216636"><ele>8.0</ele><time>2026-04-11T13:32:21Z</time></trkpt><trkpt lat="44.84564554309527" lon="11.611390587435716"><ele>7.857142857142857</ele><time>2026-04-11T13:32:23Z</time></trkpt><trkpt lat="44.84570042732179" lon="11.611465579321868"><ele>7.7142857142857135</ele><time>2026-04-11T13:32:25Z</time></trkpt><trkpt lat="44.84575593778179" lon="11.611531644724906"><ele>7.571428571428571</ele><time>2026-04-11T13:32:27Z</time></trkpt><trkpt lat="44.845811722123806" lon="11.61159996383172"><ele>7.428571428571429</ele><time>2026-04-11T13:32:29Z</time></trkpt><trkpt lat="44.84586831514224" lon="11.61164891502129"><ele>7.285714285714286</ele><time>2026-04-11T13:32:31Z</time></trkpt><trkpt lat="44.845917568138056" lon="11.611716479940325"><ele>7.142857142857142</ele><time>2026-04-11T13:32:33Z</time></trkpt><trkpt lat="44.84596918814495" lon="11.611796307376482"><ele>7.0</ele><time>2026-04-11T13:32:35Z</time></trkpt><trkpt lat="44.84603025328764" lon="11.611864042554918"><ele>7.142857142857142</ele><time>2026-04-11T13:32:37Z</time></trkpt><trkpt lat="44.84608713501327" lon="11.611928313295202"><ele>7.285714285714286</ele><time>2026-04-11T13:32:39Z</time></trkpt><trkpt lat="44.84613937395019" lon="11.611991005655302"><ele>7.428571428571429</ele><time>2026-04-11T13:32:41Z</time></trkpt><trkpt lat="44.84619847678419" lon="11.612053236009407"><ele>7.571428571428571</ele><time>2026-04-11T13:32:43Z</time></trkpt><trkpt lat="44.846252987415596" lon="11.612125974018486"><ele>7.7142857142857135</ele><time>2026-04-11T13:32:45Z</time></trkpt><trkpt lat="44.84630120076512" lon="11.612191662233954"><ele>7.857142857142857</ele><time>2026-04-11T13:32:47Z</time></trkpt><trkpt lat="44.84625498726643" lon="11.61226980708191"><ele>8.0</ele><time>2026-04-11T13:32:51Z</time></trkpt><trkpt lat="44.84621582530775" lon="11.612342263957627"><ele>8.0</ele><time>2026-04-11T13:32:53Z</time></trkpt><trkpt lat="44.84618938728507" lon="11.612473541804134"><ele>8.0</ele><time>2026-04-11T13:32:55Z</time></trkpt><trkpt lat="44.846171916087556" lon="11.612597392164025"><ele>8.0</ele><time>2026-04-11T13:32:57Z</time></trkpt><trkpt lat="44.84614603649795" lon="11.612720252304735"><ele>8.0</ele><time>2026-04-11T13:32:59Z</time></trkpt><trkpt lat="44.84611994905913" lon="11.612845991104965"><ele>8.0</ele><time>2026-04-11T13:33:01Z</time></trkpt><trkpt lat="44.84609830239116" lon="11.612973012694901"><ele>8.166666666666666</ele><time>2026-04-11T13:33:03Z</time></trkpt><trkpt lat="44.84607921272206" lon="11.613098102818222"><ele>8.333333333333332</ele><time>2026-04-11T13:33:05Z</time></trkpt><trkpt lat="44.8460584468406" lon="11.61321752777532"><ele>8.5</ele><time>2026-04-11T13:33:07Z</time></trkpt><trkpt lat="44.84604257484432" lon="11.613328982641768"><ele>8.666666666666666</ele><time>2026-04-11T13:33:09Z</time></trkpt><trkpt lat="44.84602605833436" lon="11.613436375816605"><ele>8.833333333333334</ele><time>2026-04-11T13:33:11Z</time></trkpt><trkpt lat="44.846009850801096" lon="11.613534312086147"><ele>9.0</ele><time>2026-04-11T13:33:13Z</time></trkpt><trkpt lat="44.84598494503349" lon="11.613638504407767"><ele>9.0</ele><time>2026-04-11T13:33:15Z</time></trkpt><trkpt lat="44.84597555613159" lon="11.613757100715562"><ele>9.0</ele><time>2026-04-11T13:33:17Z</time></trkpt><trkpt lat="44.84594980614494" lon="11.613873456477126"><ele>9.0</ele><time>2026-04-11T13:33:19Z</time></trkpt><trkpt lat="44.84593075797408" lon="11.61399155893066"><ele>9.0</ele><time>2026-04-11T13:33:21Z</time></trkpt><trkpt lat="44.84591562193123" lon="11.614121110556995"><ele>9.0</ele><time>2026-04-11T13:33:23Z</time></trkpt><trkpt lat="44.84589820206575" lon="11.614245058038295"><ele>9.0</ele><time>2026-04-11T13:33:25Z</time></trkpt><trkpt lat="44.8458769764105" lon="11.614357187001211"><ele>9.0</ele><time>2026-04-11T13:33:27Z</time></trkpt><trkpt lat="44.84586388019372" lon="11.614458768970673"><ele>9.0</ele><time>2026-04-11T13:33:29Z</time></trkpt><trkpt lat="44.845852714539255" lon="11.614561074393777"><ele>9.0</ele><time>2026-04-11T13:33:31Z</time></trkpt><trkpt lat="44.84582205718217" lon="11.614676640281226"><ele>9.0</ele><time>2026-04-11T13:33:33Z</time></trkpt><trkpt lat="44.84580395987096" lon="11.614801028449573"><ele>9.0</ele><time>2026-04-11T13:33:35Z</time></trkpt><trkpt lat="44.84578695793645" lon="11.614916704684246"><ele>9.0</ele><time>2026-04-11T13:33:37Z</time></trkpt><trkpt lat="44.84577783128474" lon="11.615031616921552"><ele>9.0</ele><time>2026-04-11T13:33:39Z</time></trkpt><trkpt lat="44.84576121455414" lon="11.615146227899752"><ele>9.0</ele><time>2026-04-11T13:33:41Z</time></trkpt><trkpt lat="44.84574540735478" lon="11.615266457611673"><ele>9.0</ele><time>2026-04-11T13:33:43Z</time></trkpt><trkpt lat="44.845731371199534" lon="11.6153913450994"><ele>9.0</ele><time>2026-04-11T13:33:45Z</time></trkpt><trkpt lat="44.84571165609375" lon="11.615516123636164"><ele>9.0</ele><time>2026-04-11T13:33:47Z</time></trkpt><trkpt lat="44.84568283502777" lon="11.61563901316831"><ele>9.0</ele><time>2026-04-11T13:33:49Z</time></trkpt><trkpt lat="44.8456602263712" lon="11.615764886608762"><ele>9.0</ele><time>2026-04-11T13:33:51Z</time></trkpt><trkpt lat="44.845639278301036" lon="11.615888313954043"><ele>9.0</ele><time>2026-04-11T13:33:53Z</time></trkpt><trkpt lat="44.84561772535503" lon="11.616010989137992"><ele>9.0</ele><time>2026-04-11T13:33:55Z</time></trkpt><trkpt lat="44.8455905516241" lon="11.616139670500415"><ele>9.0</ele><time>2026-04-11T13:33:57Z</time></trkpt><trkpt lat="44.84557262273194" lon="11.61626232912906"><ele>9.0</ele><time>2026-04-11T13:33:59Z</time></trkpt><trkpt lat="44.84555530607026" lon="11.616400826322351"><ele>9.166666666666666</ele><time>2026-04-11T13:34:01Z</time></trkpt><trkpt lat="44.84554531112354" lon="11.616529816670056"><ele>9.333333333333334</ele><time>2026-04-11T13:34:03Z</time></trkpt><trkpt lat="44.845536789322786" lon="11.616645821069792"><ele>9.5</ele><time>2026-04-11T13:34:05Z</time></trkpt><trkpt lat="44.8455184301089" lon="11.616762250448698"><ele>9.666666666666668</ele><time>2026-04-11T13:34:07Z</time></trkpt><trkpt lat="44.84550619648498" lon="11.616874939036666"><ele>9.833333333333334</ele><time>2026-04-11T13:34:09Z</time></trkpt><trkpt lat="44.84548666244875" lon="11.616981093930782"><ele>10.0</ele><time>2026-04-11T13:34:11Z</time></trkpt><trkpt lat="44.84545816529871" lon="11.61708205153721"><ele>10.166666666666668</ele><time>2026-04-11T13:34:13Z</time></trkpt><trkpt lat="44.845418124056536" lon="11.617168862440096"><ele>10.333333333333334</ele><time>2026-04-11T13:34:15Z</time></trkpt><trkpt lat="44.84534853751129" lon="11.61717492312292"><ele>10.5</ele><time>2026-04-11T13:34:17Z</time></trkpt><trkpt lat="44.84527051253188" lon="11.61715244963198"><ele>10.666666666666666</ele><time>2026-04-11T13:34:19Z</time></trkpt><trkpt lat="44.84518264984767" lon="11.617145808873829"><ele>10.833333333333332</ele><time>2026-04-11T13:34:21Z</time></trkpt><trkpt lat="44.845083586083035" lon="11.617136950833892"><ele>11.0</ele><time>2026-04-11T13:34:23Z</time></trkpt><trkpt lat="44.84499102056139" lon="11.617124076965162"><ele>11.0</ele><time>2026-04-11T13:34:25Z</time></trkpt><trkpt lat="44.844918885301865" lon="11.61710357014246"><ele>11.0</ele><time>2026-04-11T13:34:27Z</time></trkpt><trkpt lat="44.844835023564514" lon="11.617096835085938"><ele>11.0</ele><time>2026-04-11T13:34:29Z</time></trkpt><trkpt lat="44.84474404989621" lon="11.617078037371984"><ele>11.0</ele><time>2026-04-11T13:34:31Z</time></trkpt><trkpt lat="44.84465604862842" lon="11.61704119323885"><ele>11.0</ele><time>2026-04-11T13:34:33Z</time></trkpt><trkpt lat="44.84457582509757" lon="11.61702035336681"><ele>11.0</ele><time>2026-04-11T13:34:35Z</time></trkpt><trkpt lat="44.84450274907244" lon="11.61700190778477"><ele>11.0</ele><time>2026-04-11T13:34:37Z</time></trkpt><trkpt lat="44.84442470767431" lon="11.61698788170076"><ele>11.0</ele><time>2026-04-11T13:34:39Z</time></trkpt><trkpt lat="44.844358075713586" lon="11.616966793847562"><ele>11.0</ele><time>2026-04-11T13:34:41Z</time></trkpt><trkpt lat="44.8442915050946" lon="11.616949943757481"><ele>11.0</ele><time>2026-04-11T13:34:43Z</time></trkpt><trkpt lat="44.84422527907617" lon="11.61694261276428"><ele>11.0</ele><time>2026-04-11T13:34:45Z</time></trkpt><trkpt lat="44.84413687547486" lon="11.616932970378222"><ele>11.0</ele><time>2026-04-11T13:34:47Z</time></trkpt><trkpt lat="44.84404572446852" lon="11.616912005816895"><ele>10.833333333333332</ele><time>2026-04-11T13:34:49Z</time></trkpt><trkpt lat="44.843959067157826" lon="11.61688683829349"><ele>10.666666666666666</ele><time>2026-04-11T13:34:51Z</time></trkpt><trkpt lat="44.843876882234575" lon="11.616875900451067"><ele>10.5</ele><time>2026-04-11T13:34:53Z</time></trkpt><trkpt lat="44.843795515863576" lon="11.616853941782733"><ele>10.333333333333334</ele><time>2026-04-11T13:34:55Z</time></trkpt><trkpt lat="44.84371470720131" lon="11.616844031072008"><ele>10.166666666666668</ele><time>2026-04-11T13:34:57Z</time></trkpt><trkpt lat="44.843638562126536" lon="11.616813403011276"><ele>10.0</ele><time>2026-04-11T13:34:59Z</time></trkpt><trkpt lat="44.843545125538874" lon="11.61680469673816"><ele>10.5</ele><time>2026-04-11T13:35:01Z</time></trkpt><trkpt lat="44.84345723931236" lon="11.6167890945372"><ele>11.0</ele><time>2026-04-11T13:35:03Z</time></trkpt><trkpt lat="44.84337164289029" lon="11.616770604568437"><ele>11.5</ele><time>2026-04-11T13:35:05Z</time></trkpt><trkpt lat="44.84328751832112" lon="11.616756372803101"><ele>12.0</ele><time>2026-04-11T13:35:07Z</time></trkpt><trkpt lat="44.843209866508204" lon="11.616722839565284"><ele>12.499999999999998</ele><time>2026-04-11T13:35:09Z</time></trkpt><trkpt lat="44.84313857228106" lon="11.616651223648399"><ele>13.0</ele><time>2026-04-11T13:35:54Z</time></trkpt><trkpt lat="44.843060727122975" lon="11.616668125694268"><ele>13.0</ele><time>2026-04-11T13:35:58Z</time></trkpt><trkpt lat="44.843003166811336" lon="11.616753795323728"><ele>13.0</ele><time>2026-04-11T13:36:00Z</time></trkpt><trkpt lat="44.84298749331292" lon="11.61688186900461"><ele>13.0</ele><time>2026-04-11T13:36:02Z</time></trkpt><trkpt lat="44.8429898556603" lon="11.617012868037985"><ele>13.0</ele><time>2026-04-11T13:36:04Z</time></trkpt><trkpt lat="44.84297345453201" lon="11.61712835362629"><ele>13.0</ele><time>2026-04-11T13:36:06Z</time></trkpt><trkpt lat="44.84297685535579" lon="11.61726770387314"><ele>12.833333333333332</ele><time>2026-04-11T13:36:08Z</time></trkpt><trkpt lat="44.842963156726455" lon="11.617388217734133"><ele>12.666666666666666</ele><time>2026-04-11T13:36:10Z</time></trkpt><trkpt lat="44.84296234008312" lon="11.617497176901674"><ele>12.5</ele><time>2026-04-11T13:36:12Z</time></trkpt><trkpt lat="44.84295488698779" lon="11.61760325609803"><ele>12.333333333333332</ele><time>2026-04-11T13:36:14Z</time></trkpt><trkpt lat="44.842938538393106" lon="11.617732438814384"><ele>12.166666666666666</ele><time>2026-04-11T13:36:16Z</time></trkpt><trkpt lat="44.842921367523864" lon="11.617854823750374"><ele>12.0</ele><time>2026-04-11T13:36:18Z</time></trkpt><trkpt lat="44.842914103910346" lon="11.617972913824266"><ele>11.6</ele><time>2026-04-11T13:36:20Z</time></trkpt><trkpt lat="44.84290606694693" lon="11.618103870311836"><ele>11.2</ele><time>2026-04-11T13:36:22Z</time></trkpt><trkpt lat="44.842902264639086" lon="11.618242779793007"><ele>10.8</ele><time>2026-04-11T13:36:24Z</time></trkpt><trkpt lat="44.84289760757929" lon="11.618376119645248"><ele>10.4</ele><time>2026-04-11T13:36:26Z</time></trkpt><trkpt lat="44.84288387726313" lon="11.618506884476615"><ele>10.0</ele><time>2026-04-11T13:36:28Z</time></trkpt><trkpt lat="44.84287101318912" lon="11.618622637249228"><ele>10.0</ele><time>2026-04-11T13:36:30Z</time></trkpt><trkpt lat="44.84286584020265" lon="11.61876488253753"><ele>10.0</ele><time>2026-04-11T13:36:32Z</time></trkpt><trkpt lat="44.842852918016554" lon="11.618884248623468"><ele>10.0</ele><time>2026-04-11T13:36:34Z</time></trkpt><trkpt lat="44.84284737406502" lon="11.619011201135507"><ele>10.0</ele><time>2026-04-11T13:36:36Z</time></trkpt><trkpt lat="44.842820503594865" lon="11.619133786129206"><ele>10.0</ele><time>2026-04-11T13:36:38Z</time></trkpt><trkpt lat="44.842804811299914" lon="11.619255728334885"><ele>10.0</ele><time>2026-04-11T13:36:40Z</time></trkpt><trkpt lat="44.842774343128454" lon="11.61937950611645"><ele>10.0</ele><time>2026-04-11T13:36:42Z</time></trkpt><trkpt lat="44.84274078976522" lon="11.619507505578234"><ele>10.0</ele><time>2026-04-11T13:36:44Z</time></trkpt><trkpt lat="44.842718808498546" lon="11.619622571797048"><ele>10.0</ele><time>2026-04-11T13:36:46Z</time></trkpt><trkpt lat="44.84269525641217" lon="11.619756278471302"><ele>10.0</ele><time>2026-04-11T13:36:48Z</time></trkpt><trkpt lat="44.842673189986265" lon="11.619878573490613"><ele>9.8</ele><time>2026-04-11T13:36:50Z</time></trkpt><trkpt lat="44.842654636660875" lon="11.619996769649362"><ele>9.6</ele><time>2026-04-11T13:36:52Z</time></trkpt><trkpt lat="44.842631890762824" lon="11.620121651453667"><ele>9.4</ele><time>2026-04-11T13:36:54Z</time></trkpt><trkpt lat="44.84259786456391" lon="11.620242231287232"><ele>9.2</ele><time>2026-04-11T13:36:56Z</time></trkpt><trkpt lat="44.84257411999446" lon="11.620366975754312"><ele>9.0</ele><time>2026-04-11T13:36:58Z</time></trkpt><trkpt lat="44.842541281045264" lon="11.62050346631109"><ele>9.4</ele><time>2026-04-11T13:37:00Z</time></trkpt><trkpt lat="44.84252338163458" lon="11.620621152467146"><ele>9.8</ele><time>2026-04-11T13:37:02Z</time></trkpt><trkpt lat="44.842500417171756" lon="11.620751563129526"><ele>10.200000000000001</ele><time>2026-04-11T13:37:04Z</time></trkpt><trkpt lat="44.842479114491894" lon="11.620877470630775"><ele>10.600000000000001</ele><time>2026-04-11T13:37:06Z</time></trkpt><trkpt lat="44.8424599265796" lon="11.621006016905069"><ele>11.0</ele><time>2026-04-11T13:37:08Z</time></trkpt><trkpt lat="44.84242858875386" lon="11.621128329314159"><ele>11.200000000000001</ele><time>2026-04-11T13:37:10Z</time></trkpt><trkpt lat="44.84240462821633" lon="11.621252445836348"><ele>11.4</ele><time>2026-04-11T13:37:12Z</time></trkpt><trkpt lat="44.84238814074709" lon="11.621384484068837"><ele>11.6</ele><time>2026-04-11T13:37:14Z</time></trkpt><trkpt lat="44.84235809358546" lon="11.62150668664339"><ele>11.8</ele><time>2026-04-11T13:37:16Z</time></trkpt><trkpt lat="44.842344427863495" lon="11.621632596631422"><ele>12.0</ele><time>2026-04-11T13:37:18Z</time></trkpt><trkpt lat="44.84233924108316" lon="11.621758449300295"><ele>12.0</ele><time>2026-04-11T13:37:20Z</time></trkpt><trkpt lat="44.84231832597432" lon="11.621878001930893"><ele>12.0</ele><time>2026-04-11T13:37:22Z</time></trkpt><trkpt lat="44.84231148121069" lon="11.62199405010365"><ele>12.0</ele><time>2026-04-11T13:37:24Z</time></trkpt><trkpt lat="44.842291350612605" lon="11.622109917175539"><ele>12.0</ele><time>2026-04-11T13:37:26Z</time></trkpt><trkpt lat="44.84228687114977" lon="11.62223521074996"><ele>12.0</ele><time>2026-04-11T13:37:28Z</time></trkpt><trkpt lat="44.84227360242709" lon="11.622364320844918"><ele>12.0</ele><time>2026-04-11T13:37:30Z</time></trkpt><trkpt lat="44.84225315303713" lon="11.622489791606672"><ele>12.0</ele><time>2026-04-11T13:37:32Z</time></trkpt><trkpt lat="44.842239250077675" lon="11.62261823220449"><ele>12.0</ele><time>2026-04-11T13:37:34Z</time></trkpt><trkpt lat="44.842219409025" lon="11.622741760123514"><ele>12.0</ele><time>2026-04-11T13:37:36Z</time></trkpt><trkpt lat="44.842198041093496" lon="11.622865355470287"><ele>12.0</ele><time>2026-04-11T13:37:38Z</time></trkpt><trkpt lat="44.84218449912937" lon="11.622984844669153"><ele>12.0</ele><time>2026-04-11T13:37:40Z</time></trkpt><trkpt lat="44.84216923494807" lon="11.623100674059636"><ele>12.0</ele><time>2026-04-11T13:37:42Z</time></trkpt><trkpt lat="44.84215777521355" lon="11.623208038757282"><ele>11.833333333333334</ele><time>2026-04-11T13:37:44Z</time></trkpt><trkpt lat="44.84214274096326" lon="11.623313411076792"><ele>11.666666666666666</ele><time>2026-04-11T13:37:46Z</time></trkpt><trkpt lat="44.842130883179586" lon="11.623429219276371"><ele>11.5</ele><time>2026-04-11T13:37:48Z</time></trkpt><trkpt lat="44.84212194890654" lon="11.62355390231309"><ele>11.333333333333332</ele><time>2026-04-11T13:37:50Z</time></trkpt><trkpt lat="44.84211335428126" lon="11.623681635864717"><ele>11.166666666666666</ele><time>2026-04-11T13:37:52Z</time></trkpt><trkpt lat="44.84209335797731" lon="11.623804447304279"><ele>11.0</ele><time>2026-04-11T13:37:54Z</time></trkpt><trkpt lat="44.84208436196986" lon="11.623914470620862"><ele>11.333333333333332</ele><time>2026-04-11T13:37:56Z</time></trkpt><trkpt lat="44.84207428572423" lon="11.624027994414684"><ele>11.666666666666666</ele><time>2026-04-11T13:37:58Z</time></trkpt><trkpt lat="44.84205926164719" lon="11.624146668036534"><ele>12.0</ele><time>2026-04-11T13:38:00Z</time></trkpt><trkpt lat="44.84204430071949" lon="11.624272375372485"><ele>12.333333333333332</ele><time>2026-04-11T13:38:02Z</time></trkpt><trkpt lat="44.842034925162714" lon="11.62439891251906"><ele>12.666666666666666</ele><time>2026-04-11T13:38:04Z</time></trkpt><trkpt lat="44.84201975935677" lon="11.62453292271338"><ele>13.0</ele><time>2026-04-11T13:38:06Z</time></trkpt><trkpt lat="44.84201449567434" lon="11.6246589723444"><ele>13.2</ele><time>2026-04-11T13:38:08Z</time></trkpt><trkpt lat="44.8420015398632" lon="11.624787348009855"><ele>13.4</ele><time>2026-04-11T13:38:10Z</time></trkpt><trkpt lat="44.841992581312724" lon="11.624920183747511"><ele>13.599999999999998</ele><time>2026-04-11T13:38:12Z</time></trkpt><trkpt lat="44.84197359356901" lon="11.62505613968815"><ele>13.799999999999999</ele><time>2026-04-11T13:38:14Z</time></trkpt><trkpt lat="44.84196522746604" lon="11.625190451572301"><ele>14.0</ele><time>2026-04-11T13:38:16Z</time></trkpt><trkpt lat="44.84194979879107" lon="11.625322146554877"><ele>13.500000000000002</ele><time>2026-04-11T13:38:18Z</time></trkpt><trkpt lat="44.841928467288405" lon="11.625454444759274"><ele>13.0</ele><time>2026-04-11T13:38:20Z</time></trkpt><trkpt lat="44.841913243784575" lon="11.625575764540635"><ele>12.5</ele><time>2026-04-11T13:38:22Z</time></trkpt><trkpt lat="44.84189366356249" lon="11.625695289966275"><ele>12.0</ele><time>2026-04-11T13:38:24Z</time></trkpt><trkpt lat="44.84187880911405" lon="11.625807837466112"><ele>11.5</ele><time>2026-04-11T13:38:26Z</time></trkpt><trkpt lat="44.84185712389343" lon="11.625921416747303"><ele>11.0</ele><time>2026-04-11T13:38:28Z</time></trkpt><trkpt lat="44.84184418640898" lon="11.626027732028858"><ele>11.0</ele><time>2026-04-11T13:38:30Z</time></trkpt><trkpt lat="44.8418192649135" lon="11.626120718824312"><ele>11.0</ele><time>2026-04-11T13:38:32Z</time></trkpt><trkpt lat="44.84179812667406" lon="11.626233762704647"><ele>11.0</ele><time>2026-04-11T13:38:35Z</time></trkpt><trkpt lat="44.841790458078904" lon="11.62632988261925"><ele>11.0</ele><time>2026-04-11T13:38:37Z</time></trkpt><trkpt lat="44.84177047349765" lon="11.626446146447101"><ele>11.0</ele><time>2026-04-11T13:38:40Z</time></trkpt><trkpt lat="44.841751976320744" lon="11.626566984892223"><ele>11.0</ele><time>2026-04-11T13:38:43Z</time></trkpt><trkpt lat="44.841735508102666" lon="11.62668196738729"><ele>11.0</ele><time>2026-04-11T13:38:46Z</time></trkpt><trkpt lat="44.84172421132466" lon="11.6267762640746"><ele>11.0</ele><time>2026-04-11T13:38:49Z</time></trkpt><trkpt lat="44.84170877058235" lon="11.626863161892299"><ele>11.0</ele><time>2026-04-11T13:38:52Z</time></trkpt><trkpt lat="44.84170075462335" lon="11.626957533006511"><ele>11.0</ele><time>2026-04-11T13:38:55Z</time></trkpt><trkpt lat="44.84168075185385" lon="11.627076308755601"><ele>11.0</ele><time>2026-04-11T13:38:58Z</time></trkpt><trkpt lat="44.841671576047176" lon="11.627170790315832"><ele>11.0</ele><time>2026-04-11T13:39:01Z</time></trkpt><trkpt lat="44.84164953636672" lon="11.627275883807632"><ele>11.0</ele><time>2026-04-11T13:39:04Z</time></trkpt><trkpt lat="44.841646869343116" lon="11.627378900953415"><ele>10.833333333333332</ele><time>2026-04-11T13:39:07Z</time></trkpt><trkpt lat="44.84162681543186" lon="11.627478615332443"><ele>10.666666666666666</ele><time>2026-04-11T13:39:10Z</time></trkpt><trkpt lat="44.84161088941984" lon="11.627588794467577"><ele>10.5</ele><time>2026-04-11T13:39:13Z</time></trkpt><trkpt lat="44.841598864359455" lon="11.627716613667141"><ele>10.333333333333334</ele><time>2026-04-11T13:39:16Z</time></trkpt><trkpt lat="44.84158209880234" lon="11.627816782878641"><ele>10.166666666666668</ele><time>2026-04-11T13:39:18Z</time></trkpt><trkpt lat="44.84157991218424" lon="11.627913435892392"><ele>10.0</ele><time>2026-04-11T13:39:20Z</time></trkpt><trkpt lat="44.841571105672045" lon="11.628031397197011"><ele>9.833333333333334</ele><time>2026-04-11T13:39:23Z</time></trkpt><trkpt lat="44.84155701900261" lon="11.628141618358091"><ele>9.666666666666668</ele><time>2026-04-11T13:39:25Z</time></trkpt><trkpt lat="44.841539704895226" lon="11.628255613054579"><ele>9.5</ele><time>2026-04-11T13:39:27Z</time></trkpt><trkpt lat="44.84153130759543" lon="11.62835708259941"><ele>9.333333333333334</ele><time>2026-04-11T13:39:29Z</time></trkpt><trkpt lat="44.841523103115875" lon="11.628458712902482"><ele>9.166666666666666</ele><time>2026-04-11T13:39:31Z</time></trkpt><trkpt lat="44.84152793423029" lon="11.62857365955845"><ele>9.0</ele><time>2026-04-11T13:39:33Z</time></trkpt><trkpt lat="44.84152032109013" lon="11.628692205823947"><ele>9.0</ele><time>2026-04-11T13:39:35Z</time></trkpt><trkpt lat="44.84150329527024" lon="11.628820237663202"><ele>9.0</ele><time>2026-04-11T13:39:37Z</time></trkpt><trkpt lat="44.841480947013366" lon="11.628949829570592"><ele>9.0</ele><time>2026-04-11T13:39:39Z</time></trkpt><trkpt lat="44.84145331900715" lon="11.629074007896216"><ele>9.0</ele><time>2026-04-11T13:39:41Z</time></trkpt><trkpt lat="44.84143647382794" lon="11.629203114313503"><ele>9.0</ele><time>2026-04-11T13:39:43Z</time></trkpt><trkpt lat="44.84142898211176" lon="11.629322891758376"><ele>9.0</ele><time>2026-04-11T13:39:45Z</time></trkpt><trkpt lat="44.84141861288097" lon="11.629448357662701"><ele>9.0</ele><time>2026-04-11T13:39:47Z</time></trkpt><trkpt lat="44.84139748149494" lon="11.629578366779286"><ele>9.0</ele><time>2026-04-11T13:39:49Z</time></trkpt><trkpt lat="44.841382843246684" lon="11.629704015728112"><ele>9.0</ele><time>2026-04-11T13:39:51Z</time></trkpt><trkpt lat="44.84136634362331" lon="11.62982833448157"><ele>9.0</ele><time>2026-04-11T13:39:53Z</time></trkpt><trkpt lat="44.84135739068863" lon="11.629950421244226"><ele>8.666666666666666</ele><time>2026-04-11T13:39:55Z</time></trkpt><trkpt lat="44.841346013428854" lon="11.63006612766043"><ele>8.333333333333334</ele><time>2026-04-11T13:39:57Z</time></trkpt><trkpt lat="44.841333687466104" lon="11.630172206844755"><ele>8.0</ele><time>2026-04-11T13:39:59Z</time></trkpt><trkpt lat="44.84131585872392" lon="11.630277974031216"><ele>7.666666666666667</ele><time>2026-04-11T13:40:01Z</time></trkpt><trkpt lat="44.84130266310646" lon="11.630406368460646"><ele>7.333333333333334</ele><time>2026-04-11T13:40:03Z</time></trkpt><trkpt lat="44.8412853769657" lon="11.630527115600078"><ele>7.0</ele><time>2026-04-11T13:40:05Z</time></trkpt><trkpt lat="44.841271077595245" lon="11.630654018084345"><ele>6.8</ele><time>2026-04-11T13:40:07Z</time></trkpt><trkpt lat="44.8412587387699" lon="11.630780142790558"><ele>6.6</ele><time>2026-04-11T13:40:09Z</time></trkpt><trkpt lat="44.84123708167121" lon="11.63091065157459"><ele>6.3999999999999995</ele><time>2026-04-11T13:40:11Z</time></trkpt><trkpt lat="44.841220079930125" lon="11.631039131193637"><ele>6.199999999999999</ele><time>2026-04-11T13:40:13Z</time></trkpt><trkpt lat="44.8412036546127" lon="11.631164129685997"><ele>6.0</ele><time>2026-04-11T13:40:15Z</time></trkpt><trkpt lat="44.841186154474606" lon="11.631279425978857"><ele>6.0</ele><time>2026-04-11T13:40:17Z</time></trkpt><trkpt lat="44.841169656514445" lon="11.631415954769487"><ele>6.0</ele><time>2026-04-11T13:40:19Z</time></trkpt><trkpt lat="44.84117176489997" lon="11.631529019251658"><ele>6.0</ele><time>2026-04-11T13:40:21Z</time></trkpt><trkpt lat="44.841158534840794" lon="11.63165213062416"><ele>6.0</ele><time>2026-04-11T13:40:23Z</time></trkpt><trkpt lat="44.84114095425186" lon="11.631763933550854"><ele>6.0</ele><time>2026-04-11T13:40:25Z</time></trkpt><trkpt lat="44.84112992580643" lon="11.631885053682053"><ele>6.0</ele><time>2026-04-11T13:40:27Z</time></trkpt><trkpt lat="44.84111561821689" lon="11.632009292282751"><ele>6.166666666666667</ele><time>2026-04-11T13:40:29Z</time></trkpt><trkpt lat="44.84109292901237" lon="11.63213729932463"><ele>6.333333333333334</ele><time>2026-04-11T13:40:31Z</time></trkpt><trkpt lat="44.84107601813684" lon="11.632262780297268"><ele>6.5</ele><time>2026-04-11T13:40:33Z</time></trkpt><trkpt lat="44.84106856937644" lon="11.632387822333452"><ele>6.666666666666667</ele><time>2026-04-11T13:40:35Z</time></trkpt><trkpt lat="44.841044697464305" lon="11.632499429132269"><ele>6.833333333333334</ele><time>2026-04-11T13:40:37Z</time></trkpt><trkpt lat="44.841025906255545" lon="11.632605405456246"><ele>7.0</ele><time>2026-04-11T13:40:39Z</time></trkpt><trkpt lat="44.84100761454062" lon="11.632703973389939"><ele>6.833333333333334</ele><time>2026-04-11T13:40:41Z</time></trkpt><trkpt lat="44.84100309621847" lon="11.632817039679521"><ele>6.666666666666667</ele><time>2026-04-11T13:40:43Z</time></trkpt><trkpt lat="44.840990721675674" lon="11.63292946006523"><ele>6.5</ele><time>2026-04-11T13:40:45Z</time></trkpt><trkpt lat="44.84097636667313" lon="11.633035870327884"><ele>6.333333333333334</ele><time>2026-04-11T13:40:47Z</time></trkpt><trkpt lat="44.84095987891475" lon="11.633132143951771"><ele>6.166666666666667</ele><time>2026-04-11T13:40:49Z</time></trkpt><trkpt lat="44.840950531352426" lon="11.633225540228414"><ele>6.0</ele><time>2026-04-11T13:40:51Z</time></trkpt><trkpt lat="44.84093945647954" lon="11.633337176241154"><ele>6.333333333333333</ele><time>2026-04-11T13:40:53Z</time></trkpt><trkpt lat="44.840930856322544" lon="11.633440236351694"><ele>6.666666666666666</ele><time>2026-04-11T13:40:55Z</time></trkpt><trkpt lat="44.840913951369174" lon="11.633526425638127"><ele>7.0</ele><time>2026-04-11T13:40:57Z</time></trkpt><trkpt lat="44.840901371102966" lon="11.633649389660588"><ele>7.333333333333333</ele><time>2026-04-11T13:41:00Z</time></trkpt><trkpt lat="44.84088060154249" lon="11.6337664251073"><ele>7.666666666666666</ele><time>2026-04-11T13:41:03Z</time></trkpt><trkpt lat="44.84086455929411" lon="11.633855911225995"><ele>8.0</ele><time>2026-04-11T13:41:05Z</time></trkpt><trkpt lat="44.84084533208474" lon="11.633978039371542"><ele>7.999999999999999</ele><time>2026-04-11T13:41:07Z</time></trkpt><trkpt lat="44.84081293988049" lon="11.634091215391058"><ele>8.0</ele><time>2026-04-11T13:41:09Z</time></trkpt><trkpt lat="44.840800195660265" lon="11.634202905822287"><ele>8.0</ele><time>2026-04-11T13:41:11Z</time></trkpt><trkpt lat="44.84078716880758" lon="11.634314235784021"><ele>8.0</ele><time>2026-04-11T13:41:13Z</time></trkpt><trkpt lat="44.840773805112036" lon="11.634434499651816"><ele>7.999999999999999</ele><time>2026-04-11T13:41:15Z</time></trkpt><trkpt lat="44.840754994436686" lon="11.634545847821236"><ele>8.0</ele><time>2026-04-11T13:41:17Z</time></trkpt><trkpt lat="44.84074312277164" lon="11.634661991974443"><ele>7.833333333333333</ele><time>2026-04-11T13:41:19Z</time></trkpt><trkpt lat="44.84072481915523" lon="11.634759111944502"><ele>7.666666666666666</ele><time>2026-04-11T13:41:21Z</time></trkpt><trkpt lat="44.840713991145826" lon="11.634854802738639"><ele>7.5</ele><time>2026-04-11T13:41:23Z</time></trkpt><trkpt lat="44.840702329655855" lon="11.634952164591692"><ele>7.333333333333334</ele><time>2026-04-11T13:41:25Z</time></trkpt><trkpt lat="44.84066935641247" lon="11.635063643493437"><ele>7.166666666666667</ele><time>2026-04-11T13:41:27Z</time></trkpt><trkpt lat="44.840606649834406" lon="11.635152771708995"><ele>7.0</ele><time>2026-04-11T13:41:29Z</time></trkpt><trkpt lat="44.84054800408948" lon="11.635232509909754"><ele>7.000000000000001</ele><time>2026-04-11T13:41:31Z</time></trkpt><trkpt lat="44.84050148629092" lon="11.635342085407624"><ele>7.0</ele><time>2026-04-11T13:41:33Z</time></trkpt><trkpt lat="44.840471657007235" lon="11.635462989715228"><ele>7.0</ele><time>2026-04-11T13:41:35Z</time></trkpt><trkpt lat="44.84042230758739" lon="11.635560635451167"><ele>7.0</ele><time>2026-04-11T13:41:37Z</time></trkpt><trkpt lat="44.840352648839286" lon="11.635614987903189"><ele>7.000000000000001</ele><time>2026-04-11T13:41:39Z</time></trkpt><trkpt lat="44.840289394340665" lon="11.635672421808922"><ele>7.0</ele><time>2026-04-11T13:41:41Z</time></trkpt><trkpt lat="44.84022486343801" lon="11.635713385095523"><ele>7.000000000000001</ele><time>2026-04-11T13:41:43Z</time></trkpt><trkpt lat="44.84013876376554" lon="11.635760187091508"><ele>7.0</ele><time>2026-04-11T13:41:45Z</time></trkpt><trkpt lat="44.84006061058329" lon="11.635802438801619"><ele>7.0</ele><time>2026-04-11T13:41:47Z</time></trkpt><trkpt lat="44.8399762331558" lon="11.635844462700854"><ele>7.0</ele><time>2026-04-11T13:41:49Z</time></trkpt><trkpt lat="44.83988626151254" lon="11.635872130534326"><ele>7.000000000000001</ele><time>2026-04-11T13:41:51Z</time></trkpt><trkpt lat="44.83980751089172" lon="11.635883861437344"><ele>7.0</ele><time>2026-04-11T13:41:53Z</time></trkpt><trkpt lat="44.83972846583593" lon="11.635890040936278"><ele>7.142857142857142</ele><time>2026-04-11T13:41:55Z</time></trkpt><trkpt lat="44.83965005754571" lon="11.635918723461916"><ele>7.285714285714286</ele><time>2026-04-11T13:41:57Z</time></trkpt><trkpt lat="44.83957780786794" lon="11.635929365196352"><ele>7.428571428571429</ele><time>2026-04-11T13:41:59Z</time></trkpt><trkpt lat="44.83950889889313" lon="11.635940437644393"><ele>7.571428571428571</ele><time>2026-04-11T13:42:01Z</time></trkpt><trkpt lat="44.83944038413511" lon="11.63595743439167"><ele>7.7142857142857135</ele><time>2026-04-11T13:42:03Z</time></trkpt><trkpt lat="44.83937447895363" lon="11.635966759018629"><ele>7.857142857142857</ele><time>2026-04-11T13:42:05Z</time></trkpt><trkpt lat="44.8393071935572" lon="11.635970886351734"><ele>8.0</ele><time>2026-04-11T13:42:07Z</time></trkpt><trkpt lat="44.83924390593757" lon="11.635955570772435"><ele>7.666666666666666</ele><time>2026-04-11T13:42:11Z</time></trkpt><trkpt lat="44.839151325651464" lon="11.635969882248542"><ele>7.333333333333333</ele><time>2026-04-11T13:42:28Z</time></trkpt><trkpt lat="44.83907333303265" lon="11.635998645056421"><ele>7.0</ele><time>2026-04-11T13:42:30Z</time></trkpt><trkpt lat="44.83899113616225" lon="11.635997452872266"><ele>6.666666666666666</ele><time>2026-04-11T13:42:32Z</time></trkpt><trkpt lat="44.83891810740783" lon="11.636006633459395"><ele>6.333333333333333</ele><time>2026-04-11T13:42:34Z</time></trkpt><trkpt lat="44.83884556162237" lon="11.636007771950895"><ele>6.0</ele><time>2026-04-11T13:42:36Z</time></trkpt><trkpt lat="44.83876606964911" lon="11.636006827094612"><ele>6.0</ele><time>2026-04-11T13:42:38Z</time></trkpt><trkpt lat="44.83867622980088" lon="11.63601708219677"><ele>6.0</ele><time>2026-04-11T13:42:40Z</time></trkpt><trkpt lat="44.83858582786368" lon="11.636021530087303"><ele>6.0</ele><time>2026-04-11T13:42:42Z</time></trkpt><trkpt lat="44.838495331985314" lon="11.636022342441644"><ele>6.0</ele><time>2026-04-11T13:42:44Z</time></trkpt><trkpt lat="44.83840324482625" lon="11.636022297519974"><ele>6.0</ele><time>2026-04-11T13:42:46Z</time></trkpt><trkpt lat="44.83830767052543" lon="11.636027703047336"><ele>5.6</ele><time>2026-04-11T13:42:48Z</time></trkpt><trkpt lat="44.83821384016255" lon="11.636023418830506"><ele>5.199999999999999</ele><time>2026-04-11T13:42:50Z</time></trkpt><trkpt lat="44.83812057933853" lon="11.636018847605627"><ele>4.800000000000001</ele><time>2026-04-11T13:42:52Z</time></trkpt><trkpt lat="44.838029057295024" lon="11.636015958368317"><ele>4.4</ele><time>2026-04-11T13:42:54Z</time></trkpt><trkpt lat="44.83793555183035" lon="11.636025543009934"><ele>4.0</ele><time>2026-04-11T13:42:56Z</time></trkpt><trkpt lat="44.837842790101284" lon="11.636024667459541"><ele>4.0</ele><time>2026-04-11T13:42:58Z</time></trkpt><trkpt lat="44.83774887605876" lon="11.636023077027296"><ele>4.0</ele><time>2026-04-11T13:43:00Z</time></trkpt><trkpt lat="44.837652475714606" lon="11.636029561363232"><ele>4.0</ele><time>2026-04-11T13:43:02Z</time></trkpt><trkpt lat="44.837558715395275" lon="11.636025371951359"><ele>4.0</ele><time>2026-04-11T13:43:04Z</time></trkpt><trkpt lat="44.83746808386773" lon="11.636030951517453"><ele>4.0</ele><time>2026-04-11T13:43:06Z</time></trkpt><trkpt lat="44.837375837483975" lon="11.63603865883622"><ele>4.0</ele><time>2026-04-11T13:43:08Z</time></trkpt><trkpt lat="44.83728186414341" lon="11.636034183731253"><ele>4.0</ele><time>2026-04-11T13:43:10Z</time></trkpt><trkpt lat="44.837190296738044" lon="11.636032772679735"><ele>4.0</ele><time>2026-04-11T13:43:12Z</time></trkpt><trkpt lat="44.83709460910871" lon="11.636033995389973"><ele>4.0</ele><time>2026-04-11T13:43:14Z</time></trkpt><trkpt lat="44.83700199989183" lon="11.636033442703845"><ele>4.0</ele><time>2026-04-11T13:43:16Z</time></trkpt><trkpt lat="44.83690927655209" lon="11.636039526309071"><ele>4.0</ele><time>2026-04-11T13:43:18Z</time></trkpt><trkpt lat="44.83681802224461" lon="11.63603610907603"><ele>4.0</ele><time>2026-04-11T13:43:20Z</time></trkpt><trkpt lat="44.83672384948469" lon="11.63604092112362"><ele>4.0</ele><time>2026-04-11T13:43:22Z</time></trkpt><trkpt lat="44.8366315678297" lon="11.636037330003317"><ele>4.0</ele><time>2026-04-11T13:43:24Z</time></trkpt><trkpt lat="44.83653700035976" lon="11.63603789578259"><ele>4.0</ele><time>2026-04-11T13:43:26Z</time></trkpt><trkpt lat="44.83644300967693" lon="11.636041253494215"><ele>4.2</ele><time>2026-04-11T13:43:28Z</time></trkpt><trkpt lat="44.83634866859166" lon="11.636036068704533"><ele>4.4</ele><time>2026-04-11T13:43:30Z</time></trkpt><trkpt lat="44.83625533020267" lon="11.63604296975144"><ele>4.6</ele><time>2026-04-11T13:43:32Z</time></trkpt><trkpt lat="44.836162572635075" lon="11.636044235968201"><ele>4.8</ele><time>2026-04-11T13:43:34Z</time></trkpt><trkpt lat="44.83607159466727" lon="11.636065930659397"><ele>5.0</ele><time>2026-04-11T13:43:36Z</time></trkpt><trkpt lat="44.83597960576146" lon="11.63610834611585"><ele>5.2</ele><time>2026-04-11T13:43:38Z</time></trkpt><trkpt lat="44.83589094005267" lon="11.636162521394489"><ele>5.4</ele><time>2026-04-11T13:43:40Z</time></trkpt><trkpt lat="44.83580320262943" lon="11.636227425564112"><ele>5.6</ele><time>2026-04-11T13:43:42Z</time></trkpt><trkpt lat="44.83571773129623" lon="11.636290950753278"><ele>5.8</ele><time>2026-04-11T13:43:44Z</time></trkpt><trkpt lat="44.83563181303041" lon="11.636361963436853"><ele>6.0</ele><time>2026-04-11T13:43:46Z</time></trkpt><trkpt lat="44.83554505609105" lon="11.636429853593995"><ele>6.0</ele><time>2026-04-11T13:43:48Z</time></trkpt><trkpt lat="44.83546027936663" lon="11.636501252235915"><ele>6.0</ele><time>2026-04-11T13:43:50Z</time></trkpt><trkpt lat="44.835373263575555" lon="11.636566613338822"><ele>6.0</ele><time>2026-04-11T13:43:52Z</time></trkpt><trkpt lat="44.835290386965454" lon="11.636637138899307"><ele>6.0</ele><time>2026-04-11T13:43:54Z</time></trkpt><trkpt lat="44.83520110117271" lon="11.636707773483902"><ele>6.0</ele><time>2026-04-11T13:43:56Z</time></trkpt><trkpt lat="44.83511819532101" lon="11.636767280063198"><ele>5.8</ele><time>2026-04-11T13:43:58Z</time></trkpt><trkpt lat="44.835034381010274" lon="11.63683308167643"><ele>5.6</ele><time>2026-04-11T13:44:00Z</time></trkpt><trkpt lat="44.834949420855985" lon="11.636897522065746"><ele>5.4</ele><time>2026-04-11T13:44:02Z</time></trkpt><trkpt lat="44.83487045702766" lon="11.636965197724527"><ele>5.2</ele><time>2026-04-11T13:44:04Z</time></trkpt><trkpt lat="44.83478571772911" lon="11.637022236041512"><ele>5.0</ele><time>2026-04-11T13:44:06Z</time></trkpt><trkpt lat="44.83470354489759" lon="11.637091070338686"><ele>5.0</ele><time>2026-04-11T13:44:08Z</time></trkpt><trkpt lat="44.8346272354358" lon="11.637154492702184"><ele>5.0</ele><time>2026-04-11T13:44:10Z</time></trkpt><trkpt lat="44.83455286269476" lon="11.637214137025445"><ele>5.0</ele><time>2026-04-11T13:44:12Z</time></trkpt><trkpt lat="44.834482400969115" lon="11.63728055012016"><ele>5.0</ele><time>2026-04-11T13:44:14Z</time></trkpt><trkpt lat="44.83442580696919" lon="11.63735630122645"><ele>5.0</ele><time>2026-04-11T13:44:16Z</time></trkpt><trkpt lat="44.83436926887087" lon="11.637420082727234"><ele>5.0</ele><time>2026-04-11T13:44:18Z</time></trkpt><trkpt lat="44.83428788865465" lon="11.637456584085639"><ele>5.0</ele><time>2026-04-11T13:44:20Z</time></trkpt><trkpt lat="44.834208816195805" lon="11.637521244500155"><ele>5.0</ele><time>2026-04-11T13:44:22Z</time></trkpt><trkpt lat="44.83415524836081" lon="11.637624625391334"><ele>5.0</ele><time>2026-04-11T13:44:24Z</time></trkpt><trkpt lat="44.8341296060149" lon="11.637745656687807"><ele>5.0</ele><time>2026-04-11T13:44:26Z</time></trkpt><trkpt lat="44.834136494238294" lon="11.637875038420304"><ele>5.0</ele><time>2026-04-11T13:44:28Z</time></trkpt><trkpt lat="44.83415205264576" lon="11.638002116125291"><ele>5.0</ele><time>2026-04-11T13:44:30Z</time></trkpt><trkpt lat="44.83414827351353" lon="11.63813499328664"><ele>5.0</ele><time>2026-04-11T13:44:32Z</time></trkpt><trkpt lat="44.83411577239342" lon="11.638253813409344"><ele>5.0</ele><time>2026-04-11T13:44:34Z</time></trkpt><trkpt lat="44.83407838805092" lon="11.638366725698816"><ele>5.0</ele><time>2026-04-11T13:44:36Z</time></trkpt><trkpt lat="44.8340438627343" lon="11.638476570205137"><ele>5.0</ele><time>2026-04-11T13:44:38Z</time></trkpt><trkpt lat="44.83400497463268" lon="11.638600680642776"><ele>4.8</ele><time>2026-04-11T13:44:40Z</time></trkpt><trkpt lat="44.83396325414926" lon="11.638723984459025"><ele>4.6</ele><time>2026-04-11T13:44:42Z</time></trkpt><trkpt lat="44.833924654749005" lon="11.63884931299035"><ele>4.4</ele><time>2026-04-11T13:44:44Z</time></trkpt><trkpt lat="44.83387892564802" lon="11.638981141528022"><ele>4.2</ele><time>2026-04-11T13:44:46Z</time></trkpt><trkpt lat="44.83383819110313" lon="11.639131287512512"><ele>4.0</ele><time>2026-04-11T13:44:48Z</time></trkpt><trkpt lat="44.83379257525357" lon="11.639269204708347"><ele>4.0</ele><time>2026-04-11T13:44:50Z</time></trkpt><trkpt lat="44.83375341685589" lon="11.639418741868466"><ele>4.0</ele><time>2026-04-11T13:44:52Z</time></trkpt><trkpt lat="44.8337120966671" lon="11.639568222487641"><ele>4.0</ele><time>2026-04-11T13:44:54Z</time></trkpt><trkpt lat="44.83367410315605" lon="11.639706301918627"><ele>4.0</ele><time>2026-04-11T13:44:56Z</time></trkpt><trkpt lat="44.83363800440518" lon="11.639833284435849"><ele>4.0</ele><time>2026-04-11T13:44:58Z</time></trkpt><trkpt lat="44.8336087032196" lon="11.639953214786356"><ele>3.9999999999999996</ele><time>2026-04-11T13:45:00Z</time></trkpt><trkpt lat="44.83357614866637" lon="11.640064883535839"><ele>4.0</ele><time>2026-04-11T13:45:02Z</time></trkpt><trkpt lat="44.83354654826999" lon="11.640174218811124"><ele>4.0</ele><time>2026-04-11T13:45:04Z</time></trkpt><trkpt lat="44.833515031149894" lon="11.640285968069911"><ele>4.0</ele><time>2026-04-11T13:45:06Z</time></trkpt><trkpt lat="44.8334846368363" lon="11.640392254005983"><ele>3.9999999999999996</ele><time>2026-04-11T13:45:08Z</time></trkpt><trkpt lat="44.833455289466976" lon="11.640491064879347"><ele>4.0</ele><time>2026-04-11T13:45:10Z</time></trkpt><trkpt lat="44.83342384108706" lon="11.640573720156237"><ele>4.166666666666666</ele><time>2026-04-11T13:45:12Z</time></trkpt><trkpt lat="44.833394573536474" lon="11.64068001007956"><ele>4.333333333333333</ele><time>2026-04-11T13:45:14Z</time></trkpt><trkpt lat="44.83337068375739" lon="11.64078227222984"><ele>4.5</ele><time>2026-04-11T13:45:16Z</time></trkpt><trkpt lat="44.833337229531395" lon="11.640865030440299"><ele>4.666666666666667</ele><time>2026-04-11T13:45:19Z</time></trkpt><trkpt lat="44.833289470889746" lon="11.640950946494723"><ele>4.833333333333334</ele><time>2026-04-11T13:45:22Z</time></trkpt><trkpt lat="44.833270570909434" lon="11.64106165568486"><ele>5.0</ele><time>2026-04-11T13:45:24Z</time></trkpt><trkpt lat="44.83323729178302" lon="11.641146529906964"><ele>5.166666666666667</ele><time>2026-04-11T13:45:26Z</time></trkpt><trkpt lat="44.83320602990773" lon="11.641238138234696"><ele>5.333333333333334</ele><time>2026-04-11T13:45:28Z</time></trkpt><trkpt lat="44.83316525047427" lon="11.641318746293324"><ele>5.5</ele><time>2026-04-11T13:45:30Z</time></trkpt><trkpt lat="44.833119083236134" lon="11.64138921959395"><ele>5.666666666666667</ele><time>2026-04-11T13:45:32Z</time></trkpt><trkpt lat="44.83306128025206" lon="11.641479506276552"><ele>5.833333333333333</ele><time>2026-04-11T13:45:34Z</time></trkpt><trkpt lat="44.83299647122223" lon="11.64156870652047"><ele>6.0</ele><time>2026-04-11T13:45:36Z</time></trkpt><trkpt lat="44.832929915841845" lon="11.641639338717365"><ele>6.0</ele><time>2026-04-11T13:45:38Z</time></trkpt><trkpt lat="44.83286135670549" lon="11.64171363387125"><ele>6.0</ele><time>2026-04-11T13:45:40Z</time></trkpt><trkpt lat="44.8328007117986" lon="11.6418084927156"><ele>6.0</ele><time>2026-04-11T13:45:42Z</time></trkpt><trkpt lat="44.83274474544589" lon="11.641906587642053"><ele>6.0</ele><time>2026-04-11T13:45:44Z</time></trkpt><trkpt lat="44.83270114036524" lon="11.642007999348479"><ele>6.0</ele><time>2026-04-11T13:45:46Z</time></trkpt><trkpt lat="44.83266325094067" lon="11.642110130951064"><ele>6.0</ele><time>2026-04-11T13:45:48Z</time></trkpt><trkpt lat="44.83263688132255" lon="11.642210253247896"><ele>5.5</ele><time>2026-04-11T13:45:50Z</time></trkpt><trkpt lat="44.83260627668735" lon="11.642333893458085"><ele>5.0</ele><time>2026-04-11T13:45:52Z</time></trkpt><trkpt lat="44.832589047354034" lon="11.642444257461253"><ele>4.5</ele><time>2026-04-11T13:45:54Z</time></trkpt><trkpt lat="44.83258162937308" lon="11.642574422888472"><ele>4.0</ele><time>2026-04-11T13:45:56Z</time></trkpt><trkpt lat="44.83258220354908" lon="11.642702929811861"><ele>3.5</ele><time>2026-04-11T13:45:58Z</time></trkpt><trkpt lat="44.83258959502552" lon="11.642828788823843"><ele>3.0</ele><time>2026-04-11T13:46:00Z</time></trkpt><trkpt lat="44.8326024117725" lon="11.642957649713322"><ele>3.0</ele><time>2026-04-11T13:46:02Z</time></trkpt><trkpt lat="44.83261637877885" lon="11.643086551649928"><ele>3.0</ele><time>2026-04-11T13:46:04Z</time></trkpt><trkpt lat="44.83263468859996" lon="11.643209482673278"><ele>3.0</ele><time>2026-04-11T13:46:06Z</time></trkpt><trkpt lat="44.832639735533476" lon="11.643328380611074"><ele>3.0</ele><time>2026-04-11T13:46:08Z</time></trkpt><trkpt lat="44.83263887531798" lon="11.643443122789495"><ele>3.0</ele><time>2026-04-11T13:46:10Z</time></trkpt><trkpt lat="44.832627411061736" lon="11.643549258143763"><ele>3.0</ele><time>2026-04-11T13:46:12Z</time></trkpt><trkpt lat="44.832613589052514" lon="11.643662695622389"><ele>2.8333333333333335</ele><time>2026-04-11T13:46:14Z</time></trkpt><trkpt lat="44.83258932174471" lon="11.643781956046235"><ele>2.6666666666666665</ele><time>2026-04-11T13:46:16Z</time></trkpt><trkpt lat="44.83256414932247" lon="11.643887169870169"><ele>2.5</ele><time>2026-04-11T13:46:18Z</time></trkpt><trkpt lat="44.832541386678734" lon="11.643990159323701"><ele>2.333333333333333</ele><time>2026-04-11T13:46:20Z</time></trkpt><trkpt lat="44.8325104404477" lon="11.644097495415739"><ele>2.1666666666666665</ele><time>2026-04-11T13:46:22Z</time></trkpt><trkpt lat="44.83248372535862" lon="11.644200776561114"><ele>2.0</ele><time>2026-04-11T13:46:24Z</time></trkpt><trkpt lat="44.83246022661535" lon="11.644293854808161"><ele>2.0</ele><time>2026-04-11T13:46:26Z</time></trkpt><trkpt lat="44.83243597637747" lon="11.64439316037198"><ele>1.9999999999999998</ele><time>2026-04-11T13:46:28Z</time></trkpt><trkpt lat="44.832413239411295" lon="11.644484753330593"><ele>2.0</ele><time>2026-04-11T13:46:30Z</time></trkpt><trkpt lat="44.832387504949224" lon="11.644573925046268"><ele>2.0</ele><time>2026-04-11T13:46:32Z</time></trkpt><trkpt lat="44.83236385419827" lon="11.644664198102799"><ele>1.9999999999999998</ele><time>2026-04-11T13:46:34Z</time></trkpt><trkpt lat="44.832345441226394" lon="11.64476825448626"><ele>2.0</ele><time>2026-04-11T13:46:36Z</time></trkpt><trkpt lat="44.832319709778986" lon="11.644872440676558"><ele>2.0</ele><time>2026-04-11T13:46:38Z</time></trkpt><trkpt lat="44.832294996213484" lon="11.644964382100072"><ele>2.1666666666666665</ele><time>2026-04-11T13:46:39.999Z</time></trkpt><trkpt lat="44.83226987471611" lon="11.645047468465664"><ele>2.333333333333333</ele><time>2026-04-11T13:46:41.999Z</time></trkpt><trkpt lat="44.832253914143685" lon="11.64513981973557"><ele>2.5</ele><time>2026-04-11T13:46:43.999Z</time></trkpt><trkpt lat="44.83222535371195" lon="11.645234639716234"><ele>2.6666666666666665</ele><time>2026-04-11T13:46:46Z</time></trkpt><trkpt lat="44.83216430953455" lon="11.645329292752763"><ele>2.8333333333333335</ele><time>2026-04-11T13:46:49Z</time></trkpt><trkpt lat="44.8320756613248" lon="11.645367563318805"><ele>3.0</ele><time>2026-04-11T13:46:52Z</time></trkpt><trkpt lat="44.831995702798174" lon="11.645391976294674"><ele>3.1666666666666665</ele><time>2026-04-11T13:46:54Z</time></trkpt><trkpt lat="44.83192851160625" lon="11.64541676806331"><ele>3.333333333333333</ele><time>2026-04-11T13:46:56Z</time></trkpt><trkpt lat="44.83185508634569" lon="11.645441489520902"><ele>3.5</ele><time>2026-04-11T13:46:58Z</time></trkpt><trkpt lat="44.831781770636766" lon="11.645468067862812"><ele>3.6666666666666665</ele><time>2026-04-11T13:47:00Z</time></trkpt><trkpt lat="44.83171274284949" lon="11.645518005978376"><ele>3.833333333333333</ele><time>2026-04-11T13:47:02Z</time></trkpt><trkpt lat="44.83163685632191" lon="11.645586864267822"><ele>4.0</ele><time>2026-04-11T13:47:04Z</time></trkpt><trkpt lat="44.83157303241484" lon="11.645664428553458"><ele>3.9999999999999996</ele><time>2026-04-11T13:47:06Z</time></trkpt><trkpt lat="44.83151066937272" lon="11.645722899963493"><ele>4.0</ele><time>2026-04-11T13:47:08Z</time></trkpt><trkpt lat="44.83144232340704" lon="11.645792383337879"><ele>4.0</ele><time>2026-04-11T13:47:10Z</time></trkpt><trkpt lat="44.83137896953838" lon="11.645875012675958"><ele>4.0</ele><time>2026-04-11T13:47:12Z</time></trkpt><trkpt lat="44.831310113388426" lon="11.645935620520005"><ele>3.9999999999999996</ele><time>2026-04-11T13:47:14Z</time></trkpt><trkpt lat="44.831254119917304" lon="11.646002191744202"><ele>4.0</ele><time>2026-04-11T13:47:16Z</time></trkpt><trkpt lat="44.83119457595782" lon="11.64605405264116"><ele>3.9999999999999996</ele><time>2026-04-11T13:47:18Z</time></trkpt><trkpt lat="44.83112494261562" lon="11.646132397369813"><ele>4.0</ele><time>2026-04-11T13:47:21Z</time></trkpt><trkpt lat="44.83115310316747" lon="11.646219876118145"><ele>4.0</ele><time>2026-04-11T13:47:24Z</time></trkpt><trkpt lat="44.83120105046451" lon="11.646281331872528"><ele>4.0</ele><time>2026-04-11T13:47:26Z</time></trkpt><trkpt lat="44.83116862036559" lon="11.646378913456905"><ele>3.9999999999999996</ele><time>2026-04-11T13:47:28Z</time></trkpt><trkpt lat="44.83119257053368" lon="11.646485809933937"><ele>4.0</ele><time>2026-04-11T13:47:30Z</time></trkpt><trkpt lat="44.83125775041828" lon="11.6465789315741"><ele>3.9999999999999996</ele><time>2026-04-11T13:47:32Z</time></trkpt><trkpt lat="44.83132620269458" lon="11.646662481272823"><ele>4.0</ele><time>2026-04-11T13:47:34Z</time></trkpt><trkpt lat="44.8313884882208" lon="11.6467566477932"><ele>4.0</ele><time>2026-04-11T13:47:36Z</time></trkpt><trkpt lat="44.831439429652136" lon="11.646856139775688"><ele>4.0</ele><time>2026-04-11T13:47:38Z</time></trkpt><trkpt lat="44.83148034757822" lon="11.646956380680166"><ele>3.9999999999999996</ele><time>2026-04-11T13:47:40Z</time></trkpt><trkpt lat="44.83149357363997" lon="11.64706561783089"><ele>4.0</ele><time>2026-04-11T13:47:42Z</time></trkpt><trkpt lat="44.83149603360714" lon="11.647173457496816"><ele>4.166666666666666</ele><time>2026-04-11T13:47:44Z</time></trkpt><trkpt lat="44.83149772095702" lon="11.64727657898449"><ele>4.333333333333333</ele><time>2026-04-11T13:47:46Z</time></trkpt><trkpt lat="44.83153668330995" lon="11.647381928308501"><ele>4.5</ele><time>2026-04-11T13:47:48Z</time></trkpt><trkpt lat="44.83158660151749" lon="11.647493656083487"><ele>4.666666666666667</ele><time>2026-04-11T13:47:50Z</time></trkpt><trkpt lat="44.83164038261035" lon="11.647599437625313"><ele>4.833333333333334</ele><time>2026-04-11T13:47:52Z</time></trkpt><trkpt lat="44.83169519263339" lon="11.647699795482323"><ele>5.0</ele><time>2026-04-11T13:47:54Z</time></trkpt><trkpt lat="44.831755898499274" lon="11.647790208711863"><ele>4.8</ele><time>2026-04-11T13:47:56Z</time></trkpt><trkpt lat="44.83180543173294" lon="11.64790260495504"><ele>4.6</ele><time>2026-04-11T13:47:58Z</time></trkpt><trkpt lat="44.8318577262728" lon="11.648010493262202"><ele>4.4</ele><time>2026-04-11T13:48:00Z</time></trkpt><trkpt lat="44.83190602788459" lon="11.648121942646174"><ele>4.2</ele><time>2026-04-11T13:48:02Z</time></trkpt><trkpt lat="44.831955833475355" lon="11.648233630439394"><ele>4.0</ele><time>2026-04-11T13:48:04Z</time></trkpt><trkpt lat="44.83200128032297" lon="11.648345072171265"><ele>3.9999999999999996</ele><time>2026-04-11T13:48:06Z</time></trkpt><trkpt lat="44.832042713189075" lon="11.648456920564321"><ele>4.0</ele><time>2026-04-11T13:48:08Z</time></trkpt><trkpt lat="44.8320880664268" lon="11.648569027314693"><ele>4.0</ele><time>2026-04-11T13:48:10Z</time></trkpt><trkpt lat="44.832131383834216" lon="11.648679049175348"><ele>4.0</ele><time>2026-04-11T13:48:12Z</time></trkpt><trkpt lat="44.8321764186241" lon="11.648787685287768"><ele>3.9999999999999996</ele><time>2026-04-11T13:48:14Z</time></trkpt><trkpt lat="44.83222335746846" lon="11.648895975752257"><ele>4.0</ele><time>2026-04-11T13:48:16Z</time></trkpt><trkpt lat="44.832277585739064" lon="11.648994981141836"><ele>4.166666666666666</ele><time>2026-04-11T13:48:18Z</time></trkpt><trkpt lat="44.8323265100315" lon="11.649094934196844"><ele>4.333333333333333</ele><time>2026-04-11T13:48:20Z</time></trkpt><trkpt lat="44.83237270920018" lon="11.649179556807626"><ele>4.5</ele><time>2026-04-11T13:48:22Z</time></trkpt><trkpt lat="44.83241617386801" lon="11.649275574135968"><ele>4.666666666666667</ele><time>2026-04-11T13:48:24Z</time></trkpt><trkpt lat="44.832468905122354" lon="11.649374339961847"><ele>4.833333333333334</ele><time>2026-04-11T13:48:26Z</time></trkpt><trkpt lat="44.832517861385064" lon="11.649483609352744"><ele>5.0</ele><time>2026-04-11T13:48:28Z</time></trkpt><trkpt lat="44.832570823274736" lon="11.649579401957702"><ele>5.0</ele><time>2026-04-11T13:48:30Z</time></trkpt><trkpt lat="44.832623056910876" lon="11.64968476030732"><ele>5.0</ele><time>2026-04-11T13:48:32Z</time></trkpt><trkpt lat="44.83267805499085" lon="11.649781904672444"><ele>5.0</ele><time>2026-04-11T13:48:34Z</time></trkpt><trkpt lat="44.83273445902999" lon="11.64988253939941"><ele>5.0</ele><time>2026-04-11T13:48:36Z</time></trkpt><trkpt lat="44.8327897186103" lon="11.649978959535373"><ele>5.0</ele><time>2026-04-11T13:48:38Z</time></trkpt><trkpt lat="44.832841424411754" lon="11.650084470941268"><ele>5.0</ele><time>2026-04-11T13:48:39.999Z</time></trkpt><trkpt lat="44.83289592166444" lon="11.650178379528384"><ele>4.833333333333334</ele><time>2026-04-11T13:48:41.999Z</time></trkpt><trkpt lat="44.832946175754294" lon="11.650268900847829"><ele>4.666666666666667</ele><time>2026-04-11T13:48:43.999Z</time></trkpt><trkpt lat="44.83299291423608" lon="11.650352426833896"><ele>4.5</ele><time>2026-04-11T13:48:45.999Z</time></trkpt><trkpt lat="44.83303477864345" lon="11.650434617676048"><ele>4.333333333333333</ele><time>2026-04-11T13:48:47.999Z</time></trkpt><trkpt lat="44.83308228358482" lon="11.650521851243626"><ele>4.166666666666666</ele><time>2026-04-11T13:48:49.999Z</time></trkpt><trkpt lat="44.83313670820072" lon="11.650619244775493"><ele>4.0</ele><time>2026-04-11T13:48:52Z</time></trkpt><trkpt lat="44.833192337388475" lon="11.65071615580271"><ele>3.833333333333333</ele><time>2026-04-11T13:48:54Z</time></trkpt><trkpt lat="44.83324642141167" lon="11.650803135787875"><ele>3.6666666666666665</ele><time>2026-04-11T13:48:56Z</time></trkpt><trkpt lat="44.833294086152584" lon="11.650892916191241"><ele>3.5</ele><time>2026-04-11T13:48:58Z</time></trkpt><trkpt lat="44.83334675703585" lon="11.650981692869943"><ele>3.333333333333333</ele><time>2026-04-11T13:49:00Z</time></trkpt><trkpt lat="44.83340113218391" lon="11.65108025643134"><ele>3.1666666666666665</ele><time>2026-04-11T13:49:02Z</time></trkpt><trkpt lat="44.83345923185672" lon="11.651181642503243"><ele>3.0</ele><time>2026-04-11T13:49:04Z</time></trkpt><trkpt lat="44.8335162559882" lon="11.651286660819204"><ele>3.0</ele><time>2026-04-11T13:49:06Z</time></trkpt><trkpt lat="44.83357404208392" lon="11.651385300030737"><ele>3.0</ele><time>2026-04-11T13:49:08Z</time></trkpt><trkpt lat="44.83362740181055" lon="11.651480872447708"><ele>3.0</ele><time>2026-04-11T13:49:10Z</time></trkpt><trkpt lat="44.83368564003525" lon="11.651570755542652"><ele>3.0</ele><time>2026-04-11T13:49:12Z</time></trkpt><trkpt lat="44.83373575093913" lon="11.651663469896917"><ele>3.0</ele><time>2026-04-11T13:49:14Z</time></trkpt><trkpt lat="44.83379504905578" lon="11.651764028024909"><ele>3.0</ele><time>2026-04-11T13:49:16Z</time></trkpt><trkpt lat="44.833848081156184" lon="11.651856062777892"><ele>2.9999999999999996</ele><time>2026-04-11T13:49:18Z</time></trkpt><trkpt lat="44.83389790054324" lon="11.651944815509637"><ele>3.0</ele><time>2026-04-11T13:49:20Z</time></trkpt><trkpt lat="44.833947976014244" lon="11.65202535935038"><ele>3.0</ele><time>2026-04-11T13:49:22Z</time></trkpt><trkpt lat="44.83399259429945" lon="11.652107957269228"><ele>3.0</ele><time>2026-04-11T13:49:24Z</time></trkpt><trkpt lat="44.834036362402735" lon="11.652186567645744"><ele>3.0</ele><time>2026-04-11T13:49:26Z</time></trkpt><trkpt lat="44.83407918027694" lon="11.652257713954793"><ele>2.9999999999999996</ele><time>2026-04-11T13:49:28Z</time></trkpt><trkpt lat="44.8341230942369" lon="11.652333995234562"><ele>3.0</ele><time>2026-04-11T13:49:30Z</time></trkpt><trkpt lat="44.834171596648595" lon="11.652428468763285"><ele>3.1666666666666665</ele><time>2026-04-11T13:49:32Z</time></trkpt><trkpt lat="44.834218758253066" lon="11.652511471592684"><ele>3.333333333333333</ele><time>2026-04-11T13:49:34Z</time></trkpt><trkpt lat="44.83426544218491" lon="11.65258759097647"><ele>3.5</ele><time>2026-04-11T13:49:36Z</time></trkpt><trkpt lat="44.834303106901636" lon="11.652674968614305"><ele>3.6666666666666665</ele><time>2026-04-11T13:49:38Z</time></trkpt><trkpt lat="44.83434912659388" lon="11.652749188518387"><ele>3.833333333333333</ele><time>2026-04-11T13:49:40Z</time></trkpt><trkpt lat="44.834400097521716" lon="11.652841143510669"><ele>4.0</ele><time>2026-04-11T13:49:42Z</time></trkpt><trkpt lat="44.834455971363944" lon="11.65293845329544"><ele>4.166666666666666</ele><time>2026-04-11T13:49:44Z</time></trkpt><trkpt lat="44.834510647158" lon="11.653037408613363"><ele>4.333333333333333</ele><time>2026-04-11T13:49:46Z</time></trkpt><trkpt lat="44.83456101638711" lon="11.653130171948655"><ele>4.5</ele><time>2026-04-11T13:49:48Z</time></trkpt><trkpt lat="44.834615521667395" lon="11.653224773167963"><ele>4.666666666666667</ele><time>2026-04-11T13:49:50Z</time></trkpt><trkpt lat="44.83467149917021" lon="11.653324771791862"><ele>4.833333333333334</ele><time>2026-04-11T13:49:52Z</time></trkpt><trkpt lat="44.83472476876991" lon="11.65341854710632"><ele>5.0</ele><time>2026-04-11T13:49:54Z</time></trkpt><trkpt lat="44.83477824644466" lon="11.653513460680264"><ele>5.0</ele><time>2026-04-11T13:49:56Z</time></trkpt><trkpt lat="44.83483386858017" lon="11.653612006370825"><ele>5.0</ele><time>2026-04-11T13:49:58Z</time></trkpt><trkpt lat="44.834893107220125" lon="11.653711722703939"><ele>5.0</ele><time>2026-04-11T13:50:00Z</time></trkpt><trkpt lat="44.834949474084375" lon="11.653812724536323"><ele>5.0</ele><time>2026-04-11T13:50:02Z</time></trkpt><trkpt lat="44.8350010595615" lon="11.653917552864204"><ele>5.0</ele><time>2026-04-11T13:50:04Z</time></trkpt><trkpt lat="44.8350545291226" lon="11.65402028579935"><ele>4.5</ele><time>2026-04-11T13:50:06Z</time></trkpt><trkpt lat="44.83511026217208" lon="11.654123293906329"><ele>4.0</ele><time>2026-04-11T13:50:08Z</time></trkpt><trkpt lat="44.835161562685514" lon="11.654225026330208"><ele>3.5</ele><time>2026-04-11T13:50:10Z</time></trkpt><trkpt lat="44.835211466324395" lon="11.654323510291045"><ele>3.0</ele><time>2026-04-11T13:50:12Z</time></trkpt><trkpt lat="44.835259977857525" lon="11.654423551134776"><ele>2.5</ele><time>2026-04-11T13:50:14Z</time></trkpt><trkpt lat="44.835302321540865" lon="11.654518854291117"><ele>2.0</ele><time>2026-04-11T13:50:16Z</time></trkpt><trkpt lat="44.83534848512065" lon="11.654610870236382"><ele>1.9999999999999998</ele><time>2026-04-11T13:50:18Z</time></trkpt><trkpt lat="44.83538718897322" lon="11.654701820723771"><ele>2.0</ele><time>2026-04-11T13:50:20Z</time></trkpt><trkpt lat="44.835435455134416" lon="11.65480385981963"><ele>2.0</ele><time>2026-04-11T13:50:22Z</time></trkpt><trkpt lat="44.83548572696183" lon="11.654906924870822"><ele>2.0</ele><time>2026-04-11T13:50:24Z</time></trkpt><trkpt lat="44.83553125596524" lon="11.655013069881104"><ele>1.9999999999999998</ele><time>2026-04-11T13:50:26Z</time></trkpt><trkpt lat="44.835568589725526" lon="11.655111792048123"><ele>2.0</ele><time>2026-04-11T13:50:28Z</time></trkpt><trkpt lat="44.8356050841684" lon="11.65521149385498"><ele>1.8</ele><time>2026-04-11T13:50:30Z</time></trkpt><trkpt lat="44.83564341078327" lon="11.655321496577493"><ele>1.6</ele><time>2026-04-11T13:50:32Z</time></trkpt><trkpt lat="44.83568678402654" lon="11.655436880664249"><ele>1.4000000000000001</ele><time>2026-04-11T13:50:34Z</time></trkpt><trkpt lat="44.83572983427893" lon="11.655560401283868"><ele>1.2000000000000002</ele><time>2026-04-11T13:50:35.999Z</time></trkpt><trkpt lat="44.83576995368679" lon="11.655679399481096"><ele>1.0</ele><time>2026-04-11T13:50:37.999Z</time></trkpt><trkpt lat="44.83581446171872" lon="11.655793806358256"><ele>1.0</ele><time>2026-04-11T13:50:39.999Z</time></trkpt><trkpt lat="44.83586233363959" lon="11.655905422742077"><ele>1.0</ele><time>2026-04-11T13:50:41.999Z</time></trkpt><trkpt lat="44.83590551628646" lon="11.656021073799065"><ele>1.0</ele><time>2026-04-11T13:50:43.999Z</time></trkpt><trkpt lat="44.83595065568149" lon="11.65613581539266"><ele>1.0</ele><time>2026-04-11T13:50:45.999Z</time></trkpt><trkpt lat="44.83599404280285" lon="11.656247444298115"><ele>1.0</ele><time>2026-04-11T13:50:47.999Z</time></trkpt><trkpt lat="44.836034862311855" lon="11.656360626898254"><ele>1.1666666666666665</ele><time>2026-04-11T13:50:49.999Z</time></trkpt><trkpt lat="44.836077265013365" lon="11.656467008018987"><ele>1.3333333333333333</ele><time>2026-04-11T13:50:51.999Z</time></trkpt><trkpt lat="44.83611440184204" lon="11.656576528980285"><ele>1.5</ele><time>2026-04-11T13:50:53.999Z</time></trkpt><trkpt lat="44.836151956343215" lon="11.65667335778863"><ele>1.6666666666666665</ele><time>2026-04-11T13:50:55.999Z</time></trkpt><trkpt lat="44.8361909507837" lon="11.656772595019712"><ele>1.8333333333333333</ele><time>2026-04-11T13:50:58Z</time></trkpt><trkpt lat="44.836231111058765" lon="11.656876346528076"><ele>2.0</ele><time>2026-04-11T13:51:00Z</time></trkpt><trkpt lat="44.83627050085712" lon="11.656984614214878"><ele>2.1666666666666665</ele><time>2026-04-11T13:51:02Z</time></trkpt><trkpt lat="44.83630848551787" lon="11.657084055824438"><ele>2.333333333333333</ele><time>2026-04-11T13:51:04Z</time></trkpt><trkpt lat="44.83634482644762" lon="11.657188156834199"><ele>2.5</ele><time>2026-04-11T13:51:06Z</time></trkpt><trkpt lat="44.83638771880094" lon="11.657289353196889"><ele>2.6666666666666665</ele><time>2026-04-11T13:51:08Z</time></trkpt><trkpt lat="44.83642819562236" lon="11.657393727716729"><ele>2.8333333333333335</ele><time>2026-04-11T13:51:10Z</time></trkpt><trkpt lat="44.83646333917115" lon="11.657490449688625"><ele>3.0</ele><time>2026-04-11T13:51:12Z</time></trkpt><trkpt lat="44.83649632316674" lon="11.657576826246732"><ele>2.9999999999999996</ele><time>2026-04-11T13:51:14Z</time></trkpt><trkpt lat="44.83653039892324" lon="11.657661861511338"><ele>3.0</ele><time>2026-04-11T13:51:16Z</time></trkpt><trkpt lat="44.83656621630432" lon="11.657763013999947"><ele>3.0</ele><time>2026-04-11T13:51:18Z</time></trkpt><trkpt lat="44.836602411961586" lon="11.657867410840172"><ele>3.0</ele><time>2026-04-11T13:51:20Z</time></trkpt><trkpt lat="44.836639633788" lon="11.65795505010413"><ele>3.0</ele><time>2026-04-11T13:51:22Z</time></trkpt><trkpt lat="44.836672332058214" lon="11.658034959652792"><ele>2.9999999999999996</ele><time>2026-04-11T13:51:24Z</time></trkpt><trkpt lat="44.8367002153113" lon="11.658116243910552"><ele>3.0</ele><time>2026-04-11T13:51:26Z</time></trkpt><trkpt lat="44.836743990567086" lon="11.658222202322833"><ele>3.1666666666666665</ele><time>2026-04-11T13:51:29Z</time></trkpt><trkpt lat="44.836774348518915" lon="11.658324107039014"><ele>3.333333333333333</ele><time>2026-04-11T13:51:32Z</time></trkpt><trkpt lat="44.83680780573269" lon="11.658403500866596"><ele>3.5</ele><time>2026-04-11T13:51:35Z</time></trkpt><trkpt lat="44.83687512841196" lon="11.65848110512187"><ele>3.6666666666666665</ele><time>2026-04-11T13:51:38Z</time></trkpt><trkpt lat="44.836939259082165" lon="11.658559363186408"><ele>3.833333333333333</ele><time>2026-04-11T13:51:41Z</time></trkpt><trkpt lat="44.83697488861324" lon="11.658659045852403"><ele>4.0</ele><time>2026-04-11T13:51:44Z</time></trkpt><trkpt lat="44.83700646198454" lon="11.658750951243883"><ele>4.333333333333333</ele><time>2026-04-11T13:51:47Z</time></trkpt><trkpt lat="44.8370246447723" lon="11.65883847619859"><ele>4.666666666666666</ele><time>2026-04-11T13:51:50Z</time></trkpt><trkpt lat="44.83706413865357" lon="11.658933796265059"><ele>5.0</ele><time>2026-04-11T13:51:54Z</time></trkpt><trkpt lat="44.83712760025802" lon="11.659034657822524"><ele>5.333333333333333</ele><time>2026-04-11T13:51:57Z</time></trkpt><trkpt lat="44.837168119584796" lon="11.659146964638817"><ele>5.666666666666667</ele><time>2026-04-11T13:51:59Z</time></trkpt><trkpt lat="44.83719915297321" lon="11.659247204374106"><ele>6.0</ele><time>2026-04-11T13:52:01Z</time></trkpt><trkpt lat="44.83722265053556" lon="11.65933762942843"><ele>6.0</ele><time>2026-04-11T13:52:03Z</time></trkpt><trkpt lat="44.837255716253445" lon="11.659456920076563"><ele>6.0</ele><time>2026-04-11T13:52:06Z</time></trkpt><trkpt lat="44.837306392973645" lon="11.659552721559134"><ele>6.0</ele><time>2026-04-11T13:52:09Z</time></trkpt><trkpt lat="44.83735450380864" lon="11.659664519452564"><ele>6.0</ele><time>2026-04-11T13:52:12Z</time></trkpt><trkpt lat="44.83738935146311" lon="11.659774266444023"><ele>6.0</ele><time>2026-04-11T13:52:14Z</time></trkpt><trkpt lat="44.83743130472152" lon="11.659884414434591"><ele>6.0</ele><time>2026-04-11T13:52:16Z</time></trkpt><trkpt lat="44.83746066909242" lon="11.65998743616664"><ele>6.0</ele><time>2026-04-11T13:52:18Z</time></trkpt><trkpt lat="44.83749229870464" lon="11.660090022668047"><ele>6.0</ele><time>2026-04-11T13:52:20Z</time></trkpt><trkpt lat="44.83753646302016" lon="11.660196823002627"><ele>6.0</ele><time>2026-04-11T13:52:22Z</time></trkpt><trkpt lat="44.83758089584381" lon="11.66030247028516"><ele>6.0</ele><time>2026-04-11T13:52:24Z</time></trkpt><trkpt lat="44.83762150429857" lon="11.660413427089177"><ele>6.0</ele><time>2026-04-11T13:52:26Z</time></trkpt><trkpt lat="44.837659486142954" lon="11.660527955782506"><ele>6.0</ele><time>2026-04-11T13:52:28Z</time></trkpt><trkpt lat="44.83769964930154" lon="11.660641756627301"><ele>6.0</ele><time>2026-04-11T13:52:30Z</time></trkpt><trkpt lat="44.83773980630185" lon="11.660753277530562"><ele>6.0</ele><time>2026-04-11T13:52:32Z</time></trkpt><trkpt lat="44.83777811111467" lon="11.660868748240297"><ele>6.0</ele><time>2026-04-11T13:52:34Z</time></trkpt><trkpt lat="44.83782053206808" lon="11.66097926356239"><ele>6.0</ele><time>2026-04-11T13:52:36Z</time></trkpt><trkpt lat="44.83786416257593" lon="11.66109275353723"><ele>6.0</ele><time>2026-04-11T13:52:38Z</time></trkpt><trkpt lat="44.837905767981326" lon="11.661208354174144"><ele>6.166666666666667</ele><time>2026-04-11T13:52:40Z</time></trkpt><trkpt lat="44.837958449494224" lon="11.661313751175957"><ele>6.333333333333334</ele><time>2026-04-11T13:52:41.999Z</time></trkpt><trkpt lat="44.838005036549355" lon="11.661415076493059"><ele>6.5</ele><time>2026-04-11T13:52:43.999Z</time></trkpt><trkpt lat="44.83803385190955" lon="11.66152703146833"><ele>6.666666666666667</ele><time>2026-04-11T13:52:45.999Z</time></trkpt><trkpt lat="44.83806322635558" lon="11.661626914448858"><ele>6.833333333333334</ele><time>2026-04-11T13:52:47.999Z</time></trkpt><trkpt lat="44.83810930339274" lon="11.661700548132897"><ele>7.0</ele><time>2026-04-11T13:52:49.999Z</time></trkpt><trkpt lat="44.83813444231365" lon="11.66178525416981"><ele>7.000000000000001</ele><time>2026-04-11T13:52:51.999Z</time></trkpt><trkpt lat="44.838172358977516" lon="11.661891202397019"><ele>7.0</ele><time>2026-04-11T13:52:54.999Z</time></trkpt><trkpt lat="44.838223264047606" lon="11.66200672963164"><ele>7.0</ele><time>2026-04-11T13:52:58.999Z</time></trkpt><trkpt lat="44.8382882818935" lon="11.662053615506577"><ele>7.0</ele><time>2026-04-11T13:53:00.999Z</time></trkpt><trkpt lat="44.83832744583528" lon="11.662152536370513"><ele>7.000000000000001</ele><time>2026-04-11T13:53:04Z</time></trkpt><trkpt lat="44.83831836535378" lon="11.66227024484336"><ele>7.0</ele><time>2026-04-11T13:53:06Z</time></trkpt><trkpt lat="44.838312024941104" lon="11.662394629688526"><ele>6.833333333333334</ele><time>2026-04-11T13:53:08Z</time></trkpt><trkpt lat="44.83830694301113" lon="11.66251331590635"><ele>6.666666666666667</ele><time>2026-04-11T13:53:10Z</time></trkpt><trkpt lat="44.83829698167437" lon="11.662633702652133"><ele>6.5</ele><time>2026-04-11T13:53:12Z</time></trkpt><trkpt lat="44.83829246154939" lon="11.66276276784234"><ele>6.333333333333334</ele><time>2026-04-11T13:53:14Z</time></trkpt><trkpt lat="44.838280980485955" lon="11.662890006930652"><ele>6.166666666666667</ele><time>2026-04-11T13:53:16Z</time></trkpt><trkpt lat="44.83827012127196" lon="11.663017111523306"><ele>6.0</ele><time>2026-04-11T13:53:18Z</time></trkpt><trkpt lat="44.83825804301416" lon="11.663148646535701"><ele>5.8</ele><time>2026-04-11T13:53:20Z</time></trkpt><trkpt lat="44.838249788859365" lon="11.663280699474122"><ele>5.6</ele><time>2026-04-11T13:53:22Z</time></trkpt><trkpt lat="44.83823764661172" lon="11.66341086962803"><ele>5.4</ele><time>2026-04-11T13:53:24Z</time></trkpt><trkpt lat="44.83822482250031" lon="11.663542913193478"><ele>5.2</ele><time>2026-04-11T13:53:26Z</time></trkpt><trkpt lat="44.83820761754473" lon="11.663670676125548"><ele>5.0</ele><time>2026-04-11T13:53:28Z</time></trkpt><trkpt lat="44.83819497037697" lon="11.663805833293175"><ele>5.0</ele><time>2026-04-11T13:53:30Z</time></trkpt><trkpt lat="44.83818283512175" lon="11.663942726071618"><ele>5.0</ele><time>2026-04-11T13:53:32Z</time></trkpt><trkpt lat="44.8381637524642" lon="11.664076636499553"><ele>5.0</ele><time>2026-04-11T13:53:34Z</time></trkpt><trkpt lat="44.83815105657469" lon="11.664209074881029"><ele>5.0</ele><time>2026-04-11T13:53:36Z</time></trkpt><trkpt lat="44.838136168755625" lon="11.66434200118599"><ele>5.0</ele><time>2026-04-11T13:53:38Z</time></trkpt><trkpt lat="44.838118938981395" lon="11.664473203681387"><ele>4.8</ele><time>2026-04-11T13:53:40Z</time></trkpt><trkpt lat="44.838105756175814" lon="11.664607802244937"><ele>4.6</ele><time>2026-04-11T13:53:42Z</time></trkpt><trkpt lat="44.838092741630845" lon="11.664739162019677"><ele>4.4</ele><time>2026-04-11T13:53:44Z</time></trkpt><trkpt lat="44.83808585993521" lon="11.664875858381897"><ele>4.2</ele><time>2026-04-11T13:53:46Z</time></trkpt><trkpt lat="44.83807336125475" lon="11.66500570049515"><ele>4.0</ele><time>2026-04-11T13:53:48Z</time></trkpt><trkpt lat="44.838065658189954" lon="11.665125053661255"><ele>3.9999999999999996</ele><time>2026-04-11T13:53:50Z</time></trkpt><trkpt lat="44.83805327439464" lon="11.66523924851672"><ele>4.0</ele><time>2026-04-11T13:53:52Z</time></trkpt><trkpt lat="44.838043803168226" lon="11.665360273050865"><ele>4.0</ele><time>2026-04-11T13:53:54Z</time></trkpt><trkpt lat="44.83802265979966" lon="11.665487213314822"><ele>4.0</ele><time>2026-04-11T13:53:56Z</time></trkpt><trkpt lat="44.838002507387046" lon="11.665613274047127"><ele>3.9999999999999996</ele><time>2026-04-11T13:53:58Z</time></trkpt><trkpt lat="44.837994521441566" lon="11.665739764963456"><ele>4.0</ele><time>2026-04-11T13:54:00Z</time></trkpt><trkpt lat="44.837980582887425" lon="11.665867453281326"><ele>3.833333333333333</ele><time>2026-04-11T13:54:02Z</time></trkpt><trkpt lat="44.8379705381499" lon="11.665992409907359"><ele>3.6666666666666665</ele><time>2026-04-11T13:54:04Z</time></trkpt><trkpt lat="44.83796024945249" lon="11.666117830037104"><ele>3.5</ele><time>2026-04-11T13:54:06Z</time></trkpt><trkpt lat="44.83795877159016" lon="11.666245615841955"><ele>3.333333333333333</ele><time>2026-04-11T13:54:08Z</time></trkpt><trkpt lat="44.83795046540355" lon="11.666371401447538"><ele>3.1666666666666665</ele><time>2026-04-11T13:54:10Z</time></trkpt><trkpt lat="44.83793921987483" lon="11.666488946837134"><ele>3.0</ele><time>2026-04-11T13:54:12Z</time></trkpt><trkpt lat="44.83794123678851" lon="11.666609071970546"><ele>3.1666666666666665</ele><time>2026-04-11T13:54:14Z</time></trkpt><trkpt lat="44.83793189332423" lon="11.666721665380264"><ele>3.333333333333333</ele><time>2026-04-11T13:54:16Z</time></trkpt><trkpt lat="44.83793253577897" lon="11.666841207566016"><ele>3.5</ele><time>2026-04-11T13:54:18Z</time></trkpt><trkpt lat="44.837935599112036" lon="11.666968945127891"><ele>3.6666666666666665</ele><time>2026-04-11T13:54:20Z</time></trkpt><trkpt lat="44.837942309742445" lon="11.667086688392342"><ele>3.833333333333333</ele><time>2026-04-11T13:54:22Z</time></trkpt><trkpt lat="44.83795058899247" lon="11.667199507676237"><ele>4.0</ele><time>2026-04-11T13:54:24Z</time></trkpt><trkpt lat="44.837965618155366" lon="11.667305882470234"><ele>4.0</ele><time>2026-04-11T13:54:26Z</time></trkpt><trkpt lat="44.83798038815675" lon="11.667407082508179"><ele>3.9999999999999996</ele><time>2026-04-11T13:54:28Z</time></trkpt><trkpt lat="44.83799933652222" lon="11.667503917239038"><ele>4.0</ele><time>2026-04-11T13:54:30Z</time></trkpt><trkpt lat="44.8380216838228" lon="11.667593852680735"><ele>4.0</ele><time>2026-04-11T13:54:32Z</time></trkpt><trkpt lat="44.83803204828691" lon="11.667686606998654"><ele>3.9999999999999996</ele><time>2026-04-11T13:54:34Z</time></trkpt><trkpt lat="44.837986408684834" lon="11.667800249875846"><ele>4.0</ele><time>2026-04-11T13:54:37Z</time></trkpt><trkpt lat="44.8379159336407" lon="11.667844868360673"><ele>4.0</ele><time>2026-04-11T13:54:39Z</time></trkpt><trkpt lat="44.83792089583156" lon="11.667937698666805"><ele>3.833333333333333</ele><time>2026-04-11T13:54:42Z</time></trkpt><trkpt lat="44.837955499764206" lon="11.66804169700552"><ele>3.6666666666666665</ele><time>2026-04-11T13:54:45Z</time></trkpt><trkpt lat="44.838002182768946" lon="11.668123269553842"><ele>3.5</ele><time>2026-04-11T13:54:49Z</time></trkpt><trkpt lat="44.8380265085668" lon="11.668207230956206"><ele>3.333333333333333</ele><time>2026-04-11T13:54:51Z</time></trkpt><trkpt lat="44.83805046243745" lon="11.66830961976047"><ele>3.1666666666666665</ele><time>2026-04-11T13:54:53Z</time></trkpt><trkpt lat="44.83807992969501" lon="11.668436474073898"><ele>3.0</ele><time>2026-04-11T13:54:56Z</time></trkpt><trkpt lat="44.83810602777473" lon="11.66854125271124"><ele>2.8333333333333335</ele><time>2026-04-11T13:54:58Z</time></trkpt><trkpt lat="44.83813108646037" lon="11.668627281697262"><ele>2.6666666666666665</ele><time>2026-04-11T13:54:59.999Z</time></trkpt><trkpt lat="44.838153545099935" lon="11.668714253617742"><ele>2.5</ele><time>2026-04-11T13:55:01.999Z</time></trkpt><trkpt lat="44.83818701952922" lon="11.668829534134737"><ele>2.333333333333333</ele><time>2026-04-11T13:55:04.999Z</time></trkpt><trkpt lat="44.838223533845586" lon="11.668960025564054"><ele>2.1666666666666665</ele><time>2026-04-11T13:55:07.999Z</time></trkpt><trkpt lat="44.838250687864544" lon="11.669055014776426"><ele>2.0</ele><time>2026-04-11T13:55:10Z</time></trkpt><trkpt lat="44.838275783561826" lon="11.66914057349979"><ele>2.0</ele><time>2026-04-11T13:55:12Z</time></trkpt><trkpt lat="44.838300028761225" lon="11.669223807670388"><ele>1.9999999999999998</ele><time>2026-04-11T13:55:14Z</time></trkpt><trkpt lat="44.83832933001773" lon="11.669325819525834"><ele>2.0</ele><time>2026-04-11T13:55:16Z</time></trkpt><trkpt lat="44.83835937555152" lon="11.669436883582357"><ele>2.0</ele><time>2026-04-11T13:55:18Z</time></trkpt><trkpt lat="44.83837988083414" lon="11.669527750976458"><ele>1.9999999999999998</ele><time>2026-04-11T13:55:20Z</time></trkpt><trkpt lat="44.838405533243524" lon="11.669612843795196"><ele>2.0</ele><time>2026-04-11T13:55:22Z</time></trkpt><trkpt lat="44.83843573072035" lon="11.669719447339904"><ele>2.0</ele><time>2026-04-11T13:55:24Z</time></trkpt><trkpt lat="44.83846227297026" lon="11.669820341720328"><ele>1.8333333333333333</ele><time>2026-04-11T13:55:26Z</time></trkpt><trkpt lat="44.83848775029132" lon="11.669907159344277"><ele>1.6666666666666665</ele><time>2026-04-11T13:55:28Z</time></trkpt><trkpt lat="44.83851600276948" lon="11.66999532542902"><ele>1.5</ele><time>2026-04-11T13:55:31Z</time></trkpt><trkpt lat="44.83854877765113" lon="11.670110650951816"><ele>1.3333333333333333</ele><time>2026-04-11T13:55:33Z</time></trkpt><trkpt lat="44.83857727399077" lon="11.670218678914015"><ele>1.1666666666666665</ele><time>2026-04-11T13:55:35Z</time></trkpt><trkpt lat="44.838602047879014" lon="11.670319465462573"><ele>1.0</ele><time>2026-04-11T13:55:37Z</time></trkpt><trkpt lat="44.83862650700442" lon="11.670429450003537"><ele>0.9999999999999999</ele><time>2026-04-11T13:55:39Z</time></trkpt><trkpt lat="44.838654242491224" lon="11.67054102258832"><ele>1.0</ele><time>2026-04-11T13:55:41Z</time></trkpt><trkpt lat="44.838681444929904" lon="11.670653720901113"><ele>1.0</ele><time>2026-04-11T13:55:43Z</time></trkpt><trkpt lat="44.83870830761452" lon="11.670763155854724"><ele>1.0</ele><time>2026-04-11T13:55:45Z</time></trkpt><trkpt lat="44.83873400180301" lon="11.670859609684388"><ele>0.9999999999999999</ele><time>2026-04-11T13:55:47Z</time></trkpt><trkpt lat="44.83876300037353" lon="11.670971586418846"><ele>1.0</ele><time>2026-04-11T13:55:50Z</time></trkpt><trkpt lat="44.83877415040545" lon="11.671061500236492"><ele>1.2857142857142856</ele><time>2026-04-11T13:58:22Z</time></trkpt><trkpt lat="44.838786271721794" lon="11.671151304412993"><ele>1.5714285714285712</ele><time>2026-04-11T13:58:50Z</time></trkpt><trkpt lat="44.838811309342326" lon="11.67124061654247"><ele>1.857142857142857</ele><time>2026-04-11T13:58:53Z</time></trkpt><trkpt lat="44.83883565446617" lon="11.671338475196018"><ele>2.142857142857143</ele><time>2026-04-11T13:58:55Z</time></trkpt><trkpt lat="44.838857205649916" lon="11.671440060990236"><ele>2.4285714285714284</ele><time>2026-04-11T13:58:57Z</time></trkpt><trkpt lat="44.83887574159452" lon="11.671524970960984"><ele>2.714285714285714</ele><time>2026-04-11T13:58:59Z</time></trkpt><trkpt lat="44.83891203334633" lon="11.67163967008438"><ele>3.0</ele><time>2026-04-11T13:59:02Z</time></trkpt><trkpt lat="44.83893729176382" lon="11.671749233766027"><ele>3.0</ele><time>2026-04-11T13:59:04Z</time></trkpt><trkpt lat="44.83896369045921" lon="11.671853881440313"><ele>3.0</ele><time>2026-04-11T13:59:06Z</time></trkpt><trkpt lat="44.838989485763356" lon="11.67195991179039"><ele>3.0</ele><time>2026-04-11T13:59:08Z</time></trkpt><trkpt lat="44.839021268986265" lon="11.672069993929883"><ele>3.0</ele><time>2026-04-11T13:59:10Z</time></trkpt><trkpt lat="44.8390501560758" lon="11.672173687677802"><ele>3.0</ele><time>2026-04-11T13:59:12Z</time></trkpt><trkpt lat="44.83908325900382" lon="11.672280840103546"><ele>3.0</ele><time>2026-04-11T13:59:14Z</time></trkpt><trkpt lat="44.839113545351225" lon="11.672377090964723"><ele>3.1666666666666665</ele><time>2026-04-11T13:59:16Z</time></trkpt><trkpt lat="44.83914839930219" lon="11.67248278347831"><ele>3.333333333333333</ele><time>2026-04-11T13:59:18Z</time></trkpt><trkpt lat="44.83918499975533" lon="11.672589218257656"><ele>3.5</ele><time>2026-04-11T13:59:20Z</time></trkpt><trkpt lat="44.83922156414631" lon="11.672694881129564"><ele>3.6666666666666665</ele><time>2026-04-11T13:59:22Z</time></trkpt><trkpt lat="44.839256145888285" lon="11.672798184059856"><ele>3.833333333333333</ele><time>2026-04-11T13:59:24Z</time></trkpt><trkpt lat="44.839282680056876" lon="11.672886119308426"><ele>4.0</ele><time>2026-04-11T13:59:26Z</time></trkpt><trkpt lat="44.83931375763293" lon="11.672971898825802"><ele>3.6666666666666665</ele><time>2026-04-11T13:59:28Z</time></trkpt><trkpt lat="44.83934320516591" lon="11.673058396333412"><ele>3.333333333333333</ele><time>2026-04-11T13:59:30Z</time></trkpt><trkpt lat="44.83937012666986" lon="11.673161543342518"><ele>3.0</ele><time>2026-04-11T13:59:32Z</time></trkpt><trkpt lat="44.83940336241103" lon="11.673269547059785"><ele>2.6666666666666665</ele><time>2026-04-11T13:59:34Z</time></trkpt><trkpt lat="44.83943636008598" lon="11.67337408178037"><ele>2.333333333333333</ele><time>2026-04-11T13:59:36Z</time></trkpt><trkpt lat="44.83947103909815" lon="11.673482754731381"><ele>2.0</ele><time>2026-04-11T13:59:38Z</time></trkpt><trkpt lat="44.83950464412532" lon="11.673592663886858"><ele>1.9999999999999998</ele><time>2026-04-11T13:59:40Z</time></trkpt><trkpt lat="44.839535919000504" lon="11.673703827474966"><ele>2.0</ele><time>2026-04-11T13:59:42Z</time></trkpt><trkpt lat="44.839568981776644" lon="11.673811563111832"><ele>2.0</ele><time>2026-04-11T13:59:44Z</time></trkpt><trkpt lat="44.83959867112631" lon="11.673924876593277"><ele>2.0</ele><time>2026-04-11T13:59:46Z</time></trkpt><trkpt lat="44.83963010119331" lon="11.674034644054796"><ele>1.9999999999999998</ele><time>2026-04-11T13:59:48Z</time></trkpt><trkpt lat="44.83965933923901" lon="11.67414428442122"><ele>2.0</ele><time>2026-04-11T13:59:50Z</time></trkpt><trkpt lat="44.83969318506294" lon="11.674256036137644"><ele>1.9999999999999998</ele><time>2026-04-11T13:59:52Z</time></trkpt><trkpt lat="44.83972473015163" lon="11.674363859373539"><ele>2.0</ele><time>2026-04-11T13:59:54Z</time></trkpt><trkpt lat="44.83975749745261" lon="11.67447455815094"><ele>2.0</ele><time>2026-04-11T13:59:56Z</time></trkpt><trkpt lat="44.839790075768306" lon="11.67458653108794"><ele>2.0</ele><time>2026-04-11T13:59:58Z</time></trkpt><trkpt lat="44.83982260401622" lon="11.674700427422643"><ele>1.9999999999999998</ele><time>2026-04-11T14:00:00Z</time></trkpt><trkpt lat="44.83985731378751" lon="11.674812319756658"><ele>2.0</ele><time>2026-04-11T14:00:02Z</time></trkpt><trkpt lat="44.8398930741333" lon="11.674925897589759"><ele>2.1666666666666665</ele><time>2026-04-11T14:00:04Z</time></trkpt><trkpt lat="44.839926237993204" lon="11.67503399931767"><ele>2.333333333333333</ele><time>2026-04-11T14:00:06Z</time></trkpt><trkpt lat="44.83995494327699" lon="11.67513952516097"><ele>2.5</ele><time>2026-04-11T14:00:08Z</time></trkpt><trkpt lat="44.83998896150564" lon="11.675240102102583"><ele>2.6666666666666665</ele><time>2026-04-11T14:00:10Z</time></trkpt><trkpt lat="44.84002377228802" lon="11.675319889062353"><ele>2.8333333333333335</ele><time>2026-04-11T14:00:12Z</time></trkpt><trkpt lat="44.840051437678824" lon="11.6754066629901"><ele>3.0</ele><time>2026-04-11T14:00:15Z</time></trkpt><trkpt lat="44.84007907082647" lon="11.67550641401813"><ele>3.0</ele><time>2026-04-11T14:00:18Z</time></trkpt><trkpt lat="44.840124704751084" lon="11.675607982062594"><ele>3.0</ele><time>2026-04-11T14:00:20Z</time></trkpt><trkpt lat="44.84016377438328" lon="11.675714183325"><ele>3.0</ele><time>2026-04-11T14:00:22Z</time></trkpt><trkpt lat="44.84019317404233" lon="11.675823099612701"><ele>3.0</ele><time>2026-04-11T14:00:24Z</time></trkpt><trkpt lat="44.84022439206633" lon="11.675902370432853"><ele>3.0</ele><time>2026-04-11T14:00:26Z</time></trkpt><trkpt lat="44.840262245450866" lon="11.676008812338981"><ele>3.0</ele><time>2026-04-11T14:00:28Z</time></trkpt><trkpt lat="44.84029953880387" lon="11.676112573505131"><ele>3.0</ele><time>2026-04-11T14:00:30Z</time></trkpt><trkpt lat="44.840340754429754" lon="11.676217119287427"><ele>3.0</ele><time>2026-04-11T14:00:32Z</time></trkpt><trkpt lat="44.84037916607881" lon="11.676329243038206"><ele>3.0</ele><time>2026-04-11T14:00:34Z</time></trkpt><trkpt lat="44.840416099055744" lon="11.676427607037027"><ele>3.0</ele><time>2026-04-11T14:00:36Z</time></trkpt><trkpt lat="44.84045168983758" lon="11.676532591451542"><ele>3.0</ele><time>2026-04-11T14:00:38Z</time></trkpt><trkpt lat="44.84049284399951" lon="11.676631216411979"><ele>3.0</ele><time>2026-04-11T14:00:40Z</time></trkpt><trkpt lat="44.84051448636934" lon="11.676719670891202"><ele>3.0</ele><time>2026-04-11T14:00:42Z</time></trkpt><trkpt lat="44.84055214882142" lon="11.676814693471977"><ele>3.0</ele><time>2026-04-11T14:00:44Z</time></trkpt><trkpt lat="44.84059340493461" lon="11.676917156250434"><ele>3.0</ele><time>2026-04-11T14:00:46Z</time></trkpt><trkpt lat="44.84063236828606" lon="11.677024049468594"><ele>3.0</ele><time>2026-04-11T14:00:48Z</time></trkpt><trkpt lat="44.840671895942236" lon="11.677128135060824"><ele>3.0</ele><time>2026-04-11T14:00:50Z</time></trkpt><trkpt lat="44.84070698514452" lon="11.67723352907869"><ele>3.0</ele><time>2026-04-11T14:00:52Z</time></trkpt><trkpt lat="44.84074609018944" lon="11.6773385163963"><ele>3.1666666666666665</ele><time>2026-04-11T14:00:54Z</time></trkpt><trkpt lat="44.84078374192414" lon="11.677438856489555"><ele>3.333333333333333</ele><time>2026-04-11T14:00:56Z</time></trkpt><trkpt lat="44.84082054307713" lon="11.677545931119198"><ele>3.5</ele><time>2026-04-11T14:00:58Z</time></trkpt><trkpt lat="44.84085966041056" lon="11.677656221902462"><ele>3.6666666666666665</ele><time>2026-04-11T14:01:00Z</time></trkpt><trkpt lat="44.84089385940114" lon="11.67776588825286"><ele>3.833333333333333</ele><time>2026-04-11T14:01:02Z</time></trkpt><trkpt lat="44.84092975197659" lon="11.677870943238869"><ele>4.0</ele><time>2026-04-11T14:01:04Z</time></trkpt><trkpt lat="44.84096573742274" lon="11.677980792212766"><ele>3.9999999999999996</ele><time>2026-04-11T14:01:06Z</time></trkpt><trkpt lat="44.84100253011755" lon="11.678089564410776"><ele>4.0</ele><time>2026-04-11T14:01:08Z</time></trkpt><trkpt lat="44.84103994072305" lon="11.678203624205118"><ele>4.0</ele><time>2026-04-11T14:01:10Z</time></trkpt><trkpt lat="44.84107294219495" lon="11.678320361897532"><ele>4.0</ele><time>2026-04-11T14:01:12Z</time></trkpt><trkpt lat="44.84110985998269" lon="11.678434777925617"><ele>3.9999999999999996</ele><time>2026-04-11T14:01:14Z</time></trkpt><trkpt lat="44.84114487542057" lon="11.67854441781775"><ele>4.0</ele><time>2026-04-11T14:01:16Z</time></trkpt><trkpt lat="44.84117836982887" lon="11.678653856635643"><ele>3.833333333333333</ele><time>2026-04-11T14:01:18Z</time></trkpt><trkpt lat="44.841213118670176" lon="11.678764987777795"><ele>3.6666666666666665</ele><time>2026-04-11T14:01:20Z</time></trkpt><trkpt lat="44.841247259425806" lon="11.67887724057273"><ele>3.5</ele><time>2026-04-11T14:01:22Z</time></trkpt><trkpt lat="44.84128196288066" lon="11.678989751156195"><ele>3.333333333333333</ele><time>2026-04-11T14:01:24Z</time></trkpt><trkpt lat="44.841314387458965" lon="11.679099866226382"><ele>3.1666666666666665</ele><time>2026-04-11T14:01:26Z</time></trkpt><trkpt lat="44.84134265035416" lon="11.679211099706558"><ele>3.0</ele><time>2026-04-11T14:01:28Z</time></trkpt><trkpt lat="44.84137977890048" lon="11.679318601810488"><ele>3.0</ele><time>2026-04-11T14:01:30Z</time></trkpt><trkpt lat="44.84141613179514" lon="11.679426687164902"><ele>3.0</ele><time>2026-04-11T14:01:32Z</time></trkpt><trkpt lat="44.84144732966796" lon="11.67954146658561"><ele>3.0</ele><time>2026-04-11T14:01:34Z</time></trkpt><trkpt lat="44.84148197449582" lon="11.679659795008245"><ele>3.0</ele><time>2026-04-11T14:01:36Z</time></trkpt><trkpt lat="44.841518728342784" lon="11.67976777288755"><ele>3.0</ele><time>2026-04-11T14:01:38Z</time></trkpt><trkpt lat="44.84155754645129" lon="11.679876281833252"><ele>3.0</ele><time>2026-04-11T14:01:40Z</time></trkpt><trkpt lat="44.84160049028878" lon="11.679987313729313"><ele>3.0</ele><time>2026-04-11T14:01:42Z</time></trkpt><trkpt lat="44.84163459133781" lon="11.680100646231818"><ele>3.0</ele><time>2026-04-11T14:01:44Z</time></trkpt><trkpt lat="44.84166248843665" lon="11.68021309394152"><ele>3.0</ele><time>2026-04-11T14:01:46Z</time></trkpt><trkpt lat="44.84168870188493" lon="11.680322875535943"><ele>3.0</ele><time>2026-04-11T14:01:48Z</time></trkpt><trkpt lat="44.841714553821596" lon="11.680437742043893"><ele>3.0</ele><time>2026-04-11T14:01:50Z</time></trkpt><trkpt lat="44.84174694234654" lon="11.680545951669993"><ele>3.0</ele><time>2026-04-11T14:01:52Z</time></trkpt><trkpt lat="44.84177935567075" lon="11.680655370909877"><ele>3.0</ele><time>2026-04-11T14:01:54Z</time></trkpt><trkpt lat="44.84180221501183" lon="11.68076194982398"><ele>3.0</ele><time>2026-04-11T14:01:56Z</time></trkpt><trkpt lat="44.841822640770076" lon="11.680857106991864"><ele>3.0</ele><time>2026-04-11T14:01:58Z</time></trkpt><trkpt lat="44.84186029658034" lon="11.680935797021672"><ele>3.0</ele><time>2026-04-11T14:02:00Z</time></trkpt><trkpt lat="44.84190152706036" lon="11.681048699977646"><ele>3.0</ele><time>2026-04-11T14:02:03Z</time></trkpt><trkpt lat="44.841931661494264" lon="11.6811520964824"><ele>3.0</ele><time>2026-04-11T14:02:06Z</time></trkpt><trkpt lat="44.841957993325934" lon="11.681244021217184"><ele>3.0</ele><time>2026-04-11T14:02:08Z</time></trkpt><trkpt lat="44.8419868309061" lon="11.681352546808206"><ele>3.0</ele><time>2026-04-11T14:02:10Z</time></trkpt><trkpt lat="44.842017421346455" lon="11.681459862898947"><ele>3.0</ele><time>2026-04-11T14:02:12Z</time></trkpt><trkpt lat="44.84204628572998" lon="11.681575122653612"><ele>3.0</ele><time>2026-04-11T14:02:14Z</time></trkpt><trkpt lat="44.84207016295485" lon="11.681670901415172"><ele>3.0</ele><time>2026-04-11T14:02:16Z</time></trkpt><trkpt lat="44.84209436024549" lon="11.681753314098295"><ele>3.0</ele><time>2026-04-11T14:02:18Z</time></trkpt><trkpt lat="44.84212092619196" lon="11.681862196090837"><ele>3.1666666666666665</ele><time>2026-04-11T14:02:21Z</time></trkpt><trkpt lat="44.84215465053373" lon="11.681981950759234"><ele>3.333333333333333</ele><time>2026-04-11T14:02:24Z</time></trkpt><trkpt lat="44.842190760871524" lon="11.682089020030734"><ele>3.5</ele><time>2026-04-11T14:02:26Z</time></trkpt><trkpt lat="44.84221590009805" lon="11.68218727368865"><ele>3.6666666666666665</ele><time>2026-04-11T14:02:28Z</time></trkpt><trkpt lat="44.84224415776659" lon="11.682278936360358"><ele>3.833333333333333</ele><time>2026-04-11T14:02:30Z</time></trkpt><trkpt lat="44.84228255493849" lon="11.682402796807567"><ele>4.0</ele><time>2026-04-11T14:02:33Z</time></trkpt><trkpt lat="44.84231452859439" lon="11.68250516823665"><ele>3.9999999999999996</ele><time>2026-04-11T14:02:35Z</time></trkpt><trkpt lat="44.84234374032365" lon="11.682602824679808"><ele>4.0</ele><time>2026-04-11T14:02:37Z</time></trkpt><trkpt lat="44.842369733029855" lon="11.682693242154262"><ele>4.0</ele><time>2026-04-11T14:02:39Z</time></trkpt><trkpt lat="44.84239291906243" lon="11.682779429368768"><ele>4.0</ele><time>2026-04-11T14:02:41Z</time></trkpt><trkpt lat="44.84244016103886" lon="11.682883891807435"><ele>3.9999999999999996</ele><time>2026-04-11T14:02:44Z</time></trkpt><trkpt lat="44.842469269541" lon="11.683015313436131"><ele>4.0</ele><time>2026-04-11T14:02:47Z</time></trkpt><trkpt lat="44.842500532867774" lon="11.683115906692535"><ele>3.833333333333333</ele><time>2026-04-11T14:02:49Z</time></trkpt><trkpt lat="44.842520991463864" lon="11.683210688554817"><ele>3.6666666666666665</ele><time>2026-04-11T14:02:51Z</time></trkpt><trkpt lat="44.84254309774991" lon="11.683303074047236"><ele>3.5</ele><time>2026-04-11T14:02:53Z</time></trkpt><trkpt lat="44.84256534231822" lon="11.683388508736583"><ele>3.333333333333333</ele><time>2026-04-11T14:02:55Z</time></trkpt><trkpt lat="44.8425931864277" lon="11.683508739739073"><ele>3.1666666666666665</ele><time>2026-04-11T14:02:58Z</time></trkpt><trkpt lat="44.84262516758155" lon="11.683625170267106"><ele>3.0</ele><time>2026-04-11T14:03:01Z</time></trkpt><trkpt lat="44.84264795451748" lon="11.68373187497998"><ele>2.8571428571428568</ele><time>2026-04-11T14:03:03Z</time></trkpt><trkpt lat="44.84266970524408" lon="11.683824928294301"><ele>2.7142857142857144</ele><time>2026-04-11T14:03:05Z</time></trkpt><trkpt lat="44.84269636293714" lon="11.683918686550292"><ele>2.571428571428571</ele><time>2026-04-11T14:03:07Z</time></trkpt><trkpt lat="44.842726473625866" lon="11.684013956703879"><ele>2.4285714285714284</ele><time>2026-04-11T14:03:09Z</time></trkpt><trkpt lat="44.84275994777313" lon="11.68410508165182"><ele>2.2857142857142856</ele><time>2026-04-11T14:03:11Z</time></trkpt><trkpt lat="44.842785596389085" lon="11.684197371818849"><ele>2.142857142857143</ele><time>2026-04-11T14:03:13Z</time></trkpt><trkpt lat="44.84281375805587" lon="11.684282330895634"><ele>2.0</ele><time>2026-04-11T14:03:15Z</time></trkpt><trkpt lat="44.84285193778541" lon="11.684392541236548"><ele>1.9999999999999998</ele><time>2026-04-11T14:03:18Z</time></trkpt><trkpt lat="44.842848192313724" lon="11.68429630334828"><ele>2.0</ele><time>2026-04-11T14:03:24.999Z</time></trkpt><trkpt lat="44.842795312409855" lon="11.684204381319685"><ele>2.0</ele><time>2026-04-11T14:03:27.999Z</time></trkpt><trkpt lat="44.84274944687717" lon="11.684095245888747"><ele>2.0</ele><time>2026-04-11T14:03:29.999Z</time></trkpt><trkpt lat="44.842728172285" lon="11.683976571831897"><ele>1.9999999999999998</ele><time>2026-04-11T14:03:31.999Z</time></trkpt><trkpt lat="44.84269041725124" lon="11.683881853343781"><ele>2.0</ele><time>2026-04-11T14:03:34Z</time></trkpt><trkpt lat="44.842676535059354" lon="11.683790806919683"><ele>1.9999999999999998</ele><time>2026-04-11T14:03:36Z</time></trkpt><trkpt lat="44.84272897394895" lon="11.683733171715367"><ele>2.0</ele><time>2026-04-11T14:03:40Z</time></trkpt><trkpt lat="44.84279648064526" lon="11.683682252589826"><ele>2.0</ele><time>2026-04-11T14:04:09Z</time></trkpt><trkpt lat="44.842848882023056" lon="11.683782071609617"><ele>2.0</ele><time>2026-04-11T14:04:12Z</time></trkpt><trkpt lat="44.84287212606744" lon="11.683878345430195"><ele>1.9999999999999998</ele><time>2026-04-11T14:04:14Z</time></trkpt><trkpt lat="44.842909817025216" lon="11.683984253316705"><ele>2.0</ele><time>2026-04-11T14:04:16Z</time></trkpt><trkpt lat="44.84294939432514" lon="11.684098987941304"><ele>2.0</ele><time>2026-04-11T14:04:18Z</time></trkpt><trkpt lat="44.84298545681108" lon="11.68421502800902"><ele>2.0</ele><time>2026-04-11T14:04:20Z</time></trkpt><trkpt lat="44.843027271242065" lon="11.68432888812494"><ele>2.0</ele><time>2026-04-11T14:04:22Z</time></trkpt><trkpt lat="44.8430696121095" lon="11.684443214753669"><ele>2.0</ele><time>2026-04-11T14:04:24Z</time></trkpt><trkpt lat="44.8431106305433" lon="11.68455787073695"><ele>2.0</ele><time>2026-04-11T14:04:26Z</time></trkpt><trkpt lat="44.843150094480215" lon="11.684675092908899"><ele>2.2</ele><time>2026-04-11T14:04:28Z</time></trkpt><trkpt lat="44.843193130848064" lon="11.684791707971776"><ele>2.4000000000000004</ele><time>2026-04-11T14:04:30Z</time></trkpt><trkpt lat="44.84323347765749" lon="11.684908371985262"><ele>2.5999999999999996</ele><time>2026-04-11T14:04:32Z</time></trkpt><trkpt lat="44.84328047924532" lon="11.685021818737948"><ele>2.8</ele><time>2026-04-11T14:04:34Z</time></trkpt><trkpt lat="44.84332345422738" lon="11.685138581005717"><ele>3.0</ele><time>2026-04-11T14:04:36Z</time></trkpt><trkpt lat="44.843366677152474" lon="11.68525639760037"><ele>3.2</ele><time>2026-04-11T14:04:38Z</time></trkpt><trkpt lat="44.84340984242039" lon="11.685373477334773"><ele>3.4</ele><time>2026-04-11T14:04:40Z</time></trkpt><trkpt lat="44.843452475423504" lon="11.685488631315124"><ele>3.6000000000000005</ele><time>2026-04-11T14:04:42Z</time></trkpt><trkpt lat="44.84349078343008" lon="11.685602241378538"><ele>3.8000000000000003</ele><time>2026-04-11T14:04:44Z</time></trkpt><trkpt lat="44.84352867455533" lon="11.685713535534148"><ele>4.0</ele><time>2026-04-11T14:04:46Z</time></trkpt><trkpt lat="44.84356458514147" lon="11.685830653261478"><ele>3.6666666666666665</ele><time>2026-04-11T14:04:48Z</time></trkpt><trkpt lat="44.843596603419975" lon="11.685948407401815"><ele>3.333333333333333</ele><time>2026-04-11T14:04:50Z</time></trkpt><trkpt lat="44.843631080855694" lon="11.686063634181496"><ele>3.0</ele><time>2026-04-11T14:04:52Z</time></trkpt><trkpt lat="44.843666382150694" lon="11.68618120011663"><ele>2.6666666666666665</ele><time>2026-04-11T14:04:54Z</time></trkpt><trkpt lat="44.84369980575308" lon="11.686301441914253"><ele>2.333333333333333</ele><time>2026-04-11T14:04:56Z</time></trkpt><trkpt lat="44.843736861483016" lon="11.686415074462461"><ele>2.0</ele><time>2026-04-11T14:04:58Z</time></trkpt><trkpt lat="44.84377149470354" lon="11.686535247827557"><ele>2.0</ele><time>2026-04-11T14:05:00Z</time></trkpt><trkpt lat="44.843804734391625" lon="11.686650874905082"><ele>2.0</ele><time>2026-04-11T14:05:02Z</time></trkpt><trkpt lat="44.843841815501" lon="11.686772050956831"><ele>2.0</ele><time>2026-04-11T14:05:04Z</time></trkpt><trkpt lat="44.843880255342015" lon="11.68688513007406"><ele>2.0</ele><time>2026-04-11T14:05:06Z</time></trkpt><trkpt lat="44.84391297338431" lon="11.687005085112194"><ele>2.0</ele><time>2026-04-11T14:05:08Z</time></trkpt><trkpt lat="44.84395239213631" lon="11.687115286859239"><ele>1.8</ele><time>2026-04-11T14:05:10Z</time></trkpt><trkpt lat="44.84399454893462" lon="11.687226682008795"><ele>1.6</ele><time>2026-04-11T14:05:12Z</time></trkpt><trkpt lat="44.844040837189695" lon="11.687333197371972"><ele>1.4000000000000001</ele><time>2026-04-11T14:05:14Z</time></trkpt><trkpt lat="44.844090362529066" lon="11.687436597756927"><ele>1.2000000000000002</ele><time>2026-04-11T14:05:16Z</time></trkpt><trkpt lat="44.8441459564482" lon="11.68754116413852"><ele>1.0</ele><time>2026-04-11T14:05:18Z</time></trkpt><trkpt lat="44.844202169961555" lon="11.687642481511448"><ele>1.0</ele><time>2026-04-11T14:05:20Z</time></trkpt><trkpt lat="44.844261969505745" lon="11.687750724903786"><ele>1.0</ele><time>2026-04-11T14:05:22Z</time></trkpt><trkpt lat="44.844322883744226" lon="11.687857737275293"><ele>1.0</ele><time>2026-04-11T14:05:24Z</time></trkpt><trkpt lat="44.8443854491901" lon="11.687966011774206"><ele>1.0</ele><time>2026-04-11T14:05:26Z</time></trkpt><trkpt lat="44.844451980022775" lon="11.688074244974215"><ele>1.0</ele><time>2026-04-11T14:05:28Z</time></trkpt><trkpt lat="44.84451808021199" lon="11.688180396294634"><ele>1.0</ele><time>2026-04-11T14:05:29.999Z</time></trkpt><trkpt lat="44.8445893780365" lon="11.688280084528495"><ele>1.0</ele><time>2026-04-11T14:05:31.999Z</time></trkpt><trkpt lat="44.84466408596693" lon="11.688377535474046"><ele>1.0</ele><time>2026-04-11T14:05:33.999Z</time></trkpt><trkpt lat="44.84474035515248" lon="11.68847209912169"><ele>1.0</ele><time>2026-04-11T14:05:35.999Z</time></trkpt><trkpt lat="44.84481734904991" lon="11.688565580946777"><ele>1.0</ele><time>2026-04-11T14:05:37.999Z</time></trkpt><trkpt lat="44.84489588120322" lon="11.688658364773886"><ele>1.0</ele><time>2026-04-11T14:05:40Z</time></trkpt><trkpt lat="44.84497556677779" lon="11.688743427587232"><ele>1.0</ele><time>2026-04-11T14:05:42Z</time></trkpt><trkpt lat="44.84503905298919" lon="11.688848090681846"><ele>1.0</ele><time>2026-04-11T14:05:44Z</time></trkpt><trkpt lat="44.84510553351745" lon="11.688956342608162"><ele>1.0</ele><time>2026-04-11T14:05:46Z</time></trkpt><trkpt lat="44.845166277134815" lon="11.689065085567512"><ele>1.0</ele><time>2026-04-11T14:05:48Z</time></trkpt><trkpt lat="44.845214308661916" lon="11.68918868870171"><ele>1.2000000000000002</ele><time>2026-04-11T14:05:50Z</time></trkpt><trkpt lat="44.845262051285246" lon="11.689314170008315"><ele>1.4000000000000001</ele><time>2026-04-11T14:05:52Z</time></trkpt><trkpt lat="44.84530939394732" lon="11.689440358841162"><ele>1.6</ele><time>2026-04-11T14:05:54Z</time></trkpt><trkpt lat="44.84535312391489" lon="11.689557002124326"><ele>1.8</ele><time>2026-04-11T14:05:56Z</time></trkpt><trkpt lat="44.845393483702985" lon="11.689676221601792"><ele>2.0</ele><time>2026-04-11T14:05:58Z</time></trkpt><trkpt lat="44.84543397407642" lon="11.689790553308516"><ele>1.9999999999999998</ele><time>2026-04-11T14:06:00Z</time></trkpt><trkpt lat="44.84546924433328" lon="11.6899058813169"><ele>2.0</ele><time>2026-04-11T14:06:02Z</time></trkpt><trkpt lat="44.84550332598159" lon="11.690023028950634"><ele>2.0</ele><time>2026-04-11T14:06:04Z</time></trkpt><trkpt lat="44.84553436687498" lon="11.690136622777274"><ele>2.0</ele><time>2026-04-11T14:06:06Z</time></trkpt><trkpt lat="44.84556161095211" lon="11.690241262075581"><ele>1.9999999999999998</ele><time>2026-04-11T14:06:08Z</time></trkpt><trkpt lat="44.84558746560326" lon="11.690341943246139"><ele>2.0</ele><time>2026-04-11T14:06:10Z</time></trkpt><trkpt lat="44.84561600678279" lon="11.690436468425792"><ele>1.9999999999999998</ele><time>2026-04-11T14:06:12Z</time></trkpt><trkpt lat="44.84564506643916" lon="11.6905428006808"><ele>2.0</ele><time>2026-04-11T14:06:14Z</time></trkpt><trkpt lat="44.84567432294788" lon="11.690652221506761"><ele>2.0</ele><time>2026-04-11T14:06:16Z</time></trkpt><trkpt lat="44.84570653449432" lon="11.69076046805294"><ele>2.0</ele><time>2026-04-11T14:06:18Z</time></trkpt><trkpt lat="44.84574100819527" lon="11.690871561918383"><ele>1.9999999999999998</ele><time>2026-04-11T14:06:20Z</time></trkpt><trkpt lat="44.8457743321433" lon="11.690981565530736"><ele>2.0</ele><time>2026-04-11T14:06:22Z</time></trkpt><trkpt lat="44.8458102559733" lon="11.69109115669791"><ele>1.9999999999999998</ele><time>2026-04-11T14:06:24Z</time></trkpt><trkpt lat="44.845848235745024" lon="11.691199682165905"><ele>2.0</ele><time>2026-04-11T14:06:26Z</time></trkpt><trkpt lat="44.8458771261591" lon="11.69131532316898"><ele>2.0</ele><time>2026-04-11T14:06:28Z</time></trkpt><trkpt lat="44.845912394423706" lon="11.691428950382607"><ele>2.0</ele><time>2026-04-11T14:06:30Z</time></trkpt><trkpt lat="44.845947795347904" lon="11.691546399760572"><ele>1.9999999999999998</ele><time>2026-04-11T14:06:32Z</time></trkpt><trkpt lat="44.845984357546676" lon="11.691654863674243"><ele>2.0</ele><time>2026-04-11T14:06:34Z</time></trkpt><trkpt lat="44.84601717976278" lon="11.691764149998933"><ele>1.9999999999999998</ele><time>2026-04-11T14:06:36Z</time></trkpt><trkpt lat="44.8460503515214" lon="11.691873897744921"><ele>2.0</ele><time>2026-04-11T14:06:38Z</time></trkpt><trkpt lat="44.84608633435583" lon="11.6919835177505"><ele>2.0</ele><time>2026-04-11T14:06:40Z</time></trkpt><trkpt lat="44.84611989010705" lon="11.692093324098199"><ele>2.0</ele><time>2026-04-11T14:06:42Z</time></trkpt><trkpt lat="44.84615886925014" lon="11.692203061531858"><ele>1.9999999999999998</ele><time>2026-04-11T14:06:44Z</time></trkpt><trkpt lat="44.84619739223392" lon="11.692312595771064"><ele>2.0</ele><time>2026-04-11T14:06:46Z</time></trkpt><trkpt lat="44.84623686729974" lon="11.692419890892143"><ele>1.9999999999999998</ele><time>2026-04-11T14:06:48Z</time></trkpt><trkpt lat="44.84628355975334" lon="11.692525379265968"><ele>2.0</ele><time>2026-04-11T14:06:50Z</time></trkpt><trkpt lat="44.846323980488286" lon="11.692633167708372"><ele>2.0</ele><time>2026-04-11T14:06:52Z</time></trkpt><trkpt lat="44.846360427148184" lon="11.69274230612366"><ele>2.0</ele><time>2026-04-11T14:06:54Z</time></trkpt><trkpt lat="44.846401490101044" lon="11.69283510996924"><ele>1.9999999999999998</ele><time>2026-04-11T14:06:56Z</time></trkpt><trkpt lat="44.84644230160366" lon="11.69292653607636"><ele>2.0</ele><time>2026-04-11T14:06:58Z</time></trkpt><trkpt lat="44.84647915026869" lon="11.693010491064117"><ele>2.0</ele><time>2026-04-11T14:07:00Z</time></trkpt><trkpt lat="44.846511523393765" lon="11.6930946556956"><ele>1.9999999999999998</ele><time>2026-04-11T14:07:02Z</time></trkpt><trkpt lat="44.84654765788911" lon="11.693180652789582"><ele>2.0</ele><time>2026-04-11T14:07:04Z</time></trkpt><trkpt lat="44.846588660824885" lon="11.693293395870423"><ele>2.0</ele><time>2026-04-11T14:07:06Z</time></trkpt><trkpt lat="44.84663214739292" lon="11.693387919383133"><ele>1.9999999999999998</ele><time>2026-04-11T14:07:08Z</time></trkpt><trkpt lat="44.84666994489549" lon="11.693474391672147"><ele>2.0</ele><time>2026-04-11T14:07:10Z</time></trkpt><trkpt lat="44.84669760259258" lon="11.693558151694653"><ele>2.0</ele><time>2026-04-11T14:07:12Z</time></trkpt><trkpt lat="44.84672962622872" lon="11.693644811283974"><ele>2.0</ele><time>2026-04-11T14:07:14Z</time></trkpt><trkpt lat="44.84678116930287" lon="11.693754590686806"><ele>2.0</ele><time>2026-04-11T14:07:16Z</time></trkpt><trkpt lat="44.84682867611061" lon="11.693869229961141"><ele>2.0</ele><time>2026-04-11T14:07:18Z</time></trkpt><trkpt lat="44.846874676496434" lon="11.693983953464619"><ele>2.0</ele><time>2026-04-11T14:07:20Z</time></trkpt><trkpt lat="44.846921282792024" lon="11.69410129447684"><ele>2.0</ele><time>2026-04-11T14:07:22Z</time></trkpt><trkpt lat="44.84697023620548" lon="11.694221412486527"><ele>2.0</ele><time>2026-04-11T14:07:24Z</time></trkpt><trkpt lat="44.847018545349805" lon="11.694344392230676"><ele>2.0</ele><time>2026-04-11T14:07:26Z</time></trkpt><trkpt lat="44.8470748139739" lon="11.694460666250167"><ele>2.0</ele><time>2026-04-11T14:07:27.999Z</time></trkpt><trkpt lat="44.84712286996318" lon="11.69458474901034"><ele>2.0</ele><time>2026-04-11T14:07:29.999Z</time></trkpt><trkpt lat="44.84717356180624" lon="11.694707043440484"><ele>2.0</ele><time>2026-04-11T14:07:31.999Z</time></trkpt><trkpt lat="44.84722606142" lon="11.694831412113983"><ele>2.0</ele><time>2026-04-11T14:07:33.999Z</time></trkpt><trkpt lat="44.84727998909385" lon="11.69495166936651"><ele>2.0</ele><time>2026-04-11T14:07:35.999Z</time></trkpt><trkpt lat="44.84733004662842" lon="11.695075851026061"><ele>2.0</ele><time>2026-04-11T14:07:37.999Z</time></trkpt><trkpt lat="44.847385563503686" lon="11.695194519166767"><ele>2.0</ele><time>2026-04-11T14:07:39.999Z</time></trkpt><trkpt lat="44.84743927202718" lon="11.695317064263755"><ele>2.0</ele><time>2026-04-11T14:07:41.999Z</time></trkpt><trkpt lat="44.8474935826856" lon="11.695440735888319"><ele>2.0</ele><time>2026-04-11T14:07:43.999Z</time></trkpt><trkpt lat="44.84754800199714" lon="11.695559549444138"><ele>2.0</ele><time>2026-04-11T14:07:46Z</time></trkpt><trkpt lat="44.84760103081298" lon="11.695679557154829"><ele>2.0</ele><time>2026-04-11T14:07:48Z</time></trkpt><trkpt lat="44.847654028666554" lon="11.695800289293086"><ele>2.0</ele><time>2026-04-11T14:07:50Z</time></trkpt><trkpt lat="44.84770497871101" lon="11.695921747927668"><ele>2.0</ele><time>2026-04-11T14:07:52Z</time></trkpt><trkpt lat="44.84775817209666" lon="11.696042625704447"><ele>1.8</ele><time>2026-04-11T14:07:54Z</time></trkpt><trkpt lat="44.84780569027403" lon="11.696165361462285"><ele>1.6</ele><time>2026-04-11T14:07:56Z</time></trkpt><trkpt lat="44.847853539261834" lon="11.69628613468231"><ele>1.4000000000000001</ele><time>2026-04-11T14:07:58Z</time></trkpt><trkpt lat="44.847895650478065" lon="11.696415766488292"><ele>1.2000000000000002</ele><time>2026-04-11T14:08:00Z</time></trkpt><trkpt lat="44.84793967608004" lon="11.696544701584445"><ele>1.0</ele><time>2026-04-11T14:08:02Z</time></trkpt><trkpt lat="44.847979965257885" lon="11.696676778969932"><ele>1.0</ele><time>2026-04-11T14:08:04Z</time></trkpt><trkpt lat="44.84802176025386" lon="11.696806425882615"><ele>1.0</ele><time>2026-04-11T14:08:06Z</time></trkpt><trkpt lat="44.848061104856185" lon="11.69693776753726"><ele>1.0</ele><time>2026-04-11T14:08:08Z</time></trkpt><trkpt lat="44.84810248108149" lon="11.6970707089609"><ele>1.0</ele><time>2026-04-11T14:08:10Z</time></trkpt><trkpt lat="44.8481351860618" lon="11.697201204619397"><ele>1.0</ele><time>2026-04-11T14:08:12Z</time></trkpt><trkpt lat="44.84817252870053" lon="11.697335710095333"><ele>1.2000000000000002</ele><time>2026-04-11T14:08:14Z</time></trkpt><trkpt lat="44.84821004997877" lon="11.697465200074754"><ele>1.4000000000000001</ele><time>2026-04-11T14:08:16Z</time></trkpt><trkpt lat="44.84824538374633" lon="11.697597244649453"><ele>1.6</ele><time>2026-04-11T14:08:18Z</time></trkpt><trkpt lat="44.848284094421565" lon="11.697728196181608"><ele>1.8</ele><time>2026-04-11T14:08:20Z</time></trkpt><trkpt lat="44.84831690335376" lon="11.69785899594439"><ele>2.0</ele><time>2026-04-11T14:08:22Z</time></trkpt><trkpt lat="44.84835503359477" lon="11.697990167072035"><ele>2.2</ele><time>2026-04-11T14:08:24Z</time></trkpt><trkpt lat="44.84839013322701" lon="11.6981212953078"><ele>2.4000000000000004</ele><time>2026-04-11T14:08:26Z</time></trkpt><trkpt lat="44.84842749548258" lon="11.69825224451536"><ele>2.5999999999999996</ele><time>2026-04-11T14:08:28Z</time></trkpt><trkpt lat="44.848465902435805" lon="11.69838570400821"><ele>2.8</ele><time>2026-04-11T14:08:30Z</time></trkpt><trkpt lat="44.8485024220114" lon="11.698517704186845"><ele>3.0</ele><time>2026-04-11T14:08:32Z</time></trkpt><trkpt lat="44.84853789697248" lon="11.698651444126444"><ele>3.2</ele><time>2026-04-11T14:08:34Z</time></trkpt><trkpt lat="44.848581380487374" lon="11.698782509646877"><ele>3.4</ele><time>2026-04-11T14:08:36Z</time></trkpt><trkpt lat="44.84861385585678" lon="11.698901074905582"><ele>3.6000000000000005</ele><time>2026-04-11T14:08:38Z</time></trkpt><trkpt lat="44.848636457479365" lon="11.699019948615705"><ele>3.8000000000000003</ele><time>2026-04-11T14:08:40Z</time></trkpt><trkpt lat="44.84867087322662" lon="11.699127951266691"><ele>4.0</ele><time>2026-04-11T14:08:42Z</time></trkpt><trkpt lat="44.8486999789854" lon="11.699241752275372"><ele>4.0</ele><time>2026-04-11T14:08:44Z</time></trkpt><trkpt lat="44.84873678731169" lon="11.699367406814524"><ele>4.0</ele><time>2026-04-11T14:08:46Z</time></trkpt><trkpt lat="44.84877829459424" lon="11.699495998735424"><ele>4.0</ele><time>2026-04-11T14:08:48Z</time></trkpt><trkpt lat="44.84881247998078" lon="11.699626826184149"><ele>4.0</ele><time>2026-04-11T14:08:50Z</time></trkpt><trkpt lat="44.848844376945024" lon="11.699761436570553"><ele>4.0</ele><time>2026-04-11T14:08:52Z</time></trkpt><trkpt lat="44.8488788105502" lon="11.699893390735506"><ele>4.0</ele><time>2026-04-11T14:08:54Z</time></trkpt><trkpt lat="44.84891920459846" lon="11.700026257396463"><ele>4.0</ele><time>2026-04-11T14:08:56Z</time></trkpt><trkpt lat="44.84895865303016" lon="11.700155155176464"><ele>4.0</ele><time>2026-04-11T14:08:58Z</time></trkpt><trkpt lat="44.84899386728575" lon="11.700288770080139"><ele>4.0</ele><time>2026-04-11T14:09:00Z</time></trkpt><trkpt lat="44.84902811234052" lon="11.700420947958047"><ele>4.0</ele><time>2026-04-11T14:09:02Z</time></trkpt><trkpt lat="44.84906758943321" lon="11.700556338956504"><ele>4.0</ele><time>2026-04-11T14:09:04Z</time></trkpt><trkpt lat="44.849105790898015" lon="11.70068804948537"><ele>4.0</ele><time>2026-04-11T14:09:06Z</time></trkpt><trkpt lat="44.849140868897905" lon="11.700823873792313"><ele>4.0</ele><time>2026-04-11T14:09:08Z</time></trkpt><trkpt lat="44.849179195713134" lon="11.700952741321267"><ele>4.0</ele><time>2026-04-11T14:09:10Z</time></trkpt><trkpt lat="44.84921381386656" lon="11.701084502611414"><ele>4.0</ele><time>2026-04-11T14:09:12Z</time></trkpt><trkpt lat="44.84924862587941" lon="11.701216928138678"><ele>4.0</ele><time>2026-04-11T14:09:14Z</time></trkpt><trkpt lat="44.849287896319524" lon="11.701349796210803"><ele>4.0</ele><time>2026-04-11T14:09:16Z</time></trkpt><trkpt lat="44.84932112527039" lon="11.701482691591927"><ele>4.0</ele><time>2026-04-11T14:09:18Z</time></trkpt><trkpt lat="44.84935819534271" lon="11.70161765241594"><ele>4.0</ele><time>2026-04-11T14:09:20Z</time></trkpt><trkpt lat="44.84939377397323" lon="11.701750921269175"><ele>4.0</ele><time>2026-04-11T14:09:22Z</time></trkpt><trkpt lat="44.84943174714828" lon="11.701884477473003"><ele>3.8000000000000003</ele><time>2026-04-11T14:09:24Z</time></trkpt><trkpt lat="44.84946741966232" lon="11.702018075381822"><ele>3.6000000000000005</ele><time>2026-04-11T14:09:26Z</time></trkpt><trkpt lat="44.849504060600125" lon="11.70215271491299"><ele>3.4</ele><time>2026-04-11T14:09:28Z</time></trkpt><trkpt lat="44.84953777875794" lon="11.7022880890539"><ele>3.2</ele><time>2026-04-11T14:09:30Z</time></trkpt><trkpt lat="44.84957517305405" lon="11.702421531306898"><ele>3.0</ele><time>2026-04-11T14:09:32Z</time></trkpt><trkpt lat="44.849610812580536" lon="11.7025586763416"><ele>3.0</ele><time>2026-04-11T14:09:34Z</time></trkpt><trkpt lat="44.84964882980878" lon="11.70269098730147"><ele>3.0</ele><time>2026-04-11T14:09:36Z</time></trkpt><trkpt lat="44.849684913030615" lon="11.702821086634454"><ele>3.0</ele><time>2026-04-11T14:09:38Z</time></trkpt><trkpt lat="44.84971925781104" lon="11.702948082898558"><ele>3.0</ele><time>2026-04-11T14:09:40Z</time></trkpt><trkpt lat="44.84974532836035" lon="11.703068109814444"><ele>3.0</ele><time>2026-04-11T14:09:42Z</time></trkpt><trkpt lat="44.849778759027615" lon="11.70318489401093"><ele>2.6666666666666665</ele><time>2026-04-11T14:09:43.999Z</time></trkpt><trkpt lat="44.849808397358814" lon="11.703297206238338"><ele>2.3333333333333335</ele><time>2026-04-11T14:09:45.999Z</time></trkpt><trkpt lat="44.84983936245811" lon="11.703409227761238"><ele>2.0</ele><time>2026-04-11T14:09:47.999Z</time></trkpt><trkpt lat="44.8498684946758" lon="11.7035253654185"><ele>1.6666666666666665</ele><time>2026-04-11T14:09:49.999Z</time></trkpt><trkpt lat="44.84990134013188" lon="11.703638416382372"><ele>1.3333333333333333</ele><time>2026-04-11T14:09:52Z</time></trkpt><trkpt lat="44.84993098179916" lon="11.703740521718627"><ele>1.0</ele><time>2026-04-11T14:09:54Z</time></trkpt><trkpt lat="44.84996437295274" lon="11.703867265443296"><ele>1.0</ele><time>2026-04-11T14:09:56Z</time></trkpt><trkpt lat="44.84999977737317" lon="11.703997464371417"><ele>1.0</ele><time>2026-04-11T14:09:58Z</time></trkpt><trkpt lat="44.850033615793926" lon="11.704134326395023"><ele>1.0</ele><time>2026-04-11T14:10:00Z</time></trkpt><trkpt lat="44.85006674533375" lon="11.704264141037635"><ele>1.0</ele><time>2026-04-11T14:10:02Z</time></trkpt><trkpt lat="44.85010934944716" lon="11.70439621647506"><ele>1.0</ele><time>2026-04-11T14:10:04Z</time></trkpt><trkpt lat="44.85014900066301" lon="11.704525952680392"><ele>1.2000000000000002</ele><time>2026-04-11T14:10:06Z</time></trkpt><trkpt lat="44.85018686199751" lon="11.704652906623828"><ele>1.4000000000000001</ele><time>2026-04-11T14:10:08Z</time></trkpt><trkpt lat="44.850227501345316" lon="11.704783985697981"><ele>1.6</ele><time>2026-04-11T14:10:10Z</time></trkpt><trkpt lat="44.85026721449534" lon="11.704915169132802"><ele>1.8</ele><time>2026-04-11T14:10:12Z</time></trkpt><trkpt lat="44.85030691931116" lon="11.705045761059015"><ele>2.0</ele><time>2026-04-11T14:10:14Z</time></trkpt><trkpt lat="44.85034768094023" lon="11.705176950609886"><ele>2.2</ele><time>2026-04-11T14:10:16Z</time></trkpt><trkpt lat="44.85038981002065" lon="11.705309661113759"><ele>2.4000000000000004</ele><time>2026-04-11T14:10:18Z</time></trkpt><trkpt lat="44.850431547025885" lon="11.705440404421553"><ele>2.5999999999999996</ele><time>2026-04-11T14:10:20Z</time></trkpt><trkpt lat="44.85046343539618" lon="11.705574247001596"><ele>2.8</ele><time>2026-04-11T14:10:22Z</time></trkpt><trkpt lat="44.8505019227167" lon="11.705707847338628"><ele>3.0</ele><time>2026-04-11T14:10:24Z</time></trkpt><trkpt lat="44.8505333547313" lon="11.705842935454106"><ele>3.0</ele><time>2026-04-11T14:10:26Z</time></trkpt><trkpt lat="44.85056393147976" lon="11.705979878465607"><ele>3.0</ele><time>2026-04-11T14:10:28Z</time></trkpt><trkpt lat="44.850593782056656" lon="11.706115444694467"><ele>3.0</ele><time>2026-04-11T14:10:30Z</time></trkpt><trkpt lat="44.850625087834366" lon="11.706252090788507"><ele>3.0</ele><time>2026-04-11T14:10:32Z</time></trkpt><trkpt lat="44.85064794252256" lon="11.706391763355148"><ele>3.0</ele><time>2026-04-11T14:10:34Z</time></trkpt><trkpt lat="44.85067838162742" lon="11.70652902557673"><ele>2.8</ele><time>2026-04-11T14:10:36Z</time></trkpt><trkpt lat="44.850707664315685" lon="11.706654503900905"><ele>2.5999999999999996</ele><time>2026-04-11T14:10:38Z</time></trkpt><trkpt lat="44.85072885804722" lon="11.706782381053834"><ele>2.4000000000000004</ele><time>2026-04-11T14:10:40Z</time></trkpt><trkpt lat="44.85075661319623" lon="11.706915469274348"><ele>2.2</ele><time>2026-04-11T14:10:42Z</time></trkpt><trkpt lat="44.8507830328398" lon="11.70704978521132"><ele>2.0</ele><time>2026-04-11T14:10:44Z</time></trkpt><trkpt lat="44.85081092273267" lon="11.707186908096329"><ele>2.0</ele><time>2026-04-11T14:10:46Z</time></trkpt><trkpt lat="44.85083446322209" lon="11.707322858898367"><ele>2.0</ele><time>2026-04-11T14:10:48Z</time></trkpt><trkpt lat="44.85085974219009" lon="11.707457325206676"><ele>2.0</ele><time>2026-04-11T14:10:50Z</time></trkpt><trkpt lat="44.85087878349807" lon="11.707586642201296"><ele>2.0</ele><time>2026-04-11T14:10:52Z</time></trkpt><trkpt lat="44.85090098784365" lon="11.70772391517998"><ele>2.0</ele><time>2026-04-11T14:10:54Z</time></trkpt><trkpt lat="44.850924915412556" lon="11.707857254980961"><ele>1.9999999999999998</ele><time>2026-04-11T14:10:56Z</time></trkpt><trkpt lat="44.85093907106263" lon="11.707985933962537"><ele>2.0</ele><time>2026-04-11T14:10:58Z</time></trkpt><trkpt lat="44.85096450956325" lon="11.708103672242622"><ele>2.0</ele><time>2026-04-11T14:11:00Z</time></trkpt><trkpt lat="44.85097582817411" lon="11.708224456213308"><ele>2.0</ele><time>2026-04-11T14:11:02Z</time></trkpt><trkpt lat="44.850987697654745" lon="11.708341907690892"><ele>1.9999999999999998</ele><time>2026-04-11T14:11:04Z</time></trkpt><trkpt lat="44.85099644366447" lon="11.708463190626288"><ele>2.0</ele><time>2026-04-11T14:11:06Z</time></trkpt><trkpt lat="44.851007974834594" lon="11.708580278469112"><ele>1.9999999999999998</ele><time>2026-04-11T14:11:08Z</time></trkpt><trkpt lat="44.85102876364453" lon="11.708698315358035"><ele>2.0</ele><time>2026-04-11T14:11:10Z</time></trkpt><trkpt lat="44.85104001976668" lon="11.708815179105626"><ele>2.0</ele><time>2026-04-11T14:11:12Z</time></trkpt><trkpt lat="44.851041033888336" lon="11.708933389450793"><ele>2.0</ele><time>2026-04-11T14:11:14Z</time></trkpt><trkpt lat="44.85104985435473" lon="11.709039016109855"><ele>1.9999999999999998</ele><time>2026-04-11T14:11:16Z</time></trkpt><trkpt lat="44.851061122025264" lon="11.70913567082497"><ele>2.0</ele><time>2026-04-11T14:11:18Z</time></trkpt><trkpt lat="44.85108571921477" lon="11.709255265151551"><ele>1.9999999999999998</ele><time>2026-04-11T14:11:21Z</time></trkpt><trkpt lat="44.85107531290422" lon="11.709366794856374"><ele>2.0</ele><time>2026-04-11T14:11:24Z</time></trkpt><trkpt lat="44.851083904634535" lon="11.709472600924869"><ele>2.0</ele><time>2026-04-11T14:11:27Z</time></trkpt><trkpt lat="44.85109755491541" lon="11.709602469737705"><ele>2.0</ele><time>2026-04-11T14:11:30Z</time></trkpt><trkpt lat="44.85110845669606" lon="11.70970724563685"><ele>1.9999999999999998</ele><time>2026-04-11T14:11:32Z</time></trkpt><trkpt lat="44.85110976072491" lon="11.709806401778032"><ele>2.0</ele><time>2026-04-11T14:11:34Z</time></trkpt><trkpt lat="44.85110710464261" lon="11.709903814604072"><ele>1.9999999999999998</ele><time>2026-04-11T14:11:36Z</time></trkpt><trkpt lat="44.851110615932306" lon="11.709999989023865"><ele>2.0</ele><time>2026-04-11T14:11:38Z</time></trkpt><trkpt lat="44.85111612470843" lon="11.710112061675959"><ele>2.0</ele><time>2026-04-11T14:11:40Z</time></trkpt><trkpt lat="44.85113639739377" lon="11.710226436186556"><ele>2.0</ele><time>2026-04-11T14:11:41.999Z</time></trkpt><trkpt lat="44.85114134619686" lon="11.710346661978914"><ele>1.9999999999999998</ele><time>2026-04-11T14:11:43.999Z</time></trkpt><trkpt lat="44.85115047779376" lon="11.7104650478607"><ele>2.0</ele><time>2026-04-11T14:11:45.999Z</time></trkpt><trkpt lat="44.85115663133813" lon="11.710585486101966"><ele>2.0</ele><time>2026-04-11T14:11:47.999Z</time></trkpt><trkpt lat="44.851171397760126" lon="11.71069454383575"><ele>1.9999999999999998</ele><time>2026-04-11T14:11:49.999Z</time></trkpt><trkpt lat="44.85116929104689" lon="11.71079867398134"><ele>2.0</ele><time>2026-04-11T14:11:51.999Z</time></trkpt><trkpt lat="44.851171286158156" lon="11.710896855708087"><ele>2.0</ele><time>2026-04-11T14:11:53.999Z</time></trkpt><trkpt lat="44.85117725712853" lon="11.71099119240398"><ele>1.9999999999999998</ele><time>2026-04-11T14:11:55.999Z</time></trkpt><trkpt lat="44.851185972946574" lon="11.7110907335413"><ele>2.0</ele><time>2026-04-11T14:11:58Z</time></trkpt><trkpt lat="44.85118878388894" lon="11.711195448438778"><ele>2.0</ele><time>2026-04-11T14:12:00Z</time></trkpt><trkpt lat="44.85119556898441" lon="11.71129821386658"><ele>2.142857142857143</ele><time>2026-04-11T14:12:02Z</time></trkpt><trkpt lat="44.85120574758806" lon="11.71139998349361"><ele>2.2857142857142856</ele><time>2026-04-11T14:12:04Z</time></trkpt><trkpt lat="44.8512003270513" lon="11.71149369704282"><ele>2.4285714285714284</ele><time>2026-04-11T14:12:06Z</time></trkpt><trkpt lat="44.85119999303017" lon="11.71159501950059"><ele>2.571428571428571</ele><time>2026-04-11T14:12:08Z</time></trkpt><trkpt lat="44.85119787485617" lon="11.711700963333827"><ele>2.7142857142857144</ele><time>2026-04-11T14:12:10Z</time></trkpt><trkpt lat="44.85120158003577" lon="11.711816642896014"><ele>2.8571428571428568</ele><time>2026-04-11T14:12:12Z</time></trkpt><trkpt lat="44.851201417695556" lon="11.711929150585748"><ele>3.0</ele><time>2026-04-11T14:12:14Z</time></trkpt><trkpt lat="44.85120039101766" lon="11.712038495548187"><ele>3.0</ele><time>2026-04-11T14:12:16Z</time></trkpt><trkpt lat="44.8512008351667" lon="11.712142278086937"><ele>3.0</ele><time>2026-04-11T14:12:18Z</time></trkpt><trkpt lat="44.851196427080666" lon="11.712237355369533"><ele>3.0</ele><time>2026-04-11T14:12:20Z</time></trkpt><trkpt lat="44.8512024522556" lon="11.712334001677188"><ele>3.0</ele><time>2026-04-11T14:12:22Z</time></trkpt><trkpt lat="44.85119893372717" lon="11.712442370453925"><ele>3.0</ele><time>2026-04-11T14:12:24Z</time></trkpt><trkpt lat="44.85121286966278" lon="11.712556307668606"><ele>3.0</ele><time>2026-04-11T14:12:26Z</time></trkpt><trkpt lat="44.85123253470864" lon="11.712674458028767"><ele>2.8333333333333335</ele><time>2026-04-11T14:12:28Z</time></trkpt><trkpt lat="44.85125565427228" lon="11.712791727755377"><ele>2.6666666666666665</ele><time>2026-04-11T14:12:30Z</time></trkpt><trkpt lat="44.851283873158" lon="11.71290644575673"><ele>2.5</ele><time>2026-04-11T14:12:32Z</time></trkpt><trkpt lat="44.851303746687314" lon="11.713022627220212"><ele>2.333333333333333</ele><time>2026-04-11T14:12:34Z</time></trkpt><trkpt lat="44.85133062708178" lon="11.71313630787906"><ele>2.1666666666666665</ele><time>2026-04-11T14:12:36Z</time></trkpt><trkpt lat="44.851356605595825" lon="11.713248294377205"><ele>2.0</ele><time>2026-04-11T14:12:38Z</time></trkpt><trkpt lat="44.851373038115675" lon="11.713354316661267"><ele>1.9999999999999998</ele><time>2026-04-11T14:12:40Z</time></trkpt><trkpt lat="44.851393579812544" lon="11.713473252504457"><ele>2.0</ele><time>2026-04-11T14:12:42Z</time></trkpt><trkpt lat="44.85141645210358" lon="11.71358935340004"><ele>2.0</ele><time>2026-04-11T14:12:44Z</time></trkpt><trkpt lat="44.85144112076576" lon="11.713697445772628"><ele>2.0</ele><time>2026-04-11T14:12:46Z</time></trkpt><trkpt lat="44.851466391913405" lon="11.713801219908254"><ele>1.9999999999999998</ele><time>2026-04-11T14:12:48Z</time></trkpt><trkpt lat="44.8514841625127" lon="11.713898619786612"><ele>2.0</ele><time>2026-04-11T14:12:50Z</time></trkpt><trkpt lat="44.85145255633867" lon="11.713987844513516"><ele>1.9999999999999998</ele><time>2026-04-11T14:12:52Z</time></trkpt><trkpt lat="44.85143095815955" lon="11.7140773203119"><ele>2.0</ele><time>2026-04-11T14:12:54Z</time></trkpt><trkpt lat="44.85142494416628" lon="11.71417049797587"><ele>2.0</ele><time>2026-04-11T14:12:56Z</time></trkpt><trkpt lat="44.85143459188462" lon="11.714276827683927"><ele>2.0</ele><time>2026-04-11T14:12:58Z</time></trkpt><trkpt lat="44.85140676348717" lon="11.714367074857773"><ele>1.9999999999999998</ele><time>2026-04-11T14:13:00Z</time></trkpt><trkpt lat="44.851302101434754" lon="11.714332048987956"><ele>2.0</ele><time>2026-04-11T14:13:02Z</time></trkpt><trkpt lat="44.85129133316019" lon="11.71442185429838"><ele>1.8333333333333333</ele><time>2026-04-11T14:13:04Z</time></trkpt><trkpt lat="44.85134600501047" lon="11.714585100571622"><ele>1.6666666666666665</ele><time>2026-04-11T14:13:09Z</time></trkpt><trkpt lat="44.85136927901759" lon="11.71469002568179"><ele>1.5</ele><time>2026-04-11T14:13:11Z</time></trkpt><trkpt lat="44.85139052088342" lon="11.714778975757664"><ele>1.3333333333333333</ele><time>2026-04-11T14:13:13Z</time></trkpt><trkpt lat="44.85139477417982" lon="11.71486779773361"><ele>1.1666666666666665</ele><time>2026-04-11T14:13:15Z</time></trkpt><trkpt lat="44.85139482613705" lon="11.714976689401057"><ele>1.0</ele><time>2026-04-11T14:13:18Z</time></trkpt><trkpt lat="44.851426082767354" lon="11.715078562506285"><ele>0.9999999999999999</ele><time>2026-04-11T14:13:20Z</time></trkpt><trkpt lat="44.85143512969712" lon="11.71519172034358"><ele>1.0</ele><time>2026-04-11T14:13:22Z</time></trkpt><trkpt lat="44.851455779254096" lon="11.715290307927145"><ele>1.0</ele><time>2026-04-11T14:13:24Z</time></trkpt><trkpt lat="44.85147151357512" lon="11.7153814696144"><ele>1.0</ele><time>2026-04-11T14:13:26Z</time></trkpt><trkpt lat="44.85148448601252" lon="11.715503392153765"><ele>0.9999999999999999</ele><time>2026-04-11T14:13:29Z</time></trkpt><trkpt lat="44.851486287860105" lon="11.715614194252536"><ele>1.0</ele><time>2026-04-11T14:13:32Z</time></trkpt><trkpt lat="44.85149751636486" lon="11.715717572676539"><ele>1.2857142857142856</ele><time>2026-04-11T14:13:35Z</time></trkpt><trkpt lat="44.85151183130597" lon="11.71580934332865"><ele>1.5714285714285712</ele><time>2026-04-11T14:13:37.999Z</time></trkpt><trkpt lat="44.851521985288144" lon="11.715915902432517"><ele>1.857142857142857</ele><time>2026-04-11T14:13:41.999Z</time></trkpt><trkpt lat="44.85152288665177" lon="11.715787278755325"><ele>2.142857142857143</ele><time>2026-04-11T14:13:52.999Z</time></trkpt><trkpt lat="44.8515109655804" lon="11.715695323058307"><ele>2.4285714285714284</ele><time>2026-04-11T14:13:54.999Z</time></trkpt><trkpt lat="44.851497623706955" lon="11.715599946400804"><ele>2.714285714285714</ele><time>2026-04-11T14:13:56.999Z</time></trkpt><trkpt lat="44.85148252053094" lon="11.715491076115383"><ele>3.0</ele><time>2026-04-11T14:13:58.999Z</time></trkpt><trkpt lat="44.851467188339676" lon="11.715398028162193"><ele>2.9999999999999996</ele><time>2026-04-11T14:14:00.999Z</time></trkpt><trkpt lat="44.85145826925469" lon="11.715304293807641"><ele>3.0</ele><time>2026-04-11T14:14:03Z</time></trkpt><trkpt lat="44.8514391002547" lon="11.715167566615401"><ele>3.0</ele><time>2026-04-11T14:14:06Z</time></trkpt><trkpt lat="44.851426656540845" lon="11.715064300215078"><ele>3.0</ele><time>2026-04-11T14:14:08Z</time></trkpt><trkpt lat="44.8514070323596" lon="11.714972173727043"><ele>3.0</ele><time>2026-04-11T14:14:10Z</time></trkpt><trkpt lat="44.85140407859319" lon="11.714879700390025"><ele>2.9999999999999996</ele><time>2026-04-11T14:14:12Z</time></trkpt><trkpt lat="44.851390855236644" lon="11.714781699169555"><ele>3.0</ele><time>2026-04-11T14:14:14Z</time></trkpt><trkpt lat="44.85137385338329" lon="11.714690421368564"><ele>2.8333333333333335</ele><time>2026-04-11T14:14:16Z</time></trkpt><trkpt lat="44.85135114843974" lon="11.714586752712332"><ele>2.6666666666666665</ele><time>2026-04-11T14:14:19Z</time></trkpt><trkpt lat="44.8512666982676" lon="11.714479153414882"><ele>2.5</ele><time>2026-04-11T14:14:50Z</time></trkpt><trkpt lat="44.85129427883347" lon="11.714391356340604"><ele>2.333333333333333</ele><time>2026-04-11T14:15:28.999Z</time></trkpt><trkpt lat="44.851395449279856" lon="11.714375202485774"><ele>2.1666666666666665</ele><time>2026-04-11T14:15:36.999Z</time></trkpt><trkpt lat="44.85147230752409" lon="11.714385534621762"><ele>2.0</ele><time>2026-04-11T14:15:39.999Z</time></trkpt><trkpt lat="44.85152688946812" lon="11.714451567751844"><ele>1.857142857142857</ele><time>2026-04-11T14:15:41.999Z</time></trkpt><trkpt lat="44.85156023318115" lon="11.714533792828014"><ele>1.714285714285714</ele><time>2026-04-11T14:15:43.999Z</time></trkpt><trkpt lat="44.8515942090643" lon="11.714619528286873"><ele>1.5714285714285714</ele><time>2026-04-11T14:15:45.999Z</time></trkpt><trkpt lat="44.851612830104365" lon="11.714717002799636"><ele>1.4285714285714284</ele><time>2026-04-11T14:15:47.999Z</time></trkpt><trkpt lat="44.851632161347766" lon="11.714837648231073"><ele>1.2857142857142856</ele><time>2026-04-11T14:15:50.999Z</time></trkpt><trkpt lat="44.85164462695777" lon="11.714929742700193"><ele>1.1428571428571428</ele><time>2026-04-11T14:15:53.999Z</time></trkpt><trkpt lat="44.851657266136876" lon="11.71502932060465"><ele>1.0</ele><time>2026-04-11T14:15:57.999Z</time></trkpt><trkpt lat="44.85165932410208" lon="11.715120861705548"><ele>0.9999999999999999</ele><time>2026-04-11T14:16:01.999Z</time></trkpt><trkpt lat="44.8516851663492" lon="11.715006515465804"><ele>1.0</ele><time>2026-04-11T14:16:09Z</time></trkpt><trkpt lat="44.85166539076607" lon="11.714897917799934"><ele>1.0</ele><time>2026-04-11T14:16:11Z</time></trkpt><trkpt lat="44.85165520087305" lon="11.714798675658951"><ele>1.0</ele><time>2026-04-11T14:16:13Z</time></trkpt><trkpt lat="44.85163480866402" lon="11.714700194993958"><ele>0.9999999999999999</ele><time>2026-04-11T14:16:15Z</time></trkpt><trkpt lat="44.85162340180093" lon="11.714599898319813"><ele>1.0</ele><time>2026-04-11T14:16:17Z</time></trkpt><trkpt lat="44.851626248345895" lon="11.714502455843268"><ele>0.9999999999999999</ele><time>2026-04-11T14:16:19Z</time></trkpt><trkpt lat="44.85166529229971" lon="11.714409069427376"><ele>1.0</ele><time>2026-04-11T14:16:22Z</time></trkpt><trkpt lat="44.85171460075416" lon="11.714309455286724"><ele>1.0</ele><time>2026-04-11T14:16:25Z</time></trkpt><trkpt lat="44.85172740662761" lon="11.714180298843553"><ele>1.0</ele><time>2026-04-11T14:16:27Z</time></trkpt><trkpt lat="44.85169026516134" lon="11.714064909409796"><ele>0.9999999999999999</ele><time>2026-04-11T14:16:29Z</time></trkpt><trkpt lat="44.85161950109625" lon="11.714002153118676"><ele>1.0</ele><time>2026-04-11T14:16:31Z</time></trkpt><trkpt lat="44.85153671380377" lon="11.714015898569473"><ele>1.1666666666666665</ele><time>2026-04-11T14:16:33Z</time></trkpt><trkpt lat="44.85147699050109" lon="11.714082193063453"><ele>1.3333333333333333</ele><time>2026-04-11T14:16:35Z</time></trkpt><trkpt lat="44.85143619233536" lon="11.714159052772361"><ele>1.5</ele><time>2026-04-11T14:16:37Z</time></trkpt><trkpt lat="44.851354866149485" lon="11.714224527481484"><ele>1.6666666666666665</ele><time>2026-04-11T14:16:40Z</time></trkpt><trkpt lat="44.85127528357398" lon="11.714273027007307"><ele>1.8333333333333333</ele><time>2026-04-11T14:16:42Z</time></trkpt><trkpt lat="44.85121170914266" lon="11.71431684569143"><ele>2.0</ele><time>2026-04-11T14:16:44Z</time></trkpt><trkpt lat="44.851142107215175" lon="11.714355300710707"><ele>2.0</ele><time>2026-04-11T14:16:46Z</time></trkpt><trkpt lat="44.85108294464056" lon="11.714399834383137"><ele>1.9999999999999998</ele><time>2026-04-11T14:16:48Z</time></trkpt><trkpt lat="44.851026154552876" lon="11.71443987560901"><ele>2.0</ele><time>2026-04-11T14:16:50Z</time></trkpt><trkpt lat="44.850949258921524" lon="11.714498150368101"><ele>2.0</ele><time>2026-04-11T14:16:53Z</time></trkpt><trkpt lat="44.850880584542054" lon="11.714562361173417"><ele>1.9999999999999998</ele><time>2026-04-11T14:16:56Z</time></trkpt><trkpt lat="44.850829499464446" lon="11.714635713475479"><ele>2.0</ele><time>2026-04-11T14:16:59Z</time></trkpt><trkpt lat="44.85077930780451" lon="11.714697743224127"><ele>2.0</ele><time>2026-04-11T14:17:02Z</time></trkpt><trkpt lat="44.850724947877765" lon="11.714770921625004"><ele>1.9999999999999998</ele><time>2026-04-11T14:17:05Z</time></trkpt><trkpt lat="44.850671274733116" lon="11.714845239856286"><ele>2.0</ele><time>2026-04-11T14:17:07Z</time></trkpt><trkpt lat="44.8506138834996" lon="11.714920700001104"><ele>2.0</ele><time>2026-04-11T14:17:09Z</time></trkpt><trkpt lat="44.850556566459574" lon="11.714999849364645"><ele>2.0</ele><time>2026-04-11T14:17:11Z</time></trkpt><trkpt lat="44.85049437577482" lon="11.715103679117117"><ele>1.9999999999999998</ele><time>2026-04-11T14:17:13Z</time></trkpt><trkpt lat="44.85042666739128" lon="11.715203606880332"><ele>2.0</ele><time>2026-04-11T14:17:15Z</time></trkpt><trkpt lat="44.85036219353487" lon="11.715310873524658"><ele>2.0</ele><time>2026-04-11T14:17:17Z</time></trkpt><trkpt lat="44.85029056533257" lon="11.715414796045948"><ele>2.0</ele><time>2026-04-11T14:17:19Z</time></trkpt><trkpt lat="44.85022846655946" lon="11.715526682359979"><ele>2.0</ele><time>2026-04-11T14:17:21Z</time></trkpt><trkpt lat="44.85016291570334" lon="11.715636752212998"><ele>2.0</ele><time>2026-04-11T14:17:23Z</time></trkpt><trkpt lat="44.850099187889015" lon="11.715739710788943"><ele>2.0</ele><time>2026-04-11T14:17:24.999Z</time></trkpt><trkpt lat="44.850035900774785" lon="11.715834606223575"><ele>1.9999999999999998</ele><time>2026-04-11T14:17:26.999Z</time></trkpt><trkpt lat="44.84997803306431" lon="11.715924621622204"><ele>2.0</ele><time>2026-04-11T14:17:28.999Z</time></trkpt><trkpt lat="44.849925394047865" lon="11.71601025432642"><ele>2.0</ele><time>2026-04-11T14:17:30.999Z</time></trkpt><trkpt lat="44.84987681277521" lon="11.716092864056336"><ele>2.0</ele><time>2026-04-11T14:17:32.999Z</time></trkpt><trkpt lat="44.849830165704816" lon="11.716165613947512"><ele>1.9999999999999998</ele><time>2026-04-11T14:17:34.999Z</time></trkpt><trkpt lat="44.849786099035946" lon="11.716240141706116"><ele>2.0</ele><time>2026-04-11T14:17:36.999Z</time></trkpt><trkpt lat="44.849722055359734" lon="11.71633973825281"><ele>1.9999999999999998</ele><time>2026-04-11T14:17:39.999Z</time></trkpt><trkpt lat="44.84966019674709" lon="11.716439076502612"><ele>2.0</ele><time>2026-04-11T14:17:41.999Z</time></trkpt><trkpt lat="44.849603706423416" lon="11.716528403121176"><ele>2.0</ele><time>2026-04-11T14:17:43.999Z</time></trkpt><trkpt lat="44.8495521175871" lon="11.716613385635918"><ele>2.0</ele><time>2026-04-11T14:17:45.999Z</time></trkpt><trkpt lat="44.849499901504224" lon="11.716694617167644"><ele>1.9999999999999998</ele><time>2026-04-11T14:17:47.999Z</time></trkpt><trkpt lat="44.84945815697971" lon="11.716773832816273"><ele>2.0</ele><time>2026-04-11T14:17:49.999Z</time></trkpt><trkpt lat="44.84940660238471" lon="11.716840361210773"><ele>1.9999999999999998</ele><time>2026-04-11T14:17:51.999Z</time></trkpt><trkpt lat="44.849359905954046" lon="11.716903566131794"><ele>2.0</ele><time>2026-04-11T14:17:53.999Z</time></trkpt><trkpt lat="44.84930051271153" lon="11.71699834664819"><ele>2.0</ele><time>2026-04-11T14:17:55.999Z</time></trkpt><trkpt lat="44.84923322478398" lon="11.717097916842626"><ele>2.0</ele><time>2026-04-11T14:17:57.999Z</time></trkpt><trkpt lat="44.84916914393886" lon="11.717195761726343"><ele>1.9999999999999998</ele><time>2026-04-11T14:17:59.999Z</time></trkpt><trkpt lat="44.84911010262328" lon="11.717289608726693"><ele>2.0</ele><time>2026-04-11T14:18:01.999Z</time></trkpt><trkpt lat="44.84904711700609" lon="11.717368030379426"><ele>2.0</ele><time>2026-04-11T14:18:03.999Z</time></trkpt><trkpt lat="44.848984437436386" lon="11.717455307834854"><ele>2.0</ele><time>2026-04-11T14:18:05.999Z</time></trkpt><trkpt lat="44.848908635317066" lon="11.717549056242062"><ele>2.0</ele><time>2026-04-11T14:18:07.999Z</time></trkpt><trkpt lat="44.84883261009776" lon="11.717645596678642"><ele>2.0</ele><time>2026-04-11T14:18:09.999Z</time></trkpt><trkpt lat="44.8487577877064" lon="11.717742132074038"><ele>2.0</ele><time>2026-04-11T14:18:11.999Z</time></trkpt><trkpt lat="44.84868183048462" lon="11.717834690972571"><ele>1.8</ele><time>2026-04-11T14:18:13.999Z</time></trkpt><trkpt lat="44.84860519891362" lon="11.717919146792923"><ele>1.6</ele><time>2026-04-11T14:18:16Z</time></trkpt><trkpt lat="44.84853142520583" lon="11.718006921153128"><ele>1.4000000000000001</ele><time>2026-04-11T14:18:18Z</time></trkpt><trkpt lat="44.848457746269474" lon="11.7180854085599"><ele>1.2000000000000002</ele><time>2026-04-11T14:18:20Z</time></trkpt><trkpt lat="44.848380057657934" lon="11.718151433798582"><ele>1.0</ele><time>2026-04-11T14:18:22Z</time></trkpt><trkpt lat="44.84829701984929" lon="11.718206738092412"><ele>1.6</ele><time>2026-04-11T14:18:24Z</time></trkpt><trkpt lat="44.84821286941419" lon="11.718259030240603"><ele>2.2</ele><time>2026-04-11T14:18:26Z</time></trkpt><trkpt lat="44.848127709628805" lon="11.718311561710447"><ele>2.8000000000000003</ele><time>2026-04-11T14:18:28Z</time></trkpt><trkpt lat="44.84804107667996" lon="11.718355928400241"><ele>3.4000000000000004</ele><time>2026-04-11T14:18:30Z</time></trkpt><trkpt lat="44.8479523398522" lon="11.718389644168683"><ele>4.0</ele><time>2026-04-11T14:18:32Z</time></trkpt><trkpt lat="44.84786107727461" lon="11.718388176938909"><ele>4.0</ele><time>2026-04-11T14:18:34Z</time></trkpt><trkpt lat="44.847791564591425" lon="11.718398002916073"><ele>4.0</ele><time>2026-04-11T14:18:36Z</time></trkpt><trkpt lat="44.847723232015476" lon="11.718407662083766"><ele>4.0</ele><time>2026-04-11T14:18:38Z</time></trkpt><trkpt lat="44.84776771013915" lon="11.71870980448117"><ele>4.0</ele><time>2026-04-11T14:18:41Z</time></trkpt><trkpt lat="44.847779567921485" lon="11.718809085086475"><ele>4.0</ele><time>2026-04-11T14:18:43Z</time></trkpt><trkpt lat="44.847792449172005" lon="11.718916934754949"><ele>3.9999999999999996</ele><time>2026-04-11T14:18:45Z</time></trkpt><trkpt lat="44.84780365366242" lon="11.719020468010664"><ele>4.0</ele><time>2026-04-11T14:18:47Z</time></trkpt><trkpt lat="44.847837538829715" lon="11.719104911689204"><ele>4.0</ele><time>2026-04-11T14:18:49Z</time></trkpt><trkpt lat="44.84788527415256" lon="11.719205050419898"><ele>4.0</ele><time>2026-04-11T14:18:52Z</time></trkpt><trkpt lat="44.84793322185232" lon="11.719292992948967"><ele>3.9999999999999996</ele><time>2026-04-11T14:18:55Z</time></trkpt><trkpt lat="44.84797819527351" lon="11.719374161805494"><ele>4.0</ele><time>2026-04-11T14:18:58Z</time></trkpt><trkpt lat="44.84802254553047" lon="11.719479236233449"><ele>3.9999999999999996</ele><time>2026-04-11T14:19:01Z</time></trkpt><trkpt lat="44.8480781791144" lon="11.719570315360587"><ele>4.0</ele><time>2026-04-11T14:19:04Z</time></trkpt><trkpt lat="44.84812015703207" lon="11.71965461224374"><ele>4.0</ele><time>2026-04-11T14:19:06Z</time></trkpt><trkpt lat="44.84817284237535" lon="11.719743320818095"><ele>4.0</ele><time>2026-04-11T14:19:08Z</time></trkpt><trkpt lat="44.848220526945546" lon="11.71983898830141"><ele>3.9999999999999996</ele><time>2026-04-11T14:19:10Z</time></trkpt><trkpt lat="44.84827660957828" lon="11.719929351603055"><ele>4.0</ele><time>2026-04-11T14:19:12Z</time></trkpt><trkpt lat="44.848338321847955" lon="11.720020627844956"><ele>4.0</ele><time>2026-04-11T14:19:14Z</time></trkpt><trkpt lat="44.848397437729176" lon="11.72011274712308"><ele>4.0</ele><time>2026-04-11T14:19:16Z</time></trkpt><trkpt lat="44.84846084541313" lon="11.720197776133752"><ele>4.0</ele><time>2026-04-11T14:19:18Z</time></trkpt><trkpt lat="44.848512751332066" lon="11.72029428989805"><ele>4.0</ele><time>2026-04-11T14:19:20Z</time></trkpt><trkpt lat="44.848574154144096" lon="11.720400652028358"><ele>4.0</ele><time>2026-04-11T14:19:22Z</time></trkpt><trkpt lat="44.848629571945665" lon="11.720523341842787"><ele>4.4</ele><time>2026-04-11T14:19:24Z</time></trkpt><trkpt lat="44.8486916242653" lon="11.72063525033149"><ele>4.800000000000001</ele><time>2026-04-11T14:19:26Z</time></trkpt><trkpt lat="44.84875506976269" lon="11.720751572763755"><ele>5.199999999999999</ele><time>2026-04-11T14:19:28Z</time></trkpt><trkpt lat="44.848811026761396" lon="11.720871931417124"><ele>5.6</ele><time>2026-04-11T14:19:30Z</time></trkpt><trkpt lat="44.8488671751572" lon="11.720985471442347"><ele>6.0</ele><time>2026-04-11T14:19:31.999Z</time></trkpt><trkpt lat="44.84892342538023" lon="11.7210895155091"><ele>6.333333333333333</ele><time>2026-04-11T14:19:33.999Z</time></trkpt><trkpt lat="44.84896618493042" lon="11.7211962071845"><ele>6.666666666666666</ele><time>2026-04-11T14:19:35.999Z</time></trkpt><trkpt lat="44.849023671744604" lon="11.721294315976465"><ele>7.0</ele><time>2026-04-11T14:19:37.999Z</time></trkpt><trkpt lat="44.8490616629417" lon="11.721395735607322"><ele>7.333333333333333</ele><time>2026-04-11T14:19:39.999Z</time></trkpt><trkpt lat="44.84909950052951" lon="11.721496847582161"><ele>7.666666666666666</ele><time>2026-04-11T14:19:41.999Z</time></trkpt><trkpt lat="44.84914412992635" lon="11.721595246561208"><ele>8.0</ele><time>2026-04-11T14:19:43.999Z</time></trkpt><trkpt lat="44.84919081807535" lon="11.72167290735887"><ele>7.999999999999999</ele><time>2026-04-11T14:19:45.999Z</time></trkpt><trkpt lat="44.849219236715385" lon="11.72177597412083"><ele>8.0</ele><time>2026-04-11T14:19:47.999Z</time></trkpt><trkpt lat="44.84927078450311" lon="11.721889860574647"><ele>8.0</ele><time>2026-04-11T14:19:49.999Z</time></trkpt><trkpt lat="44.849316990203924" lon="11.72199907534724"><ele>8.0</ele><time>2026-04-11T14:19:51.999Z</time></trkpt><trkpt lat="44.84936360498958" lon="11.722096943003946"><ele>7.999999999999999</ele><time>2026-04-11T14:19:53.999Z</time></trkpt><trkpt lat="44.84941030295497" lon="11.722194927658121"><ele>8.0</ele><time>2026-04-11T14:19:55.999Z</time></trkpt><trkpt lat="44.849449333851766" lon="11.722290434513393"><ele>7.857142857142857</ele><time>2026-04-11T14:19:57.999Z</time></trkpt><trkpt lat="44.849486857801" lon="11.722381696150956"><ele>7.7142857142857135</ele><time>2026-04-11T14:19:59.999Z</time></trkpt><trkpt lat="44.84952421436811" lon="11.722473052038481"><ele>7.571428571428571</ele><time>2026-04-11T14:20:01.999Z</time></trkpt><trkpt lat="44.849563600147015" lon="11.722560868284242"><ele>7.428571428571429</ele><time>2026-04-11T14:20:03.999Z</time></trkpt><trkpt lat="44.8496043619826" lon="11.72264946513853"><ele>7.285714285714286</ele><time>2026-04-11T14:20:05.999Z</time></trkpt><trkpt lat="44.84964679115066" lon="11.72273456150471"><ele>7.142857142857142</ele><time>2026-04-11T14:20:07.999Z</time></trkpt><trkpt lat="44.84968343540116" lon="11.722825057632278"><ele>7.0</ele><time>2026-04-11T14:20:09.999Z</time></trkpt><trkpt lat="44.84972284133225" lon="11.722920123957689"><ele>7.000000000000001</ele><time>2026-04-11T14:20:11.999Z</time></trkpt><trkpt lat="44.849760192646386" lon="11.72301463586979"><ele>7.0</ele><time>2026-04-11T14:20:13.999Z</time></trkpt><trkpt lat="44.84979647669408" lon="11.723103326525623"><ele>7.0</ele><time>2026-04-11T14:20:15.999Z</time></trkpt><trkpt lat="44.849840534885416" lon="11.723192874681017"><ele>7.0</ele><time>2026-04-11T14:20:17.999Z</time></trkpt><trkpt lat="44.84987298856241" lon="11.72328469420058"><ele>7.000000000000001</ele><time>2026-04-11T14:20:19.999Z</time></trkpt><trkpt lat="44.84990283973119" lon="11.723378479058466"><ele>7.0</ele><time>2026-04-11T14:20:22Z</time></trkpt><trkpt lat="44.84993756271397" lon="11.723477572258611"><ele>6.714285714285714</ele><time>2026-04-11T14:20:24Z</time></trkpt><trkpt lat="44.849977293952804" lon="11.723566514895346"><ele>6.428571428571429</ele><time>2026-04-11T14:20:26Z</time></trkpt><trkpt lat="44.85001280055462" lon="11.723662977532175"><ele>6.142857142857142</ele><time>2026-04-11T14:20:28Z</time></trkpt><trkpt lat="44.85003766223112" lon="11.723758647788937"><ele>5.857142857142858</ele><time>2026-04-11T14:20:30Z</time></trkpt><trkpt lat="44.85007763548216" lon="11.723847773228103"><ele>5.571428571428571</ele><time>2026-04-11T14:20:32Z</time></trkpt><trkpt lat="44.85010897284862" lon="11.723942880025932"><ele>5.285714285714286</ele><time>2026-04-11T14:20:34Z</time></trkpt><trkpt lat="44.850127561626536" lon="11.724045078353596"><ele>5.0</ele><time>2026-04-11T14:20:36Z</time></trkpt><trkpt lat="44.85016074943415" lon="11.724141321056878"><ele>4.857142857142857</ele><time>2026-04-11T14:20:38Z</time></trkpt><trkpt lat="44.85017817591609" lon="11.724242996472494"><ele>4.714285714285714</ele><time>2026-04-11T14:20:40Z</time></trkpt><trkpt lat="44.85019806622902" lon="11.72434174406338"><ele>4.571428571428571</ele><time>2026-04-11T14:20:42Z</time></trkpt><trkpt lat="44.850218779354634" lon="11.724442783032071"><ele>4.428571428571429</ele><time>2026-04-11T14:20:44Z</time></trkpt><trkpt lat="44.85024733010375" lon="11.724540456332422"><ele>4.285714285714286</ele><time>2026-04-11T14:20:46Z</time></trkpt><trkpt lat="44.85026477760071" lon="11.724643005377427"><ele>4.142857142857142</ele><time>2026-04-11T14:20:48Z</time></trkpt><trkpt lat="44.8502774287273" lon="11.724745227284766"><ele>4.0</ele><time>2026-04-11T14:20:50Z</time></trkpt><trkpt lat="44.85028647219684" lon="11.724850761326712"><ele>3.714285714285714</ele><time>2026-04-11T14:20:52Z</time></trkpt><trkpt lat="44.850297241841226" lon="11.724950952632904"><ele>3.428571428571428</ele><time>2026-04-11T14:20:54Z</time></trkpt><trkpt lat="44.8503115547445" lon="11.725054833117039"><ele>3.142857142857143</ele><time>2026-04-11T14:20:56Z</time></trkpt><trkpt lat="44.850327676555516" lon="11.725154601060677"><ele>2.8571428571428568</ele><time>2026-04-11T14:20:58Z</time></trkpt><trkpt lat="44.85034146726051" lon="11.725252910399783"><ele>2.571428571428571</ele><time>2026-04-11T14:21:00Z</time></trkpt><trkpt lat="44.85034294374754" lon="11.725360523737804"><ele>2.2857142857142856</ele><time>2026-04-11T14:21:02Z</time></trkpt><trkpt lat="44.8503662169566" lon="11.725461434496383"><ele>2.0</ele><time>2026-04-11T14:21:04Z</time></trkpt><trkpt lat="44.85037207685344" lon="11.725562885832014"><ele>1.9999999999999998</ele><time>2026-04-11T14:21:06Z</time></trkpt><trkpt lat="44.850384370798" lon="11.725666428332037"><ele>2.0</ele><time>2026-04-11T14:21:08Z</time></trkpt><trkpt lat="44.85037736207018" lon="11.72577040329185"><ele>2.0</ele><time>2026-04-11T14:21:10Z</time></trkpt><trkpt lat="44.85038594144474" lon="11.72587949068212"><ele>2.0</ele><time>2026-04-11T14:21:12Z</time></trkpt><trkpt lat="44.850394200980396" lon="11.726003672308117"><ele>1.9999999999999998</ele><time>2026-04-11T14:21:14Z</time></trkpt><trkpt lat="44.85039514653429" lon="11.726132255844607"><ele>2.0</ele><time>2026-04-11T14:21:16Z</time></trkpt><trkpt lat="44.850394167019196" lon="11.726253215160957"><ele>1.9999999999999998</ele><time>2026-04-11T14:21:18Z</time></trkpt><trkpt lat="44.85039153491844" lon="11.726373502736573"><ele>2.0</ele><time>2026-04-11T14:21:20Z</time></trkpt><trkpt lat="44.85039638381294" lon="11.726488474446285"><ele>2.0</ele><time>2026-04-11T14:21:22Z</time></trkpt><trkpt lat="44.85038782420651" lon="11.726596993553102"><ele>2.0</ele><time>2026-04-11T14:21:24Z</time></trkpt><trkpt lat="44.85038627102097" lon="11.726707042715612"><ele>1.9999999999999998</ele><time>2026-04-11T14:21:26Z</time></trkpt><trkpt lat="44.85038259649603" lon="11.726814955528502"><ele>2.0</ele><time>2026-04-11T14:21:28Z</time></trkpt><trkpt lat="44.85038006156152" lon="11.726918658538704"><ele>2.0</ele><time>2026-04-11T14:21:30Z</time></trkpt><trkpt lat="44.850378044608725" lon="11.727021653715584"><ele>1.9999999999999998</ele><time>2026-04-11T14:21:31.999Z</time></trkpt><trkpt lat="44.85036887419277" lon="11.727125238805122"><ele>2.0</ele><time>2026-04-11T14:21:33.999Z</time></trkpt><trkpt lat="44.85036410572762" lon="11.727231674775688"><ele>2.0</ele><time>2026-04-11T14:21:35.999Z</time></trkpt><trkpt lat="44.85035734944317" lon="11.72733743025957"><ele>1.9999999999999998</ele><time>2026-04-11T14:21:37.999Z</time></trkpt><trkpt lat="44.85035181645001" lon="11.727444186675248"><ele>2.0</ele><time>2026-04-11T14:21:39.999Z</time></trkpt><trkpt lat="44.85034681332934" lon="11.727546221483813"><ele>2.0</ele><time>2026-04-11T14:21:41.999Z</time></trkpt><trkpt lat="44.8503381211436" lon="11.727653340722842"><ele>2.142857142857143</ele><time>2026-04-11T14:21:43.999Z</time></trkpt><trkpt lat="44.85033031075315" lon="11.727758367941522"><ele>2.2857142857142856</ele><time>2026-04-11T14:21:45.999Z</time></trkpt><trkpt lat="44.85031266164782" lon="11.727857828001993"><ele>2.4285714285714284</ele><time>2026-04-11T14:21:47.999Z</time></trkpt><trkpt lat="44.85029927383704" lon="11.727954219782562"><ele>2.571428571428571</ele><time>2026-04-11T14:21:49.999Z</time></trkpt><trkpt lat="44.85028657667759" lon="11.728057289190936"><ele>2.7142857142857144</ele><time>2026-04-11T14:21:51.999Z</time></trkpt><trkpt lat="44.85027224830389" lon="11.728157800216769"><ele>2.8571428571428568</ele><time>2026-04-11T14:21:53.999Z</time></trkpt><trkpt lat="44.85025649603004" lon="11.728260875385025"><ele>3.0</ele><time>2026-04-11T14:21:55.999Z</time></trkpt><trkpt lat="44.850245470415345" lon="11.728363239769402"><ele>3.0</ele><time>2026-04-11T14:21:57.999Z</time></trkpt><trkpt lat="44.850226715514644" lon="11.728464994753839"><ele>3.0</ele><time>2026-04-11T14:21:59.999Z</time></trkpt><trkpt lat="44.850217858991705" lon="11.728566260327952"><ele>3.0</ele><time>2026-04-11T14:22:01.999Z</time></trkpt><trkpt lat="44.850192496530774" lon="11.728661743931033"><ele>3.0</ele><time>2026-04-11T14:22:03.999Z</time></trkpt><trkpt lat="44.85018087876995" lon="11.728761598636302"><ele>3.0</ele><time>2026-04-11T14:22:05.999Z</time></trkpt><trkpt lat="44.85015509266338" lon="11.728861907867572"><ele>3.0</ele><time>2026-04-11T14:22:07.999Z</time></trkpt><trkpt lat="44.85014224393811" lon="11.728979177380447"><ele>3.1666666666666665</ele><time>2026-04-11T14:22:09.999Z</time></trkpt><trkpt lat="44.85012454472655" lon="11.72910258750278"><ele>3.333333333333333</ele><time>2026-04-11T14:22:11.999Z</time></trkpt><trkpt lat="44.85011120159617" lon="11.72921775978829"><ele>3.5</ele><time>2026-04-11T14:22:13.999Z</time></trkpt><trkpt lat="44.850085097537075" lon="11.729315311421715"><ele>3.6666666666666665</ele><time>2026-04-11T14:22:15.999Z</time></trkpt><trkpt lat="44.8500708831161" lon="11.729418642847271"><ele>3.833333333333333</ele><time>2026-04-11T14:22:17.999Z</time></trkpt><trkpt lat="44.85006133742739" lon="11.729511385269154"><ele>4.0</ele><time>2026-04-11T14:22:19.999Z</time></trkpt><trkpt lat="44.85004209499539" lon="11.729610152829546"><ele>4.0</ele><time>2026-04-11T14:22:21.999Z</time></trkpt><trkpt lat="44.85003558585013" lon="11.729712475431676"><ele>3.9999999999999996</ele><time>2026-04-11T14:22:23.999Z</time></trkpt><trkpt lat="44.85001639452948" lon="11.72981286888512"><ele>4.0</ele><time>2026-04-11T14:22:25.999Z</time></trkpt><trkpt lat="44.85000903801319" lon="11.72991793266231"><ele>4.0</ele><time>2026-04-11T14:22:28Z</time></trkpt><trkpt lat="44.84999242729448" lon="11.730018407050308"><ele>3.9999999999999996</ele><time>2026-04-11T14:22:30Z</time></trkpt><trkpt lat="44.849975819012904" lon="11.730120412041519"><ele>4.0</ele><time>2026-04-11T14:22:32Z</time></trkpt><trkpt lat="44.84996540329731" lon="11.73022526398136"><ele>4.0</ele><time>2026-04-11T14:22:34Z</time></trkpt><trkpt lat="44.849948395105045" lon="11.73032989451042"><ele>3.9999999999999996</ele><time>2026-04-11T14:22:36Z</time></trkpt><trkpt lat="44.84993390095421" lon="11.730433503825015"><ele>4.0</ele><time>2026-04-11T14:22:38Z</time></trkpt><trkpt lat="44.84991910528762" lon="11.730535390572456"><ele>4.0</ele><time>2026-04-11T14:22:40Z</time></trkpt><trkpt lat="44.84990182209928" lon="11.730642103760463"><ele>4.0</ele><time>2026-04-11T14:22:42Z</time></trkpt><trkpt lat="44.84988334198694" lon="11.73076561155576"><ele>3.9999999999999996</ele><time>2026-04-11T14:22:44Z</time></trkpt><trkpt lat="44.84986335948831" lon="11.73088727620176"><ele>4.0</ele><time>2026-04-11T14:22:46Z</time></trkpt><trkpt lat="44.849846641708496" lon="11.73101114493387"><ele>3.833333333333333</ele><time>2026-04-11T14:22:48Z</time></trkpt><trkpt lat="44.849824950998716" lon="11.73113027649185"><ele>3.6666666666666665</ele><time>2026-04-11T14:22:50Z</time></trkpt><trkpt lat="44.84981679213576" lon="11.731247515511068"><ele>3.5</ele><time>2026-04-11T14:22:52Z</time></trkpt><trkpt lat="44.849801992020026" lon="11.731351304209516"><ele>3.333333333333333</ele><time>2026-04-11T14:22:54Z</time></trkpt><trkpt lat="44.84978414324576" lon="11.731448816366102"><ele>3.1666666666666665</ele><time>2026-04-11T14:22:56Z</time></trkpt><trkpt lat="44.84977199758441" lon="11.73154310794924"><ele>3.0</ele><time>2026-04-11T14:22:58Z</time></trkpt><trkpt lat="44.84975369834444" lon="11.73166524138615"><ele>2.9999999999999996</ele><time>2026-04-11T14:23:01Z</time></trkpt><trkpt lat="44.84973913992582" lon="11.731779877737626"><ele>3.0</ele><time>2026-04-11T14:23:04Z</time></trkpt><trkpt lat="44.849713360537066" lon="11.731884912763151"><ele>3.0</ele><time>2026-04-11T14:23:07Z</time></trkpt><trkpt lat="44.849700740111516" lon="11.731973878841213"><ele>3.0</ele><time>2026-04-11T14:23:09Z</time></trkpt><trkpt lat="44.84968874115071" lon="11.732071875995821"><ele>3.0</ele><time>2026-04-11T14:23:11Z</time></trkpt><trkpt lat="44.849674200939354" lon="11.73216589977077"><ele>2.9999999999999996</ele><time>2026-04-11T14:23:13Z</time></trkpt><trkpt lat="44.84966241990395" lon="11.732253311592656"><ele>3.0</ele><time>2026-04-11T14:23:15Z</time></trkpt><trkpt lat="44.84963789600778" lon="11.73237025136856"><ele>3.0</ele><time>2026-04-11T14:23:18Z</time></trkpt><trkpt lat="44.84961260480132" lon="11.732480782739664"><ele>3.0</ele><time>2026-04-11T14:23:21Z</time></trkpt><trkpt lat="44.84958699466311" lon="11.73260608670091"><ele>3.0</ele><time>2026-04-11T14:23:24Z</time></trkpt><trkpt lat="44.84956825489542" lon="11.73272913690505"><ele>3.0</ele><time>2026-04-11T14:23:27Z</time></trkpt><trkpt lat="44.84955516540417" lon="11.732820933560035"><ele>3.0</ele><time>2026-04-11T14:23:29Z</time></trkpt><trkpt lat="44.84952657270027" lon="11.732943704970392"><ele>3.0</ele><time>2026-04-11T14:23:32Z</time></trkpt><trkpt lat="44.849512122998654" lon="11.733037405666796"><ele>2.9999999999999996</ele><time>2026-04-11T14:23:34Z</time></trkpt><trkpt lat="44.84948497982396" lon="11.73313472417854"><ele>3.0</ele><time>2026-04-11T14:23:36Z</time></trkpt><trkpt lat="44.84945712211238" lon="11.733227274667819"><ele>3.0</ele><time>2026-04-11T14:23:38Z</time></trkpt><trkpt lat="44.8494325812166" lon="11.733325276154623"><ele>3.0</ele><time>2026-04-11T14:23:40Z</time></trkpt><trkpt lat="44.84940276547407" lon="11.73341890958201"><ele>3.0</ele><time>2026-04-11T14:23:42Z</time></trkpt><trkpt lat="44.849375977883845" lon="11.733514200074401"><ele>2.9999999999999996</ele><time>2026-04-11T14:23:44Z</time></trkpt><trkpt lat="44.84934931419706" lon="11.733613437523545"><ele>3.0</ele><time>2026-04-11T14:23:46Z</time></trkpt><trkpt lat="44.84932233146326" lon="11.733709766592826"><ele>3.3333333333333335</ele><time>2026-04-11T14:23:48Z</time></trkpt><trkpt lat="44.84927457742648" lon="11.733835277629156"><ele>3.666666666666667</ele><time>2026-04-11T14:23:51Z</time></trkpt><trkpt lat="44.849248046687734" lon="11.733917736480928"><ele>4.0</ele><time>2026-04-11T14:23:53Z</time></trkpt><trkpt lat="44.84920545570315" lon="11.73403183784113"><ele>4.333333333333334</ele><time>2026-04-11T14:23:56Z</time></trkpt><trkpt lat="44.849173558678174" lon="11.734144229399607"><ele>4.666666666666667</ele><time>2026-04-11T14:23:59Z</time></trkpt><trkpt lat="44.84913824028902" lon="11.734235378610542"><ele>5.0</ele><time>2026-04-11T14:24:01Z</time></trkpt><trkpt lat="44.84910458702278" lon="11.734356259736176"><ele>4.75</ele><time>2026-04-11T14:24:03Z</time></trkpt><trkpt lat="44.84906736684885" lon="11.734489813205311"><ele>4.5</ele><time>2026-04-11T14:24:05Z</time></trkpt><trkpt lat="44.84902842773582" lon="11.73464497274349"><ele>4.25</ele><time>2026-04-11T14:24:07Z</time></trkpt><trkpt lat="44.84898012786766" lon="11.734805463633775"><ele>4.0</ele><time>2026-04-11T14:24:09Z</time></trkpt><trkpt lat="44.848941367455325" lon="11.73496723063915"><ele>4.0</ele><time>2026-04-11T14:24:11Z</time></trkpt><trkpt lat="44.848899713482886" lon="11.735111507868087"><ele>4.0</ele><time>2026-04-11T14:24:13Z</time></trkpt><trkpt lat="44.84886468976345" lon="11.735252095419245"><ele>4.0</ele><time>2026-04-11T14:24:15Z</time></trkpt><trkpt lat="44.84882302190416" lon="11.735380679306765"><ele>4.0</ele><time>2026-04-11T14:24:17Z</time></trkpt><trkpt lat="44.848793758690846" lon="11.735510798783706"><ele>4.0</ele><time>2026-04-11T14:24:19Z</time></trkpt><trkpt lat="44.84876329956706" lon="11.735624470768629"><ele>3.833333333333333</ele><time>2026-04-11T14:24:21Z</time></trkpt><trkpt lat="44.84873599415021" lon="11.735739202040103"><ele>3.6666666666666665</ele><time>2026-04-11T14:24:23Z</time></trkpt><trkpt lat="44.84869810543626" lon="11.735839110698938"><ele>3.5</ele><time>2026-04-11T14:24:25Z</time></trkpt><trkpt lat="44.84867311975522" lon="11.73593641594276"><ele>3.333333333333333</ele><time>2026-04-11T14:24:27Z</time></trkpt><trkpt lat="44.84864889811847" lon="11.73603196804526"><ele>3.1666666666666665</ele><time>2026-04-11T14:24:29Z</time></trkpt><trkpt lat="44.84863742045596" lon="11.736134239164242"><ele>3.0</ele><time>2026-04-11T14:24:30.999Z</time></trkpt><trkpt lat="44.84861516879852" lon="11.736232909960684"><ele>2.9999999999999996</ele><time>2026-04-11T14:24:33Z</time></trkpt><trkpt lat="44.84859244170529" lon="11.736326439841767"><ele>3.0</ele><time>2026-04-11T14:24:35Z</time></trkpt><trkpt lat="44.848573627721095" lon="11.736425871730159"><ele>3.0</ele><time>2026-04-11T14:24:37Z</time></trkpt><trkpt lat="44.84855598004154" lon="11.73652310372167"><ele>3.0</ele><time>2026-04-11T14:24:39Z</time></trkpt><trkpt lat="44.84853204387235" lon="11.736610660190383"><ele>3.0</ele><time>2026-04-11T14:24:41Z</time></trkpt><trkpt lat="44.84851683994876" lon="11.736702967783902"><ele>2.9999999999999996</ele><time>2026-04-11T14:24:43Z</time></trkpt><trkpt lat="44.848492870919344" lon="11.736830045537806"><ele>3.0</ele><time>2026-04-11T14:24:46Z</time></trkpt><trkpt lat="44.848468955699715" lon="11.73692324080626"><ele>3.3333333333333335</ele><time>2026-04-11T14:24:48Z</time></trkpt><trkpt lat="44.84845230794232" lon="11.737021832398824"><ele>3.666666666666667</ele><time>2026-04-11T14:24:50Z</time></trkpt><trkpt lat="44.84843295913862" lon="11.737114016389661"><ele>4.0</ele><time>2026-04-11T14:24:52Z</time></trkpt><trkpt lat="44.84840807370518" lon="11.737223254771685"><ele>4.333333333333334</ele><time>2026-04-11T14:24:54Z</time></trkpt><trkpt lat="44.848386754534594" lon="11.73734354958352"><ele>4.666666666666667</ele><time>2026-04-11T14:24:56Z</time></trkpt><trkpt lat="44.84836504034412" lon="11.737456428484167"><ele>5.0</ele><time>2026-04-11T14:24:58Z</time></trkpt><trkpt lat="44.84833846492084" lon="11.737557299914258"><ele>5.0</ele><time>2026-04-11T14:25:00Z</time></trkpt><trkpt lat="44.848322122406245" lon="11.737664241309282"><ele>5.0</ele><time>2026-04-11T14:25:02Z</time></trkpt><trkpt lat="44.848300061432354" lon="11.737760383440168"><ele>5.0</ele><time>2026-04-11T14:25:04Z</time></trkpt><trkpt lat="44.84828061925691" lon="11.737849297101734"><ele>5.0</ele><time>2026-04-11T14:25:06Z</time></trkpt><trkpt lat="44.848271546924444" lon="11.7379517541334"><ele>5.0</ele><time>2026-04-11T14:27:59Z</time></trkpt><trkpt lat="44.84824676919288" lon="11.738057266042347"><ele>5.0</ele><time>2026-04-11T14:28:02Z</time></trkpt><trkpt lat="44.84824250594741" lon="11.738164437748873"><ele>5.0</ele><time>2026-04-11T14:28:05Z</time></trkpt><trkpt lat="44.8482294789816" lon="11.73827929049363"><ele>5.0</ele><time>2026-04-11T14:28:08Z</time></trkpt><trkpt lat="44.848229901793765" lon="11.738397336803132"><ele>5.0</ele><time>2026-04-11T14:28:11Z</time></trkpt><trkpt lat="44.84822776559455" lon="11.738515559841193"><ele>5.0</ele><time>2026-04-11T14:28:14Z</time></trkpt><trkpt lat="44.84825935795546" lon="11.738598261066597"><ele>5.0</ele><time>2026-04-11T14:28:16Z</time></trkpt><trkpt lat="44.84827637409618" lon="11.738687020920537"><ele>5.0</ele><time>2026-04-11T14:28:18Z</time></trkpt><trkpt lat="44.84831666482541" lon="11.738807024142945"><ele>5.0</ele><time>2026-04-11T14:28:21Z</time></trkpt><trkpt lat="44.848341683521575" lon="11.738889001209506"><ele>5.0</ele><time>2026-04-11T14:28:23Z</time></trkpt><trkpt lat="44.8483767891576" lon="11.738977256020732"><ele>5.0</ele><time>2026-04-11T14:28:25Z</time></trkpt><trkpt lat="44.8484203002502" lon="11.739079683633673"><ele>5.0</ele><time>2026-04-11T14:28:27Z</time></trkpt><trkpt lat="44.848459983590075" lon="11.739184436660528"><ele>5.0</ele><time>2026-04-11T14:28:29Z</time></trkpt><trkpt lat="44.84849072193633" lon="11.739302880559276"><ele>5.0</ele><time>2026-04-11T14:28:31Z</time></trkpt><trkpt lat="44.848531060066726" lon="11.739410271913291"><ele>5.0</ele><time>2026-04-11T14:28:33Z</time></trkpt><trkpt lat="44.84855649451022" lon="11.739517206959103"><ele>4.833333333333334</ele><time>2026-04-11T14:28:35Z</time></trkpt><trkpt lat="44.84857797094703" lon="11.739626238614417"><ele>4.666666666666667</ele><time>2026-04-11T14:28:37Z</time></trkpt><trkpt lat="44.84860512125556" lon="11.739737275422323"><ele>4.5</ele><time>2026-04-11T14:28:39Z</time></trkpt><trkpt lat="44.84861769152284" lon="11.739857951590098"><ele>4.333333333333333</ele><time>2026-04-11T14:28:40.999Z</time></trkpt><trkpt lat="44.8486299944725" lon="11.739982896495741"><ele>4.166666666666666</ele><time>2026-04-11T14:28:42.999Z</time></trkpt><trkpt lat="44.84864151892887" lon="11.740107048730277"><ele>4.0</ele><time>2026-04-11T14:28:45Z</time></trkpt><trkpt lat="44.8486486964566" lon="11.740222814795342"><ele>3.833333333333333</ele><time>2026-04-11T14:28:47Z</time></trkpt><trkpt lat="44.84865935087368" lon="11.740342624880528"><ele>3.6666666666666665</ele><time>2026-04-11T14:28:49Z</time></trkpt><trkpt lat="44.848655452251336" lon="11.74046339802887"><ele>3.5</ele><time>2026-04-11T14:28:51Z</time></trkpt><trkpt lat="44.8486694680516" lon="11.740597208776233"><ele>3.333333333333333</ele><time>2026-04-11T14:28:53Z</time></trkpt><trkpt lat="44.84868087579913" lon="11.740722875993276"><ele>3.1666666666666665</ele><time>2026-04-11T14:28:55Z</time></trkpt><trkpt lat="44.848684764911404" lon="11.740851325892729"><ele>3.0</ele><time>2026-04-11T14:28:57Z</time></trkpt><trkpt lat="44.8486918405905" lon="11.740971023693668"><ele>2.8</ele><time>2026-04-11T14:28:59Z</time></trkpt><trkpt lat="44.84870415772735" lon="11.74109864742787"><ele>2.5999999999999996</ele><time>2026-04-11T14:29:01Z</time></trkpt><trkpt lat="44.84870946403814" lon="11.741225563330367"><ele>2.4000000000000004</ele><time>2026-04-11T14:29:03Z</time></trkpt><trkpt lat="44.848717262640236" lon="11.741349438008692"><ele>2.2</ele><time>2026-04-11T14:29:05Z</time></trkpt><trkpt lat="44.84873318340038" lon="11.741478231642311"><ele>2.0</ele><time>2026-04-11T14:29:07Z</time></trkpt><trkpt lat="44.848748415114734" lon="11.741603573345412"><ele>1.9999999999999998</ele><time>2026-04-11T14:29:09Z</time></trkpt><trkpt lat="44.84876173153129" lon="11.7417304823685"><ele>2.0</ele><time>2026-04-11T14:29:11Z</time></trkpt><trkpt lat="44.848778372074875" lon="11.741855773838342"><ele>2.0</ele><time>2026-04-11T14:29:13Z</time></trkpt><trkpt lat="44.848803856438195" lon="11.741975867799335"><ele>2.0</ele><time>2026-04-11T14:29:15Z</time></trkpt><trkpt lat="44.84882669016503" lon="11.742094150180982"><ele>1.9999999999999998</ele><time>2026-04-11T14:29:17Z</time></trkpt><trkpt lat="44.84884757638645" lon="11.742212289234708"><ele>2.0</ele><time>2026-04-11T14:29:19Z</time></trkpt><trkpt lat="44.84887377310391" lon="11.742335675650894"><ele>2.1666666666666665</ele><time>2026-04-11T14:29:21Z</time></trkpt><trkpt lat="44.84889272171295" lon="11.742459045825171"><ele>2.333333333333333</ele><time>2026-04-11T14:29:23Z</time></trkpt><trkpt lat="44.848917773098414" lon="11.742577671951809"><ele>2.5</ele><time>2026-04-11T14:29:25Z</time></trkpt><trkpt lat="44.84894009868435" lon="11.742682660214436"><ele>2.6666666666666665</ele><time>2026-04-11T14:29:27Z</time></trkpt><trkpt lat="44.848965113503034" lon="11.742784463493939"><ele>2.8333333333333335</ele><time>2026-04-11T14:29:29Z</time></trkpt><trkpt lat="44.848989578807654" lon="11.742880782609463"><ele>3.0</ele><time>2026-04-11T14:29:31Z</time></trkpt><trkpt lat="44.849015997404905" lon="11.742976722588011"><ele>3.0</ele><time>2026-04-11T14:29:33Z</time></trkpt><trkpt lat="44.84904503536699" lon="11.743071973093654"><ele>3.0</ele><time>2026-04-11T14:29:35Z</time></trkpt><trkpt lat="44.84907645878636" lon="11.743164355070578"><ele>3.0</ele><time>2026-04-11T14:29:37Z</time></trkpt><trkpt lat="44.84911613506293" lon="11.743260364314125"><ele>3.0</ele><time>2026-04-11T14:29:39Z</time></trkpt><trkpt lat="44.849165276626024" lon="11.74335797538773"><ele>3.0</ele><time>2026-04-11T14:29:41Z</time></trkpt><trkpt lat="44.84920944338665" lon="11.743472608398475"><ele>3.0</ele><time>2026-04-11T14:29:43Z</time></trkpt><trkpt lat="44.849262085874926" lon="11.743571769082584"><ele>3.0</ele><time>2026-04-11T14:29:45Z</time></trkpt><trkpt lat="44.849308018221244" lon="11.743678413286675"><ele>3.0</ele><time>2026-04-11T14:29:47Z</time></trkpt><trkpt lat="44.8493705721943" lon="11.743773530959631"><ele>3.0</ele><time>2026-04-11T14:29:49Z</time></trkpt><trkpt lat="44.849428768104794" lon="11.743869462975953"><ele>3.0</ele><time>2026-04-11T14:29:51Z</time></trkpt><trkpt lat="44.84948730017256" lon="11.743959714703383"><ele>3.0</ele><time>2026-04-11T14:29:53Z</time></trkpt><trkpt lat="44.84955557667755" lon="11.744042092401065"><ele>3.0</ele><time>2026-04-11T14:29:55Z</time></trkpt><trkpt lat="44.849625177539" lon="11.744119774947563"><ele>3.0</ele><time>2026-04-11T14:29:57Z</time></trkpt><trkpt lat="44.84969188332414" lon="11.744198190284486"><ele>3.0</ele><time>2026-04-11T14:29:59Z</time></trkpt><trkpt lat="44.84976972331398" lon="11.744262769985879"><ele>3.0</ele><time>2026-04-11T14:30:01Z</time></trkpt><trkpt lat="44.84984651043898" lon="11.744330580830574"><ele>3.0</ele><time>2026-04-11T14:30:03Z</time></trkpt><trkpt lat="44.8499214337194" lon="11.744399548527186"><ele>3.0</ele><time>2026-04-11T14:30:05Z</time></trkpt><trkpt lat="44.84999881342941" lon="11.744465133852728"><ele>3.0</ele><time>2026-04-11T14:30:07Z</time></trkpt><trkpt lat="44.85007479679519" lon="11.744534637735542"><ele>3.4</ele><time>2026-04-11T14:30:09Z</time></trkpt><trkpt lat="44.850155697447" lon="11.744598535060558"><ele>3.8</ele><time>2026-04-11T14:30:11Z</time></trkpt><trkpt lat="44.85023488890064" lon="11.744669204111224"><ele>4.2</ele><time>2026-04-11T14:30:13Z</time></trkpt><trkpt lat="44.85031157702311" lon="11.744736077636476"><ele>4.6</ele><time>2026-04-11T14:30:15Z</time></trkpt><trkpt lat="44.850393258493355" lon="11.744801818035333"><ele>5.0</ele><time>2026-04-11T14:30:16.999Z</time></trkpt><trkpt lat="44.85048491652146" lon="11.744856235065523"><ele>5.0</ele><time>2026-04-11T14:30:18.999Z</time></trkpt><trkpt lat="44.85057754831821" lon="11.744908995890635"><ele>5.0</ele><time>2026-04-11T14:30:20.999Z</time></trkpt><trkpt lat="44.85066838228526" lon="11.744965182076657"><ele>5.0</ele><time>2026-04-11T14:30:22.999Z</time></trkpt><trkpt lat="44.85076570511233" lon="11.74500257298245"><ele>5.0</ele><time>2026-04-11T14:30:24.999Z</time></trkpt><trkpt lat="44.85086607400587" lon="11.745033084987345"><ele>5.0</ele><time>2026-04-11T14:30:26.999Z</time></trkpt><trkpt lat="44.85096614314585" lon="11.745057898278963"><ele>4.6</ele><time>2026-04-11T14:30:28.999Z</time></trkpt><trkpt lat="44.85106848394372" lon="11.745089431923937"><ele>4.2</ele><time>2026-04-11T14:30:30.999Z</time></trkpt><trkpt lat="44.851173463046635" lon="11.745123870026283"><ele>3.8</ele><time>2026-04-11T14:30:32.999Z</time></trkpt><trkpt lat="44.851271413453674" lon="11.745172309197812"><ele>3.4</ele><time>2026-04-11T14:30:34.999Z</time></trkpt><trkpt lat="44.851363256067515" lon="11.745240039564058"><ele>3.0</ele><time>2026-04-11T14:30:36.999Z</time></trkpt><trkpt lat="44.85144991894651" lon="11.74531748621872"><ele>3.0</ele><time>2026-04-11T14:30:38.999Z</time></trkpt><trkpt lat="44.85153152988434" lon="11.745396598322127"><ele>3.0</ele><time>2026-04-11T14:30:40.999Z</time></trkpt><trkpt lat="44.85161322796766" lon="11.745472568046182"><ele>3.0</ele><time>2026-04-11T14:30:42.999Z</time></trkpt><trkpt lat="44.85169550931856" lon="11.74555106588026"><ele>3.0</ele><time>2026-04-11T14:30:44.999Z</time></trkpt><trkpt lat="44.851778333341066" lon="11.74562394611903"><ele>3.0</ele><time>2026-04-11T14:30:46.999Z</time></trkpt><trkpt lat="44.85185774872299" lon="11.745700704498747"><ele>3.2</ele><time>2026-04-11T14:30:48.999Z</time></trkpt><trkpt lat="44.851938063143656" lon="11.745773821971762"><ele>3.4</ele><time>2026-04-11T14:30:51Z</time></trkpt><trkpt lat="44.85201231372344" lon="11.745848841808527"><ele>3.6000000000000005</ele><time>2026-04-11T14:30:53Z</time></trkpt><trkpt lat="44.85208934626791" lon="11.745922573560598"><ele>3.8000000000000003</ele><time>2026-04-11T14:30:55Z</time></trkpt><trkpt lat="44.8521631143749" lon="11.745993271844075"><ele>4.0</ele><time>2026-04-11T14:30:57Z</time></trkpt><trkpt lat="44.85223115777008" lon="11.74605665644274"><ele>4.333333333333333</ele><time>2026-04-11T14:30:59Z</time></trkpt><trkpt lat="44.85229314522968" lon="11.746118064626556"><ele>4.666666666666666</ele><time>2026-04-11T14:31:01Z</time></trkpt><trkpt lat="44.85235512868075" lon="11.746176028299459"><ele>5.0</ele><time>2026-04-11T14:31:03Z</time></trkpt><trkpt lat="44.85242146988532" lon="11.746235060584672"><ele>5.333333333333333</ele><time>2026-04-11T14:31:05Z</time></trkpt><trkpt lat="44.85248361710082" lon="11.746294388114178"><ele>5.666666666666667</ele><time>2026-04-11T14:31:07Z</time></trkpt><trkpt lat="44.85254940880536" lon="11.746353332079698"><ele>6.0</ele><time>2026-04-11T14:31:09Z</time></trkpt><trkpt lat="44.852610090467515" lon="11.74640675786662"><ele>5.7142857142857135</ele><time>2026-04-11T14:31:11Z</time></trkpt><trkpt lat="44.85266786459435" lon="11.746468833515191"><ele>5.428571428571429</ele><time>2026-04-11T14:31:13Z</time></trkpt><trkpt lat="44.852732281222515" lon="11.746518157841676"><ele>5.142857142857142</ele><time>2026-04-11T14:31:15Z</time></trkpt><trkpt lat="44.852791108833046" lon="11.746579079624349"><ele>4.857142857142857</ele><time>2026-04-11T14:31:17Z</time></trkpt><trkpt lat="44.85285481082287" lon="11.746638596419933"><ele>4.571428571428571</ele><time>2026-04-11T14:31:19Z</time></trkpt><trkpt lat="44.85291388197771" lon="11.746695131701694"><ele>4.285714285714286</ele><time>2026-04-11T14:31:21Z</time></trkpt><trkpt lat="44.85297480167911" lon="11.74675003808526"><ele>4.0</ele><time>2026-04-11T14:31:23Z</time></trkpt><trkpt lat="44.853032206459275" lon="11.746809182558344"><ele>4.0</ele><time>2026-04-11T14:31:25Z</time></trkpt><trkpt lat="44.85308942567628" lon="11.746873143847981"><ele>3.9999999999999996</ele><time>2026-04-11T14:31:27Z</time></trkpt><trkpt lat="44.85315189348844" lon="11.746925149808416"><ele>4.0</ele><time>2026-04-11T14:31:29Z</time></trkpt><trkpt lat="44.853210595783814" lon="11.746980453249158"><ele>4.0</ele><time>2026-04-11T14:31:31Z</time></trkpt><trkpt lat="44.853268468962185" lon="11.747043794045736"><ele>3.9999999999999996</ele><time>2026-04-11T14:31:33Z</time></trkpt><trkpt lat="44.85332752485791" lon="11.747105377180095"><ele>4.0</ele><time>2026-04-11T14:31:35Z</time></trkpt><trkpt lat="44.85338689514728" lon="11.747162207751403"><ele>4.0</ele><time>2026-04-11T14:31:37Z</time></trkpt><trkpt lat="44.85344417879117" lon="11.747222341092924"><ele>3.833333333333333</ele><time>2026-04-11T14:31:39Z</time></trkpt><trkpt lat="44.85350780027219" lon="11.747279616683713"><ele>3.6666666666666665</ele><time>2026-04-11T14:31:41Z</time></trkpt><trkpt lat="44.85357675681433" lon="11.74735043947571"><ele>3.5</ele><time>2026-04-11T14:31:43Z</time></trkpt><trkpt lat="44.85364878885762" lon="11.747425145103778"><ele>3.333333333333333</ele><time>2026-04-11T14:31:45Z</time></trkpt><trkpt lat="44.85371539285299" lon="11.747498207805966"><ele>3.1666666666666665</ele><time>2026-04-11T14:31:47Z</time></trkpt><trkpt lat="44.853788231009055" lon="11.747568992178447"><ele>3.0</ele><time>2026-04-11T14:31:49Z</time></trkpt><trkpt lat="44.853860424095586" lon="11.747645093668671"><ele>3.0</ele><time>2026-04-11T14:31:51Z</time></trkpt><trkpt lat="44.85392737256678" lon="11.747722488332371"><ele>3.0</ele><time>2026-04-11T14:31:53Z</time></trkpt><trkpt lat="44.85399929360488" lon="11.747791813425565"><ele>3.0</ele><time>2026-04-11T14:31:55Z</time></trkpt><trkpt lat="44.8540658464853" lon="11.747869739427895"><ele>3.0</ele><time>2026-04-11T14:31:57Z</time></trkpt><trkpt lat="44.85413645192116" lon="11.747941978629667"><ele>3.0</ele><time>2026-04-11T14:31:59Z</time></trkpt><trkpt lat="44.85419769409061" lon="11.748021974664521"><ele>3.0</ele><time>2026-04-11T14:32:01Z</time></trkpt><trkpt lat="44.85426590568481" lon="11.7481020848083"><ele>2.8333333333333335</ele><time>2026-04-11T14:32:03Z</time></trkpt><trkpt lat="44.8543372220633" lon="11.748177375620733"><ele>2.6666666666666665</ele><time>2026-04-11T14:32:05Z</time></trkpt><trkpt lat="44.85440507777993" lon="11.74825283804324"><ele>2.5</ele><time>2026-04-11T14:32:07Z</time></trkpt><trkpt lat="44.854473520450966" lon="11.748335170301361"><ele>2.333333333333333</ele><time>2026-04-11T14:32:09Z</time></trkpt><trkpt lat="44.85454417022418" lon="11.748408501311925"><ele>2.1666666666666665</ele><time>2026-04-11T14:32:11Z</time></trkpt><trkpt lat="44.85461135610761" lon="11.748489159956973"><ele>2.0</ele><time>2026-04-11T14:32:13Z</time></trkpt><trkpt lat="44.8546822405637" lon="11.748566514462059"><ele>2.5</ele><time>2026-04-11T14:32:14.999Z</time></trkpt><trkpt lat="44.8547556286108" lon="11.74864195518252"><ele>3.0</ele><time>2026-04-11T14:32:16.999Z</time></trkpt><trkpt lat="44.85482135820737" lon="11.748720611730432"><ele>3.5</ele><time>2026-04-11T14:32:18.999Z</time></trkpt><trkpt lat="44.85488705707542" lon="11.748803610429155"><ele>4.0</ele><time>2026-04-11T14:32:20.999Z</time></trkpt><trkpt lat="44.85495522095738" lon="11.748884068519894"><ele>4.5</ele><time>2026-04-11T14:32:22.999Z</time></trkpt><trkpt lat="44.855026937097314" lon="11.748961779602627"><ele>5.0</ele><time>2026-04-11T14:32:24.999Z</time></trkpt><trkpt lat="44.855101925819305" lon="11.749021788649975"><ele>5.333333333333334</ele><time>2026-04-11T14:32:26.999Z</time></trkpt><trkpt lat="44.85518001566407" lon="11.749065289018917"><ele>5.666666666666667</ele><time>2026-04-11T14:32:28.999Z</time></trkpt><trkpt lat="44.85526354433224" lon="11.749091717999047"><ele>6.0</ele><time>2026-04-11T14:32:30.999Z</time></trkpt><trkpt lat="44.85535065396076" lon="11.74908804770801"><ele>6.333333333333334</ele><time>2026-04-11T14:32:32.999Z</time></trkpt><trkpt lat="44.85543335283781" lon="11.749073825196911"><ele>6.666666666666667</ele><time>2026-04-11T14:32:34.999Z</time></trkpt><trkpt lat="44.85551044262156" lon="11.749074693030872"><ele>7.0</ele><time>2026-04-11T14:32:36.999Z</time></trkpt><trkpt lat="44.85558402078014" lon="11.749074571964659"><ele>7.0</ele><time>2026-04-11T14:32:38.999Z</time></trkpt><trkpt lat="44.8556533096969" lon="11.749058162195016"><ele>7.0</ele><time>2026-04-11T14:32:40.999Z</time></trkpt><trkpt lat="44.85572059555121" lon="11.749055685023395"><ele>7.0</ele><time>2026-04-11T14:32:42.999Z</time></trkpt><trkpt lat="44.85579052368715" lon="11.749051303421655"><ele>7.0</ele><time>2026-04-11T14:32:44.999Z</time></trkpt><trkpt lat="44.85586405325616" lon="11.749036184423717"><ele>7.0</ele><time>2026-04-11T14:32:46.999Z</time></trkpt><trkpt lat="44.8559384725491" lon="11.74903568909814"><ele>7.0</ele><time>2026-04-11T14:32:48.999Z</time></trkpt><trkpt lat="44.856013256703854" lon="11.749027949655428"><ele>7.0</ele><time>2026-04-11T14:32:50.999Z</time></trkpt><trkpt lat="44.85608511648854" lon="11.749021103245804"><ele>6.571428571428571</ele><time>2026-04-11T14:32:52.999Z</time></trkpt><trkpt lat="44.85615342197336" lon="11.7490179567907"><ele>6.142857142857142</ele><time>2026-04-11T14:32:54.999Z</time></trkpt><trkpt lat="44.856221839086075" lon="11.749025070794168"><ele>5.714285714285714</ele><time>2026-04-11T14:32:57Z</time></trkpt><trkpt lat="44.856288301053404" lon="11.74902714954475"><ele>5.285714285714286</ele><time>2026-04-11T14:32:59Z</time></trkpt><trkpt lat="44.856353757279564" lon="11.749054176238566"><ele>4.857142857142857</ele><time>2026-04-11T14:33:01Z</time></trkpt><trkpt lat="44.85644733539265" lon="11.74907062244872"><ele>4.428571428571429</ele><time>2026-04-11T14:33:04Z</time></trkpt><trkpt lat="44.85651071019706" lon="11.749084252533452"><ele>4.0</ele><time>2026-04-11T14:33:06Z</time></trkpt><trkpt lat="44.85659806553169" lon="11.749120551925861"><ele>3.9999999999999996</ele><time>2026-04-11T14:33:09Z</time></trkpt><trkpt lat="44.85668709523598" lon="11.749141210120786"><ele>4.0</ele><time>2026-04-11T14:33:12Z</time></trkpt><trkpt lat="44.85677299033387" lon="11.749169788411285"><ele>4.0</ele><time>2026-04-11T14:33:15Z</time></trkpt><trkpt lat="44.85685642092809" lon="11.749193531966625"><ele>4.0</ele><time>2026-04-11T14:33:18Z</time></trkpt><trkpt lat="44.85693922131988" lon="11.74921949137469"><ele>3.9999999999999996</ele><time>2026-04-11T14:33:21Z</time></trkpt><trkpt lat="44.85702240297079" lon="11.74924709325949"><ele>4.0</ele><time>2026-04-11T14:33:24Z</time></trkpt><trkpt lat="44.857103299003114" lon="11.749263862292048"><ele>3.833333333333333</ele><time>2026-04-11T14:33:27Z</time></trkpt><trkpt lat="44.857176434983685" lon="11.749301776434308"><ele>3.6666666666666665</ele><time>2026-04-11T14:33:30Z</time></trkpt><trkpt lat="44.85724264918473" lon="11.74935121666718"><ele>3.5</ele><time>2026-04-11T14:33:33Z</time></trkpt><trkpt lat="44.85730893181955" lon="11.749372935636845"><ele>3.333333333333333</ele><time>2026-04-11T14:33:35Z</time></trkpt><trkpt lat="44.857397562400564" lon="11.749417456477806"><ele>3.1666666666666665</ele><time>2026-04-11T14:33:38Z</time></trkpt><trkpt lat="44.85748875755849" lon="11.749448573834966"><ele>3.0</ele><time>2026-04-11T14:33:41Z</time></trkpt><trkpt lat="44.85755447112294" lon="11.74947702352409"><ele>3.1428571428571423</ele><time>2026-04-11T14:33:43Z</time></trkpt><trkpt lat="44.85762226822892" lon="11.749509057911192"><ele>3.2857142857142856</ele><time>2026-04-11T14:33:45Z</time></trkpt><trkpt lat="44.85769512298755" lon="11.749535443285872"><ele>3.4285714285714284</ele><time>2026-04-11T14:33:47Z</time></trkpt><trkpt lat="44.85776514422446" lon="11.749578468134526"><ele>3.571428571428571</ele><time>2026-04-11T14:33:49Z</time></trkpt><trkpt lat="44.85783625421341" lon="11.749611304313758"><ele>3.714285714285714</ele><time>2026-04-11T14:33:51Z</time></trkpt><trkpt lat="44.85790434544501" lon="11.749643254431545"><ele>3.8571428571428568</ele><time>2026-04-11T14:33:53Z</time></trkpt><trkpt lat="44.8579653696662" lon="11.749673949245123"><ele>4.0</ele><time>2026-04-11T14:33:55Z</time></trkpt><trkpt lat="44.8580279397582" lon="11.749697925970384"><ele>3.9999999999999996</ele><time>2026-04-11T14:33:57Z</time></trkpt><trkpt lat="44.85810654125756" lon="11.749743633413008"><ele>4.0</ele><time>2026-04-11T14:34:00Z</time></trkpt><trkpt lat="44.85818548498778" lon="11.749780428607238"><ele>4.0</ele><time>2026-04-11T14:34:03Z</time></trkpt><trkpt lat="44.85825389496743" lon="11.749836462029737"><ele>4.0</ele><time>2026-04-11T14:34:06Z</time></trkpt><trkpt lat="44.858309391722884" lon="11.74988889478349"><ele>3.9999999999999996</ele><time>2026-04-11T14:34:08Z</time></trkpt><trkpt lat="44.85837737204712" lon="11.749917941296323"><ele>4.0</ele><time>2026-04-11T14:34:10Z</time></trkpt><trkpt lat="44.85843861600824" lon="11.749978829550148"><ele>4.0</ele><time>2026-04-11T14:34:12Z</time></trkpt><trkpt lat="44.85849514448162" lon="11.750039472499328"><ele>3.9999999999999996</ele><time>2026-04-11T14:34:14Z</time></trkpt><trkpt lat="44.85855458952635" lon="11.750089396471717"><ele>4.0</ele><time>2026-04-11T14:34:16Z</time></trkpt><trkpt lat="44.8586215237207" lon="11.750145565283145"><ele>4.0</ele><time>2026-04-11T14:34:18Z</time></trkpt><trkpt lat="44.85867106807263" lon="11.750215615393849"><ele>3.9999999999999996</ele><time>2026-04-11T14:34:20Z</time></trkpt><trkpt lat="44.85873257802852" lon="11.750278340514564"><ele>4.0</ele><time>2026-04-11T14:34:22Z</time></trkpt><trkpt lat="44.85879522492908" lon="11.750353102357456"><ele>4.0</ele><time>2026-04-11T14:34:24Z</time></trkpt><trkpt lat="44.85886182701562" lon="11.750432462243522"><ele>4.5</ele><time>2026-04-11T14:34:26Z</time></trkpt><trkpt lat="44.858930369628624" lon="11.750515757051257"><ele>5.0</ele><time>2026-04-11T14:34:28Z</time></trkpt><trkpt lat="44.858998919922435" lon="11.75059562100791"><ele>5.5</ele><time>2026-04-11T14:34:30Z</time></trkpt><trkpt lat="44.85906567339169" lon="11.750672112067546"><ele>6.0</ele><time>2026-04-11T14:34:31.999Z</time></trkpt><trkpt lat="44.85913598951237" lon="11.750750430481574"><ele>6.500000000000001</ele><time>2026-04-11T14:34:33.999Z</time></trkpt><trkpt lat="44.859205557143184" lon="11.750828131522885"><ele>7.0</ele><time>2026-04-11T14:34:35.999Z</time></trkpt><trkpt lat="44.85926774419219" lon="11.750913207801853"><ele>7.166666666666667</ele><time>2026-04-11T14:34:37.999Z</time></trkpt><trkpt lat="44.85933323425986" lon="11.750996803621879"><ele>7.333333333333334</ele><time>2026-04-11T14:34:39.999Z</time></trkpt><trkpt lat="44.8594019418976" lon="11.751073535319538"><ele>7.5</ele><time>2026-04-11T14:34:41.999Z</time></trkpt><trkpt lat="44.859466071411326" lon="11.751153491583594"><ele>7.666666666666666</ele><time>2026-04-11T14:34:43.999Z</time></trkpt><trkpt lat="44.859531296314294" lon="11.75123599233151"><ele>7.833333333333333</ele><time>2026-04-11T14:34:45.999Z</time></trkpt><trkpt lat="44.85960250213935" lon="11.75131347417794"><ele>8.0</ele><time>2026-04-11T14:34:47.999Z</time></trkpt><trkpt lat="44.85966467988904" lon="11.75139690082875"><ele>7.999999999999999</ele><time>2026-04-11T14:34:49.999Z</time></trkpt><trkpt lat="44.85972383801566" lon="11.751486385125002"><ele>8.0</ele><time>2026-04-11T14:34:51.999Z</time></trkpt><trkpt lat="44.85979081843352" lon="11.75156358889056"><ele>8.0</ele><time>2026-04-11T14:34:53.999Z</time></trkpt><trkpt lat="44.859852100823694" lon="11.751654265968183"><ele>8.0</ele><time>2026-04-11T14:34:55.999Z</time></trkpt><trkpt lat="44.859917186457686" lon="11.751741010480812"><ele>7.999999999999999</ele><time>2026-04-11T14:34:57.999Z</time></trkpt><trkpt lat="44.859978026084576" lon="11.751832390224507"><ele>8.0</ele><time>2026-04-11T14:34:59.999Z</time></trkpt><trkpt lat="44.860036325197996" lon="11.751920245157542"><ele>7.499999999999999</ele><time>2026-04-11T14:35:01.999Z</time></trkpt><trkpt lat="44.860099890725635" lon="11.752010921869838"><ele>7.0</ele><time>2026-04-11T14:35:04Z</time></trkpt><trkpt lat="44.86015265611779" lon="11.75209498268289"><ele>6.5</ele><time>2026-04-11T14:35:06Z</time></trkpt><trkpt lat="44.860203282830184" lon="11.752182541190805"><ele>6.0</ele><time>2026-04-11T14:35:08Z</time></trkpt><trkpt lat="44.86025409564504" lon="11.752258258414047"><ele>5.5</ele><time>2026-04-11T14:35:10Z</time></trkpt><trkpt lat="44.86029086235784" lon="11.752341212079717"><ele>5.0</ele><time>2026-04-11T14:35:12Z</time></trkpt><trkpt lat="44.860348825584275" lon="11.752442487335816"><ele>5.5</ele><time>2026-04-11T14:35:15Z</time></trkpt><trkpt lat="44.86040393086239" lon="11.752548284774603"><ele>6.0</ele><time>2026-04-11T14:35:18Z</time></trkpt><trkpt lat="44.860451913066605" lon="11.752623719898073"><ele>6.5</ele><time>2026-04-11T14:35:20Z</time></trkpt><trkpt lat="44.860480319430934" lon="11.75270747872373"><ele>7.0</ele><time>2026-04-11T14:35:22Z</time></trkpt><trkpt lat="44.860535028567185" lon="11.752794768933681"><ele>7.499999999999999</ele><time>2026-04-11T14:35:25Z</time></trkpt><trkpt lat="44.86057014619816" lon="11.752909234922782"><ele>8.0</ele><time>2026-04-11T14:35:28Z</time></trkpt><trkpt lat="44.86061653011848" lon="11.752988013617664"><ele>8.0</ele><time>2026-04-11T14:35:30Z</time></trkpt><trkpt lat="44.86065265358" lon="11.753071594055612"><ele>7.999999999999999</ele><time>2026-04-11T14:35:32Z</time></trkpt><trkpt lat="44.86068582205695" lon="11.753149325230265"><ele>8.0</ele><time>2026-04-11T14:35:34Z</time></trkpt><trkpt lat="44.860717281195" lon="11.753227187525036"><ele>8.0</ele><time>2026-04-11T14:35:36Z</time></trkpt><trkpt lat="44.86074099004472" lon="11.75330953655285"><ele>7.999999999999999</ele><time>2026-04-11T14:35:38Z</time></trkpt><trkpt lat="44.86077991455582" lon="11.75342659776935"><ele>8.0</ele><time>2026-04-11T14:35:41Z</time></trkpt><trkpt lat="44.86081627669476" lon="11.753536189111243"><ele>8.0</ele><time>2026-04-11T14:35:44Z</time></trkpt><trkpt lat="44.860849305261894" lon="11.7536403085565"><ele>7.499999999999999</ele><time>2026-04-11T14:35:47Z</time></trkpt><trkpt lat="44.8608800195961" lon="11.753733771432138"><ele>7.0</ele><time>2026-04-11T14:35:50Z</time></trkpt><trkpt lat="44.86090400509518" lon="11.753842255963264"><ele>6.5</ele><time>2026-04-11T14:35:54Z</time></trkpt><trkpt lat="44.8609307659593" lon="11.753949021379055"><ele>6.0</ele><time>2026-04-11T14:35:58Z</time></trkpt><trkpt lat="44.860962223894404" lon="11.75407037470751"><ele>5.5</ele><time>2026-04-11T14:36:01Z</time></trkpt><trkpt lat="44.8609912697617" lon="11.75415669413642"><ele>5.0</ele><time>2026-04-11T14:36:03Z</time></trkpt><trkpt lat="44.8610206801854" lon="11.754236391615873"><ele>4.5</ele><time>2026-04-11T14:36:05Z</time></trkpt><trkpt lat="44.86104383220302" lon="11.754347822892207"><ele>4.0</ele><time>2026-04-11T14:36:08Z</time></trkpt><trkpt lat="44.861061960709094" lon="11.754434812586023"><ele>3.5</ele><time>2026-04-11T14:36:11Z</time></trkpt><trkpt lat="44.861076539190144" lon="11.754555840857027"><ele>3.0</ele><time>2026-04-11T14:36:14Z</time></trkpt><trkpt lat="44.86110183785974" lon="11.754656562916665"><ele>2.5</ele><time>2026-04-11T14:36:16Z</time></trkpt><trkpt lat="44.861119446016644" lon="11.754762380619182"><ele>2.0</ele><time>2026-04-11T14:36:18Z</time></trkpt><trkpt lat="44.86113807443414" lon="11.754879297260715"><ele>1.9999999999999998</ele><time>2026-04-11T14:36:20Z</time></trkpt><trkpt lat="44.861158518793715" lon="11.754997447466078"><ele>2.0</ele><time>2026-04-11T14:36:22Z</time></trkpt><trkpt lat="44.86117835020913" lon="11.755119458395216"><ele>2.0</ele><time>2026-04-11T14:36:24Z</time></trkpt><trkpt lat="44.86119316845544" lon="11.755240403534225"><ele>2.0</ele><time>2026-04-11T14:36:26Z</time></trkpt><trkpt lat="44.86121110327634" lon="11.75536398186952"><ele>1.9999999999999998</ele><time>2026-04-11T14:36:28Z</time></trkpt><trkpt lat="44.86122455106661" lon="11.75548796152551"><ele>2.0</ele><time>2026-04-11T14:36:30Z</time></trkpt><trkpt lat="44.86124272813258" lon="11.755610283734612"><ele>1.9999999999999998</ele><time>2026-04-11T14:36:31.999Z</time></trkpt><trkpt lat="44.86125594969964" lon="11.75573454320183"><ele>2.0</ele><time>2026-04-11T14:36:33.999Z</time></trkpt><trkpt lat="44.86126151039063" lon="11.755856557473951"><ele>2.0</ele><time>2026-04-11T14:36:35.999Z</time></trkpt><trkpt lat="44.8612597127293" lon="11.7559752345899"><ele>2.0</ele><time>2026-04-11T14:36:37.999Z</time></trkpt><trkpt lat="44.861255172661664" lon="11.756081943172944"><ele>1.9999999999999998</ele><time>2026-04-11T14:36:39.999Z</time></trkpt><trkpt lat="44.86124457721699" lon="11.756185497500402"><ele>2.0</ele><time>2026-04-11T14:36:41.999Z</time></trkpt><trkpt lat="44.86122964929731" lon="11.756284404277057"><ele>2.0</ele><time>2026-04-11T14:36:43.999Z</time></trkpt><trkpt lat="44.86122060204992" lon="11.756385009972627"><ele>1.9999999999999998</ele><time>2026-04-11T14:36:45.999Z</time></trkpt><trkpt lat="44.861202627963664" lon="11.756486778085018"><ele>2.0</ele><time>2026-04-11T14:36:47.999Z</time></trkpt><trkpt lat="44.861187705868026" lon="11.75658271081836"><ele>2.0</ele><time>2026-04-11T14:36:49.999Z</time></trkpt><trkpt lat="44.861175134364686" lon="11.756684745892478"><ele>1.9999999999999998</ele><time>2026-04-11T14:36:51.999Z</time></trkpt><trkpt lat="44.86115892317861" lon="11.75677921412476"><ele>2.0</ele><time>2026-04-11T14:36:53.999Z</time></trkpt><trkpt lat="44.86114293086363" lon="11.756893133077133"><ele>2.0</ele><time>2026-04-11T14:36:55.999Z</time></trkpt><trkpt lat="44.861122363305846" lon="11.757015860070629"><ele>2.1666666666666665</ele><time>2026-04-11T14:36:57.999Z</time></trkpt><trkpt lat="44.86110715214869" lon="11.75713596600434"><ele>2.333333333333333</ele><time>2026-04-11T14:36:59.999Z</time></trkpt><trkpt lat="44.861092012428784" lon="11.757257896119635"><ele>2.5</ele><time>2026-04-11T14:37:01.999Z</time></trkpt><trkpt lat="44.86107486564021" lon="11.757380502960737"><ele>2.6666666666666665</ele><time>2026-04-11T14:37:03.999Z</time></trkpt><trkpt lat="44.86105949878912" lon="11.7575027507607"><ele>2.8333333333333335</ele><time>2026-04-11T14:37:05.999Z</time></trkpt><trkpt lat="44.861044390578144" lon="11.757632490426431"><ele>3.0</ele><time>2026-04-11T14:37:08Z</time></trkpt><trkpt lat="44.86102490477442" lon="11.757756188892627"><ele>3.0</ele><time>2026-04-11T14:37:10Z</time></trkpt><trkpt lat="44.86100690957169" lon="11.757882760233251"><ele>3.0</ele><time>2026-04-11T14:37:12Z</time></trkpt><trkpt lat="44.86098700087215" lon="11.7580053617155"><ele>3.0</ele><time>2026-04-11T14:37:14Z</time></trkpt><trkpt lat="44.86097306604187" lon="11.75812921321808"><ele>3.0</ele><time>2026-04-11T14:37:16Z</time></trkpt><trkpt lat="44.86095743120559" lon="11.758250827285368"><ele>3.0</ele><time>2026-04-11T14:37:18Z</time></trkpt><trkpt lat="44.86094043273129" lon="11.758377125851979"><ele>3.0</ele><time>2026-04-11T14:37:20Z</time></trkpt><trkpt lat="44.860929639818465" lon="11.758501462192598"><ele>3.3333333333333335</ele><time>2026-04-11T14:37:22Z</time></trkpt><trkpt lat="44.86090623586342" lon="11.758616615919227"><ele>3.666666666666667</ele><time>2026-04-11T14:37:24Z</time></trkpt><trkpt lat="44.8608869633666" lon="11.758742249352952"><ele>4.0</ele><time>2026-04-11T14:37:26Z</time></trkpt><trkpt lat="44.86086817705906" lon="11.758858272910459"><ele>4.333333333333334</ele><time>2026-04-11T14:37:28Z</time></trkpt><trkpt lat="44.860848096832925" lon="11.758982994033037"><ele>4.666666666666667</ele><time>2026-04-11T14:37:30Z</time></trkpt><trkpt lat="44.86083344481837" lon="11.75911122051795"><ele>5.0</ele><time>2026-04-11T14:37:32Z</time></trkpt><trkpt lat="44.86081548867379" lon="11.759230781774296"><ele>5.0</ele><time>2026-04-11T14:37:34Z</time></trkpt><trkpt lat="44.860799770849205" lon="11.759349468055554"><ele>5.0</ele><time>2026-04-11T14:37:36Z</time></trkpt><trkpt lat="44.86078577728061" lon="11.759465505085176"><ele>5.0</ele><time>2026-04-11T14:37:38Z</time></trkpt><trkpt lat="44.86077292404602" lon="11.759578752164062"><ele>5.0</ele><time>2026-04-11T14:37:40Z</time></trkpt><trkpt lat="44.86076134480806" lon="11.75968309979682"><ele>5.0</ele><time>2026-04-11T14:37:42Z</time></trkpt><trkpt lat="44.86075693763837" lon="11.75978027743151"><ele>5.0</ele><time>2026-04-11T14:37:44Z</time></trkpt><trkpt lat="44.86074499550338" lon="11.759871741759442"><ele>4.833333333333334</ele><time>2026-04-11T14:37:46Z</time></trkpt><trkpt lat="44.86071071576772" lon="11.759992704953689"><ele>4.666666666666667</ele><time>2026-04-11T14:37:49Z</time></trkpt><trkpt lat="44.86069800424439" lon="11.760091321023516"><ele>4.5</ele><time>2026-04-11T14:37:51Z</time></trkpt><trkpt lat="44.86067985822151" lon="11.760190326992172"><ele>4.333333333333333</ele><time>2026-04-11T14:37:53Z</time></trkpt><trkpt lat="44.860669682043984" lon="11.760295296325877"><ele>4.166666666666666</ele><time>2026-04-11T14:37:55Z</time></trkpt><trkpt lat="44.86064695439952" lon="11.760393663003263"><ele>4.0</ele><time>2026-04-11T14:37:57Z</time></trkpt><trkpt lat="44.860628898968976" lon="11.760488696596584"><ele>3.833333333333333</ele><time>2026-04-11T14:37:59Z</time></trkpt><trkpt lat="44.860610592032444" lon="11.760574277937463"><ele>3.6666666666666665</ele><time>2026-04-11T14:38:01Z</time></trkpt><trkpt lat="44.86057315939661" lon="11.760697686324136"><ele>3.5</ele><time>2026-04-11T14:38:04Z</time></trkpt><trkpt lat="44.86054761482838" lon="11.760780176633677"><ele>3.333333333333333</ele><time>2026-04-11T14:38:06Z</time></trkpt><trkpt lat="44.86050977678637" lon="11.760916217950085"><ele>3.1666666666666665</ele><time>2026-04-11T14:38:09Z</time></trkpt><trkpt lat="44.86047724228438" lon="11.761008337664402"><ele>3.0</ele><time>2026-04-11T14:38:11Z</time></trkpt><trkpt lat="44.860450668641086" lon="11.761099364449032"><ele>2.8571428571428568</ele><time>2026-04-11T14:38:13Z</time></trkpt><trkpt lat="44.86041955907191" lon="11.76119136129117"><ele>2.7142857142857144</ele><time>2026-04-11T14:38:15Z</time></trkpt><trkpt lat="44.86038690155737" lon="11.761283310345883"><ele>2.571428571428571</ele><time>2026-04-11T14:38:17Z</time></trkpt><trkpt lat="44.86035245299472" lon="11.761372211218541"><ele>2.4285714285714284</ele><time>2026-04-11T14:38:19Z</time></trkpt><trkpt lat="44.86031567141323" lon="11.761454857799666"><ele>2.2857142857142856</ele><time>2026-04-11T14:38:21Z</time></trkpt><trkpt lat="44.8602783533542" lon="11.761540073847115"><ele>2.142857142857143</ele><time>2026-04-11T14:38:23Z</time></trkpt><trkpt lat="44.86023256004087" lon="11.761609306389037"><ele>2.0</ele><time>2026-04-11T14:38:25Z</time></trkpt><trkpt lat="44.86017870829769" lon="11.761716423133413"><ele>2.1666666666666665</ele><time>2026-04-11T14:38:28Z</time></trkpt><trkpt lat="44.86011167806077" lon="11.761823403793521"><ele>2.333333333333333</ele><time>2026-04-11T14:38:31Z</time></trkpt><trkpt lat="44.860064305192275" lon="11.761902826764908"><ele>2.5</ele><time>2026-04-11T14:38:33Z</time></trkpt><trkpt lat="44.86001799503579" lon="11.761982062117003"><ele>2.6666666666666665</ele><time>2026-04-11T14:38:35Z</time></trkpt><trkpt lat="44.85996827300003" lon="11.762060295329954"><ele>2.8333333333333335</ele><time>2026-04-11T14:38:37Z</time></trkpt><trkpt lat="44.85991858391113" lon="11.762134366674728"><ele>3.0</ele><time>2026-04-11T14:38:39Z</time></trkpt><trkpt lat="44.859873165230354" lon="11.762209252129006"><ele>2.9999999999999996</ele><time>2026-04-11T14:38:41Z</time></trkpt><trkpt lat="44.8598262365603" lon="11.762278506354999"><ele>3.0</ele><time>2026-04-11T14:38:43Z</time></trkpt><trkpt lat="44.85978202731275" lon="11.762345124099776"><ele>3.0</ele><time>2026-04-11T14:38:44.999Z</time></trkpt><trkpt lat="44.859736462029076" lon="11.762406980365714"><ele>3.0</ele><time>2026-04-11T14:38:46.999Z</time></trkpt><trkpt lat="44.85966664104816" lon="11.762489463334557"><ele>3.0</ele><time>2026-04-11T14:38:49.999Z</time></trkpt><trkpt lat="44.85959908698599" lon="11.762574458315683"><ele>2.9999999999999996</ele><time>2026-04-11T14:38:52.999Z</time></trkpt><trkpt lat="44.85954736083706" lon="11.762629466951257"><ele>3.0</ele><time>2026-04-11T14:38:54.999Z</time></trkpt><trkpt lat="44.85949594425453" lon="11.762698064451229"><ele>2.8571428571428568</ele><time>2026-04-11T14:38:56.999Z</time></trkpt><trkpt lat="44.85943747805206" lon="11.76275820241857"><ele>2.7142857142857144</ele><time>2026-04-11T14:38:58.999Z</time></trkpt><trkpt lat="44.859380064129745" lon="11.762818079620228"><ele>2.571428571428571</ele><time>2026-04-11T14:39:00.999Z</time></trkpt><trkpt lat="44.85932099484179" lon="11.762886838232474"><ele>2.4285714285714284</ele><time>2026-04-11T14:39:02.999Z</time></trkpt><trkpt lat="44.85926027224297" lon="11.762951129084863"><ele>2.2857142857142856</ele><time>2026-04-11T14:39:04.999Z</time></trkpt><trkpt lat="44.859197040496646" lon="11.763012195134294"><ele>2.142857142857143</ele><time>2026-04-11T14:39:06.999Z</time></trkpt><trkpt lat="44.85913529015993" lon="11.76306617205283"><ele>2.0</ele><time>2026-04-11T14:39:08.999Z</time></trkpt><trkpt lat="44.859184364788035" lon="11.763263572479405"><ele>2.0</ele><time>2026-04-11T14:39:12.999Z</time></trkpt><trkpt lat="44.85925328335804" lon="11.763350167824093"><ele>2.0</ele><time>2026-04-11T14:39:15Z</time></trkpt><trkpt lat="44.85932011387054" lon="11.763450312746743"><ele>2.0</ele><time>2026-04-11T14:39:17Z</time></trkpt><trkpt lat="44.859400142166585" lon="11.76353067065093"><ele>2.0</ele><time>2026-04-11T14:39:19Z</time></trkpt><trkpt lat="44.859467409082434" lon="11.763630358956448"><ele>2.0</ele><time>2026-04-11T14:39:21Z</time></trkpt><trkpt lat="44.859536142860314" lon="11.763717327044471"><ele>1.9999999999999998</ele><time>2026-04-11T14:39:23Z</time></trkpt><trkpt lat="44.859610636149" lon="11.76379422989237"><ele>2.0</ele><time>2026-04-11T14:39:25Z</time></trkpt><trkpt lat="44.85967109804989" lon="11.76388002066767"><ele>2.0</ele><time>2026-04-11T14:39:27Z</time></trkpt><trkpt lat="44.85973746620455" lon="11.763947255472361"><ele>2.0</ele><time>2026-04-11T14:39:29Z</time></trkpt><trkpt lat="44.85979616195105" lon="11.764017329948727"><ele>1.9999999999999998</ele><time>2026-04-11T14:39:31Z</time></trkpt><trkpt lat="44.85985485775128" lon="11.764080555465313"><ele>2.0</ele><time>2026-04-11T14:39:33Z</time></trkpt><trkpt lat="44.859911762384314" lon="11.764138614742071"><ele>1.9999999999999998</ele><time>2026-04-11T14:39:35Z</time></trkpt><trkpt lat="44.85996312002148" lon="11.764195221305323"><ele>2.0</ele><time>2026-04-11T14:39:37Z</time></trkpt><trkpt lat="44.86003964959807" lon="11.764263317594269"><ele>2.0</ele><time>2026-04-11T14:39:40Z</time></trkpt><trkpt lat="44.860105785905716" lon="11.764325975010758"><ele>2.0</ele><time>2026-04-11T14:39:43Z</time></trkpt><trkpt lat="44.86016695627295" lon="11.764381961965393"><ele>1.9999999999999998</ele><time>2026-04-11T14:39:46Z</time></trkpt><trkpt lat="44.86022274723574" lon="11.764433601403198"><ele>2.0</ele><time>2026-04-11T14:39:49Z</time></trkpt><trkpt lat="44.86028501903173" lon="11.76450744287714"><ele>2.1666666666666665</ele><time>2026-04-11T14:39:53Z</time></trkpt><trkpt lat="44.86034132380343" lon="11.764559540100045"><ele>2.333333333333333</ele><time>2026-04-11T14:39:56Z</time></trkpt><trkpt lat="44.860401656452716" lon="11.764636566818975"><ele>2.5</ele><time>2026-04-11T14:39:59Z</time></trkpt><trkpt lat="44.86046174667474" lon="11.764707945204929"><ele>2.6666666666666665</ele><time>2026-04-11T14:40:01Z</time></trkpt><trkpt lat="44.86051369267799" lon="11.764771470300326"><ele>2.8333333333333335</ele><time>2026-04-11T14:40:03Z</time></trkpt><trkpt lat="44.86057652697401" lon="11.764858063048514"><ele>3.0</ele><time>2026-04-11T14:40:06Z</time></trkpt><trkpt lat="44.86063053556332" lon="11.764935689681693"><ele>3.0</ele><time>2026-04-11T14:40:09Z</time></trkpt><trkpt lat="44.86067045844543" lon="11.765012936786055"><ele>3.0</ele><time>2026-04-11T14:40:12Z</time></trkpt><trkpt lat="44.86073491466231" lon="11.765116522054134"><ele>3.0</ele><time>2026-04-11T14:40:15Z</time></trkpt><trkpt lat="44.86078336867922" lon="11.765213543111809"><ele>3.0</ele><time>2026-04-11T14:40:17Z</time></trkpt><trkpt lat="44.860837008781814" lon="11.76530715834149"><ele>3.0</ele><time>2026-04-11T14:40:19Z</time></trkpt><trkpt lat="44.86089675178207" lon="11.765391184285134"><ele>3.0</ele><time>2026-04-11T14:40:21Z</time></trkpt><trkpt lat="44.86096263532119" lon="11.76547986327363"><ele>2.8571428571428568</ele><time>2026-04-11T14:40:23Z</time></trkpt><trkpt lat="44.86100574791473" lon="11.765569822917266"><ele>2.7142857142857144</ele><time>2026-04-11T14:40:25Z</time></trkpt><trkpt lat="44.861056929233236" lon="11.765650748787877"><ele>2.571428571428571</ele><time>2026-04-11T14:40:27Z</time></trkpt><trkpt lat="44.86111246576335" lon="11.765718807319356"><ele>2.4285714285714284</ele><time>2026-04-11T14:40:29Z</time></trkpt><trkpt lat="44.86115679226272" lon="11.76579752504603"><ele>2.2857142857142856</ele><time>2026-04-11T14:40:31Z</time></trkpt><trkpt lat="44.861201905867134" lon="11.76587682723166"><ele>2.142857142857143</ele><time>2026-04-11T14:40:33Z</time></trkpt><trkpt lat="44.86124984718713" lon="11.765952240224928"><ele>2.0</ele><time>2026-04-11T14:40:35Z</time></trkpt><trkpt lat="44.861302415776784" lon="11.76601211069992"><ele>2.2857142857142856</ele><time>2026-04-11T14:40:36.999Z</time></trkpt><trkpt lat="44.86134945884885" lon="11.766077331641906"><ele>2.571428571428571</ele><time>2026-04-11T14:40:38.999Z</time></trkpt><trkpt lat="44.86140026813407" lon="11.766143283040151"><ele>2.8571428571428568</ele><time>2026-04-11T14:40:40.999Z</time></trkpt><trkpt lat="44.86145378337286" lon="11.766213294779591"><ele>3.142857142857143</ele><time>2026-04-11T14:40:42.999Z</time></trkpt><trkpt lat="44.86150656499245" lon="11.766283875194178"><ele>3.428571428571428</ele><time>2026-04-11T14:40:44.999Z</time></trkpt><trkpt lat="44.8615529351253" lon="11.766345888337526"><ele>3.714285714285714</ele><time>2026-04-11T14:40:46.999Z</time></trkpt><trkpt lat="44.861607754503815" lon="11.766396986578714"><ele>4.0</ele><time>2026-04-11T14:40:48.999Z</time></trkpt><trkpt lat="44.86167466916696" lon="11.766478449106446"><ele>4.0</ele><time>2026-04-11T14:40:51.999Z</time></trkpt><trkpt lat="44.861729490767395" lon="11.766531038600442"><ele>3.9999999999999996</ele><time>2026-04-11T14:40:53.999Z</time></trkpt><trkpt lat="44.86178981267926" lon="11.766586010074088"><ele>4.0</ele><time>2026-04-11T14:40:55.999Z</time></trkpt><trkpt lat="44.861846299039144" lon="11.766645255760785"><ele>4.0</ele><time>2026-04-11T14:40:57.999Z</time></trkpt><trkpt lat="44.861906006604656" lon="11.766696867271449"><ele>3.9999999999999996</ele><time>2026-04-11T14:40:59.999Z</time></trkpt><trkpt lat="44.86197268684798" lon="11.766749772571808"><ele>4.0</ele><time>2026-04-11T14:41:01.999Z</time></trkpt><trkpt lat="44.862033249234415" lon="11.766799455779083"><ele>4.0</ele><time>2026-04-11T14:41:03.999Z</time></trkpt><trkpt lat="44.86209201841179" lon="11.766844664235048"><ele>3.6666666666666665</ele><time>2026-04-11T14:41:05.999Z</time></trkpt><trkpt lat="44.86215097561191" lon="11.766888067201794"><ele>3.333333333333333</ele><time>2026-04-11T14:41:07.999Z</time></trkpt><trkpt lat="44.86220999518906" lon="11.766922361865868"><ele>3.0</ele><time>2026-04-11T14:41:09.999Z</time></trkpt><trkpt lat="44.862272363124674" lon="11.76697546195817"><ele>2.6666666666666665</ele><time>2026-04-11T14:41:11.999Z</time></trkpt><trkpt lat="44.86234912438304" lon="11.767031490107463"><ele>2.333333333333333</ele><time>2026-04-11T14:41:13.999Z</time></trkpt><trkpt lat="44.862429400147306" lon="11.767073396632705"><ele>2.0</ele><time>2026-04-11T14:41:15.999Z</time></trkpt><trkpt lat="44.86251223509608" lon="11.76711137201737"><ele>1.9999999999999998</ele><time>2026-04-11T14:41:17.999Z</time></trkpt><trkpt lat="44.86259656021139" lon="11.76715328974054"><ele>2.0</ele><time>2026-04-11T14:41:20Z</time></trkpt><trkpt lat="44.862680206706536" lon="11.767193472729783"><ele>2.0</ele><time>2026-04-11T14:41:22Z</time></trkpt><trkpt lat="44.86276560348549" lon="11.76722119512378"><ele>2.0</ele><time>2026-04-11T14:41:24Z</time></trkpt><trkpt lat="44.86284957446897" lon="11.767246900804354"><ele>1.9999999999999998</ele><time>2026-04-11T14:41:26Z</time></trkpt><trkpt lat="44.86292757590273" lon="11.767262355010597"><ele>2.0</ele><time>2026-04-11T14:41:28Z</time></trkpt><trkpt lat="44.863001847767684" lon="11.767273317470504"><ele>1.9999999999999998</ele><time>2026-04-11T14:41:30Z</time></trkpt><trkpt lat="44.86306927104872" lon="11.767294774660249"><ele>2.0</ele><time>2026-04-11T14:41:32Z</time></trkpt><trkpt lat="44.86313513193094" lon="11.76731403388271"><ele>2.0</ele><time>2026-04-11T14:41:34Z</time></trkpt><trkpt lat="44.86319951080119" lon="11.767329780566483"><ele>2.0</ele><time>2026-04-11T14:41:36Z</time></trkpt><trkpt lat="44.863289424338255" lon="11.767356460862828"><ele>1.9999999999999998</ele><time>2026-04-11T14:41:39Z</time></trkpt><trkpt lat="44.86338413594821" lon="11.767372481129117"><ele>2.0</ele><time>2026-04-11T14:41:42Z</time></trkpt><trkpt lat="44.86345291284516" lon="11.767384635588101"><ele>2.0</ele><time>2026-04-11T14:41:44Z</time></trkpt><trkpt lat="44.86352831101309" lon="11.767388403846128"><ele>1.9999999999999998</ele><time>2026-04-11T14:41:46Z</time></trkpt><trkpt lat="44.8636016665874" lon="11.767403602449948"><ele>2.0</ele><time>2026-04-11T14:41:48Z</time></trkpt><trkpt lat="44.86367511998269" lon="11.767394547923535"><ele>2.0</ele><time>2026-04-11T14:41:50Z</time></trkpt><trkpt lat="44.86374659447246" lon="11.767390923989868"><ele>1.9999999999999998</ele><time>2026-04-11T14:41:52Z</time></trkpt><trkpt lat="44.86381921556067" lon="11.767401125568583"><ele>2.0</ele><time>2026-04-11T14:41:54Z</time></trkpt><trkpt lat="44.86388839996088" lon="11.767406663965408"><ele>2.0</ele><time>2026-04-11T14:41:56Z</time></trkpt><trkpt lat="44.86395375182853" lon="11.76740629722285"><ele>1.9999999999999998</ele><time>2026-04-11T14:41:58Z</time></trkpt><trkpt lat="44.86401659700234" lon="11.767400429902827"><ele>2.0</ele><time>2026-04-11T14:42:00Z</time></trkpt><trkpt lat="44.86410378240033" lon="11.767399779472042"><ele>2.0</ele><time>2026-04-11T14:42:03Z</time></trkpt><trkpt lat="44.86418701467369" lon="11.767396266799244"><ele>2.0</ele><time>2026-04-11T14:42:06Z</time></trkpt><trkpt lat="44.86426327632095" lon="11.767393352439196"><ele>1.9999999999999998</ele><time>2026-04-11T14:42:09Z</time></trkpt><trkpt lat="44.86434522816248" lon="11.767382669771543"><ele>2.0</ele><time>2026-04-11T14:42:12Z</time></trkpt><trkpt lat="44.86442693509279" lon="11.767367618253994"><ele>1.9999999999999998</ele><time>2026-04-11T14:42:14Z</time></trkpt><trkpt lat="44.86451247577174" lon="11.767355903015096"><ele>2.0</ele><time>2026-04-11T14:42:16Z</time></trkpt><trkpt lat="44.864598752074805" lon="11.767337534129085"><ele>2.0</ele><time>2026-04-11T14:42:18Z</time></trkpt><trkpt lat="44.86468481474447" lon="11.767318081924584"><ele>2.0</ele><time>2026-04-11T14:42:20Z</time></trkpt><trkpt lat="44.8647693505127" lon="11.76730859740178"><ele>1.9999999999999998</ele><time>2026-04-11T14:42:22Z</time></trkpt><trkpt lat="44.86485040348175" lon="11.767301813103186"><ele>2.0</ele><time>2026-04-11T14:42:24Z</time></trkpt><trkpt lat="44.86492929116653" lon="11.767287852714743"><ele>1.9999999999999998</ele><time>2026-04-11T14:42:26Z</time></trkpt><trkpt lat="44.86500542543753" lon="11.767273784262036"><ele>2.0</ele><time>2026-04-11T14:42:28Z</time></trkpt><trkpt lat="44.86508095270306" lon="11.76725702592299"><ele>2.0</ele><time>2026-04-11T14:42:30Z</time></trkpt><trkpt lat="44.86515346682914" lon="11.7672438385828"><ele>2.0</ele><time>2026-04-11T14:42:32Z</time></trkpt><trkpt lat="44.86522502527962" lon="11.767222198111547"><ele>1.9999999999999998</ele><time>2026-04-11T14:42:34Z</time></trkpt><trkpt lat="44.86529612110574" lon="11.76719633536057"><ele>2.0</ele><time>2026-04-11T14:42:36Z</time></trkpt><trkpt lat="44.86537888999509" lon="11.7671847479891"><ele>1.9999999999999998</ele><time>2026-04-11T14:42:38Z</time></trkpt><trkpt lat="44.86546729943151" lon="11.767173505438567"><ele>2.0</ele><time>2026-04-11T14:42:40Z</time></trkpt><trkpt lat="44.86555504593021" lon="11.76716433297557"><ele>2.0</ele><time>2026-04-11T14:42:42Z</time></trkpt><trkpt lat="44.86563760290765" lon="11.767177494180796"><ele>2.0</ele><time>2026-04-11T14:42:44Z</time></trkpt><trkpt lat="44.86571944976822" lon="11.767187547095508"><ele>1.9999999999999998</ele><time>2026-04-11T14:42:45.999Z</time></trkpt><trkpt lat="44.86579604776616" lon="11.76721572684264"><ele>2.0</ele><time>2026-04-11T14:42:47.999Z</time></trkpt><trkpt lat="44.86586764961651" lon="11.76724951202977"><ele>1.9999999999999998</ele><time>2026-04-11T14:42:49.999Z</time></trkpt><trkpt lat="44.865932035050974" lon="11.767292087867144"><ele>2.0</ele><time>2026-04-11T14:42:51.999Z</time></trkpt><trkpt lat="44.865997121890366" lon="11.767334853183273"><ele>2.0</ele><time>2026-04-11T14:42:53.999Z</time></trkpt><trkpt lat="44.86606402022652" lon="11.767387779383704"><ele>2.0</ele><time>2026-04-11T14:42:55.999Z</time></trkpt><trkpt lat="44.86613979737903" lon="11.767448187705964"><ele>1.9999999999999998</ele><time>2026-04-11T14:42:57.999Z</time></trkpt><trkpt lat="44.866213927395414" lon="11.767515922239667"><ele>2.0</ele><time>2026-04-11T14:42:59.999Z</time></trkpt><trkpt lat="44.86628700272931" lon="11.767582155739857"><ele>1.9999999999999998</ele><time>2026-04-11T14:43:01.999Z</time></trkpt><trkpt lat="44.86635788702226" lon="11.767652639970931"><ele>2.0</ele><time>2026-04-11T14:43:03.999Z</time></trkpt><trkpt lat="44.86642806145892" lon="11.767724776995463"><ele>2.0</ele><time>2026-04-11T14:43:05.999Z</time></trkpt><trkpt lat="44.866497150857754" lon="11.767802645200836"><ele>2.0</ele><time>2026-04-11T14:43:07.999Z</time></trkpt><trkpt lat="44.86656466565585" lon="11.767884734023921"><ele>1.9999999999999998</ele><time>2026-04-11T14:43:09.999Z</time></trkpt><trkpt lat="44.866630497833306" lon="11.767958905931696"><ele>2.0</ele><time>2026-04-11T14:43:11.999Z</time></trkpt><trkpt lat="44.86669526795047" lon="11.768035484640007"><ele>1.9999999999999998</ele><time>2026-04-11T14:43:13.999Z</time></trkpt><trkpt lat="44.86675854650534" lon="11.768106343847155"><ele>2.0</ele><time>2026-04-11T14:43:15.999Z</time></trkpt><trkpt lat="44.86682272345624" lon="11.76817902961019"><ele>2.0</ele><time>2026-04-11T14:43:17.999Z</time></trkpt><trkpt lat="44.86689182208137" lon="11.768249995328805"><ele>2.0</ele><time>2026-04-11T14:43:19.999Z</time></trkpt><trkpt lat="44.86695814185384" lon="11.768325644885458"><ele>1.9999999999999998</ele><time>2026-04-11T14:43:21.999Z</time></trkpt><trkpt lat="44.86702095862657" lon="11.768410616007099"><ele>2.0</ele><time>2026-04-11T14:43:23.999Z</time></trkpt><trkpt lat="44.86708529378434" lon="11.768493541391933"><ele>1.9999999999999998</ele><time>2026-04-11T14:43:26Z</time></trkpt><trkpt lat="44.86715120127127" lon="11.768573873807743"><ele>2.0</ele><time>2026-04-11T14:43:28Z</time></trkpt><trkpt lat="44.86722087740879" lon="11.76864704055175"><ele>2.0</ele><time>2026-04-11T14:43:30Z</time></trkpt><trkpt lat="44.867294548602686" lon="11.768716703589968"><ele>2.0</ele><time>2026-04-11T14:43:32Z</time></trkpt><trkpt lat="44.86736601644966" lon="11.768785928466205"><ele>1.9999999999999998</ele><time>2026-04-11T14:43:34Z</time></trkpt><trkpt lat="44.867442389757954" lon="11.768851051063924"><ele>2.0</ele><time>2026-04-11T14:43:36Z</time></trkpt><trkpt lat="44.86751998360084" lon="11.768910606009438"><ele>1.9999999999999998</ele><time>2026-04-11T14:43:38Z</time></trkpt><trkpt lat="44.86759453332022" lon="11.768976025097679"><ele>2.0</ele><time>2026-04-11T14:43:40Z</time></trkpt><trkpt lat="44.86767023051642" lon="11.769025598545827"><ele>2.0</ele><time>2026-04-11T14:43:42Z</time></trkpt><trkpt lat="44.86774478131713" lon="11.769082930764835"><ele>2.0</ele><time>2026-04-11T14:43:44Z</time></trkpt><trkpt lat="44.86781101010537" lon="11.769135571148327"><ele>1.9999999999999998</ele><time>2026-04-11T14:43:46Z</time></trkpt><trkpt lat="44.86787785252343" lon="11.769195020054418"><ele>2.0</ele><time>2026-04-11T14:43:48Z</time></trkpt><trkpt lat="44.86795706878568" lon="11.769252271014105"><ele>1.9999999999999998</ele><time>2026-04-11T14:43:50Z</time></trkpt><trkpt lat="44.86803329233319" lon="11.769309380186076"><ele>2.0</ele><time>2026-04-11T14:43:52Z</time></trkpt><trkpt lat="44.86810226731993" lon="11.769369054418775"><ele>2.0</ele><time>2026-04-11T14:43:54Z</time></trkpt><trkpt lat="44.868168594493945" lon="11.769417835038345"><ele>2.0</ele><time>2026-04-11T14:43:56Z</time></trkpt><trkpt lat="44.86822705190333" lon="11.769470842047415"><ele>1.9999999999999998</ele><time>2026-04-11T14:43:58Z</time></trkpt><trkpt lat="44.86828663521508" lon="11.769518331001956"><ele>2.0</ele><time>2026-04-11T14:44:00Z</time></trkpt><trkpt lat="44.86834959756459" lon="11.769560777006268"><ele>2.0</ele><time>2026-04-11T14:44:02Z</time></trkpt><trkpt lat="44.86841270830706" lon="11.76960985384069"><ele>1.9999999999999998</ele><time>2026-04-11T14:44:04Z</time></trkpt><trkpt lat="44.86847770606495" lon="11.769656910759972"><ele>2.0</ele><time>2026-04-11T14:44:06Z</time></trkpt><trkpt lat="44.86854006145027" lon="11.7697017099903"><ele>2.0</ele><time>2026-04-11T14:44:08Z</time></trkpt><trkpt lat="44.86860616845685" lon="11.769750598204388"><ele>1.9999999999999998</ele><time>2026-04-11T14:44:10Z</time></trkpt><trkpt lat="44.86867002386863" lon="11.769796683126835"><ele>2.0</ele><time>2026-04-11T14:44:12Z</time></trkpt><trkpt lat="44.868739218472534" lon="11.76983147555646"><ele>2.0</ele><time>2026-04-11T14:44:14Z</time></trkpt><trkpt lat="44.8688066203095" lon="11.769873909818099"><ele>1.9999999999999998</ele><time>2026-04-11T14:44:16Z</time></trkpt><trkpt lat="44.868876065759295" lon="11.769916108170866"><ele>2.0</ele><time>2026-04-11T14:44:18Z</time></trkpt><trkpt lat="44.868943612815734" lon="11.769965026059836"><ele>2.0</ele><time>2026-04-11T14:44:20Z</time></trkpt><trkpt lat="44.869012250919546" lon="11.770010528808875"><ele>2.0</ele><time>2026-04-11T14:44:22Z</time></trkpt><trkpt lat="44.8690820210128" lon="11.770046661296655"><ele>1.9999999999999998</ele><time>2026-04-11T14:44:24Z</time></trkpt><trkpt lat="44.86914372371025" lon="11.770092872051396"><ele>2.0</ele><time>2026-04-11T14:44:26Z</time></trkpt><trkpt lat="44.869218767190425" lon="11.770124397363144"><ele>2.0</ele><time>2026-04-11T14:44:28Z</time></trkpt><trkpt lat="44.86928341243365" lon="11.770159263035637"><ele>1.9999999999999998</ele><time>2026-04-11T14:44:30Z</time></trkpt><trkpt lat="44.86935589970876" lon="11.770178598350805"><ele>2.0</ele><time>2026-04-11T14:44:32Z</time></trkpt><trkpt lat="44.86942562027839" lon="11.770207013397544"><ele>2.0</ele><time>2026-04-11T14:44:34Z</time></trkpt><trkpt lat="44.86949637996857" lon="11.770235332521167"><ele>1.9999999999999998</ele><time>2026-04-11T14:44:36Z</time></trkpt><trkpt lat="44.86957110101199" lon="11.770253904042793"><ele>2.0</ele><time>2026-04-11T14:44:38Z</time></trkpt><trkpt lat="44.86964832661326" lon="11.77026588314623"><ele>2.0</ele><time>2026-04-11T14:44:40Z</time></trkpt><trkpt lat="44.8697267263332" lon="11.770276440559133"><ele>1.9999999999999998</ele><time>2026-04-11T14:44:42Z</time></trkpt><trkpt lat="44.86980363515" lon="11.770278763186248"><ele>2.0</ele><time>2026-04-11T14:44:44Z</time></trkpt><trkpt lat="44.869883660378925" lon="11.770263851513793"><ele>2.0</ele><time>2026-04-11T14:44:46Z</time></trkpt><trkpt lat="44.86996167845668" lon="11.770255346781877"><ele>2.0</ele><time>2026-04-11T14:44:48Z</time></trkpt><trkpt lat="44.87003789632313" lon="11.770239037503885"><ele>1.9999999999999998</ele><time>2026-04-11T14:44:50Z</time></trkpt><trkpt lat="44.870115373177875" lon="11.770237475908042"><ele>2.0</ele><time>2026-04-11T14:44:52Z</time></trkpt><trkpt lat="44.870190683644864" lon="11.77021867593054"><ele>2.142857142857143</ele><time>2026-04-11T14:44:54Z</time></trkpt><trkpt lat="44.87026697308894" lon="11.770213133683997"><ele>2.2857142857142856</ele><time>2026-04-11T14:44:56Z</time></trkpt><trkpt lat="44.870340549861126" lon="11.770193564387457"><ele>2.4285714285714284</ele><time>2026-04-11T14:44:58Z</time></trkpt><trkpt lat="44.87041469498934" lon="11.7701799019121"><ele>2.571428571428571</ele><time>2026-04-11T14:45:00Z</time></trkpt><trkpt lat="44.870487082950845" lon="11.770181903009316"><ele>2.7142857142857144</ele><time>2026-04-11T14:45:02Z</time></trkpt><trkpt lat="44.87055913906597" lon="11.770179041546438"><ele>2.8571428571428568</ele><time>2026-04-11T14:45:04Z</time></trkpt><trkpt lat="44.87063473582464" lon="11.770181837405262"><ele>3.0</ele><time>2026-04-11T14:45:06Z</time></trkpt><trkpt lat="44.870708903518405" lon="11.770184615515015"><ele>2.9999999999999996</ele><time>2026-04-11T14:45:08Z</time></trkpt><trkpt lat="44.8707774825317" lon="11.770184086203335"><ele>3.0</ele><time>2026-04-11T14:45:10Z</time></trkpt><trkpt lat="44.87084896879256" lon="11.770200920182189"><ele>3.0</ele><time>2026-04-11T14:45:12Z</time></trkpt><trkpt lat="44.87092027021085" lon="11.770199957203227"><ele>3.0</ele><time>2026-04-11T14:45:14Z</time></trkpt><trkpt lat="44.87099214190704" lon="11.7702194465624"><ele>3.0</ele><time>2026-04-11T14:45:16Z</time></trkpt><trkpt lat="44.87105924766958" lon="11.770245216946481"><ele>2.9999999999999996</ele><time>2026-04-11T14:45:18Z</time></trkpt><trkpt lat="44.871122461648305" lon="11.770278186831467"><ele>3.0</ele><time>2026-04-11T14:45:20Z</time></trkpt><trkpt lat="44.871189933685784" lon="11.77030699333747"><ele>2.9999999999999996</ele><time>2026-04-11T14:45:22Z</time></trkpt><trkpt lat="44.87125629362775" lon="11.77034292641645"><ele>3.0</ele><time>2026-04-11T14:45:24Z</time></trkpt><trkpt lat="44.87132370094423" lon="11.770376341274323"><ele>3.0</ele><time>2026-04-11T14:45:26Z</time></trkpt><trkpt lat="44.871391305684455" lon="11.7704094336465"><ele>3.0</ele><time>2026-04-11T14:45:28Z</time></trkpt><trkpt lat="44.87145848137964" lon="11.770443807433846"><ele>3.0</ele><time>2026-04-11T14:45:30Z</time></trkpt><trkpt lat="44.87152614714207" lon="11.77048198630082"><ele>2.9999999999999996</ele><time>2026-04-11T14:45:32Z</time></trkpt><trkpt lat="44.87159114063715" lon="11.770518521476179"><ele>3.0</ele><time>2026-04-11T14:45:34Z</time></trkpt><trkpt lat="44.871653964640736" lon="11.770559333841742"><ele>2.9999999999999996</ele><time>2026-04-11T14:45:36Z</time></trkpt><trkpt lat="44.871718735457165" lon="11.770593728783314"><ele>3.0</ele><time>2026-04-11T14:45:38Z</time></trkpt><trkpt lat="44.87177673180026" lon="11.770633454457055"><ele>3.0</ele><time>2026-04-11T14:45:40Z</time></trkpt><trkpt lat="44.871860659644426" lon="11.770684368504076"><ele>3.0</ele><time>2026-04-11T14:45:43Z</time></trkpt><trkpt lat="44.871921966269966" lon="11.770734524203817"><ele>3.0</ele><time>2026-04-11T14:45:45Z</time></trkpt><trkpt lat="44.87199013768862" lon="11.770775284495295"><ele>2.9999999999999996</ele><time>2026-04-11T14:45:47Z</time></trkpt><trkpt lat="44.8720587911303" lon="11.770814072534804"><ele>3.0</ele><time>2026-04-11T14:45:49Z</time></trkpt><trkpt lat="44.87212694433741" lon="11.770857659987362"><ele>2.9999999999999996</ele><time>2026-04-11T14:45:51Z</time></trkpt><trkpt lat="44.872195976942166" lon="11.770895937751616"><ele>3.0</ele><time>2026-04-11T14:45:53Z</time></trkpt><trkpt lat="44.87226050466375" lon="11.770938641427835"><ele>3.0</ele><time>2026-04-11T14:45:55Z</time></trkpt><trkpt lat="44.872328753273806" lon="11.77097547219374"><ele>3.0</ele><time>2026-04-11T14:45:57Z</time></trkpt><trkpt lat="44.87239407741989" lon="11.77101513616677"><ele>3.0</ele><time>2026-04-11T14:45:59Z</time></trkpt><trkpt lat="44.8724625142547" lon="11.77105752569732"><ele>2.9999999999999996</ele><time>2026-04-11T14:46:01Z</time></trkpt><trkpt lat="44.872527893946796" lon="11.771103860830097"><ele>3.0</ele><time>2026-04-11T14:46:03Z</time></trkpt><trkpt lat="44.872596724213345" lon="11.771143008665794"><ele>3.1428571428571423</ele><time>2026-04-11T14:46:05Z</time></trkpt><trkpt lat="44.87266244077832" lon="11.771184793280202"><ele>3.2857142857142856</ele><time>2026-04-11T14:46:07Z</time></trkpt><trkpt lat="44.872730566986725" lon="11.771228031800264"><ele>3.4285714285714284</ele><time>2026-04-11T14:46:09Z</time></trkpt><trkpt lat="44.872800336588234" lon="11.771273161795566"><ele>3.571428571428571</ele><time>2026-04-11T14:46:11Z</time></trkpt><trkpt lat="44.87286845461653" lon="11.771312814555671"><ele>3.714285714285714</ele><time>2026-04-11T14:46:13Z</time></trkpt><trkpt lat="44.87293596937263" lon="11.771350768333042"><ele>3.8571428571428568</ele><time>2026-04-11T14:46:15Z</time></trkpt><trkpt lat="44.87300500474707" lon="11.771391747468217"><ele>4.0</ele><time>2026-04-11T14:46:17Z</time></trkpt><trkpt lat="44.87307108162219" lon="11.771426811303929"><ele>3.9999999999999996</ele><time>2026-04-11T14:46:19Z</time></trkpt><trkpt lat="44.87313642343373" lon="11.771454550669237"><ele>4.0</ele><time>2026-04-11T14:46:21Z</time></trkpt><trkpt lat="44.87319621812037" lon="11.771488987832791"><ele>4.0</ele><time>2026-04-11T14:46:23Z</time></trkpt><trkpt lat="44.87328238741917" lon="11.771544371482413"><ele>4.0</ele><time>2026-04-11T14:46:26Z</time></trkpt><trkpt lat="44.87335798059895" lon="11.77157480092453"><ele>3.9999999999999996</ele><time>2026-04-11T14:46:28Z</time></trkpt><trkpt lat="44.87343429771342" lon="11.771599732191078"><ele>4.0</ele><time>2026-04-11T14:46:30Z</time></trkpt><trkpt lat="44.87350240344721" lon="11.771640163346444"><ele>3.9999999999999996</ele><time>2026-04-11T14:46:32Z</time></trkpt><trkpt lat="44.87356709722024" lon="11.77166625101881"><ele>4.0</ele><time>2026-04-11T14:46:34Z</time></trkpt><trkpt lat="44.87363955645897" lon="11.771688750912485"><ele>4.0</ele><time>2026-04-11T14:46:36Z</time></trkpt><trkpt lat="44.87372595373712" lon="11.771713259390285"><ele>4.0</ele><time>2026-04-11T14:46:38Z</time></trkpt><trkpt lat="44.87380850658454" lon="11.771728306220034"><ele>3.9999999999999996</ele><time>2026-04-11T14:46:40Z</time></trkpt><trkpt lat="44.87389134851547" lon="11.771756216495042"><ele>4.0</ele><time>2026-04-11T14:46:42Z</time></trkpt><trkpt lat="44.87397104221663" lon="11.77178279620928"><ele>3.9999999999999996</ele><time>2026-04-11T14:46:44Z</time></trkpt><trkpt lat="44.874044200960164" lon="11.771826082356334"><ele>4.0</ele><time>2026-04-11T14:46:46Z</time></trkpt><trkpt lat="44.874114915175454" lon="11.771867763955205"><ele>4.0</ele><time>2026-04-11T14:46:48Z</time></trkpt><trkpt lat="44.874185658208965" lon="11.771896178502804"><ele>4.0</ele><time>2026-04-11T14:46:50Z</time></trkpt><trkpt lat="44.87426486812475" lon="11.771922552800131"><ele>3.9999999999999996</ele><time>2026-04-11T14:46:52Z</time></trkpt><trkpt lat="44.87435189964027" lon="11.77194642789719"><ele>4.0</ele><time>2026-04-11T14:46:54Z</time></trkpt><trkpt lat="44.87443646275401" lon="11.771976125201434"><ele>4.166666666666666</ele><time>2026-04-11T14:46:56Z</time></trkpt><trkpt lat="44.87452386259948" lon="11.77199557426766"><ele>4.333333333333333</ele><time>2026-04-11T14:46:58Z</time></trkpt><trkpt lat="44.874607284339014" lon="11.77201771418643"><ele>4.5</ele><time>2026-04-11T14:47:00Z</time></trkpt><trkpt lat="44.874686021338945" lon="11.772039591717425"><ele>4.666666666666667</ele><time>2026-04-11T14:47:02Z</time></trkpt><trkpt lat="44.874757077167295" lon="11.772053296538216"><ele>4.833333333333334</ele><time>2026-04-11T14:47:04Z</time></trkpt><trkpt lat="44.874838270021996" lon="11.772075703455693"><ele>5.0</ele><time>2026-04-11T14:47:06Z</time></trkpt><trkpt lat="44.874915533550706" lon="11.772092486431243"><ele>5.0</ele><time>2026-04-11T14:47:08Z</time></trkpt><trkpt lat="44.8749895812681" lon="11.77210818310121"><ele>5.0</ele><time>2026-04-11T14:47:10Z</time></trkpt><trkpt lat="44.875062628552016" lon="11.772147523189195"><ele>5.0</ele><time>2026-04-11T14:47:12Z</time></trkpt><trkpt lat="44.87512712653436" lon="11.772216861795455"><ele>5.0</ele><time>2026-04-11T14:47:14Z</time></trkpt><trkpt lat="44.87512899959152" lon="11.772325206449464"><ele>5.0</ele><time>2026-04-11T14:47:16Z</time></trkpt><trkpt lat="44.87514123655657" lon="11.772432863789529"><ele>5.0</ele><time>2026-04-11T14:47:18Z</time></trkpt><trkpt lat="44.87516003317679" lon="11.772551317493019"><ele>4.833333333333334</ele><time>2026-04-11T14:47:20Z</time></trkpt><trkpt lat="44.875163830680364" lon="11.772659064999907"><ele>4.666666666666667</ele><time>2026-04-11T14:47:22Z</time></trkpt><trkpt lat="44.875194384272575" lon="11.772786424095312"><ele>4.5</ele><time>2026-04-11T14:47:24Z</time></trkpt><trkpt lat="44.87520598864577" lon="11.772902454430621"><ele>4.333333333333333</ele><time>2026-04-11T14:47:26Z</time></trkpt><trkpt lat="44.875227463415925" lon="11.773028627134035"><ele>4.166666666666666</ele><time>2026-04-11T14:47:28Z</time></trkpt><trkpt lat="44.87523656106078" lon="11.7731456663617"><ele>4.0</ele><time>2026-04-11T14:47:30Z</time></trkpt><trkpt lat="44.87525761917204" lon="11.77326765671886"><ele>3.9999999999999996</ele><time>2026-04-11T14:47:32Z</time></trkpt><trkpt lat="44.87527458015977" lon="11.77339415948168"><ele>4.0</ele><time>2026-04-11T14:47:34Z</time></trkpt><trkpt lat="44.87528689963989" lon="11.773510693667932"><ele>4.0</ele><time>2026-04-11T14:47:36Z</time></trkpt><trkpt lat="44.87530605854616" lon="11.773636361315711"><ele>4.0</ele><time>2026-04-11T14:47:38Z</time></trkpt><trkpt lat="44.87532554447799" lon="11.77375588493932"><ele>3.9999999999999996</ele><time>2026-04-11T14:47:40Z</time></trkpt><trkpt lat="44.875348899970554" lon="11.773875711655457"><ele>4.0</ele><time>2026-04-11T14:47:42Z</time></trkpt><trkpt lat="44.87535246350626" lon="11.773991262689858"><ele>3.9999999999999996</ele><time>2026-04-11T14:47:44Z</time></trkpt><trkpt lat="44.87538400363209" lon="11.774112009741582"><ele>4.0</ele><time>2026-04-11T14:47:46Z</time></trkpt><trkpt lat="44.87538313054527" lon="11.774218866489468"><ele>4.0</ele><time>2026-04-11T14:47:48Z</time></trkpt><trkpt lat="44.875408025655936" lon="11.7743149279182"><ele>4.0</ele><time>2026-04-11T14:47:50Z</time></trkpt><trkpt lat="44.87542127421965" lon="11.774413566320915"><ele>3.9999999999999996</ele><time>2026-04-11T14:47:52Z</time></trkpt><trkpt lat="44.875450525600655" lon="11.774527335544596"><ele>4.0</ele><time>2026-04-11T14:47:54Z</time></trkpt><trkpt lat="44.87547591025073" lon="11.774630184277461"><ele>4.142857142857142</ele><time>2026-04-11T14:47:56Z</time></trkpt><trkpt lat="44.875491625276034" lon="11.77472836631665"><ele>4.285714285714286</ele><time>2026-04-11T14:47:58Z</time></trkpt><trkpt lat="44.875501104235155" lon="11.77482261173775"><ele>4.428571428571429</ele><time>2026-04-11T14:48:00Z</time></trkpt><trkpt lat="44.87551622178351" lon="11.774924116111782"><ele>4.571428571428571</ele><time>2026-04-11T14:48:02Z</time></trkpt><trkpt lat="44.87552910166167" lon="11.775025991517701"><ele>4.714285714285714</ele><time>2026-04-11T14:48:04Z</time></trkpt><trkpt lat="44.87553625364459" lon="11.77511690477877"><ele>4.857142857142857</ele><time>2026-04-11T14:48:06Z</time></trkpt><trkpt lat="44.87557288052943" lon="11.775236801000533"><ele>5.0</ele><time>2026-04-11T14:48:09Z</time></trkpt><trkpt lat="44.875647003303875" lon="11.775325478103747"><ele>5.0</ele><time>2026-04-11T14:48:12Z</time></trkpt><trkpt lat="44.875727763548255" lon="11.775353422302649"><ele>5.0</ele><time>2026-04-11T14:48:14Z</time></trkpt><trkpt lat="44.87581416679428" lon="11.775386635579318"><ele>5.0</ele><time>2026-04-11T14:48:16Z</time></trkpt><trkpt lat="44.875877465832055" lon="11.775471722095128"><ele>5.0</ele><time>2026-04-11T14:48:18Z</time></trkpt><trkpt lat="44.87591098592661" lon="11.77559447123092"><ele>5.0</ele><time>2026-04-11T14:48:20Z</time></trkpt><trkpt lat="44.87594430603728" lon="11.775709474808805"><ele>5.0</ele><time>2026-04-11T14:48:22Z</time></trkpt><trkpt lat="44.87597019887452" lon="11.77583373261606"><ele>4.5</ele><time>2026-04-11T14:48:24Z</time></trkpt><trkpt lat="44.87599638987261" lon="11.77595550642381"><ele>4.0</ele><time>2026-04-11T14:48:26Z</time></trkpt><trkpt lat="44.87603128165912" lon="11.776074239739057"><ele>3.5</ele><time>2026-04-11T14:48:28Z</time></trkpt><trkpt lat="44.876059393815176" lon="11.776190889131113"><ele>3.0</ele><time>2026-04-11T14:48:30Z</time></trkpt><trkpt lat="44.87607874329814" lon="11.776308929995537"><ele>2.5</ele><time>2026-04-11T14:48:32Z</time></trkpt><trkpt lat="44.87611268423736" lon="11.77642088686979"><ele>2.0</ele><time>2026-04-11T14:48:34Z</time></trkpt><trkpt lat="44.876151096299985" lon="11.776529040007834"><ele>2.0</ele><time>2026-04-11T14:48:36Z</time></trkpt><trkpt lat="44.87618409416475" lon="11.776641421536617"><ele>2.0</ele><time>2026-04-11T14:48:38Z</time></trkpt><trkpt lat="44.87621708072668" lon="11.776760339619772"><ele>2.0</ele><time>2026-04-11T14:48:40Z</time></trkpt><trkpt lat="44.876258770356955" lon="11.776875257031357"><ele>2.0</ele><time>2026-04-11T14:48:42Z</time></trkpt><trkpt lat="44.87630005525295" lon="11.77699505944252"><ele>2.0</ele><time>2026-04-11T14:48:44Z</time></trkpt><trkpt lat="44.87633856480982" lon="11.777106048574616"><ele>2.1666666666666665</ele><time>2026-04-11T14:48:46Z</time></trkpt><trkpt lat="44.87638171406828" lon="11.777216518156713"><ele>2.333333333333333</ele><time>2026-04-11T14:48:48Z</time></trkpt><trkpt lat="44.876424929008" lon="11.777332580611024"><ele>2.5</ele><time>2026-04-11T14:48:50Z</time></trkpt><trkpt lat="44.87647255684312" lon="11.77744078594427"><ele>2.6666666666666665</ele><time>2026-04-11T14:48:52Z</time></trkpt><trkpt lat="44.87652484574293" lon="11.777538030249357"><ele>2.8333333333333335</ele><time>2026-04-11T14:48:54Z</time></trkpt><trkpt lat="44.876575825903885" lon="11.777633155905335"><ele>3.0</ele><time>2026-04-11T14:48:56Z</time></trkpt><trkpt lat="44.87663994135384" lon="11.777714389842146"><ele>3.0</ele><time>2026-04-11T14:48:58Z</time></trkpt><trkpt lat="44.87670417540992" lon="11.777797390534253"><ele>3.0</ele><time>2026-04-11T14:49:00Z</time></trkpt><trkpt lat="44.87676339896799" lon="11.777874787104894"><ele>3.0</ele><time>2026-04-11T14:49:02Z</time></trkpt><trkpt lat="44.87683206609461" lon="11.777948428070172"><ele>3.0</ele><time>2026-04-11T14:49:04Z</time></trkpt><trkpt lat="44.876899808559116" lon="11.778031112300035"><ele>3.0</ele><time>2026-04-11T14:49:06Z</time></trkpt><trkpt lat="44.87696083898532" lon="11.778125364576159"><ele>3.0</ele><time>2026-04-11T14:49:08Z</time></trkpt><trkpt lat="44.87702529183569" lon="11.77821270908108"><ele>2.8333333333333335</ele><time>2026-04-11T14:49:10Z</time></trkpt><trkpt lat="44.87708389154415" lon="11.778309768193239"><ele>2.6666666666666665</ele><time>2026-04-11T14:49:12Z</time></trkpt><trkpt lat="44.8771479000618" lon="11.778404501223774"><ele>2.5</ele><time>2026-04-11T14:49:14Z</time></trkpt><trkpt lat="44.87719344050924" lon="11.778514591091753"><ele>2.333333333333333</ele><time>2026-04-11T14:49:16Z</time></trkpt><trkpt lat="44.87723351015398" lon="11.778628374566388"><ele>2.1666666666666665</ele><time>2026-04-11T14:49:18Z</time></trkpt><trkpt lat="44.87726393911255" lon="11.778734951916089"><ele>2.0</ele><time>2026-04-11T14:49:20Z</time></trkpt><trkpt lat="44.877283990531495" lon="11.778839507522918"><ele>2.0</ele><time>2026-04-11T14:49:22Z</time></trkpt><trkpt lat="44.87729696787257" lon="11.77894099083555"><ele>1.9999999999999998</ele><time>2026-04-11T14:49:24Z</time></trkpt><trkpt lat="44.87730390773184" lon="11.779040520608238"><ele>2.0</ele><time>2026-04-11T14:49:26Z</time></trkpt><trkpt lat="44.87731709661259" lon="11.779140627993119"><ele>2.0</ele><time>2026-04-11T14:49:28Z</time></trkpt><trkpt lat="44.87732615330737" lon="11.779235879566233"><ele>1.9999999999999998</ele><time>2026-04-11T14:49:30Z</time></trkpt><trkpt lat="44.877334778188064" lon="11.77933797451964"><ele>2.0</ele><time>2026-04-11T14:49:32Z</time></trkpt><trkpt lat="44.87734950779705" lon="11.779434342996229"><ele>2.0</ele><time>2026-04-11T14:49:34Z</time></trkpt><trkpt lat="44.877364093886996" lon="11.779531103402913"><ele>1.857142857142857</ele><time>2026-04-11T14:49:36Z</time></trkpt><trkpt lat="44.877383712539604" lon="11.779625026958586"><ele>1.714285714285714</ele><time>2026-04-11T14:49:38Z</time></trkpt><trkpt lat="44.87740503082272" lon="11.77971299215061"><ele>1.5714285714285714</ele><time>2026-04-11T14:49:40Z</time></trkpt><trkpt lat="44.87741507309651" lon="11.77980975022928"><ele>1.4285714285714284</ele><time>2026-04-11T14:49:42Z</time></trkpt><trkpt lat="44.877436855996166" lon="11.779898984305536"><ele>1.2857142857142856</ele><time>2026-04-11T14:49:44Z</time></trkpt><trkpt lat="44.877476536618154" lon="11.779971526654624"><ele>1.1428571428571428</ele><time>2026-04-11T14:49:46Z</time></trkpt><trkpt lat="44.87753956824916" lon="11.779994373037773"><ele>1.0</ele><time>2026-04-11T14:49:48Z</time></trkpt><trkpt lat="44.87762334830018" lon="11.780025562931186"><ele>1.0</ele><time>2026-04-11T14:49:51Z</time></trkpt><trkpt lat="44.87770367486924" lon="11.780057654067807"><ele>0.9999999999999999</ele><time>2026-04-11T14:49:54Z</time></trkpt><trkpt lat="44.877771818656456" lon="11.780080329690975"><ele>1.0</ele><time>2026-04-11T14:49:56Z</time></trkpt><trkpt lat="44.877836461511784" lon="11.780104353049067"><ele>1.0</ele><time>2026-04-11T14:49:58Z</time></trkpt><trkpt lat="44.877900417718166" lon="11.78013058632685"><ele>0.9999999999999999</ele><time>2026-04-11T14:50:00Z</time></trkpt><trkpt lat="44.877961274684516" lon="11.780159699288415"><ele>1.0</ele><time>2026-04-11T14:50:02Z</time></trkpt><trkpt lat="44.87802854098199" lon="11.78017076438027"><ele>1.0</ele><time>2026-04-11T14:50:04Z</time></trkpt><trkpt lat="44.87810069286223" lon="11.78018354004341"><ele>1.1428571428571428</ele><time>2026-04-11T14:50:06Z</time></trkpt><trkpt lat="44.87816732788752" lon="11.780213099990192"><ele>1.2857142857142856</ele><time>2026-04-11T14:50:08Z</time></trkpt><trkpt lat="44.8782408458399" lon="11.780218135676783"><ele>1.4285714285714284</ele><time>2026-04-11T14:50:10Z</time></trkpt><trkpt lat="44.87830914424659" lon="11.780216003774981"><ele>1.5714285714285714</ele><time>2026-04-11T14:50:12Z</time></trkpt><trkpt lat="44.87838071031392" lon="11.780229689553062"><ele>1.714285714285714</ele><time>2026-04-11T14:50:14Z</time></trkpt><trkpt lat="44.878446231383855" lon="11.780256980873784"><ele>1.857142857142857</ele><time>2026-04-11T14:50:16Z</time></trkpt><trkpt lat="44.878511482649394" lon="11.780247882713581"><ele>2.0</ele><time>2026-04-11T14:50:18Z</time></trkpt><trkpt lat="44.87858164437198" lon="11.780261608960592"><ele>1.9999999999999998</ele><time>2026-04-11T14:50:20Z</time></trkpt><trkpt lat="44.878667075613706" lon="11.78027093595559"><ele>2.0</ele><time>2026-04-11T14:50:23Z</time></trkpt><trkpt lat="44.87874690763222" lon="11.780291487123357"><ele>2.0</ele><time>2026-04-11T14:50:26Z</time></trkpt><trkpt lat="44.87883219323611" lon="11.780318244021403"><ele>2.0</ele><time>2026-04-11T14:50:29Z</time></trkpt><trkpt lat="44.878898742840846" lon="11.780332758267281"><ele>1.9999999999999998</ele><time>2026-04-11T14:50:31Z</time></trkpt><trkpt lat="44.87896465833199" lon="11.780353615983731"><ele>2.0</ele><time>2026-04-11T14:50:33Z</time></trkpt><trkpt lat="44.87903290008826" lon="11.780367650375473"><ele>1.9999999999999998</ele><time>2026-04-11T14:50:35Z</time></trkpt><trkpt lat="44.87912459657145" lon="11.780380689769162"><ele>2.0</ele><time>2026-04-11T14:50:38Z</time></trkpt><trkpt lat="44.87920576241589" lon="11.780400842818226"><ele>2.0</ele><time>2026-04-11T14:50:40Z</time></trkpt><trkpt lat="44.87928105050764" lon="11.780431217015511"><ele>2.0</ele><time>2026-04-11T14:50:42Z</time></trkpt><trkpt lat="44.8793504671768" lon="11.780447574917057"><ele>1.9999999999999998</ele><time>2026-04-11T14:50:44Z</time></trkpt><trkpt lat="44.879417885141315" lon="11.780476960269882"><ele>2.0</ele><time>2026-04-11T14:50:46Z</time></trkpt><trkpt lat="44.879477414038575" lon="11.78051157152081"><ele>2.0</ele><time>2026-04-11T14:50:48Z</time></trkpt><trkpt lat="44.87953950006927" lon="11.780534191606293"><ele>1.9999999999999998</ele><time>2026-04-11T14:50:50Z</time></trkpt><trkpt lat="44.87960373304672" lon="11.780536372484026"><ele>2.0</ele><time>2026-04-11T14:50:52Z</time></trkpt><trkpt lat="44.879664198563" lon="11.780586782813135"><ele>2.0</ele><time>2026-04-11T14:50:54Z</time></trkpt><trkpt lat="44.87973258126213" lon="11.780617777957074"><ele>1.9999999999999998</ele><time>2026-04-11T14:50:56Z</time></trkpt><trkpt lat="44.879794149634975" lon="11.780648023566455"><ele>2.0</ele><time>2026-04-11T14:50:58Z</time></trkpt><trkpt lat="44.8798587148763" lon="11.78067969158907"><ele>2.0</ele><time>2026-04-11T14:51:00Z</time></trkpt><trkpt lat="44.879918486778145" lon="11.78070900856823"><ele>2.0</ele><time>2026-04-11T14:51:02Z</time></trkpt><trkpt lat="44.879979971958605" lon="11.780740821313096"><ele>1.9999999999999998</ele><time>2026-04-11T14:51:04Z</time></trkpt><trkpt lat="44.8800394808218" lon="11.780772002687579"><ele>2.0</ele><time>2026-04-11T14:51:06Z</time></trkpt><trkpt lat="44.88010259156907" lon="11.780805071374447"><ele>2.0</ele><time>2026-04-11T14:51:08Z</time></trkpt><trkpt lat="44.88016647642336" lon="11.780839033746933"><ele>1.9999999999999998</ele><time>2026-04-11T14:51:10Z</time></trkpt><trkpt lat="44.88024971141995" lon="11.780874790529353"><ele>2.0</ele><time>2026-04-11T14:51:13Z</time></trkpt><trkpt lat="44.88032390455881" lon="11.780910046659471"><ele>2.0</ele><time>2026-04-11T14:51:15Z</time></trkpt><trkpt lat="44.880383585448776" lon="11.780969569836161"><ele>1.9999999999999998</ele><time>2026-04-11T14:51:17Z</time></trkpt><trkpt lat="44.88044648592149" lon="11.780985962079223"><ele>2.0</ele><time>2026-04-11T14:51:19Z</time></trkpt><trkpt lat="44.880510367495255" lon="11.781033093344035"><ele>2.0</ele><time>2026-04-11T14:51:21Z</time></trkpt><trkpt lat="44.88058042658018" lon="11.781089219550834"><ele>2.0</ele><time>2026-04-11T14:51:23Z</time></trkpt><trkpt lat="44.88064901085392" lon="11.781153835960954"><ele>1.9999999999999998</ele><time>2026-04-11T14:51:25Z</time></trkpt><trkpt lat="44.88071655514336" lon="11.781230854755323"><ele>2.0</ele><time>2026-04-11T14:51:27Z</time></trkpt><trkpt lat="44.880774972390235" lon="11.78131716370758"><ele>1.8333333333333333</ele><time>2026-04-11T14:51:29Z</time></trkpt><trkpt lat="44.8808014592291" lon="11.781433659466243"><ele>1.6666666666666665</ele><time>2026-04-11T14:51:31Z</time></trkpt><trkpt lat="44.88083460971346" lon="11.781536580652245"><ele>1.5</ele><time>2026-04-11T14:51:33Z</time></trkpt><trkpt lat="44.88086127607914" lon="11.781645774234871"><ele>1.3333333333333333</ele><time>2026-04-11T14:51:35Z</time></trkpt><trkpt lat="44.880884230349686" lon="11.781761814062442"><ele>1.1666666666666665</ele><time>2026-04-11T14:51:37Z</time></trkpt><trkpt lat="44.88090638650713" lon="11.781873738669455"><ele>1.0</ele><time>2026-04-11T14:51:39Z</time></trkpt><trkpt lat="44.88092987844564" lon="11.781992411133578"><ele>0.9999999999999999</ele><time>2026-04-11T14:51:41Z</time></trkpt><trkpt lat="44.880955304239215" lon="11.782103976172408"><ele>1.0</ele><time>2026-04-11T14:51:43Z</time></trkpt><trkpt lat="44.880978113683284" lon="11.782220719528269"><ele>1.0</ele><time>2026-04-11T14:51:45Z</time></trkpt><trkpt lat="44.88099744370912" lon="11.782336097572486"><ele>1.0</ele><time>2026-04-11T14:51:47Z</time></trkpt><trkpt lat="44.88101437243941" lon="11.78245978876241"><ele>0.9999999999999999</ele><time>2026-04-11T14:51:49Z</time></trkpt><trkpt lat="44.8810292106906" lon="11.78257653158461"><ele>1.0</ele><time>2026-04-11T14:51:51Z</time></trkpt><trkpt lat="44.88103580905915" lon="11.782697051971855"><ele>0.9999999999999999</ele><time>2026-04-11T14:51:53Z</time></trkpt><trkpt lat="44.88104186374838" lon="11.782813790572467"><ele>1.0</ele><time>2026-04-11T14:51:55Z</time></trkpt><trkpt lat="44.88104188166887" lon="11.782927463738753"><ele>1.0</ele><time>2026-04-11T14:51:57Z</time></trkpt><trkpt lat="44.88104163787299" lon="11.783035287877437"><ele>1.0</ele><time>2026-04-11T14:51:59Z</time></trkpt><trkpt lat="44.881032349282776" lon="11.783133301811647"><ele>0.9999999999999999</ele><time>2026-04-11T14:52:01Z</time></trkpt><trkpt lat="44.88102044537102" lon="11.783230566660489"><ele>1.0</ele><time>2026-04-11T14:52:03Z</time></trkpt><trkpt lat="44.88101397603425" lon="11.783328491442369"><ele>1.0</ele><time>2026-04-11T14:52:05Z</time></trkpt><trkpt lat="44.88099658505414" lon="11.78341669560981"><ele>0.9999999999999999</ele><time>2026-04-11T14:52:07Z</time></trkpt><trkpt lat="44.880982272128726" lon="11.783510424554283"><ele>1.0</ele><time>2026-04-11T14:52:09Z</time></trkpt><trkpt lat="44.880967368267896" lon="11.78360275827188"><ele>1.0</ele><time>2026-04-11T14:52:11Z</time></trkpt><trkpt lat="44.88094929027737" lon="11.783697932562035"><ele>0.9999999999999999</ele><time>2026-04-11T14:52:13Z</time></trkpt><trkpt lat="44.880938483282584" lon="11.783790092044034"><ele>1.0</ele><time>2026-04-11T14:52:15Z</time></trkpt><trkpt lat="44.88092229114865" lon="11.783877156433315"><ele>1.0</ele><time>2026-04-11T14:52:17Z</time></trkpt><trkpt lat="44.88089074664807" lon="11.783999919436843"><ele>1.0</ele><time>2026-04-11T14:52:20Z</time></trkpt><trkpt lat="44.880873645137285" lon="11.784092409136775"><ele>0.9999999999999999</ele><time>2026-04-11T14:52:22Z</time></trkpt><trkpt lat="44.88085936417076" lon="11.78419062504502"><ele>1.0</ele><time>2026-04-11T14:52:24Z</time></trkpt><trkpt lat="44.88083337374557" lon="11.78428199173497"><ele>1.0</ele><time>2026-04-11T14:52:26Z</time></trkpt><trkpt lat="44.88081313024844" lon="11.784372400693202"><ele>0.9999999999999999</ele><time>2026-04-11T14:52:28Z</time></trkpt><trkpt lat="44.88079153704749" lon="11.78446714242506"><ele>1.0</ele><time>2026-04-11T14:52:30Z</time></trkpt><trkpt lat="44.880774902671284" lon="11.784553194358478"><ele>1.0</ele><time>2026-04-11T14:52:32Z</time></trkpt><trkpt lat="44.88075853250703" lon="11.78464412353612"><ele>1.0</ele><time>2026-04-11T14:52:34Z</time></trkpt><trkpt lat="44.88072142072072" lon="11.784729654015504"><ele>0.9999999999999999</ele><time>2026-04-11T14:52:36Z</time></trkpt><trkpt lat="44.88071184743372" lon="11.784824617709745"><ele>1.0</ele><time>2026-04-11T14:52:38Z</time></trkpt><trkpt lat="44.88068646235903" lon="11.784914723229617"><ele>1.0</ele><time>2026-04-11T14:52:40Z</time></trkpt><trkpt lat="44.880656394275974" lon="11.784992863957862"><ele>0.9999999999999999</ele><time>2026-04-11T14:52:42Z</time></trkpt><trkpt lat="44.880618530518504" lon="11.785089608702746"><ele>1.0</ele><time>2026-04-11T14:52:44Z</time></trkpt><trkpt lat="44.88058190958621" lon="11.785176648722237"><ele>1.0</ele><time>2026-04-11T14:52:46Z</time></trkpt><trkpt lat="44.880545592906216" lon="11.785261461899193"><ele>1.0</ele><time>2026-04-11T14:52:48Z</time></trkpt><trkpt lat="44.88050767811278" lon="11.785344912996072"><ele>0.9999999999999999</ele><time>2026-04-11T14:52:50Z</time></trkpt><trkpt lat="44.880475856320174" lon="11.785432327538924"><ele>1.0</ele><time>2026-04-11T14:52:52Z</time></trkpt><trkpt lat="44.8804407263805" lon="11.785518785339457"><ele>1.0</ele><time>2026-04-11T14:52:54Z</time></trkpt><trkpt lat="44.88041075752883" lon="11.785610301691062"><ele>0.9999999999999999</ele><time>2026-04-11T14:52:56Z</time></trkpt><trkpt lat="44.88037377667828" lon="11.785695936685613"><ele>1.0</ele><time>2026-04-11T14:52:58Z</time></trkpt><trkpt lat="44.880351135849956" lon="11.785788085706473"><ele>1.0</ele><time>2026-04-11T14:53:00Z</time></trkpt><trkpt lat="44.880336650635854" lon="11.785892994778004"><ele>1.0</ele><time>2026-04-11T14:53:02Z</time></trkpt><trkpt lat="44.88032051918448" lon="11.785984956944501"><ele>0.9999999999999999</ele><time>2026-04-11T14:53:04Z</time></trkpt><trkpt lat="44.88031025969224" lon="11.786082761852404"><ele>1.0</ele><time>2026-04-11T14:53:06Z</time></trkpt><trkpt lat="44.88030453140512" lon="11.78617805462713"><ele>1.0</ele><time>2026-04-11T14:53:08Z</time></trkpt><trkpt lat="44.88029605700756" lon="11.786272592475472"><ele>0.9999999999999999</ele><time>2026-04-11T14:53:10Z</time></trkpt><trkpt lat="44.88029109741514" lon="11.786368303490805"><ele>1.0</ele><time>2026-04-11T14:53:12Z</time></trkpt><trkpt lat="44.880297982964294" lon="11.786468853640832"><ele>1.0</ele><time>2026-04-11T14:53:14Z</time></trkpt><trkpt lat="44.880292853239524" lon="11.786562018722643"><ele>1.0</ele><time>2026-04-11T14:53:16Z</time></trkpt><trkpt lat="44.88028818301657" lon="11.786654522608307"><ele>0.9999999999999999</ele><time>2026-04-11T14:53:18Z</time></trkpt><trkpt lat="44.880292890846476" lon="11.78674918849706"><ele>1.0</ele><time>2026-04-11T14:53:20Z</time></trkpt><trkpt lat="44.8802965739875" lon="11.786845518293331"><ele>1.0</ele><time>2026-04-11T14:53:22Z</time></trkpt><trkpt lat="44.880290799965664" lon="11.786939062294145"><ele>0.9999999999999999</ele><time>2026-04-11T14:53:24Z</time></trkpt><trkpt lat="44.88029099772113" lon="11.787033913160485"><ele>1.0</ele><time>2026-04-11T14:53:26Z</time></trkpt><trkpt lat="44.88029130578532" lon="11.787131047475118"><ele>1.0</ele><time>2026-04-11T14:53:28Z</time></trkpt><trkpt lat="44.88029395809159" lon="11.78722783682302"><ele>1.0</ele><time>2026-04-11T14:53:30Z</time></trkpt><trkpt lat="44.88029354538848" lon="11.787324089962967"><ele>0.9999999999999999</ele><time>2026-04-11T14:53:32Z</time></trkpt><trkpt lat="44.88030052231471" lon="11.78741622247757"><ele>1.0</ele><time>2026-04-11T14:53:34Z</time></trkpt><trkpt lat="44.88028455276316" lon="11.787507242035746"><ele>1.0</ele><time>2026-04-11T14:53:36Z</time></trkpt><trkpt lat="44.880284552762966" lon="11.787602655980008"><ele>0.9999999999999999</ele><time>2026-04-11T14:53:38Z</time></trkpt><trkpt lat="44.88028403174947" lon="11.787697090294245"><ele>1.0</ele><time>2026-04-11T14:53:40Z</time></trkpt><trkpt lat="44.880282360975364" lon="11.787792900616573"><ele>1.0</ele><time>2026-04-11T14:53:42Z</time></trkpt><trkpt lat="44.880278931347824" lon="11.787886197031868"><ele>1.0</ele><time>2026-04-11T14:53:44Z</time></trkpt><trkpt lat="44.88028921547832" lon="11.78797884903115"><ele>0.9999999999999999</ele><time>2026-04-11T14:53:46Z</time></trkpt><trkpt lat="44.88027912151381" lon="11.788067136777888"><ele>1.0</ele><time>2026-04-11T14:53:48Z</time></trkpt><trkpt lat="44.88027065755598" lon="11.788158993240954"><ele>1.0</ele><time>2026-04-11T14:53:50Z</time></trkpt><trkpt lat="44.880239541972266" lon="11.788291229774481"><ele>0.9999999999999999</ele><time>2026-04-11T14:53:53Z</time></trkpt><trkpt lat="44.88022676725038" lon="11.788385380757985"><ele>1.0</ele><time>2026-04-11T14:53:55Z</time></trkpt><trkpt lat="44.88023023780511" lon="11.788482579310609"><ele>1.0</ele><time>2026-04-11T14:53:57Z</time></trkpt><trkpt lat="44.88022618909557" lon="11.78857777760262"><ele>1.2857142857142856</ele><time>2026-04-11T14:53:59Z</time></trkpt><trkpt lat="44.880233891860755" lon="11.788673589974493"><ele>1.5714285714285712</ele><time>2026-04-11T14:54:01Z</time></trkpt><trkpt lat="44.880240270863304" lon="11.788776592076468"><ele>1.857142857142857</ele><time>2026-04-11T14:54:03Z</time></trkpt><trkpt lat="44.88027534517286" lon="11.788867755634632"><ele>2.142857142857143</ele><time>2026-04-11T14:54:05Z</time></trkpt><trkpt lat="44.880315271534876" lon="11.788951271979105"><ele>2.4285714285714284</ele><time>2026-04-11T14:54:07Z</time></trkpt><trkpt lat="44.880360542451875" lon="11.789024879141131"><ele>2.714285714285714</ele><time>2026-04-11T14:54:09Z</time></trkpt><trkpt lat="44.8804294836287" lon="11.789080081691518"><ele>3.0</ele><time>2026-04-11T14:54:11Z</time></trkpt><trkpt lat="44.88048778118132" lon="11.789151637304746"><ele>3.0</ele><time>2026-04-11T14:54:13Z</time></trkpt><trkpt lat="44.88054937203652" lon="11.78923446763643"><ele>3.0</ele><time>2026-04-11T14:54:16Z</time></trkpt><trkpt lat="44.88062127309618" lon="11.789331957671608"><ele>3.0</ele><time>2026-04-11T14:54:19Z</time></trkpt><trkpt lat="44.880689179492265" lon="11.78939548830694"><ele>3.0</ele><time>2026-04-11T14:54:21Z</time></trkpt><trkpt lat="44.880734008535555" lon="11.789482535688707"><ele>3.0</ele><time>2026-04-11T14:54:23Z</time></trkpt><trkpt lat="44.88078853334199" lon="11.789590078482222"><ele>3.0</ele><time>2026-04-11T14:54:26Z</time></trkpt><trkpt lat="44.88081930262107" lon="11.789672762437364"><ele>3.0</ele><time>2026-04-11T14:54:28Z</time></trkpt><trkpt lat="44.88084562083456" lon="11.78975602257554"><ele>3.0</ele><time>2026-04-11T14:54:30Z</time></trkpt><trkpt lat="44.88087289704043" lon="11.78986306518274"><ele>3.0</ele><time>2026-04-11T14:54:32Z</time></trkpt><trkpt lat="44.880891494440554" lon="11.789970456952876"><ele>3.0</ele><time>2026-04-11T14:54:34Z</time></trkpt><trkpt lat="44.88091723425086" lon="11.790059507820345"><ele>3.0</ele><time>2026-04-11T14:54:36Z</time></trkpt><trkpt lat="44.880932227321566" lon="11.790184969366118"><ele>3.0</ele><time>2026-04-11T14:54:39Z</time></trkpt><trkpt lat="44.88095602981158" lon="11.790313081362829"><ele>2.5</ele><time>2026-04-11T14:54:42Z</time></trkpt><trkpt lat="44.880969816991666" lon="11.790423893222252"><ele>2.0</ele><time>2026-04-11T14:54:44Z</time></trkpt><trkpt lat="44.8809982110936" lon="11.790542038426654"><ele>1.5</ele><time>2026-04-11T14:54:46Z</time></trkpt><trkpt lat="44.881034047705704" lon="11.790652168873589"><ele>1.0</ele><time>2026-04-11T14:54:48Z</time></trkpt><trkpt lat="44.881078866219134" lon="11.790729234250302"><ele>0.5</ele><time>2026-04-11T14:54:50Z</time></trkpt><trkpt lat="44.88104642440851" lon="11.790806791004208"><ele>0.0</ele><time>2026-04-11T14:54:51Z</time></trkpt><trkpt lat="44.88107512192538" lon="11.790928886218532"><ele>0.16666666666666666</ele><time>2026-04-11T14:54:53Z</time></trkpt><trkpt lat="44.8811100036591" lon="11.79104033557797"><ele>0.3333333333333333</ele><time>2026-04-11T14:54:55Z</time></trkpt><trkpt lat="44.88114545465276" lon="11.79115295382024"><ele>0.5</ele><time>2026-04-11T14:54:57Z</time></trkpt><trkpt lat="44.88118131590735" lon="11.791257479018599"><ele>0.6666666666666666</ele><time>2026-04-11T14:54:59Z</time></trkpt><trkpt lat="44.88121269818548" lon="11.791348949039747"><ele>0.8333333333333333</ele><time>2026-04-11T14:55:01Z</time></trkpt><trkpt lat="44.88124978009638" lon="11.791450966023675"><ele>1.0</ele><time>2026-04-11T14:55:03Z</time></trkpt><trkpt lat="44.88128870395058" lon="11.791554190648155"><ele>0.9999999999999999</ele><time>2026-04-11T14:55:05Z</time></trkpt><trkpt lat="44.881345091497465" lon="11.7916469371471"><ele>1.0</ele><time>2026-04-11T14:55:07Z</time></trkpt><trkpt lat="44.88137850326162" lon="11.791762611529217"><ele>1.0</ele><time>2026-04-11T14:55:09Z</time></trkpt><trkpt lat="44.88143355834515" lon="11.791861609983805"><ele>1.0</ele><time>2026-04-11T14:55:11Z</time></trkpt><trkpt lat="44.881490952728775" lon="11.791947734320738"><ele>0.9999999999999999</ele><time>2026-04-11T14:55:13Z</time></trkpt><trkpt lat="44.881554049841675" lon="11.792033403627284"><ele>1.0</ele><time>2026-04-11T14:55:15Z</time></trkpt><trkpt lat="44.881614976677945" lon="11.792111758724245"><ele>1.1666666666666665</ele><time>2026-04-11T14:55:17Z</time></trkpt><trkpt lat="44.881678074938975" lon="11.792190451419074"><ele>1.3333333333333333</ele><time>2026-04-11T14:55:19Z</time></trkpt><trkpt lat="44.88174165947208" lon="11.792269488407694"><ele>1.5</ele><time>2026-04-11T14:55:21Z</time></trkpt><trkpt lat="44.881812686538936" lon="11.792329590584655"><ele>1.6666666666666665</ele><time>2026-04-11T14:55:23Z</time></trkpt><trkpt lat="44.881865135889846" lon="11.792422234766281"><ele>1.8333333333333333</ele><time>2026-04-11T14:55:25Z</time></trkpt><trkpt lat="44.88192053475704" lon="11.792503468032413"><ele>2.0</ele><time>2026-04-11T14:55:27Z</time></trkpt><trkpt lat="44.881973529063906" lon="11.792588396218983"><ele>1.8333333333333333</ele><time>2026-04-11T14:55:29Z</time></trkpt><trkpt lat="44.88202018641622" lon="11.792682466473277"><ele>1.6666666666666665</ele><time>2026-04-11T14:55:31Z</time></trkpt><trkpt lat="44.88205549479783" lon="11.792779766905122"><ele>1.5</ele><time>2026-04-11T14:55:33Z</time></trkpt><trkpt lat="44.88208645276362" lon="11.792886009876463"><ele>1.3333333333333333</ele><time>2026-04-11T14:55:35Z</time></trkpt><trkpt lat="44.88210577845465" lon="11.792992519667587"><ele>1.1666666666666665</ele><time>2026-04-11T14:55:37Z</time></trkpt><trkpt lat="44.8821186598307" lon="11.793112285761346"><ele>1.0</ele><time>2026-04-11T14:55:39Z</time></trkpt><trkpt lat="44.88212351760275" lon="11.793232156041059"><ele>0.9999999999999999</ele><time>2026-04-11T14:55:41Z</time></trkpt><trkpt lat="44.88212041712925" lon="11.793350424294346"><ele>1.0</ele><time>2026-04-11T14:55:43Z</time></trkpt><trkpt lat="44.882114755666045" lon="11.793469423776381"><ele>1.0</ele><time>2026-04-11T14:55:45Z</time></trkpt><trkpt lat="44.882111633668565" lon="11.793577561617616"><ele>1.0</ele><time>2026-04-11T14:55:47Z</time></trkpt><trkpt lat="44.8821096018449" lon="11.79368048720291"><ele>0.9999999999999999</ele><time>2026-04-11T14:55:49Z</time></trkpt><trkpt lat="44.88210777671137" lon="11.793772942474641"><ele>1.0</ele><time>2026-04-11T14:55:51Z</time></trkpt><trkpt lat="44.88210656300036" lon="11.793871646202556"><ele>0.9999999999999999</ele><time>2026-04-11T14:55:53Z</time></trkpt><trkpt lat="44.882107298785655" lon="11.793963038436921"><ele>1.0</ele><time>2026-04-11T14:55:55Z</time></trkpt><trkpt lat="44.882108584125795" lon="11.794092058504516"><ele>1.0</ele><time>2026-04-11T14:55:58Z</time></trkpt><trkpt lat="44.882111780067454" lon="11.794189660845158"><ele>1.0</ele><time>2026-04-11T14:56:01Z</time></trkpt><trkpt lat="44.882115057077606" lon="11.79428973909352"><ele>0.9999999999999999</ele><time>2026-04-11T14:56:05Z</time></trkpt><trkpt lat="44.882137474724516" lon="11.79441456222109"><ele>1.0</ele><time>2026-04-11T14:56:09Z</time></trkpt><trkpt lat="44.88212930452059" lon="11.794530081155811"><ele>1.0</ele><time>2026-04-11T14:56:11Z</time></trkpt><trkpt lat="44.882146170839874" lon="11.794659130768094"><ele>0.9999999999999999</ele><time>2026-04-11T14:56:14Z</time></trkpt><trkpt lat="44.88214999841415" lon="11.794758456216359"><ele>1.0</ele><time>2026-04-11T14:56:16Z</time></trkpt><trkpt lat="44.882162328009905" lon="11.794851604594689"><ele>1.0</ele><time>2026-04-11T14:56:18Z</time></trkpt><trkpt lat="44.88217337720673" lon="11.794950230257857"><ele>0.9999999999999999</ele><time>2026-04-11T14:56:20Z</time></trkpt><trkpt lat="44.882188452374145" lon="11.795037246159099"><ele>1.0</ele><time>2026-04-11T14:56:22Z</time></trkpt><trkpt lat="44.882220526460316" lon="11.795127992030649"><ele>1.0</ele><time>2026-04-11T14:56:24Z</time></trkpt><trkpt lat="44.882237113884536" lon="11.795219768496485"><ele>0.9999999999999999</ele><time>2026-04-11T14:56:26Z</time></trkpt><trkpt lat="44.88225967115946" lon="11.79531497639804"><ele>1.0</ele><time>2026-04-11T14:56:28Z</time></trkpt><trkpt lat="44.8822909484703" lon="11.79540404447779"><ele>1.0</ele><time>2026-04-11T14:56:30Z</time></trkpt><trkpt lat="44.882326780619735" lon="11.795495888179486"><ele>1.0</ele><time>2026-04-11T14:56:32Z</time></trkpt><trkpt lat="44.88236511839249" lon="11.795572118004264"><ele>0.9999999999999999</ele><time>2026-04-11T14:56:34Z</time></trkpt><trkpt lat="44.882399015970734" lon="11.795690556994428"><ele>1.0</ele><time>2026-04-11T14:56:37Z</time></trkpt><trkpt lat="44.882440711988075" lon="11.795787204646924"><ele>0.9999999999999999</ele><time>2026-04-11T14:56:40Z</time></trkpt><trkpt lat="44.88248737966776" lon="11.795856894245482"><ele>1.0</ele><time>2026-04-11T14:56:43Z</time></trkpt><trkpt lat="44.88253425656754" lon="11.795976389387388"><ele>1.0</ele><time>2026-04-11T14:56:46Z</time></trkpt><trkpt lat="44.882583592522806" lon="11.796044426864322"><ele>1.0</ele><time>2026-04-11T14:56:48Z</time></trkpt><trkpt lat="44.88261665384358" lon="11.796131716548638"><ele>0.9999999999999999</ele><time>2026-04-11T14:56:50Z</time></trkpt><trkpt lat="44.882663985561315" lon="11.796193016497904"><ele>1.0</ele><time>2026-04-11T14:56:52Z</time></trkpt><trkpt lat="44.88271954530986" lon="11.796281162365789"><ele>1.0</ele><time>2026-04-11T14:56:55Z</time></trkpt><trkpt lat="44.88278092788023" lon="11.79637950258439"><ele>0.9999999999999999</ele><time>2026-04-11T14:56:58Z</time></trkpt><trkpt lat="44.88281703222317" lon="11.796469471324649"><ele>1.0</ele><time>2026-04-11T14:57:00Z</time></trkpt><trkpt lat="44.882875513437604" lon="11.79653082849909"><ele>1.0</ele><time>2026-04-11T14:57:02Z</time></trkpt><trkpt lat="44.88292168824959" lon="11.796606472209575"><ele>0.9999999999999999</ele><time>2026-04-11T14:57:04Z</time></trkpt><trkpt lat="44.88297279811674" lon="11.796674546326429"><ele>1.0</ele><time>2026-04-11T14:57:06Z</time></trkpt><trkpt lat="44.88302383649136" lon="11.796731860276571"><ele>1.0</ele><time>2026-04-11T14:57:08Z</time></trkpt><trkpt lat="44.883084776146994" lon="11.796818470568656"><ele>1.0</ele><time>2026-04-11T14:57:11Z</time></trkpt><trkpt lat="44.88312453381273" lon="11.796888165021365"><ele>0.9999999999999999</ele><time>2026-04-11T14:57:13Z</time></trkpt><trkpt lat="44.88317084866337" lon="11.796951722574846"><ele>1.0</ele><time>2026-04-11T14:57:15Z</time></trkpt><trkpt lat="44.88322613704292" lon="11.797005278762128"><ele>1.0</ele><time>2026-04-11T14:57:17Z</time></trkpt><trkpt lat="44.88326114993363" lon="11.797091753243775"><ele>0.9999999999999999</ele><time>2026-04-11T14:57:19Z</time></trkpt><trkpt lat="44.88329742975487" lon="11.797174437198017"><ele>1.0</ele><time>2026-04-11T14:57:21Z</time></trkpt><trkpt lat="44.883341489175706" lon="11.797254403600048"><ele>1.0</ele><time>2026-04-11T14:57:23Z</time></trkpt><trkpt lat="44.883352544056194" lon="11.7973538752243"><ele>1.0</ele><time>2026-04-11T14:57:25Z</time></trkpt><trkpt lat="44.883373695781955" lon="11.797438206689804"><ele>0.9999999999999999</ele><time>2026-04-11T14:57:27Z</time></trkpt><trkpt lat="44.883392203657536" lon="11.797523961103511"><ele>1.0</ele><time>2026-04-11T14:57:29Z</time></trkpt><trkpt lat="44.883408922923564" lon="11.797612788113714"><ele>1.0</ele><time>2026-04-11T14:57:31Z</time></trkpt><trkpt lat="44.883424952840144" lon="11.797701048712582"><ele>0.9999999999999999</ele><time>2026-04-11T14:57:33Z</time></trkpt><trkpt lat="44.88344492970889" lon="11.797795948441236"><ele>1.0</ele><time>2026-04-11T14:57:35Z</time></trkpt><trkpt lat="44.883460519121435" lon="11.797894404179816"><ele>1.0</ele><time>2026-04-11T14:57:37Z</time></trkpt><trkpt lat="44.88346183110631" lon="11.798013550762425"><ele>1.1666666666666665</ele><time>2026-04-11T14:57:39Z</time></trkpt><trkpt lat="44.883471123086856" lon="11.798128444557403"><ele>1.3333333333333333</ele><time>2026-04-11T14:57:41Z</time></trkpt><trkpt lat="44.88347047134968" lon="11.79825021597959"><ele>1.5</ele><time>2026-04-11T14:57:43Z</time></trkpt><trkpt lat="44.88346296028748" lon="11.798368436205337"><ele>1.6666666666666665</ele><time>2026-04-11T14:57:45Z</time></trkpt><trkpt lat="44.88343281310393" lon="11.798485315632627"><ele>1.8333333333333333</ele><time>2026-04-11T14:57:47Z</time></trkpt><trkpt lat="44.88342554072488" lon="11.79860506032105"><ele>2.0</ele><time>2026-04-11T14:57:49Z</time></trkpt><trkpt lat="44.88340970677079" lon="11.798720379412842"><ele>1.9999999999999998</ele><time>2026-04-11T14:57:51Z</time></trkpt><trkpt lat="44.88340109538666" lon="11.798838432536689"><ele>2.0</ele><time>2026-04-11T14:57:53Z</time></trkpt><trkpt lat="44.88340392492843" lon="11.798955421091847"><ele>2.0</ele><time>2026-04-11T14:57:55Z</time></trkpt><trkpt lat="44.88341533174673" lon="11.7990741063725"><ele>2.0</ele><time>2026-04-11T14:57:57Z</time></trkpt><trkpt lat="44.88342043623998" lon="11.79919444136417"><ele>1.9999999999999998</ele><time>2026-04-11T14:57:59Z</time></trkpt><trkpt lat="44.88345452592228" lon="11.799302847088198"><ele>2.0</ele><time>2026-04-11T14:58:01Z</time></trkpt><trkpt lat="44.88348326508421" lon="11.79941468874938"><ele>1.9999999999999998</ele><time>2026-04-11T14:58:03Z</time></trkpt><trkpt lat="44.883513662335766" lon="11.799524851411752"><ele>2.0</ele><time>2026-04-11T14:58:05Z</time></trkpt><trkpt lat="44.88353762971615" lon="11.799637193459363"><ele>2.0</ele><time>2026-04-11T14:58:07Z</time></trkpt><trkpt lat="44.8835738181679" lon="11.799745625578812"><ele>2.0</ele><time>2026-04-11T14:58:09Z</time></trkpt><trkpt lat="44.88359941432593" lon="11.799845342646472"><ele>1.9999999999999998</ele><time>2026-04-11T14:58:11Z</time></trkpt><trkpt lat="44.88364340271114" lon="11.799945305613956"><ele>2.0</ele><time>2026-04-11T14:58:13Z</time></trkpt><trkpt lat="44.8836878974123" lon="11.800033835593338"><ele>2.0</ele><time>2026-04-11T14:58:15Z</time></trkpt><trkpt lat="44.883730869787165" lon="11.800111041066"><ele>1.9999999999999998</ele><time>2026-04-11T14:58:17Z</time></trkpt><trkpt lat="44.883780665000344" lon="11.800169288249776"><ele>2.0</ele><time>2026-04-11T14:58:19Z</time></trkpt><trkpt lat="44.883840629201885" lon="11.800229064369372"><ele>2.0</ele><time>2026-04-11T14:58:21Z</time></trkpt><trkpt lat="44.88391356809886" lon="11.800285784212049"><ele>1.9999999999999998</ele><time>2026-04-11T14:58:23Z</time></trkpt><trkpt lat="44.88398287921727" lon="11.800335016738622"><ele>2.0</ele><time>2026-04-11T14:58:25Z</time></trkpt><trkpt lat="44.88404512944808" lon="11.800387129996059"><ele>2.0</ele><time>2026-04-11T14:58:27Z</time></trkpt><trkpt lat="44.88410093913005" lon="11.800451737113416"><ele>1.9999999999999998</ele><time>2026-04-11T14:58:29Z</time></trkpt><trkpt lat="44.88416050367909" lon="11.800535255961414"><ele>2.0</ele><time>2026-04-11T14:58:31Z</time></trkpt><trkpt lat="44.8842150595103" lon="11.800616150896252"><ele>2.0</ele><time>2026-04-11T14:58:33Z</time></trkpt><trkpt lat="44.884246917994815" lon="11.800708161985836"><ele>2.0</ele><time>2026-04-11T14:58:35Z</time></trkpt><trkpt lat="44.88430103279891" lon="11.800809940371279"><ele>1.9999999999999998</ele><time>2026-04-11T14:58:38Z</time></trkpt><trkpt lat="44.88434007902918" lon="11.800886718283168"><ele>2.0</ele><time>2026-04-11T14:58:40Z</time></trkpt><trkpt lat="44.88437840756111" lon="11.800962546189027"><ele>1.8333333333333333</ele><time>2026-04-11T14:58:42Z</time></trkpt><trkpt lat="44.88442950185898" lon="11.801027478481998"><ele>1.6666666666666665</ele><time>2026-04-11T14:58:44Z</time></trkpt><trkpt lat="44.884465834535376" lon="11.801106380915108"><ele>1.5</ele><time>2026-04-11T14:58:46Z</time></trkpt><trkpt lat="44.88450923399131" lon="11.801182386091094"><ele>1.3333333333333333</ele><time>2026-04-11T14:58:48Z</time></trkpt><trkpt lat="44.88456308006337" lon="11.801282887441443"><ele>1.1666666666666665</ele><time>2026-04-11T14:58:51Z</time></trkpt><trkpt lat="44.88461030147704" lon="11.80134499653824"><ele>1.0</ele><time>2026-04-11T14:58:53Z</time></trkpt><trkpt lat="44.88467576188818" lon="11.801460292358179"><ele>0.9999999999999999</ele><time>2026-04-11T14:58:56Z</time></trkpt><trkpt lat="44.88471889555314" lon="11.801537284760412"><ele>1.0</ele><time>2026-04-11T14:58:58Z</time></trkpt><trkpt lat="44.884769762572425" lon="11.801610720119616"><ele>1.0</ele><time>2026-04-11T14:59:00Z</time></trkpt><trkpt lat="44.8848046553027" lon="11.801690125973392"><ele>1.0</ele><time>2026-04-11T14:59:02Z</time></trkpt><trkpt lat="44.88485289059774" lon="11.801796587864732"><ele>0.9999999999999999</ele><time>2026-04-11T14:59:05Z</time></trkpt><trkpt lat="44.884891454273024" lon="11.80191988018209"><ele>1.0</ele><time>2026-04-11T14:59:08Z</time></trkpt><trkpt lat="44.88492341307451" lon="11.802030983603117"><ele>1.1428571428571428</ele><time>2026-04-11T14:59:11Z</time></trkpt><trkpt lat="44.884944867894184" lon="11.802114933771948"><ele>1.2857142857142856</ele><time>2026-04-11T14:59:13Z</time></trkpt><trkpt lat="44.884964337891574" lon="11.802206091961141"><ele>1.4285714285714284</ele><time>2026-04-11T14:59:15Z</time></trkpt><trkpt lat="44.88498581298116" lon="11.802294247753787"><ele>1.5714285714285714</ele><time>2026-04-11T14:59:17Z</time></trkpt><trkpt lat="44.8850043365543" lon="11.802391526307547"><ele>1.714285714285714</ele><time>2026-04-11T14:59:19Z</time></trkpt><trkpt lat="44.88502363074538" lon="11.802479533724172"><ele>1.857142857142857</ele><time>2026-04-11T14:59:21Z</time></trkpt><trkpt lat="44.885053962157606" lon="11.802565956811854"><ele>2.0</ele><time>2026-04-11T14:59:23Z</time></trkpt><trkpt lat="44.88508105866205" lon="11.802655204553297"><ele>2.0</ele><time>2026-04-11T14:59:25Z</time></trkpt><trkpt lat="44.885099400858714" lon="11.802747233173834"><ele>1.9999999999999998</ele><time>2026-04-11T14:59:27Z</time></trkpt><trkpt lat="44.88512854235535" lon="11.80285031602372"><ele>2.0</ele><time>2026-04-11T14:59:29Z</time></trkpt><trkpt lat="44.88515438524438" lon="11.80294974667578"><ele>2.0</ele><time>2026-04-11T14:59:31Z</time></trkpt><trkpt lat="44.88519037199288" lon="11.80303395002277"><ele>1.9999999999999998</ele><time>2026-04-11T14:59:33Z</time></trkpt><trkpt lat="44.885219191015445" lon="11.803121555361287"><ele>2.0</ele><time>2026-04-11T14:59:35Z</time></trkpt><trkpt lat="44.88525356381195" lon="11.803206758480513"><ele>2.0</ele><time>2026-04-11T14:59:37Z</time></trkpt><trkpt lat="44.88529054547234" lon="11.803292135140511"><ele>2.0</ele><time>2026-04-11T14:59:39Z</time></trkpt><trkpt lat="44.88532295877624" lon="11.803387622542097"><ele>1.9999999999999998</ele><time>2026-04-11T14:59:41Z</time></trkpt><trkpt lat="44.88536736392827" lon="11.803461617293063"><ele>2.0</ele><time>2026-04-11T14:59:43Z</time></trkpt><trkpt lat="44.88538706474855" lon="11.8035474824435"><ele>2.0</ele><time>2026-04-11T14:59:45Z</time></trkpt><trkpt lat="44.88542331215994" lon="11.803628367880924"><ele>1.9999999999999998</ele><time>2026-04-11T14:59:47Z</time></trkpt><trkpt lat="44.885458767794695" lon="11.803707486761024"><ele>2.0</ele><time>2026-04-11T14:59:49Z</time></trkpt><trkpt lat="44.88549488177157" lon="11.803788074520241"><ele>2.0</ele><time>2026-04-11T14:59:51Z</time></trkpt><trkpt lat="44.88554307093712" lon="11.803865485770482"><ele>2.0</ele><time>2026-04-11T14:59:53Z</time></trkpt><trkpt lat="44.885579232162065" lon="11.80394635721855"><ele>1.9999999999999998</ele><time>2026-04-11T14:59:55Z</time></trkpt><trkpt lat="44.88561843508291" lon="11.804031796034188"><ele>2.0</ele><time>2026-04-11T14:59:57Z</time></trkpt><trkpt lat="44.88565146683899" lon="11.804113729117395"><ele>2.0</ele><time>2026-04-11T14:59:59Z</time></trkpt><trkpt lat="44.88568581287799" lon="11.804198272991439"><ele>1.9999999999999998</ele><time>2026-04-11T15:00:01Z</time></trkpt><trkpt lat="44.885720137273616" lon="11.804276146173825"><ele>2.0</ele><time>2026-04-11T15:00:03Z</time></trkpt><trkpt lat="44.8857538889002" lon="11.804351492336169"><ele>2.0</ele><time>2026-04-11T15:00:05Z</time></trkpt><trkpt lat="44.88578738030707" lon="11.804444354395006"><ele>1.857142857142857</ele><time>2026-04-11T15:00:07Z</time></trkpt><trkpt lat="44.88581164454774" lon="11.804533074365859"><ele>1.714285714285714</ele><time>2026-04-11T15:00:09Z</time></trkpt><trkpt lat="44.88583469227249" lon="11.804623155435056"><ele>1.5714285714285714</ele><time>2026-04-11T15:00:10.999Z</time></trkpt><trkpt lat="44.885856642408655" lon="11.804720017423087"><ele>1.4285714285714284</ele><time>2026-04-11T15:00:12.999Z</time></trkpt><trkpt lat="44.88587367445561" lon="11.804820251895709"><ele>1.2857142857142856</ele><time>2026-04-11T15:00:15Z</time></trkpt><trkpt lat="44.88589557321388" lon="11.804911806324824"><ele>1.1428571428571428</ele><time>2026-04-11T15:00:17Z</time></trkpt><trkpt lat="44.88591438468376" lon="11.805033465008117"><ele>1.0</ele><time>2026-04-11T15:00:20Z</time></trkpt><trkpt lat="44.88591225031172" lon="11.805140400628236"><ele>1.1666666666666665</ele><time>2026-04-11T15:00:22Z</time></trkpt><trkpt lat="44.885927893984416" lon="11.805246878715373"><ele>1.3333333333333333</ele><time>2026-04-11T15:00:24Z</time></trkpt><trkpt lat="44.885932077251" lon="11.805347842595127"><ele>1.5</ele><time>2026-04-11T15:00:26Z</time></trkpt><trkpt lat="44.88592681055706" lon="11.805441965725695"><ele>1.6666666666666665</ele><time>2026-04-11T15:00:28Z</time></trkpt><trkpt lat="44.88593942260351" lon="11.805578583692206"><ele>1.8333333333333333</ele><time>2026-04-11T15:00:31Z</time></trkpt><trkpt lat="44.88593900767983" lon="11.805696182805528"><ele>2.0</ele><time>2026-04-11T15:00:33Z</time></trkpt><trkpt lat="44.88593225997716" lon="11.805802940549015"><ele>2.1666666666666665</ele><time>2026-04-11T15:00:35Z</time></trkpt><trkpt lat="44.88593645129344" lon="11.805897171326157"><ele>2.333333333333333</ele><time>2026-04-11T15:00:37Z</time></trkpt><trkpt lat="44.88594032213567" lon="11.806025284597844"><ele>2.5</ele><time>2026-04-11T15:00:40Z</time></trkpt><trkpt lat="44.885934441556905" lon="11.806141175822212"><ele>2.6666666666666665</ele><time>2026-04-11T15:00:42Z</time></trkpt><trkpt lat="44.88593217648056" lon="11.806242371276227"><ele>2.8333333333333335</ele><time>2026-04-11T15:00:44Z</time></trkpt><trkpt lat="44.8859284345701" lon="11.806336001453554"><ele>3.0</ele><time>2026-04-11T15:00:46Z</time></trkpt><trkpt lat="44.88593386866182" lon="11.806451104600686"><ele>2.8333333333333335</ele><time>2026-04-11T15:00:49Z</time></trkpt><trkpt lat="44.88595177589493" lon="11.806546102846829"><ele>2.6666666666666665</ele><time>2026-04-11T15:00:51Z</time></trkpt><trkpt lat="44.885962637138476" lon="11.806645335463877"><ele>2.5</ele><time>2026-04-11T15:00:53Z</time></trkpt><trkpt lat="44.88599137635033" lon="11.806758401912838"><ele>2.333333333333333</ele><time>2026-04-11T15:00:56Z</time></trkpt><trkpt lat="44.886006550623385" lon="11.8068606376175"><ele>2.1666666666666665</ele><time>2026-04-11T15:00:59Z</time></trkpt><trkpt lat="44.886141430752446" lon="11.806873450633745"><ele>2.0</ele><time>2026-04-11T15:01:02Z</time></trkpt><trkpt lat="44.886207858654295" lon="11.806842834681147"><ele>1.8333333333333333</ele><time>2026-04-11T15:01:04Z</time></trkpt><trkpt lat="44.886301620302724" lon="11.806796862656475"><ele>1.6666666666666665</ele><time>2026-04-11T15:01:07Z</time></trkpt><trkpt lat="44.88637615330321" lon="11.806766547331845"><ele>1.5</ele><time>2026-04-11T15:01:09Z</time></trkpt><trkpt lat="44.886452352354695" lon="11.806732903396727"><ele>1.3333333333333333</ele><time>2026-04-11T15:01:11Z</time></trkpt><trkpt lat="44.88653121196053" lon="11.806698427361841"><ele>1.1666666666666665</ele><time>2026-04-11T15:01:13Z</time></trkpt><trkpt lat="44.886603759421654" lon="11.806666134695128"><ele>1.0</ele><time>2026-04-11T15:01:15Z</time></trkpt><trkpt lat="44.886672770829385" lon="11.806635743800229"><ele>0.9999999999999999</ele><time>2026-04-11T15:01:17Z</time></trkpt><trkpt lat="44.886750174866286" lon="11.806610854570446"><ele>1.0</ele><time>2026-04-11T15:01:19Z</time></trkpt><trkpt lat="44.88682210488908" lon="11.80658397603135"><ele>1.0</ele><time>2026-04-11T15:01:21Z</time></trkpt><trkpt lat="44.88691540801425" lon="11.806551477754915"><ele>1.0</ele><time>2026-04-11T15:01:24Z</time></trkpt><trkpt lat="44.88698695648971" lon="11.80652764348964"><ele>0.9999999999999999</ele><time>2026-04-11T15:01:26Z</time></trkpt><trkpt lat="44.88707350437594" lon="11.806521398663373"><ele>1.0</ele><time>2026-04-11T15:01:28Z</time></trkpt><trkpt lat="44.8871505682027" lon="11.806555924858106"><ele>1.3333333333333333</ele><time>2026-04-11T15:01:30Z</time></trkpt><trkpt lat="44.88722278277964" lon="11.80659787738856"><ele>1.6666666666666665</ele><time>2026-04-11T15:01:32Z</time></trkpt><trkpt lat="44.887290580504796" lon="11.806638479082398"><ele>2.0</ele><time>2026-04-11T15:01:34Z</time></trkpt><trkpt lat="44.887348603636646" lon="11.806680841284292"><ele>2.3333333333333335</ele><time>2026-04-11T15:01:36Z</time></trkpt><trkpt lat="44.88743489639059" lon="11.80670397892144"><ele>2.6666666666666665</ele><time>2026-04-11T15:01:39Z</time></trkpt><trkpt lat="44.8875144461259" lon="11.806696901529033"><ele>3.0</ele><time>2026-04-11T15:01:42Z</time></trkpt><trkpt lat="44.88758272820003" lon="11.806729374719735"><ele>3.0</ele><time>2026-04-11T15:01:45Z</time></trkpt><trkpt lat="44.8876038900123" lon="11.806876673095468"><ele>3.0</ele><time>2026-04-11T15:01:47Z</time></trkpt><trkpt lat="44.88763872135091" lon="11.806987144323852"><ele>3.0</ele><time>2026-04-11T15:01:49Z</time></trkpt><trkpt lat="44.887681557267996" lon="11.80709346651361"><ele>3.0</ele><time>2026-04-11T15:01:51Z</time></trkpt><trkpt lat="44.88772221731434" lon="11.807205695661105"><ele>3.0</ele><time>2026-04-11T15:01:53Z</time></trkpt><trkpt lat="44.88776485262041" lon="11.807317097906111"><ele>3.0</ele><time>2026-04-11T15:01:55Z</time></trkpt><trkpt lat="44.88781292091298" lon="11.807421873640195"><ele>3.0</ele><time>2026-04-11T15:01:57Z</time></trkpt><trkpt lat="44.887853658708195" lon="11.807533256368352"><ele>3.0</ele><time>2026-04-11T15:01:59Z</time></trkpt><trkpt lat="44.887915711556104" lon="11.80762788873765"><ele>3.0</ele><time>2026-04-11T15:02:01Z</time></trkpt><trkpt lat="44.88796141770677" lon="11.807727300113712"><ele>3.0</ele><time>2026-04-11T15:02:03Z</time></trkpt><trkpt lat="44.88801309522464" lon="11.807814784159534"><ele>3.0</ele><time>2026-04-11T15:02:05Z</time></trkpt><trkpt lat="44.88806614120464" lon="11.807912751990663"><ele>3.0</ele><time>2026-04-11T15:02:07Z</time></trkpt><trkpt lat="44.888119241977066" lon="11.808010227382493"><ele>3.0</ele><time>2026-04-11T15:02:09Z</time></trkpt><trkpt lat="44.88817182675066" lon="11.808103709250721"><ele>3.0</ele><time>2026-04-11T15:02:10.999Z</time></trkpt><trkpt lat="44.88822826418745" lon="11.80820077409034"><ele>3.0</ele><time>2026-04-11T15:02:12.999Z</time></trkpt><trkpt lat="44.8882818495022" lon="11.80829596978533"><ele>3.0</ele><time>2026-04-11T15:02:14.999Z</time></trkpt><trkpt lat="44.88833771717397" lon="11.80838208730439"><ele>3.0</ele><time>2026-04-11T15:02:16.999Z</time></trkpt><trkpt lat="44.8883783386362" lon="11.808478240196065"><ele>2.6666666666666665</ele><time>2026-04-11T15:02:18.999Z</time></trkpt><trkpt lat="44.88841961098524" lon="11.808565739963246"><ele>2.3333333333333335</ele><time>2026-04-11T15:02:21Z</time></trkpt><trkpt lat="44.8884640328392" lon="11.80864750382647"><ele>2.0</ele><time>2026-04-11T15:02:23Z</time></trkpt><trkpt lat="44.88851142438413" lon="11.80873524781821"><ele>1.6666666666666665</ele><time>2026-04-11T15:02:25Z</time></trkpt><trkpt lat="44.88856228493584" lon="11.808832119087088"><ele>1.3333333333333333</ele><time>2026-04-11T15:02:27Z</time></trkpt><trkpt lat="44.88861156802842" lon="11.808926534629444"><ele>1.0</ele><time>2026-04-11T15:02:29Z</time></trkpt><trkpt lat="44.888659806344506" lon="11.80902060882268"><ele>0.9999999999999999</ele><time>2026-04-11T15:02:31Z</time></trkpt><trkpt lat="44.88870214480235" lon="11.809110451205443"><ele>1.0</ele><time>2026-04-11T15:02:33Z</time></trkpt><trkpt lat="44.88873478377839" lon="11.809198857123848"><ele>1.0</ele><time>2026-04-11T15:02:35Z</time></trkpt><trkpt lat="44.888773227303744" lon="11.809293415493915"><ele>1.0</ele><time>2026-04-11T15:02:37Z</time></trkpt><trkpt lat="44.8888026307449" lon="11.809384439175108"><ele>0.9999999999999999</ele><time>2026-04-11T15:02:39Z</time></trkpt><trkpt lat="44.888832573081245" lon="11.809469191242473"><ele>1.0</ele><time>2026-04-11T15:02:41Z</time></trkpt><trkpt lat="44.88886428924536" lon="11.80959142700408"><ele>1.1666666666666665</ele><time>2026-04-11T15:02:44Z</time></trkpt><trkpt lat="44.888905482223116" lon="11.809682621990278"><ele>1.3333333333333333</ele><time>2026-04-11T15:02:47Z</time></trkpt><trkpt lat="44.888961914551246" lon="11.80963855979829"><ele>1.5</ele><time>2026-04-11T15:02:50Z</time></trkpt><trkpt lat="44.888954454508614" lon="11.809518427640338"><ele>1.6666666666666665</ele><time>2026-04-11T15:02:52Z</time></trkpt><trkpt lat="44.889013090955345" lon="11.809441387644778"><ele>1.8333333333333333</ele><time>2026-04-11T15:02:55Z</time></trkpt><trkpt lat="44.889063951230646" lon="11.80951681035621"><ele>2.0</ele><time>2026-04-11T15:02:57Z</time></trkpt><trkpt lat="44.889056822682086" lon="11.809617538402655"><ele>1.9999999999999998</ele><time>2026-04-11T15:02:59Z</time></trkpt><trkpt lat="44.88906188444692" lon="11.809736757328777"><ele>2.0</ele><time>2026-04-11T15:03:01Z</time></trkpt><trkpt lat="44.889059290915185" lon="11.80984817810262"><ele>2.0</ele><time>2026-04-11T15:03:03Z</time></trkpt><trkpt lat="44.889062008191935" lon="11.809965180439798"><ele>2.0</ele><time>2026-04-11T15:03:05Z</time></trkpt><trkpt lat="44.889064259415996" lon="11.810083501362678"><ele>1.9999999999999998</ele><time>2026-04-11T15:03:07Z</time></trkpt><trkpt lat="44.88906199680486" lon="11.810206729698818"><ele>2.0</ele><time>2026-04-11T15:03:09Z</time></trkpt><trkpt lat="44.88906758706311" lon="11.810327121934558"><ele>2.1666666666666665</ele><time>2026-04-11T15:03:11Z</time></trkpt><trkpt lat="44.88908331194411" lon="11.810436769263195"><ele>2.333333333333333</ele><time>2026-04-11T15:03:13Z</time></trkpt><trkpt lat="44.88909484436567" lon="11.810561075491082"><ele>2.5</ele><time>2026-04-11T15:03:15Z</time></trkpt><trkpt lat="44.889121609844594" lon="11.810677327435334"><ele>2.6666666666666665</ele><time>2026-04-11T15:03:17Z</time></trkpt><trkpt lat="44.88913887066844" lon="11.810796478309303"><ele>2.8333333333333335</ele><time>2026-04-11T15:03:19Z</time></trkpt><trkpt lat="44.889162737508265" lon="11.810900717594707"><ele>3.0</ele><time>2026-04-11T15:03:21Z</time></trkpt><trkpt lat="44.889202235245456" lon="11.810985221447735"><ele>2.9999999999999996</ele><time>2026-04-11T15:03:23Z</time></trkpt><trkpt lat="44.88926538317209" lon="11.811035281703832"><ele>3.0</ele><time>2026-04-11T15:03:25Z</time></trkpt><trkpt lat="44.889314212447864" lon="11.81110568243025"><ele>3.0</ele><time>2026-04-11T15:03:27Z</time></trkpt><trkpt lat="44.88936452958974" lon="11.811186737943718"><ele>3.0</ele><time>2026-04-11T15:03:29Z</time></trkpt><trkpt lat="44.889436559904894" lon="11.81122900655856"><ele>3.0</ele><time>2026-04-11T15:03:31Z</time></trkpt><trkpt lat="44.88944518512213" lon="11.811340242594213"><ele>2.9999999999999996</ele><time>2026-04-11T15:03:33Z</time></trkpt><trkpt lat="44.88947761038288" lon="11.811426449826127"><ele>3.0</ele><time>2026-04-11T15:03:35Z</time></trkpt><trkpt lat="44.88947497961924" lon="11.81156109735531"><ele>3.0</ele><time>2026-04-11T15:03:38Z</time></trkpt><trkpt lat="44.889468358577425" lon="11.811673881800337"><ele>3.0</ele><time>2026-04-11T15:03:40Z</time></trkpt><trkpt lat="44.889469220162304" lon="11.81179178887417"><ele>3.0</ele><time>2026-04-11T15:03:42Z</time></trkpt><trkpt lat="44.88942048229321" lon="11.811885510543611"><ele>3.0</ele><time>2026-04-11T15:03:44Z</time></trkpt><trkpt lat="44.88936211600636" lon="11.811969210962648"><ele>3.0</ele><time>2026-04-11T15:03:45.999Z</time></trkpt><trkpt lat="44.88930090159042" lon="11.812059963886824"><ele>3.0</ele><time>2026-04-11T15:03:47.999Z</time></trkpt><trkpt lat="44.889284774232685" lon="11.812180586722706"><ele>3.0</ele><time>2026-04-11T15:03:49.999Z</time></trkpt><trkpt lat="44.88931512278501" lon="11.812300766823608"><ele>3.0</ele><time>2026-04-11T15:03:51.999Z</time></trkpt><trkpt lat="44.8893222046972" lon="11.812425204047127"><ele>3.0</ele><time>2026-04-11T15:03:53.999Z</time></trkpt><trkpt lat="44.889311319656684" lon="11.812547411825756"><ele>3.0</ele><time>2026-04-11T15:03:55.999Z</time></trkpt><trkpt lat="44.889329422082845" lon="11.812665619566964"><ele>3.0</ele><time>2026-04-11T15:03:57.999Z</time></trkpt><trkpt lat="44.88936654028547" lon="11.812773578222265"><ele>3.0</ele><time>2026-04-11T15:03:59.999Z</time></trkpt><trkpt lat="44.889384043730864" lon="11.81287840571038"><ele>2.9999999999999996</ele><time>2026-04-11T15:04:01.999Z</time></trkpt><trkpt lat="44.889410976399496" lon="11.812980884569862"><ele>3.0</ele><time>2026-04-11T15:04:03.999Z</time></trkpt><trkpt lat="44.88943415061103" lon="11.813080031773701"><ele>3.0</ele><time>2026-04-11T15:04:05.999Z</time></trkpt><trkpt lat="44.889460650225814" lon="11.813175063662653"><ele>3.0</ele><time>2026-04-11T15:04:07.999Z</time></trkpt><trkpt lat="44.889484831931604" lon="11.813271263786094"><ele>3.0</ele><time>2026-04-11T15:04:09.999Z</time></trkpt><trkpt lat="44.889528303498714" lon="11.813354286749863"><ele>2.9999999999999996</ele><time>2026-04-11T15:04:11.999Z</time></trkpt><trkpt lat="44.889553634059915" lon="11.813453050806975"><ele>3.0</ele><time>2026-04-11T15:04:13.999Z</time></trkpt><trkpt lat="44.889604695997846" lon="11.81352887035603"><ele>2.8333333333333335</ele><time>2026-04-11T15:04:15.999Z</time></trkpt><trkpt lat="44.88964288273197" lon="11.813612975161279"><ele>2.6666666666666665</ele><time>2026-04-11T15:04:17.999Z</time></trkpt><trkpt lat="44.88968929835503" lon="11.813696015952889"><ele>2.5</ele><time>2026-04-11T15:04:19.999Z</time></trkpt><trkpt lat="44.889727565619424" lon="11.813815065474754"><ele>2.333333333333333</ele><time>2026-04-11T15:04:21.999Z</time></trkpt><trkpt lat="44.88977730106449" lon="11.81392048688085"><ele>2.1666666666666665</ele><time>2026-04-11T15:04:23.999Z</time></trkpt><trkpt lat="44.889827929227835" lon="11.814015148896948"><ele>2.0</ele><time>2026-04-11T15:04:26Z</time></trkpt><trkpt lat="44.88986382729871" lon="11.81412051337095"><ele>1.9999999999999998</ele><time>2026-04-11T15:04:28Z</time></trkpt><trkpt lat="44.88991870845727" lon="11.814210936622601"><ele>2.0</ele><time>2026-04-11T15:04:30Z</time></trkpt><trkpt lat="44.88999865485234" lon="11.814269144705653"><ele>2.0</ele><time>2026-04-11T15:04:32Z</time></trkpt><trkpt lat="44.89007167436053" lon="11.814341147212073"><ele>2.0</ele><time>2026-04-11T15:04:34Z</time></trkpt><trkpt lat="44.89015001112739" lon="11.814402060104381"><ele>1.9999999999999998</ele><time>2026-04-11T15:04:36Z</time></trkpt><trkpt lat="44.89022638957388" lon="11.814467751135771"><ele>2.0</ele><time>2026-04-11T15:04:38Z</time></trkpt><trkpt lat="44.890303778128086" lon="11.81452243212724"><ele>2.1666666666666665</ele><time>2026-04-11T15:04:40Z</time></trkpt><trkpt lat="44.89037341977702" lon="11.814580030447091"><ele>2.333333333333333</ele><time>2026-04-11T15:04:42Z</time></trkpt><trkpt lat="44.89043373021131" lon="11.814642391157086"><ele>2.5</ele><time>2026-04-11T15:04:44Z</time></trkpt><trkpt lat="44.89050090625154" lon="11.8146933231855"><ele>2.6666666666666665</ele><time>2026-04-11T15:04:46Z</time></trkpt><trkpt lat="44.89056758372077" lon="11.814747589138735"><ele>2.8333333333333335</ele><time>2026-04-11T15:04:48Z</time></trkpt><trkpt lat="44.89063188588832" lon="11.814809396686762"><ele>3.0</ele><time>2026-04-11T15:04:50Z</time></trkpt><trkpt lat="44.89071239087999" lon="11.814858817010215"><ele>3.0</ele><time>2026-04-11T15:04:53Z</time></trkpt><trkpt lat="44.89077920052875" lon="11.814922203247528"><ele>3.0</ele><time>2026-04-11T15:04:55Z</time></trkpt><trkpt lat="44.89084276197233" lon="11.814976981221434"><ele>3.0</ele><time>2026-04-11T15:04:57Z</time></trkpt><trkpt lat="44.8909126723884" lon="11.815027715385156"><ele>3.0</ele><time>2026-04-11T15:04:59Z</time></trkpt><trkpt lat="44.89098598859947" lon="11.815087042337154"><ele>3.0</ele><time>2026-04-11T15:05:01Z</time></trkpt><trkpt lat="44.89105054776289" lon="11.815145509334616"><ele>3.0</ele><time>2026-04-11T15:05:03Z</time></trkpt><trkpt lat="44.89111924195644" lon="11.815195941069714"><ele>3.0</ele><time>2026-04-11T15:05:05Z</time></trkpt><trkpt lat="44.891188109540785" lon="11.815246370525518"><ele>3.0</ele><time>2026-04-11T15:05:07Z</time></trkpt><trkpt lat="44.891264531516086" lon="11.815307416851885"><ele>3.0</ele><time>2026-04-11T15:05:09Z</time></trkpt><trkpt lat="44.891336476997175" lon="11.815363487385806"><ele>3.0</ele><time>2026-04-11T15:05:11Z</time></trkpt><trkpt lat="44.89141287107484" lon="11.8154192420891"><ele>3.0</ele><time>2026-04-11T15:05:13Z</time></trkpt><trkpt lat="44.89147744397033" lon="11.815467302433715"><ele>3.0</ele><time>2026-04-11T15:05:15Z</time></trkpt><trkpt lat="44.89153870307761" lon="11.815517705544478"><ele>3.0</ele><time>2026-04-11T15:05:17Z</time></trkpt><trkpt lat="44.89160265858646" lon="11.815570131700436"><ele>3.0</ele><time>2026-04-11T15:05:19Z</time></trkpt><trkpt lat="44.891661502045764" lon="11.815614511398488"><ele>3.0</ele><time>2026-04-11T15:05:21Z</time></trkpt><trkpt lat="44.89173510240342" lon="11.815681980854157"><ele>3.0</ele><time>2026-04-11T15:05:24Z</time></trkpt><trkpt lat="44.89180764681166" lon="11.815725471319524"><ele>3.0</ele><time>2026-04-11T15:05:27Z</time></trkpt><trkpt lat="44.89187488802219" lon="11.815771152640187"><ele>3.0</ele><time>2026-04-11T15:05:29Z</time></trkpt><trkpt lat="44.89193772669948" lon="11.81583827615075"><ele>3.1666666666666665</ele><time>2026-04-11T15:05:31Z</time></trkpt><trkpt lat="44.892013260035995" lon="11.815880410672898"><ele>3.333333333333333</ele><time>2026-04-11T15:05:33Z</time></trkpt><trkpt lat="44.892089679462906" lon="11.815943882239353"><ele>3.5</ele><time>2026-04-11T15:05:35Z</time></trkpt><trkpt lat="44.892164536463774" lon="11.816005839382363"><ele>3.6666666666666665</ele><time>2026-04-11T15:05:37Z</time></trkpt><trkpt lat="44.892238717867976" lon="11.816061089620751"><ele>3.833333333333333</ele><time>2026-04-11T15:05:39Z</time></trkpt><trkpt lat="44.89231330009029" lon="11.816125108566286"><ele>4.0</ele><time>2026-04-11T15:05:41Z</time></trkpt><trkpt lat="44.892383155530986" lon="11.816174683805684"><ele>3.9999999999999996</ele><time>2026-04-11T15:05:43Z</time></trkpt><trkpt lat="44.89244000683507" lon="11.816221304829272"><ele>4.0</ele><time>2026-04-11T15:05:45Z</time></trkpt><trkpt lat="44.8925158790755" lon="11.81627619715178"><ele>4.0</ele><time>2026-04-11T15:05:48Z</time></trkpt><trkpt lat="44.89258062142559" lon="11.816339388059212"><ele>4.0</ele><time>2026-04-11T15:05:51Z</time></trkpt><trkpt lat="44.89264441290981" lon="11.816378465785778"><ele>3.9999999999999996</ele><time>2026-04-11T15:05:53Z</time></trkpt><trkpt lat="44.89270041339031" lon="11.81642724581616"><ele>4.0</ele><time>2026-04-11T15:05:55Z</time></trkpt><trkpt lat="44.89277691489227" lon="11.816488793278054"><ele>4.0</ele><time>2026-04-11T15:05:58Z</time></trkpt><trkpt lat="44.89284283572582" lon="11.816552005217577"><ele>3.9999999999999996</ele><time>2026-04-11T15:06:01Z</time></trkpt><trkpt lat="44.89290746277157" lon="11.81658676941637"><ele>4.0</ele><time>2026-04-11T15:06:37Z</time></trkpt><trkpt lat="44.89296415078431" lon="11.81662817411412"><ele>4.0</ele><time>2026-04-11T15:06:41Z</time></trkpt><trkpt lat="44.89290575479615" lon="11.816676778108775"><ele>3.9999999999999996</ele><time>2026-04-11T15:06:46Z</time></trkpt><trkpt lat="44.89285098812671" lon="11.816611779244116"><ele>4.0</ele><time>2026-04-11T15:06:48Z</time></trkpt><trkpt lat="44.89281305930647" lon="11.816518795099796"><ele>4.0</ele><time>2026-04-11T15:06:50Z</time></trkpt><trkpt lat="44.8927640851115" lon="11.816456572596461"><ele>4.0</ele><time>2026-04-11T15:06:52Z</time></trkpt><trkpt lat="44.89269324468197" lon="11.816415767579334"><ele>3.9999999999999996</ele><time>2026-04-11T15:06:54Z</time></trkpt><trkpt lat="44.89263716639639" lon="11.816368317009198"><ele>4.0</ele><time>2026-04-11T15:06:56Z</time></trkpt><trkpt lat="44.89255496631681" lon="11.816298402143316"><ele>4.0</ele><time>2026-04-11T15:06:59Z</time></trkpt><trkpt lat="44.89250050412531" lon="11.816251127547194"><ele>3.9999999999999996</ele><time>2026-04-11T15:07:01Z</time></trkpt><trkpt lat="44.892439868559855" lon="11.816205303819409"><ele>4.0</ele><time>2026-04-11T15:07:03Z</time></trkpt><trkpt lat="44.89237410791695" lon="11.816152767768115"><ele>4.0</ele><time>2026-04-11T15:07:05Z</time></trkpt><trkpt lat="44.892316330255085" lon="11.816117006854954"><ele>3.9999999999999996</ele><time>2026-04-11T15:07:07Z</time></trkpt><trkpt lat="44.8922437180837" lon="11.816059921930393"><ele>4.0</ele><time>2026-04-11T15:07:09Z</time></trkpt><trkpt lat="44.89216682457144" lon="11.81599833283845"><ele>4.0</ele><time>2026-04-11T15:07:11Z</time></trkpt><trkpt lat="44.892093214360614" lon="11.815939439228357"><ele>4.0</ele><time>2026-04-11T15:07:13Z</time></trkpt><trkpt lat="44.892025679426354" lon="11.815876325510875"><ele>3.9999999999999996</ele><time>2026-04-11T15:07:15Z</time></trkpt><trkpt lat="44.89195044870791" lon="11.815834541368192"><ele>4.0</ele><time>2026-04-11T15:07:17Z</time></trkpt><trkpt lat="44.89188703465381" lon="11.815780874745212"><ele>3.9999999999999996</ele><time>2026-04-11T15:07:19Z</time></trkpt><trkpt lat="44.89184777306638" lon="11.815697174213536"><ele>4.0</ele><time>2026-04-11T15:07:21Z</time></trkpt><trkpt lat="44.89182808444676" lon="11.815583510065872"><ele>4.0</ele><time>2026-04-11T15:07:23Z</time></trkpt><trkpt lat="44.891820431671185" lon="11.81545968140977"><ele>4.0</ele><time>2026-04-11T15:07:25Z</time></trkpt><trkpt lat="44.8918098321734" lon="11.815337081453938"><ele>3.9999999999999996</ele><time>2026-04-11T15:07:27Z</time></trkpt><trkpt lat="44.89180555251459" lon="11.81520928933175"><ele>4.0</ele><time>2026-04-11T15:07:29Z</time></trkpt><trkpt lat="44.89179081914726" lon="11.815085595160483"><ele>3.6666666666666665</ele><time>2026-04-11T15:07:31Z</time></trkpt><trkpt lat="44.8917792574671" lon="11.81496127971942"><ele>3.333333333333333</ele><time>2026-04-11T15:07:33Z</time></trkpt><trkpt lat="44.891777404518" lon="11.81484060661177"><ele>3.0</ele><time>2026-04-11T15:07:35Z</time></trkpt><trkpt lat="44.89177035566227" lon="11.814720719565889"><ele>2.6666666666666665</ele><time>2026-04-11T15:07:37Z</time></trkpt><trkpt lat="44.891762734161055" lon="11.814592379681331"><ele>2.333333333333333</ele><time>2026-04-11T15:07:39Z</time></trkpt><trkpt lat="44.89175510814011" lon="11.814466931479423"><ele>2.0</ele><time>2026-04-11T15:07:41Z</time></trkpt><trkpt lat="44.89174750909656" lon="11.814344818716624"><ele>2.1666666666666665</ele><time>2026-04-11T15:07:43Z</time></trkpt><trkpt lat="44.89173619011886" lon="11.814247348815062"><ele>2.333333333333333</ele><time>2026-04-11T15:07:45Z</time></trkpt><trkpt lat="44.89173138723412" lon="11.814129668795655"><ele>2.5</ele><time>2026-04-11T15:07:47Z</time></trkpt><trkpt lat="44.89172482850651" lon="11.81401759435043"><ele>2.6666666666666665</ele><time>2026-04-11T15:07:49Z</time></trkpt><trkpt lat="44.89172058305169" lon="11.813898600173419"><ele>2.8333333333333335</ele><time>2026-04-11T15:07:51Z</time></trkpt><trkpt lat="44.891714525280385" lon="11.813777184601097"><ele>3.0</ele><time>2026-04-11T15:07:53Z</time></trkpt><trkpt lat="44.891708814656745" lon="11.8136714475083"><ele>3.0</ele><time>2026-04-11T15:07:55Z</time></trkpt><trkpt lat="44.89170562399945" lon="11.813558258607667"><ele>3.0</ele><time>2026-04-11T15:07:57Z</time></trkpt><trkpt lat="44.89169131914834" lon="11.813429593108134"><ele>3.0</ele><time>2026-04-11T15:07:59Z</time></trkpt><trkpt lat="44.8916837632962" lon="11.81331338018343"><ele>3.0</ele><time>2026-04-11T15:08:01Z</time></trkpt><trkpt lat="44.89168421461253" lon="11.813197614056634"><ele>3.0</ele><time>2026-04-11T15:08:03Z</time></trkpt><trkpt lat="44.89167897368193" lon="11.813082778822254"><ele>3.0</ele><time>2026-04-11T15:08:04.999Z</time></trkpt><trkpt lat="44.891674179761914" lon="11.812974507221394"><ele>2.8333333333333335</ele><time>2026-04-11T15:08:06.999Z</time></trkpt><trkpt lat="44.891669538883676" lon="11.812864885736992"><ele>2.6666666666666665</ele><time>2026-04-11T15:08:08.999Z</time></trkpt><trkpt lat="44.89167726141687" lon="11.812760043411114"><ele>2.5</ele><time>2026-04-11T15:08:10.999Z</time></trkpt><trkpt lat="44.89174240875034" lon="11.812699282590126"><ele>2.333333333333333</ele><time>2026-04-11T15:08:13.999Z</time></trkpt><trkpt lat="44.891808551056656" lon="11.812670375926913"><ele>2.1666666666666665</ele><time>2026-04-11T15:08:16.999Z</time></trkpt><trkpt lat="44.89185458493858" lon="11.81258656058062"><ele>2.0</ele><time>2026-04-11T15:08:20.999Z</time></trkpt><trkpt lat="44.89192127513181" lon="11.812524004466017"><ele>1.8333333333333333</ele><time>2026-04-11T15:08:23.999Z</time></trkpt><trkpt lat="44.89196661861574" lon="11.812436064349937"><ele>1.6666666666666665</ele><time>2026-04-11T15:08:26.999Z</time></trkpt><trkpt lat="44.892025047391556" lon="11.812376067076844"><ele>1.5</ele><time>2026-04-11T15:08:28.999Z</time></trkpt><trkpt lat="44.89209076748153" lon="11.812310270528355"><ele>1.3333333333333333</ele><time>2026-04-11T15:08:30.999Z</time></trkpt><trkpt lat="44.89215466969705" lon="11.812233165586992"><ele>1.1666666666666665</ele><time>2026-04-11T15:08:32.999Z</time></trkpt><trkpt lat="44.89222223663598" lon="11.81215707501689"><ele>1.0</ele><time>2026-04-11T15:08:34.999Z</time></trkpt><trkpt lat="44.89229427185467" lon="11.812091383735954"><ele>0.9999999999999999</ele><time>2026-04-11T15:08:36.999Z</time></trkpt><trkpt lat="44.8923672088076" lon="11.81203847088884"><ele>1.0</ele><time>2026-04-11T15:08:39Z</time></trkpt><trkpt lat="44.892445920584436" lon="11.811982729610552"><ele>1.0</ele><time>2026-04-11T15:08:41Z</time></trkpt><trkpt lat="44.89252638194033" lon="11.811936178890013"><ele>1.0</ele><time>2026-04-11T15:08:43Z</time></trkpt><trkpt lat="44.89259677622276" lon="11.81188233093533"><ele>0.9999999999999999</ele><time>2026-04-11T15:08:45Z</time></trkpt><trkpt lat="44.89267043266092" lon="11.811831792263071"><ele>1.0</ele><time>2026-04-11T15:08:47Z</time></trkpt><trkpt lat="44.892737323687605" lon="11.811775707175197"><ele>0.8333333333333333</ele><time>2026-04-11T15:08:49Z</time></trkpt><trkpt lat="44.89280190860914" lon="11.811732696433971"><ele>0.6666666666666666</ele><time>2026-04-11T15:08:51Z</time></trkpt><trkpt lat="44.89286447142715" lon="11.811682052464437"><ele>0.5</ele><time>2026-04-11T15:08:53Z</time></trkpt><trkpt lat="44.8929251567918" lon="11.811650161294184"><ele>0.3333333333333333</ele><time>2026-04-11T15:08:55Z</time></trkpt><trkpt lat="44.89300376629789" lon="11.811598984590274"><ele>0.16666666666666666</ele><time>2026-04-11T15:08:57Z</time></trkpt><trkpt lat="44.893075792801405" lon="11.81155692964776"><ele>0.0</ele><time>2026-04-11T15:08:59Z</time></trkpt><trkpt lat="44.89314948120025" lon="11.811512859745779"><ele>0.0</ele><time>2026-04-11T15:09:01Z</time></trkpt><trkpt lat="44.893232494082106" lon="11.811491911544444"><ele>0.0</ele><time>2026-04-11T15:09:03Z</time></trkpt><trkpt lat="44.893313130613215" lon="11.811479422799163"><ele>0.0</ele><time>2026-04-11T15:09:05Z</time></trkpt><trkpt lat="44.893386472985135" lon="11.811462713606359"><ele>0.0</ele><time>2026-04-11T15:09:08Z</time></trkpt><trkpt lat="44.89346033958539" lon="11.811390620607918"><ele>0.0</ele><time>2026-04-11T15:09:31Z</time></trkpt><trkpt lat="44.89354008697836" lon="11.811408357235656"><ele>0.0</ele><time>2026-04-11T15:09:44Z</time></trkpt><trkpt lat="44.89360459855041" lon="11.811375302730355"><ele>0.14285714285714285</ele><time>2026-04-11T15:09:46Z</time></trkpt><trkpt lat="44.89365702305835" lon="11.811320904340004"><ele>0.2857142857142857</ele><time>2026-04-11T15:09:48Z</time></trkpt><trkpt lat="44.8937154813463" lon="11.811276223908777"><ele>0.42857142857142855</ele><time>2026-04-11T15:09:50Z</time></trkpt><trkpt lat="44.89377097472947" lon="11.811220256929113"><ele>0.5714285714285714</ele><time>2026-04-11T15:09:52Z</time></trkpt><trkpt lat="44.8938137797908" lon="11.811135309561907"><ele>0.7142857142857142</ele><time>2026-04-11T15:09:54Z</time></trkpt><trkpt lat="44.89377818205813" lon="11.811024893369524"><ele>0.8571428571428571</ele><time>2026-04-11T15:09:57Z</time></trkpt><trkpt lat="44.89374400141576" lon="11.810919037417756"><ele>1.0</ele><time>2026-04-11T15:10:00Z</time></trkpt><trkpt lat="44.89369775773982" lon="11.810804157995822"><ele>0.9999999999999999</ele><time>2026-04-11T15:10:03Z</time></trkpt><trkpt lat="44.89364896124601" lon="11.810726679596987"><ele>1.0</ele><time>2026-04-11T15:10:05Z</time></trkpt><trkpt lat="44.89359502160546" lon="11.8106373860101"><ele>1.0</ele><time>2026-04-11T15:10:07Z</time></trkpt><trkpt lat="44.89353767252102" lon="11.810553752680088"><ele>1.0</ele><time>2026-04-11T15:10:09Z</time></trkpt><trkpt lat="44.89349568731253" lon="11.810458924410552"><ele>0.9999999999999999</ele><time>2026-04-11T15:10:11Z</time></trkpt><trkpt lat="44.89344708400028" lon="11.810357284196963"><ele>1.0</ele><time>2026-04-11T15:10:13Z</time></trkpt><trkpt lat="44.89340156976219" lon="11.810253872046628"><ele>0.8333333333333333</ele><time>2026-04-11T15:10:15Z</time></trkpt><trkpt lat="44.893362560764984" lon="11.81014137888938"><ele>0.6666666666666666</ele><time>2026-04-11T15:10:17Z</time></trkpt><trkpt lat="44.89331726788575" lon="11.810050737875361"><ele>0.5</ele><time>2026-04-11T15:10:19Z</time></trkpt><trkpt lat="44.893284472005526" lon="11.809964095040943"><ele>0.3333333333333333</ele><time>2026-04-11T15:10:21Z</time></trkpt><trkpt lat="44.89326086081167" lon="11.809861326225882"><ele>0.16666666666666666</ele><time>2026-04-11T15:10:23Z</time></trkpt><trkpt lat="44.893234479040096" lon="11.809770286484191"><ele>0.0</ele><time>2026-04-11T15:10:25Z</time></trkpt><trkpt lat="44.89321952920651" lon="11.809676837205972"><ele>0.0</ele><time>2026-04-11T15:10:27Z</time></trkpt><trkpt lat="44.893203646284555" lon="11.809538183658093"><ele>0.0</ele><time>2026-04-11T15:10:30Z</time></trkpt><trkpt lat="44.89319914302041" lon="11.809445182194022"><ele>0.0</ele><time>2026-04-11T15:10:32Z</time></trkpt><trkpt lat="44.89318193919801" lon="11.809335665812503"><ele>0.0</ele><time>2026-04-11T15:10:35Z</time></trkpt><trkpt lat="44.893167963783384" lon="11.80924505939208"><ele>0.0</ele><time>2026-04-11T15:10:36.999Z</time></trkpt><trkpt lat="44.893141970573424" lon="11.809149700646566"><ele>0.0</ele><time>2026-04-11T15:10:39.999Z</time></trkpt><trkpt lat="44.893116636660665" lon="11.809054573625119"><ele>0.0</ele><time>2026-04-11T15:10:42.999Z</time></trkpt><trkpt lat="44.89308471557374" lon="11.808956007298404"><ele>0.0</ele><time>2026-04-11T15:10:45Z</time></trkpt><trkpt lat="44.89304641971103" lon="11.808853132134795"><ele>0.0</ele><time>2026-04-11T15:10:47Z</time></trkpt><trkpt lat="44.893014573502484" lon="11.808750973575899"><ele>0.0</ele><time>2026-04-11T15:10:49Z</time></trkpt><trkpt lat="44.89297117221304" lon="11.80863829668224"><ele>0.0</ele><time>2026-04-11T15:10:51Z</time></trkpt><trkpt lat="44.89293241657956" lon="11.808524055759005"><ele>0.0</ele><time>2026-04-11T15:10:53Z</time></trkpt><trkpt lat="44.892895826299494" lon="11.808413995628554"><ele>0.0</ele><time>2026-04-11T15:10:55Z</time></trkpt><trkpt lat="44.89285471572452" lon="11.808310161715488"><ele>0.0</ele><time>2026-04-11T15:10:57Z</time></trkpt><trkpt lat="44.892825433104925" lon="11.808204618310892"><ele>0.0</ele><time>2026-04-11T15:10:59Z</time></trkpt><trkpt lat="44.89279214778259" lon="11.808088273733997"><ele>0.0</ele><time>2026-04-11T15:11:01Z</time></trkpt><trkpt lat="44.892758385151176" lon="11.807972136496678"><ele>0.0</ele><time>2026-04-11T15:11:03Z</time></trkpt><trkpt lat="44.892726421845346" lon="11.807855824575615"><ele>0.0</ele><time>2026-04-11T15:11:05Z</time></trkpt><trkpt lat="44.892698668621996" lon="11.807732705132521"><ele>0.0</ele><time>2026-04-11T15:11:07Z</time></trkpt><trkpt lat="44.89267080995097" lon="11.807615441515676"><ele>0.0</ele><time>2026-04-11T15:11:09Z</time></trkpt><trkpt lat="44.89264127659507" lon="11.807497391729184"><ele>0.0</ele><time>2026-04-11T15:11:11Z</time></trkpt><trkpt lat="44.89261988205946" lon="11.807376521602096"><ele>0.0</ele><time>2026-04-11T15:11:13Z</time></trkpt><trkpt lat="44.89259588033082" lon="11.807258678545793"><ele>0.0</ele><time>2026-04-11T15:11:15Z</time></trkpt><trkpt lat="44.89258539549665" lon="11.807131517366942"><ele>0.0</ele><time>2026-04-11T15:11:17Z</time></trkpt><trkpt lat="44.892581513746734" lon="11.807009328227663"><ele>0.0</ele><time>2026-04-11T15:11:19Z</time></trkpt><trkpt lat="44.892586858453214" lon="11.80689282151312"><ele>0.0</ele><time>2026-04-11T15:11:21Z</time></trkpt><trkpt lat="44.892591646811226" lon="11.806764218195063"><ele>0.0</ele><time>2026-04-11T15:11:23Z</time></trkpt><trkpt lat="44.8925961754306" lon="11.80664587364263"><ele>0.0</ele><time>2026-04-11T15:11:25Z</time></trkpt><trkpt lat="44.892594204450354" lon="11.806531571161138"><ele>0.0</ele><time>2026-04-11T15:11:27Z</time></trkpt><trkpt lat="44.89259822599024" lon="11.8064255370183"><ele>0.0</ele><time>2026-04-11T15:11:29Z</time></trkpt><trkpt lat="44.89260674026578" lon="11.806318781623414"><ele>0.16666666666666666</ele><time>2026-04-11T15:11:31Z</time></trkpt><trkpt lat="44.8925992676758" lon="11.806218094065276"><ele>0.3333333333333333</ele><time>2026-04-11T15:11:33Z</time></trkpt><trkpt lat="44.89261238077403" lon="11.806124928254624"><ele>0.5</ele><time>2026-04-11T15:11:35Z</time></trkpt><trkpt lat="44.89262136075038" lon="11.806020916971137"><ele>0.6666666666666666</ele><time>2026-04-11T15:11:37Z</time></trkpt><trkpt lat="44.89262927987846" lon="11.805901114203705"><ele>0.8333333333333333</ele><time>2026-04-11T15:11:39Z</time></trkpt><trkpt lat="44.89262765098075" lon="11.8057791934583"><ele>1.0</ele><time>2026-04-11T15:11:41Z</time></trkpt><trkpt lat="44.892630551562604" lon="11.805676250363382"><ele>1.1666666666666665</ele><time>2026-04-11T15:11:43Z</time></trkpt><trkpt lat="44.89264328207307" lon="11.805550068032176"><ele>1.3333333333333333</ele><time>2026-04-11T15:11:45Z</time></trkpt><trkpt lat="44.892655226652444" lon="11.805425587118064"><ele>1.5</ele><time>2026-04-11T15:11:47Z</time></trkpt><trkpt lat="44.89266778104313" lon="11.805310307820095"><ele>1.6666666666666665</ele><time>2026-04-11T15:11:49Z</time></trkpt><trkpt lat="44.892679186674115" lon="11.805183702588575"><ele>1.8333333333333333</ele><time>2026-04-11T15:11:51Z</time></trkpt><trkpt lat="44.892684368935626" lon="11.805067421901544"><ele>2.0</ele><time>2026-04-11T15:11:53Z</time></trkpt><trkpt lat="44.89268600465119" lon="11.804954353456637"><ele>1.9999999999999998</ele><time>2026-04-11T15:11:55Z</time></trkpt><trkpt lat="44.892694931389336" lon="11.80485562372352"><ele>2.0</ele><time>2026-04-11T15:11:57Z</time></trkpt><trkpt lat="44.89271276291728" lon="11.804757607760028"><ele>2.0</ele><time>2026-04-11T15:11:59Z</time></trkpt><trkpt lat="44.89272388327564" lon="11.804657608317374"><ele>2.0</ele><time>2026-04-11T15:12:01Z</time></trkpt><trkpt lat="44.892727650032654" lon="11.804533756793578"><ele>1.9999999999999998</ele><time>2026-04-11T15:12:03Z</time></trkpt><trkpt lat="44.892737634431114" lon="11.804420043720992"><ele>2.0</ele><time>2026-04-11T15:12:05Z</time></trkpt><trkpt lat="44.89274862688757" lon="11.804310460813433"><ele>2.1666666666666665</ele><time>2026-04-11T15:12:07Z</time></trkpt><trkpt lat="44.89276328881473" lon="11.804208985960095"><ele>2.333333333333333</ele><time>2026-04-11T15:12:09Z</time></trkpt><trkpt lat="44.892775520008314" lon="11.804104731304149"><ele>2.5</ele><time>2026-04-11T15:12:11Z</time></trkpt><trkpt lat="44.89278578719213" lon="11.803994854383077"><ele>2.6666666666666665</ele><time>2026-04-11T15:12:13Z</time></trkpt><trkpt lat="44.892813805862076" lon="11.803893165807878"><ele>2.8333333333333335</ele><time>2026-04-11T15:12:15Z</time></trkpt><trkpt lat="44.89282301762664" lon="11.80377791597519"><ele>3.0</ele><time>2026-04-11T15:12:17Z</time></trkpt><trkpt lat="44.89284184660593" lon="11.803675532102087"><ele>3.0</ele><time>2026-04-11T15:12:19Z</time></trkpt><trkpt lat="44.89285251488937" lon="11.803572127061118"><ele>3.0</ele><time>2026-04-11T15:12:21Z</time></trkpt><trkpt lat="44.892865859722" lon="11.803446910511688"><ele>3.0</ele><time>2026-04-11T15:12:23Z</time></trkpt><trkpt lat="44.89288458407358" lon="11.803327253206291"><ele>3.0</ele><time>2026-04-11T15:12:25Z</time></trkpt><trkpt lat="44.892902957632714" lon="11.803217054738392"><ele>3.0</ele><time>2026-04-11T15:12:27Z</time></trkpt><trkpt lat="44.89291369434908" lon="11.803108350530675"><ele>3.0</ele><time>2026-04-11T15:12:29Z</time></trkpt><trkpt lat="44.89292481931221" lon="11.803006748200245"><ele>2.8333333333333335</ele><time>2026-04-11T15:12:31Z</time></trkpt><trkpt lat="44.89293536535514" lon="11.802891952624496"><ele>2.6666666666666665</ele><time>2026-04-11T15:12:33Z</time></trkpt><trkpt lat="44.89293728005202" lon="11.802761494924288"><ele>2.5</ele><time>2026-04-11T15:12:35Z</time></trkpt><trkpt lat="44.892941230287896" lon="11.802651018758716"><ele>2.333333333333333</ele><time>2026-04-11T15:12:37Z</time></trkpt><trkpt lat="44.892938957986054" lon="11.802540653397088"><ele>2.1666666666666665</ele><time>2026-04-11T15:12:39Z</time></trkpt><trkpt lat="44.892929115653544" lon="11.802415649419396"><ele>2.0</ele><time>2026-04-11T15:12:41Z</time></trkpt><trkpt lat="44.8929088392092" lon="11.802287898423039"><ele>1.9999999999999998</ele><time>2026-04-11T15:12:43Z</time></trkpt><trkpt lat="44.892894666714824" lon="11.802164648144496"><ele>2.0</ele><time>2026-04-11T15:12:45Z</time></trkpt><trkpt lat="44.89287929584976" lon="11.802054558586942"><ele>2.0</ele><time>2026-04-11T15:12:47Z</time></trkpt><trkpt lat="44.89286948845507" lon="11.801940611236638"><ele>2.0</ele><time>2026-04-11T15:12:49Z</time></trkpt><trkpt lat="44.89287263615738" lon="11.801817102105591"><ele>1.9999999999999998</ele><time>2026-04-11T15:12:51Z</time></trkpt><trkpt lat="44.89288385384311" lon="11.80170753789385"><ele>2.0</ele><time>2026-04-11T15:12:53Z</time></trkpt><trkpt lat="44.89290360785956" lon="11.8016010844838"><ele>2.0</ele><time>2026-04-11T15:12:55Z</time></trkpt><trkpt lat="44.89293950052803" lon="11.801501932200733"><ele>1.9999999999999998</ele><time>2026-04-11T15:12:57Z</time></trkpt><trkpt lat="44.89296666991115" lon="11.80141062930352"><ele>2.0</ele><time>2026-04-11T15:12:59Z</time></trkpt><trkpt lat="44.8930210128501" lon="11.801345724628781"><ele>2.0</ele><time>2026-04-11T15:13:01Z</time></trkpt><trkpt lat="44.89306047022957" lon="11.801272682396998"><ele>1.9999999999999998</ele><time>2026-04-11T15:13:03Z</time></trkpt><trkpt lat="44.8931182045007" lon="11.80119087133322"><ele>2.0</ele><time>2026-04-11T15:13:05Z</time></trkpt><trkpt lat="44.893161852568056" lon="11.801104392558502"><ele>2.0</ele><time>2026-04-11T15:13:07Z</time></trkpt><trkpt lat="44.893171712675056" lon="11.801000694237567"><ele>2.0</ele><time>2026-04-11T15:13:09Z</time></trkpt><trkpt lat="44.89317493757181" lon="11.800899921735803"><ele>1.9999999999999998</ele><time>2026-04-11T15:13:11Z</time></trkpt><trkpt lat="44.89316460427557" lon="11.8007783052115"><ele>2.0</ele><time>2026-04-11T15:13:14Z</time></trkpt><trkpt lat="44.89310129211073" lon="11.800767416470576"><ele>2.0</ele><time>2026-04-11T15:13:16Z</time></trkpt><trkpt lat="44.89301609332113" lon="11.800760733842239"><ele>1.9999999999999998</ele><time>2026-04-11T15:13:19Z</time></trkpt><trkpt lat="44.89295923228862" lon="11.800692390429514"><ele>2.0</ele><time>2026-04-11T15:13:22Z</time></trkpt><trkpt lat="44.89291680400092" lon="11.80076399173631"><ele>2.0</ele><time>2026-04-11T16:13:36Z</time></trkpt><trkpt lat="44.89283396741337" lon="11.80078092609024"><ele>2.0</ele><time>2026-04-11T16:13:38Z</time></trkpt><trkpt lat="44.89277265493676" lon="11.800806158470925"><ele>1.9999999999999998</ele><time>2026-04-11T16:13:40Z</time></trkpt><trkpt lat="44.89271119711921" lon="11.800850427996034"><ele>2.0</ele><time>2026-04-11T16:13:42Z</time></trkpt><trkpt lat="44.892638749266844" lon="11.800870799109386"><ele>2.0</ele><time>2026-04-11T16:13:44Z</time></trkpt><trkpt lat="44.89258033893764" lon="11.800924055323787"><ele>1.9999999999999998</ele><time>2026-04-11T16:13:46Z</time></trkpt><trkpt lat="44.89250261707504" lon="11.800965026054639"><ele>2.0</ele><time>2026-04-11T16:13:49Z</time></trkpt><trkpt lat="44.892437243122195" lon="11.801025178023794"><ele>2.0</ele><time>2026-04-11T16:13:52Z</time></trkpt><trkpt lat="44.89236761161084" lon="11.801059155822273"><ele>1.6666666666666665</ele><time>2026-04-11T16:13:54Z</time></trkpt><trkpt lat="44.89228100011612" lon="11.801078999708446"><ele>1.3333333333333333</ele><time>2026-04-11T16:13:56Z</time></trkpt><trkpt lat="44.89219385532138" lon="11.801096305235967"><ele>1.0</ele><time>2026-04-11T16:13:58Z</time></trkpt><trkpt lat="44.8921008854371" lon="11.801109182488362"><ele>0.6666666666666666</ele><time>2026-04-11T16:14:00Z</time></trkpt><trkpt lat="44.89201228686978" lon="11.801124701426124"><ele>0.3333333333333333</ele><time>2026-04-11T16:14:02Z</time></trkpt><trkpt lat="44.89192991959306" lon="11.80112928979676"><ele>0.0</ele><time>2026-04-11T16:14:04Z</time></trkpt><trkpt lat="44.891851659132755" lon="11.801131982342447"><ele>0.0</ele><time>2026-04-11T16:14:06Z</time></trkpt><trkpt lat="44.89177999499405" lon="11.801135128523615"><ele>0.0</ele><time>2026-04-11T16:14:08Z</time></trkpt><trkpt lat="44.89170076545275" lon="11.801142826941343"><ele>0.0</ele><time>2026-04-11T16:14:10Z</time></trkpt><trkpt lat="44.89161935347627" lon="11.80113123999685"><ele>0.0</ele><time>2026-04-11T16:14:12Z</time></trkpt><trkpt lat="44.891549505396995" lon="11.801109115700223"><ele>0.0</ele><time>2026-04-11T16:14:14Z</time></trkpt><trkpt lat="44.89147378040847" lon="11.801124944088139"><ele>0.0</ele><time>2026-04-11T16:14:16Z</time></trkpt><trkpt lat="44.891396168353914" lon="11.80112588296286"><ele>0.4</ele><time>2026-04-11T16:14:18Z</time></trkpt><trkpt lat="44.891323744345456" lon="11.80115117114861"><ele>0.8</ele><time>2026-04-11T16:14:20Z</time></trkpt><trkpt lat="44.89123926034958" lon="11.801301808263409"><ele>1.2000000000000002</ele><time>2026-04-11T16:14:23Z</time></trkpt><trkpt lat="44.8911797923454" lon="11.801398528631266"><ele>1.6</ele><time>2026-04-11T16:14:25Z</time></trkpt><trkpt lat="44.89116989287907" lon="11.801513967160691"><ele>2.0</ele><time>2026-04-11T16:14:27Z</time></trkpt><trkpt lat="44.89116191859949" lon="11.801621211496267"><ele>1.9999999999999998</ele><time>2026-04-11T16:14:29Z</time></trkpt><trkpt lat="44.89116662294141" lon="11.801723490958622"><ele>2.0</ele><time>2026-04-11T16:14:31Z</time></trkpt><trkpt lat="44.891178189626665" lon="11.801842609082524"><ele>2.0</ele><time>2026-04-11T16:14:33Z</time></trkpt><trkpt lat="44.89118708038989" lon="11.80196602826963"><ele>2.0</ele><time>2026-04-11T16:14:35Z</time></trkpt><trkpt lat="44.891198996387025" lon="11.802089008508574"><ele>1.9999999999999998</ele><time>2026-04-11T16:14:37Z</time></trkpt><trkpt lat="44.89120285489799" lon="11.80221401806845"><ele>2.0</ele><time>2026-04-11T16:14:39Z</time></trkpt><trkpt lat="44.891211882893856" lon="11.802335741631296"><ele>1.9999999999999998</ele><time>2026-04-11T16:14:41Z</time></trkpt><trkpt lat="44.89121191889718" lon="11.802459856717931"><ele>2.0</ele><time>2026-04-11T16:14:43Z</time></trkpt><trkpt lat="44.89120687479415" lon="11.802578217192153"><ele>2.0</ele><time>2026-04-11T16:14:45Z</time></trkpt><trkpt lat="44.89119515267538" lon="11.802688810556027"><ele>2.0</ele><time>2026-04-11T16:14:47Z</time></trkpt><trkpt lat="44.891180049003864" lon="11.802791389058186"><ele>1.9999999999999998</ele><time>2026-04-11T16:14:49Z</time></trkpt><trkpt lat="44.89117545760882" lon="11.802896688678992"><ele>2.0</ele><time>2026-04-11T16:14:51Z</time></trkpt><trkpt lat="44.891183351464164" lon="11.802996329333805"><ele>1.8333333333333333</ele><time>2026-04-11T16:14:53Z</time></trkpt><trkpt lat="44.891194317245684" lon="11.803097298164593"><ele>1.6666666666666665</ele><time>2026-04-11T16:14:55Z</time></trkpt><trkpt lat="44.891198657119936" lon="11.803196197508766"><ele>1.5</ele><time>2026-04-11T16:14:57Z</time></trkpt><trkpt lat="44.89119984694666" lon="11.803293659057351"><ele>1.3333333333333333</ele><time>2026-04-11T16:14:59Z</time></trkpt><trkpt lat="44.89120483362566" lon="11.803391948760597"><ele>1.1666666666666665</ele><time>2026-04-11T16:15:01Z</time></trkpt><trkpt lat="44.891207868761036" lon="11.80351279852708"><ele>1.0</ele><time>2026-04-11T16:15:03Z</time></trkpt><trkpt lat="44.89121901623093" lon="11.80363956344765"><ele>0.9999999999999999</ele><time>2026-04-11T16:15:05Z</time></trkpt><trkpt lat="44.89123665947614" lon="11.803760356468619"><ele>1.0</ele><time>2026-04-11T16:15:07Z</time></trkpt><trkpt lat="44.89124632020165" lon="11.80389259561912"><ele>1.0</ele><time>2026-04-11T16:15:09Z</time></trkpt><trkpt lat="44.89123966654805" lon="11.80401524314607"><ele>1.0</ele><time>2026-04-11T16:15:11Z</time></trkpt><trkpt lat="44.89124278873529" lon="11.804122068112989"><ele>0.9999999999999999</ele><time>2026-04-11T16:15:13Z</time></trkpt><trkpt lat="44.89124737679085" lon="11.804230351924076"><ele>1.0</ele><time>2026-04-11T16:15:15Z</time></trkpt><trkpt lat="44.89124698069852" lon="11.804341193006051"><ele>0.8333333333333333</ele><time>2026-04-11T16:15:17Z</time></trkpt><trkpt lat="44.891255956953074" lon="11.804463159743435"><ele>0.6666666666666666</ele><time>2026-04-11T16:15:19Z</time></trkpt><trkpt lat="44.89125877978897" lon="11.804589349513275"><ele>0.5</ele><time>2026-04-11T16:15:21Z</time></trkpt><trkpt lat="44.89126833222731" lon="11.804715698590869"><ele>0.3333333333333333</ele><time>2026-04-11T16:15:23Z</time></trkpt><trkpt lat="44.891274369908054" lon="11.804834972628765"><ele>0.16666666666666666</ele><time>2026-04-11T16:15:25Z</time></trkpt><trkpt lat="44.89127206230932" lon="11.804950797287134"><ele>0.0</ele><time>2026-04-11T16:15:27Z</time></trkpt><trkpt lat="44.891281582116214" lon="11.80506551995444"><ele>0.0</ele><time>2026-04-11T16:15:29Z</time></trkpt><trkpt lat="44.891294276229985" lon="11.805188035044784"><ele>0.0</ele><time>2026-04-11T16:15:31Z</time></trkpt><trkpt lat="44.89129968779785" lon="11.805306077207598"><ele>0.0</ele><time>2026-04-11T16:15:33Z</time></trkpt><trkpt lat="44.89129839238285" lon="11.8054227397678"><ele>0.0</ele><time>2026-04-11T16:15:35Z</time></trkpt><trkpt lat="44.891304968712404" lon="11.805529785634759"><ele>0.0</ele><time>2026-04-11T16:15:37Z</time></trkpt><trkpt lat="44.89131627259482" lon="11.805630659975108"><ele>0.0</ele><time>2026-04-11T16:15:39Z</time></trkpt><trkpt lat="44.89131797634377" lon="11.805724025825802"><ele>0.0</ele><time>2026-04-11T16:15:41Z</time></trkpt><trkpt lat="44.89132647219053" lon="11.805833430747372"><ele>0.0</ele><time>2026-04-11T16:15:43Z</time></trkpt><trkpt lat="44.89132932995608" lon="11.80595457860037"><ele>0.0</ele><time>2026-04-11T16:15:45Z</time></trkpt><trkpt lat="44.891324115143725" lon="11.806055622166426"><ele>0.0</ele><time>2026-04-11T16:15:47Z</time></trkpt><trkpt lat="44.89131807544019" lon="11.806165880612404"><ele>0.0</ele><time>2026-04-11T16:15:49.001Z</time></trkpt><trkpt lat="44.89132001396009" lon="11.806283816476835"><ele>0.0</ele><time>2026-04-11T16:15:51.001Z</time></trkpt><trkpt lat="44.89133621902853" lon="11.806393510288887"><ele>0.0</ele><time>2026-04-11T16:15:53.001Z</time></trkpt><trkpt lat="44.891347290965484" lon="11.8064953029059"><ele>0.0</ele><time>2026-04-11T16:15:55.001Z</time></trkpt><trkpt lat="44.89133093202029" lon="11.806597953186076"><ele>0.0</ele><time>2026-04-11T16:15:57.001Z</time></trkpt><trkpt lat="44.89125725075608" lon="11.806663155848478"><ele>0.0</ele><time>2026-04-11T16:15:59.001Z</time></trkpt><trkpt lat="44.89116539984308" lon="11.806668785697735"><ele>0.0</ele><time>2026-04-11T16:16:01Z</time></trkpt><trkpt lat="44.89107982811238" lon="11.80667274969547"><ele>0.0</ele><time>2026-04-11T16:16:03Z</time></trkpt><trkpt lat="44.89099855907135" lon="11.806666697675643"><ele>0.0</ele><time>2026-04-11T16:16:05Z</time></trkpt><trkpt lat="44.890918182906624" lon="11.806676730698591"><ele>0.0</ele><time>2026-04-11T16:16:07Z</time></trkpt><trkpt lat="44.89084326113911" lon="11.806688398779901"><ele>0.0</ele><time>2026-04-11T16:16:09Z</time></trkpt><trkpt lat="44.890770951431904" lon="11.806688324328102"><ele>0.0</ele><time>2026-04-11T16:16:11Z</time></trkpt><trkpt lat="44.8907006368464" lon="11.80670571346585"><ele>0.0</ele><time>2026-04-11T16:16:13Z</time></trkpt><trkpt lat="44.890618622895" lon="11.806705780742258"><ele>0.0</ele><time>2026-04-11T16:16:15Z</time></trkpt><trkpt lat="44.89052874512356" lon="11.806705494320964"><ele>0.0</ele><time>2026-04-11T16:16:17Z</time></trkpt><trkpt lat="44.89043945599631" lon="11.806716119876118"><ele>0.0</ele><time>2026-04-11T16:16:19Z</time></trkpt><trkpt lat="44.89035193107107" lon="11.80672370958543"><ele>0.0</ele><time>2026-04-11T16:16:21Z</time></trkpt><trkpt lat="44.890268860954855" lon="11.806733454423902"><ele>0.0</ele><time>2026-04-11T16:16:23Z</time></trkpt><trkpt lat="44.89018993702429" lon="11.806738480311774"><ele>0.0</ele><time>2026-04-11T16:16:25Z</time></trkpt><trkpt lat="44.89010848708394" lon="11.806740802421052"><ele>0.0</ele><time>2026-04-11T16:16:27Z</time></trkpt><trkpt lat="44.89002308315514" lon="11.806754327695172"><ele>0.16666666666666666</ele><time>2026-04-11T16:16:29Z</time></trkpt><trkpt lat="44.8899418175855" lon="11.80676385004087"><ele>0.3333333333333333</ele><time>2026-04-11T16:16:31Z</time></trkpt><trkpt lat="44.88986710039249" lon="11.806773923047393"><ele>0.5</ele><time>2026-04-11T16:16:33Z</time></trkpt><trkpt lat="44.88979431243897" lon="11.806770821889515"><ele>0.6666666666666666</ele><time>2026-04-11T16:16:35Z</time></trkpt><trkpt lat="44.889716471042995" lon="11.806780197892863"><ele>0.8333333333333333</ele><time>2026-04-11T16:16:37Z</time></trkpt><trkpt lat="44.889630919393824" lon="11.806788395071628"><ele>1.0</ele><time>2026-04-11T16:16:39Z</time></trkpt><trkpt lat="44.88955485316696" lon="11.806819312696602"><ele>1.0</ele><time>2026-04-11T16:16:41Z</time></trkpt><trkpt lat="44.88949164925095" lon="11.806877431152804"><ele>0.9999999999999999</ele><time>2026-04-11T16:16:43Z</time></trkpt><trkpt lat="44.88944322722478" lon="11.806955983200819"><ele>1.0</ele><time>2026-04-11T16:16:45Z</time></trkpt><trkpt lat="44.889409819808414" lon="11.807043194712149"><ele>1.0</ele><time>2026-04-11T16:16:47Z</time></trkpt><trkpt lat="44.88938667975499" lon="11.80713708448646"><ele>0.9999999999999999</ele><time>2026-04-11T16:16:49Z</time></trkpt><trkpt lat="44.88937827685545" lon="11.80723509108806"><ele>1.0</ele><time>2026-04-11T16:16:51Z</time></trkpt><trkpt lat="44.88937612583451" lon="11.807336453647869"><ele>1.0</ele><time>2026-04-11T16:16:53Z</time></trkpt><trkpt lat="44.88935978205605" lon="11.807430446637944"><ele>1.0</ele><time>2026-04-11T16:16:55Z</time></trkpt><trkpt lat="44.88934344904592" lon="11.807526948194562"><ele>0.9999999999999999</ele><time>2026-04-11T16:16:57Z</time></trkpt><trkpt lat="44.88932637754537" lon="11.807635807316569"><ele>1.0</ele><time>2026-04-11T16:16:59Z</time></trkpt><trkpt lat="44.88931679091086" lon="11.807735063792272"><ele>1.0</ele><time>2026-04-11T16:17:01Z</time></trkpt><trkpt lat="44.889306227400155" lon="11.807832723985749"><ele>0.9999999999999999</ele><time>2026-04-11T16:17:03Z</time></trkpt><trkpt lat="44.88930752339149" lon="11.807922118286937"><ele>1.0</ele><time>2026-04-11T16:17:05Z</time></trkpt><trkpt lat="44.88930364308291" lon="11.808016278130088"><ele>1.0</ele><time>2026-04-11T16:17:07Z</time></trkpt><trkpt lat="44.88930505055689" lon="11.808114813879316"><ele>0.9999999999999999</ele><time>2026-04-11T16:17:09Z</time></trkpt><trkpt lat="44.88930602603318" lon="11.808215263546137"><ele>1.0</ele><time>2026-04-11T16:17:11Z</time></trkpt><trkpt lat="44.88931113235853" lon="11.808312756035312"><ele>1.0</ele><time>2026-04-11T16:17:13Z</time></trkpt><trkpt lat="44.88930420744191" lon="11.808408613503017"><ele>1.0</ele><time>2026-04-11T16:17:15Z</time></trkpt><trkpt lat="44.88930032005521" lon="11.808513273309059"><ele>0.9999999999999999</ele><time>2026-04-11T16:17:17Z</time></trkpt><trkpt lat="44.88931326479713" lon="11.808631690144473"><ele>1.0</ele><time>2026-04-11T16:17:19Z</time></trkpt><trkpt lat="44.88931729287779" lon="11.808753175057355"><ele>1.1666666666666665</ele><time>2026-04-11T16:17:21Z</time></trkpt><trkpt lat="44.88932816067373" lon="11.808874632874522"><ele>1.3333333333333333</ele><time>2026-04-11T16:17:23Z</time></trkpt><trkpt lat="44.88932681698199" lon="11.80898696412148"><ele>1.5</ele><time>2026-04-11T16:17:25Z</time></trkpt><trkpt lat="44.88933582108057" lon="11.80909221058669"><ele>1.6666666666666665</ele><time>2026-04-11T16:17:27Z</time></trkpt><trkpt lat="44.889339206317345" lon="11.80919406326439"><ele>1.8333333333333333</ele><time>2026-04-11T16:17:29Z</time></trkpt><trkpt lat="44.88932400905042" lon="11.809296106084888"><ele>2.0</ele><time>2026-04-11T16:17:31Z</time></trkpt><trkpt lat="44.889315320302096" lon="11.809411507669205"><ele>2.333333333333333</ele><time>2026-04-11T16:17:33Z</time></trkpt><trkpt lat="44.889317372073535" lon="11.809533262216966"><ele>2.6666666666666665</ele><time>2026-04-11T16:17:35Z</time></trkpt><trkpt lat="44.88932442418343" lon="11.809650754079504"><ele>3.0</ele><time>2026-04-11T16:17:37Z</time></trkpt><trkpt lat="44.88932369286079" lon="11.809758351252302"><ele>3.333333333333333</ele><time>2026-04-11T16:17:39Z</time></trkpt><trkpt lat="44.88932588841152" lon="11.80986127104403"><ele>3.6666666666666665</ele><time>2026-04-11T16:17:41Z</time></trkpt><trkpt lat="44.889336928641896" lon="11.809964054783263"><ele>4.0</ele><time>2026-04-11T16:17:43Z</time></trkpt><trkpt lat="44.88935376548644" lon="11.810060618702048"><ele>3.9999999999999996</ele><time>2026-04-11T16:17:45Z</time></trkpt><trkpt lat="44.889367415324095" lon="11.810155554983877"><ele>4.0</ele><time>2026-04-11T16:17:47Z</time></trkpt><trkpt lat="44.889382857025225" lon="11.810266580481487"><ele>4.0</ele><time>2026-04-11T16:17:49Z</time></trkpt><trkpt lat="44.88939158288759" lon="11.810372797051121"><ele>4.0</ele><time>2026-04-11T16:17:51Z</time></trkpt><trkpt lat="44.88939149698472" lon="11.810468499831984"><ele>3.9999999999999996</ele><time>2026-04-11T16:17:53Z</time></trkpt><trkpt lat="44.88939390964989" lon="11.810576173808295"><ele>4.0</ele><time>2026-04-11T16:17:55.001Z</time></trkpt><trkpt lat="44.889398789482385" lon="11.810695568140009"><ele>4.0</ele><time>2026-04-11T16:17:57.001Z</time></trkpt><trkpt lat="44.889397178876145" lon="11.81080501170131"><ele>3.9999999999999996</ele><time>2026-04-11T16:17:59.001Z</time></trkpt><trkpt lat="44.88938909690761" lon="11.81091086401772"><ele>4.0</ele><time>2026-04-11T16:18:01.001Z</time></trkpt><trkpt lat="44.88936391162415" lon="11.811000599845254"><ele>4.0</ele><time>2026-04-11T16:18:03.001Z</time></trkpt><trkpt lat="44.88931827974917" lon="11.8110630716882"><ele>3.9999999999999996</ele><time>2026-04-11T16:18:05.001Z</time></trkpt><trkpt lat="44.88925390333276" lon="11.811126123894141"><ele>4.0</ele><time>2026-04-11T16:18:08.001Z</time></trkpt><trkpt lat="44.88917576743948" lon="11.811116707808015"><ele>4.0</ele><time>2026-04-11T16:18:12.001Z</time></trkpt><trkpt lat="44.88908400763167" lon="11.811143235111398"><ele>3.4999999999999996</ele><time>2026-04-11T16:18:15.001Z</time></trkpt><trkpt lat="44.889019251532744" lon="11.811179860060749"><ele>3.0</ele><time>2026-04-11T16:18:17.001Z</time></trkpt><trkpt lat="44.888951653689624" lon="11.81124113304897"><ele>2.5</ele><time>2026-04-11T16:18:19Z</time></trkpt><trkpt lat="44.88890356465648" lon="11.811345092554012"><ele>2.0</ele><time>2026-04-11T16:18:21Z</time></trkpt><trkpt lat="44.888857188270464" lon="11.811444323642569"><ele>1.5</ele><time>2026-04-11T16:18:23Z</time></trkpt><trkpt lat="44.88884290813625" lon="11.811556275012295"><ele>1.0</ele><time>2026-04-11T16:18:25Z</time></trkpt><trkpt lat="44.88885543525887" lon="11.811657926431598"><ele>0.9999999999999999</ele><time>2026-04-11T16:18:27Z</time></trkpt><trkpt lat="44.888893094200526" lon="11.811756462812337"><ele>1.0</ele><time>2026-04-11T16:18:29Z</time></trkpt><trkpt lat="44.888946073670944" lon="11.811859331441292"><ele>1.0</ele><time>2026-04-11T16:18:31Z</time></trkpt><trkpt lat="44.889008567340596" lon="11.811946136010269"><ele>1.0</ele><time>2026-04-11T16:18:33Z</time></trkpt><trkpt lat="44.88906231097599" lon="11.812033453079689"><ele>0.9999999999999999</ele><time>2026-04-11T16:18:35Z</time></trkpt><trkpt lat="44.88907935769959" lon="11.812145680965838"><ele>1.0</ele><time>2026-04-11T16:18:37Z</time></trkpt><trkpt lat="44.88909697957967" lon="11.812253849189114"><ele>1.1428571428571428</ele><time>2026-04-11T16:18:39Z</time></trkpt><trkpt lat="44.8891241435639" lon="11.812360945406837"><ele>1.2857142857142856</ele><time>2026-04-11T16:18:41Z</time></trkpt><trkpt lat="44.88915499594233" lon="11.812462997390925"><ele>1.4285714285714284</ele><time>2026-04-11T16:18:43Z</time></trkpt><trkpt lat="44.88917848741496" lon="11.81256209442659"><ele>1.5714285714285714</ele><time>2026-04-11T16:18:45Z</time></trkpt><trkpt lat="44.88919937586392" lon="11.812658719556817"><ele>1.714285714285714</ele><time>2026-04-11T16:18:47Z</time></trkpt><trkpt lat="44.889224311566004" lon="11.812751445956328"><ele>1.857142857142857</ele><time>2026-04-11T16:18:49Z</time></trkpt><trkpt lat="44.8892594286995" lon="11.81283426639657"><ele>2.0</ele><time>2026-04-11T16:18:51Z</time></trkpt><trkpt lat="44.889282527075096" lon="11.812929978634713"><ele>2.0</ele><time>2026-04-11T16:18:53Z</time></trkpt><trkpt lat="44.88930388298339" lon="11.813025458715614"><ele>1.9999999999999998</ele><time>2026-04-11T16:18:55Z</time></trkpt><trkpt lat="44.88933286746051" lon="11.813115544659924"><ele>2.0</ele><time>2026-04-11T16:18:57Z</time></trkpt><trkpt lat="44.88935932744736" lon="11.813209130373533"><ele>2.0</ele><time>2026-04-11T16:18:59Z</time></trkpt><trkpt lat="44.88938411945752" lon="11.81331759623066"><ele>1.9999999999999998</ele><time>2026-04-11T16:19:01Z</time></trkpt><trkpt lat="44.889422100347396" lon="11.813409544298715"><ele>2.0</ele><time>2026-04-11T16:19:03Z</time></trkpt><trkpt lat="44.889455595285" lon="11.813495561058486"><ele>2.0</ele><time>2026-04-11T16:19:05Z</time></trkpt><trkpt lat="44.88949064516078" lon="11.813592062325178"><ele>1.9999999999999998</ele><time>2026-04-11T16:19:07Z</time></trkpt><trkpt lat="44.88953432613291" lon="11.81369744382045"><ele>2.0</ele><time>2026-04-11T16:19:09Z</time></trkpt><trkpt lat="44.889574061579616" lon="11.813802260427007"><ele>2.0</ele><time>2026-04-11T16:19:11Z</time></trkpt><trkpt lat="44.889611210534405" lon="11.81390122883731"><ele>2.0</ele><time>2026-04-11T16:19:13Z</time></trkpt><trkpt lat="44.88963599744264" lon="11.813995979041774"><ele>1.9999999999999998</ele><time>2026-04-11T16:19:15Z</time></trkpt><trkpt lat="44.889674375727836" lon="11.81407552615839"><ele>2.0</ele><time>2026-04-11T16:19:17Z</time></trkpt><trkpt lat="44.889725203390135" lon="11.814163663820395"><ele>2.0</ele><time>2026-04-11T16:19:19Z</time></trkpt><trkpt lat="44.88979053677803" lon="11.814250861246423"><ele>2.0</ele><time>2026-04-11T16:19:21Z</time></trkpt><trkpt lat="44.88985487890225" lon="11.814337800758627"><ele>2.0</ele><time>2026-04-11T16:19:23Z</time></trkpt><trkpt lat="44.88993316457796" lon="11.814411601993044"><ele>2.0</ele><time>2026-04-11T16:19:25Z</time></trkpt><trkpt lat="44.89001428974417" lon="11.814471673548969"><ele>2.0</ele><time>2026-04-11T16:19:27Z</time></trkpt><trkpt lat="44.890090722773955" lon="11.814539389675947"><ele>2.1666666666666665</ele><time>2026-04-11T16:19:29Z</time></trkpt><trkpt lat="44.89016608365688" lon="11.814601082747044"><ele>2.333333333333333</ele><time>2026-04-11T16:19:31Z</time></trkpt><trkpt lat="44.890243708910894" lon="11.814656573584928"><ele>2.5</ele><time>2026-04-11T16:19:33Z</time></trkpt><trkpt lat="44.89031666940688" lon="11.81471637165092"><ele>2.6666666666666665</ele><time>2026-04-11T16:19:35Z</time></trkpt><trkpt lat="44.89039137014463" lon="11.81477843128419"><ele>2.8333333333333335</ele><time>2026-04-11T16:19:37Z</time></trkpt><trkpt lat="44.890467217396456" lon="11.814839807886193"><ele>3.0</ele><time>2026-04-11T16:19:39Z</time></trkpt><trkpt lat="44.89054295070224" lon="11.81490050856553"><ele>3.0</ele><time>2026-04-11T16:19:41Z</time></trkpt><trkpt lat="44.89061848218424" lon="11.814960057771644"><ele>3.0</ele><time>2026-04-11T16:19:43Z</time></trkpt><trkpt lat="44.89069757822246" lon="11.81501359881732"><ele>3.0</ele><time>2026-04-11T16:19:45Z</time></trkpt><trkpt lat="44.890775309688216" lon="11.815081277055228"><ele>3.0</ele><time>2026-04-11T16:19:47Z</time></trkpt><trkpt lat="44.89085138904971" lon="11.815138224377717"><ele>3.0</ele><time>2026-04-11T16:19:49Z</time></trkpt><trkpt lat="44.89092883297712" lon="11.815203482215889"><ele>3.0</ele><time>2026-04-11T16:19:51Z</time></trkpt><trkpt lat="44.891006205621025" lon="11.81526115312092"><ele>3.0</ele><time>2026-04-11T16:19:53Z</time></trkpt><trkpt lat="44.89108159890244" lon="11.81531495388334"><ele>3.0</ele><time>2026-04-11T16:19:55Z</time></trkpt><trkpt lat="44.891152707466354" lon="11.81538239827031"><ele>3.0</ele><time>2026-04-11T16:19:57Z</time></trkpt><trkpt lat="44.8912354912599" lon="11.815443540862859"><ele>3.0</ele><time>2026-04-11T16:19:59Z</time></trkpt><trkpt lat="44.89131603598154" lon="11.815505220656688"><ele>3.0</ele><time>2026-04-11T16:20:01.001Z</time></trkpt><trkpt lat="44.891390582076475" lon="11.815570709162316"><ele>3.0</ele><time>2026-04-11T16:20:03.001Z</time></trkpt><trkpt lat="44.89146061132743" lon="11.815630187475726"><ele>3.0</ele><time>2026-04-11T16:20:05.001Z</time></trkpt><trkpt lat="44.89152991824839" lon="11.815682523703199"><ele>3.0</ele><time>2026-04-11T16:20:07.001Z</time></trkpt><trkpt lat="44.89159018127354" lon="11.815733621497897"><ele>3.0</ele><time>2026-04-11T16:20:09.001Z</time></trkpt><trkpt lat="44.89166430414983" lon="11.815799994786124"><ele>3.0</ele><time>2026-04-11T16:20:12.001Z</time></trkpt><trkpt lat="44.89175020958222" lon="11.815867939555503"><ele>3.0</ele><time>2026-04-11T16:20:15.001Z</time></trkpt><trkpt lat="44.891822207628735" lon="11.815926961239432"><ele>3.0</ele><time>2026-04-11T16:20:17.001Z</time></trkpt><trkpt lat="44.891905796438174" lon="11.815982091998858"><ele>3.3333333333333335</ele><time>2026-04-11T16:20:19.001Z</time></trkpt><trkpt lat="44.891970848918454" lon="11.816050558510181"><ele>3.666666666666667</ele><time>2026-04-11T16:20:21Z</time></trkpt><trkpt lat="44.89204585864612" lon="11.816112644283665"><ele>4.0</ele><time>2026-04-11T16:20:23Z</time></trkpt><trkpt lat="44.892120676486265" lon="11.81616550454646"><ele>4.333333333333334</ele><time>2026-04-11T16:20:25Z</time></trkpt><trkpt lat="44.89218130081184" lon="11.816222457506882"><ele>4.666666666666667</ele><time>2026-04-11T16:20:27Z</time></trkpt><trkpt lat="44.89224572550513" lon="11.816278955408203"><ele>5.0</ele><time>2026-04-11T16:20:29Z</time></trkpt><trkpt lat="44.89230001521493" lon="11.816338363616914"><ele>5.0</ele><time>2026-04-11T16:20:31Z</time></trkpt><trkpt lat="44.89238401870221" lon="11.81642101638074"><ele>5.0</ele><time>2026-04-11T16:20:34Z</time></trkpt><trkpt lat="44.89243999366624" lon="11.816467387104037"><ele>5.0</ele><time>2026-04-11T16:20:36Z</time></trkpt><trkpt lat="44.892498667011445" lon="11.81652600257183"><ele>5.0</ele><time>2026-04-11T16:20:38Z</time></trkpt><trkpt lat="44.892566992109025" lon="11.816577411581317"><ele>5.0</ele><time>2026-04-11T16:20:40Z</time></trkpt><trkpt lat="44.89263032426273" lon="11.816628825947715"><ele>5.0</ele><time>2026-04-11T16:20:42Z</time></trkpt><trkpt lat="44.89268927728007" lon="11.816673553501868"><ele>4.857142857142857</ele><time>2026-04-11T16:20:44Z</time></trkpt><trkpt lat="44.89275591431047" lon="11.816716451367284"><ele>4.714285714285714</ele><time>2026-04-11T16:20:46Z</time></trkpt><trkpt lat="44.89282136796658" lon="11.816770084286446"><ele>4.571428571428571</ele><time>2026-04-11T16:20:48Z</time></trkpt><trkpt lat="44.89288182284942" lon="11.816817510424876"><ele>4.428571428571429</ele><time>2026-04-11T16:20:50Z</time></trkpt><trkpt lat="44.89294637778466" lon="11.81686957802312"><ele>4.285714285714286</ele><time>2026-04-11T16:20:52Z</time></trkpt><trkpt lat="44.893004454299756" lon="11.816921464681556"><ele>4.142857142857142</ele><time>2026-04-11T16:20:54Z</time></trkpt><trkpt lat="44.893057746000466" lon="11.81697883347982"><ele>4.0</ele><time>2026-04-11T16:20:56Z</time></trkpt><trkpt lat="44.89311503188398" lon="11.817040450097208"><ele>3.9999999999999996</ele><time>2026-04-11T16:20:58Z</time></trkpt><trkpt lat="44.89319013902863" lon="11.817079040188316"><ele>4.0</ele><time>2026-04-11T16:21:00Z</time></trkpt><trkpt lat="44.89326484100216" lon="11.817113860962865"><ele>4.0</ele><time>2026-04-11T16:21:02Z</time></trkpt><trkpt lat="44.8933421585859" lon="11.817150467506753"><ele>4.0</ele><time>2026-04-11T16:21:04Z</time></trkpt><trkpt lat="44.89342403079267" lon="11.81716393590787"><ele>3.9999999999999996</ele><time>2026-04-11T16:21:06Z</time></trkpt><trkpt lat="44.89348473541975" lon="11.817210078652673"><ele>4.0</ele><time>2026-04-11T16:21:08Z</time></trkpt><trkpt lat="44.893547057761516" lon="11.817273822561253"><ele>3.9999999999999996</ele><time>2026-04-11T16:21:10Z</time></trkpt><trkpt lat="44.89362530156372" lon="11.817332089023996"><ele>4.0</ele><time>2026-04-11T16:21:12Z</time></trkpt><trkpt lat="44.89370572308542" lon="11.81738898829751"><ele>4.0</ele><time>2026-04-11T16:21:14Z</time></trkpt><trkpt lat="44.893783711586785" lon="11.817454219511925"><ele>4.0</ele><time>2026-04-11T16:21:16Z</time></trkpt><trkpt lat="44.89385880272" lon="11.817515994057914"><ele>3.9999999999999996</ele><time>2026-04-11T16:21:18Z</time></trkpt><trkpt lat="44.893933200507924" lon="11.817582667855032"><ele>4.0</ele><time>2026-04-11T16:21:20Z</time></trkpt><trkpt lat="44.89401786552753" lon="11.817645420084904"><ele>4.0</ele><time>2026-04-11T16:21:22Z</time></trkpt><trkpt lat="44.89409851359887" lon="11.817717178879555"><ele>4.0</ele><time>2026-04-11T16:21:24Z</time></trkpt><trkpt lat="44.89417994611864" lon="11.817771565419179"><ele>4.0</ele><time>2026-04-11T16:21:26Z</time></trkpt><trkpt lat="44.894264354319496" lon="11.817843660434804"><ele>4.0</ele><time>2026-04-11T16:21:28Z</time></trkpt><trkpt lat="44.8943469073154" lon="11.817896661327453"><ele>4.0</ele><time>2026-04-11T16:21:30Z</time></trkpt><trkpt lat="44.894426900679605" lon="11.817962605411767"><ele>3.6</ele><time>2026-04-11T16:21:32Z</time></trkpt><trkpt lat="44.894505078763245" lon="11.818033200043898"><ele>3.2</ele><time>2026-04-11T16:21:34Z</time></trkpt><trkpt lat="44.89458846620551" lon="11.81809817277222"><ele>2.8000000000000003</ele><time>2026-04-11T16:21:36Z</time></trkpt><trkpt lat="44.89467038950049" lon="11.81815347951039"><ele>2.4000000000000004</ele><time>2026-04-11T16:21:38Z</time></trkpt><trkpt lat="44.894750672258354" lon="11.818228505423084"><ele>2.0</ele><time>2026-04-11T16:21:40Z</time></trkpt><trkpt lat="44.89483085706528" lon="11.818298300100311"><ele>1.9999999999999998</ele><time>2026-04-11T16:21:42Z</time></trkpt><trkpt lat="44.894905823706" lon="11.818375656945404"><ele>2.0</ele><time>2026-04-11T16:21:44Z</time></trkpt><trkpt lat="44.89496800531981" lon="11.818460980788123"><ele>2.0</ele><time>2026-04-11T16:21:46Z</time></trkpt><trkpt lat="44.89502440419476" lon="11.818548757497535"><ele>2.0</ele><time>2026-04-11T16:21:48Z</time></trkpt><trkpt lat="44.895078138421646" lon="11.818639250670534"><ele>1.9999999999999998</ele><time>2026-04-11T16:21:50Z</time></trkpt><trkpt lat="44.89511608761582" lon="11.818730712744012"><ele>2.0</ele><time>2026-04-11T16:21:52Z</time></trkpt><trkpt lat="44.8951534264138" lon="11.818820261620534"><ele>2.0</ele><time>2026-04-11T16:21:54Z</time></trkpt><trkpt lat="44.895185602747766" lon="11.818908340897016"><ele>1.9999999999999998</ele><time>2026-04-11T16:21:56Z</time></trkpt><trkpt lat="44.895214254471625" lon="11.818996355973905"><ele>2.0</ele><time>2026-04-11T16:21:58Z</time></trkpt><trkpt lat="44.89523707495315" lon="11.819096209232924"><ele>2.0</ele><time>2026-04-11T16:22:00Z</time></trkpt><trkpt lat="44.89526087025734" lon="11.819187051597158"><ele>1.9999999999999998</ele><time>2026-04-11T16:22:02Z</time></trkpt><trkpt lat="44.89528980228357" lon="11.819295134373471"><ele>2.0</ele><time>2026-04-11T16:22:04Z</time></trkpt><trkpt lat="44.89530094868676" lon="11.819413409496494"><ele>2.0</ele><time>2026-04-11T16:22:06Z</time></trkpt><trkpt lat="44.895316557201006" lon="11.81951863472128"><ele>1.8333333333333333</ele><time>2026-04-11T16:22:08.001Z</time></trkpt><trkpt lat="44.895339249698004" lon="11.819636500264798"><ele>1.6666666666666665</ele><time>2026-04-11T16:22:10.001Z</time></trkpt><trkpt lat="44.89535944088904" lon="11.81975653269856"><ele>1.5</ele><time>2026-04-11T16:22:12.001Z</time></trkpt><trkpt lat="44.89538330898876" lon="11.819870607377705"><ele>1.3333333333333333</ele><time>2026-04-11T16:22:14.001Z</time></trkpt><trkpt lat="44.89540130925408" lon="11.8199844786057"><ele>1.1666666666666665</ele><time>2026-04-11T16:22:16.001Z</time></trkpt><trkpt lat="44.89541036742812" lon="11.820091455619442"><ele>1.0</ele><time>2026-04-11T16:22:18.001Z</time></trkpt><trkpt lat="44.895429639509835" lon="11.820199464992847"><ele>1.3333333333333333</ele><time>2026-04-11T16:22:20.001Z</time></trkpt><trkpt lat="44.8954485453764" lon="11.820320169571565"><ele>1.6666666666666665</ele><time>2026-04-11T16:22:22Z</time></trkpt><trkpt lat="44.89546960177639" lon="11.820438574925825"><ele>2.0</ele><time>2026-04-11T16:22:24Z</time></trkpt><trkpt lat="44.89548727252945" lon="11.820548596514527"><ele>2.3333333333333335</ele><time>2026-04-11T16:22:26Z</time></trkpt><trkpt lat="44.89550660236992" lon="11.82066023006922"><ele>2.6666666666666665</ele><time>2026-04-11T16:22:28Z</time></trkpt><trkpt lat="44.89551983471001" lon="11.820773752918125"><ele>3.0</ele><time>2026-04-11T16:22:30Z</time></trkpt><trkpt lat="44.895539219584194" lon="11.820895635748682"><ele>3.0</ele><time>2026-04-11T16:22:32Z</time></trkpt><trkpt lat="44.89556318522861" lon="11.82101860950059"><ele>3.0</ele><time>2026-04-11T16:22:34Z</time></trkpt><trkpt lat="44.89558002018812" lon="11.821131310740972"><ele>3.0</ele><time>2026-04-11T16:22:36Z</time></trkpt><trkpt lat="44.895597681532365" lon="11.821236971689759"><ele>3.0</ele><time>2026-04-11T16:22:38Z</time></trkpt><trkpt lat="44.89561566564745" lon="11.821353777522772"><ele>3.0</ele><time>2026-04-11T16:22:40Z</time></trkpt><trkpt lat="44.895638950455734" lon="11.821470281640044"><ele>3.0</ele><time>2026-04-11T16:22:42Z</time></trkpt><trkpt lat="44.89565635812234" lon="11.82157461281969"><ele>2.9999999999999996</ele><time>2026-04-11T16:22:44Z</time></trkpt><trkpt lat="44.89567255456105" lon="11.821677476042872"><ele>3.0</ele><time>2026-04-11T16:22:46Z</time></trkpt><trkpt lat="44.89568852417869" lon="11.821775240108957"><ele>3.0</ele><time>2026-04-11T16:22:48Z</time></trkpt><trkpt lat="44.895700491513324" lon="11.821872278161926"><ele>3.0</ele><time>2026-04-11T16:22:50Z</time></trkpt><trkpt lat="44.895715649589484" lon="11.821968361402273"><ele>3.0</ele><time>2026-04-11T16:22:52Z</time></trkpt><trkpt lat="44.89572800717261" lon="11.822065393297528"><ele>2.9999999999999996</ele><time>2026-04-11T16:22:54Z</time></trkpt><trkpt lat="44.89574842382276" lon="11.822168831253498"><ele>3.0</ele><time>2026-04-11T16:22:56Z</time></trkpt><trkpt lat="44.89576018203621" lon="11.822271019122203"><ele>2.8571428571428568</ele><time>2026-04-11T16:22:58Z</time></trkpt><trkpt lat="44.895771998427335" lon="11.82236665878908"><ele>2.7142857142857144</ele><time>2026-04-11T16:23:00Z</time></trkpt><trkpt lat="44.89579159654731" lon="11.822458293592806"><ele>2.571428571428571</ele><time>2026-04-11T16:23:02Z</time></trkpt><trkpt lat="44.895791469440844" lon="11.822589099508267"><ele>2.4285714285714284</ele><time>2026-04-11T16:23:05Z</time></trkpt><trkpt lat="44.8957446625726" lon="11.822657516102135"><ele>2.2857142857142856</ele><time>2026-04-11T16:23:07Z</time></trkpt><trkpt lat="44.89574157787301" lon="11.822747073506681"><ele>2.142857142857143</ele><time>2026-04-11T16:23:10Z</time></trkpt><trkpt lat="44.89580738607636" lon="11.822778971337396"><ele>2.0</ele><time>2026-04-11T16:23:12Z</time></trkpt><trkpt lat="44.89582830815758" lon="11.822902462082327"><ele>2.333333333333333</ele><time>2026-04-11T16:23:14Z</time></trkpt><trkpt lat="44.89584804480871" lon="11.823022472272537"><ele>2.6666666666666665</ele><time>2026-04-11T16:23:16Z</time></trkpt><trkpt lat="44.89587106527995" lon="11.823139689191239"><ele>3.0</ele><time>2026-04-11T16:23:18Z</time></trkpt><trkpt lat="44.89589091350197" lon="11.823261473958057"><ele>3.333333333333333</ele><time>2026-04-11T16:23:20Z</time></trkpt><trkpt lat="44.89591685983117" lon="11.82338244870743"><ele>3.6666666666666665</ele><time>2026-04-11T16:23:22Z</time></trkpt><trkpt lat="44.89593103888454" lon="11.823509194678909"><ele>4.0</ele><time>2026-04-11T16:23:24Z</time></trkpt><trkpt lat="44.895952260917" lon="11.823634250608148"><ele>4.166666666666666</ele><time>2026-04-11T16:23:26Z</time></trkpt><trkpt lat="44.89597261387392" lon="11.823757442382412"><ele>4.333333333333333</ele><time>2026-04-11T16:23:28Z</time></trkpt><trkpt lat="44.89599674015846" lon="11.823870278728146"><ele>4.5</ele><time>2026-04-11T16:23:30Z</time></trkpt><trkpt lat="44.896009245283246" lon="11.823977659710506"><ele>4.666666666666667</ele><time>2026-04-11T16:23:32Z</time></trkpt><trkpt lat="44.89602682339767" lon="11.824080611390288"><ele>4.833333333333334</ele><time>2026-04-11T16:23:34Z</time></trkpt><trkpt lat="44.89604779000792" lon="11.8241774072223"><ele>5.0</ele><time>2026-04-11T16:23:36Z</time></trkpt><trkpt lat="44.89606932817603" lon="11.82429401401439"><ele>4.833333333333334</ele><time>2026-04-11T16:23:38Z</time></trkpt><trkpt lat="44.89608935781074" lon="11.824416097472062"><ele>4.666666666666667</ele><time>2026-04-11T16:23:40Z</time></trkpt><trkpt lat="44.896108620023654" lon="11.824533284721158"><ele>4.5</ele><time>2026-04-11T16:23:42Z</time></trkpt><trkpt lat="44.896124722627164" lon="11.824656822438053"><ele>4.333333333333333</ele><time>2026-04-11T16:23:44Z</time></trkpt><trkpt lat="44.8961394767366" lon="11.824770941699724"><ele>4.166666666666666</ele><time>2026-04-11T16:23:46Z</time></trkpt><trkpt lat="44.89614160107933" lon="11.824878730126139"><ele>4.0</ele><time>2026-04-11T16:23:48Z</time></trkpt><trkpt lat="44.89616004721476" lon="11.824982103179403"><ele>3.9999999999999996</ele><time>2026-04-11T16:23:50Z</time></trkpt><trkpt lat="44.89617614818322" lon="11.825076389477804"><ele>4.0</ele><time>2026-04-11T16:23:52Z</time></trkpt><trkpt lat="44.89621072953163" lon="11.82518481757564"><ele>4.0</ele><time>2026-04-11T16:23:54Z</time></trkpt><trkpt lat="44.896227568640285" lon="11.825288306212277"><ele>4.0</ele><time>2026-04-11T16:23:56Z</time></trkpt><trkpt lat="44.89623863735231" lon="11.8253921370235"><ele>3.9999999999999996</ele><time>2026-04-11T16:23:58Z</time></trkpt><trkpt lat="44.89625607341238" lon="11.82554127978607"><ele>4.0</ele><time>2026-04-11T16:24:01Z</time></trkpt><trkpt lat="44.89627051073067" lon="11.82564144854937"><ele>4.0</ele><time>2026-04-11T16:24:03Z</time></trkpt><trkpt lat="44.89628944711817" lon="11.825735887713325"><ele>3.9999999999999996</ele><time>2026-04-11T16:24:05Z</time></trkpt><trkpt lat="44.89630704479625" lon="11.825821544025569"><ele>4.0</ele><time>2026-04-11T16:24:07Z</time></trkpt><trkpt lat="44.89630608699762" lon="11.82591074247272"><ele>4.0</ele><time>2026-04-11T16:24:10Z</time></trkpt><trkpt lat="44.89631465273254" lon="11.826008477724129"><ele>3.9999999999999996</ele><time>2026-04-11T16:24:20.001Z</time></trkpt><trkpt lat="44.89635336409442" lon="11.826092491734038"><ele>4.0</ele><time>2026-04-11T16:24:22Z</time></trkpt><trkpt lat="44.89635737002787" lon="11.826190313445698"><ele>4.0</ele><time>2026-04-11T16:24:24Z</time></trkpt><trkpt lat="44.89637179184422" lon="11.826284639276926"><ele>3.9999999999999996</ele><time>2026-04-11T16:24:26Z</time></trkpt><trkpt lat="44.896393816279755" lon="11.826381200092086"><ele>4.0</ele><time>2026-04-11T16:24:28Z</time></trkpt><trkpt lat="44.8964148713474" lon="11.826478852523385"><ele>4.0</ele><time>2026-04-11T16:24:30Z</time></trkpt><trkpt lat="44.89643359189702" lon="11.826577181086389"><ele>4.0</ele><time>2026-04-11T16:24:32Z</time></trkpt><trkpt lat="44.89643816953228" lon="11.82670191485518"><ele>3.9999999999999996</ele><time>2026-04-11T16:24:34Z</time></trkpt><trkpt lat="44.89647099502132" lon="11.826813443431828"><ele>4.0</ele><time>2026-04-11T16:24:36Z</time></trkpt><trkpt lat="44.89649332457409" lon="11.826935538268328"><ele>3.9999999999999996</ele><time>2026-04-11T16:24:38Z</time></trkpt><trkpt lat="44.8965102839355" lon="11.827061559498864"><ele>4.0</ele><time>2026-04-11T16:24:40Z</time></trkpt><trkpt lat="44.8965313841972" lon="11.827181021826783"><ele>4.0</ele><time>2026-04-11T16:24:42Z</time></trkpt><trkpt lat="44.89655039886211" lon="11.827298046711508"><ele>4.0</ele><time>2026-04-11T16:24:44Z</time></trkpt><trkpt lat="44.89657469983749" lon="11.827409359714931"><ele>3.9999999999999996</ele><time>2026-04-11T16:24:46Z</time></trkpt><trkpt lat="44.896592495388525" lon="11.827517272535893"><ele>4.0</ele><time>2026-04-11T16:24:48Z</time></trkpt><trkpt lat="44.896600681738924" lon="11.827619646206625"><ele>4.166666666666666</ele><time>2026-04-11T16:24:50Z</time></trkpt><trkpt lat="44.89662247737812" lon="11.827722012715313"><ele>4.333333333333333</ele><time>2026-04-11T16:24:52Z</time></trkpt><trkpt lat="44.89663374843071" lon="11.827837945212789"><ele>4.5</ele><time>2026-04-11T16:24:54Z</time></trkpt><trkpt lat="44.896656228284975" lon="11.827954272234502"><ele>4.666666666666667</ele><time>2026-04-11T16:24:56Z</time></trkpt><trkpt lat="44.8966721330597" lon="11.82807364211202"><ele>4.833333333333334</ele><time>2026-04-11T16:24:58Z</time></trkpt><trkpt lat="44.89669079829727" lon="11.828192771261689"><ele>5.0</ele><time>2026-04-11T16:25:00Z</time></trkpt><trkpt lat="44.896711917147506" lon="11.828311003679753"><ele>5.0</ele><time>2026-04-11T16:25:02Z</time></trkpt><trkpt lat="44.89673084775433" lon="11.828426084339783"><ele>5.0</ele><time>2026-04-11T16:25:04Z</time></trkpt><trkpt lat="44.89674376696727" lon="11.828533478452215"><ele>5.0</ele><time>2026-04-11T16:25:06Z</time></trkpt><trkpt lat="44.896772885428724" lon="11.828634532426475"><ele>5.0</ele><time>2026-04-11T16:25:08Z</time></trkpt><trkpt lat="44.89679823833413" lon="11.828722544150805"><ele>5.0</ele><time>2026-04-11T16:25:10Z</time></trkpt><trkpt lat="44.8968746916884" lon="11.828799443808789"><ele>5.0</ele><time>2026-04-11T16:25:13Z</time></trkpt><trkpt lat="44.896953188188746" lon="11.828862588375868"><ele>4.833333333333334</ele><time>2026-04-11T16:25:16Z</time></trkpt><trkpt lat="44.89695231609388" lon="11.828958785308094"><ele>4.666666666666667</ele><time>2026-04-11T16:25:18Z</time></trkpt><trkpt lat="44.896974512586624" lon="11.82906469732696"><ele>4.5</ele><time>2026-04-11T16:25:20Z</time></trkpt><trkpt lat="44.896991403771636" lon="11.829183706067038"><ele>4.333333333333333</ele><time>2026-04-11T16:25:22Z</time></trkpt><trkpt lat="44.89700397244666" lon="11.829295768059641"><ele>4.166666666666666</ele><time>2026-04-11T16:25:24Z</time></trkpt><trkpt lat="44.897008550730156" lon="11.829397501832208"><ele>4.0</ele><time>2026-04-11T16:25:26Z</time></trkpt><trkpt lat="44.89700569677535" lon="11.829498195218349"><ele>3.9999999999999996</ele><time>2026-04-11T16:25:28Z</time></trkpt><trkpt lat="44.89704295719149" lon="11.829597278350453"><ele>4.0</ele><time>2026-04-11T16:25:30Z</time></trkpt><trkpt lat="44.897075824218994" lon="11.829704347809377"><ele>4.0</ele><time>2026-04-11T16:25:32Z</time></trkpt><trkpt lat="44.897090809828875" lon="11.82983166408677"><ele>4.0</ele><time>2026-04-11T16:25:34Z</time></trkpt><trkpt lat="44.89711127234309" lon="11.829947291017794"><ele>3.9999999999999996</ele><time>2026-04-11T16:25:36Z</time></trkpt><trkpt lat="44.897134093233504" lon="11.830068439164421"><ele>4.0</ele><time>2026-04-11T16:25:38Z</time></trkpt><trkpt lat="44.897159814191895" lon="11.830187744752314"><ele>3.9999999999999996</ele><time>2026-04-11T16:25:40Z</time></trkpt><trkpt lat="44.89717019847057" lon="11.830293275188538"><ele>4.0</ele><time>2026-04-11T16:25:42Z</time></trkpt><trkpt lat="44.89719498763931" lon="11.83039051308575"><ele>4.0</ele><time>2026-04-11T16:25:44Z</time></trkpt><trkpt lat="44.89721197752365" lon="11.830496009787252"><ele>4.0</ele><time>2026-04-11T16:25:46Z</time></trkpt><trkpt lat="44.897230693772" lon="11.830609136079188"><ele>3.9999999999999996</ele><time>2026-04-11T16:25:48Z</time></trkpt><trkpt lat="44.8972471824208" lon="11.830711751961697"><ele>4.0</ele><time>2026-04-11T16:25:50Z</time></trkpt><trkpt lat="44.897260248592644" lon="11.830823671014084"><ele>3.9999999999999996</ele><time>2026-04-11T16:25:52Z</time></trkpt><trkpt lat="44.897288425135656" lon="11.830941744531053"><ele>4.0</ele><time>2026-04-11T16:25:54Z</time></trkpt><trkpt lat="44.897303492934434" lon="11.831063822240584"><ele>4.0</ele><time>2026-04-11T16:25:56Z</time></trkpt><trkpt lat="44.89732377878299" lon="11.83117905029872"><ele>4.0</ele><time>2026-04-11T16:25:58Z</time></trkpt><trkpt lat="44.89733943749807" lon="11.8313025581731"><ele>3.9999999999999996</ele><time>2026-04-11T16:26:00Z</time></trkpt><trkpt lat="44.89735813561032" lon="11.83140962641027"><ele>4.0</ele><time>2026-04-11T16:26:02Z</time></trkpt><trkpt lat="44.89737754639825" lon="11.831508697667852"><ele>3.8571428571428568</ele><time>2026-04-11T16:26:03.999Z</time></trkpt><trkpt lat="44.89738840560627" lon="11.831596715334737"><ele>3.714285714285714</ele><time>2026-04-11T16:26:05.999Z</time></trkpt><trkpt lat="44.89740174342004" lon="11.831693849052321"><ele>3.571428571428571</ele><time>2026-04-11T16:26:07.999Z</time></trkpt><trkpt lat="44.897416636541244" lon="11.831801970003406"><ele>3.4285714285714284</ele><time>2026-04-11T16:26:09.999Z</time></trkpt><trkpt lat="44.897425901830154" lon="11.83188997732602"><ele>3.2857142857142856</ele><time>2026-04-11T16:26:11.999Z</time></trkpt><trkpt lat="44.89744363840269" lon="11.831985901027739"><ele>3.1428571428571423</ele><time>2026-04-11T16:26:13.999Z</time></trkpt><trkpt lat="44.89746244431726" lon="11.83207822673767"><ele>3.0</ele><time>2026-04-11T16:26:15.999Z</time></trkpt><trkpt lat="44.897479875633834" lon="11.832182098092966"><ele>3.0</ele><time>2026-04-11T16:26:17.999Z</time></trkpt><trkpt lat="44.89749004673063" lon="11.832287894769047"><ele>3.0</ele><time>2026-04-11T16:26:20Z</time></trkpt><trkpt lat="44.89750897184381" lon="11.832391103966652"><ele>3.0</ele><time>2026-04-11T16:26:22Z</time></trkpt><trkpt lat="44.8975239620527" lon="11.832498633117247"><ele>3.0</ele><time>2026-04-11T16:26:24Z</time></trkpt><trkpt lat="44.897545333714284" lon="11.832614839367887"><ele>3.0</ele><time>2026-04-11T16:26:26Z</time></trkpt><trkpt lat="44.89756282567368" lon="11.83272782751825"><ele>3.0</ele><time>2026-04-11T16:26:28Z</time></trkpt><trkpt lat="44.89758272311838" lon="11.832840636637357"><ele>3.1666666666666665</ele><time>2026-04-11T16:26:30Z</time></trkpt><trkpt lat="44.89760267675521" lon="11.83295897718483"><ele>3.333333333333333</ele><time>2026-04-11T16:26:32Z</time></trkpt><trkpt lat="44.89762228469216" lon="11.833061536757256"><ele>3.5</ele><time>2026-04-11T16:26:34Z</time></trkpt><trkpt lat="44.89763906429403" lon="11.833175653160339"><ele>3.6666666666666665</ele><time>2026-04-11T16:26:36Z</time></trkpt><trkpt lat="44.8976599523163" lon="11.83329760485082"><ele>3.833333333333333</ele><time>2026-04-11T16:26:38Z</time></trkpt><trkpt lat="44.89768358182556" lon="11.833424763981588"><ele>4.0</ele><time>2026-04-11T16:26:40Z</time></trkpt><trkpt lat="44.897700867287696" lon="11.833540022821282"><ele>3.9999999999999996</ele><time>2026-04-11T16:26:42Z</time></trkpt><trkpt lat="44.897719358013894" lon="11.83365032831367"><ele>4.0</ele><time>2026-04-11T16:26:44Z</time></trkpt><trkpt lat="44.89774055429239" lon="11.833762583013455"><ele>4.0</ele><time>2026-04-11T16:26:46Z</time></trkpt><trkpt lat="44.89775803259745" lon="11.833872745905467"><ele>4.0</ele><time>2026-04-11T16:26:48Z</time></trkpt><trkpt lat="44.8977732691239" lon="11.833975282141518"><ele>3.9999999999999996</ele><time>2026-04-11T16:26:50Z</time></trkpt><trkpt lat="44.89779268392568" lon="11.834095058168364"><ele>4.0</ele><time>2026-04-11T16:26:52Z</time></trkpt><trkpt lat="44.89780995604088" lon="11.834213056831882"><ele>3.833333333333333</ele><time>2026-04-11T16:26:54Z</time></trkpt><trkpt lat="44.8978326429184" lon="11.834338773125967"><ele>3.6666666666666665</ele><time>2026-04-11T16:26:56Z</time></trkpt><trkpt lat="44.89784774671245" lon="11.834439995278464"><ele>3.5</ele><time>2026-04-11T16:26:58Z</time></trkpt><trkpt lat="44.89785873951504" lon="11.834539484115199"><ele>3.333333333333333</ele><time>2026-04-11T16:27:00Z</time></trkpt><trkpt lat="44.897879885188445" lon="11.834643507428154"><ele>3.1666666666666665</ele><time>2026-04-11T16:27:02Z</time></trkpt><trkpt lat="44.897899670926165" lon="11.834764557667633"><ele>3.0</ele><time>2026-04-11T16:27:05Z</time></trkpt><trkpt lat="44.89790452104059" lon="11.834867829903807"><ele>3.0</ele><time>2026-04-11T16:28:11.999Z</time></trkpt><trkpt lat="44.897918003486126" lon="11.834976272716759"><ele>3.0</ele><time>2026-04-11T16:28:14.999Z</time></trkpt><trkpt lat="44.897945691936975" lon="11.835081099386256"><ele>3.0</ele><time>2026-04-11T16:28:16.999Z</time></trkpt><trkpt lat="44.89796490581558" lon="11.835179520902452"><ele>3.0</ele><time>2026-04-11T16:28:18.999Z</time></trkpt><trkpt lat="44.89802150612777" lon="11.835276548646"><ele>3.0</ele><time>2026-04-11T16:28:21.999Z</time></trkpt><trkpt lat="44.898085630916235" lon="11.835291526689874"><ele>3.0</ele><time>2026-04-11T16:28:23.999Z</time></trkpt><trkpt lat="44.898159149414234" lon="11.835302283439987"><ele>3.0</ele><time>2026-04-11T16:28:26Z</time></trkpt><trkpt lat="44.89825245298133" lon="11.835316513407486"><ele>3.0</ele><time>2026-04-11T16:28:28Z</time></trkpt><trkpt lat="44.898346846074176" lon="11.835330817919882"><ele>3.0</ele><time>2026-04-11T16:28:30Z</time></trkpt><trkpt lat="44.89843262522238" lon="11.835348858757198"><ele>3.0</ele><time>2026-04-11T16:28:32Z</time></trkpt><trkpt lat="44.898515466496455" lon="11.835350081987702"><ele>3.0</ele><time>2026-04-11T16:28:34Z</time></trkpt><trkpt lat="44.89859921504081" lon="11.835376144824783"><ele>3.0</ele><time>2026-04-11T16:28:36Z</time></trkpt><trkpt lat="44.89867629306836" lon="11.835394081847456"><ele>3.0</ele><time>2026-04-11T16:28:38Z</time></trkpt><trkpt lat="44.89875485064548" lon="11.835395276522755"><ele>3.0</ele><time>2026-04-11T16:28:40Z</time></trkpt><trkpt lat="44.89884341209552" lon="11.835411349581905"><ele>3.0</ele><time>2026-04-11T16:28:42Z</time></trkpt><trkpt lat="44.898938478230164" lon="11.83544297054089"><ele>3.0</ele><time>2026-04-11T16:28:44Z</time></trkpt><trkpt lat="44.89903363246182" lon="11.835456420284562"><ele>3.0</ele><time>2026-04-11T16:28:46Z</time></trkpt><trkpt lat="44.899122795705054" lon="11.83549206610971"><ele>3.0</ele><time>2026-04-11T16:28:48Z</time></trkpt><trkpt lat="44.89920597223486" lon="11.835523839915348"><ele>3.0</ele><time>2026-04-11T16:28:50Z</time></trkpt><trkpt lat="44.899285475177294" lon="11.835552009152458"><ele>3.0</ele><time>2026-04-11T16:28:52Z</time></trkpt><trkpt lat="44.8993590947275" lon="11.835596370765622"><ele>3.0</ele><time>2026-04-11T16:28:54Z</time></trkpt><trkpt lat="44.89942993247698" lon="11.835638055989774"><ele>3.0</ele><time>2026-04-11T16:28:56Z</time></trkpt><trkpt lat="44.89949242457252" lon="11.83568657469193"><ele>3.0</ele><time>2026-04-11T16:28:58Z</time></trkpt><trkpt lat="44.899554601239444" lon="11.835725428671347"><ele>2.8333333333333335</ele><time>2026-04-11T16:29:00Z</time></trkpt><trkpt lat="44.89960298682263" lon="11.835795338064099"><ele>2.6666666666666665</ele><time>2026-04-11T16:29:02Z</time></trkpt><trkpt lat="44.89964728402817" lon="11.835859251873083"><ele>2.5</ele><time>2026-04-11T16:29:04Z</time></trkpt><trkpt lat="44.899711121977646" lon="11.83593346274813"><ele>2.333333333333333</ele><time>2026-04-11T16:29:06Z</time></trkpt><trkpt lat="44.89978897789082" lon="11.835994133442583"><ele>2.1666666666666665</ele><time>2026-04-11T16:29:08Z</time></trkpt><trkpt lat="44.89986287553285" lon="11.836041081631869"><ele>2.0</ele><time>2026-04-11T16:29:10Z</time></trkpt><trkpt lat="44.899935208975506" lon="11.83610142113"><ele>1.9999999999999998</ele><time>2026-04-11T16:29:12Z</time></trkpt><trkpt lat="44.90001501275868" lon="11.836158471713025"><ele>2.0</ele><time>2026-04-11T16:29:14Z</time></trkpt><trkpt lat="44.90009403723151" lon="11.836213560891425"><ele>2.0</ele><time>2026-04-11T16:29:16Z</time></trkpt><trkpt lat="44.900175326918074" lon="11.83626201706134"><ele>2.0</ele><time>2026-04-11T16:29:18Z</time></trkpt><trkpt lat="44.90025343720957" lon="11.8363214109885"><ele>1.9999999999999998</ele><time>2026-04-11T16:29:20Z</time></trkpt><trkpt lat="44.9003318455656" lon="11.836375692840242"><ele>2.0</ele><time>2026-04-11T16:29:22Z</time></trkpt><trkpt lat="44.90041125984647" lon="11.836432087912927"><ele>1.9999999999999998</ele><time>2026-04-11T16:29:24Z</time></trkpt><trkpt lat="44.90048817576782" lon="11.836479483609391"><ele>2.0</ele><time>2026-04-11T16:29:26Z</time></trkpt><trkpt lat="44.90056792913313" lon="11.83652767755193"><ele>2.0</ele><time>2026-04-11T16:29:28Z</time></trkpt><trkpt lat="44.900642621607425" lon="11.836577972207047"><ele>2.0</ele><time>2026-04-11T16:29:30Z</time></trkpt><trkpt lat="44.90071995275999" lon="11.836618065150164"><ele>1.9999999999999998</ele><time>2026-04-11T16:29:32Z</time></trkpt><trkpt lat="44.90079474774648" lon="11.836656316903204"><ele>2.0</ele><time>2026-04-11T16:29:34Z</time></trkpt><trkpt lat="44.90087977084316" lon="11.836700205573994"><ele>2.2</ele><time>2026-04-11T16:29:36Z</time></trkpt><trkpt lat="44.9009732715779" lon="11.836741114872785"><ele>2.4000000000000004</ele><time>2026-04-11T16:29:38Z</time></trkpt><trkpt lat="44.90106490781367" lon="11.836783972094448"><ele>2.5999999999999996</ele><time>2026-04-11T16:29:40Z</time></trkpt><trkpt lat="44.90115459677179" lon="11.836826305331671"><ele>2.8</ele><time>2026-04-11T16:29:42Z</time></trkpt><trkpt lat="44.901243781171615" lon="11.836860679402609"><ele>3.0</ele><time>2026-04-11T16:29:44Z</time></trkpt><trkpt lat="44.90132682908712" lon="11.836904872020908"><ele>3.0</ele><time>2026-04-11T16:29:46Z</time></trkpt><trkpt lat="44.90141676952942" lon="11.83694149862046"><ele>3.0</ele><time>2026-04-11T16:29:47.999Z</time></trkpt><trkpt lat="44.90150869657021" lon="11.83698517668257"><ele>3.0</ele><time>2026-04-11T16:29:49.999Z</time></trkpt><trkpt lat="44.90159991316282" lon="11.837030111658864"><ele>3.0</ele><time>2026-04-11T16:29:51.999Z</time></trkpt><trkpt lat="44.90169541413322" lon="11.837079413993116"><ele>3.0</ele><time>2026-04-11T16:29:53.999Z</time></trkpt><trkpt lat="44.90178705867407" lon="11.837130255508743"><ele>3.2</ele><time>2026-04-11T16:29:55.999Z</time></trkpt><trkpt lat="44.90187662468741" lon="11.837187335414834"><ele>3.4</ele><time>2026-04-11T16:29:57.999Z</time></trkpt><trkpt lat="44.90196841007671" lon="11.837244413847179"><ele>3.6000000000000005</ele><time>2026-04-11T16:29:59.999Z</time></trkpt><trkpt lat="44.90205657566246" lon="11.837311713327368"><ele>3.8000000000000003</ele><time>2026-04-11T16:30:01.999Z</time></trkpt><trkpt lat="44.90214343327686" lon="11.83737227982847"><ele>4.0</ele><time>2026-04-11T16:30:03.999Z</time></trkpt><trkpt lat="44.902228321870574" lon="11.837442803668392"><ele>4.0</ele><time>2026-04-11T16:30:05.999Z</time></trkpt><trkpt lat="44.90231796190011" lon="11.837507687285482"><ele>4.0</ele><time>2026-04-11T16:30:07.999Z</time></trkpt><trkpt lat="44.902404083538336" lon="11.8375783109209"><ele>4.0</ele><time>2026-04-11T16:30:09.999Z</time></trkpt><trkpt lat="44.9024898281032" lon="11.837645552722885"><ele>4.0</ele><time>2026-04-11T16:30:11.999Z</time></trkpt><trkpt lat="44.90257523329779" lon="11.837715380475673"><ele>4.0</ele><time>2026-04-11T16:30:13.999Z</time></trkpt><trkpt lat="44.902664462296954" lon="11.837784276912418"><ele>3.8000000000000003</ele><time>2026-04-11T16:30:15.999Z</time></trkpt><trkpt lat="44.90274353156211" lon="11.837863194458096"><ele>3.6000000000000005</ele><time>2026-04-11T16:30:17.999Z</time></trkpt><trkpt lat="44.9028277150572" lon="11.837942560704532"><ele>3.4</ele><time>2026-04-11T16:30:19.999Z</time></trkpt><trkpt lat="44.902906463416706" lon="11.83802633483276"><ele>3.2</ele><time>2026-04-11T16:30:21.999Z</time></trkpt><trkpt lat="44.90298733913754" lon="11.838106868105545"><ele>3.0</ele><time>2026-04-11T16:30:23.999Z</time></trkpt><trkpt lat="44.90306925877091" lon="11.838187324655904"><ele>3.0</ele><time>2026-04-11T16:30:25.999Z</time></trkpt><trkpt lat="44.90314535817697" lon="11.8382700795737"><ele>3.0</ele><time>2026-04-11T16:30:27.999Z</time></trkpt><trkpt lat="44.9032221091445" lon="11.838353830851835"><ele>3.0</ele><time>2026-04-11T16:30:29.999Z</time></trkpt><trkpt lat="44.90330305710889" lon="11.838435083282011"><ele>3.0</ele><time>2026-04-11T16:30:32Z</time></trkpt><trkpt lat="44.903381850043395" lon="11.838516045688083"><ele>3.0</ele><time>2026-04-11T16:30:34Z</time></trkpt><trkpt lat="44.903459248137295" lon="11.83859927803745"><ele>2.8</ele><time>2026-04-11T16:30:36Z</time></trkpt><trkpt lat="44.90353817819814" lon="11.838682648969296"><ele>2.5999999999999996</ele><time>2026-04-11T16:30:38Z</time></trkpt><trkpt lat="44.903618849667254" lon="11.838765072838665"><ele>2.4000000000000004</ele><time>2026-04-11T16:30:40Z</time></trkpt><trkpt lat="44.90369715182987" lon="11.838848044600015"><ele>2.2</ele><time>2026-04-11T16:30:42Z</time></trkpt><trkpt lat="44.9037782782331" lon="11.838927691929351"><ele>2.0</ele><time>2026-04-11T16:30:44Z</time></trkpt><trkpt lat="44.903857880454325" lon="11.83901037635981"><ele>2.0</ele><time>2026-04-11T16:30:46Z</time></trkpt><trkpt lat="44.90393953411323" lon="11.839088448592433"><ele>2.0</ele><time>2026-04-11T16:30:48Z</time></trkpt><trkpt lat="44.90402193355247" lon="11.839165596185973"><ele>2.0</ele><time>2026-04-11T16:30:50Z</time></trkpt><trkpt lat="44.904108037957776" lon="11.839239468175993"><ele>2.0</ele><time>2026-04-11T16:30:52Z</time></trkpt><trkpt lat="44.90419377931261" lon="11.839311667341713"><ele>2.0</ele><time>2026-04-11T16:30:54Z</time></trkpt><trkpt lat="44.9042833539339" lon="11.839374496616804"><ele>1.6</ele><time>2026-04-11T16:30:56Z</time></trkpt><trkpt lat="44.904373208695304" lon="11.839433363818728"><ele>1.2000000000000002</ele><time>2026-04-11T16:30:58Z</time></trkpt><trkpt lat="44.90446476521971" lon="11.839484827287677"><ele>0.8</ele><time>2026-04-11T16:31:00Z</time></trkpt><trkpt lat="44.90455701242773" lon="11.839536859101642"><ele>0.4</ele><time>2026-04-11T16:31:02Z</time></trkpt><trkpt lat="44.904647398948065" lon="11.83958332266323"><ele>0.0</ele><time>2026-04-11T16:31:04Z</time></trkpt><trkpt lat="44.90474018487169" lon="11.83962535703297"><ele>0.0</ele><time>2026-04-11T16:31:06Z</time></trkpt><trkpt lat="44.90483554483107" lon="11.839663652198322"><ele>0.0</ele><time>2026-04-11T16:31:08Z</time></trkpt><trkpt lat="44.90493153259588" lon="11.83970141375372"><ele>0.0</ele><time>2026-04-11T16:31:10Z</time></trkpt><trkpt lat="44.90502816431987" lon="11.839728027074683"><ele>0.0</ele><time>2026-04-11T16:31:12Z</time></trkpt><trkpt lat="44.90512700649368" lon="11.839758855590684"><ele>0.0</ele><time>2026-04-11T16:31:14Z</time></trkpt><trkpt lat="44.90522492697563" lon="11.839786304489733"><ele>0.4</ele><time>2026-04-11T16:31:16Z</time></trkpt><trkpt lat="44.90532234050336" lon="11.839812926700372"><ele>0.8</ele><time>2026-04-11T16:31:18Z</time></trkpt><trkpt lat="44.90541995099906" lon="11.839849612807813"><ele>1.2000000000000002</ele><time>2026-04-11T16:31:20Z</time></trkpt><trkpt lat="44.905518057236826" lon="11.839890550112301"><ele>1.6</ele><time>2026-04-11T16:31:22Z</time></trkpt><trkpt lat="44.90561066539864" lon="11.83993694756242"><ele>2.0</ele><time>2026-04-11T16:31:24Z</time></trkpt><trkpt lat="44.90569513624839" lon="11.839993611501942"><ele>1.9999999999999998</ele><time>2026-04-11T16:31:26Z</time></trkpt><trkpt lat="44.90577351519147" lon="11.840051755912185"><ele>2.0</ele><time>2026-04-11T16:31:28Z</time></trkpt><trkpt lat="44.90584710149581" lon="11.840109967889532"><ele>2.0</ele><time>2026-04-11T16:31:30Z</time></trkpt><trkpt lat="44.9059168912931" lon="11.840163555058501"><ele>2.0</ele><time>2026-04-11T16:31:32Z</time></trkpt><trkpt lat="44.905980703206964" lon="11.840221290029483"><ele>1.9999999999999998</ele><time>2026-04-11T16:31:34Z</time></trkpt><trkpt lat="44.90604963325182" lon="11.840281478447658"><ele>2.0</ele><time>2026-04-11T16:31:36Z</time></trkpt><trkpt lat="44.90612806871359" lon="11.840353673498802"><ele>1.9999999999999998</ele><time>2026-04-11T16:31:38Z</time></trkpt><trkpt lat="44.906204315312074" lon="11.840428094518659"><ele>2.0</ele><time>2026-04-11T16:31:40Z</time></trkpt><trkpt lat="44.90627526012836" lon="11.840496104906927"><ele>2.0</ele><time>2026-04-11T16:31:42Z</time></trkpt><trkpt lat="44.906342852025396" lon="11.840564477054052"><ele>2.0</ele><time>2026-04-11T16:31:44Z</time></trkpt><trkpt lat="44.90641723383624" lon="11.840640901427884"><ele>1.9999999999999998</ele><time>2026-04-11T16:31:46Z</time></trkpt><trkpt lat="44.90648850072045" lon="11.840720138776412"><ele>2.0</ele><time>2026-04-11T16:31:48Z</time></trkpt><trkpt lat="44.90656106086597" lon="11.840797076103906"><ele>2.0</ele><time>2026-04-11T16:31:50Z</time></trkpt><trkpt lat="44.9066313131708" lon="11.840887159225028"><ele>2.0</ele><time>2026-04-11T16:31:51.999Z</time></trkpt><trkpt lat="44.90670194821865" lon="11.840980884556881"><ele>2.0</ele><time>2026-04-11T16:31:53.999Z</time></trkpt><trkpt lat="44.906760810578966" lon="11.841084236882555"><ele>2.0</ele><time>2026-04-11T16:31:55.999Z</time></trkpt><trkpt lat="44.90681586488398" lon="11.841179455951943"><ele>2.0</ele><time>2026-04-11T16:31:57.999Z</time></trkpt><trkpt lat="44.90686701289653" lon="11.841287573064047"><ele>2.2</ele><time>2026-04-11T16:31:59.999Z</time></trkpt><trkpt lat="44.90691859237005" lon="11.841402952943916"><ele>2.4000000000000004</ele><time>2026-04-11T16:32:01.999Z</time></trkpt><trkpt lat="44.90696425191835" lon="11.841513377534008"><ele>2.5999999999999996</ele><time>2026-04-11T16:32:03.999Z</time></trkpt><trkpt lat="44.90700207710085" lon="11.841630949309428"><ele>2.8</ele><time>2026-04-11T16:32:05.999Z</time></trkpt><trkpt lat="44.90705166594041" lon="11.841753067827486"><ele>3.0</ele><time>2026-04-11T16:32:07.999Z</time></trkpt><trkpt lat="44.907094837626104" lon="11.841877775148482"><ele>3.0</ele><time>2026-04-11T16:32:09.999Z</time></trkpt><trkpt lat="44.90713335574347" lon="11.842003375563472"><ele>3.0</ele><time>2026-04-11T16:32:11.999Z</time></trkpt><trkpt lat="44.90717834029065" lon="11.84212552957545"><ele>3.0</ele><time>2026-04-11T16:32:13.999Z</time></trkpt><trkpt lat="44.907216603440816" lon="11.842248117539162"><ele>3.0</ele><time>2026-04-11T16:32:15.999Z</time></trkpt><trkpt lat="44.90725789345593" lon="11.842357761951428"><ele>3.0</ele><time>2026-04-11T16:32:17.999Z</time></trkpt><trkpt lat="44.907287253721094" lon="11.842467265706416"><ele>3.0</ele><time>2026-04-11T16:32:19.999Z</time></trkpt><trkpt lat="44.9073191798395" lon="11.842577963108436"><ele>3.0</ele><time>2026-04-11T16:32:21.999Z</time></trkpt><trkpt lat="44.907352022697346" lon="11.842697640809066"><ele>3.0</ele><time>2026-04-11T16:32:23.999Z</time></trkpt><trkpt lat="44.90738478188089" lon="11.842824471588905"><ele>3.0</ele><time>2026-04-11T16:32:25.999Z</time></trkpt><trkpt lat="44.90741934077509" lon="11.842951117732865"><ele>3.0</ele><time>2026-04-11T16:32:27.999Z</time></trkpt><trkpt lat="44.90745288120685" lon="11.843077902713777"><ele>3.0</ele><time>2026-04-11T16:32:29.999Z</time></trkpt><trkpt lat="44.9074904314381" lon="11.843204510223384"><ele>3.0</ele><time>2026-04-11T16:32:31.999Z</time></trkpt><trkpt lat="44.907531551584945" lon="11.8433353776583"><ele>3.0</ele><time>2026-04-11T16:32:33.999Z</time></trkpt><trkpt lat="44.90756745091701" lon="11.843465024227534"><ele>3.0</ele><time>2026-04-11T16:32:35.999Z</time></trkpt><trkpt lat="44.90760445955299" lon="11.843582401159358"><ele>3.0</ele><time>2026-04-11T16:32:38Z</time></trkpt><trkpt lat="44.9076452065348" lon="11.84370552983705"><ele>2.6</ele><time>2026-04-11T16:32:40Z</time></trkpt><trkpt lat="44.90767312304334" lon="11.8438281367555"><ele>2.1999999999999997</ele><time>2026-04-11T16:32:42Z</time></trkpt><trkpt lat="44.9076865285924" lon="11.84395960987897"><ele>1.8</ele><time>2026-04-11T16:32:44Z</time></trkpt><trkpt lat="44.90769465324386" lon="11.84409739354256"><ele>1.4</ele><time>2026-04-11T16:32:46Z</time></trkpt><trkpt lat="44.9076968427785" lon="11.844228652942165"><ele>1.0</ele><time>2026-04-11T16:32:48Z</time></trkpt><trkpt lat="44.90769007993633" lon="11.84435177876564"><ele>0.9999999999999999</ele><time>2026-04-11T16:32:50Z</time></trkpt><trkpt lat="44.9076982013938" lon="11.844468300651615"><ele>1.0</ele><time>2026-04-11T16:32:52Z</time></trkpt><trkpt lat="44.9076954071117" lon="11.844572973820316"><ele>1.0</ele><time>2026-04-11T16:32:54Z</time></trkpt><trkpt lat="44.907693225901475" lon="11.84467565996823"><ele>1.0</ele><time>2026-04-11T16:32:56Z</time></trkpt><trkpt lat="44.90769730081093" lon="11.84478505706436"><ele>0.9999999999999999</ele><time>2026-04-11T16:32:58Z</time></trkpt><trkpt lat="44.907699265749216" lon="11.844893680363164"><ele>1.0</ele><time>2026-04-11T16:33:00Z</time></trkpt><trkpt lat="44.90770429973757" lon="11.84500551017743"><ele>1.0</ele><time>2026-04-11T16:33:02Z</time></trkpt><trkpt lat="44.9077097600551" lon="11.845127973028948"><ele>1.0</ele><time>2026-04-11T16:33:04Z</time></trkpt><trkpt lat="44.90772462924494" lon="11.845256973413612"><ele>1.0</ele><time>2026-04-11T16:33:06Z</time></trkpt><trkpt lat="44.907742009798184" lon="11.845391728000312"><ele>1.0</ele><time>2026-04-11T16:33:08Z</time></trkpt><trkpt lat="44.90776188652483" lon="11.845525064723912"><ele>1.0</ele><time>2026-04-11T16:33:10Z</time></trkpt><trkpt lat="44.90778210366044" lon="11.84565069632652"><ele>1.1666666666666665</ele><time>2026-04-11T16:33:12Z</time></trkpt><trkpt lat="44.90780742426154" lon="11.84577277713668"><ele>1.3333333333333333</ele><time>2026-04-11T16:33:14Z</time></trkpt><trkpt lat="44.907830932456086" lon="11.845883630866972"><ele>1.5</ele><time>2026-04-11T16:33:16Z</time></trkpt><trkpt lat="44.90785380601865" lon="11.845988231982261"><ele>1.6666666666666665</ele><time>2026-04-11T16:33:18Z</time></trkpt><trkpt lat="44.907878972600365" lon="11.846085341283409"><ele>1.8333333333333333</ele><time>2026-04-11T16:33:20Z</time></trkpt><trkpt lat="44.90789465467263" lon="11.846186467047788"><ele>2.0</ele><time>2026-04-11T16:33:22Z</time></trkpt><trkpt lat="44.907926643103046" lon="11.846283319899669"><ele>2.1666666666666665</ele><time>2026-04-11T16:33:24Z</time></trkpt><trkpt lat="44.90795059188977" lon="11.846370552015793"><ele>2.333333333333333</ele><time>2026-04-11T16:33:26Z</time></trkpt><trkpt lat="44.90798904070053" lon="11.846468483867795"><ele>2.5</ele><time>2026-04-11T16:33:28Z</time></trkpt><trkpt lat="44.90802702979268" lon="11.846581436872292"><ele>2.6666666666666665</ele><time>2026-04-11T16:33:30Z</time></trkpt><trkpt lat="44.90806967935854" lon="11.84669465315769"><ele>2.8333333333333335</ele><time>2026-04-11T16:33:32Z</time></trkpt><trkpt lat="44.90811050192517" lon="11.846801254786962"><ele>3.0</ele><time>2026-04-11T16:33:34Z</time></trkpt><trkpt lat="44.908147434060496" lon="11.846904302110204"><ele>3.0</ele><time>2026-04-11T16:33:36Z</time></trkpt><trkpt lat="44.908183113401485" lon="11.846993784303702"><ele>3.0</ele><time>2026-04-11T16:33:38Z</time></trkpt><trkpt lat="44.908217447220345" lon="11.847091011343759"><ele>3.0</ele><time>2026-04-11T16:33:40Z</time></trkpt><trkpt lat="44.90826160205252" lon="11.847209118404072"><ele>3.0</ele><time>2026-04-11T16:33:42Z</time></trkpt><trkpt lat="44.908303927104406" lon="11.847326412668531"><ele>3.0</ele><time>2026-04-11T16:33:44Z</time></trkpt><trkpt lat="44.90834551482195" lon="11.847451218278504"><ele>3.0</ele><time>2026-04-11T16:33:46Z</time></trkpt><trkpt lat="44.908384636135864" lon="11.847575563036187"><ele>2.6</ele><time>2026-04-11T16:33:48Z</time></trkpt><trkpt lat="44.90842926598397" lon="11.847694940700903"><ele>2.1999999999999997</ele><time>2026-04-11T16:33:50Z</time></trkpt><trkpt lat="44.90846932101461" lon="11.847820178456432"><ele>1.8</ele><time>2026-04-11T16:33:51.999Z</time></trkpt><trkpt lat="44.9085087472607" lon="11.847946558166331"><ele>1.4</ele><time>2026-04-11T16:33:53.999Z</time></trkpt><trkpt lat="44.90855297337259" lon="11.848069552635133"><ele>1.0</ele><time>2026-04-11T16:33:55.999Z</time></trkpt><trkpt lat="44.90858542278527" lon="11.848196813499143"><ele>1.0</ele><time>2026-04-11T16:33:57.999Z</time></trkpt><trkpt lat="44.90861141608096" lon="11.848329753610718"><ele>1.0</ele><time>2026-04-11T16:33:59.999Z</time></trkpt><trkpt lat="44.90863565049073" lon="11.84846268860823"><ele>1.0</ele><time>2026-04-11T16:34:01.999Z</time></trkpt><trkpt lat="44.90866014195427" lon="11.84859287030938"><ele>1.0</ele><time>2026-04-11T16:34:03.999Z</time></trkpt><trkpt lat="44.9086795277176" lon="11.848729978084187"><ele>1.0</ele><time>2026-04-11T16:34:05.999Z</time></trkpt><trkpt lat="44.908703575614815" lon="11.848862004223788"><ele>1.2000000000000002</ele><time>2026-04-11T16:34:07.999Z</time></trkpt><trkpt lat="44.90872839694643" lon="11.848993217732435"><ele>1.4000000000000001</ele><time>2026-04-11T16:34:09.999Z</time></trkpt><trkpt lat="44.90874526338151" lon="11.84912678465292"><ele>1.6</ele><time>2026-04-11T16:34:11.999Z</time></trkpt><trkpt lat="44.90876736364013" lon="11.849263446792923"><ele>1.8</ele><time>2026-04-11T16:34:13.999Z</time></trkpt><trkpt lat="44.90878796942382" lon="11.849396437057663"><ele>2.0</ele><time>2026-04-11T16:34:15.999Z</time></trkpt><trkpt lat="44.908810227997776" lon="11.849532065601444"><ele>2.0</ele><time>2026-04-11T16:34:17.999Z</time></trkpt><trkpt lat="44.90882830552233" lon="11.849663941352285"><ele>2.0</ele><time>2026-04-11T16:34:19.999Z</time></trkpt><trkpt lat="44.90884648306741" lon="11.849795366744962"><ele>2.0</ele><time>2026-04-11T16:34:21.999Z</time></trkpt><trkpt lat="44.90886302437277" lon="11.849930735379996"><ele>2.0</ele><time>2026-04-11T16:34:23.999Z</time></trkpt><trkpt lat="44.90887554590929" lon="11.850067085164271"><ele>2.0</ele><time>2026-04-11T16:34:25.999Z</time></trkpt><trkpt lat="44.90888985150303" lon="11.85020307398895"><ele>2.0</ele><time>2026-04-11T16:34:27.999Z</time></trkpt><trkpt lat="44.90890301518788" lon="11.850338391734303"><ele>2.0</ele><time>2026-04-11T16:34:29.999Z</time></trkpt><trkpt lat="44.90891541708917" lon="11.850474834921721"><ele>2.0</ele><time>2026-04-11T16:34:31.999Z</time></trkpt><trkpt lat="44.90892537729603" lon="11.85060905131097"><ele>2.0</ele><time>2026-04-11T16:34:33.999Z</time></trkpt><trkpt lat="44.908940517645014" lon="11.85073362829201"><ele>2.0</ele><time>2026-04-11T16:34:35.999Z</time></trkpt><trkpt lat="44.90895065498686" lon="11.850856122705501"><ele>2.1666666666666665</ele><time>2026-04-11T16:34:37.999Z</time></trkpt><trkpt lat="44.90896778313988" lon="11.850989956299074"><ele>2.333333333333333</ele><time>2026-04-11T16:34:39.999Z</time></trkpt><trkpt lat="44.90897865424993" lon="11.851115918045835"><ele>2.5</ele><time>2026-04-11T16:34:41.999Z</time></trkpt><trkpt lat="44.90900758528386" lon="11.85123956199938"><ele>2.6666666666666665</ele><time>2026-04-11T16:34:44Z</time></trkpt><trkpt lat="44.909021291749184" lon="11.851356156082755"><ele>2.8333333333333335</ele><time>2026-04-11T16:34:46Z</time></trkpt><trkpt lat="44.90904028011309" lon="11.851466089339752"><ele>3.0</ele><time>2026-04-11T16:34:48Z</time></trkpt><trkpt lat="44.90905551022623" lon="11.851577952864456"><ele>3.0</ele><time>2026-04-11T16:34:50Z</time></trkpt><trkpt lat="44.909074331894544" lon="11.851694281746912"><ele>3.0</ele><time>2026-04-11T16:34:52Z</time></trkpt><trkpt lat="44.90909625112686" lon="11.851805288242648"><ele>3.0</ele><time>2026-04-11T16:34:54Z</time></trkpt><trkpt lat="44.90912283830914" lon="11.851910446000092"><ele>3.0</ele><time>2026-04-11T16:34:56Z</time></trkpt><trkpt lat="44.90914752907325" lon="11.852010480444566"><ele>3.0</ele><time>2026-04-11T16:34:58Z</time></trkpt><trkpt lat="44.90916944915949" lon="11.852104878378661"><ele>3.0</ele><time>2026-04-11T16:35:00Z</time></trkpt><trkpt lat="44.90918711171894" lon="11.852194873508427"><ele>2.9999999999999996</ele><time>2026-04-11T16:35:02Z</time></trkpt><trkpt lat="44.909207813874595" lon="11.852282275435538"><ele>3.0</ele><time>2026-04-11T16:35:04Z</time></trkpt><trkpt lat="44.90922600240049" lon="11.852369660501763"><ele>3.0</ele><time>2026-04-11T16:35:06Z</time></trkpt><trkpt lat="44.909258794298665" lon="11.852487281394822"><ele>3.0</ele><time>2026-04-11T16:35:09Z</time></trkpt><trkpt lat="44.909285591447286" lon="11.8525934382049"><ele>3.0</ele><time>2026-04-11T16:35:12Z</time></trkpt><trkpt lat="44.90932278047448" lon="11.85268912447236"><ele>2.9999999999999996</ele><time>2026-04-11T16:35:15Z</time></trkpt><trkpt lat="44.90935643729593" lon="11.852777888221167"><ele>3.0</ele><time>2026-04-11T16:35:18Z</time></trkpt><trkpt lat="44.90939281501572" lon="11.85287137969364"><ele>2.8333333333333335</ele><time>2026-04-11T16:35:21Z</time></trkpt><trkpt lat="44.90943852443839" lon="11.852951408314732"><ele>2.6666666666666665</ele><time>2026-04-11T16:35:23Z</time></trkpt><trkpt lat="44.90947785900957" lon="11.853024331091062"><ele>2.5</ele><time>2026-04-11T16:35:25Z</time></trkpt><trkpt lat="44.90952819614827" lon="11.85313045680226"><ele>2.333333333333333</ele><time>2026-04-11T16:35:28Z</time></trkpt><trkpt lat="44.909575376467025" lon="11.853199442180735"><ele>2.1666666666666665</ele><time>2026-04-11T16:35:30Z</time></trkpt><trkpt lat="44.90964183279115" lon="11.853276377323008"><ele>2.0</ele><time>2026-04-11T16:35:32Z</time></trkpt><trkpt lat="44.90970168831211" lon="11.85334515303298"><ele>1.9999999999999998</ele><time>2026-04-11T16:35:34Z</time></trkpt><trkpt lat="44.90975651334626" lon="11.853413555850757"><ele>2.0</ele><time>2026-04-11T16:35:36Z</time></trkpt><trkpt lat="44.909807485452745" lon="11.853475941692158"><ele>2.0</ele><time>2026-04-11T16:35:38Z</time></trkpt><trkpt lat="44.90985684652677" lon="11.853537623443144"><ele>2.0</ele><time>2026-04-11T16:35:40Z</time></trkpt><trkpt lat="44.9099210089302" lon="11.853629799772895"><ele>1.9999999999999998</ele><time>2026-04-11T16:35:43Z</time></trkpt><trkpt lat="44.909987765931874" lon="11.853716479174464"><ele>2.0</ele><time>2026-04-11T16:35:46Z</time></trkpt><trkpt lat="44.910037399488516" lon="11.85377231463285"><ele>1.8</ele><time>2026-04-11T16:35:48Z</time></trkpt><trkpt lat="44.91010863304765" lon="11.853861545136857"><ele>1.6</ele><time>2026-04-11T16:35:50Z</time></trkpt><trkpt lat="44.910182278158295" lon="11.853951717308728"><ele>1.4000000000000001</ele><time>2026-04-11T16:35:52Z</time></trkpt><trkpt lat="44.910258829561876" lon="11.854038249488786"><ele>1.2000000000000002</ele><time>2026-04-11T16:35:54Z</time></trkpt><trkpt lat="44.91032720100734" lon="11.854125072420832"><ele>1.0</ele><time>2026-04-11T16:35:56Z</time></trkpt><trkpt lat="44.91039954992401" lon="11.85420229555256"><ele>1.0</ele><time>2026-04-11T16:35:58Z</time></trkpt><trkpt lat="44.91047057247252" lon="11.854295309038756"><ele>1.0</ele><time>2026-04-11T16:35:59.999Z</time></trkpt><trkpt lat="44.910545735349466" lon="11.85438347102211"><ele>1.0</ele><time>2026-04-11T16:36:01.999Z</time></trkpt><trkpt lat="44.910619915504924" lon="11.854474459252456"><ele>1.0</ele><time>2026-04-11T16:36:03.999Z</time></trkpt><trkpt lat="44.91069588056876" lon="11.854568128090683"><ele>1.0</ele><time>2026-04-11T16:36:05.999Z</time></trkpt><trkpt lat="44.91077217291155" lon="11.854660534933531"><ele>1.0</ele><time>2026-04-11T16:36:07.999Z</time></trkpt><trkpt lat="44.91083876105772" lon="11.8547580154244"><ele>1.0</ele><time>2026-04-11T16:36:09.999Z</time></trkpt><trkpt lat="44.910899872142444" lon="11.854861959031384"><ele>1.0</ele><time>2026-04-11T16:36:11.999Z</time></trkpt><trkpt lat="44.910958324078564" lon="11.85496721319418"><ele>1.0</ele><time>2026-04-11T16:36:13.999Z</time></trkpt><trkpt lat="44.911014737610735" lon="11.855084421991087"><ele>1.0</ele><time>2026-04-11T16:36:15.999Z</time></trkpt><trkpt lat="44.91106280177375" lon="11.85520802979771"><ele>1.4</ele><time>2026-04-11T16:36:17.999Z</time></trkpt><trkpt lat="44.91110276656951" lon="11.855332168288482"><ele>1.8</ele><time>2026-04-11T16:36:19.999Z</time></trkpt><trkpt lat="44.911138506460716" lon="11.855453756423122"><ele>2.1999999999999997</ele><time>2026-04-11T16:36:21.999Z</time></trkpt><trkpt lat="44.91117521707157" lon="11.855582216352776"><ele>2.6</ele><time>2026-04-11T16:36:23.999Z</time></trkpt><trkpt lat="44.91120445382395" lon="11.855712051606043"><ele>3.0</ele><time>2026-04-11T16:36:25.999Z</time></trkpt><trkpt lat="44.911240487333565" lon="11.855837102281981"><ele>2.8</ele><time>2026-04-11T16:36:27.999Z</time></trkpt><trkpt lat="44.91126755740954" lon="11.85596614641748"><ele>2.5999999999999996</ele><time>2026-04-11T16:36:29.999Z</time></trkpt><trkpt lat="44.91130265280891" lon="11.856091452191315"><ele>2.4000000000000004</ele><time>2026-04-11T16:36:31.999Z</time></trkpt><trkpt lat="44.91133915668799" lon="11.856217992806823"><ele>2.2</ele><time>2026-04-11T16:36:33.999Z</time></trkpt><trkpt lat="44.91137442310188" lon="11.85634665172515"><ele>2.0</ele><time>2026-04-11T16:36:35.999Z</time></trkpt><trkpt lat="44.911411771091224" lon="11.856472633972013"><ele>1.9999999999999998</ele><time>2026-04-11T16:36:37.999Z</time></trkpt><trkpt lat="44.91145809487796" lon="11.856589142608104"><ele>2.0</ele><time>2026-04-11T16:36:39.999Z</time></trkpt><trkpt lat="44.91150318256225" lon="11.856695517477082"><ele>2.0</ele><time>2026-04-11T16:36:41.999Z</time></trkpt><trkpt lat="44.911542388672686" lon="11.856803346482469"><ele>2.0</ele><time>2026-04-11T16:36:43.999Z</time></trkpt><trkpt lat="44.91158934296785" lon="11.856898030775954"><ele>1.9999999999999998</ele><time>2026-04-11T16:36:45.999Z</time></trkpt><trkpt lat="44.91163772527757" lon="11.856994718537095"><ele>2.0</ele><time>2026-04-11T16:36:47.999Z</time></trkpt><trkpt lat="44.911687528529555" lon="11.857091734263435"><ele>1.9999999999999998</ele><time>2026-04-11T16:36:50Z</time></trkpt><trkpt lat="44.911739864836896" lon="11.857184802765149"><ele>2.0</ele><time>2026-04-11T16:36:52Z</time></trkpt><trkpt lat="44.91178837643887" lon="11.857280391928462"><ele>2.0</ele><time>2026-04-11T16:36:54Z</time></trkpt><trkpt lat="44.911837073646375" lon="11.857368252582308"><ele>2.0</ele><time>2026-04-11T16:36:56Z</time></trkpt><trkpt lat="44.91188432149132" lon="11.857456573303933"><ele>1.9999999999999998</ele><time>2026-04-11T16:36:58Z</time></trkpt><trkpt lat="44.91193805946847" lon="11.857553804390886"><ele>2.0</ele><time>2026-04-11T16:37:00Z</time></trkpt><trkpt lat="44.91200156254773" lon="11.857659337282637"><ele>2.0</ele><time>2026-04-11T16:37:02Z</time></trkpt><trkpt lat="44.912063161631735" lon="11.857769904984265"><ele>2.0</ele><time>2026-04-11T16:37:04Z</time></trkpt><trkpt lat="44.91212624594704" lon="11.857880695748763"><ele>2.0</ele><time>2026-04-11T16:37:06Z</time></trkpt><trkpt lat="44.91219145505924" lon="11.857990846359813"><ele>2.0</ele><time>2026-04-11T16:37:08Z</time></trkpt><trkpt lat="44.912258596936056" lon="11.858096131001107"><ele>2.0</ele><time>2026-04-11T16:37:10Z</time></trkpt><trkpt lat="44.91232219379073" lon="11.85819872011466"><ele>2.0</ele><time>2026-04-11T16:37:12Z</time></trkpt><trkpt lat="44.91238462029644" lon="11.858294628063204"><ele>2.0</ele><time>2026-04-11T16:37:14Z</time></trkpt><trkpt lat="44.91244921362566" lon="11.858388939244941"><ele>2.0</ele><time>2026-04-11T16:37:16Z</time></trkpt><trkpt lat="44.91251493304958" lon="11.858482919901617"><ele>2.0</ele><time>2026-04-11T16:37:18Z</time></trkpt><trkpt lat="44.91258507202255" lon="11.858577111070158"><ele>2.0</ele><time>2026-04-11T16:37:20Z</time></trkpt><trkpt lat="44.91265182631079" lon="11.858679414758475"><ele>1.8</ele><time>2026-04-11T16:37:22Z</time></trkpt><trkpt lat="44.91272224739189" lon="11.858779201114519"><ele>1.6</ele><time>2026-04-11T16:37:24Z</time></trkpt><trkpt lat="44.9127894702962" lon="11.858878125226262"><ele>1.4000000000000001</ele><time>2026-04-11T16:37:26Z</time></trkpt><trkpt lat="44.912856637892055" lon="11.858973245338351"><ele>1.2000000000000002</ele><time>2026-04-11T16:37:28Z</time></trkpt><trkpt lat="44.91292604432403" lon="11.859071327254552"><ele>1.0</ele><time>2026-04-11T16:37:30Z</time></trkpt><trkpt lat="44.91299551655706" lon="11.859170464825777"><ele>1.0</ele><time>2026-04-11T16:37:32Z</time></trkpt><trkpt lat="44.91306470622202" lon="11.859270191197997"><ele>1.0</ele><time>2026-04-11T16:37:34Z</time></trkpt><trkpt lat="44.913134703109456" lon="11.859366485529238"><ele>1.0</ele><time>2026-04-11T16:37:36Z</time></trkpt><trkpt lat="44.9131988153311" lon="11.85945478456117"><ele>1.0</ele><time>2026-04-11T16:37:38Z</time></trkpt><trkpt lat="44.9132622791427" lon="11.859544804385433"><ele>1.0</ele><time>2026-04-11T16:37:40Z</time></trkpt><trkpt lat="44.913322535443754" lon="11.85963076172746"><ele>1.2000000000000002</ele><time>2026-04-11T16:37:42Z</time></trkpt><trkpt lat="44.9133821778168" lon="11.859716525920648"><ele>1.4000000000000001</ele><time>2026-04-11T16:37:44Z</time></trkpt><trkpt lat="44.91345020711288" lon="11.85981157208874"><ele>1.6</ele><time>2026-04-11T16:37:46Z</time></trkpt><trkpt lat="44.91352434278442" lon="11.859906762303341"><ele>1.8</ele><time>2026-04-11T16:37:48Z</time></trkpt><trkpt lat="44.91359469892215" lon="11.860008556599778"><ele>2.0</ele><time>2026-04-11T16:37:50Z</time></trkpt><trkpt lat="44.913663161533606" lon="11.860110159552576"><ele>2.0</ele><time>2026-04-11T16:37:52Z</time></trkpt><trkpt lat="44.91373174446378" lon="11.860208259658506"><ele>2.0</ele><time>2026-04-11T16:37:54Z</time></trkpt><trkpt lat="44.9138029975251" lon="11.860307809416978"><ele>2.0</ele><time>2026-04-11T16:37:55.999Z</time></trkpt><trkpt lat="44.913868298611575" lon="11.8604109875232"><ele>2.0</ele><time>2026-04-11T16:37:57.999Z</time></trkpt><trkpt lat="44.913942922360235" lon="11.860506285361966"><ele>2.0</ele><time>2026-04-11T16:37:59.999Z</time></trkpt><trkpt lat="44.914011674239454" lon="11.86061014220746"><ele>2.0</ele><time>2026-04-11T16:38:01.999Z</time></trkpt><trkpt lat="44.91408589008105" lon="11.860710313543128"><ele>2.0</ele><time>2026-04-11T16:38:03.999Z</time></trkpt><trkpt lat="44.914157784374346" lon="11.860807761479037"><ele>2.0</ele><time>2026-04-11T16:38:05.999Z</time></trkpt><trkpt lat="44.91422353601169" lon="11.860910344717789"><ele>2.0</ele><time>2026-04-11T16:38:07.999Z</time></trkpt><trkpt lat="44.91429690408248" lon="11.86100414984481"><ele>2.0</ele><time>2026-04-11T16:38:09.999Z</time></trkpt><trkpt lat="44.9143657168777" lon="11.861100818541674"><ele>1.8</ele><time>2026-04-11T16:38:11.999Z</time></trkpt><trkpt lat="44.914427908214236" lon="11.861191204358894"><ele>1.6</ele><time>2026-04-11T16:38:13.999Z</time></trkpt><trkpt lat="44.914490568009576" lon="11.861279707725226"><ele>1.4000000000000001</ele><time>2026-04-11T16:38:15.999Z</time></trkpt><trkpt lat="44.91455834427787" lon="11.861373078751605"><ele>1.2000000000000002</ele><time>2026-04-11T16:38:17.999Z</time></trkpt><trkpt lat="44.91462425872916" lon="11.861464681071675"><ele>1.0</ele><time>2026-04-11T16:38:19.999Z</time></trkpt><trkpt lat="44.914673538091535" lon="11.861567250723793"><ele>0.9999999999999999</ele><time>2026-04-11T16:38:21.999Z</time></trkpt><trkpt lat="44.914729396813954" lon="11.86165060512331"><ele>1.0</ele><time>2026-04-11T16:38:23.999Z</time></trkpt><trkpt lat="44.91477816454444" lon="11.861730877437324"><ele>1.0</ele><time>2026-04-11T16:38:25.999Z</time></trkpt><trkpt lat="44.91481729598943" lon="11.86181177077965"><ele>1.0</ele><time>2026-04-11T16:38:27.999Z</time></trkpt><trkpt lat="44.9148565767188" lon="11.861884462858626"><ele>0.9999999999999999</ele><time>2026-04-11T16:39:35Z</time></trkpt><trkpt lat="44.91489814799747" lon="11.86198995448627"><ele>1.0</ele><time>2026-04-11T16:39:38Z</time></trkpt><trkpt lat="44.9149423658602" lon="11.862074409700943"><ele>0.9999999999999999</ele><time>2026-04-11T16:39:40Z</time></trkpt><trkpt lat="44.91499343444355" lon="11.862179875947039"><ele>1.0</ele><time>2026-04-11T16:39:43Z</time></trkpt><trkpt lat="44.91503247384453" lon="11.862259067401734"><ele>1.0</ele><time>2026-04-11T16:39:45Z</time></trkpt><trkpt lat="44.9150859482991" lon="11.862370234017034"><ele>1.0</ele><time>2026-04-11T16:39:47Z</time></trkpt><trkpt lat="44.915150521477294" lon="11.862463513039868"><ele>0.9999999999999999</ele><time>2026-04-11T16:39:49Z</time></trkpt><trkpt lat="44.9151883472188" lon="11.86256723831116"><ele>1.0</ele><time>2026-04-11T16:39:51Z</time></trkpt><trkpt lat="44.915205053471745" lon="11.862673968675969"><ele>0.6666666666666666</ele><time>2026-04-11T16:39:53Z</time></trkpt><trkpt lat="44.91522995162945" lon="11.86278711190202"><ele>0.3333333333333333</ele><time>2026-04-11T16:39:55Z</time></trkpt><trkpt lat="44.91526994703705" lon="11.862902356058823"><ele>0.0</ele><time>2026-04-11T16:39:57Z</time></trkpt><trkpt lat="44.91529705994488" lon="11.863012008341917"><ele>-0.3333333333333333</ele><time>2026-04-11T16:39:59Z</time></trkpt><trkpt lat="44.915336961659136" lon="11.863110707192359"><ele>-0.6666666666666666</ele><time>2026-04-11T16:40:01Z</time></trkpt><trkpt lat="44.91534394829013" lon="11.863229689026584"><ele>-1.0</ele><time>2026-04-11T16:40:03Z</time></trkpt><trkpt lat="44.91535081780188" lon="11.863349577299415"><ele>-0.6666666666666666</ele><time>2026-04-11T16:40:05Z</time></trkpt><trkpt lat="44.915346335050224" lon="11.86346392586535"><ele>-0.3333333333333333</ele><time>2026-04-11T16:40:06.999Z</time></trkpt><trkpt lat="44.91534785774407" lon="11.863576132557057"><ele>0.0</ele><time>2026-04-11T16:40:08.999Z</time></trkpt><trkpt lat="44.91533606743486" lon="11.863704096384177"><ele>0.3333333333333333</ele><time>2026-04-11T16:40:10.999Z</time></trkpt><trkpt lat="44.915316807842046" lon="11.863838720688278"><ele>0.6666666666666666</ele><time>2026-04-11T16:40:12.999Z</time></trkpt><trkpt lat="44.91530594954418" lon="11.863972076783135"><ele>1.0</ele><time>2026-04-11T16:40:14.999Z</time></trkpt><trkpt lat="44.91529684133216" lon="11.864106250390735"><ele>0.9999999999999999</ele><time>2026-04-11T16:40:16.999Z</time></trkpt><trkpt lat="44.91527988727121" lon="11.864230305543717"><ele>1.0</ele><time>2026-04-11T16:40:18.999Z</time></trkpt><trkpt lat="44.915281514176804" lon="11.864350658456104"><ele>1.0</ele><time>2026-04-11T16:40:20.999Z</time></trkpt><trkpt lat="44.91525901062413" lon="11.864456793302267"><ele>1.0</ele><time>2026-04-11T16:40:22.999Z</time></trkpt><trkpt lat="44.91524843255021" lon="11.86457017241323"><ele>0.9999999999999999</ele><time>2026-04-11T16:40:24.999Z</time></trkpt><trkpt lat="44.9152419863056" lon="11.8647040774156"><ele>1.0</ele><time>2026-04-11T16:40:26.999Z</time></trkpt><trkpt lat="44.915235182155214" lon="11.864840878036826"><ele>1.1666666666666665</ele><time>2026-04-11T16:40:28.999Z</time></trkpt><trkpt lat="44.91523302728652" lon="11.864979646087164"><ele>1.3333333333333333</ele><time>2026-04-11T16:40:30.999Z</time></trkpt><trkpt lat="44.915219913034186" lon="11.86510427484231"><ele>1.5</ele><time>2026-04-11T16:40:32.999Z</time></trkpt><trkpt lat="44.91521082887015" lon="11.865222696864315"><ele>1.6666666666666665</ele><time>2026-04-11T16:40:34.999Z</time></trkpt><trkpt lat="44.91520334207982" lon="11.865341501773885"><ele>1.8333333333333333</ele><time>2026-04-11T16:40:36.999Z</time></trkpt><trkpt lat="44.91519460658843" lon="11.865449698332302"><ele>2.0</ele><time>2026-04-11T16:40:38.999Z</time></trkpt><trkpt lat="44.915192869518954" lon="11.865578234487224"><ele>1.9999999999999998</ele><time>2026-04-11T16:40:40.999Z</time></trkpt><trkpt lat="44.91517560515983" lon="11.86570195987498"><ele>2.0</ele><time>2026-04-11T16:40:42.999Z</time></trkpt><trkpt lat="44.91517926229518" lon="11.865816144828054"><ele>2.0</ele><time>2026-04-11T16:40:44.999Z</time></trkpt><trkpt lat="44.91517539138487" lon="11.865931286391778"><ele>2.0</ele><time>2026-04-11T16:40:46.999Z</time></trkpt><trkpt lat="44.915183044627256" lon="11.866052623655625"><ele>1.9999999999999998</ele><time>2026-04-11T16:40:48.999Z</time></trkpt><trkpt lat="44.91519476164388" lon="11.866163879316538"><ele>2.0</ele><time>2026-04-11T16:40:50.999Z</time></trkpt><trkpt lat="44.91521143768358" lon="11.866290451557695"><ele>2.0</ele><time>2026-04-11T16:40:52.999Z</time></trkpt><trkpt lat="44.91524125737012" lon="11.866411608526564"><ele>2.0</ele><time>2026-04-11T16:40:54.999Z</time></trkpt><trkpt lat="44.91527961564569" lon="11.866541583522913"><ele>2.0</ele><time>2026-04-11T16:40:56.999Z</time></trkpt><trkpt lat="44.91533947990751" lon="11.86665884183437"><ele>2.0</ele><time>2026-04-11T16:40:58.999Z</time></trkpt><trkpt lat="44.91540291627987" lon="11.866758056619807"><ele>2.0</ele><time>2026-04-11T16:41:01Z</time></trkpt><trkpt lat="44.9154728327193" lon="11.866856629740974"><ele>2.0</ele><time>2026-04-11T16:41:03Z</time></trkpt><trkpt lat="44.91554760114661" lon="11.866944682460119"><ele>2.0</ele><time>2026-04-11T16:41:05Z</time></trkpt><trkpt lat="44.915622663344124" lon="11.867031040905767"><ele>2.0</ele><time>2026-04-11T16:41:07Z</time></trkpt><trkpt lat="44.915697039031684" lon="11.867118699203074"><ele>2.0</ele><time>2026-04-11T16:41:09Z</time></trkpt><trkpt lat="44.91576130703653" lon="11.86720512168833"><ele>2.0</ele><time>2026-04-11T16:41:11Z</time></trkpt><trkpt lat="44.91583730279575" lon="11.867282809078228"><ele>1.9999999999999998</ele><time>2026-04-11T16:41:13Z</time></trkpt><trkpt lat="44.9159018177581" lon="11.867361948729176"><ele>2.0</ele><time>2026-04-11T16:41:15Z</time></trkpt><trkpt lat="44.915961351528665" lon="11.86743978349224"><ele>2.0</ele><time>2026-04-11T16:41:17Z</time></trkpt><trkpt lat="44.916034373313146" lon="11.867504207397753"><ele>2.0</ele><time>2026-04-11T16:41:19Z</time></trkpt><trkpt lat="44.91610805171349" lon="11.867591474928837"><ele>1.9999999999999998</ele><time>2026-04-11T16:41:21Z</time></trkpt><trkpt lat="44.916180697224" lon="11.867671213766622"><ele>2.0</ele><time>2026-04-11T16:41:23Z</time></trkpt><trkpt lat="44.9162509903097" lon="11.86774004929256"><ele>1.9999999999999998</ele><time>2026-04-11T16:41:25Z</time></trkpt><trkpt lat="44.91631174571292" lon="11.867810798877157"><ele>2.0</ele><time>2026-04-11T16:41:27Z</time></trkpt><trkpt lat="44.91637677186402" lon="11.867880733580472"><ele>2.0</ele><time>2026-04-11T16:41:29Z</time></trkpt><trkpt lat="44.9164458744331" lon="11.867956197761574"><ele>2.0</ele><time>2026-04-11T16:41:31Z</time></trkpt><trkpt lat="44.91650933954812" lon="11.868044383696128"><ele>1.9999999999999998</ele><time>2026-04-11T16:41:33Z</time></trkpt><trkpt lat="44.91659013911899" lon="11.86812761836168"><ele>2.0</ele><time>2026-04-11T16:41:35Z</time></trkpt><trkpt lat="44.91666303921235" lon="11.868215460375788"><ele>1.9999999999999998</ele><time>2026-04-11T16:41:37Z</time></trkpt><trkpt lat="44.91673333778562" lon="11.868293632560373"><ele>2.0</ele><time>2026-04-11T16:41:39Z</time></trkpt><trkpt lat="44.916801246603335" lon="11.868365787325756"><ele>2.0</ele><time>2026-04-11T16:41:41Z</time></trkpt><trkpt lat="44.91686894772216" lon="11.868440430090564"><ele>2.0</ele><time>2026-04-11T16:41:43Z</time></trkpt><trkpt lat="44.91692286775469" lon="11.868523997325367"><ele>1.9999999999999998</ele><time>2026-04-11T16:41:45Z</time></trkpt><trkpt lat="44.9169334974919" lon="11.868632280808153"><ele>2.0</ele><time>2026-04-11T16:41:47Z</time></trkpt><trkpt lat="44.916887446164445" lon="11.868713331417544"><ele>1.8333333333333333</ele><time>2026-04-11T16:41:49Z</time></trkpt><trkpt lat="44.916852072147826" lon="11.868807510563103"><ele>1.6666666666666665</ele><time>2026-04-11T16:41:51Z</time></trkpt><trkpt lat="44.9167890445175" lon="11.868902215117055"><ele>1.5</ele><time>2026-04-11T16:41:53Z</time></trkpt><trkpt lat="44.91672907893846" lon="11.869005836874017"><ele>1.3333333333333333</ele><time>2026-04-11T16:41:55Z</time></trkpt><trkpt lat="44.91667180520849" lon="11.86910695071967"><ele>1.1666666666666665</ele><time>2026-04-11T16:41:57Z</time></trkpt><trkpt lat="44.91661247542711" lon="11.86920814050551"><ele>1.0</ele><time>2026-04-11T16:41:59Z</time></trkpt><trkpt lat="44.91655647939199" lon="11.869301268125101"><ele>0.8333333333333333</ele><time>2026-04-11T16:42:01Z</time></trkpt><trkpt lat="44.91650262952604" lon="11.869400249701338"><ele>0.6666666666666666</ele><time>2026-04-11T16:42:03Z</time></trkpt><trkpt lat="44.91644936738788" lon="11.869487920167384"><ele>0.5</ele><time>2026-04-11T16:42:05Z</time></trkpt><trkpt lat="44.91639807743652" lon="11.86957913952453"><ele>0.3333333333333333</ele><time>2026-04-11T16:42:06.999Z</time></trkpt><trkpt lat="44.916344236656045" lon="11.86967990343126"><ele>0.16666666666666666</ele><time>2026-04-11T16:42:08.999Z</time></trkpt><trkpt lat="44.91628375122655" lon="11.869790501758082"><ele>0.0</ele><time>2026-04-11T16:42:10.999Z</time></trkpt><trkpt lat="44.916222703860576" lon="11.8698982760276"><ele>0.0</ele><time>2026-04-11T16:42:12.999Z</time></trkpt><trkpt lat="44.91617568009206" lon="11.87001026223635"><ele>0.0</ele><time>2026-04-11T16:42:14.999Z</time></trkpt><trkpt lat="44.91611494667181" lon="11.870102314379265"><ele>0.0</ele><time>2026-04-11T16:42:16.999Z</time></trkpt><trkpt lat="44.916065389902464" lon="11.87019239446146"><ele>0.0</ele><time>2026-04-11T16:42:18.999Z</time></trkpt><trkpt lat="44.916005485129816" lon="11.870279805914976"><ele>0.0</ele><time>2026-04-11T16:42:20.999Z</time></trkpt><trkpt lat="44.915935601157656" lon="11.870377181361613"><ele>0.0</ele><time>2026-04-11T16:42:22.999Z</time></trkpt><trkpt lat="44.915859987086435" lon="11.870472779345574"><ele>0.2</ele><time>2026-04-11T16:42:24.999Z</time></trkpt><trkpt lat="44.9157808223942" lon="11.870544931427078"><ele>0.4</ele><time>2026-04-11T16:42:26.999Z</time></trkpt><trkpt lat="44.91569017979286" lon="11.870598456158092"><ele>0.6000000000000001</ele><time>2026-04-11T16:42:28.999Z</time></trkpt><trkpt lat="44.915601875710685" lon="11.87065780751182"><ele>0.8</ele><time>2026-04-11T16:42:30.999Z</time></trkpt><trkpt lat="44.915513434847384" lon="11.870713806756626"><ele>1.0</ele><time>2026-04-11T16:42:32.999Z</time></trkpt><trkpt lat="44.915425965787435" lon="11.870772213945823"><ele>1.0</ele><time>2026-04-11T16:42:34.999Z</time></trkpt><trkpt lat="44.91533499884629" lon="11.870825921266137"><ele>1.0</ele><time>2026-04-11T16:42:36.999Z</time></trkpt><trkpt lat="44.915245041460295" lon="11.870885457880721"><ele>1.0</ele><time>2026-04-11T16:42:38.999Z</time></trkpt><trkpt lat="44.91515559375333" lon="11.870944731686095"><ele>1.0</ele><time>2026-04-11T16:42:40.999Z</time></trkpt><trkpt lat="44.91506563095291" lon="11.87099572536974"><ele>1.0</ele><time>2026-04-11T16:42:42.999Z</time></trkpt><trkpt lat="44.9149801216773" lon="11.871054698056806"><ele>1.4</ele><time>2026-04-11T16:42:44.999Z</time></trkpt><trkpt lat="44.914893842765075" lon="11.871120856935235"><ele>1.8</ele><time>2026-04-11T16:42:46.999Z</time></trkpt><trkpt lat="44.91481117782676" lon="11.871181266543015"><ele>2.1999999999999997</ele><time>2026-04-11T16:42:48.999Z</time></trkpt><trkpt lat="44.91472968143844" lon="11.871265471899834"><ele>2.6</ele><time>2026-04-11T16:42:50.999Z</time></trkpt><trkpt lat="44.91465344331719" lon="11.871352011359065"><ele>3.0</ele><time>2026-04-11T16:42:52.999Z</time></trkpt><trkpt lat="44.914578903298626" lon="11.871439519196928"><ele>3.0</ele><time>2026-04-11T16:42:54.999Z</time></trkpt><trkpt lat="44.9145064656333" lon="11.87152925498217"><ele>3.0</ele><time>2026-04-11T16:42:56.999Z</time></trkpt><trkpt lat="44.91443834934921" lon="11.871624631674011"><ele>3.0</ele><time>2026-04-11T16:42:58.999Z</time></trkpt><trkpt lat="44.914370788312254" lon="11.87172230889396"><ele>3.0</ele><time>2026-04-11T16:43:00.999Z</time></trkpt><trkpt lat="44.91430465399149" lon="11.871826242805597"><ele>3.0</ele><time>2026-04-11T16:43:02.999Z</time></trkpt><trkpt lat="44.914245938460155" lon="11.871936256197738"><ele>3.0</ele><time>2026-04-11T16:43:04.999Z</time></trkpt><trkpt lat="44.91419156159102" lon="11.87204474700081"><ele>3.0</ele><time>2026-04-11T16:43:07Z</time></trkpt><trkpt lat="44.91414637279188" lon="11.872141849234831"><ele>3.0</ele><time>2026-04-11T16:43:09Z</time></trkpt><trkpt lat="44.9141045246445" lon="11.872237495803242"><ele>3.0</ele><time>2026-04-11T16:43:11Z</time></trkpt><trkpt lat="44.91406444878884" lon="11.872345600025726"><ele>3.0</ele><time>2026-04-11T16:43:13Z</time></trkpt><trkpt lat="44.91402565812794" lon="11.872452447294933"><ele>3.0</ele><time>2026-04-11T16:43:15Z</time></trkpt><trkpt lat="44.913984979487736" lon="11.872546708341172"><ele>3.0</ele><time>2026-04-11T16:43:17Z</time></trkpt><trkpt lat="44.913942704752365" lon="11.87264101188931"><ele>3.0</ele><time>2026-04-11T16:43:19Z</time></trkpt><trkpt lat="44.913899047468675" lon="11.872736542134248"><ele>3.0</ele><time>2026-04-11T16:43:21Z</time></trkpt><trkpt lat="44.91386368457923" lon="11.872836346668738"><ele>3.0</ele><time>2026-04-11T16:43:23Z</time></trkpt><trkpt lat="44.91381019445633" lon="11.872945900026359"><ele>3.0</ele><time>2026-04-11T16:43:25Z</time></trkpt><trkpt lat="44.91375867507939" lon="11.873056950967754"><ele>3.0</ele><time>2026-04-11T16:43:27Z</time></trkpt><trkpt lat="44.91370364364163" lon="11.873169715678586"><ele>3.0</ele><time>2026-04-11T16:43:29Z</time></trkpt><trkpt lat="44.91364585580759" lon="11.87327894339687"><ele>3.0</ele><time>2026-04-11T16:43:31Z</time></trkpt><trkpt lat="44.913581970536384" lon="11.873376355789546"><ele>3.0</ele><time>2026-04-11T16:43:33Z</time></trkpt><trkpt lat="44.91351606063964" lon="11.873476199483004"><ele>3.0</ele><time>2026-04-11T16:43:35Z</time></trkpt><trkpt lat="44.91344349457176" lon="11.873563873312127"><ele>3.0</ele><time>2026-04-11T16:43:37Z</time></trkpt><trkpt lat="44.91337073483618" lon="11.873654975352531"><ele>2.4</ele><time>2026-04-11T16:43:39Z</time></trkpt><trkpt lat="44.91329698020583" lon="11.873742502065348"><ele>1.7999999999999998</ele><time>2026-04-11T16:43:41Z</time></trkpt><trkpt lat="44.913223226076944" lon="11.87383074133286"><ele>1.2</ele><time>2026-04-11T16:43:43Z</time></trkpt><trkpt lat="44.9131481888627" lon="11.873918233980467"><ele>0.6</ele><time>2026-04-11T16:43:45Z</time></trkpt><trkpt lat="44.91307245786196" lon="11.874006072710868"><ele>0.0</ele><time>2026-04-11T16:43:47Z</time></trkpt><trkpt lat="44.912999728768256" lon="11.874095977449041"><ele>0.0</ele><time>2026-04-11T16:43:49Z</time></trkpt><trkpt lat="44.912923888115216" lon="11.874180691870894"><ele>0.0</ele><time>2026-04-11T16:43:51Z</time></trkpt><trkpt lat="44.91284835389468" lon="11.87426560313708"><ele>0.0</ele><time>2026-04-11T16:43:53Z</time></trkpt><trkpt lat="44.912775727012374" lon="11.874351882260346"><ele>0.0</ele><time>2026-04-11T16:43:55Z</time></trkpt><trkpt lat="44.91270284584416" lon="11.874436770146385"><ele>0.0</ele><time>2026-04-11T16:43:57Z</time></trkpt><trkpt lat="44.91262839230392" lon="11.874522205508553"><ele>-0.2</ele><time>2026-04-11T16:43:59Z</time></trkpt><trkpt lat="44.912556587560495" lon="11.87461370696239"><ele>-0.4</ele><time>2026-04-11T16:44:01Z</time></trkpt><trkpt lat="44.91248806234856" lon="11.874713633037988"><ele>-0.6000000000000001</ele><time>2026-04-11T16:44:03Z</time></trkpt><trkpt lat="44.91242478949975" lon="11.874814050965767"><ele>-0.8</ele><time>2026-04-11T16:44:05Z</time></trkpt><trkpt lat="44.91236841168385" lon="11.874911447410192"><ele>-1.0</ele><time>2026-04-11T16:44:07Z</time></trkpt><trkpt lat="44.91231059599922" lon="11.875011872852134"><ele>-0.8333333333333333</ele><time>2026-04-11T16:44:09Z</time></trkpt><trkpt lat="44.912263485395925" lon="11.875107951954442"><ele>-0.6666666666666666</ele><time>2026-04-11T16:44:11Z</time></trkpt><trkpt lat="44.91221319252758" lon="11.87520292002232"><ele>-0.5</ele><time>2026-04-11T16:44:13Z</time></trkpt><trkpt lat="44.91216825140445" lon="11.875301095317521"><ele>-0.3333333333333333</ele><time>2026-04-11T16:44:15Z</time></trkpt><trkpt lat="44.912120305338846" lon="11.875404964542932"><ele>-0.16666666666666666</ele><time>2026-04-11T16:44:17Z</time></trkpt><trkpt lat="44.91207350160492" lon="11.875525581306755"><ele>0.0</ele><time>2026-04-11T16:44:19Z</time></trkpt><trkpt lat="44.91203871632424" lon="11.875647654061824"><ele>0.0</ele><time>2026-04-11T16:44:21Z</time></trkpt><trkpt lat="44.91201861381804" lon="11.875767905927708"><ele>0.0</ele><time>2026-04-11T16:44:23Z</time></trkpt><trkpt lat="44.91200601210674" lon="11.8758878039724"><ele>0.0</ele><time>2026-04-11T16:44:25Z</time></trkpt><trkpt lat="44.9120091416409" lon="11.876001053774603"><ele>0.0</ele><time>2026-04-11T16:44:26.999Z</time></trkpt><trkpt lat="44.91201904480557" lon="11.876109767251755"><ele>0.0</ele><time>2026-04-11T16:44:28.999Z</time></trkpt><trkpt lat="44.91203259438325" lon="11.876222581823264"><ele>0.0</ele><time>2026-04-11T16:44:30.999Z</time></trkpt><trkpt lat="44.91204908344047" lon="11.876337631915057"><ele>0.0</ele><time>2026-04-11T16:44:32.999Z</time></trkpt><trkpt lat="44.9120633037549" lon="11.876455632674265"><ele>0.0</ele><time>2026-04-11T16:44:34.999Z</time></trkpt><trkpt lat="44.91207718902053" lon="11.876573236425832"><ele>0.0</ele><time>2026-04-11T16:44:36.999Z</time></trkpt><trkpt lat="44.91208894314194" lon="11.876690595465082"><ele>0.0</ele><time>2026-04-11T16:44:38.999Z</time></trkpt><trkpt lat="44.91210022609613" lon="11.876817484451218"><ele>0.0</ele><time>2026-04-11T16:44:40.999Z</time></trkpt><trkpt lat="44.91210617146418" lon="11.876955603541647"><ele>0.0</ele><time>2026-04-11T16:44:42.999Z</time></trkpt><trkpt lat="44.91211315990936" lon="11.87709187047846"><ele>0.0</ele><time>2026-04-11T16:44:44.999Z</time></trkpt><trkpt lat="44.912123641894375" lon="11.877230765179151"><ele>0.0</ele><time>2026-04-11T16:44:46.999Z</time></trkpt><trkpt lat="44.912126580268925" lon="11.877368482516134"><ele>0.0</ele><time>2026-04-11T16:44:48.999Z</time></trkpt><trkpt lat="44.91212127491695" lon="11.877495945902272"><ele>0.0</ele><time>2026-04-11T16:44:50.999Z</time></trkpt><trkpt lat="44.912121453099104" lon="11.877629659363734"><ele>0.0</ele><time>2026-04-11T16:44:52.999Z</time></trkpt><trkpt lat="44.912119933172775" lon="11.877769852629708"><ele>0.0</ele><time>2026-04-11T16:44:54.999Z</time></trkpt><trkpt lat="44.912119279452305" lon="11.877906526810097"><ele>0.0</ele><time>2026-04-11T16:44:56.999Z</time></trkpt><trkpt lat="44.91211664841571" lon="11.87804341972081"><ele>0.0</ele><time>2026-04-11T16:44:58.999Z</time></trkpt><trkpt lat="44.91212940062157" lon="11.878181262198753"><ele>0.0</ele><time>2026-04-11T16:45:00.999Z</time></trkpt><trkpt lat="44.912155322812815" lon="11.878314499130814"><ele>0.0</ele><time>2026-04-11T16:45:02.999Z</time></trkpt><trkpt lat="44.912199293414595" lon="11.87843805677541"><ele>-0.2</ele><time>2026-04-11T16:45:04.999Z</time></trkpt><trkpt lat="44.91224483483912" lon="11.878564836783395"><ele>-0.4</ele><time>2026-04-11T16:45:06.999Z</time></trkpt><trkpt lat="44.912291140561834" lon="11.878687719356119"><ele>-0.6000000000000001</ele><time>2026-04-11T16:45:08.999Z</time></trkpt><trkpt lat="44.912339412506334" lon="11.878812058331905"><ele>-0.8</ele><time>2026-04-11T16:45:10.999Z</time></trkpt><trkpt lat="44.912376877354035" lon="11.878942344559412"><ele>-1.0</ele><time>2026-04-11T16:45:13Z</time></trkpt><trkpt lat="44.9124064306138" lon="11.879064966486416"><ele>-0.9999999999999999</ele><time>2026-04-11T16:45:15Z</time></trkpt><trkpt lat="44.912421623566104" lon="11.8791923234538"><ele>-1.0</ele><time>2026-04-11T16:45:17Z</time></trkpt><trkpt lat="44.91243077301884" lon="11.879309439549456"><ele>-1.0</ele><time>2026-04-11T16:45:19Z</time></trkpt><trkpt lat="44.91243373751338" lon="11.879430493806012"><ele>-1.0</ele><time>2026-04-11T16:45:21Z</time></trkpt><trkpt lat="44.91242866822822" lon="11.879546743502495"><ele>-0.9999999999999999</ele><time>2026-04-11T16:45:23Z</time></trkpt><trkpt lat="44.91241639924768" lon="11.879660273393384"><ele>-1.0</ele><time>2026-04-11T16:45:25Z</time></trkpt><trkpt lat="44.91239443258812" lon="11.879783057335034"><ele>-1.0</ele><time>2026-04-11T16:45:27Z</time></trkpt><trkpt lat="44.912373052926235" lon="11.87991456503638"><ele>-1.0</ele><time>2026-04-11T16:45:29Z</time></trkpt><trkpt lat="44.91234501235969" lon="11.880044152508313"><ele>-1.0</ele><time>2026-04-11T16:45:31Z</time></trkpt><trkpt lat="44.91231172852992" lon="11.880175486193336"><ele>-1.0</ele><time>2026-04-11T16:45:33Z</time></trkpt><trkpt lat="44.912276673235084" lon="11.880299971411585"><ele>-1.0</ele><time>2026-04-11T16:45:35Z</time></trkpt><trkpt lat="44.91224295504311" lon="11.880425704113454"><ele>-0.9999999999999999</ele><time>2026-04-11T16:45:37Z</time></trkpt><trkpt lat="44.912215675183845" lon="11.880535040453761"><ele>-1.0</ele><time>2026-04-11T16:45:39Z</time></trkpt><trkpt lat="44.9121863780716" lon="11.880641925403767"><ele>-1.0</ele><time>2026-04-11T16:45:41Z</time></trkpt><trkpt lat="44.91215792297431" lon="11.880747700695986"><ele>-1.0</ele><time>2026-04-11T16:45:43Z</time></trkpt><trkpt lat="44.912127839026425" lon="11.88085425738263"><ele>-0.9999999999999999</ele><time>2026-04-11T16:45:45Z</time></trkpt><trkpt lat="44.912098614830064" lon="11.880961878779175"><ele>-1.0</ele><time>2026-04-11T16:45:47Z</time></trkpt><trkpt lat="44.91206823706484" lon="11.88106018243492"><ele>-0.9999999999999999</ele><time>2026-04-11T16:45:49Z</time></trkpt><trkpt lat="44.91203661959229" lon="11.881172521115975"><ele>-1.0</ele><time>2026-04-11T16:45:51Z</time></trkpt><trkpt lat="44.912002125829936" lon="11.881277370366947"><ele>-1.0</ele><time>2026-04-11T16:45:53Z</time></trkpt><trkpt lat="44.91196093865989" lon="11.881383425594452"><ele>-1.0</ele><time>2026-04-11T16:45:55Z</time></trkpt><trkpt lat="44.911924455033216" lon="11.881488720525985"><ele>-0.9999999999999999</ele><time>2026-04-11T16:45:57Z</time></trkpt><trkpt lat="44.91188655100775" lon="11.88160193624313"><ele>-1.0</ele><time>2026-04-11T16:45:59Z</time></trkpt><trkpt lat="44.91184457564716" lon="11.881709260130695"><ele>-1.0</ele><time>2026-04-11T16:46:01Z</time></trkpt><trkpt lat="44.911802185466065" lon="11.881803116192835"><ele>-1.0</ele><time>2026-04-11T16:46:03Z</time></trkpt><trkpt lat="44.91175457665057" lon="11.8819149791749"><ele>-1.0</ele><time>2026-04-11T16:46:05Z</time></trkpt><trkpt lat="44.91170767691368" lon="11.882027153359196"><ele>-1.0</ele><time>2026-04-11T16:46:07Z</time></trkpt><trkpt lat="44.911658089485506" lon="11.882140989163494"><ele>-1.0</ele><time>2026-04-11T16:46:09Z</time></trkpt><trkpt lat="44.911610365730986" lon="11.882258553363519"><ele>-0.9999999999999999</ele><time>2026-04-11T16:46:11Z</time></trkpt><trkpt lat="44.91156216305811" lon="11.882374799745024"><ele>-1.0</ele><time>2026-04-11T16:46:13Z</time></trkpt><trkpt lat="44.91151895569417" lon="11.882492863321712"><ele>-1.0</ele><time>2026-04-11T16:46:15Z</time></trkpt><trkpt lat="44.91147118961538" lon="11.882603291646364"><ele>-1.0</ele><time>2026-04-11T16:46:17Z</time></trkpt><trkpt lat="44.91142583944131" lon="11.882706519802097"><ele>-0.9999999999999999</ele><time>2026-04-11T16:46:19Z</time></trkpt><trkpt lat="44.911382986568064" lon="11.882803657055543"><ele>-1.0</ele><time>2026-04-11T16:46:21Z</time></trkpt><trkpt lat="44.911336885185825" lon="11.88289873856468"><ele>-0.9999999999999999</ele><time>2026-04-11T16:46:22.999Z</time></trkpt><trkpt lat="44.91128352807233" lon="11.883001289772375"><ele>-1.0</ele><time>2026-04-11T16:46:24.999Z</time></trkpt><trkpt lat="44.91122403433878" lon="11.883080002731319"><ele>-1.0</ele><time>2026-04-11T16:46:26.999Z</time></trkpt><trkpt lat="44.91115641332471" lon="11.883163552728915"><ele>-1.0</ele><time>2026-04-11T16:46:28.999Z</time></trkpt><trkpt lat="44.911085213005514" lon="11.883243203778017"><ele>-0.9999999999999999</ele><time>2026-04-11T16:46:30.999Z</time></trkpt><trkpt lat="44.911011525950954" lon="11.883329710532314"><ele>-1.0</ele><time>2026-04-11T16:46:32.999Z</time></trkpt><trkpt lat="44.91094226482494" lon="11.883402757430336"><ele>-1.1666666666666665</ele><time>2026-04-11T16:46:34.999Z</time></trkpt><trkpt lat="44.91087523744002" lon="11.883475720637739"><ele>-1.3333333333333333</ele><time>2026-04-11T16:46:36.999Z</time></trkpt><trkpt lat="44.910810202595776" lon="11.883545761784275"><ele>-1.5</ele><time>2026-04-11T16:46:38.999Z</time></trkpt><trkpt lat="44.91074527783349" lon="11.88361851773093"><ele>-1.6666666666666665</ele><time>2026-04-11T16:46:40.999Z</time></trkpt><trkpt lat="44.91068346248138" lon="11.883689041894684"><ele>-1.8333333333333333</ele><time>2026-04-11T16:46:42.999Z</time></trkpt><trkpt lat="44.910618821515264" lon="11.883760061021984"><ele>-2.0</ele><time>2026-04-11T16:46:44.999Z</time></trkpt><trkpt lat="44.91056373702899" lon="11.883831541769279"><ele>-1.9999999999999998</ele><time>2026-04-11T16:46:46.999Z</time></trkpt><trkpt lat="44.910513701246316" lon="11.883895174873517"><ele>-2.0</ele><time>2026-04-11T16:46:48.999Z</time></trkpt><trkpt lat="44.91044734759258" lon="11.883971272749504"><ele>-2.0</ele><time>2026-04-11T16:46:51.999Z</time></trkpt><trkpt lat="44.91037256941765" lon="11.884026635672209"><ele>-2.0</ele><time>2026-04-11T16:46:54.999Z</time></trkpt><trkpt lat="44.910313876254214" lon="11.884100837612328"><ele>-1.9999999999999998</ele><time>2026-04-11T16:46:56.999Z</time></trkpt><trkpt lat="44.91025156101728" lon="11.884167847002828"><ele>-2.0</ele><time>2026-04-11T16:46:58.999Z</time></trkpt><trkpt lat="44.91019221083125" lon="11.884242487812925"><ele>-1.6</ele><time>2026-04-11T16:47:00.999Z</time></trkpt><trkpt lat="44.91012448195141" lon="11.884328507308892"><ele>-1.2000000000000002</ele><time>2026-04-11T16:47:02.999Z</time></trkpt><trkpt lat="44.910055135636526" lon="11.88441874913581"><ele>-0.8</ele><time>2026-04-11T16:47:04.999Z</time></trkpt><trkpt lat="44.909987555262894" lon="11.884512391802849"><ele>-0.4</ele><time>2026-04-11T16:47:06.999Z</time></trkpt><trkpt lat="44.90992104171461" lon="11.884611387097408"><ele>0.0</ele><time>2026-04-11T16:47:08.999Z</time></trkpt><trkpt lat="44.90986260700639" lon="11.88470407830619"><ele>0.2</ele><time>2026-04-11T16:47:10.999Z</time></trkpt><trkpt lat="44.90980508946227" lon="11.884791951840805"><ele>0.4</ele><time>2026-04-11T16:47:12.999Z</time></trkpt><trkpt lat="44.9097431524108" lon="11.88489255041643"><ele>0.6000000000000001</ele><time>2026-04-11T16:47:14.999Z</time></trkpt><trkpt lat="44.9096776874087" lon="11.88499673369713"><ele>0.8</ele><time>2026-04-11T16:47:16.999Z</time></trkpt><trkpt lat="44.909610168243226" lon="11.885102721786057"><ele>1.0</ele><time>2026-04-11T16:47:19Z</time></trkpt><trkpt lat="44.90954223993615" lon="11.885206156748154"><ele>1.0</ele><time>2026-04-11T16:47:21Z</time></trkpt><trkpt lat="44.90947847943174" lon="11.885313332157859"><ele>1.0</ele><time>2026-04-11T16:47:23Z</time></trkpt><trkpt lat="44.90941687159484" lon="11.885412085641219"><ele>1.0</ele><time>2026-04-11T16:47:25Z</time></trkpt><trkpt lat="44.90935726511909" lon="11.885497708958829"><ele>1.0</ele><time>2026-04-11T16:47:27Z</time></trkpt><trkpt lat="44.909299195036" lon="11.885587478643366"><ele>1.0</ele><time>2026-04-11T16:47:29Z</time></trkpt><trkpt lat="44.909237356030886" lon="11.885684729043469"><ele>0.8333333333333333</ele><time>2026-04-11T16:47:31Z</time></trkpt><trkpt lat="44.90917661938979" lon="11.885775133054073"><ele>0.6666666666666666</ele><time>2026-04-11T16:47:33Z</time></trkpt><trkpt lat="44.909118348831534" lon="11.885867707513746"><ele>0.5</ele><time>2026-04-11T16:47:35Z</time></trkpt><trkpt lat="44.909065279524036" lon="11.885956489737204"><ele>0.3333333333333333</ele><time>2026-04-11T16:47:37Z</time></trkpt><trkpt lat="44.909008746043554" lon="11.886042515030086"><ele>0.16666666666666666</ele><time>2026-04-11T16:47:39Z</time></trkpt><trkpt lat="44.9089522343961" lon="11.886130902502048"><ele>0.0</ele><time>2026-04-11T16:47:41Z</time></trkpt><trkpt lat="44.90889740538094" lon="11.886219788044045"><ele>0.0</ele><time>2026-04-11T16:47:43Z</time></trkpt><trkpt lat="44.90884099714221" lon="11.886325534266707"><ele>0.0</ele><time>2026-04-11T16:47:45Z</time></trkpt><trkpt lat="44.90879503285932" lon="11.88643899021836"><ele>0.0</ele><time>2026-04-11T16:47:47Z</time></trkpt><trkpt lat="44.90876525704473" lon="11.886565172634045"><ele>0.0</ele><time>2026-04-11T16:47:49Z</time></trkpt><trkpt lat="44.908752227616446" lon="11.886684902893547"><ele>0.0</ele><time>2026-04-11T16:47:51Z</time></trkpt><trkpt lat="44.908755340310115" lon="11.886810695211226"><ele>0.0</ele><time>2026-04-11T16:47:53Z</time></trkpt><trkpt lat="44.908769894962326" lon="11.88694786959121"><ele>0.0</ele><time>2026-04-11T16:47:55Z</time></trkpt><trkpt lat="44.90878935986727" lon="11.887084583668589"><ele>0.0</ele><time>2026-04-11T16:47:57Z</time></trkpt><trkpt lat="44.908818569510366" lon="11.887223869236522"><ele>0.0</ele><time>2026-04-11T16:47:59Z</time></trkpt><trkpt lat="44.90884213366794" lon="11.887357470319161"><ele>0.0</ele><time>2026-04-11T16:48:01Z</time></trkpt><trkpt lat="44.908859759029376" lon="11.887487309011195"><ele>-0.16666666666666666</ele><time>2026-04-11T16:48:03Z</time></trkpt><trkpt lat="44.90888543760628" lon="11.887611672324782"><ele>-0.3333333333333333</ele><time>2026-04-11T16:48:05Z</time></trkpt><trkpt lat="44.90890597324272" lon="11.887727328247793"><ele>-0.5</ele><time>2026-04-11T16:48:07Z</time></trkpt><trkpt lat="44.908920142227444" lon="11.887850879611198"><ele>-0.6666666666666666</ele><time>2026-04-11T16:48:09Z</time></trkpt><trkpt lat="44.90895439908843" lon="11.887952757738061"><ele>-0.8333333333333333</ele><time>2026-04-11T16:48:11Z</time></trkpt><trkpt lat="44.90896930193139" lon="11.888057419705376"><ele>-1.0</ele><time>2026-04-11T16:48:13Z</time></trkpt><trkpt lat="44.90898827113018" lon="11.888168502489698"><ele>-1.0</ele><time>2026-04-11T16:48:15Z</time></trkpt><trkpt lat="44.90900412087464" lon="11.888261318023066"><ele>-0.9999999999999999</ele><time>2026-04-11T16:48:17Z</time></trkpt><trkpt lat="44.90902018172798" lon="11.88835537255749"><ele>-1.0</ele><time>2026-04-11T16:51:41Z</time></trkpt><trkpt lat="44.90904667374673" lon="11.888460629827351"><ele>-1.0</ele><time>2026-04-11T16:51:51Z</time></trkpt><trkpt lat="44.9090415351936" lon="11.888563145847892"><ele>-0.9999999999999999</ele><time>2026-04-11T16:51:53Z</time></trkpt><trkpt lat="44.9090582253606" lon="11.888668980875925"><ele>-1.0</ele><time>2026-04-11T16:51:55Z</time></trkpt><trkpt lat="44.90907899605905" lon="11.888776910628287"><ele>-1.0</ele><time>2026-04-11T16:51:57Z</time></trkpt><trkpt lat="44.909101410031" lon="11.888889400301423"><ele>-0.9999999999999999</ele><time>2026-04-11T16:51:59Z</time></trkpt><trkpt lat="44.90912124639122" lon="11.888993913813119"><ele>-1.0</ele><time>2026-04-11T16:52:01Z</time></trkpt><trkpt lat="44.90913859623396" lon="11.88911511198436"><ele>-1.0</ele><time>2026-04-11T16:52:03Z</time></trkpt><trkpt lat="44.909161306377264" lon="11.889243043357617"><ele>-1.0</ele><time>2026-04-11T16:52:05Z</time></trkpt><trkpt lat="44.90918433545512" lon="11.8893688639924"><ele>-0.9999999999999999</ele><time>2026-04-11T16:52:07Z</time></trkpt><trkpt lat="44.909205114082745" lon="11.88949797389607"><ele>-1.0</ele><time>2026-04-11T16:52:09Z</time></trkpt><trkpt lat="44.90922975844755" lon="11.889628719282866"><ele>-1.0</ele><time>2026-04-11T16:52:11Z</time></trkpt><trkpt lat="44.909251734708555" lon="11.889757599613201"><ele>-1.0</ele><time>2026-04-11T16:52:13Z</time></trkpt><trkpt lat="44.90927237985104" lon="11.889890614031463"><ele>-1.0</ele><time>2026-04-11T16:52:15Z</time></trkpt><trkpt lat="44.909293255593276" lon="11.890021438827695"><ele>-1.0</ele><time>2026-04-11T16:52:17Z</time></trkpt><trkpt lat="44.9093148459562" lon="11.890149078805383"><ele>-1.0</ele><time>2026-04-11T16:52:19Z</time></trkpt><trkpt lat="44.90933706831068" lon="11.890283459494425"><ele>-1.0</ele><time>2026-04-11T16:52:21Z</time></trkpt><trkpt lat="44.909358339137974" lon="11.890412620643751"><ele>-1.0</ele><time>2026-04-11T16:52:23Z</time></trkpt><trkpt lat="44.90938242593967" lon="11.890541745225775"><ele>-1.0</ele><time>2026-04-11T16:52:25Z</time></trkpt><trkpt lat="44.90940554856193" lon="11.890673494708171"><ele>-1.0</ele><time>2026-04-11T16:52:27Z</time></trkpt><trkpt lat="44.90942448233416" lon="11.890805846141275"><ele>-1.0</ele><time>2026-04-11T16:52:29Z</time></trkpt><trkpt lat="44.90944875574573" lon="11.890935557520425"><ele>-1.0</ele><time>2026-04-11T16:52:31Z</time></trkpt><trkpt lat="44.909470472708975" lon="11.891069189488489"><ele>-1.0</ele><time>2026-04-11T16:52:33Z</time></trkpt><trkpt lat="44.90949073265272" lon="11.891201030864677"><ele>-1.0</ele><time>2026-04-11T16:52:35Z</time></trkpt><trkpt lat="44.90951232830593" lon="11.891332306901218"><ele>-1.0</ele><time>2026-04-11T16:52:37Z</time></trkpt><trkpt lat="44.90953718970813" lon="11.891466642982222"><ele>-1.0</ele><time>2026-04-11T16:52:39Z</time></trkpt><trkpt lat="44.909558188335396" lon="11.891599158120998"><ele>-1.0</ele><time>2026-04-11T16:52:40.999Z</time></trkpt><trkpt lat="44.90957943638756" lon="11.891727095972193"><ele>-1.0</ele><time>2026-04-11T16:52:42.999Z</time></trkpt><trkpt lat="44.90960266277921" lon="11.891863558889648"><ele>-1.0</ele><time>2026-04-11T16:52:44.999Z</time></trkpt><trkpt lat="44.90962533426196" lon="11.891995918952732"><ele>-1.0</ele><time>2026-04-11T16:52:46.999Z</time></trkpt><trkpt lat="44.90964837730376" lon="11.892129102242366"><ele>-1.0</ele><time>2026-04-11T16:52:48.999Z</time></trkpt><trkpt lat="44.90967193539801" lon="11.892262566465611"><ele>-1.2000000000000002</ele><time>2026-04-11T16:52:50.999Z</time></trkpt><trkpt lat="44.90969375549688" lon="11.89239454571423"><ele>-1.4000000000000001</ele><time>2026-04-11T16:52:52.999Z</time></trkpt><trkpt lat="44.90971607911559" lon="11.89252794195784"><ele>-1.6</ele><time>2026-04-11T16:52:54.999Z</time></trkpt><trkpt lat="44.909738657248276" lon="11.89266094503075"><ele>-1.8</ele><time>2026-04-11T16:52:56.999Z</time></trkpt><trkpt lat="44.909760524914866" lon="11.892794752432522"><ele>-2.0</ele><time>2026-04-11T16:52:58.999Z</time></trkpt><trkpt lat="44.9097828459938" lon="11.892921088151915"><ele>-1.8</ele><time>2026-04-11T16:53:00.999Z</time></trkpt><trkpt lat="44.90980539788693" lon="11.893053813626342"><ele>-1.6</ele><time>2026-04-11T16:53:02.999Z</time></trkpt><trkpt lat="44.9098302152303" lon="11.893190097409343"><ele>-1.4000000000000001</ele><time>2026-04-11T16:53:04.999Z</time></trkpt><trkpt lat="44.90985339139207" lon="11.893320833147952"><ele>-1.2000000000000002</ele><time>2026-04-11T16:53:06.999Z</time></trkpt><trkpt lat="44.90987913009434" lon="11.893452702968327"><ele>-1.0</ele><time>2026-04-11T16:53:08.999Z</time></trkpt><trkpt lat="44.909905439213325" lon="11.893585706996433"><ele>-1.0</ele><time>2026-04-11T16:53:10.999Z</time></trkpt><trkpt lat="44.90992061083659" lon="11.893714263089656"><ele>-1.0</ele><time>2026-04-11T16:53:12.999Z</time></trkpt><trkpt lat="44.90994425458625" lon="11.893849312939341"><ele>-1.0</ele><time>2026-04-11T16:53:14.999Z</time></trkpt><trkpt lat="44.90996814470543" lon="11.893980321286215"><ele>-1.0</ele><time>2026-04-11T16:53:16.999Z</time></trkpt><trkpt lat="44.90998796346055" lon="11.89411611583506"><ele>-1.0</ele><time>2026-04-11T16:53:18.999Z</time></trkpt><trkpt lat="44.91001437325785" lon="11.894246878682944"><ele>-0.9999999999999999</ele><time>2026-04-11T16:53:20.999Z</time></trkpt><trkpt lat="44.91003589160238" lon="11.894377143306144"><ele>-1.0</ele><time>2026-04-11T16:53:22.999Z</time></trkpt><trkpt lat="44.91005792647777" lon="11.894504363005426"><ele>-1.0</ele><time>2026-04-11T16:53:24.999Z</time></trkpt><trkpt lat="44.910074847484054" lon="11.894624544753256"><ele>-1.0</ele><time>2026-04-11T16:53:26.999Z</time></trkpt><trkpt lat="44.91009166489518" lon="11.89473393897952"><ele>-0.9999999999999999</ele><time>2026-04-11T16:53:28.999Z</time></trkpt><trkpt lat="44.910106915275186" lon="11.894842119737527"><ele>-1.0</ele><time>2026-04-11T16:53:30.999Z</time></trkpt><trkpt lat="44.910125207607116" lon="11.894960454456216"><ele>-0.8</ele><time>2026-04-11T16:53:32.999Z</time></trkpt><trkpt lat="44.910145934953675" lon="11.895088906037188"><ele>-0.6000000000000001</ele><time>2026-04-11T16:53:34.999Z</time></trkpt><trkpt lat="44.9101675588917" lon="11.895223074382308"><ele>-0.4</ele><time>2026-04-11T16:53:37Z</time></trkpt><trkpt lat="44.91019343146638" lon="11.895356952795575"><ele>-0.2</ele><time>2026-04-11T16:53:39Z</time></trkpt><trkpt lat="44.91021369861421" lon="11.895494704653663"><ele>0.0</ele><time>2026-04-11T16:53:41Z</time></trkpt><trkpt lat="44.910236504072756" lon="11.895626611135118"><ele>0.0</ele><time>2026-04-11T16:53:43Z</time></trkpt><trkpt lat="44.910259875578184" lon="11.895752740751819"><ele>0.0</ele><time>2026-04-11T16:53:45Z</time></trkpt><trkpt lat="44.910283182381626" lon="11.895883805927944"><ele>0.0</ele><time>2026-04-11T16:53:47Z</time></trkpt><trkpt lat="44.91031043649592" lon="11.896007287694554"><ele>0.0</ele><time>2026-04-11T16:53:49Z</time></trkpt><trkpt lat="44.910339505636486" lon="11.896135279591046"><ele>0.0</ele><time>2026-04-11T16:53:51Z</time></trkpt><trkpt lat="44.91036878759354" lon="11.896261585465655"><ele>0.0</ele><time>2026-04-11T16:53:53Z</time></trkpt><trkpt lat="44.91040832003046" lon="11.896381654002539"><ele>0.0</ele><time>2026-04-11T16:53:55Z</time></trkpt><trkpt lat="44.91045354170316" lon="11.896501598021361"><ele>0.0</ele><time>2026-04-11T16:53:57Z</time></trkpt><trkpt lat="44.9105054610465" lon="11.896617766146028"><ele>0.0</ele><time>2026-04-11T16:53:59Z</time></trkpt><trkpt lat="44.91056325820487" lon="11.896721642367025"><ele>0.0</ele><time>2026-04-11T16:54:01Z</time></trkpt><trkpt lat="44.910620259410706" lon="11.896827624158993"><ele>0.0</ele><time>2026-04-11T16:54:03Z</time></trkpt><trkpt lat="44.91068233466487" lon="11.896931350453814"><ele>0.0</ele><time>2026-04-11T16:54:05Z</time></trkpt><trkpt lat="44.910744797650345" lon="11.89703218095538"><ele>0.0</ele><time>2026-04-11T16:54:07Z</time></trkpt><trkpt lat="44.910810083324556" lon="11.897133701934376"><ele>0.0</ele><time>2026-04-11T16:54:09Z</time></trkpt><trkpt lat="44.9108721404561" lon="11.897232201225009"><ele>0.0</ele><time>2026-04-11T16:54:11Z</time></trkpt><trkpt lat="44.910938750017735" lon="11.897335290114345"><ele>-0.2</ele><time>2026-04-11T16:54:13Z</time></trkpt><trkpt lat="44.91100406223472" lon="11.897439461255257"><ele>-0.4</ele><time>2026-04-11T16:54:15Z</time></trkpt><trkpt lat="44.91106974509717" lon="11.897546453514398"><ele>-0.6000000000000001</ele><time>2026-04-11T16:54:17Z</time></trkpt><trkpt lat="44.91113413147562" lon="11.8976504967192"><ele>-0.8</ele><time>2026-04-11T16:54:19Z</time></trkpt><trkpt lat="44.91119888668533" lon="11.89775395021595"><ele>-1.0</ele><time>2026-04-11T16:54:21Z</time></trkpt><trkpt lat="44.91126073383076" lon="11.897857228944538"><ele>-1.2000000000000002</ele><time>2026-04-11T16:54:23Z</time></trkpt><trkpt lat="44.91132601103874" lon="11.89795717600928"><ele>-1.4000000000000001</ele><time>2026-04-11T16:54:25Z</time></trkpt><trkpt lat="44.911388532737085" lon="11.898057556857584"><ele>-1.6</ele><time>2026-04-11T16:54:27Z</time></trkpt><trkpt lat="44.91145395555417" lon="11.89816230555614"><ele>-1.8</ele><time>2026-04-11T16:54:29Z</time></trkpt><trkpt lat="44.91151551634303" lon="11.898263698303799"><ele>-2.0</ele><time>2026-04-11T16:54:31Z</time></trkpt><trkpt lat="44.91158031441623" lon="11.898365798985745"><ele>-2.0</ele><time>2026-04-11T16:54:33Z</time></trkpt><trkpt lat="44.9116437113512" lon="11.898468900484191"><ele>-2.0</ele><time>2026-04-11T16:54:35Z</time></trkpt><trkpt lat="44.911701384102244" lon="11.898567340019323"><ele>-2.0</ele><time>2026-04-11T16:54:36.999Z</time></trkpt><trkpt lat="44.911764088536366" lon="11.89867083567643"><ele>-2.0</ele><time>2026-04-11T16:54:38.999Z</time></trkpt><trkpt lat="44.91182681400094" lon="11.898773761947153"><ele>-2.0</ele><time>2026-04-11T16:54:40.999Z</time></trkpt><trkpt lat="44.91188327363692" lon="11.898887417448876"><ele>-1.9999999999999998</ele><time>2026-04-11T16:54:42.999Z</time></trkpt><trkpt lat="44.911926110070496" lon="11.899003277011648"><ele>-2.0</ele><time>2026-04-11T16:54:44.999Z</time></trkpt><trkpt lat="44.91196986632871" lon="11.899121555149677"><ele>-2.0</ele><time>2026-04-11T16:54:46.999Z</time></trkpt><trkpt lat="44.91200136076272" lon="11.899233475049506"><ele>-2.0</ele><time>2026-04-11T16:54:48.999Z</time></trkpt><trkpt lat="44.91201486419043" lon="11.899350409068527"><ele>-1.9999999999999998</ele><time>2026-04-11T16:54:50.999Z</time></trkpt><trkpt lat="44.912029043963216" lon="11.899464825977159"><ele>-2.0</ele><time>2026-04-11T16:54:52.999Z</time></trkpt><trkpt lat="44.912039822010875" lon="11.899580045299915"><ele>-1.8</ele><time>2026-04-11T16:54:54.999Z</time></trkpt><trkpt lat="44.91204645349016" lon="11.899704884636732"><ele>-1.6</ele><time>2026-04-11T16:54:56.999Z</time></trkpt><trkpt lat="44.912051904871085" lon="11.899830043040806"><ele>-1.4000000000000001</ele><time>2026-04-11T16:54:58.999Z</time></trkpt><trkpt lat="44.91206015868186" lon="11.89996258955322"><ele>-1.2000000000000002</ele><time>2026-04-11T16:55:00.999Z</time></trkpt><trkpt lat="44.912068072292186" lon="11.90009784432009"><ele>-1.0</ele><time>2026-04-11T16:55:02.999Z</time></trkpt><trkpt lat="44.91208036235715" lon="11.90023007885552"><ele>-0.8</ele><time>2026-04-11T16:55:04.999Z</time></trkpt><trkpt lat="44.91209194777568" lon="11.900363874116747"><ele>-0.6000000000000001</ele><time>2026-04-11T16:55:06.999Z</time></trkpt><trkpt lat="44.912108611979555" lon="11.900496929312627"><ele>-0.4</ele><time>2026-04-11T16:55:08.999Z</time></trkpt><trkpt lat="44.91212283898085" lon="11.900629399918445"><ele>-0.2</ele><time>2026-04-11T16:55:10.999Z</time></trkpt><trkpt lat="44.91213989266009" lon="11.900763287039897"><ele>0.0</ele><time>2026-04-11T16:55:12.999Z</time></trkpt><trkpt lat="44.912156929799934" lon="11.900898515494095"><ele>0.0</ele><time>2026-04-11T16:55:14.999Z</time></trkpt><trkpt lat="44.91217086207623" lon="11.901033856117513"><ele>0.0</ele><time>2026-04-11T16:55:16.999Z</time></trkpt><trkpt lat="44.91218100016705" lon="11.90116866066908"><ele>0.0</ele><time>2026-04-11T16:55:18.999Z</time></trkpt><trkpt lat="44.91218657684562" lon="11.901304040188126"><ele>0.0</ele><time>2026-04-11T16:55:20.999Z</time></trkpt><trkpt lat="44.91218841044834" lon="11.901437977726811"><ele>0.0</ele><time>2026-04-11T16:55:22.999Z</time></trkpt><trkpt lat="44.912185362977795" lon="11.901570026886954"><ele>0.0</ele><time>2026-04-11T16:55:24.999Z</time></trkpt><trkpt lat="44.91218061003922" lon="11.901697621617283"><ele>0.0</ele><time>2026-04-11T16:55:26.999Z</time></trkpt><trkpt lat="44.91217685725144" lon="11.90181491930655"><ele>0.0</ele><time>2026-04-11T16:55:28.999Z</time></trkpt><trkpt lat="44.912169448343164" lon="11.901920771625727"><ele>0.0</ele><time>2026-04-11T16:55:30.999Z</time></trkpt><trkpt lat="44.912164004681195" lon="11.90202253197473"><ele>0.0</ele><time>2026-04-11T16:55:32.999Z</time></trkpt><trkpt lat="44.91215785996881" lon="11.902118642835145"><ele>0.0</ele><time>2026-04-11T16:55:34.999Z</time></trkpt><trkpt lat="44.91215168924615" lon="11.902232501239187"><ele>0.0</ele><time>2026-04-11T16:55:36.999Z</time></trkpt><trkpt lat="44.912148533812406" lon="11.90234535584659"><ele>0.0</ele><time>2026-04-11T16:55:38.999Z</time></trkpt><trkpt lat="44.91213843589931" lon="11.902462396705316"><ele>0.0</ele><time>2026-04-11T16:55:40.999Z</time></trkpt><trkpt lat="44.912126253355474" lon="11.902576136950913"><ele>0.0</ele><time>2026-04-11T16:55:43Z</time></trkpt><trkpt lat="44.91211246005451" lon="11.90268844867766"><ele>0.0</ele><time>2026-04-11T16:55:45Z</time></trkpt><trkpt lat="44.91210950761004" lon="11.902797958813357"><ele>0.0</ele><time>2026-04-11T16:55:47Z</time></trkpt><trkpt lat="44.9121003810593" lon="11.902897929582672"><ele>0.0</ele><time>2026-04-11T16:55:49Z</time></trkpt><trkpt lat="44.912084998897804" lon="11.902985802133738"><ele>0.0</ele><time>2026-04-11T16:55:51Z</time></trkpt><trkpt lat="44.91208258874718" lon="11.903108652643908"><ele>0.0</ele><time>2026-04-11T16:55:54Z</time></trkpt><trkpt lat="44.912090950128906" lon="11.90322312058621"><ele>0.0</ele><time>2026-04-11T16:55:57Z</time></trkpt><trkpt lat="44.912091843397086" lon="11.90332290421107"><ele>0.0</ele><time>2026-04-11T16:56:00Z</time></trkpt><trkpt lat="44.91210750343672" lon="11.90344334077334"><ele>0.0</ele><time>2026-04-11T16:56:04Z</time></trkpt><trkpt lat="44.912121471582495" lon="11.903536616043802"><ele>0.0</ele><time>2026-04-11T16:56:07Z</time></trkpt><trkpt lat="44.9121512458316" lon="11.903638520586501"><ele>0.0</ele><time>2026-04-11T16:56:10Z</time></trkpt><trkpt lat="44.91216293984338" lon="11.903744622669164"><ele>0.0</ele><time>2026-04-11T16:56:12Z</time></trkpt><trkpt lat="44.9121668588611" lon="11.90385985287403"><ele>0.0</ele><time>2026-04-11T16:56:14Z</time></trkpt><trkpt lat="44.912171266241494" lon="11.90396619770531"><ele>0.0</ele><time>2026-04-11T16:56:16Z</time></trkpt><trkpt lat="44.912185596323745" lon="11.904067657869936"><ele>0.0</ele><time>2026-04-11T16:56:18Z</time></trkpt><trkpt lat="44.91219771865088" lon="11.904197944409086"><ele>0.16666666666666666</ele><time>2026-04-11T16:56:21Z</time></trkpt><trkpt lat="44.912199663582285" lon="11.904292927615403"><ele>0.3333333333333333</ele><time>2026-04-11T16:56:23Z</time></trkpt><trkpt lat="44.912209857254005" lon="11.904389841771891"><ele>0.5</ele><time>2026-04-11T16:56:25Z</time></trkpt><trkpt lat="44.91221090722556" lon="11.904489959451341"><ele>0.6666666666666666</ele><time>2026-04-11T16:56:27Z</time></trkpt><trkpt lat="44.91220085678092" lon="11.904597762413426"><ele>0.8333333333333333</ele><time>2026-04-11T16:56:29Z</time></trkpt><trkpt lat="44.91220763640434" lon="11.904719097672498"><ele>1.0</ele><time>2026-04-11T16:56:31Z</time></trkpt><trkpt lat="44.9122156723988" lon="11.904840595128213"><ele>1.0</ele><time>2026-04-11T16:56:33Z</time></trkpt><trkpt lat="44.91222286266367" lon="11.904957834253583"><ele>1.0</ele><time>2026-04-11T16:56:35Z</time></trkpt><trkpt lat="44.91223175223835" lon="11.90507354245998"><ele>1.0</ele><time>2026-04-11T16:56:37Z</time></trkpt><trkpt lat="44.91223588538327" lon="11.905208906135078"><ele>1.0</ele><time>2026-04-11T16:56:39Z</time></trkpt><trkpt lat="44.91224118528678" lon="11.905346222641452"><ele>1.0</ele><time>2026-04-11T16:56:40.999Z</time></trkpt><trkpt lat="44.912235540949155" lon="11.905480943304541"><ele>0.8333333333333333</ele><time>2026-04-11T16:56:42.999Z</time></trkpt><trkpt lat="44.91223339700885" lon="11.905611270068906"><ele>0.6666666666666666</ele><time>2026-04-11T16:56:44.999Z</time></trkpt><trkpt lat="44.91219675858733" lon="11.905728973492275"><ele>0.5</ele><time>2026-04-11T16:56:46.999Z</time></trkpt><trkpt lat="44.912186796556206" lon="11.905846589636583"><ele>0.3333333333333333</ele><time>2026-04-11T16:56:48.999Z</time></trkpt><trkpt lat="44.91218717708706" lon="11.90596076035876"><ele>0.16666666666666666</ele><time>2026-04-11T16:56:50.999Z</time></trkpt><trkpt lat="44.912205155757015" lon="11.90605540928712"><ele>0.0</ele><time>2026-04-11T16:56:52.999Z</time></trkpt><trkpt lat="44.912206642414546" lon="11.906181009951046"><ele>0.0</ele><time>2026-04-11T16:56:54.999Z</time></trkpt><trkpt lat="44.91221744983227" lon="11.906319490612807"><ele>0.0</ele><time>2026-04-11T16:56:56.999Z</time></trkpt><trkpt lat="44.91222355272745" lon="11.906443859779413"><ele>0.0</ele><time>2026-04-11T16:56:58.999Z</time></trkpt><trkpt lat="44.91223170743896" lon="11.906566523073773"><ele>0.0</ele><time>2026-04-11T16:57:00.999Z</time></trkpt><trkpt lat="44.912237613130145" lon="11.906686647528955"><ele>0.0</ele><time>2026-04-11T16:57:02.999Z</time></trkpt><trkpt lat="44.91223566768766" lon="11.90680223857547"><ele>0.0</ele><time>2026-04-11T16:57:04.999Z</time></trkpt><trkpt lat="44.91224617249905" lon="11.906911045673999"><ele>0.0</ele><time>2026-04-11T16:57:06.999Z</time></trkpt><trkpt lat="44.912254917961505" lon="11.907031574907318"><ele>0.0</ele><time>2026-04-11T16:57:08.999Z</time></trkpt><trkpt lat="44.912260763596414" lon="11.907165115543947"><ele>0.0</ele><time>2026-04-11T16:57:10.999Z</time></trkpt><trkpt lat="44.91225871943334" lon="11.907303370674978"><ele>0.0</ele><time>2026-04-11T16:57:12.999Z</time></trkpt><trkpt lat="44.912271004137146" lon="11.907441510810678"><ele>0.0</ele><time>2026-04-11T16:57:14.999Z</time></trkpt><trkpt lat="44.91228006635808" lon="11.907574524291523"><ele>0.4</ele><time>2026-04-11T16:57:16.999Z</time></trkpt><trkpt lat="44.912292867317376" lon="11.90771337837417"><ele>0.8</ele><time>2026-04-11T16:57:18.999Z</time></trkpt><trkpt lat="44.91229286782902" lon="11.907850526925845"><ele>1.2000000000000002</ele><time>2026-04-11T16:57:20.999Z</time></trkpt><trkpt lat="44.9122992948859" lon="11.907981187951256"><ele>1.6</ele><time>2026-04-11T16:57:22.999Z</time></trkpt><trkpt lat="44.9123091369419" lon="11.908123611125546"><ele>2.0</ele><time>2026-04-11T16:57:24.999Z</time></trkpt><trkpt lat="44.91231696097113" lon="11.908258788507752"><ele>2.0</ele><time>2026-04-11T16:57:26.999Z</time></trkpt><trkpt lat="44.91232052161108" lon="11.908394488144209"><ele>2.0</ele><time>2026-04-11T16:57:28.999Z</time></trkpt><trkpt lat="44.91233810467719" lon="11.90858992972032"><ele>2.0</ele><time>2026-04-11T16:57:31.999Z</time></trkpt><trkpt lat="44.91234618460135" lon="11.908711683779194"><ele>2.0</ele><time>2026-04-11T16:57:33.999Z</time></trkpt><trkpt lat="44.91234209397923" lon="11.90882571175124"><ele>2.0</ele><time>2026-04-11T16:57:35.999Z</time></trkpt><trkpt lat="44.91234485030288" lon="11.908935709255044"><ele>1.8</ele><time>2026-04-11T16:57:37.999Z</time></trkpt><trkpt lat="44.91235506601226" lon="11.90906568802088"><ele>1.6</ele><time>2026-04-11T16:57:39.999Z</time></trkpt><trkpt lat="44.91236268290885" lon="11.90919692294012"><ele>1.4000000000000001</ele><time>2026-04-11T16:57:41.999Z</time></trkpt><trkpt lat="44.91237173312932" lon="11.909329190345028"><ele>1.2000000000000002</ele><time>2026-04-11T16:57:43.999Z</time></trkpt><trkpt lat="44.912383746113946" lon="11.909454718402204"><ele>1.0</ele><time>2026-04-11T16:57:45.999Z</time></trkpt><trkpt lat="44.91239178793365" lon="11.909573608285811"><ele>0.9999999999999999</ele><time>2026-04-11T16:57:47.999Z</time></trkpt><trkpt lat="44.91240084380594" lon="11.909681132857148"><ele>1.0</ele><time>2026-04-11T16:57:50Z</time></trkpt><trkpt lat="44.91241544339331" lon="11.909779808270846"><ele>1.0</ele><time>2026-04-11T16:57:52Z</time></trkpt><trkpt lat="44.91242584515096" lon="11.909878538508279"><ele>1.0</ele><time>2026-04-11T16:57:54Z</time></trkpt><trkpt lat="44.91244736135975" lon="11.909974368713781"><ele>0.9999999999999999</ele><time>2026-04-11T16:57:56Z</time></trkpt><trkpt lat="44.91245723003133" lon="11.910081498538807"><ele>1.0</ele><time>2026-04-11T16:57:58Z</time></trkpt><trkpt lat="44.91245663753623" lon="11.910211711300397"><ele>1.2000000000000002</ele><time>2026-04-11T16:58:00Z</time></trkpt><trkpt lat="44.91247047160165" lon="11.910346391166858"><ele>1.4000000000000001</ele><time>2026-04-11T16:58:02Z</time></trkpt><trkpt lat="44.91247783488477" lon="11.910482188732539"><ele>1.6</ele><time>2026-04-11T16:58:04Z</time></trkpt><trkpt lat="44.91248466970329" lon="11.910614259372077"><ele>1.8</ele><time>2026-04-11T16:58:06Z</time></trkpt><trkpt lat="44.91248147210091" lon="11.91073620704077"><ele>2.0</ele><time>2026-04-11T16:58:08Z</time></trkpt><trkpt lat="44.91249791756063" lon="11.910850182493638"><ele>1.9999999999999998</ele><time>2026-04-11T16:58:10Z</time></trkpt><trkpt lat="44.91250593709133" lon="11.91096918846836"><ele>2.0</ele><time>2026-04-11T16:58:12Z</time></trkpt><trkpt lat="44.9125065528866" lon="11.911099602229962"><ele>2.0</ele><time>2026-04-11T16:58:14Z</time></trkpt><trkpt lat="44.912530638646004" lon="11.911210826481366"><ele>2.0</ele><time>2026-04-11T16:58:16Z</time></trkpt><trkpt lat="44.9125283800241" lon="11.911318924531237"><ele>1.9999999999999998</ele><time>2026-04-11T16:58:18Z</time></trkpt><trkpt lat="44.9125245326116" lon="11.911430127877203"><ele>2.0</ele><time>2026-04-11T16:58:20Z</time></trkpt><trkpt lat="44.91254013448675" lon="11.911537208823974"><ele>1.9999999999999998</ele><time>2026-04-11T16:58:22Z</time></trkpt><trkpt lat="44.91254293269928" lon="11.911628523240356"><ele>2.0</ele><time>2026-04-11T16:58:24Z</time></trkpt><trkpt lat="44.91248945811779" lon="11.911711191892968"><ele>2.0</ele><time>2026-04-11T16:58:27Z</time></trkpt><trkpt lat="44.91241459938297" lon="11.911745635240866"><ele>2.0</ele><time>2026-04-11T16:58:29Z</time></trkpt><trkpt lat="44.91231729860311" lon="11.911766254302071"><ele>1.9999999999999998</ele><time>2026-04-11T16:58:31Z</time></trkpt><trkpt lat="44.91221886861705" lon="11.911786947457793"><ele>2.0</ele><time>2026-04-11T16:58:33Z</time></trkpt><trkpt lat="44.912121734229" lon="11.911817489994073"><ele>2.0</ele><time>2026-04-11T16:58:35Z</time></trkpt><trkpt lat="44.912027125601426" lon="11.91184285519578"><ele>2.0</ele><time>2026-04-11T16:58:37Z</time></trkpt><trkpt lat="44.91193672014881" lon="11.9118663677248"><ele>2.0</ele><time>2026-04-11T16:58:39Z</time></trkpt><trkpt lat="44.91184528850035" lon="11.911885126350041"><ele>2.0</ele><time>2026-04-11T16:58:41Z</time></trkpt><trkpt lat="44.91175174308876" lon="11.911913114621811"><ele>2.0</ele><time>2026-04-11T16:58:43Z</time></trkpt><trkpt lat="44.91165674389545" lon="11.911939420965785"><ele>1.6666666666666665</ele><time>2026-04-11T16:58:45Z</time></trkpt><trkpt lat="44.91156685042862" lon="11.911967642127596"><ele>1.3333333333333333</ele><time>2026-04-11T16:58:47Z</time></trkpt><trkpt lat="44.911476645164775" lon="11.911992582968319"><ele>1.0</ele><time>2026-04-11T16:58:49Z</time></trkpt><trkpt lat="44.91138854516849" lon="11.912016095511703"><ele>0.6666666666666666</ele><time>2026-04-11T16:58:51Z</time></trkpt><trkpt lat="44.91130226841176" lon="11.912039582356964"><ele>0.3333333333333333</ele><time>2026-04-11T16:58:53Z</time></trkpt><trkpt lat="44.9112200791988" lon="11.912067063275538"><ele>0.0</ele><time>2026-04-11T16:58:55Z</time></trkpt><trkpt lat="44.91113959876222" lon="11.912084743296344"><ele>0.0</ele><time>2026-04-11T16:58:57Z</time></trkpt><trkpt lat="44.911057458536625" lon="11.912112942402889"><ele>0.0</ele><time>2026-04-11T16:58:59Z</time></trkpt><trkpt lat="44.91097768506662" lon="11.912141656947433"><ele>0.0</ele><time>2026-04-11T16:59:01Z</time></trkpt><trkpt lat="44.910884525382784" lon="11.912167228322241"><ele>0.0</ele><time>2026-04-11T16:59:02.999Z</time></trkpt><trkpt lat="44.91079908539213" lon="11.91219361899474"><ele>0.0</ele><time>2026-04-11T16:59:04.999Z</time></trkpt><trkpt lat="44.91070874291892" lon="11.912213233030029"><ele>0.0</ele><time>2026-04-11T16:59:06.999Z</time></trkpt><trkpt lat="44.91061263443743" lon="11.912244954468388"><ele>0.0</ele><time>2026-04-11T16:59:08.999Z</time></trkpt><trkpt lat="44.91051639948307" lon="11.912270700296475"><ele>0.0</ele><time>2026-04-11T16:59:10.999Z</time></trkpt><trkpt lat="44.91042279603247" lon="11.91229717869455"><ele>0.0</ele><time>2026-04-11T16:59:12.999Z</time></trkpt><trkpt lat="44.910336817464966" lon="11.912328298852136"><ele>0.0</ele><time>2026-04-11T16:59:14.999Z</time></trkpt><trkpt lat="44.91025720442404" lon="11.912366187150088"><ele>0.0</ele><time>2026-04-11T16:59:16.999Z</time></trkpt><trkpt lat="44.91019445547073" lon="11.912431154928495"><ele>0.0</ele><time>2026-04-11T16:59:18.999Z</time></trkpt><trkpt lat="44.910112215663816" lon="11.912463835782361"><ele>0.0</ele><time>2026-04-11T16:59:20.999Z</time></trkpt><trkpt lat="44.91003271212422" lon="11.91248570356983"><ele>0.0</ele><time>2026-04-11T16:59:22.999Z</time></trkpt><trkpt lat="44.90994996209798" lon="11.912512691855532"><ele>0.0</ele><time>2026-04-11T16:59:24.999Z</time></trkpt><trkpt lat="44.90987001115937" lon="11.912539617675536"><ele>0.0</ele><time>2026-04-11T16:59:26.999Z</time></trkpt><trkpt lat="44.909800368469696" lon="11.912600634816215"><ele>0.0</ele><time>2026-04-11T16:59:28.999Z</time></trkpt><trkpt lat="44.90973943139958" lon="11.912686591615964"><ele>0.0</ele><time>2026-04-11T16:59:30.999Z</time></trkpt><trkpt lat="44.909693187930685" lon="11.91279216140647"><ele>0.0</ele><time>2026-04-11T16:59:32.999Z</time></trkpt><trkpt lat="44.909649874616605" lon="11.912886513315962"><ele>0.0</ele><time>2026-04-11T16:59:34.999Z</time></trkpt><trkpt lat="44.909597836907245" lon="11.91299044017395"><ele>0.0</ele><time>2026-04-11T16:59:36.999Z</time></trkpt><trkpt lat="44.909542358111786" lon="11.913096311245269"><ele>0.0</ele><time>2026-04-11T16:59:38.999Z</time></trkpt><trkpt lat="44.909490938211405" lon="11.913207163362182"><ele>0.0</ele><time>2026-04-11T16:59:40.999Z</time></trkpt><trkpt lat="44.90944111550808" lon="11.9133119356825"><ele>0.0</ele><time>2026-04-11T16:59:42.999Z</time></trkpt><trkpt lat="44.909388351774005" lon="11.913416689751811"><ele>0.0</ele><time>2026-04-11T16:59:44.999Z</time></trkpt><trkpt lat="44.90933977137828" lon="11.91352570138079"><ele>0.0</ele><time>2026-04-11T16:59:46.999Z</time></trkpt><trkpt lat="44.909285860271446" lon="11.913633864399738"><ele>0.0</ele><time>2026-04-11T16:59:48.999Z</time></trkpt><trkpt lat="44.90923177970527" lon="11.913743567856365"><ele>0.0</ele><time>2026-04-11T16:59:50.999Z</time></trkpt><trkpt lat="44.90918327137365" lon="11.913858172828458"><ele>0.0</ele><time>2026-04-11T16:59:52.999Z</time></trkpt><trkpt lat="44.90913121676332" lon="11.913966296302519"><ele>0.0</ele><time>2026-04-11T16:59:55Z</time></trkpt><trkpt lat="44.9090775287929" lon="11.914080869512711"><ele>0.0</ele><time>2026-04-11T16:59:57Z</time></trkpt><trkpt lat="44.90902369270334" lon="11.914187361817643"><ele>0.0</ele><time>2026-04-11T16:59:59Z</time></trkpt><trkpt lat="44.908970822283536" lon="11.914301614942111"><ele>0.0</ele><time>2026-04-11T17:00:01Z</time></trkpt><trkpt lat="44.908918260037474" lon="11.914412715805893"><ele>0.0</ele><time>2026-04-11T17:00:03Z</time></trkpt><trkpt lat="44.908867695948764" lon="11.914524946411243"><ele>0.0</ele><time>2026-04-11T17:00:05Z</time></trkpt><trkpt lat="44.90881748704891" lon="11.91464035100091"><ele>0.0</ele><time>2026-04-11T17:00:07Z</time></trkpt><trkpt lat="44.908766899991925" lon="11.914752393925603"><ele>0.0</ele><time>2026-04-11T17:00:09Z</time></trkpt><trkpt lat="44.908724063729274" lon="11.914874509611648"><ele>0.0</ele><time>2026-04-11T17:00:11Z</time></trkpt><trkpt lat="44.908688352608706" lon="11.914999496619828"><ele>0.0</ele><time>2026-04-11T17:00:13Z</time></trkpt><trkpt lat="44.90865397558309" lon="11.91512470724484"><ele>0.2</ele><time>2026-04-11T17:00:15Z</time></trkpt><trkpt lat="44.90862976391913" lon="11.915255417242676"><ele>0.4</ele><time>2026-04-11T17:00:17Z</time></trkpt><trkpt lat="44.908603161374515" lon="11.915387251516387"><ele>0.6000000000000001</ele><time>2026-04-11T17:00:19Z</time></trkpt><trkpt lat="44.90858382226507" lon="11.915513465106807"><ele>0.8</ele><time>2026-04-11T17:00:21Z</time></trkpt><trkpt lat="44.90855806510183" lon="11.915640936134283"><ele>1.0</ele><time>2026-04-11T17:00:23Z</time></trkpt><trkpt lat="44.908539173432615" lon="11.915771972534266"><ele>0.8</ele><time>2026-04-11T17:00:25Z</time></trkpt><trkpt lat="44.90851621616444" lon="11.915909547750863"><ele>0.6000000000000001</ele><time>2026-04-11T17:00:27Z</time></trkpt><trkpt lat="44.90849332932312" lon="11.916036543933346"><ele>0.4</ele><time>2026-04-11T17:00:29Z</time></trkpt><trkpt lat="44.90847038072783" lon="11.916166894092516"><ele>0.2</ele><time>2026-04-11T17:00:31Z</time></trkpt><trkpt lat="44.90844942390681" lon="11.91629473226955"><ele>0.0</ele><time>2026-04-11T17:00:33Z</time></trkpt><trkpt lat="44.90842697528584" lon="11.916424223940833"><ele>-0.2</ele><time>2026-04-11T17:00:35Z</time></trkpt><trkpt lat="44.90840555131349" lon="11.9165538149303"><ele>-0.4</ele><time>2026-04-11T17:00:37Z</time></trkpt><trkpt lat="44.90838267159641" lon="11.916684240799063"><ele>-0.6000000000000001</ele><time>2026-04-11T17:00:39Z</time></trkpt><trkpt lat="44.908360658644256" lon="11.916816318443495"><ele>-0.8</ele><time>2026-04-11T17:00:41Z</time></trkpt><trkpt lat="44.90833748885397" lon="11.916947400930958"><ele>-1.0</ele><time>2026-04-11T17:00:43Z</time></trkpt><trkpt lat="44.90831832592889" lon="11.917073921632541"><ele>-0.9999999999999999</ele><time>2026-04-11T17:00:45Z</time></trkpt><trkpt lat="44.908297042355656" lon="11.91720311590436"><ele>-1.0</ele><time>2026-04-11T17:00:47Z</time></trkpt><trkpt lat="44.908276658904306" lon="11.917323541260329"><ele>-1.0</ele><time>2026-04-11T17:00:49Z</time></trkpt><trkpt lat="44.9082612197606" lon="11.917440060212956"><ele>-1.0</ele><time>2026-04-11T17:00:51Z</time></trkpt><trkpt lat="44.90824618152684" lon="11.91755203710645"><ele>-0.9999999999999999</ele><time>2026-04-11T17:00:53Z</time></trkpt><trkpt lat="44.90822480365064" lon="11.917653987824172"><ele>-1.0</ele><time>2026-04-11T17:00:55Z</time></trkpt><trkpt lat="44.908212666788714" lon="11.917761161363396"><ele>-0.9999999999999999</ele><time>2026-04-11T17:00:57Z</time></trkpt><trkpt lat="44.908197041123906" lon="11.917866265220493"><ele>-1.0</ele><time>2026-04-11T17:00:59Z</time></trkpt><trkpt lat="44.908171737266166" lon="11.917973154306427"><ele>-1.0</ele><time>2026-04-11T17:01:01Z</time></trkpt><trkpt lat="44.908158841494625" lon="11.918081897733352"><ele>-1.0</ele><time>2026-04-11T17:01:03Z</time></trkpt><trkpt lat="44.90813627162184" lon="11.91818852266945"><ele>-0.9999999999999999</ele><time>2026-04-11T17:01:05Z</time></trkpt><trkpt lat="44.90812171912786" lon="11.918299849157016"><ele>-1.0</ele><time>2026-04-11T17:01:07Z</time></trkpt><trkpt lat="44.908101978533516" lon="11.918411260477662"><ele>-1.1666666666666665</ele><time>2026-04-11T17:01:08.999Z</time></trkpt><trkpt lat="44.90808865050552" lon="11.918523577987889"><ele>-1.3333333333333333</ele><time>2026-04-11T17:01:10.999Z</time></trkpt><trkpt lat="44.90806442511568" lon="11.918634416435614"><ele>-1.5</ele><time>2026-04-11T17:01:12.999Z</time></trkpt><trkpt lat="44.90805058253393" lon="11.918739136273542"><ele>-1.6666666666666665</ele><time>2026-04-11T17:01:14.999Z</time></trkpt><trkpt lat="44.908037155762074" lon="11.918852609395104"><ele>-1.8333333333333333</ele><time>2026-04-11T17:01:16.999Z</time></trkpt><trkpt lat="44.908018467324176" lon="11.918959479478234"><ele>-2.0</ele><time>2026-04-11T17:01:18.999Z</time></trkpt><trkpt lat="44.9079887277593" lon="11.919082471109228"><ele>-2.0</ele><time>2026-04-11T17:01:20.999Z</time></trkpt><trkpt lat="44.907971223510415" lon="11.91921506588813"><ele>-2.0</ele><time>2026-04-11T17:01:22.999Z</time></trkpt><trkpt lat="44.90795021503251" lon="11.91934131123392"><ele>-2.0</ele><time>2026-04-11T17:01:24.999Z</time></trkpt><trkpt lat="44.907931270395636" lon="11.919467651200325"><ele>-2.0</ele><time>2026-04-11T17:01:26.999Z</time></trkpt><trkpt lat="44.907912917975764" lon="11.919597964190592"><ele>-2.0</ele><time>2026-04-11T17:01:28.999Z</time></trkpt><trkpt lat="44.90789247917892" lon="11.91972851538203"><ele>-2.2</ele><time>2026-04-11T17:01:30.999Z</time></trkpt><trkpt lat="44.907862743302175" lon="11.91985154051279"><ele>-2.4000000000000004</ele><time>2026-04-11T17:01:32.999Z</time></trkpt><trkpt lat="44.90784316229592" lon="11.919979535206341"><ele>-2.5999999999999996</ele><time>2026-04-11T17:01:34.999Z</time></trkpt><trkpt lat="44.9078200843583" lon="11.920113200716491"><ele>-2.8</ele><time>2026-04-11T17:01:36.999Z</time></trkpt><trkpt lat="44.90779926257943" lon="11.920246062918293"><ele>-3.0</ele><time>2026-04-11T17:01:38.999Z</time></trkpt><trkpt lat="44.90777514264792" lon="11.920377962479774"><ele>-3.0</ele><time>2026-04-11T17:01:40.999Z</time></trkpt><trkpt lat="44.907753817647375" lon="11.920509544660213"><ele>-3.0</ele><time>2026-04-11T17:01:42.999Z</time></trkpt><trkpt lat="44.907726688934446" lon="11.920693818631575"><ele>-3.0</ele><time>2026-04-11T17:01:45.999Z</time></trkpt><trkpt lat="44.907706911190175" lon="11.92080564813249"><ele>-3.0</ele><time>2026-04-11T17:01:47.999Z</time></trkpt><trkpt lat="44.90768098027241" lon="11.920931010212039"><ele>-3.0</ele><time>2026-04-11T17:01:49.999Z</time></trkpt><trkpt lat="44.90765794328714" lon="11.921057573052353"><ele>-2.6666666666666665</ele><time>2026-04-11T17:01:51.999Z</time></trkpt><trkpt lat="44.90764111526371" lon="11.921193384044363"><ele>-2.3333333333333335</ele><time>2026-04-11T17:01:53.999Z</time></trkpt><trkpt lat="44.907617423342394" lon="11.921318152458309"><ele>-2.0</ele><time>2026-04-11T17:01:55.999Z</time></trkpt><trkpt lat="44.907592762758526" lon="11.921445358003773"><ele>-1.6666666666666665</ele><time>2026-04-11T17:01:57.999Z</time></trkpt><trkpt lat="44.907551272441836" lon="11.921543991414389"><ele>-1.3333333333333333</ele><time>2026-04-11T17:01:59.999Z</time></trkpt><trkpt lat="44.90747365255764" lon="11.921576289745657"><ele>-1.0</ele><time>2026-04-11T17:02:02Z</time></trkpt><trkpt lat="44.907387857353925" lon="11.921581187071984"><ele>-0.8333333333333333</ele><time>2026-04-11T17:02:04Z</time></trkpt><trkpt lat="44.907308756902026" lon="11.921575342365415"><ele>-0.6666666666666666</ele><time>2026-04-11T17:02:06Z</time></trkpt><trkpt lat="44.90723609916631" lon="11.92160651008611"><ele>-0.5</ele><time>2026-04-11T17:02:08Z</time></trkpt><trkpt lat="44.90718864816005" lon="11.921695854901156"><ele>-0.3333333333333333</ele><time>2026-04-11T17:02:10Z</time></trkpt><trkpt lat="44.90719775521981" lon="11.921805469015663"><ele>-0.16666666666666666</ele><time>2026-04-11T17:02:12Z</time></trkpt><trkpt lat="44.90722031778548" lon="11.92190285518339"><ele>0.0</ele><time>2026-04-11T17:02:14Z</time></trkpt><trkpt lat="44.90722392930933" lon="11.92201001200335"><ele>-0.3333333333333333</ele><time>2026-04-11T17:02:16Z</time></trkpt><trkpt lat="44.907240744638806" lon="11.922110037424364"><ele>-0.6666666666666666</ele><time>2026-04-11T17:02:18Z</time></trkpt><trkpt lat="44.907235838652255" lon="11.92222049563983"><ele>-1.0</ele><time>2026-04-11T17:02:20Z</time></trkpt><trkpt lat="44.907237979095" lon="11.922327539219882"><ele>-1.3333333333333333</ele><time>2026-04-11T17:02:22Z</time></trkpt><trkpt lat="44.907246922586786" lon="11.922424617984104"><ele>-1.6666666666666665</ele><time>2026-04-11T17:02:24Z</time></trkpt><trkpt lat="44.907255523224364" lon="11.922556385697998"><ele>-2.0</ele><time>2026-04-11T17:02:27Z</time></trkpt><trkpt lat="44.907270303356114" lon="11.922674569155557"><ele>-1.9999999999999998</ele><time>2026-04-11T17:02:30Z</time></trkpt><trkpt lat="44.907273610536286" lon="11.922773541194454"><ele>-2.0</ele><time>2026-04-11T17:02:33Z</time></trkpt><trkpt lat="44.90727006199162" lon="11.92286679146901"><ele>-2.0</ele><time>2026-04-11T17:02:36Z</time></trkpt><trkpt lat="44.90728333765722" lon="11.922959199092663"><ele>-2.0</ele><time>2026-04-11T17:02:39Z</time></trkpt><trkpt lat="44.907284177663705" lon="11.923071563365424"><ele>-1.9999999999999998</ele><time>2026-04-11T17:02:43Z</time></trkpt><trkpt lat="44.90728274085797" lon="11.923181471170118"><ele>-2.0</ele><time>2026-04-11T17:02:47Z</time></trkpt><trkpt lat="44.907289743473" lon="11.923322583697358"><ele>-1.9999999999999998</ele><time>2026-04-11T17:02:49.999Z</time></trkpt><trkpt lat="44.90730050917922" lon="11.9234280365843"><ele>-2.0</ele><time>2026-04-11T17:02:51.999Z</time></trkpt><trkpt lat="44.907307029637224" lon="11.923538754250753"><ele>-2.0</ele><time>2026-04-11T17:02:53.999Z</time></trkpt><trkpt lat="44.90731809362897" lon="11.923651542012434"><ele>-2.0</ele><time>2026-04-11T17:02:55.999Z</time></trkpt><trkpt lat="44.907321853103866" lon="11.923764057782337"><ele>-1.9999999999999998</ele><time>2026-04-11T17:02:57.999Z</time></trkpt><trkpt lat="44.90732136341242" lon="11.923863991979045"><ele>-2.0</ele><time>2026-04-11T17:02:59.999Z</time></trkpt><trkpt lat="44.90732711224578" lon="11.923958965009309"><ele>-1.9999999999999998</ele><time>2026-04-11T17:03:01.999Z</time></trkpt><trkpt lat="44.90734303963175" lon="11.924094527477095"><ele>-2.0</ele><time>2026-04-11T17:03:04.999Z</time></trkpt><trkpt lat="44.90733734552444" lon="11.92420153140321"><ele>-2.0</ele><time>2026-04-11T17:03:06.999Z</time></trkpt><trkpt lat="44.90733533336627" lon="11.924312338970664"><ele>-2.0</ele><time>2026-04-11T17:03:08.999Z</time></trkpt><trkpt lat="44.90734820827347" lon="11.924432266456364"><ele>-1.9999999999999998</ele><time>2026-04-11T17:03:10.999Z</time></trkpt><trkpt lat="44.90735298602985" lon="11.924570620111153"><ele>-2.0</ele><time>2026-04-11T17:03:12.999Z</time></trkpt><trkpt lat="44.90736082291088" lon="11.924705419765553"><ele>-2.0</ele><time>2026-04-11T17:03:14.999Z</time></trkpt><trkpt lat="44.90737794800934" lon="11.924822681117357"><ele>-2.0</ele><time>2026-04-11T17:03:16.999Z</time></trkpt><trkpt lat="44.907383808012504" lon="11.92494197573485"><ele>-2.0</ele><time>2026-04-11T17:03:18.999Z</time></trkpt><trkpt lat="44.90738732556176" lon="11.925079341967978"><ele>-2.0</ele><time>2026-04-11T17:03:20.999Z</time></trkpt><trkpt lat="44.90739371693162" lon="11.925216236672657"><ele>-2.0</ele><time>2026-04-11T17:03:22.999Z</time></trkpt><trkpt lat="44.90740057337491" lon="11.925355324222012"><ele>-2.0</ele><time>2026-04-11T17:03:24.999Z</time></trkpt><trkpt lat="44.90740626390382" lon="11.925482073965082"><ele>-2.0</ele><time>2026-04-11T17:03:26.999Z</time></trkpt><trkpt lat="44.907411920343286" lon="11.925610071138566"><ele>-2.0</ele><time>2026-04-11T17:03:28.999Z</time></trkpt><trkpt lat="44.90741869658842" lon="11.925734940778852"><ele>-2.0</ele><time>2026-04-11T17:03:30.999Z</time></trkpt><trkpt lat="44.90742434649198" lon="11.9258686540257"><ele>-2.0</ele><time>2026-04-11T17:03:32.999Z</time></trkpt><trkpt lat="44.90743104308018" lon="11.926006304059161"><ele>-2.0</ele><time>2026-04-11T17:03:34.999Z</time></trkpt><trkpt lat="44.90744147171923" lon="11.926145444509958"><ele>-2.0</ele><time>2026-04-11T17:03:36.999Z</time></trkpt><trkpt lat="44.90745912817376" lon="11.926280163704284"><ele>-2.0</ele><time>2026-04-11T17:03:38.999Z</time></trkpt><trkpt lat="44.907458454719986" lon="11.92641713084382"><ele>-2.0</ele><time>2026-04-11T17:03:40.999Z</time></trkpt><trkpt lat="44.90745514703788" lon="11.926550108094814"><ele>-2.0</ele><time>2026-04-11T17:03:42.999Z</time></trkpt><trkpt lat="44.90746160927863" lon="11.926688338411605"><ele>-2.0</ele><time>2026-04-11T17:03:44.999Z</time></trkpt><trkpt lat="44.90746956792529" lon="11.92682373277777"><ele>-2.0</ele><time>2026-04-11T17:03:46.999Z</time></trkpt><trkpt lat="44.90746939975772" lon="11.926958722832344"><ele>-2.0</ele><time>2026-04-11T17:03:48.999Z</time></trkpt><trkpt lat="44.90748144793853" lon="11.927093770071014"><ele>-2.0</ele><time>2026-04-11T17:03:50.999Z</time></trkpt><trkpt lat="44.907484653854105" lon="11.927227892219221"><ele>-2.0</ele><time>2026-04-11T17:03:52.999Z</time></trkpt><trkpt lat="44.90748661157142" lon="11.927351914077082"><ele>-2.0</ele><time>2026-04-11T17:03:54.999Z</time></trkpt><trkpt lat="44.90748927825314" lon="11.92747110908058"><ele>-2.0</ele><time>2026-04-11T17:03:56.999Z</time></trkpt><trkpt lat="44.907501155476766" lon="11.927600997011249"><ele>-2.0</ele><time>2026-04-11T17:03:58.999Z</time></trkpt><trkpt lat="44.90751317619229" lon="11.927735637100623"><ele>-2.0</ele><time>2026-04-11T17:04:00.999Z</time></trkpt><trkpt lat="44.90751584634361" lon="11.927858485016369"><ele>-2.0</ele><time>2026-04-11T17:04:02.999Z</time></trkpt><trkpt lat="44.907518639343685" lon="11.927986733690624"><ele>-1.8</ele><time>2026-04-11T17:04:04.999Z</time></trkpt><trkpt lat="44.90752375497812" lon="11.928118629066168"><ele>-1.6</ele><time>2026-04-11T17:04:07Z</time></trkpt><trkpt lat="44.90753109059677" lon="11.928252105022304"><ele>-1.4000000000000001</ele><time>2026-04-11T17:04:09Z</time></trkpt><trkpt lat="44.90754279581556" lon="11.928382964709455"><ele>-1.2000000000000002</ele><time>2026-04-11T17:04:11Z</time></trkpt><trkpt lat="44.90754582898234" lon="11.928512880298744"><ele>-1.0</ele><time>2026-04-11T17:04:13Z</time></trkpt><trkpt lat="44.907553727181885" lon="11.928643529124898"><ele>-1.2000000000000002</ele><time>2026-04-11T17:04:15Z</time></trkpt><trkpt lat="44.907561475512885" lon="11.928774008543565"><ele>-1.4000000000000001</ele><time>2026-04-11T17:04:17Z</time></trkpt><trkpt lat="44.90756664146808" lon="11.928907456680795"><ele>-1.6</ele><time>2026-04-11T17:04:19Z</time></trkpt><trkpt lat="44.90757375687416" lon="11.929033804686851"><ele>-1.8</ele><time>2026-04-11T17:04:21Z</time></trkpt><trkpt lat="44.90757863737335" lon="11.929157451523716"><ele>-2.0</ele><time>2026-04-11T17:04:23Z</time></trkpt><trkpt lat="44.907584342419526" lon="11.929292140404952"><ele>-2.1666666666666665</ele><time>2026-04-11T17:04:25Z</time></trkpt><trkpt lat="44.907594703948845" lon="11.929421747297551"><ele>-2.333333333333333</ele><time>2026-04-11T17:04:27Z</time></trkpt><trkpt lat="44.90760033644961" lon="11.929554336744971"><ele>-2.5</ele><time>2026-04-11T17:04:29Z</time></trkpt><trkpt lat="44.907618492121344" lon="11.929680411433731"><ele>-2.6666666666666665</ele><time>2026-04-11T17:04:31Z</time></trkpt><trkpt lat="44.9076216000679" lon="11.929798280917831"><ele>-2.8333333333333335</ele><time>2026-04-11T17:04:33Z</time></trkpt><trkpt lat="44.90761791264758" lon="11.929922104228758"><ele>-3.0</ele><time>2026-04-11T17:04:35Z</time></trkpt><trkpt lat="44.90762840029295" lon="11.93005588587465"><ele>-3.3333333333333335</ele><time>2026-04-11T17:04:37Z</time></trkpt><trkpt lat="44.90763451493415" lon="11.930192516485961"><ele>-3.666666666666667</ele><time>2026-04-11T17:04:39Z</time></trkpt><trkpt lat="44.907644466319056" lon="11.930329790813198"><ele>-4.0</ele><time>2026-04-11T17:04:41Z</time></trkpt><trkpt lat="44.907647446707564" lon="11.930455152406058"><ele>-4.333333333333334</ele><time>2026-04-11T17:04:43Z</time></trkpt><trkpt lat="44.907656842786814" lon="11.930572066989859"><ele>-4.666666666666667</ele><time>2026-04-11T17:04:45Z</time></trkpt><trkpt lat="44.907664287353484" lon="11.930682288095564"><ele>-5.0</ele><time>2026-04-11T17:04:47Z</time></trkpt><trkpt lat="44.907662629080335" lon="11.930801404420867"><ele>-4.833333333333334</ele><time>2026-04-11T17:04:49Z</time></trkpt><trkpt lat="44.907665587037336" lon="11.930922591736405"><ele>-4.666666666666667</ele><time>2026-04-11T17:04:51Z</time></trkpt><trkpt lat="44.90767539693411" lon="11.931032602812426"><ele>-4.5</ele><time>2026-04-11T17:04:53Z</time></trkpt><trkpt lat="44.90768310674989" lon="11.931136195930188"><ele>-4.333333333333333</ele><time>2026-04-11T17:04:55Z</time></trkpt><trkpt lat="44.90769741880921" lon="11.931231251585745"><ele>-4.166666666666666</ele><time>2026-04-11T17:04:57Z</time></trkpt><trkpt lat="44.90770141227963" lon="11.931337002979754"><ele>-4.0</ele><time>2026-04-11T17:04:59Z</time></trkpt><trkpt lat="44.90770125841492" lon="11.931441375391493"><ele>-4.0</ele><time>2026-04-11T17:05:01Z</time></trkpt><trkpt lat="44.90770111509337" lon="11.931539483935872"><ele>-3.9999999999999996</ele><time>2026-04-11T17:05:03Z</time></trkpt><trkpt lat="44.90769817028079" lon="11.931632755776864"><ele>-4.0</ele><time>2026-04-11T17:05:05Z</time></trkpt><trkpt lat="44.907705966328535" lon="11.931734888662914"><ele>-4.0</ele><time>2026-04-11T17:05:07Z</time></trkpt><trkpt lat="44.907721169474755" lon="11.931852659687287"><ele>-3.9999999999999996</ele><time>2026-04-11T17:05:09Z</time></trkpt><trkpt lat="44.90771998738741" lon="11.931954818980115"><ele>-4.0</ele><time>2026-04-11T17:05:10.999Z</time></trkpt><trkpt lat="44.90772070071405" lon="11.932054893575465"><ele>-4.0</ele><time>2026-04-11T17:05:12.999Z</time></trkpt><trkpt lat="44.907736594038546" lon="11.93214847748291"><ele>-4.0</ele><time>2026-04-11T17:05:14.999Z</time></trkpt><trkpt lat="44.907744021967375" lon="11.932241840390798"><ele>-3.9999999999999996</ele><time>2026-04-11T17:05:16.999Z</time></trkpt><trkpt lat="44.90774751656539" lon="11.9323395510681"><ele>-4.0</ele><time>2026-04-11T17:05:18.999Z</time></trkpt><trkpt lat="44.90774930995785" lon="11.932440242414511"><ele>-4.0</ele><time>2026-04-11T17:05:20.999Z</time></trkpt><trkpt lat="44.90775206696608" lon="11.932531067152226"><ele>-3.9999999999999996</ele><time>2026-04-11T17:05:22.999Z</time></trkpt><trkpt lat="44.90775785088315" lon="11.932647011711326"><ele>-4.0</ele><time>2026-04-11T17:05:25.999Z</time></trkpt><trkpt lat="44.90775827817506" lon="11.932752734611887"><ele>-4.0</ele><time>2026-04-11T17:05:28.999Z</time></trkpt><trkpt lat="44.90776703411729" lon="11.932869686739068"><ele>-3.9999999999999996</ele><time>2026-04-11T17:05:31.999Z</time></trkpt><trkpt lat="44.907770223305185" lon="11.932963876105184"><ele>-4.0</ele><time>2026-04-11T17:05:33.999Z</time></trkpt><trkpt lat="44.90777474457201" lon="11.933093840146714"><ele>-4.0</ele><time>2026-04-11T17:05:36.999Z</time></trkpt><trkpt lat="44.907785915963004" lon="11.933211078199731"><ele>-4.0</ele><time>2026-04-11T17:05:39.999Z</time></trkpt><trkpt lat="44.90778625045963" lon="11.933307743489099"><ele>-3.9999999999999996</ele><time>2026-04-11T17:05:41.999Z</time></trkpt><trkpt lat="44.907794686047644" lon="11.933413965020296"><ele>-4.0</ele><time>2026-04-11T17:05:43.999Z</time></trkpt><trkpt lat="44.907797437156056" lon="11.933510720770895"><ele>-3.9999999999999996</ele><time>2026-04-11T17:05:45.999Z</time></trkpt><trkpt lat="44.907797115279365" lon="11.933612576185128"><ele>-4.0</ele><time>2026-04-11T17:05:47.999Z</time></trkpt><trkpt lat="44.90781088665819" lon="11.933728639155342"><ele>-4.0</ele><time>2026-04-11T17:05:49.999Z</time></trkpt><trkpt lat="44.90781512065821" lon="11.93384296995352"><ele>-4.0</ele><time>2026-04-11T17:05:51.999Z</time></trkpt><trkpt lat="44.90781775954387" lon="11.933947263537616"><ele>-3.9999999999999996</ele><time>2026-04-11T17:05:53.999Z</time></trkpt><trkpt lat="44.90782590085949" lon="11.934055929926528"><ele>-4.0</ele><time>2026-04-11T17:05:55.999Z</time></trkpt><trkpt lat="44.90783775178006" lon="11.934188897253605"><ele>-3.833333333333333</ele><time>2026-04-11T17:05:57.999Z</time></trkpt><trkpt lat="44.90784203064696" lon="11.934313259388826"><ele>-3.6666666666666665</ele><time>2026-04-11T17:05:59.999Z</time></trkpt><trkpt lat="44.90785165171319" lon="11.934431719183486"><ele>-3.5</ele><time>2026-04-11T17:06:01.999Z</time></trkpt><trkpt lat="44.90784955287606" lon="11.934557252882513"><ele>-3.333333333333333</ele><time>2026-04-11T17:06:03.999Z</time></trkpt><trkpt lat="44.90785212142256" lon="11.93467475019872"><ele>-3.1666666666666665</ele><time>2026-04-11T17:06:05.999Z</time></trkpt><trkpt lat="44.90785742320667" lon="11.934789985434385"><ele>-3.0</ele><time>2026-04-11T17:06:07.999Z</time></trkpt><trkpt lat="44.90786658873407" lon="11.934920003822842"><ele>-3.0</ele><time>2026-04-11T17:06:09.999Z</time></trkpt><trkpt lat="44.90786963534198" lon="11.935043968708127"><ele>-3.0</ele><time>2026-04-11T17:06:11.999Z</time></trkpt><trkpt lat="44.907877128515004" lon="11.93516404940293"><ele>-3.0</ele><time>2026-04-11T17:06:14Z</time></trkpt><trkpt lat="44.90787991995567" lon="11.935275419710573"><ele>-3.0</ele><time>2026-04-11T17:06:16Z</time></trkpt><trkpt lat="44.90789442047115" lon="11.935384762981865"><ele>-3.0</ele><time>2026-04-11T17:06:18Z</time></trkpt><trkpt lat="44.90789137690196" lon="11.935512376933456"><ele>-3.0</ele><time>2026-04-11T17:06:20Z</time></trkpt><trkpt lat="44.90789994934728" lon="11.935628667279154"><ele>-2.9999999999999996</ele><time>2026-04-11T17:06:22Z</time></trkpt><trkpt lat="44.907904242378656" lon="11.935742196964204"><ele>-3.0</ele><time>2026-04-11T17:06:24Z</time></trkpt><trkpt lat="44.90791573517154" lon="11.935833429611865"><ele>-3.0</ele><time>2026-04-11T17:06:26Z</time></trkpt><trkpt lat="44.90791869134385" lon="11.935943815047356"><ele>-3.0</ele><time>2026-04-11T17:06:28Z</time></trkpt><trkpt lat="44.907918841622234" lon="11.93604637143834"><ele>-3.0</ele><time>2026-04-11T17:06:30Z</time></trkpt><trkpt lat="44.907919508251155" lon="11.936136680685005"><ele>-2.9999999999999996</ele><time>2026-04-11T17:06:32Z</time></trkpt><trkpt lat="44.90793091454156" lon="11.936230989517005"><ele>-3.0</ele><time>2026-04-11T17:06:34Z</time></trkpt><trkpt lat="44.90793494880035" lon="11.936355490006525"><ele>-3.0</ele><time>2026-04-11T17:06:36Z</time></trkpt><trkpt lat="44.90795033071525" lon="11.93646385015838"><ele>-3.0</ele><time>2026-04-11T17:06:38Z</time></trkpt><trkpt lat="44.90795232942591" lon="11.93656983126107"><ele>-3.0</ele><time>2026-04-11T17:06:40Z</time></trkpt><trkpt lat="44.90795362682375" lon="11.936686668139139"><ele>-3.0</ele><time>2026-04-11T17:06:42Z</time></trkpt><trkpt lat="44.90796269676369" lon="11.936792238758336"><ele>-3.0</ele><time>2026-04-11T17:06:44Z</time></trkpt><trkpt lat="44.90796728331531" lon="11.936896070848091"><ele>-3.0</ele><time>2026-04-11T17:06:47Z</time></trkpt><trkpt lat="44.907977385244195" lon="11.936991409486758"><ele>-3.0</ele><time>2026-04-11T17:06:50Z</time></trkpt><trkpt lat="44.90798141543502" lon="11.937104118363315"><ele>-3.0</ele><time>2026-04-11T17:06:54Z</time></trkpt><trkpt lat="44.907980091436755" lon="11.937212790033929"><ele>-3.0</ele><time>2026-04-11T17:06:58Z</time></trkpt><trkpt lat="44.90799395071792" lon="11.937315583471504"><ele>-3.0</ele><time>2026-04-11T17:07:02Z</time></trkpt><trkpt lat="44.907984054891244" lon="11.937427829747186"><ele>-3.0</ele><time>2026-04-11T17:07:05Z</time></trkpt><trkpt lat="44.907989313869756" lon="11.937538919547698"><ele>-3.0</ele><time>2026-04-11T17:07:07Z</time></trkpt><trkpt lat="44.90799463551294" lon="11.937651333161362"><ele>-2.9999999999999996</ele><time>2026-04-11T17:07:09Z</time></trkpt><trkpt lat="44.908014890675176" lon="11.937749468972218"><ele>-3.0</ele><time>2026-04-11T17:07:11Z</time></trkpt><trkpt lat="44.90801404186422" lon="11.937840508243315"><ele>-3.0</ele><time>2026-04-11T17:07:12.999Z</time></trkpt><trkpt lat="44.90801960043198" lon="11.937934897957684"><ele>-3.0</ele><time>2026-04-11T17:07:14.999Z</time></trkpt><trkpt lat="44.908023151169836" lon="11.938045952498937"><ele>-3.0</ele><time>2026-04-11T17:07:16.999Z</time></trkpt><trkpt lat="44.90802088468345" lon="11.938146927959"><ele>-2.9999999999999996</ele><time>2026-04-11T17:07:18.999Z</time></trkpt><trkpt lat="44.90802549086872" lon="11.938249538386769"><ele>-3.0</ele><time>2026-04-11T17:07:20.999Z</time></trkpt><trkpt lat="44.908027740171974" lon="11.938341794761014"><ele>-3.1666666666666665</ele><time>2026-04-11T17:07:22.999Z</time></trkpt><trkpt lat="44.90803102287383" lon="11.938451174610186"><ele>-3.333333333333333</ele><time>2026-04-11T17:07:24.999Z</time></trkpt><trkpt lat="44.90803474258011" lon="11.938564030911234"><ele>-3.5</ele><time>2026-04-11T17:07:26.999Z</time></trkpt><trkpt lat="44.908052279912056" lon="11.938673394653593"><ele>-3.6666666666666665</ele><time>2026-04-11T17:07:28.999Z</time></trkpt><trkpt lat="44.90805717859564" lon="11.938792121444592"><ele>-3.833333333333333</ele><time>2026-04-11T17:07:30.999Z</time></trkpt><trkpt lat="44.90805881712144" lon="11.938908999449671"><ele>-4.0</ele><time>2026-04-11T17:07:32.999Z</time></trkpt><trkpt lat="44.90807020189476" lon="11.939021900423292"><ele>-3.9999999999999996</ele><time>2026-04-11T17:07:34.999Z</time></trkpt><trkpt lat="44.90807314828605" lon="11.939139147862281"><ele>-4.0</ele><time>2026-04-11T17:07:36.999Z</time></trkpt><trkpt lat="44.90807308133286" lon="11.93925485039083"><ele>-4.0</ele><time>2026-04-11T17:07:38.999Z</time></trkpt><trkpt lat="44.908076739448006" lon="11.939371927110864"><ele>-4.0</ele><time>2026-04-11T17:07:40.999Z</time></trkpt><trkpt lat="44.90808422427215" lon="11.939485611480773"><ele>-3.9999999999999996</ele><time>2026-04-11T17:07:42.999Z</time></trkpt><trkpt lat="44.90809222140711" lon="11.939601537593054"><ele>-4.0</ele><time>2026-04-11T17:07:44.999Z</time></trkpt><trkpt lat="44.90809512933875" lon="11.939712805853288"><ele>-3.6666666666666665</ele><time>2026-04-11T17:07:46.999Z</time></trkpt><trkpt lat="44.9080987145091" lon="11.939824928123194"><ele>-3.333333333333333</ele><time>2026-04-11T17:07:48.999Z</time></trkpt><trkpt lat="44.908101665461125" lon="11.939938509696077"><ele>-3.0</ele><time>2026-04-11T17:07:50.999Z</time></trkpt><trkpt lat="44.908125907782406" lon="11.9400485707579"><ele>-2.6666666666666665</ele><time>2026-04-11T17:07:52.999Z</time></trkpt><trkpt lat="44.908126893948335" lon="11.940157141902725"><ele>-2.333333333333333</ele><time>2026-04-11T17:07:54.999Z</time></trkpt><trkpt lat="44.90812305223726" lon="11.940270681998784"><ele>-2.0</ele><time>2026-04-11T17:07:56.999Z</time></trkpt><trkpt lat="44.90813145201943" lon="11.940379488402039"><ele>-1.9999999999999998</ele><time>2026-04-11T17:07:58.999Z</time></trkpt><trkpt lat="44.90814028976485" lon="11.94049282572735"><ele>-2.0</ele><time>2026-04-11T17:08:00.999Z</time></trkpt><trkpt lat="44.90814715172494" lon="11.940602969776071"><ele>-2.0</ele><time>2026-04-11T17:08:02.999Z</time></trkpt><trkpt lat="44.90815173277648" lon="11.940705198266569"><ele>-2.0</ele><time>2026-04-11T17:08:04.999Z</time></trkpt><trkpt lat="44.908149051592936" lon="11.940810748060082"><ele>-1.9999999999999998</ele><time>2026-04-11T17:08:06.999Z</time></trkpt><trkpt lat="44.90815419904071" lon="11.940919533157052"><ele>-2.0</ele><time>2026-04-11T17:08:08.999Z</time></trkpt><trkpt lat="44.9081625542635" lon="11.941029601132188"><ele>-1.9999999999999998</ele><time>2026-04-11T17:08:10.999Z</time></trkpt><trkpt lat="44.90816332684015" lon="11.94113877668284"><ele>-2.0</ele><time>2026-04-11T17:08:12.999Z</time></trkpt><trkpt lat="44.90817402478377" lon="11.941251307348718"><ele>-2.0</ele><time>2026-04-11T17:08:14.999Z</time></trkpt><trkpt lat="44.908188076639064" lon="11.941361299077837"><ele>-2.0</ele><time>2026-04-11T17:08:16.999Z</time></trkpt><trkpt lat="44.90819322113614" lon="11.941476462858752"><ele>-1.9999999999999998</ele><time>2026-04-11T17:08:19Z</time></trkpt><trkpt lat="44.908197730724325" lon="11.941584818083026"><ele>-2.0</ele><time>2026-04-11T17:08:21Z</time></trkpt><trkpt lat="44.90820168207241" lon="11.941702639356901"><ele>-2.333333333333333</ele><time>2026-04-11T17:08:23Z</time></trkpt><trkpt lat="44.908201115368755" lon="11.94181513178584"><ele>-2.6666666666666665</ele><time>2026-04-11T17:08:25Z</time></trkpt><trkpt lat="44.90821490478649" lon="11.941930931882041"><ele>-3.0</ele><time>2026-04-11T17:08:27Z</time></trkpt><trkpt lat="44.908214020209925" lon="11.94204746786788"><ele>-3.333333333333333</ele><time>2026-04-11T17:08:29Z</time></trkpt><trkpt lat="44.90821696362843" lon="11.942160162711504"><ele>-3.6666666666666665</ele><time>2026-04-11T17:08:31Z</time></trkpt><trkpt lat="44.908228406673864" lon="11.942289846748933"><ele>-4.0</ele><time>2026-04-11T17:08:33Z</time></trkpt><trkpt lat="44.908233581489796" lon="11.942414278418836"><ele>-3.9999999999999996</ele><time>2026-04-11T17:08:35Z</time></trkpt><trkpt lat="44.90824254476889" lon="11.942529661906203"><ele>-4.0</ele><time>2026-04-11T17:08:37Z</time></trkpt><trkpt lat="44.90823676747537" lon="11.942644425754263"><ele>-4.0</ele><time>2026-04-11T17:08:39Z</time></trkpt><trkpt lat="44.908252315819766" lon="11.942751505042093"><ele>-4.0</ele><time>2026-04-11T17:08:41Z</time></trkpt><trkpt lat="44.90824520826395" lon="11.942864804713421"><ele>-3.9999999999999996</ele><time>2026-04-11T17:08:43Z</time></trkpt><trkpt lat="44.90825082397535" lon="11.942984163133655"><ele>-4.0</ele><time>2026-04-11T17:08:45Z</time></trkpt><trkpt lat="44.90825669986183" lon="11.943097529079326"><ele>-3.9999999999999996</ele><time>2026-04-11T17:08:47Z</time></trkpt><trkpt lat="44.90826158008795" lon="11.943212341315547"><ele>-4.0</ele><time>2026-04-11T17:08:49Z</time></trkpt><trkpt lat="44.908277631685486" lon="11.943322313659623"><ele>-4.0</ele><time>2026-04-11T17:08:51Z</time></trkpt><trkpt lat="44.90828095714738" lon="11.943436062178161"><ele>-4.0</ele><time>2026-04-11T17:08:53Z</time></trkpt><trkpt lat="44.90827449824683" lon="11.94355129636835"><ele>-3.9999999999999996</ele><time>2026-04-11T17:08:55Z</time></trkpt><trkpt lat="44.9082872335646" lon="11.943680255089587"><ele>-4.0</ele><time>2026-04-11T17:08:57Z</time></trkpt><trkpt lat="44.90828956119224" lon="11.943816829059093"><ele>-3.9999999999999996</ele><time>2026-04-11T17:08:59Z</time></trkpt><trkpt lat="44.908298830674156" lon="11.94395750732033"><ele>-4.0</ele><time>2026-04-11T17:09:01Z</time></trkpt><trkpt lat="44.90830827448859" lon="11.944083570479359"><ele>-4.0</ele><time>2026-04-11T17:09:03Z</time></trkpt><trkpt lat="44.908309749229716" lon="11.944200989695242"><ele>-4.0</ele><time>2026-04-11T17:09:05Z</time></trkpt><trkpt lat="44.908316818049464" lon="11.944309448545912"><ele>-3.9999999999999996</ele><time>2026-04-11T17:09:07Z</time></trkpt><trkpt lat="44.90832144968867" lon="11.944414383232441"><ele>-4.0</ele><time>2026-04-11T17:09:09Z</time></trkpt><trkpt lat="44.90833663783703" lon="11.944523738848023"><ele>-4.0</ele><time>2026-04-11T17:09:11Z</time></trkpt><trkpt lat="44.90834254572401" lon="11.944622870516573"><ele>-3.9999999999999996</ele><time>2026-04-11T17:09:13Z</time></trkpt><trkpt lat="44.90833918863898" lon="11.944715407602228"><ele>-4.0</ele><time>2026-04-11T17:09:15Z</time></trkpt><trkpt lat="44.90833972395473" lon="11.94480574821368"><ele>-4.0</ele><time>2026-04-11T17:09:17Z</time></trkpt><trkpt lat="44.908351740601205" lon="11.944910570672505"><ele>-3.9999999999999996</ele><time>2026-04-11T17:09:19Z</time></trkpt><trkpt lat="44.908349117151374" lon="11.945006687520682"><ele>-4.0</ele><time>2026-04-11T17:09:20.999Z</time></trkpt><trkpt lat="44.90835827224269" lon="11.945127477902815"><ele>-4.0</ele><time>2026-04-11T17:09:23.999Z</time></trkpt><trkpt lat="44.90836258451266" lon="11.945234920118347"><ele>-3.8571428571428568</ele><time>2026-04-11T17:09:26.999Z</time></trkpt><trkpt lat="44.9083737012584" lon="11.945329294040034"><ele>-3.714285714285714</ele><time>2026-04-11T17:09:29.999Z</time></trkpt><trkpt lat="44.908380355483764" lon="11.94542357046884"><ele>-3.571428571428571</ele><time>2026-04-11T17:09:31.999Z</time></trkpt><trkpt lat="44.90838064918484" lon="11.945521693792017"><ele>-3.4285714285714284</ele><time>2026-04-11T17:09:33.999Z</time></trkpt><trkpt lat="44.908385882162065" lon="11.945612196956938"><ele>-3.2857142857142856</ele><time>2026-04-11T17:09:35.999Z</time></trkpt><trkpt lat="44.90838342047481" lon="11.945735467876238"><ele>-3.1428571428571423</ele><time>2026-04-11T17:09:38.999Z</time></trkpt><trkpt lat="44.90839962358295" lon="11.945847700254271"><ele>-3.0</ele><time>2026-04-11T17:09:41.999Z</time></trkpt><trkpt lat="44.9084104597909" lon="11.945976893255292"><ele>-2.8333333333333335</ele><time>2026-04-11T17:09:44.999Z</time></trkpt><trkpt lat="44.90840987011215" lon="11.946085228216612"><ele>-2.6666666666666665</ele><time>2026-04-11T17:09:46.999Z</time></trkpt><trkpt lat="44.90841153099466" lon="11.946199008589808"><ele>-2.5</ele><time>2026-04-11T17:09:48.999Z</time></trkpt><trkpt lat="44.908414529630065" lon="11.946313520596435"><ele>-2.333333333333333</ele><time>2026-04-11T17:09:50.999Z</time></trkpt><trkpt lat="44.90843352462052" lon="11.946422548722031"><ele>-2.1666666666666665</ele><time>2026-04-11T17:09:52.999Z</time></trkpt><trkpt lat="44.908441968488326" lon="11.946546042457172"><ele>-2.0</ele><time>2026-04-11T17:09:54.999Z</time></trkpt><trkpt lat="44.90844691863728" lon="11.946659656245226"><ele>-2.4000000000000004</ele><time>2026-04-11T17:09:56.999Z</time></trkpt><trkpt lat="44.90845217577159" lon="11.946781299540914"><ele>-2.8000000000000003</ele><time>2026-04-11T17:09:58.999Z</time></trkpt><trkpt lat="44.90845741887243" lon="11.946917088703021"><ele>-3.2</ele><time>2026-04-11T17:10:00.999Z</time></trkpt><trkpt lat="44.90846306403046" lon="11.947054648667262"><ele>-3.6</ele><time>2026-04-11T17:10:02.999Z</time></trkpt><trkpt lat="44.90846971443379" lon="11.947191773957822"><ele>-4.0</ele><time>2026-04-11T17:10:04.999Z</time></trkpt><trkpt lat="44.908477435138494" lon="11.947319464131132"><ele>-3.9999999999999996</ele><time>2026-04-11T17:10:06.999Z</time></trkpt><trkpt lat="44.90847474125292" lon="11.947438103594878"><ele>-4.0</ele><time>2026-04-11T17:10:08.999Z</time></trkpt><trkpt lat="44.908482061150366" lon="11.947547779438855"><ele>-4.0</ele><time>2026-04-11T17:10:10.999Z</time></trkpt><trkpt lat="44.908487314223365" lon="11.947696184521774"><ele>-4.0</ele><time>2026-04-11T17:10:13.999Z</time></trkpt><trkpt lat="44.908492612094385" lon="11.947789457730659"><ele>-3.9999999999999996</ele><time>2026-04-11T17:10:15.999Z</time></trkpt><trkpt lat="44.90849795543019" lon="11.947891590143572"><ele>-4.0</ele><time>2026-04-11T17:10:17.999Z</time></trkpt><trkpt lat="44.90849671229074" lon="11.947996679368941"><ele>-3.9999999999999996</ele><time>2026-04-11T17:10:19.999Z</time></trkpt><trkpt lat="44.90850386566625" lon="11.948091568854423"><ele>-4.0</ele><time>2026-04-11T17:10:21.999Z</time></trkpt><trkpt lat="44.908510563860574" lon="11.948222684049094"><ele>-4.0</ele><time>2026-04-11T17:10:25Z</time></trkpt><trkpt lat="44.908516510664946" lon="11.948339405004514"><ele>-4.0</ele><time>2026-04-11T17:10:28Z</time></trkpt><trkpt lat="44.908525289427345" lon="11.948463901478107"><ele>-3.9999999999999996</ele><time>2026-04-11T17:10:31Z</time></trkpt><trkpt lat="44.908526978220905" lon="11.948586957413124"><ele>-4.0</ele><time>2026-04-11T17:10:34Z</time></trkpt><trkpt lat="44.908536892388256" lon="11.948699832905215"><ele>-4.0</ele><time>2026-04-11T17:10:37Z</time></trkpt><trkpt lat="44.90854292698697" lon="11.948803107254555"><ele>-3.9999999999999996</ele><time>2026-04-11T17:10:39Z</time></trkpt><trkpt lat="44.90854564536942" lon="11.948909015735444"><ele>-4.0</ele><time>2026-04-11T17:10:41Z</time></trkpt><trkpt lat="44.90854703666292" lon="11.949006738835193"><ele>-4.0</ele><time>2026-04-11T17:10:43Z</time></trkpt><trkpt lat="44.90855731485462" lon="11.949102779732671"><ele>-3.9999999999999996</ele><time>2026-04-11T17:10:45Z</time></trkpt><trkpt lat="44.908554409481454" lon="11.949199517232937"><ele>-4.0</ele><time>2026-04-11T17:10:47Z</time></trkpt><trkpt lat="44.908564874187334" lon="11.949308119137081"><ele>-4.0</ele><time>2026-04-11T17:10:49Z</time></trkpt><trkpt lat="44.90856704011558" lon="11.94941290735031"><ele>-3.9999999999999996</ele><time>2026-04-11T17:10:51Z</time></trkpt><trkpt lat="44.908571783410146" lon="11.949506229951227"><ele>-4.0</ele><time>2026-04-11T17:10:53Z</time></trkpt><trkpt lat="44.90857810509437" lon="11.949617417978555"><ele>-4.0</ele><time>2026-04-11T17:10:56Z</time></trkpt><trkpt lat="44.90858148013948" lon="11.94972428600991"><ele>-4.0</ele><time>2026-04-11T17:13:02Z</time></trkpt><trkpt lat="44.908585855984924" lon="11.949851023040468"><ele>-3.9999999999999996</ele><time>2026-04-11T17:13:06Z</time></trkpt><trkpt lat="44.908591999253105" lon="11.949981868407802"><ele>-4.0</ele><time>2026-04-11T17:13:09Z</time></trkpt><trkpt lat="44.908602739553096" lon="11.950098429205388"><ele>-3.9999999999999996</ele><time>2026-04-11T17:13:11Z</time></trkpt><trkpt lat="44.90860490637914" lon="11.950227655949618"><ele>-4.0</ele><time>2026-04-11T17:13:13Z</time></trkpt><trkpt lat="44.908610672059936" lon="11.950344277138603"><ele>-4.0</ele><time>2026-04-11T17:13:15Z</time></trkpt><trkpt lat="44.908614341193676" lon="11.95045354211699"><ele>-4.0</ele><time>2026-04-11T17:13:17Z</time></trkpt><trkpt lat="44.908621184282225" lon="11.95056097558648"><ele>-3.9999999999999996</ele><time>2026-04-11T17:13:19Z</time></trkpt><trkpt lat="44.908628929133634" lon="11.950690929183304"><ele>-4.0</ele><time>2026-04-11T17:13:21Z</time></trkpt><trkpt lat="44.9086355073872" lon="11.950811948621281"><ele>-3.9999999999999996</ele><time>2026-04-11T17:13:23Z</time></trkpt><trkpt lat="44.90864196639451" lon="11.950925006025104"><ele>-4.0</ele><time>2026-04-11T17:13:25Z</time></trkpt><trkpt lat="44.9086453619342" lon="11.951041174567802"><ele>-4.0</ele><time>2026-04-11T17:13:26.999Z</time></trkpt><trkpt lat="44.9086540562211" lon="11.95117277821034"><ele>-4.0</ele><time>2026-04-11T17:13:28.999Z</time></trkpt><trkpt lat="44.908660182491104" lon="11.951293765660914"><ele>-3.9999999999999996</ele><time>2026-04-11T17:13:30.999Z</time></trkpt><trkpt lat="44.90866794906283" lon="11.951404692522068"><ele>-4.0</ele><time>2026-04-11T17:13:32.999Z</time></trkpt><trkpt lat="44.90867849151173" lon="11.951505819329554"><ele>-3.9999999999999996</ele><time>2026-04-11T17:13:34.999Z</time></trkpt><trkpt lat="44.908682487115996" lon="11.95162945444715"><ele>-4.0</ele><time>2026-04-11T17:13:36.999Z</time></trkpt><trkpt lat="44.90868502125689" lon="11.951761056278643"><ele>-4.0</ele><time>2026-04-11T17:13:38.999Z</time></trkpt><trkpt lat="44.908689355410225" lon="11.951889416318792"><ele>-4.0</ele><time>2026-04-11T17:13:40.999Z</time></trkpt><trkpt lat="44.90869065629102" lon="11.952010352921704"><ele>-3.9999999999999996</ele><time>2026-04-11T17:13:42.999Z</time></trkpt><trkpt lat="44.90869896622334" lon="11.952135587991396"><ele>-4.0</ele><time>2026-04-11T17:13:44.999Z</time></trkpt><trkpt lat="44.90870552351969" lon="11.952266847849934"><ele>-3.833333333333333</ele><time>2026-04-11T17:13:46.999Z</time></trkpt><trkpt lat="44.908713044908716" lon="11.952402004887725"><ele>-3.6666666666666665</ele><time>2026-04-11T17:13:48.999Z</time></trkpt><trkpt lat="44.90872541565078" lon="11.952524258711723"><ele>-3.5</ele><time>2026-04-11T17:13:50.999Z</time></trkpt><trkpt lat="44.908729784728784" lon="11.952641688593548"><ele>-3.333333333333333</ele><time>2026-04-11T17:13:52.999Z</time></trkpt><trkpt lat="44.9087313226647" lon="11.952748493152201"><ele>-3.1666666666666665</ele><time>2026-04-11T17:13:54.999Z</time></trkpt><trkpt lat="44.908738877248304" lon="11.952853551165338"><ele>-3.0</ele><time>2026-04-11T17:13:56.999Z</time></trkpt><trkpt lat="44.90874638806687" lon="11.95296326103717"><ele>-2.9999999999999996</ele><time>2026-04-11T17:13:58.999Z</time></trkpt><trkpt lat="44.90874960202296" lon="11.953076975840338"><ele>-3.0</ele><time>2026-04-11T17:14:00.999Z</time></trkpt><trkpt lat="44.90875458935673" lon="11.953184263585475"><ele>-3.0</ele><time>2026-04-11T17:14:02.999Z</time></trkpt><trkpt lat="44.90875763195615" lon="11.953287563078236"><ele>-3.0</ele><time>2026-04-11T17:14:04.999Z</time></trkpt><trkpt lat="44.90876399793208" lon="11.953385902098594"><ele>-3.0</ele><time>2026-04-11T17:14:06.999Z</time></trkpt><trkpt lat="44.90876680394056" lon="11.95348043948793"><ele>-2.9999999999999996</ele><time>2026-04-11T17:14:08.999Z</time></trkpt><trkpt lat="44.908766481154224" lon="11.953577193326513"><ele>-3.0</ele><time>2026-04-11T17:14:10.999Z</time></trkpt><trkpt lat="44.90878234961261" lon="11.953673621927157"><ele>-3.0</ele><time>2026-04-11T17:14:12.999Z</time></trkpt><trkpt lat="44.908786848794506" lon="11.953789710492154"><ele>-3.0</ele><time>2026-04-11T17:14:14.999Z</time></trkpt><trkpt lat="44.908791867840165" lon="11.953906453795561"><ele>-3.0</ele><time>2026-04-11T17:14:16.999Z</time></trkpt><trkpt lat="44.90879857937022" lon="11.954024626594013"><ele>-3.0</ele><time>2026-04-11T17:14:18.999Z</time></trkpt><trkpt lat="44.90880124999751" lon="11.954139889425258"><ele>-3.0</ele><time>2026-04-11T17:14:20.999Z</time></trkpt><trkpt lat="44.90880504578657" lon="11.954249223920826"><ele>-3.0</ele><time>2026-04-11T17:14:22.999Z</time></trkpt><trkpt lat="44.908812135755" lon="11.954371177890689"><ele>-3.1666666666666665</ele><time>2026-04-11T17:14:24.999Z</time></trkpt><trkpt lat="44.908819503614346" lon="11.954479580551032"><ele>-3.333333333333333</ele><time>2026-04-11T17:14:26.999Z</time></trkpt><trkpt lat="44.90882435518723" lon="11.95458893839156"><ele>-3.5</ele><time>2026-04-11T17:14:28.999Z</time></trkpt><trkpt lat="44.9088300635881" lon="11.954718738233472"><ele>-3.6666666666666665</ele><time>2026-04-11T17:14:30.999Z</time></trkpt><trkpt lat="44.90883399452568" lon="11.954844052591309"><ele>-3.833333333333333</ele><time>2026-04-11T17:14:32.999Z</time></trkpt><trkpt lat="44.90883509072878" lon="11.954960134357913"><ele>-4.0</ele><time>2026-04-11T17:14:34.999Z</time></trkpt><trkpt lat="44.908839214458766" lon="11.955082065530355"><ele>-4.166666666666666</ele><time>2026-04-11T17:14:37Z</time></trkpt><trkpt lat="44.90884439400944" lon="11.955196272546782"><ele>-4.333333333333333</ele><time>2026-04-11T17:14:39Z</time></trkpt><trkpt lat="44.908850717209376" lon="11.95531476758705"><ele>-4.5</ele><time>2026-04-11T17:14:41Z</time></trkpt><trkpt lat="44.90885571840968" lon="11.955441787156218"><ele>-4.666666666666667</ele><time>2026-04-11T17:14:43Z</time></trkpt><trkpt lat="44.908859880649025" lon="11.955559945446645"><ele>-4.833333333333334</ele><time>2026-04-11T17:14:45Z</time></trkpt><trkpt lat="44.90886024572488" lon="11.955674034132382"><ele>-5.0</ele><time>2026-04-11T17:14:47Z</time></trkpt><trkpt lat="44.908867929251784" lon="11.955781279607162"><ele>-4.833333333333334</ele><time>2026-04-11T17:14:49Z</time></trkpt><trkpt lat="44.90887272362602" lon="11.955876749367228"><ele>-4.666666666666667</ele><time>2026-04-11T17:14:51Z</time></trkpt><trkpt lat="44.90888289602095" lon="11.956006424491772"><ele>-4.5</ele><time>2026-04-11T17:14:54Z</time></trkpt><trkpt lat="44.908888310182135" lon="11.956114819904531"><ele>-4.333333333333333</ele><time>2026-04-11T17:14:56Z</time></trkpt><trkpt lat="44.90889623802961" lon="11.956239183161523"><ele>-4.166666666666666</ele><time>2026-04-11T17:14:58Z</time></trkpt><trkpt lat="44.908903121638375" lon="11.956372017883314"><ele>-4.0</ele><time>2026-04-11T17:15:00Z</time></trkpt><trkpt lat="44.90890456904872" lon="11.956509295498"><ele>-4.0</ele><time>2026-04-11T17:15:02Z</time></trkpt><trkpt lat="44.90891149964689" lon="11.956643838058445"><ele>-4.0</ele><time>2026-04-11T17:15:04Z</time></trkpt><trkpt lat="44.908917333634726" lon="11.956777774271108"><ele>-4.0</ele><time>2026-04-11T17:15:06Z</time></trkpt><trkpt lat="44.908920767289494" lon="11.956907191290515"><ele>-4.0</ele><time>2026-04-11T17:15:08Z</time></trkpt><trkpt lat="44.908928008514735" lon="11.957033467845399"><ele>-4.0</ele><time>2026-04-11T17:15:10Z</time></trkpt><trkpt lat="44.908933143777254" lon="11.957153639919039"><ele>-3.9999999999999996</ele><time>2026-04-11T17:15:12Z</time></trkpt><trkpt lat="44.90893683968265" lon="11.957260403607743"><ele>-4.0</ele><time>2026-04-11T17:15:14Z</time></trkpt><trkpt lat="44.90894827112346" lon="11.9573618062203"><ele>-4.0</ele><time>2026-04-11T17:15:16Z</time></trkpt><trkpt lat="44.908949089500936" lon="11.957468826811835"><ele>-4.0</ele><time>2026-04-11T17:15:18Z</time></trkpt><trkpt lat="44.90895767495901" lon="11.95759359627326"><ele>-3.9999999999999996</ele><time>2026-04-11T17:15:20Z</time></trkpt><trkpt lat="44.908962941278745" lon="11.957711566388513"><ele>-4.0</ele><time>2026-04-11T17:15:22Z</time></trkpt><trkpt lat="44.908966507820196" lon="11.957825711008992"><ele>-4.0</ele><time>2026-04-11T17:15:24Z</time></trkpt><trkpt lat="44.908971283393015" lon="11.957934247676702"><ele>-4.0</ele><time>2026-04-11T17:15:26Z</time></trkpt><trkpt lat="44.90898099539397" lon="11.958034983298036"><ele>-4.0</ele><time>2026-04-11T17:15:28Z</time></trkpt><trkpt lat="44.90898768988514" lon="11.958167098654881"><ele>-4.0</ele><time>2026-04-11T17:15:30Z</time></trkpt><trkpt lat="44.90899409100512" lon="11.958326197606842"><ele>-4.0</ele><time>2026-04-11T17:15:32Z</time></trkpt><trkpt lat="44.909006620725414" lon="11.95849838744422"><ele>-4.0</ele><time>2026-04-11T17:15:33.999Z</time></trkpt><trkpt lat="44.90901440933006" lon="11.958679185602026"><ele>-4.0</ele><time>2026-04-11T17:15:35.999Z</time></trkpt><trkpt lat="44.9090168009881" lon="11.958860795651356"><ele>-4.0</ele><time>2026-04-11T17:15:37.999Z</time></trkpt><trkpt lat="44.90902285696255" lon="11.958961200363024"><ele>-4.0</ele><time>2026-04-11T17:15:38.999Z</time></trkpt><trkpt lat="44.909028183181135" lon="11.959060545206917"><ele>-4.0</ele><time>2026-04-11T17:15:39.999Z</time></trkpt><trkpt lat="44.90903104124209" lon="11.95915920536617"><ele>-4.0</ele><time>2026-04-11T17:15:40.999Z</time></trkpt><trkpt lat="44.90903648628903" lon="11.959262682981802"><ele>-3.9999999999999996</ele><time>2026-04-11T17:15:41.999Z</time></trkpt><trkpt lat="44.909043110441054" lon="11.959365513264983"><ele>-4.0</ele><time>2026-04-11T17:15:42.999Z</time></trkpt><trkpt lat="44.90904636931466" lon="11.95946676313651"><ele>-4.0</ele><time>2026-04-11T17:15:43.999Z</time></trkpt><trkpt lat="44.909051618027895" lon="11.9595728269833"><ele>-3.9999999999999996</ele><time>2026-04-11T17:15:44.999Z</time></trkpt><trkpt lat="44.9090557230725" lon="11.959675598229673"><ele>-4.0</ele><time>2026-04-11T17:15:45.999Z</time></trkpt><trkpt lat="44.909062709847646" lon="11.959781772067885"><ele>-4.0</ele><time>2026-04-11T17:15:46.999Z</time></trkpt><trkpt lat="44.909071260604875" lon="11.959885585775417"><ele>-4.0</ele><time>2026-04-11T17:15:47.999Z</time></trkpt><trkpt lat="44.90907834488058" lon="11.95998946115546"><ele>-3.9999999999999996</ele><time>2026-04-11T17:15:48.999Z</time></trkpt><trkpt lat="44.90907843570259" lon="11.960095789566111"><ele>-4.0</ele><time>2026-04-11T17:15:49.999Z</time></trkpt><trkpt lat="44.909083970336745" lon="11.960200025144188"><ele>-4.0</ele><time>2026-04-11T17:15:50.999Z</time></trkpt><trkpt lat="44.909089638061786" lon="11.960304199507044"><ele>-3.9999999999999996</ele><time>2026-04-11T17:15:51.999Z</time></trkpt><trkpt lat="44.90909753224741" lon="11.96039871764883"><ele>-4.0</ele><time>2026-04-11T17:15:52.999Z</time></trkpt><trkpt lat="44.90910045691409" lon="11.960499310014344"><ele>-4.0</ele><time>2026-04-11T17:15:53.999Z</time></trkpt><trkpt lat="44.90910379063322" lon="11.960588980317182"><ele>-4.2</ele><time>2026-04-11T17:15:54.999Z</time></trkpt><trkpt lat="44.909107869403066" lon="11.960679447805115"><ele>-4.4</ele><time>2026-04-11T17:15:55.999Z</time></trkpt><trkpt lat="44.909120247709" lon="11.960848127874277"><ele>-4.6</ele><time>2026-04-11T17:15:57.999Z</time></trkpt><trkpt lat="44.909125538237205" lon="11.96101122294935"><ele>-4.8</ele><time>2026-04-11T17:15:59.999Z</time></trkpt><trkpt lat="44.90913729228988" lon="11.961179254495935"><ele>-5.0</ele><time>2026-04-11T17:16:01.999Z</time></trkpt><trkpt lat="44.909139292847684" lon="11.961269207754752"><ele>-5.0</ele><time>2026-04-11T17:16:02.999Z</time></trkpt><trkpt lat="44.90914381404838" lon="11.961362412180735"><ele>-5.0</ele><time>2026-04-11T17:16:03.999Z</time></trkpt><trkpt lat="44.909148799190454" lon="11.961457874490678"><ele>-5.0</ele><time>2026-04-11T17:16:04.999Z</time></trkpt><trkpt lat="44.909152379785034" lon="11.961552654356623"><ele>-5.0</ele><time>2026-04-11T17:16:05.999Z</time></trkpt><trkpt lat="44.90915529689861" lon="11.961647085501596"><ele>-5.0</ele><time>2026-04-11T17:16:06.999Z</time></trkpt><trkpt lat="44.909158476818526" lon="11.961739474507162"><ele>-5.0</ele><time>2026-04-11T17:16:07.999Z</time></trkpt><trkpt lat="44.90917214760528" lon="11.961913712092292"><ele>-4.75</ele><time>2026-04-11T17:16:09.999Z</time></trkpt><trkpt lat="44.90918127265367" lon="11.962080178162882"><ele>-4.5</ele><time>2026-04-11T17:16:11.999Z</time></trkpt><trkpt lat="44.909184550175" lon="11.962240564793024"><ele>-4.25</ele><time>2026-04-11T17:16:13.999Z</time></trkpt><trkpt lat="44.90919550380231" lon="11.962406418848486"><ele>-4.0</ele><time>2026-04-11T17:16:15.999Z</time></trkpt><trkpt lat="44.90919875847737" lon="11.962585530692458"><ele>-4.0</ele><time>2026-04-11T17:16:17.999Z</time></trkpt><trkpt lat="44.9092037156465" lon="11.962675333523885"><ele>-3.9999999999999996</ele><time>2026-04-11T17:16:18.999Z</time></trkpt><trkpt lat="44.90920963438116" lon="11.962766537523898"><ele>-4.0</ele><time>2026-04-11T17:16:19.999Z</time></trkpt><trkpt lat="44.909213152001264" lon="11.962860837466229"><ele>-4.0</ele><time>2026-04-11T17:16:20.999Z</time></trkpt><trkpt lat="44.90921835734022" lon="11.962956720719575"><ele>-3.9999999999999996</ele><time>2026-04-11T17:16:21.999Z</time></trkpt><trkpt lat="44.909223092125394" lon="11.963052333645788"><ele>-4.0</ele><time>2026-04-11T17:16:22.999Z</time></trkpt><trkpt lat="44.90922860030324" lon="11.963149109300465"><ele>-4.0</ele><time>2026-04-11T17:16:23.999Z</time></trkpt><trkpt lat="44.909233595267416" lon="11.963244274242589"><ele>-4.0</ele><time>2026-04-11T17:16:24.999Z</time></trkpt><trkpt lat="44.909234477805406" lon="11.963343677054427"><ele>-3.9999999999999996</ele><time>2026-04-11T17:16:25.999Z</time></trkpt><trkpt lat="44.90924059274481" lon="11.963444476558863"><ele>-4.0</ele><time>2026-04-11T17:16:26.999Z</time></trkpt><trkpt lat="44.90924660773299" lon="11.963545674741452"><ele>-4.0</ele><time>2026-04-11T17:16:27.999Z</time></trkpt><trkpt lat="44.909250924835256" lon="11.96364555624228"><ele>-3.9999999999999996</ele><time>2026-04-11T17:16:28.999Z</time></trkpt><trkpt lat="44.909255457900514" lon="11.96374559472199"><ele>-4.0</ele><time>2026-04-11T17:16:29.999Z</time></trkpt><trkpt lat="44.909258687522275" lon="11.963846458628753"><ele>-4.0</ele><time>2026-04-11T17:16:30.999Z</time></trkpt><trkpt lat="44.90926338624975" lon="11.963949068352905"><ele>-4.142857142857142</ele><time>2026-04-11T17:16:31.999Z</time></trkpt><trkpt lat="44.909269212913514" lon="11.96404992754164"><ele>-4.285714285714286</ele><time>2026-04-11T17:16:32.999Z</time></trkpt><trkpt lat="44.90927658189701" lon="11.96415301529695"><ele>-4.428571428571429</ele><time>2026-04-11T17:16:33.999Z</time></trkpt><trkpt lat="44.90928224640699" lon="11.964255517080412"><ele>-4.571428571428571</ele><time>2026-04-11T17:16:34.999Z</time></trkpt><trkpt lat="44.90928649896049" lon="11.964364492160486"><ele>-4.714285714285714</ele><time>2026-04-11T17:16:35.999Z</time></trkpt><trkpt lat="44.90929054980849" lon="11.9644657981403"><ele>-4.857142857142857</ele><time>2026-04-11T17:16:36.999Z</time></trkpt><trkpt lat="44.90929808345009" lon="11.964567979997224"><ele>-5.0</ele><time>2026-04-11T17:16:37.999Z</time></trkpt><trkpt lat="44.909303524377094" lon="11.96466534736877"><ele>-5.166666666666667</ele><time>2026-04-11T17:16:38.999Z</time></trkpt><trkpt lat="44.90930775608901" lon="11.96476512158297"><ele>-5.333333333333334</ele><time>2026-04-11T17:16:39.999Z</time></trkpt><trkpt lat="44.90931001905718" lon="11.964858234839845"><ele>-5.5</ele><time>2026-04-11T17:16:40.999Z</time></trkpt><trkpt lat="44.90931346693414" lon="11.964948364071512"><ele>-5.666666666666667</ele><time>2026-04-11T17:16:41.999Z</time></trkpt><trkpt lat="44.9093281131432" lon="11.965119475046741"><ele>-5.833333333333333</ele><time>2026-04-11T17:16:44Z</time></trkpt><trkpt lat="44.90934049941193" lon="11.965285979437269"><ele>-6.0</ele><time>2026-04-11T17:16:46Z</time></trkpt><trkpt lat="44.90933666883414" lon="11.965441789773143"><ele>-6.0</ele><time>2026-04-11T17:16:48Z</time></trkpt><trkpt lat="44.90934692914639" lon="11.965590785408358"><ele>-6.0</ele><time>2026-04-11T17:16:50Z</time></trkpt><trkpt lat="44.90935364447161" lon="11.96575405253988"><ele>-6.0</ele><time>2026-04-11T17:16:52Z</time></trkpt><trkpt lat="44.90935856666206" lon="11.965848456329928"><ele>-6.0</ele><time>2026-04-11T17:16:53Z</time></trkpt><trkpt lat="44.90936625030929" lon="11.966024939749117"><ele>-6.0</ele><time>2026-04-11T17:16:55Z</time></trkpt><trkpt lat="44.90937259646417" lon="11.966114453551729"><ele>-6.0</ele><time>2026-04-11T17:16:56Z</time></trkpt><trkpt lat="44.90938193308425" lon="11.966204135738685"><ele>-6.0</ele><time>2026-04-11T17:16:57Z</time></trkpt><trkpt lat="44.90938789025405" lon="11.966294201685185"><ele>-6.0</ele><time>2026-04-11T17:16:58Z</time></trkpt><trkpt lat="44.909394450365724" lon="11.966461031248496"><ele>-6.0</ele><time>2026-04-11T17:17:00Z</time></trkpt><trkpt lat="44.909395088346095" lon="11.966621945372836"><ele>-6.0</ele><time>2026-04-11T17:17:02Z</time></trkpt><trkpt lat="44.90940468398407" lon="11.966772513509847"><ele>-5.8</ele><time>2026-04-11T17:17:04Z</time></trkpt><trkpt lat="44.90941228929497" lon="11.966937125257857"><ele>-5.6</ele><time>2026-04-11T17:17:06Z</time></trkpt><trkpt lat="44.90941646298875" lon="11.967106989615706"><ele>-5.4</ele><time>2026-04-11T17:17:08Z</time></trkpt><trkpt lat="44.9094239167606" lon="11.96719689284574"><ele>-5.2</ele><time>2026-04-11T17:17:09Z</time></trkpt><trkpt lat="44.90943563538798" lon="11.967369420842124"><ele>-5.0</ele><time>2026-04-11T17:17:11Z</time></trkpt><trkpt lat="44.90944301251476" lon="11.967530933506032"><ele>-5.0</ele><time>2026-04-11T17:17:13Z</time></trkpt><trkpt lat="44.909446732405485" lon="11.967670280758357"><ele>-5.0</ele><time>2026-04-11T17:17:15Z</time></trkpt><trkpt lat="44.90945288811045" lon="11.967798109074245"><ele>-5.0</ele><time>2026-04-11T17:17:17Z</time></trkpt><trkpt lat="44.90945680229945" lon="11.967917345071893"><ele>-5.0</ele><time>2026-04-11T17:17:19Z</time></trkpt><trkpt lat="44.90947056926322" lon="11.968031721044456"><ele>-5.0</ele><time>2026-04-11T17:17:21Z</time></trkpt><trkpt lat="44.909472904678715" lon="11.968152095038313"><ele>-5.0</ele><time>2026-04-11T17:17:23Z</time></trkpt><trkpt lat="44.90947429528344" lon="11.968292998871165"><ele>-5.0</ele><time>2026-04-11T17:17:25Z</time></trkpt><trkpt lat="44.90948343150066" lon="11.968445059115401"><ele>-5.0</ele><time>2026-04-11T17:17:27Z</time></trkpt><trkpt lat="44.9094945832996" lon="11.968589712803714"><ele>-5.0</ele><time>2026-04-11T17:17:29Z</time></trkpt><trkpt lat="44.90950009836453" lon="11.968737141887303"><ele>-5.0</ele><time>2026-04-11T17:17:31Z</time></trkpt><trkpt lat="44.90950707999966" lon="11.968899967435426"><ele>-5.0</ele><time>2026-04-11T17:17:33Z</time></trkpt><trkpt lat="44.90952010387965" lon="11.969069925144808"><ele>-5.5</ele><time>2026-04-11T17:17:35Z</time></trkpt><trkpt lat="44.90952678470474" lon="11.969249615988137"><ele>-6.0</ele><time>2026-04-11T17:17:37Z</time></trkpt><trkpt lat="44.909535353527424" lon="11.969420909284619"><ele>-6.5</ele><time>2026-04-11T17:17:39Z</time></trkpt><trkpt lat="44.9095433517517" lon="11.96958189665345"><ele>-7.0</ele><time>2026-04-11T17:17:41Z</time></trkpt><trkpt lat="44.90955410118772" lon="11.969729255978582"><ele>-7.0</ele><time>2026-04-11T17:17:42.999Z</time></trkpt><trkpt lat="44.90955967922103" lon="11.969866706681483"><ele>-6.999999999999999</ele><time>2026-04-11T17:17:44.999Z</time></trkpt><trkpt lat="44.9095620670728" lon="11.969995254385335"><ele>-6.999999999999999</ele><time>2026-04-11T17:17:46.999Z</time></trkpt><trkpt lat="44.90957028053198" lon="11.970115699655427"><ele>-7.0</ele><time>2026-04-11T17:17:48.999Z</time></trkpt><trkpt lat="44.909585738932584" lon="11.970257901980668"><ele>-7.0</ele><time>2026-04-11T17:17:50.999Z</time></trkpt><trkpt lat="44.90958855902146" lon="11.97040758971984"><ele>-7.0</ele><time>2026-04-11T17:17:52.999Z</time></trkpt><trkpt lat="44.90960658863157" lon="11.970527340301723"><ele>-6.999999999999999</ele><time>2026-04-11T17:17:54.999Z</time></trkpt><trkpt lat="44.90960592926472" lon="11.970640067604771"><ele>-6.999999999999999</ele><time>2026-04-11T17:17:56.999Z</time></trkpt><trkpt lat="44.9095879012521" lon="11.970742548451756"><ele>-7.0</ele><time>2026-04-11T17:17:58.999Z</time></trkpt><trkpt lat="44.90946423882576" lon="11.970753714108302"><ele>-7.0</ele><time>2026-04-11T17:18:01.999Z</time></trkpt><trkpt lat="44.909359199942145" lon="11.970765185553484"><ele>-7.0</ele><time>2026-04-11T17:18:03.999Z</time></trkpt><trkpt lat="44.90925261096695" lon="11.970774397575429"><ele>-6.999999999999999</ele><time>2026-04-11T17:18:05.999Z</time></trkpt><trkpt lat="44.909149618170865" lon="11.970756118348284"><ele>-6.999999999999999</ele><time>2026-04-11T17:18:07.999Z</time></trkpt><trkpt lat="44.909051120752956" lon="11.970763429106167"><ele>-7.0</ele><time>2026-04-11T17:18:09.999Z</time></trkpt><trkpt lat="44.90894423954532" lon="11.970766932547527"><ele>-7.0</ele><time>2026-04-11T17:18:11.999Z</time></trkpt><trkpt lat="44.908831156641305" lon="11.970772639814514"><ele>-6.75</ele><time>2026-04-11T17:18:13.999Z</time></trkpt><trkpt lat="44.90871218773845" lon="11.970779258777222"><ele>-6.5</ele><time>2026-04-11T17:18:15.999Z</time></trkpt><trkpt lat="44.90858689891347" lon="11.970781139676912"><ele>-6.25</ele><time>2026-04-11T17:18:17.999Z</time></trkpt><trkpt lat="44.90846099382086" lon="11.970789305006313"><ele>-6.0</ele><time>2026-04-11T17:18:19.999Z</time></trkpt><trkpt lat="44.90834480912636" lon="11.970787008835213"><ele>-5.8</ele><time>2026-04-11T17:18:21.999Z</time></trkpt><trkpt lat="44.90823621174133" lon="11.97080226305425"><ele>-5.6</ele><time>2026-04-11T17:18:23.999Z</time></trkpt><trkpt lat="44.908130910927134" lon="11.970801534388714"><ele>-5.4</ele><time>2026-04-11T17:18:25.999Z</time></trkpt><trkpt lat="44.908029816650085" lon="11.97080044752019"><ele>-5.2</ele><time>2026-04-11T17:18:27.999Z</time></trkpt><trkpt lat="44.90793256723676" lon="11.970803473472888"><ele>-5.0</ele><time>2026-04-11T17:18:29.999Z</time></trkpt><trkpt lat="44.90783990322552" lon="11.970812661444391"><ele>-5.0</ele><time>2026-04-11T17:18:31.999Z</time></trkpt><trkpt lat="44.907744997281874" lon="11.970813676419532"><ele>-5.0</ele><time>2026-04-11T17:18:33.999Z</time></trkpt><trkpt lat="44.90763719257462" lon="11.970819850239012"><ele>-5.0</ele><time>2026-04-11T17:18:35.999Z</time></trkpt><trkpt lat="44.907520009359246" lon="11.970822763727615"><ele>-5.0</ele><time>2026-04-11T17:18:37.999Z</time></trkpt><trkpt lat="44.90745663098032" lon="11.970827533050857"><ele>-5.0</ele><time>2026-04-11T17:18:38.999Z</time></trkpt><trkpt lat="44.9073305877456" lon="11.970829575651827"><ele>-5.142857142857142</ele><time>2026-04-11T17:18:40.999Z</time></trkpt><trkpt lat="44.90726459209214" lon="11.970831876424585"><ele>-5.285714285714286</ele><time>2026-04-11T17:18:41.999Z</time></trkpt><trkpt lat="44.9071986598948" lon="11.970835408136022"><ele>-5.428571428571429</ele><time>2026-04-11T17:18:42.999Z</time></trkpt><trkpt lat="44.90713061085278" lon="11.970837932976487"><ele>-5.571428571428571</ele><time>2026-04-11T17:18:43.999Z</time></trkpt><trkpt lat="44.90706272515307" lon="11.970838723414115"><ele>-5.714285714285714</ele><time>2026-04-11T17:18:44.999Z</time></trkpt><trkpt lat="44.906994732828935" lon="11.970842440248152"><ele>-5.857142857142857</ele><time>2026-04-11T17:18:45.999Z</time></trkpt><trkpt lat="44.906923391343106" lon="11.970844162127705"><ele>-6.0</ele><time>2026-04-11T17:18:46.999Z</time></trkpt><trkpt lat="44.90685290091129" lon="11.97084599751577"><ele>-5.999999999999999</ele><time>2026-04-11T17:18:47.999Z</time></trkpt><trkpt lat="44.90678403742005" lon="11.97085175284913"><ele>-6.0</ele><time>2026-04-11T17:18:49Z</time></trkpt><trkpt lat="44.90671159693025" lon="11.970857206416"><ele>-6.0</ele><time>2026-04-11T17:18:50Z</time></trkpt><trkpt lat="44.906640665555436" lon="11.970858449245274"><ele>-6.0</ele><time>2026-04-11T17:18:51Z</time></trkpt><trkpt lat="44.906572083055835" lon="11.970857033379287"><ele>-6.0</ele><time>2026-04-11T17:18:52Z</time></trkpt><trkpt lat="44.906506374289904" lon="11.970857515056384"><ele>-5.999999999999999</ele><time>2026-04-11T17:18:53Z</time></trkpt><trkpt lat="44.906442647447015" lon="11.970857408792908"><ele>-6.0</ele><time>2026-04-11T17:18:54Z</time></trkpt><trkpt lat="44.90632163565006" lon="11.97086404551998"><ele>-6.199999999999999</ele><time>2026-04-11T17:18:56Z</time></trkpt><trkpt lat="44.90620764435106" lon="11.970869645650343"><ele>-6.3999999999999995</ele><time>2026-04-11T17:18:58Z</time></trkpt><trkpt lat="44.90610005226711" lon="11.970873971650546"><ele>-6.6</ele><time>2026-04-11T17:19:00Z</time></trkpt><trkpt lat="44.906001957519614" lon="11.97087781307546"><ele>-6.8</ele><time>2026-04-11T17:19:02Z</time></trkpt><trkpt lat="44.905899101675715" lon="11.970878517894445"><ele>-7.0</ele><time>2026-04-11T17:19:04Z</time></trkpt><trkpt lat="44.90578424394456" lon="11.970883742059524"><ele>-6.666666666666667</ele><time>2026-04-11T17:19:06Z</time></trkpt><trkpt lat="44.90566286525374" lon="11.970892061388318"><ele>-6.333333333333334</ele><time>2026-04-11T17:19:08Z</time></trkpt><trkpt lat="44.905537052287976" lon="11.970892356885086"><ele>-6.0</ele><time>2026-04-11T17:19:10Z</time></trkpt><trkpt lat="44.90546869804681" lon="11.970894620095326"><ele>-5.666666666666667</ele><time>2026-04-11T17:19:11Z</time></trkpt><trkpt lat="44.905403605449735" lon="11.970894356631815"><ele>-5.333333333333334</ele><time>2026-04-11T17:19:12Z</time></trkpt><trkpt lat="44.90533916415007" lon="11.970899488632083"><ele>-5.0</ele><time>2026-04-11T17:19:13Z</time></trkpt><trkpt lat="44.905274126331314" lon="11.970907487696309"><ele>-5.0</ele><time>2026-04-11T17:19:14Z</time></trkpt><trkpt lat="44.9051544982128" lon="11.970914509087821"><ele>-5.0</ele><time>2026-04-11T17:19:16Z</time></trkpt><trkpt lat="44.90505281151761" lon="11.970966243922245"><ele>-5.0</ele><time>2026-04-11T17:19:18Z</time></trkpt><trkpt lat="44.904978745600566" lon="11.971068620523564"><ele>-5.0</ele><time>2026-04-11T17:19:20Z</time></trkpt><trkpt lat="44.904964066530965" lon="11.971212259321119"><ele>-5.0</ele><time>2026-04-11T17:19:22Z</time></trkpt><trkpt lat="44.904985426969276" lon="11.971339198362779"><ele>-5.0</ele><time>2026-04-11T17:19:24Z</time></trkpt><trkpt lat="44.90500379847197" lon="11.97145106163679"><ele>-5.0</ele><time>2026-04-11T17:19:26Z</time></trkpt><trkpt lat="44.90503796710157" lon="11.971549119496467"><ele>-5.0</ele><time>2026-04-11T17:19:28Z</time></trkpt><trkpt lat="44.90505359815381" lon="11.971660433490438"><ele>-5.0</ele><time>2026-04-11T17:19:30Z</time></trkpt><trkpt lat="44.90506055155403" lon="11.971773002787538"><ele>-5.0</ele><time>2026-04-11T17:19:32Z</time></trkpt><trkpt lat="44.90508865379259" lon="11.971870530560329"><ele>-5.0</ele><time>2026-04-11T17:19:34Z</time></trkpt><trkpt lat="44.90510172202308" lon="11.971971802566681"><ele>-5.0</ele><time>2026-04-11T17:19:36Z</time></trkpt><trkpt lat="44.90512742274135" lon="11.97206432252401"><ele>-5.0</ele><time>2026-04-11T17:19:38Z</time></trkpt><trkpt lat="44.90513401704366" lon="11.972190030700395"><ele>-5.0</ele><time>2026-04-11T17:19:40Z</time></trkpt><trkpt lat="44.90517007498867" lon="11.972297607624071"><ele>-5.0</ele><time>2026-04-11T17:19:42Z</time></trkpt><trkpt lat="44.9051727741436" lon="11.9724100359699"><ele>-5.0</ele><time>2026-04-11T17:19:44Z</time></trkpt><trkpt lat="44.905201613558965" lon="11.97250594361386"><ele>-5.0</ele><time>2026-04-11T17:19:46Z</time></trkpt><trkpt lat="44.90521462674982" lon="11.972600855915365"><ele>-5.166666666666667</ele><time>2026-04-11T17:19:47.999Z</time></trkpt><trkpt lat="44.9052328391694" lon="11.972693293753437"><ele>-5.333333333333334</ele><time>2026-04-11T17:19:49.999Z</time></trkpt><trkpt lat="44.905248946356586" lon="11.972784023581132"><ele>-5.5</ele><time>2026-04-11T17:19:51.999Z</time></trkpt><trkpt lat="44.90527332531245" lon="11.972906379149387"><ele>-5.666666666666667</ele><time>2026-04-11T17:19:53.999Z</time></trkpt><trkpt lat="44.90529758029182" lon="11.973043554379313"><ele>-5.833333333333333</ele><time>2026-04-11T17:19:55.999Z</time></trkpt><trkpt lat="44.90532128521574" lon="11.973174928199274"><ele>-6.0</ele><time>2026-04-11T17:19:57.999Z</time></trkpt><trkpt lat="44.905344931841796" lon="11.973298004773579"><ele>-6.0</ele><time>2026-04-11T17:19:59.999Z</time></trkpt><trkpt lat="44.90536140679778" lon="11.97341816913382"><ele>-6.0</ele><time>2026-04-11T17:20:01.999Z</time></trkpt><trkpt lat="44.905385272107736" lon="11.97352863073997"><ele>-6.0</ele><time>2026-04-11T17:20:03.999Z</time></trkpt><trkpt lat="44.90539634681661" lon="11.973636070935735"><ele>-6.0</ele><time>2026-04-11T17:20:05.999Z</time></trkpt><trkpt lat="44.90542104212903" lon="11.973758271217157"><ele>-6.0</ele><time>2026-04-11T17:20:07.999Z</time></trkpt><trkpt lat="44.90544181130112" lon="11.973876272412149"><ele>-6.0</ele><time>2026-04-11T17:20:09.999Z</time></trkpt><trkpt lat="44.9054639163824" lon="11.973984258019614"><ele>-6.0</ele><time>2026-04-11T17:20:11.999Z</time></trkpt><trkpt lat="44.905482868208644" lon="11.974102576805242"><ele>-6.0</ele><time>2026-04-11T17:20:13.999Z</time></trkpt><trkpt lat="44.90551284873685" lon="11.974242860540379"><ele>-6.0</ele><time>2026-04-11T17:20:15.999Z</time></trkpt><trkpt lat="44.905541274994874" lon="11.974386455077275"><ele>-6.0</ele><time>2026-04-11T17:20:17.999Z</time></trkpt><trkpt lat="44.90556059435128" lon="11.974520920940869"><ele>-6.0</ele><time>2026-04-11T17:20:19.999Z</time></trkpt><trkpt lat="44.90558212288673" lon="11.974645353840394"><ele>-6.0</ele><time>2026-04-11T17:20:21.999Z</time></trkpt><trkpt lat="44.90560100865827" lon="11.974763208401342"><ele>-6.0</ele><time>2026-04-11T17:20:23.999Z</time></trkpt><trkpt lat="44.90561706190703" lon="11.974874918260646"><ele>-6.0</ele><time>2026-04-11T17:20:25.999Z</time></trkpt><trkpt lat="44.90563830478093" lon="11.974984155840705"><ele>-6.0</ele><time>2026-04-11T17:20:27.999Z</time></trkpt><trkpt lat="44.9056637510565" lon="11.97510338420924"><ele>-6.0</ele><time>2026-04-11T17:20:29.999Z</time></trkpt><trkpt lat="44.90567945653918" lon="11.975233057684573"><ele>-6.0</ele><time>2026-04-11T17:20:31.999Z</time></trkpt><trkpt lat="44.90570363283919" lon="11.975359663836407"><ele>-6.0</ele><time>2026-04-11T17:20:33.999Z</time></trkpt><trkpt lat="44.9057211377495" lon="11.975472374718818"><ele>-6.0</ele><time>2026-04-11T17:20:35.999Z</time></trkpt><trkpt lat="44.9057411672587" lon="11.975575894397076"><ele>-6.0</ele><time>2026-04-11T17:20:37.999Z</time></trkpt><trkpt lat="44.90575600433395" lon="11.975685635528436"><ele>-6.0</ele><time>2026-04-11T17:20:39.999Z</time></trkpt><trkpt lat="44.90578528536478" lon="11.975826247060512"><ele>-6.0</ele><time>2026-04-11T17:20:41.999Z</time></trkpt><trkpt lat="44.90581452120854" lon="11.975960924138628"><ele>-6.0</ele><time>2026-04-11T17:20:43.999Z</time></trkpt><trkpt lat="44.90583462241674" lon="11.97608446641814"><ele>-5.857142857142857</ele><time>2026-04-11T17:20:45.999Z</time></trkpt><trkpt lat="44.905862719556" lon="11.976196372649422"><ele>-5.714285714285714</ele><time>2026-04-11T17:20:47.999Z</time></trkpt><trkpt lat="44.90588242014324" lon="11.976294780402341"><ele>-5.571428571428571</ele><time>2026-04-11T17:20:49.999Z</time></trkpt><trkpt lat="44.905899983168936" lon="11.976389614914897"><ele>-5.428571428571429</ele><time>2026-04-11T17:20:51.999Z</time></trkpt><trkpt lat="44.90591727312951" lon="11.976484306485167"><ele>-5.285714285714286</ele><time>2026-04-11T17:20:53.999Z</time></trkpt><trkpt lat="44.90594320406525" lon="11.976585327897064"><ele>-5.142857142857142</ele><time>2026-04-11T17:20:56Z</time></trkpt><trkpt lat="44.905930985643906" lon="11.976673981272706"><ele>-5.0</ele><time>2026-04-11T17:20:58Z</time></trkpt><trkpt lat="44.90581953991056" lon="11.976696535148333"><ele>-4.833333333333334</ele><time>2026-04-11T17:21:02Z</time></trkpt><trkpt lat="44.9057554488105" lon="11.976682527309345"><ele>-4.666666666666667</ele><time>2026-04-11T17:21:04Z</time></trkpt><trkpt lat="44.90577663182921" lon="11.976828437363825"><ele>-4.5</ele><time>2026-04-11T17:21:06Z</time></trkpt><trkpt lat="44.905792946817556" lon="11.976948461563916"><ele>-4.333333333333333</ele><time>2026-04-11T17:21:09Z</time></trkpt><trkpt lat="44.90581123947275" lon="11.977046985176568"><ele>-4.166666666666666</ele><time>2026-04-11T17:21:11Z</time></trkpt><trkpt lat="44.90583941012684" lon="11.977135382347097"><ele>-4.0</ele><time>2026-04-11T17:21:13Z</time></trkpt><trkpt lat="44.9058443827086" lon="11.977255400015963"><ele>-4.0</ele><time>2026-04-11T17:21:15Z</time></trkpt><trkpt lat="44.90587099931187" lon="11.977394995892805"><ele>-4.0</ele><time>2026-04-11T17:21:17Z</time></trkpt><trkpt lat="44.90589936274517" lon="11.97754247760082"><ele>-4.0</ele><time>2026-04-11T17:21:19Z</time></trkpt><trkpt lat="44.9059326759515" lon="11.977691702740284"><ele>-4.0</ele><time>2026-04-11T17:21:21Z</time></trkpt><trkpt lat="44.90595893894037" lon="11.977830853619123"><ele>-4.0</ele><time>2026-04-11T17:21:23Z</time></trkpt><trkpt lat="44.90597873240046" lon="11.977970803822798"><ele>-4.333333333333333</ele><time>2026-04-11T17:21:25Z</time></trkpt><trkpt lat="44.906006219337556" lon="11.978124999073112"><ele>-4.666666666666666</ele><time>2026-04-11T17:21:27Z</time></trkpt><trkpt lat="44.90602988368816" lon="11.978292021810338"><ele>-5.0</ele><time>2026-04-11T17:21:29Z</time></trkpt><trkpt lat="44.906045284965934" lon="11.978385074354609"><ele>-5.333333333333333</ele><time>2026-04-11T17:21:30Z</time></trkpt><trkpt lat="44.90606270975104" lon="11.97847877737695"><ele>-5.666666666666667</ele><time>2026-04-11T17:21:31Z</time></trkpt><trkpt lat="44.90608184750057" lon="11.978575000477417"><ele>-6.0</ele><time>2026-04-11T17:21:32Z</time></trkpt><trkpt lat="44.90609654534767" lon="11.978675426377613"><ele>-5.999999999999999</ele><time>2026-04-11T17:21:33Z</time></trkpt><trkpt lat="44.90611178519758" lon="11.978774487796674"><ele>-6.0</ele><time>2026-04-11T17:21:34Z</time></trkpt><trkpt lat="44.906128574127855" lon="11.978879118847193"><ele>-6.0</ele><time>2026-04-11T17:21:35Z</time></trkpt><trkpt lat="44.90614793270843" lon="11.978978029591184"><ele>-6.0</ele><time>2026-04-11T17:21:36Z</time></trkpt><trkpt lat="44.90616733221303" lon="11.979081751219267"><ele>-6.0</ele><time>2026-04-11T17:21:37Z</time></trkpt><trkpt lat="44.90618628782965" lon="11.979185437254568"><ele>-5.999999999999999</ele><time>2026-04-11T17:21:38Z</time></trkpt><trkpt lat="44.906203524211485" lon="11.979289663263264"><ele>-6.0</ele><time>2026-04-11T17:21:39Z</time></trkpt><trkpt lat="44.9062236015616" lon="11.979394235333151"><ele>-5.833333333333333</ele><time>2026-04-11T17:21:40Z</time></trkpt><trkpt lat="44.906239782236376" lon="11.979501115874854"><ele>-5.666666666666667</ele><time>2026-04-11T17:21:41Z</time></trkpt><trkpt lat="44.90625955625254" lon="11.979605956619666"><ele>-5.5</ele><time>2026-04-11T17:21:42Z</time></trkpt><trkpt lat="44.90627968522714" lon="11.979711851575157"><ele>-5.333333333333334</ele><time>2026-04-11T17:21:43Z</time></trkpt><trkpt lat="44.90630009532782" lon="11.979816149608151"><ele>-5.166666666666667</ele><time>2026-04-11T17:21:44Z</time></trkpt><trkpt lat="44.90631797689476" lon="11.97991958144944"><ele>-5.0</ele><time>2026-04-11T17:21:45Z</time></trkpt><trkpt lat="44.90633240761983" lon="11.980026731534156"><ele>-5.0</ele><time>2026-04-11T17:21:46Z</time></trkpt><trkpt lat="44.90635193974695" lon="11.980132718944645"><ele>-5.0</ele><time>2026-04-11T17:21:47Z</time></trkpt><trkpt lat="44.90637038898175" lon="11.980235611074582"><ele>-5.0</ele><time>2026-04-11T17:21:48Z</time></trkpt><trkpt lat="44.90638797521096" lon="11.980338434415666"><ele>-5.0</ele><time>2026-04-11T17:21:49Z</time></trkpt><trkpt lat="44.90640493607139" lon="11.980440668492214"><ele>-5.0</ele><time>2026-04-11T17:21:50Z</time></trkpt><trkpt lat="44.90642347418724" lon="11.980544508121689"><ele>-5.0</ele><time>2026-04-11T17:21:51Z</time></trkpt><trkpt lat="44.906441027742076" lon="11.980645039999658"><ele>-5.0</ele><time>2026-04-11T17:21:52Z</time></trkpt><trkpt lat="44.9064602689978" lon="11.98074430685425"><ele>-5.0</ele><time>2026-04-11T17:21:53Z</time></trkpt><trkpt lat="44.90647561328828" lon="11.980837909607489"><ele>-5.0</ele><time>2026-04-11T17:21:54Z</time></trkpt><trkpt lat="44.906490074043276" lon="11.980929804473051"><ele>-5.0</ele><time>2026-04-11T17:21:55Z</time></trkpt><trkpt lat="44.906507747190226" lon="11.98102293670449"><ele>-5.0</ele><time>2026-04-11T17:21:56Z</time></trkpt><trkpt lat="44.90652446354916" lon="11.981118248339122"><ele>-5.0</ele><time>2026-04-11T17:21:57Z</time></trkpt><trkpt lat="44.90653897263129" lon="11.981210880981354"><ele>-5.0</ele><time>2026-04-11T17:21:58Z</time></trkpt><trkpt lat="44.906556412080725" lon="11.98129803862928"><ele>-5.0</ele><time>2026-04-11T17:21:59Z</time></trkpt><trkpt lat="44.90658736778689" lon="11.98146674102229"><ele>-5.0</ele><time>2026-04-11T17:22:01Z</time></trkpt><trkpt lat="44.90660297607253" lon="11.981554681944303"><ele>-5.0</ele><time>2026-04-11T17:22:02Z</time></trkpt><trkpt lat="44.90661874077223" lon="11.981645456836192"><ele>-5.0</ele><time>2026-04-11T17:22:03Z</time></trkpt><trkpt lat="44.90663353808223" lon="11.981735118841092"><ele>-5.0</ele><time>2026-04-11T17:22:03.999Z</time></trkpt><trkpt lat="44.9066654921271" lon="11.981902904718778"><ele>-5.0</ele><time>2026-04-11T17:22:05.999Z</time></trkpt><trkpt lat="44.90669581948496" lon="11.982058586036862"><ele>-5.0</ele><time>2026-04-11T17:22:07.999Z</time></trkpt><trkpt lat="44.90672040322382" lon="11.982213397389877"><ele>-5.0</ele><time>2026-04-11T17:22:09.999Z</time></trkpt><trkpt lat="44.906748772806516" lon="11.982369551858627"><ele>-5.0</ele><time>2026-04-11T17:22:11.999Z</time></trkpt><trkpt lat="44.90678045157694" lon="11.982542844588007"><ele>-5.0</ele><time>2026-04-11T17:22:13.999Z</time></trkpt><trkpt lat="44.90679619305479" lon="11.982631663591896"><ele>-5.0</ele><time>2026-04-11T17:22:14.999Z</time></trkpt><trkpt lat="44.90681285478314" lon="11.982723020149392"><ele>-5.0</ele><time>2026-04-11T17:22:15.999Z</time></trkpt><trkpt lat="44.90682696798951" lon="11.982816391892046"><ele>-5.0</ele><time>2026-04-11T17:22:16.999Z</time></trkpt><trkpt lat="44.906845840863646" lon="11.982915675310062"><ele>-5.0</ele><time>2026-04-11T17:22:17.999Z</time></trkpt><trkpt lat="44.906863213052844" lon="11.98300997994164"><ele>-5.0</ele><time>2026-04-11T17:22:18.999Z</time></trkpt><trkpt lat="44.906881767359856" lon="11.983109516882745"><ele>-5.0</ele><time>2026-04-11T17:22:19.999Z</time></trkpt><trkpt lat="44.90689893166489" lon="11.98321164119168"><ele>-5.0</ele><time>2026-04-11T17:22:20.999Z</time></trkpt><trkpt lat="44.906916207950026" lon="11.983316839668426"><ele>-5.0</ele><time>2026-04-11T17:22:21.999Z</time></trkpt><trkpt lat="44.906936050549724" lon="11.98341579960851"><ele>-5.142857142857142</ele><time>2026-04-11T17:22:22.999Z</time></trkpt><trkpt lat="44.906957603024246" lon="11.983518344660549"><ele>-5.285714285714286</ele><time>2026-04-11T17:22:23.999Z</time></trkpt><trkpt lat="44.90697379829244" lon="11.98361847020161"><ele>-5.428571428571429</ele><time>2026-04-11T17:22:24.999Z</time></trkpt><trkpt lat="44.90699259454156" lon="11.983721217787856"><ele>-5.571428571428571</ele><time>2026-04-11T17:22:25.999Z</time></trkpt><trkpt lat="44.907013043305604" lon="11.983819373852896"><ele>-5.714285714285714</ele><time>2026-04-11T17:22:26.999Z</time></trkpt><trkpt lat="44.907025969816964" lon="11.983916938550667"><ele>-5.857142857142857</ele><time>2026-04-11T17:22:27.999Z</time></trkpt><trkpt lat="44.90704165425965" lon="11.984006826345762"><ele>-6.0</ele><time>2026-04-11T17:22:28.999Z</time></trkpt><trkpt lat="44.90705515464445" lon="11.984097951296013"><ele>-5.857142857142857</ele><time>2026-04-11T17:22:29.999Z</time></trkpt><trkpt lat="44.90706783722316" lon="11.98418618495576"><ele>-5.714285714285714</ele><time>2026-04-11T17:22:30.999Z</time></trkpt><trkpt lat="44.9070839121549" lon="11.984277101463162"><ele>-5.571428571428571</ele><time>2026-04-11T17:22:31.999Z</time></trkpt><trkpt lat="44.90710077424721" lon="11.984374695534205"><ele>-5.428571428571429</ele><time>2026-04-11T17:22:32.999Z</time></trkpt><trkpt lat="44.90711608954842" lon="11.984471792917917"><ele>-5.285714285714286</ele><time>2026-04-11T17:22:33.999Z</time></trkpt><trkpt lat="44.90713377824158" lon="11.984567599498599"><ele>-5.142857142857142</ele><time>2026-04-11T17:22:34.999Z</time></trkpt><trkpt lat="44.90715203045512" lon="11.98466572076227"><ele>-5.0</ele><time>2026-04-11T17:22:35.999Z</time></trkpt><trkpt lat="44.907167557337715" lon="11.984765452742064"><ele>-5.0</ele><time>2026-04-11T17:22:36.999Z</time></trkpt><trkpt lat="44.90718133441562" lon="11.984861349145744"><ele>-5.0</ele><time>2026-04-11T17:22:37.999Z</time></trkpt><trkpt lat="44.90719865370446" lon="11.984961128959"><ele>-5.0</ele><time>2026-04-11T17:22:38.999Z</time></trkpt><trkpt lat="44.90722082218398" lon="11.985066499680038"><ele>-5.0</ele><time>2026-04-11T17:22:39.999Z</time></trkpt><trkpt lat="44.90723939651213" lon="11.985162040682996"><ele>-5.0</ele><time>2026-04-11T17:22:40.999Z</time></trkpt><trkpt lat="44.907255141868134" lon="11.985260352372784"><ele>-5.0</ele><time>2026-04-11T17:22:41.999Z</time></trkpt><trkpt lat="44.907271342098106" lon="11.985362798986433"><ele>-5.0</ele><time>2026-04-11T17:22:42.999Z</time></trkpt><trkpt lat="44.907289729462406" lon="11.985462540415941"><ele>-5.0</ele><time>2026-04-11T17:22:43.999Z</time></trkpt><trkpt lat="44.90730593238731" lon="11.985563248178803"><ele>-5.0</ele><time>2026-04-11T17:22:44.999Z</time></trkpt><trkpt lat="44.90732276030893" lon="11.985662800034223"><ele>-5.0</ele><time>2026-04-11T17:22:45.999Z</time></trkpt><trkpt lat="44.90734096711776" lon="11.985762179956616"><ele>-5.0</ele><time>2026-04-11T17:22:46.999Z</time></trkpt><trkpt lat="44.90735685711988" lon="11.985862604425705"><ele>-5.0</ele><time>2026-04-11T17:22:47.999Z</time></trkpt><trkpt lat="44.907373678873725" lon="11.985962004316962"><ele>-5.0</ele><time>2026-04-11T17:22:48.999Z</time></trkpt><trkpt lat="44.90739286669431" lon="11.986060414891595"><ele>-5.0</ele><time>2026-04-11T17:22:49.999Z</time></trkpt><trkpt lat="44.90741389808174" lon="11.98615699452479"><ele>-5.142857142857142</ele><time>2026-04-11T17:22:50.999Z</time></trkpt><trkpt lat="44.90742990019859" lon="11.986255047835876"><ele>-5.285714285714286</ele><time>2026-04-11T17:22:51.999Z</time></trkpt><trkpt lat="44.90744381518108" lon="11.986359389970247"><ele>-5.428571428571429</ele><time>2026-04-11T17:22:52.999Z</time></trkpt><trkpt lat="44.90745609959067" lon="11.986459175864773"><ele>-5.571428571428571</ele><time>2026-04-11T17:22:53.999Z</time></trkpt><trkpt lat="44.9074789737751" lon="11.986555522890228"><ele>-5.714285714285714</ele><time>2026-04-11T17:22:54.999Z</time></trkpt><trkpt lat="44.90749760575263" lon="11.986649633308208"><ele>-5.857142857142857</ele><time>2026-04-11T17:22:55.999Z</time></trkpt><trkpt lat="44.907512451317125" lon="11.986739360257557"><ele>-6.0</ele><time>2026-04-11T17:22:56.999Z</time></trkpt><trkpt lat="44.90752732299394" lon="11.986827814849898"><ele>-6.199999999999999</ele><time>2026-04-11T17:22:57.999Z</time></trkpt><trkpt lat="44.907544861835646" lon="11.986915898143476"><ele>-6.3999999999999995</ele><time>2026-04-11T17:22:58.999Z</time></trkpt><trkpt lat="44.90757234317291" lon="11.987077861057083"><ele>-6.6</ele><time>2026-04-11T17:23:01Z</time></trkpt><trkpt lat="44.907598059243774" lon="11.987236139842928"><ele>-6.8</ele><time>2026-04-11T17:23:03Z</time></trkpt><trkpt lat="44.90762191856283" lon="11.987399725599643"><ele>-7.0</ele><time>2026-04-11T17:23:05Z</time></trkpt><trkpt lat="44.90765063615785" lon="11.987552000596617"><ele>-6.666666666666667</ele><time>2026-04-11T17:23:07Z</time></trkpt><trkpt lat="44.90767734442893" lon="11.987715729338495"><ele>-6.333333333333334</ele><time>2026-04-11T17:23:09Z</time></trkpt><trkpt lat="44.907696692324166" lon="11.98780173774025"><ele>-6.0</ele><time>2026-04-11T17:23:10Z</time></trkpt><trkpt lat="44.90771544061866" lon="11.987888601727525"><ele>-5.666666666666667</ele><time>2026-04-11T17:23:11Z</time></trkpt><trkpt lat="44.90772559106542" lon="11.987983359625959"><ele>-5.333333333333334</ele><time>2026-04-11T17:23:12Z</time></trkpt><trkpt lat="44.907741550690226" lon="11.98807618372371"><ele>-5.0</ele><time>2026-04-11T17:23:13Z</time></trkpt><trkpt lat="44.90775991639934" lon="11.988171110796785"><ele>-5.0</ele><time>2026-04-11T17:23:14Z</time></trkpt><trkpt lat="44.90778028222318" lon="11.988264168412766"><ele>-5.0</ele><time>2026-04-11T17:23:15Z</time></trkpt><trkpt lat="44.9078011757747" lon="11.988357438975468"><ele>-5.0</ele><time>2026-04-11T17:23:16Z</time></trkpt><trkpt lat="44.9078137723913" lon="11.988448219994975"><ele>-5.0</ele><time>2026-04-11T17:23:17Z</time></trkpt><trkpt lat="44.907834223340934" lon="11.988552494958913"><ele>-5.0</ele><time>2026-04-11T17:23:18Z</time></trkpt><trkpt lat="44.90785101613956" lon="11.988656685694203"><ele>-5.0</ele><time>2026-04-11T17:23:19Z</time></trkpt><trkpt lat="44.90786501400272" lon="11.988748589685866"><ele>-5.0</ele><time>2026-04-11T17:23:20Z</time></trkpt><trkpt lat="44.90788248970871" lon="11.988840764297038"><ele>-5.0</ele><time>2026-04-11T17:23:21Z</time></trkpt><trkpt lat="44.907910272307895" lon="11.989009763859322"><ele>-5.0</ele><time>2026-04-11T17:23:23Z</time></trkpt><trkpt lat="44.90794403648879" lon="11.989165327178192"><ele>-5.0</ele><time>2026-04-11T17:23:25Z</time></trkpt><trkpt lat="44.90796220160008" lon="11.989316193174526"><ele>-5.0</ele><time>2026-04-11T17:23:27Z</time></trkpt><trkpt lat="44.908000936511456" lon="11.989478761376036"><ele>-4.833333333333334</ele><time>2026-04-11T17:23:29Z</time></trkpt><trkpt lat="44.90801978783538" lon="11.98956583011465"><ele>-4.666666666666667</ele><time>2026-04-11T17:23:30Z</time></trkpt><trkpt lat="44.908036436089844" lon="11.989657262559604"><ele>-4.5</ele><time>2026-04-11T17:23:31Z</time></trkpt><trkpt lat="44.908050301362614" lon="11.989747314497702"><ele>-4.333333333333333</ele><time>2026-04-11T17:23:32Z</time></trkpt><trkpt lat="44.908067595221624" lon="11.989838393808807"><ele>-4.166666666666666</ele><time>2026-04-11T17:23:33Z</time></trkpt><trkpt lat="44.90808316084648" lon="11.989929054680804"><ele>-4.0</ele><time>2026-04-11T17:23:34Z</time></trkpt><trkpt lat="44.90809695072667" lon="11.990098317709244"><ele>-4.0</ele><time>2026-04-11T17:23:36Z</time></trkpt><trkpt lat="44.90812797352481" lon="11.990248729155812"><ele>-4.0</ele><time>2026-04-11T17:23:38Z</time></trkpt><trkpt lat="44.908154120053545" lon="11.990395695195762"><ele>-4.0</ele><time>2026-04-11T17:23:40Z</time></trkpt><trkpt lat="44.9081845384854" lon="11.990525706670761"><ele>-4.0</ele><time>2026-04-11T17:23:42Z</time></trkpt><trkpt lat="44.90820511396465" lon="11.990655603581208"><ele>-4.0</ele><time>2026-04-11T17:23:44Z</time></trkpt><trkpt lat="44.908231102767836" lon="11.990766587408107"><ele>-4.0</ele><time>2026-04-11T17:23:46Z</time></trkpt><trkpt lat="44.90825514656311" lon="11.99089515967144"><ele>-4.0</ele><time>2026-04-11T17:23:48Z</time></trkpt><trkpt lat="44.90826032364826" lon="11.991020252394511"><ele>-4.0</ele><time>2026-04-11T17:23:50Z</time></trkpt><trkpt lat="44.908366102114336" lon="11.991035159863097"><ele>-4.0</ele><time>2026-04-11T17:23:52Z</time></trkpt><trkpt lat="44.90843606050073" lon="11.991043736380057"><ele>-4.0</ele><time>2026-04-11T17:23:54Z</time></trkpt><trkpt lat="44.90853729555517" lon="11.991031772275067"><ele>-4.0</ele><time>2026-04-11T17:23:56Z</time></trkpt><trkpt lat="44.908642231147205" lon="11.991057748108942"><ele>-4.0</ele><time>2026-04-11T17:23:58Z</time></trkpt><trkpt lat="44.908757823407804" lon="11.991065061919654"><ele>-4.0</ele><time>2026-04-11T17:24:00Z</time></trkpt><trkpt lat="44.90882270863215" lon="11.991070385493014"><ele>-4.0</ele><time>2026-04-11T17:24:01Z</time></trkpt><trkpt lat="44.90895073557185" lon="11.991079725608039"><ele>-4.0</ele><time>2026-04-11T17:24:03Z</time></trkpt><trkpt lat="44.90901861806415" lon="11.99108075380006"><ele>-4.0</ele><time>2026-04-11T17:24:03.999Z</time></trkpt><trkpt lat="44.90908792594614" lon="11.991083533851345"><ele>-3.9999999999999996</ele><time>2026-04-11T17:24:04.999Z</time></trkpt><trkpt lat="44.90915521644783" lon="11.991085705289295"><ele>-4.0</ele><time>2026-04-11T17:24:05.999Z</time></trkpt><trkpt lat="44.90922710287659" lon="11.991091254003777"><ele>-4.0</ele><time>2026-04-11T17:24:06.999Z</time></trkpt><trkpt lat="44.909294460862974" lon="11.991095430276639"><ele>-3.9999999999999996</ele><time>2026-04-11T17:24:07.999Z</time></trkpt><trkpt lat="44.909369636748416" lon="11.991097569502493"><ele>-4.0</ele><time>2026-04-11T17:24:08.999Z</time></trkpt><trkpt lat="44.90944169153922" lon="11.9911018860949"><ele>-4.0</ele><time>2026-04-11T17:24:09.999Z</time></trkpt><trkpt lat="44.90950928572068" lon="11.991109290180484"><ele>-4.333333333333333</ele><time>2026-04-11T17:24:10.999Z</time></trkpt><trkpt lat="44.90958934918649" lon="11.991110683507483"><ele>-4.666666666666666</ele><time>2026-04-11T17:24:11.999Z</time></trkpt><trkpt lat="44.9096668717854" lon="11.991112618303163"><ele>-5.0</ele><time>2026-04-11T17:24:12.999Z</time></trkpt><trkpt lat="44.90974409749644" lon="11.991117024873292"><ele>-5.333333333333333</ele><time>2026-04-11T17:24:13.999Z</time></trkpt><trkpt lat="44.90982131269839" lon="11.991123339813488"><ele>-5.666666666666667</ele><time>2026-04-11T17:24:14.999Z</time></trkpt><trkpt lat="44.909897797414885" lon="11.991124641494588"><ele>-6.0</ele><time>2026-04-11T17:24:15.999Z</time></trkpt><trkpt lat="44.90997514281988" lon="11.99113212243077"><ele>-5.999999999999999</ele><time>2026-04-11T17:24:16.999Z</time></trkpt><trkpt lat="44.910051921532215" lon="11.991140353240894"><ele>-6.0</ele><time>2026-04-11T17:24:17.999Z</time></trkpt><trkpt lat="44.910128459254764" lon="11.991145654444193"><ele>-6.0</ele><time>2026-04-11T17:24:18.999Z</time></trkpt><trkpt lat="44.91020119096636" lon="11.991146345088726"><ele>-6.0</ele><time>2026-04-11T17:24:19.999Z</time></trkpt><trkpt lat="44.910279201161444" lon="11.991155032640384"><ele>-6.0</ele><time>2026-04-11T17:24:20.999Z</time></trkpt><trkpt lat="44.910350600935345" lon="11.991157387509906"><ele>-5.999999999999999</ele><time>2026-04-11T17:24:21.999Z</time></trkpt><trkpt lat="44.910421950574516" lon="11.991159131741966"><ele>-6.0</ele><time>2026-04-11T17:24:22.999Z</time></trkpt><trkpt lat="44.91050257874131" lon="11.991166604124784"><ele>-6.142857142857142</ele><time>2026-04-11T17:24:23.999Z</time></trkpt><trkpt lat="44.91057947565679" lon="11.99117413709717"><ele>-6.285714285714286</ele><time>2026-04-11T17:24:24.999Z</time></trkpt><trkpt lat="44.910654163974456" lon="11.991177259842013"><ele>-6.428571428571429</ele><time>2026-04-11T17:24:25.999Z</time></trkpt><trkpt lat="44.91072805410455" lon="11.991178603932063"><ele>-6.571428571428571</ele><time>2026-04-11T17:24:26.999Z</time></trkpt><trkpt lat="44.91080395011711" lon="11.991179216391558"><ele>-6.714285714285714</ele><time>2026-04-11T17:24:27.999Z</time></trkpt><trkpt lat="44.91087417060612" lon="11.991186399503452"><ele>-6.857142857142857</ele><time>2026-04-11T17:24:28.999Z</time></trkpt><trkpt lat="44.91094974057034" lon="11.99119515487563"><ele>-7.0</ele><time>2026-04-11T17:24:29.999Z</time></trkpt><trkpt lat="44.91102551765427" lon="11.991201331461822"><ele>-7.000000000000001</ele><time>2026-04-11T17:24:30.999Z</time></trkpt><trkpt lat="44.911101666112046" lon="11.991210027956013"><ele>-7.0</ele><time>2026-04-11T17:24:31.999Z</time></trkpt><trkpt lat="44.91117776111663" lon="11.991218331535672"><ele>-7.0</ele><time>2026-04-11T17:24:32.999Z</time></trkpt><trkpt lat="44.91125370241776" lon="11.991218428197515"><ele>-7.0</ele><time>2026-04-11T17:24:33.999Z</time></trkpt><trkpt lat="44.91132512598896" lon="11.991219427938638"><ele>-7.000000000000001</ele><time>2026-04-11T17:24:34.999Z</time></trkpt><trkpt lat="44.91140382587036" lon="11.991230101954967"><ele>-7.0</ele><time>2026-04-11T17:24:35.999Z</time></trkpt><trkpt lat="44.91148141856016" lon="11.991234476405165"><ele>-7.0</ele><time>2026-04-11T17:24:36.999Z</time></trkpt><trkpt lat="44.91155672293614" lon="11.991237402835058"><ele>-7.0</ele><time>2026-04-11T17:24:37.999Z</time></trkpt><trkpt lat="44.91163030739601" lon="11.99124483339504"><ele>-7.0</ele><time>2026-04-11T17:24:38.999Z</time></trkpt><trkpt lat="44.91170701765955" lon="11.991248609555905"><ele>-7.0</ele><time>2026-04-11T17:24:39.999Z</time></trkpt><trkpt lat="44.91178327273833" lon="11.991252127274318"><ele>-7.0</ele><time>2026-04-11T17:24:40.999Z</time></trkpt><trkpt lat="44.91185399427054" lon="11.991258162370618"><ele>-7.0</ele><time>2026-04-11T17:24:41.999Z</time></trkpt><trkpt lat="44.91192536917772" lon="11.991264509030731"><ele>-7.0</ele><time>2026-04-11T17:24:42.999Z</time></trkpt><trkpt lat="44.91198945810409" lon="11.991266201087473"><ele>-6.833333333333334</ele><time>2026-04-11T17:24:43.999Z</time></trkpt><trkpt lat="44.91205641878775" lon="11.991269393602659"><ele>-6.666666666666667</ele><time>2026-04-11T17:24:44.999Z</time></trkpt><trkpt lat="44.91212061799821" lon="11.991271513007714"><ele>-6.5</ele><time>2026-04-11T17:24:45.999Z</time></trkpt><trkpt lat="44.91218442817698" lon="11.991277380202698"><ele>-6.333333333333334</ele><time>2026-04-11T17:24:46.999Z</time></trkpt><trkpt lat="44.91224780426078" lon="11.991282253158518"><ele>-6.166666666666667</ele><time>2026-04-11T17:24:47.999Z</time></trkpt><trkpt lat="44.91236744771233" lon="11.991293637433463"><ele>-6.0</ele><time>2026-04-11T17:24:49.999Z</time></trkpt><trkpt lat="44.912480538310604" lon="11.991299219102839"><ele>-5.8</ele><time>2026-04-11T17:24:51.999Z</time></trkpt><trkpt lat="44.912586273377975" lon="11.99129551437522"><ele>-5.6</ele><time>2026-04-11T17:24:53.999Z</time></trkpt><trkpt lat="44.91270374779567" lon="11.991310385756746"><ele>-5.4</ele><time>2026-04-11T17:24:55.999Z</time></trkpt><trkpt lat="44.91276663530391" lon="11.991316119511579"><ele>-5.2</ele><time>2026-04-11T17:24:56.999Z</time></trkpt><trkpt lat="44.91289013712304" lon="11.991313203239953"><ele>-5.0</ele><time>2026-04-11T17:24:58.999Z</time></trkpt><trkpt lat="44.912959471209575" lon="11.991315571279632"><ele>-5.0</ele><time>2026-04-11T17:24:59.999Z</time></trkpt><trkpt lat="44.9130240200017" lon="11.991319482286496"><ele>-5.0</ele><time>2026-04-11T17:25:00.999Z</time></trkpt><trkpt lat="44.91309323422672" lon="11.991328585773813"><ele>-5.0</ele><time>2026-04-11T17:25:01.999Z</time></trkpt><trkpt lat="44.91321857019738" lon="11.991325476489592"><ele>-5.0</ele><time>2026-04-11T17:25:03.999Z</time></trkpt><trkpt lat="44.913347919901724" lon="11.991333758255037"><ele>-5.0</ele><time>2026-04-11T17:25:05.999Z</time></trkpt><trkpt lat="44.91342189751141" lon="11.991338340375728"><ele>-5.0</ele><time>2026-04-11T17:25:07Z</time></trkpt><trkpt lat="44.913491132731444" lon="11.991338913464388"><ele>-5.0</ele><time>2026-04-11T17:25:08Z</time></trkpt><trkpt lat="44.9135669245433" lon="11.99133386999326"><ele>-5.0</ele><time>2026-04-11T17:25:09Z</time></trkpt><trkpt lat="44.913643208788415" lon="11.99133272817846"><ele>-5.0</ele><time>2026-04-11T17:25:10Z</time></trkpt><trkpt lat="44.91371519560162" lon="11.991330936355844"><ele>-5.0</ele><time>2026-04-11T17:25:11Z</time></trkpt><trkpt lat="44.9137899935685" lon="11.991328792344694"><ele>-5.0</ele><time>2026-04-11T17:25:12Z</time></trkpt><trkpt lat="44.913861512347246" lon="11.991330412793161"><ele>-5.0</ele><time>2026-04-11T17:25:13Z</time></trkpt><trkpt lat="44.91393407747915" lon="11.991334013557564"><ele>-5.0</ele><time>2026-04-11T17:25:14Z</time></trkpt><trkpt lat="44.9140097853459" lon="11.991335316149758"><ele>-5.0</ele><time>2026-04-11T17:25:15Z</time></trkpt><trkpt lat="44.91408103268016" lon="11.991332890366412"><ele>-5.0</ele><time>2026-04-11T17:25:16Z</time></trkpt><trkpt lat="44.91415686101554" lon="11.991326924407074"><ele>-5.0</ele><time>2026-04-11T17:25:17Z</time></trkpt><trkpt lat="44.9142308809709" lon="11.991329113370547"><ele>-5.0</ele><time>2026-04-11T17:25:18Z</time></trkpt><trkpt lat="44.91430222092253" lon="11.991326755093743"><ele>-5.0</ele><time>2026-04-11T17:25:19Z</time></trkpt><trkpt lat="44.91437754306294" lon="11.991321641806676"><ele>-5.0</ele><time>2026-04-11T17:25:20Z</time></trkpt><trkpt lat="44.914449391087224" lon="11.991322502164584"><ele>-4.833333333333334</ele><time>2026-04-11T17:25:21Z</time></trkpt><trkpt lat="44.91452389502547" lon="11.991320829957765"><ele>-4.666666666666667</ele><time>2026-04-11T17:25:22Z</time></trkpt><trkpt lat="44.91459776718794" lon="11.99131860768354"><ele>-4.5</ele><time>2026-04-11T17:25:23Z</time></trkpt><trkpt lat="44.914672901892686" lon="11.991321789334828"><ele>-4.333333333333333</ele><time>2026-04-11T17:25:24Z</time></trkpt><trkpt lat="44.914748816000554" lon="11.991321006253001"><ele>-4.166666666666666</ele><time>2026-04-11T17:25:25Z</time></trkpt><trkpt lat="44.914827285026284" lon="11.991316897734247"><ele>-4.0</ele><time>2026-04-11T17:25:26Z</time></trkpt><trkpt lat="44.91490357815782" lon="11.991311712668823"><ele>-3.9999999999999996</ele><time>2026-04-11T17:25:27Z</time></trkpt><trkpt lat="44.914977882259635" lon="11.991302324881945"><ele>-4.0</ele><time>2026-04-11T17:25:28Z</time></trkpt><trkpt lat="44.91504719454405" lon="11.991301616112347"><ele>-4.0</ele><time>2026-04-11T17:25:29Z</time></trkpt><trkpt lat="44.91511319837164" lon="11.991301150030658"><ele>-4.0</ele><time>2026-04-11T17:25:30Z</time></trkpt><trkpt lat="44.91517731810602" lon="11.991302368130155"><ele>-3.9999999999999996</ele><time>2026-04-11T17:25:31Z</time></trkpt><trkpt lat="44.915297952181554" lon="11.991307128886557"><ele>-4.0</ele><time>2026-04-11T17:25:33Z</time></trkpt><trkpt lat="44.91536356832579" lon="11.99130859050141"><ele>-4.166666666666666</ele><time>2026-04-11T17:25:34Z</time></trkpt><trkpt lat="44.915427813600616" lon="11.99130245599252"><ele>-4.333333333333333</ele><time>2026-04-11T17:25:35Z</time></trkpt><trkpt lat="44.91555602286724" lon="11.991305659755334"><ele>-4.5</ele><time>2026-04-11T17:25:37Z</time></trkpt><trkpt lat="44.91562647887412" lon="11.991303190917316"><ele>-4.666666666666667</ele><time>2026-04-11T17:25:38Z</time></trkpt><trkpt lat="44.91569596137925" lon="11.99130180072941"><ele>-4.833333333333334</ele><time>2026-04-11T17:25:39Z</time></trkpt><trkpt lat="44.915765938038064" lon="11.991296897311518"><ele>-5.0</ele><time>2026-04-11T17:25:40Z</time></trkpt><trkpt lat="44.91583501103367" lon="11.991291929152288"><ele>-5.166666666666667</ele><time>2026-04-11T17:25:41Z</time></trkpt><trkpt lat="44.91590687050024" lon="11.991290588532559"><ele>-5.333333333333334</ele><time>2026-04-11T17:25:42Z</time></trkpt><trkpt lat="44.91597933862553" lon="11.991289409757059"><ele>-5.5</ele><time>2026-04-11T17:25:43Z</time></trkpt><trkpt lat="44.91604535043661" lon="11.99129055051283"><ele>-5.666666666666667</ele><time>2026-04-11T17:25:44Z</time></trkpt><trkpt lat="44.916157241400136" lon="11.99129802482393"><ele>-5.833333333333333</ele><time>2026-04-11T17:25:46Z</time></trkpt><trkpt lat="44.91627499689839" lon="11.991301205121779"><ele>-6.0</ele><time>2026-04-11T17:25:48Z</time></trkpt><trkpt lat="44.91633787892526" lon="11.9912954455249"><ele>-6.0</ele><time>2026-04-11T17:25:49Z</time></trkpt><trkpt lat="44.916457478573626" lon="11.991278909893651"><ele>-6.0</ele><time>2026-04-11T17:25:51Z</time></trkpt><trkpt lat="44.91652245294218" lon="11.991280420642676"><ele>-6.0</ele><time>2026-04-11T17:25:52Z</time></trkpt><trkpt lat="44.916586570179334" lon="11.991282633024518"><ele>-6.0</ele><time>2026-04-11T17:25:53Z</time></trkpt><trkpt lat="44.916651433929744" lon="11.991289110939453"><ele>-6.0</ele><time>2026-04-11T17:25:54Z</time></trkpt><trkpt lat="44.91672172019898" lon="11.991292279199689"><ele>-6.0</ele><time>2026-04-11T17:25:55Z</time></trkpt><trkpt lat="44.91679038043898" lon="11.991294029432225"><ele>-6.142857142857142</ele><time>2026-04-11T17:25:56Z</time></trkpt><trkpt lat="44.91686078447727" lon="11.991289514597613"><ele>-6.285714285714286</ele><time>2026-04-11T17:25:57Z</time></trkpt><trkpt lat="44.91693142168566" lon="11.99128488602569"><ele>-6.428571428571429</ele><time>2026-04-11T17:25:58Z</time></trkpt><trkpt lat="44.917007169274854" lon="11.991288500519028"><ele>-6.571428571428571</ele><time>2026-04-11T17:25:59Z</time></trkpt><trkpt lat="44.91707957700938" lon="11.991286515789467"><ele>-6.714285714285714</ele><time>2026-04-11T17:26:00Z</time></trkpt><trkpt lat="44.917150627591425" lon="11.991273599221948"><ele>-6.857142857142857</ele><time>2026-04-11T17:26:01Z</time></trkpt><trkpt lat="44.91722254515065" lon="11.991275934293592"><ele>-7.0</ele><time>2026-04-11T17:26:02Z</time></trkpt><trkpt lat="44.91729701213418" lon="11.991277267333926"><ele>-7.0</ele><time>2026-04-11T17:26:03Z</time></trkpt><trkpt lat="44.91737258126624" lon="11.991277400083094"><ele>-7.0</ele><time>2026-04-11T17:26:04Z</time></trkpt><trkpt lat="44.917445591446324" lon="11.991275316655518"><ele>-7.0</ele><time>2026-04-11T17:26:05Z</time></trkpt><trkpt lat="44.91751591649732" lon="11.991268884289916"><ele>-7.0</ele><time>2026-04-11T17:26:06Z</time></trkpt><trkpt lat="44.91759226408517" lon="11.991274724600755"><ele>-7.0</ele><time>2026-04-11T17:26:07Z</time></trkpt><trkpt lat="44.917666198128245" lon="11.991286471867612"><ele>-7.0</ele><time>2026-04-11T17:26:08Z</time></trkpt><trkpt lat="44.91774500760748" lon="11.991273236394603"><ele>-7.0</ele><time>2026-04-11T17:26:09Z</time></trkpt><trkpt lat="44.9178140437093" lon="11.991269170798732"><ele>-7.142857142857142</ele><time>2026-04-11T17:26:10Z</time></trkpt><trkpt lat="44.91789345333711" lon="11.991282730350097"><ele>-7.285714285714286</ele><time>2026-04-11T17:26:11Z</time></trkpt><trkpt lat="44.9179589938099" lon="11.991281723926583"><ele>-7.428571428571429</ele><time>2026-04-11T17:26:11.999Z</time></trkpt><trkpt lat="44.9180291050743" lon="11.99128079279037"><ele>-7.571428571428571</ele><time>2026-04-11T17:26:12.999Z</time></trkpt><trkpt lat="44.9181026331833" lon="11.991279816274503"><ele>-7.7142857142857135</ele><time>2026-04-11T17:26:13.999Z</time></trkpt><trkpt lat="44.91817712629522" lon="11.991278986314466"><ele>-7.857142857142857</ele><time>2026-04-11T17:26:14.999Z</time></trkpt><trkpt lat="44.91824794857905" lon="11.991278345173505"><ele>-8.0</ele><time>2026-04-11T17:26:15.999Z</time></trkpt><trkpt lat="44.918322404809295" lon="11.99127767113409"><ele>-8.0</ele><time>2026-04-11T17:26:16.999Z</time></trkpt><trkpt lat="44.918394425462544" lon="11.991277019144377"><ele>-7.999999999999999</ele><time>2026-04-11T17:26:17.999Z</time></trkpt><trkpt lat="44.91846827659055" lon="11.991276350583052"><ele>-8.0</ele><time>2026-04-11T17:26:18.999Z</time></trkpt><trkpt lat="44.91854285338418" lon="11.99127567545416"><ele>-8.0</ele><time>2026-04-11T17:26:19.999Z</time></trkpt><trkpt lat="44.918616157905454" lon="11.991251805242154"><ele>-7.999999999999999</ele><time>2026-04-11T17:26:20.999Z</time></trkpt><trkpt lat="44.91869251867286" lon="11.991274322522823"><ele>-8.0</ele><time>2026-04-11T17:26:21.999Z</time></trkpt><trkpt lat="44.918767150702" lon="11.991273340966556"><ele>-8.0</ele><time>2026-04-11T17:26:22.999Z</time></trkpt><trkpt lat="44.91884162783663" lon="11.991249024173971"><ele>-7.857142857142857</ele><time>2026-04-11T17:26:23.999Z</time></trkpt><trkpt lat="44.91891409768201" lon="11.991247491340475"><ele>-7.7142857142857135</ele><time>2026-04-11T17:26:24.999Z</time></trkpt><trkpt lat="44.918989521788916" lon="11.991269146467818"><ele>-7.571428571428571</ele><time>2026-04-11T17:26:25.999Z</time></trkpt><trkpt lat="44.91906292410528" lon="11.991244889135912"><ele>-7.428571428571429</ele><time>2026-04-11T17:26:26.999Z</time></trkpt><trkpt lat="44.919137070667006" lon="11.99124865347686"><ele>-7.285714285714286</ele><time>2026-04-11T17:26:27.999Z</time></trkpt><trkpt lat="44.91921151396645" lon="11.991264959116766"><ele>-7.142857142857142</ele><time>2026-04-11T17:26:28.999Z</time></trkpt><trkpt lat="44.91928316580989" lon="11.991263607573893"><ele>-7.0</ele><time>2026-04-11T17:26:29.999Z</time></trkpt><trkpt lat="44.91935830206342" lon="11.991262190306584"><ele>-7.0</ele><time>2026-04-11T17:26:30.999Z</time></trkpt><trkpt lat="44.919433405855784" lon="11.99126077365652"><ele>-7.0</ele><time>2026-04-11T17:26:31.999Z</time></trkpt><trkpt lat="44.919509288875" lon="11.991259342302875"><ele>-7.0</ele><time>2026-04-11T17:26:32.999Z</time></trkpt><trkpt lat="44.91957838206451" lon="11.991258039029338"><ele>-7.0</ele><time>2026-04-11T17:26:33.999Z</time></trkpt><trkpt lat="44.91965914186956" lon="11.991256515685588"><ele>-7.0</ele><time>2026-04-11T17:26:34.999Z</time></trkpt><trkpt lat="44.919732417221155" lon="11.991255133524337"><ele>-7.0</ele><time>2026-04-11T17:26:35.999Z</time></trkpt><trkpt lat="44.91979942594292" lon="11.99123653450624"><ele>-7.0</ele><time>2026-04-11T17:26:36.999Z</time></trkpt><trkpt lat="44.919871600339754" lon="11.991235784704408"><ele>-7.000000000000001</ele><time>2026-04-11T17:26:37.999Z</time></trkpt><trkpt lat="44.91993774043393" lon="11.991234533840467"><ele>-7.0</ele><time>2026-04-11T17:26:38.999Z</time></trkpt><trkpt lat="44.920003304399536" lon="11.991228761413563"><ele>-7.0</ele><time>2026-04-11T17:26:39.999Z</time></trkpt><trkpt lat="44.92007399483724" lon="11.991248690475931"><ele>-7.0</ele><time>2026-04-11T17:26:40.999Z</time></trkpt><trkpt lat="44.92020876783817" lon="11.991227564523806"><ele>-7.000000000000001</ele><time>2026-04-11T17:26:42.999Z</time></trkpt><trkpt lat="44.92027433695706" lon="11.991228223061347"><ele>-7.0</ele><time>2026-04-11T17:26:43.999Z</time></trkpt><trkpt lat="44.92034500783169" lon="11.991227878833172"><ele>-6.833333333333334</ele><time>2026-04-11T17:26:44.999Z</time></trkpt><trkpt lat="44.92041796535809" lon="11.991226028015802"><ele>-6.666666666666667</ele><time>2026-04-11T17:26:45.999Z</time></trkpt><trkpt lat="44.920487426106256" lon="11.991226367558689"><ele>-6.5</ele><time>2026-04-11T17:26:46.999Z</time></trkpt><trkpt lat="44.92056044057955" lon="11.991222830412102"><ele>-6.333333333333334</ele><time>2026-04-11T17:26:47.999Z</time></trkpt><trkpt lat="44.92062848024793" lon="11.991220644593616"><ele>-6.166666666666667</ele><time>2026-04-11T17:26:48.999Z</time></trkpt><trkpt lat="44.92069331234801" lon="11.991223895565739"><ele>-6.0</ele><time>2026-04-11T17:26:49.999Z</time></trkpt><trkpt lat="44.920818952364044" lon="11.991223326577702"><ele>-6.0</ele><time>2026-04-11T17:26:51.999Z</time></trkpt><trkpt lat="44.92088689692104" lon="11.991223613471746"><ele>-6.0</ele><time>2026-04-11T17:26:52.999Z</time></trkpt><trkpt lat="44.92095118190657" lon="11.991222768139687"><ele>-6.0</ele><time>2026-04-11T17:26:53.999Z</time></trkpt><trkpt lat="44.921076161511664" lon="11.99124142237253"><ele>-6.0</ele><time>2026-04-11T17:26:55.999Z</time></trkpt><trkpt lat="44.921179001403424" lon="11.991229653260637"><ele>-6.0</ele><time>2026-04-11T17:26:57.999Z</time></trkpt><trkpt lat="44.9212543893368" lon="11.991237256295213"><ele>-6.0</ele><time>2026-04-11T17:26:58.999Z</time></trkpt><trkpt lat="44.92132254127667" lon="11.991239541661797"><ele>-5.999999999999999</ele><time>2026-04-11T17:26:59.999Z</time></trkpt><trkpt lat="44.92138668033265" lon="11.991237540060535"><ele>-6.0</ele><time>2026-04-11T17:27:00.999Z</time></trkpt><trkpt lat="44.92145729483164" lon="11.991232779363784"><ele>-6.0</ele><time>2026-04-11T17:27:01.999Z</time></trkpt><trkpt lat="44.9215273211714" lon="11.991235313477432"><ele>-6.0</ele><time>2026-04-11T17:27:02.999Z</time></trkpt><trkpt lat="44.92159791519229" lon="11.991236246881373"><ele>-6.0</ele><time>2026-04-11T17:27:03.999Z</time></trkpt><trkpt lat="44.92167019110367" lon="11.99123269270606"><ele>-5.999999999999999</ele><time>2026-04-11T17:27:04.999Z</time></trkpt><trkpt lat="44.921743028038925" lon="11.991231758665837"><ele>-6.0</ele><time>2026-04-11T17:27:05.999Z</time></trkpt><trkpt lat="44.921816699257306" lon="11.991231774810933"><ele>-6.0</ele><time>2026-04-11T17:27:06.999Z</time></trkpt><trkpt lat="44.92188128886594" lon="11.991231161597844"><ele>-6.0</ele><time>2026-04-11T17:27:07.999Z</time></trkpt><trkpt lat="44.921945762840984" lon="11.991229852249628"><ele>-6.0</ele><time>2026-04-11T17:27:08.999Z</time></trkpt><trkpt lat="44.922011533967634" lon="11.991229132164223"><ele>-6.0</ele><time>2026-04-11T17:27:09.999Z</time></trkpt><trkpt lat="44.92207570416143" lon="11.991226783685445"><ele>-6.0</ele><time>2026-04-11T17:27:10.999Z</time></trkpt><trkpt lat="44.92219728991461" lon="11.991228839187327"><ele>-6.0</ele><time>2026-04-11T17:27:13Z</time></trkpt><trkpt lat="44.922308283803304" lon="11.991228148562389"><ele>-6.0</ele><time>2026-04-11T17:27:15Z</time></trkpt><trkpt lat="44.92241086342641" lon="11.991223026639094"><ele>-6.0</ele><time>2026-04-11T17:27:17Z</time></trkpt><trkpt lat="44.92252612654637" lon="11.991218439867009"><ele>-6.0</ele><time>2026-04-11T17:27:19Z</time></trkpt><trkpt lat="44.92265178481012" lon="11.991219909189766"><ele>-6.0</ele><time>2026-04-11T17:27:21Z</time></trkpt><trkpt lat="44.92271486139532" lon="11.991218663863952"><ele>-6.0</ele><time>2026-04-11T17:27:22Z</time></trkpt><trkpt lat="44.9227820024452" lon="11.991217686616896"><ele>-6.142857142857142</ele><time>2026-04-11T17:27:23Z</time></trkpt><trkpt lat="44.922850842538956" lon="11.991215724852495"><ele>-6.285714285714286</ele><time>2026-04-11T17:27:24Z</time></trkpt><trkpt lat="44.92291833083274" lon="11.991213936866604"><ele>-6.428571428571429</ele><time>2026-04-11T17:27:25Z</time></trkpt><trkpt lat="44.92298852378675" lon="11.991218270746684"><ele>-6.571428571428571</ele><time>2026-04-11T17:27:26Z</time></trkpt><trkpt lat="44.923056884959855" lon="11.991214821797826"><ele>-6.714285714285714</ele><time>2026-04-11T17:27:27Z</time></trkpt><trkpt lat="44.923128843127394" lon="11.991209166162106"><ele>-6.857142857142857</ele><time>2026-04-11T17:27:28Z</time></trkpt><trkpt lat="44.92320265239105" lon="11.991207660386685"><ele>-7.0</ele><time>2026-04-11T17:27:29Z</time></trkpt><trkpt lat="44.92327162562695" lon="11.991209485933512"><ele>-7.0</ele><time>2026-04-11T17:27:30Z</time></trkpt><trkpt lat="44.923346518216974" lon="11.991201784185476"><ele>-7.0</ele><time>2026-04-11T17:27:31Z</time></trkpt><trkpt lat="44.9234193299622" lon="11.99120270071844"><ele>-7.0</ele><time>2026-04-11T17:27:32Z</time></trkpt><trkpt lat="44.92349392567316" lon="11.991202902319941"><ele>-7.0</ele><time>2026-04-11T17:27:33Z</time></trkpt><trkpt lat="44.92356651514742" lon="11.991203587311638"><ele>-7.0</ele><time>2026-04-11T17:27:34Z</time></trkpt><trkpt lat="44.923640178445325" lon="11.991203847674791"><ele>-7.0</ele><time>2026-04-11T17:27:35Z</time></trkpt><trkpt lat="44.923715005848706" lon="11.991201167494744"><ele>-7.0</ele><time>2026-04-11T17:27:36Z</time></trkpt><trkpt lat="44.92379257613116" lon="11.99119799353563"><ele>-7.0</ele><time>2026-04-11T17:27:37Z</time></trkpt><trkpt lat="44.923865477762455" lon="11.991198397968482"><ele>-7.0</ele><time>2026-04-11T17:27:38Z</time></trkpt><trkpt lat="44.92394182998787" lon="11.991200720080112"><ele>-7.0</ele><time>2026-04-11T17:27:39Z</time></trkpt><trkpt lat="44.92401302427833" lon="11.991199816830566"><ele>-7.0</ele><time>2026-04-11T17:27:40Z</time></trkpt><trkpt lat="44.92408407706211" lon="11.991199743113615"><ele>-7.0</ele><time>2026-04-11T17:27:41Z</time></trkpt><trkpt lat="44.9241512594055" lon="11.991201079817754"><ele>-7.0</ele><time>2026-04-11T17:27:42Z</time></trkpt><trkpt lat="44.92421491461994" lon="11.99120109231148"><ele>-7.0</ele><time>2026-04-11T17:27:43Z</time></trkpt><trkpt lat="44.924278815841085" lon="11.991203250313362"><ele>-7.0</ele><time>2026-04-11T17:27:44Z</time></trkpt><trkpt lat="44.92438439274881" lon="11.991184219946748"><ele>-6.999999999999999</ele><time>2026-04-11T17:27:46Z</time></trkpt><trkpt lat="44.92445438045998" lon="11.991104823915935"><ele>-6.999999999999999</ele><time>2026-04-11T17:27:48Z</time></trkpt><trkpt lat="44.92449039550032" lon="11.990966262640708"><ele>-7.0</ele><time>2026-04-11T17:27:50Z</time></trkpt><trkpt lat="44.92447030236468" lon="11.99088123777172"><ele>-7.0</ele><time>2026-04-11T17:27:51Z</time></trkpt><trkpt lat="44.92447378094813" lon="11.990730082110828"><ele>-6.833333333333334</ele><time>2026-04-11T17:27:53Z</time></trkpt><trkpt lat="44.92446948874319" lon="11.990564911541911"><ele>-6.666666666666667</ele><time>2026-04-11T17:27:55Z</time></trkpt><trkpt lat="44.92445952656193" lon="11.99039345377535"><ele>-6.5</ele><time>2026-04-11T17:27:57Z</time></trkpt><trkpt lat="44.9244535859673" lon="11.990304246014258"><ele>-6.333333333333334</ele><time>2026-04-11T17:27:58Z</time></trkpt><trkpt lat="44.92444599815627" lon="11.990213722674586"><ele>-6.166666666666667</ele><time>2026-04-11T17:27:59Z</time></trkpt><trkpt lat="44.92446027785206" lon="11.990117567114257"><ele>-6.0</ele><time>2026-04-11T17:28:00Z</time></trkpt><trkpt lat="44.92445849974607" lon="11.990022358830956"><ele>-6.142857142857142</ele><time>2026-04-11T17:28:01Z</time></trkpt><trkpt lat="44.92445121252744" lon="11.989923869106372"><ele>-6.285714285714286</ele><time>2026-04-11T17:28:02Z</time></trkpt><trkpt lat="44.924454820214464" lon="11.989825339325625"><ele>-6.428571428571429</ele><time>2026-04-11T17:28:03Z</time></trkpt><trkpt lat="44.92443749158601" lon="11.989725273765501"><ele>-6.571428571428571</ele><time>2026-04-11T17:28:04Z</time></trkpt><trkpt lat="44.9244433381826" lon="11.989624727034743"><ele>-6.714285714285714</ele><time>2026-04-11T17:28:05Z</time></trkpt><trkpt lat="44.924436985036735" lon="11.989521763184737"><ele>-6.857142857142857</ele><time>2026-04-11T17:28:06Z</time></trkpt><trkpt lat="44.924431526945625" lon="11.98942275840261"><ele>-7.0</ele><time>2026-04-11T17:28:07Z</time></trkpt><trkpt lat="44.924436334720625" lon="11.989318777800483"><ele>-7.0</ele><time>2026-04-11T17:28:08Z</time></trkpt><trkpt lat="44.92443199243266" lon="11.989216451238068"><ele>-7.0</ele><time>2026-04-11T17:28:09Z</time></trkpt><trkpt lat="44.92442705979409" lon="11.989109011270441"><ele>-7.0</ele><time>2026-04-11T17:28:10Z</time></trkpt><trkpt lat="44.92442586637955" lon="11.989009409403348"><ele>-7.0</ele><time>2026-04-11T17:28:11Z</time></trkpt><trkpt lat="44.92442796262878" lon="11.98890665418178"><ele>-7.0</ele><time>2026-04-11T17:28:12Z</time></trkpt><trkpt lat="44.92443040336101" lon="11.988812144983662"><ele>-7.0</ele><time>2026-04-11T17:28:13Z</time></trkpt><trkpt lat="44.92442878526078" lon="11.988720328751757"><ele>-7.0</ele><time>2026-04-11T17:28:14Z</time></trkpt><trkpt lat="44.924419604870515" lon="11.988561556125031"><ele>-6.833333333333334</ele><time>2026-04-11T17:28:16Z</time></trkpt><trkpt lat="44.92442254477047" lon="11.98846953850744"><ele>-6.666666666666667</ele><time>2026-04-11T17:28:19Z</time></trkpt><trkpt lat="44.92432006737714" lon="11.988485223255324"><ele>-6.5</ele><time>2026-04-11T17:28:19.999Z</time></trkpt><trkpt lat="44.92422461891683" lon="11.988472350864097"><ele>-6.333333333333334</ele><time>2026-04-11T17:28:21.999Z</time></trkpt><trkpt lat="44.92422722445255" lon="11.988348491625315"><ele>-6.166666666666667</ele><time>2026-04-11T17:28:26.999Z</time></trkpt><trkpt lat="44.92422152596477" lon="11.988256408989708"><ele>-6.0</ele><time>2026-04-11T17:28:29.999Z</time></trkpt><trkpt lat="44.92421152775224" lon="11.988163224899994"><ele>-6.0</ele><time>2026-04-11T17:28:32.999Z</time></trkpt><trkpt lat="44.92423145689319" lon="11.988069473202644"><ele>-4.0</ele><time>2026-04-11T17:28:36.999Z</time></trkpt></trkseg></trk></gpx>